<?xml version="1.0" encoding="UTF-8" standalone="no" ?>
<gpx xmlns="http://www.topografix.com/GPX/1/1" xmlns:xsi="http://www.w3.org/2001/XMLSchema-instance" xsi:schemaLocation="http://www.topografix.com/GPX/1/1 http://www.topografix.com/GPX/1/1/gpx.xsd" version="1.1" creator="VisuGPX - https://www.visugpx.com">
  <metadata>
    <name>rando vtt des extremes 2011 - Smarves</name>
    <desc><![CDATA[rando vtt des extremes 2011 - Smarves]]></desc>
  </metadata>
  <trk>
    <name><![CDATA[Untitled]]></name>
    <trkseg>
      <trkpt lat="46.5074" lon="0.35121">
        <ele>128.7</ele>
        <time>2011-07-03T05:53:42.000Z</time>
      </trkpt>
      <trkpt lat="46.50742" lon="0.35122">
        <ele>128.7</ele>
        <time>2011-07-03T05:53:43.000Z</time>
      </trkpt>
      <trkpt lat="46.50755" lon="0.35131">
        <ele>128.4</ele>
        <time>2011-07-03T05:53:47.000Z</time>
      </trkpt>
      <trkpt lat="46.50759" lon="0.35134">
        <ele>128.3</ele>
        <time>2011-07-03T05:53:48.000Z</time>
      </trkpt>
      <trkpt lat="46.50775" lon="0.35146">
        <ele>127.2</ele>
        <time>2011-07-03T05:53:52.000Z</time>
      </trkpt>
      <trkpt lat="46.50783" lon="0.35152">
        <ele>126.8</ele>
        <time>2011-07-03T05:53:54.000Z</time>
      </trkpt>
      <trkpt lat="46.50793" lon="0.35161">
        <ele>126.5</ele>
        <time>2011-07-03T05:53:56.000Z</time>
      </trkpt>
      <trkpt lat="46.50804" lon="0.35167">
        <ele>126.1</ele>
        <time>2011-07-03T05:53:58.000Z</time>
      </trkpt>
      <trkpt lat="46.50819" lon="0.35156">
        <ele>125.6</ele>
        <time>2011-07-03T05:54:01.000Z</time>
      </trkpt>
      <trkpt lat="46.50829" lon="0.35146">
        <ele>124.8</ele>
        <time>2011-07-03T05:54:03.000Z</time>
      </trkpt>
      <trkpt lat="46.50833" lon="0.3514">
        <ele>124.1</ele>
        <time>2011-07-03T05:54:04.000Z</time>
      </trkpt>
      <trkpt lat="46.50838" lon="0.35135">
        <ele>124.1</ele>
        <time>2011-07-03T05:54:05.000Z</time>
      </trkpt>
      <trkpt lat="46.50843" lon="0.35133">
        <ele>124.1</ele>
        <time>2011-07-03T05:54:06.000Z</time>
      </trkpt>
      <trkpt lat="46.50849" lon="0.35132">
        <ele>124.1</ele>
        <time>2011-07-03T05:54:07.000Z</time>
      </trkpt>
      <trkpt lat="46.50854" lon="0.35131">
        <ele>124.1</ele>
        <time>2011-07-03T05:54:08.000Z</time>
      </trkpt>
      <trkpt lat="46.50857" lon="0.35128">
        <ele>124.1</ele>
        <time>2011-07-03T05:54:09.000Z</time>
      </trkpt>
      <trkpt lat="46.50859" lon="0.35123">
        <ele>124</ele>
        <time>2011-07-03T05:54:10.000Z</time>
      </trkpt>
      <trkpt lat="46.50864" lon="0.35114">
        <ele>123.9</ele>
        <time>2011-07-03T05:54:12.000Z</time>
      </trkpt>
      <trkpt lat="46.50866" lon="0.35109">
        <ele>123.8</ele>
        <time>2011-07-03T05:54:13.000Z</time>
      </trkpt>
      <trkpt lat="46.50869" lon="0.35105">
        <ele>123.6</ele>
        <time>2011-07-03T05:54:14.000Z</time>
      </trkpt>
      <trkpt lat="46.50871" lon="0.35101">
        <ele>123.4</ele>
        <time>2011-07-03T05:54:15.000Z</time>
      </trkpt>
      <trkpt lat="46.50874" lon="0.35098">
        <ele>123.3</ele>
        <time>2011-07-03T05:54:16.000Z</time>
      </trkpt>
      <trkpt lat="46.50884" lon="0.35091">
        <ele>123.1</ele>
        <time>2011-07-03T05:54:19.000Z</time>
      </trkpt>
      <trkpt lat="46.50887" lon="0.3509">
        <ele>123</ele>
        <time>2011-07-03T05:54:20.000Z</time>
      </trkpt>
      <trkpt lat="46.50904" lon="0.35083">
        <ele>123</ele>
        <time>2011-07-03T05:54:24.000Z</time>
      </trkpt>
      <trkpt lat="46.50916" lon="0.35078">
        <ele>122.8</ele>
        <time>2011-07-03T05:54:27.000Z</time>
      </trkpt>
      <trkpt lat="46.50937" lon="0.35072">
        <ele>121.8</ele>
        <time>2011-07-03T05:54:32.000Z</time>
      </trkpt>
      <trkpt lat="46.50945" lon="0.35068">
        <ele>121.5</ele>
        <time>2011-07-03T05:54:34.000Z</time>
      </trkpt>
      <trkpt lat="46.50951" lon="0.35063">
        <ele>121.5</ele>
        <time>2011-07-03T05:54:36.000Z</time>
      </trkpt>
      <trkpt lat="46.50958" lon="0.35063">
        <ele>121.8</ele>
        <time>2011-07-03T05:54:38.000Z</time>
      </trkpt>
      <trkpt lat="46.50974" lon="0.35063">
        <ele>122.3</ele>
        <time>2011-07-03T05:54:43.000Z</time>
      </trkpt>
      <trkpt lat="46.50978" lon="0.35075">
        <ele>123</ele>
        <time>2011-07-03T05:54:46.000Z</time>
      </trkpt>
      <trkpt lat="46.50985" lon="0.35084">
        <ele>123.9</ele>
        <time>2011-07-03T05:54:49.000Z</time>
      </trkpt>
      <trkpt lat="46.50993" lon="0.35083">
        <ele>124.5</ele>
        <time>2011-07-03T05:54:52.000Z</time>
      </trkpt>
      <trkpt lat="46.50996" lon="0.35082">
        <ele>124.6</ele>
        <time>2011-07-03T05:54:53.000Z</time>
      </trkpt>
      <trkpt lat="46.51002" lon="0.35079">
        <ele>124.6</ele>
        <time>2011-07-03T05:54:55.000Z</time>
      </trkpt>
      <trkpt lat="46.51012" lon="0.35076">
        <ele>124.7</ele>
        <time>2011-07-03T05:54:58.000Z</time>
      </trkpt>
      <trkpt lat="46.51015" lon="0.35074">
        <ele>124.7</ele>
        <time>2011-07-03T05:54:59.000Z</time>
      </trkpt>
      <trkpt lat="46.51027" lon="0.35068">
        <ele>124.9</ele>
        <time>2011-07-03T05:55:04.000Z</time>
      </trkpt>
      <trkpt lat="46.51035" lon="0.35064">
        <ele>124.1</ele>
        <time>2011-07-03T05:55:07.000Z</time>
      </trkpt>
      <trkpt lat="46.51048" lon="0.35057">
        <ele>122.7</ele>
        <time>2011-07-03T05:55:11.000Z</time>
      </trkpt>
      <trkpt lat="46.51055" lon="0.35056">
        <ele>122.1</ele>
        <time>2011-07-03T05:55:14.000Z</time>
      </trkpt>
      <trkpt lat="46.51058" lon="0.35054">
        <ele>121.8</ele>
        <time>2011-07-03T05:55:17.000Z</time>
      </trkpt>
      <trkpt lat="46.5106" lon="0.35051">
        <ele>121.5</ele>
        <time>2011-07-03T05:55:19.000Z</time>
      </trkpt>
      <trkpt lat="46.51062" lon="0.35052">
        <ele>121.5</ele>
        <time>2011-07-03T05:55:20.000Z</time>
      </trkpt>
      <trkpt lat="46.51065" lon="0.35052">
        <ele>121.5</ele>
        <time>2011-07-03T05:55:21.000Z</time>
      </trkpt>
      <trkpt lat="46.51068" lon="0.35052">
        <ele>121.4</ele>
        <time>2011-07-03T05:55:22.000Z</time>
      </trkpt>
      <trkpt lat="46.51071" lon="0.35051">
        <ele>121.2</ele>
        <time>2011-07-03T05:55:23.000Z</time>
      </trkpt>
      <trkpt lat="46.51074" lon="0.35051">
        <ele>121.1</ele>
        <time>2011-07-03T05:55:24.000Z</time>
      </trkpt>
      <trkpt lat="46.5108" lon="0.35049">
        <ele>120.9</ele>
        <time>2011-07-03T05:55:27.000Z</time>
      </trkpt>
      <trkpt lat="46.51082" lon="0.35047">
        <ele>120.7</ele>
        <time>2011-07-03T05:55:28.000Z</time>
      </trkpt>
      <trkpt lat="46.51084" lon="0.35031">
        <ele>120.1</ele>
        <time>2011-07-03T05:55:31.000Z</time>
      </trkpt>
      <trkpt lat="46.51087" lon="0.35008">
        <ele>119.2</ele>
        <time>2011-07-03T05:55:35.000Z</time>
      </trkpt>
      <trkpt lat="46.5109" lon="0.35003">
        <ele>118.9</ele>
        <time>2011-07-03T05:55:36.000Z</time>
      </trkpt>
      <trkpt lat="46.51093" lon="0.34999">
        <ele>118.7</ele>
        <time>2011-07-03T05:55:37.000Z</time>
      </trkpt>
      <trkpt lat="46.51098" lon="0.34998">
        <ele>118.6</ele>
        <time>2011-07-03T05:55:38.000Z</time>
      </trkpt>
      <trkpt lat="46.51103" lon="0.34999">
        <ele>118.3</ele>
        <time>2011-07-03T05:55:39.000Z</time>
      </trkpt>
      <trkpt lat="46.51108" lon="0.35">
        <ele>118.1</ele>
        <time>2011-07-03T05:55:40.000Z</time>
      </trkpt>
      <trkpt lat="46.51117" lon="0.35001">
        <ele>118</ele>
        <time>2011-07-03T05:55:42.000Z</time>
      </trkpt>
      <trkpt lat="46.5113" lon="0.35004">
        <ele>118</ele>
        <time>2011-07-03T05:55:45.000Z</time>
      </trkpt>
      <trkpt lat="46.51166" lon="0.35013">
        <ele>117</ele>
        <time>2011-07-03T05:55:52.000Z</time>
      </trkpt>
      <trkpt lat="46.51181" lon="0.35015">
        <ele>117</ele>
        <time>2011-07-03T05:55:55.000Z</time>
      </trkpt>
      <trkpt lat="46.51186" lon="0.35016">
        <ele>117</ele>
        <time>2011-07-03T05:55:56.000Z</time>
      </trkpt>
      <trkpt lat="46.51192" lon="0.35018">
        <ele>117</ele>
        <time>2011-07-03T05:55:57.000Z</time>
      </trkpt>
      <trkpt lat="46.51197" lon="0.35018">
        <ele>117</ele>
        <time>2011-07-03T05:55:58.000Z</time>
      </trkpt>
      <trkpt lat="46.51203" lon="0.35019">
        <ele>116.9</ele>
        <time>2011-07-03T05:55:59.000Z</time>
      </trkpt>
      <trkpt lat="46.51223" lon="0.3502">
        <ele>116.7</ele>
        <time>2011-07-03T05:56:03.000Z</time>
      </trkpt>
      <trkpt lat="46.51258" lon="0.35021">
        <ele>117</ele>
        <time>2011-07-03T05:56:10.000Z</time>
      </trkpt>
      <trkpt lat="46.51267" lon="0.35007">
        <ele>116.4</ele>
        <time>2011-07-03T05:56:13.000Z</time>
      </trkpt>
      <trkpt lat="46.51283" lon="0.34994">
        <ele>115.8</ele>
        <time>2011-07-03T05:56:16.000Z</time>
      </trkpt>
      <trkpt lat="46.51307" lon="0.34977">
        <ele>114</ele>
        <time>2011-07-03T05:56:20.000Z</time>
      </trkpt>
      <trkpt lat="46.5132" lon="0.34967">
        <ele>113.2</ele>
        <time>2011-07-03T05:56:22.000Z</time>
      </trkpt>
      <trkpt lat="46.51326" lon="0.34962">
        <ele>112.9</ele>
        <time>2011-07-03T05:56:23.000Z</time>
      </trkpt>
      <trkpt lat="46.51332" lon="0.34957">
        <ele>112.4</ele>
        <time>2011-07-03T05:56:24.000Z</time>
      </trkpt>
      <trkpt lat="46.51337" lon="0.34951">
        <ele>111.8</ele>
        <time>2011-07-03T05:56:25.000Z</time>
      </trkpt>
      <trkpt lat="46.51342" lon="0.34945">
        <ele>111.1</ele>
        <time>2011-07-03T05:56:26.000Z</time>
      </trkpt>
      <trkpt lat="46.51346" lon="0.3494">
        <ele>111.1</ele>
        <time>2011-07-03T05:56:27.000Z</time>
      </trkpt>
      <trkpt lat="46.5135" lon="0.34935">
        <ele>111.1</ele>
        <time>2011-07-03T05:56:28.000Z</time>
      </trkpt>
      <trkpt lat="46.51354" lon="0.3493">
        <ele>110.9</ele>
        <time>2011-07-03T05:56:29.000Z</time>
      </trkpt>
      <trkpt lat="46.51357" lon="0.34925">
        <ele>110.6</ele>
        <time>2011-07-03T05:56:30.000Z</time>
      </trkpt>
      <trkpt lat="46.5136" lon="0.34919">
        <ele>110.2</ele>
        <time>2011-07-03T05:56:31.000Z</time>
      </trkpt>
      <trkpt lat="46.51361" lon="0.34912">
        <ele>110.5</ele>
        <time>2011-07-03T05:56:32.000Z</time>
      </trkpt>
      <trkpt lat="46.51361" lon="0.34906">
        <ele>111.2</ele>
        <time>2011-07-03T05:56:33.000Z</time>
      </trkpt>
      <trkpt lat="46.5136" lon="0.34902">
        <ele>111.7</ele>
        <time>2011-07-03T05:56:34.000Z</time>
      </trkpt>
      <trkpt lat="46.51358" lon="0.34901">
        <ele>112.1</ele>
        <time>2011-07-03T05:56:35.000Z</time>
      </trkpt>
      <trkpt lat="46.51355" lon="0.34902">
        <ele>112.4</ele>
        <time>2011-07-03T05:56:36.000Z</time>
      </trkpt>
      <trkpt lat="46.51352" lon="0.34902">
        <ele>112.8</ele>
        <time>2011-07-03T05:56:37.000Z</time>
      </trkpt>
      <trkpt lat="46.51349" lon="0.34902">
        <ele>113.1</ele>
        <time>2011-07-03T05:56:38.000Z</time>
      </trkpt>
      <trkpt lat="46.51347" lon="0.34902">
        <ele>113.5</ele>
        <time>2011-07-03T05:56:39.000Z</time>
      </trkpt>
      <trkpt lat="46.51344" lon="0.34902">
        <ele>113.7</ele>
        <time>2011-07-03T05:56:40.000Z</time>
      </trkpt>
      <trkpt lat="46.51342" lon="0.34904">
        <ele>113.8</ele>
        <time>2011-07-03T05:56:41.000Z</time>
      </trkpt>
      <trkpt lat="46.5134" lon="0.34904">
        <ele>113.9</ele>
        <time>2011-07-03T05:56:42.000Z</time>
      </trkpt>
      <trkpt lat="46.51338" lon="0.34905">
        <ele>114.1</ele>
        <time>2011-07-03T05:56:43.000Z</time>
      </trkpt>
      <trkpt lat="46.51336" lon="0.34906">
        <ele>114.2</ele>
        <time>2011-07-03T05:56:44.000Z</time>
      </trkpt>
      <trkpt lat="46.51334" lon="0.34907">
        <ele>114.3</ele>
        <time>2011-07-03T05:56:45.000Z</time>
      </trkpt>
      <trkpt lat="46.51333" lon="0.34907">
        <ele>114.4</ele>
        <time>2011-07-03T05:56:46.000Z</time>
      </trkpt>
      <trkpt lat="46.5133" lon="0.3491">
        <ele>114.3</ele>
        <time>2011-07-03T05:56:48.000Z</time>
      </trkpt>
      <trkpt lat="46.51324" lon="0.34911">
        <ele>114.8</ele>
        <time>2011-07-03T05:56:52.000Z</time>
      </trkpt>
      <trkpt lat="46.51324" lon="0.3491">
        <ele>115</ele>
        <time>2011-07-03T05:56:53.000Z</time>
      </trkpt>
      <trkpt lat="46.51323" lon="0.34909">
        <ele>115.1</ele>
        <time>2011-07-03T05:56:54.000Z</time>
      </trkpt>
      <trkpt lat="46.51322" lon="0.34908">
        <ele>115.3</ele>
        <time>2011-07-03T05:56:55.000Z</time>
      </trkpt>
      <trkpt lat="46.51321" lon="0.34908">
        <ele>115.4</ele>
        <time>2011-07-03T05:56:56.000Z</time>
      </trkpt>
      <trkpt lat="46.5132" lon="0.34908">
        <ele>115.5</ele>
        <time>2011-07-03T05:56:57.000Z</time>
      </trkpt>
      <trkpt lat="46.51318" lon="0.34907">
        <ele>115.9</ele>
        <time>2011-07-03T05:56:59.000Z</time>
      </trkpt>
      <trkpt lat="46.51314" lon="0.34904">
        <ele>116.6</ele>
        <time>2011-07-03T05:57:02.000Z</time>
      </trkpt>
      <trkpt lat="46.51312" lon="0.34903">
        <ele>116.9</ele>
        <time>2011-07-03T05:57:03.000Z</time>
      </trkpt>
      <trkpt lat="46.51309" lon="0.34902">
        <ele>117.2</ele>
        <time>2011-07-03T05:57:04.000Z</time>
      </trkpt>
      <trkpt lat="46.51308" lon="0.34902">
        <ele>117.4</ele>
        <time>2011-07-03T05:57:05.000Z</time>
      </trkpt>
      <trkpt lat="46.51305" lon="0.34902">
        <ele>117.5</ele>
        <time>2011-07-03T05:57:06.000Z</time>
      </trkpt>
      <trkpt lat="46.51301" lon="0.34903">
        <ele>117.6</ele>
        <time>2011-07-03T05:57:08.000Z</time>
      </trkpt>
      <trkpt lat="46.51298" lon="0.34902">
        <ele>117.9</ele>
        <time>2011-07-03T05:57:10.000Z</time>
      </trkpt>
      <trkpt lat="46.51295" lon="0.34898">
        <ele>118.4</ele>
        <time>2011-07-03T05:57:12.000Z</time>
      </trkpt>
      <trkpt lat="46.51293" lon="0.34893">
        <ele>119</ele>
        <time>2011-07-03T05:57:15.000Z</time>
      </trkpt>
      <trkpt lat="46.51294" lon="0.3489">
        <ele>119.4</ele>
        <time>2011-07-03T05:57:17.000Z</time>
      </trkpt>
      <trkpt lat="46.51294" lon="0.34888">
        <ele>119.4</ele>
        <time>2011-07-03T05:57:18.000Z</time>
      </trkpt>
      <trkpt lat="46.51296" lon="0.34887">
        <ele>119.5</ele>
        <time>2011-07-03T05:57:19.000Z</time>
      </trkpt>
      <trkpt lat="46.51296" lon="0.34886">
        <ele>119.6</ele>
        <time>2011-07-03T05:57:20.000Z</time>
      </trkpt>
      <trkpt lat="46.51297" lon="0.34881">
        <ele>119.9</ele>
        <time>2011-07-03T05:57:22.000Z</time>
      </trkpt>
      <trkpt lat="46.51297" lon="0.34879">
        <ele>120</ele>
        <time>2011-07-03T05:57:23.000Z</time>
      </trkpt>
      <trkpt lat="46.51296" lon="0.34877">
        <ele>120.1</ele>
        <time>2011-07-03T05:57:24.000Z</time>
      </trkpt>
      <trkpt lat="46.51296" lon="0.34864">
        <ele>121.1</ele>
        <time>2011-07-03T05:57:29.000Z</time>
      </trkpt>
      <trkpt lat="46.51294" lon="0.34858">
        <ele>121.7</ele>
        <time>2011-07-03T05:57:34.000Z</time>
      </trkpt>
      <trkpt lat="46.51294" lon="0.34854">
        <ele>122</ele>
        <time>2011-07-03T05:57:36.000Z</time>
      </trkpt>
      <trkpt lat="46.51294" lon="0.34851">
        <ele>122.1</ele>
        <time>2011-07-03T05:57:37.000Z</time>
      </trkpt>
      <trkpt lat="46.51294" lon="0.3485">
        <ele>122.2</ele>
        <time>2011-07-03T05:57:38.000Z</time>
      </trkpt>
      <trkpt lat="46.51295" lon="0.34847">
        <ele>122.4</ele>
        <time>2011-07-03T05:57:39.000Z</time>
      </trkpt>
      <trkpt lat="46.51295" lon="0.34844">
        <ele>122.6</ele>
        <time>2011-07-03T05:57:40.000Z</time>
      </trkpt>
      <trkpt lat="46.51293" lon="0.34835">
        <ele>123.3</ele>
        <time>2011-07-03T05:57:43.000Z</time>
      </trkpt>
      <trkpt lat="46.51293" lon="0.34833">
        <ele>123.5</ele>
        <time>2011-07-03T05:57:44.000Z</time>
      </trkpt>
      <trkpt lat="46.51292" lon="0.34828">
        <ele>123.6</ele>
        <time>2011-07-03T05:57:46.000Z</time>
      </trkpt>
      <trkpt lat="46.51293" lon="0.34823">
        <ele>123.7</ele>
        <time>2011-07-03T05:57:48.000Z</time>
      </trkpt>
      <trkpt lat="46.51297" lon="0.34816">
        <ele>123.7</ele>
        <time>2011-07-03T05:57:53.000Z</time>
      </trkpt>
      <trkpt lat="46.51298" lon="0.34814">
        <ele>123.8</ele>
        <time>2011-07-03T05:57:54.000Z</time>
      </trkpt>
      <trkpt lat="46.51305" lon="0.3481">
        <ele>123.8</ele>
        <time>2011-07-03T05:57:58.000Z</time>
      </trkpt>
      <trkpt lat="46.51309" lon="0.34811">
        <ele>123.7</ele>
        <time>2011-07-03T05:58:00.000Z</time>
      </trkpt>
      <trkpt lat="46.51312" lon="0.34813">
        <ele>123.5</ele>
        <time>2011-07-03T05:58:02.000Z</time>
      </trkpt>
      <trkpt lat="46.51312" lon="0.34815">
        <ele>123.4</ele>
        <time>2011-07-03T05:58:03.000Z</time>
      </trkpt>
      <trkpt lat="46.51314" lon="0.34824">
        <ele>123</ele>
        <time>2011-07-03T05:58:08.000Z</time>
      </trkpt>
      <trkpt lat="46.51318" lon="0.34826">
        <ele>122.8</ele>
        <time>2011-07-03T05:58:10.000Z</time>
      </trkpt>
      <trkpt lat="46.51323" lon="0.34828">
        <ele>122.6</ele>
        <time>2011-07-03T05:58:12.000Z</time>
      </trkpt>
      <trkpt lat="46.51324" lon="0.34828">
        <ele>122.5</ele>
        <time>2011-07-03T05:58:13.000Z</time>
      </trkpt>
      <trkpt lat="46.51338" lon="0.34823">
        <ele>122.1</ele>
        <time>2011-07-03T05:58:19.000Z</time>
      </trkpt>
      <trkpt lat="46.51348" lon="0.34825">
        <ele>121.4</ele>
        <time>2011-07-03T05:58:23.000Z</time>
      </trkpt>
      <trkpt lat="46.51361" lon="0.34835">
        <ele>119.9</ele>
        <time>2011-07-03T05:58:27.000Z</time>
      </trkpt>
      <trkpt lat="46.51363" lon="0.34837">
        <ele>119.4</ele>
        <time>2011-07-03T05:58:28.000Z</time>
      </trkpt>
      <trkpt lat="46.51367" lon="0.34841">
        <ele>118.6</ele>
        <time>2011-07-03T05:58:29.000Z</time>
      </trkpt>
      <trkpt lat="46.51369" lon="0.34843">
        <ele>118.1</ele>
        <time>2011-07-03T05:58:30.000Z</time>
      </trkpt>
      <trkpt lat="46.51372" lon="0.34843">
        <ele>117.6</ele>
        <time>2011-07-03T05:58:31.000Z</time>
      </trkpt>
      <trkpt lat="46.51373" lon="0.34844">
        <ele>117.3</ele>
        <time>2011-07-03T05:58:32.000Z</time>
      </trkpt>
      <trkpt lat="46.51375" lon="0.34843">
        <ele>117.1</ele>
        <time>2011-07-03T05:58:33.000Z</time>
      </trkpt>
      <trkpt lat="46.51377" lon="0.34843">
        <ele>116.7</ele>
        <time>2011-07-03T05:58:34.000Z</time>
      </trkpt>
      <trkpt lat="46.51379" lon="0.34843">
        <ele>116.5</ele>
        <time>2011-07-03T05:58:35.000Z</time>
      </trkpt>
      <trkpt lat="46.51383" lon="0.34841">
        <ele>116.2</ele>
        <time>2011-07-03T05:58:37.000Z</time>
      </trkpt>
      <trkpt lat="46.51385" lon="0.34839">
        <ele>116.4</ele>
        <time>2011-07-03T05:58:38.000Z</time>
      </trkpt>
      <trkpt lat="46.51396" lon="0.34829">
        <ele>115.5</ele>
        <time>2011-07-03T05:58:42.000Z</time>
      </trkpt>
      <trkpt lat="46.51398" lon="0.34826">
        <ele>115.3</ele>
        <time>2011-07-03T05:58:43.000Z</time>
      </trkpt>
      <trkpt lat="46.51399" lon="0.34823">
        <ele>115.3</ele>
        <time>2011-07-03T05:58:44.000Z</time>
      </trkpt>
      <trkpt lat="46.51401" lon="0.34819">
        <ele>115.3</ele>
        <time>2011-07-03T05:58:45.000Z</time>
      </trkpt>
      <trkpt lat="46.51404" lon="0.34814">
        <ele>115.1</ele>
        <time>2011-07-03T05:58:46.000Z</time>
      </trkpt>
      <trkpt lat="46.51406" lon="0.3481">
        <ele>115</ele>
        <time>2011-07-03T05:58:47.000Z</time>
      </trkpt>
      <trkpt lat="46.5141" lon="0.34802">
        <ele>114.8</ele>
        <time>2011-07-03T05:58:49.000Z</time>
      </trkpt>
      <trkpt lat="46.51421" lon="0.34779">
        <ele>113.5</ele>
        <time>2011-07-03T05:58:56.000Z</time>
      </trkpt>
      <trkpt lat="46.51421" lon="0.34777">
        <ele>113.4</ele>
        <time>2011-07-03T05:58:57.000Z</time>
      </trkpt>
      <trkpt lat="46.51422" lon="0.34775">
        <ele>113.3</ele>
        <time>2011-07-03T05:58:58.000Z</time>
      </trkpt>
      <trkpt lat="46.51422" lon="0.34771">
        <ele>113.3</ele>
        <time>2011-07-03T05:58:59.000Z</time>
      </trkpt>
      <trkpt lat="46.51422" lon="0.34765">
        <ele>113.4</ele>
        <time>2011-07-03T05:59:01.000Z</time>
      </trkpt>
      <trkpt lat="46.51427" lon="0.34744">
        <ele>111.6</ele>
        <time>2011-07-03T05:59:07.000Z</time>
      </trkpt>
      <trkpt lat="46.51429" lon="0.34741">
        <ele>111.2</ele>
        <time>2011-07-03T05:59:08.000Z</time>
      </trkpt>
      <trkpt lat="46.5143" lon="0.34737">
        <ele>110.7</ele>
        <time>2011-07-03T05:59:09.000Z</time>
      </trkpt>
      <trkpt lat="46.51432" lon="0.34732">
        <ele>110.1</ele>
        <time>2011-07-03T05:59:10.000Z</time>
      </trkpt>
      <trkpt lat="46.51433" lon="0.34727">
        <ele>109.6</ele>
        <time>2011-07-03T05:59:11.000Z</time>
      </trkpt>
      <trkpt lat="46.51435" lon="0.34723">
        <ele>109.1</ele>
        <time>2011-07-03T05:59:12.000Z</time>
      </trkpt>
      <trkpt lat="46.51437" lon="0.34714">
        <ele>109.2</ele>
        <time>2011-07-03T05:59:14.000Z</time>
      </trkpt>
      <trkpt lat="46.51438" lon="0.34704">
        <ele>109.8</ele>
        <time>2011-07-03T05:59:17.000Z</time>
      </trkpt>
      <trkpt lat="46.51438" lon="0.34702">
        <ele>109.8</ele>
        <time>2011-07-03T05:59:18.000Z</time>
      </trkpt>
      <trkpt lat="46.51441" lon="0.34692">
        <ele>109.8</ele>
        <time>2011-07-03T05:59:22.000Z</time>
      </trkpt>
      <trkpt lat="46.51444" lon="0.34678">
        <ele>110.5</ele>
        <time>2011-07-03T05:59:27.000Z</time>
      </trkpt>
      <trkpt lat="46.51449" lon="0.34663">
        <ele>110.5</ele>
        <time>2011-07-03T05:59:33.000Z</time>
      </trkpt>
      <trkpt lat="46.5145" lon="0.34662">
        <ele>110.3</ele>
        <time>2011-07-03T05:59:34.000Z</time>
      </trkpt>
      <trkpt lat="46.51451" lon="0.34661">
        <ele>110</ele>
        <time>2011-07-03T05:59:35.000Z</time>
      </trkpt>
      <trkpt lat="46.51452" lon="0.34661">
        <ele>109.5</ele>
        <time>2011-07-03T05:59:36.000Z</time>
      </trkpt>
      <trkpt lat="46.51454" lon="0.34661">
        <ele>109</ele>
        <time>2011-07-03T05:59:37.000Z</time>
      </trkpt>
      <trkpt lat="46.51456" lon="0.3466">
        <ele>108.2</ele>
        <time>2011-07-03T05:59:38.000Z</time>
      </trkpt>
      <trkpt lat="46.51457" lon="0.3466">
        <ele>107.7</ele>
        <time>2011-07-03T05:59:39.000Z</time>
      </trkpt>
      <trkpt lat="46.51458" lon="0.34659">
        <ele>107.2</ele>
        <time>2011-07-03T05:59:40.000Z</time>
      </trkpt>
      <trkpt lat="46.51459" lon="0.34659">
        <ele>106.8</ele>
        <time>2011-07-03T05:59:41.000Z</time>
      </trkpt>
      <trkpt lat="46.5146" lon="0.3466">
        <ele>106.3</ele>
        <time>2011-07-03T05:59:42.000Z</time>
      </trkpt>
      <trkpt lat="46.51461" lon="0.3466">
        <ele>106.1</ele>
        <time>2011-07-03T05:59:43.000Z</time>
      </trkpt>
      <trkpt lat="46.51461" lon="0.3466">
        <ele>106.1</ele>
        <time>2011-07-03T05:59:44.000Z</time>
      </trkpt>
      <trkpt lat="46.51461" lon="0.3466">
        <ele>106.1</ele>
        <time>2011-07-03T05:59:45.000Z</time>
      </trkpt>
      <trkpt lat="46.5146" lon="0.34661">
        <ele>106.2</ele>
        <time>2011-07-03T05:59:50.000Z</time>
      </trkpt>
      <trkpt lat="46.5146" lon="0.34663">
        <ele>106.1</ele>
        <time>2011-07-03T05:59:56.000Z</time>
      </trkpt>
      <trkpt lat="46.5146" lon="0.34663">
        <ele>106.1</ele>
        <time>2011-07-03T05:59:59.000Z</time>
      </trkpt>
      <trkpt lat="46.5146" lon="0.34663">
        <ele>106.1</ele>
        <time>2011-07-03T06:00:00.000Z</time>
      </trkpt>
      <trkpt lat="46.5146" lon="0.34663">
        <ele>106.1</ele>
        <time>2011-07-03T06:00:06.000Z</time>
      </trkpt>
      <trkpt lat="46.5146" lon="0.34663">
        <ele>106.1</ele>
        <time>2011-07-03T06:00:11.000Z</time>
      </trkpt>
      <trkpt lat="46.5146" lon="0.34663">
        <ele>106.1</ele>
        <time>2011-07-03T06:00:13.000Z</time>
      </trkpt>
      <trkpt lat="46.5146" lon="0.34663">
        <ele>106.1</ele>
        <time>2011-07-03T06:00:18.000Z</time>
      </trkpt>
      <trkpt lat="46.5146" lon="0.34663">
        <ele>106.1</ele>
        <time>2011-07-03T06:00:22.000Z</time>
      </trkpt>
      <trkpt lat="46.5146" lon="0.34663">
        <ele>106.1</ele>
        <time>2011-07-03T06:00:25.000Z</time>
      </trkpt>
      <trkpt lat="46.5146" lon="0.34663">
        <ele>106.1</ele>
        <time>2011-07-03T06:00:30.000Z</time>
      </trkpt>
      <trkpt lat="46.5146" lon="0.34664">
        <ele>106.2</ele>
        <time>2011-07-03T06:00:35.000Z</time>
      </trkpt>
      <trkpt lat="46.5146" lon="0.34664">
        <ele>106.2</ele>
        <time>2011-07-03T06:00:37.000Z</time>
      </trkpt>
      <trkpt lat="46.5146" lon="0.34664">
        <ele>106.2</ele>
        <time>2011-07-03T06:00:40.000Z</time>
      </trkpt>
      <trkpt lat="46.5146" lon="0.34664">
        <ele>106.2</ele>
        <time>2011-07-03T06:00:45.000Z</time>
      </trkpt>
      <trkpt lat="46.5146" lon="0.34664">
        <ele>106.2</ele>
        <time>2011-07-03T06:00:52.000Z</time>
      </trkpt>
      <trkpt lat="46.5146" lon="0.34664">
        <ele>106.2</ele>
        <time>2011-07-03T06:00:54.000Z</time>
      </trkpt>
      <trkpt lat="46.5146" lon="0.34664">
        <ele>106.2</ele>
        <time>2011-07-03T06:00:55.000Z</time>
      </trkpt>
      <trkpt lat="46.5146" lon="0.34664">
        <ele>106.2</ele>
        <time>2011-07-03T06:00:57.000Z</time>
      </trkpt>
      <trkpt lat="46.5146" lon="0.34664">
        <ele>106.2</ele>
        <time>2011-07-03T06:01:03.000Z</time>
      </trkpt>
      <trkpt lat="46.5146" lon="0.34664">
        <ele>106.2</ele>
        <time>2011-07-03T06:01:05.000Z</time>
      </trkpt>
      <trkpt lat="46.5146" lon="0.34664">
        <ele>106.2</ele>
        <time>2011-07-03T06:01:09.000Z</time>
      </trkpt>
      <trkpt lat="46.51459" lon="0.34664">
        <ele>106.3</ele>
        <time>2011-07-03T06:01:22.000Z</time>
      </trkpt>
      <trkpt lat="46.51459" lon="0.34664">
        <ele>106.3</ele>
        <time>2011-07-03T06:01:31.000Z</time>
      </trkpt>
      <trkpt lat="46.51459" lon="0.34664">
        <ele>106.3</ele>
        <time>2011-07-03T06:01:35.000Z</time>
      </trkpt>
      <trkpt lat="46.51459" lon="0.34663">
        <ele>106.5</ele>
        <time>2011-07-03T06:01:44.000Z</time>
      </trkpt>
      <trkpt lat="46.5146" lon="0.34663">
        <ele>106.2</ele>
        <time>2011-07-03T06:01:52.000Z</time>
      </trkpt>
      <trkpt lat="46.5146" lon="0.34663">
        <ele>106.2</ele>
        <time>2011-07-03T06:01:58.000Z</time>
      </trkpt>
      <trkpt lat="46.5146" lon="0.34663">
        <ele>106.2</ele>
        <time>2011-07-03T06:02:03.000Z</time>
      </trkpt>
      <trkpt lat="46.5146" lon="0.34663">
        <ele>106.2</ele>
        <time>2011-07-03T06:02:04.000Z</time>
      </trkpt>
      <trkpt lat="46.5146" lon="0.34663">
        <ele>106.2</ele>
        <time>2011-07-03T06:02:10.000Z</time>
      </trkpt>
      <trkpt lat="46.5146" lon="0.34663">
        <ele>106.2</ele>
        <time>2011-07-03T06:02:17.000Z</time>
      </trkpt>
      <trkpt lat="46.5146" lon="0.34663">
        <ele>106.2</ele>
        <time>2011-07-03T06:02:25.000Z</time>
      </trkpt>
      <trkpt lat="46.5146" lon="0.34663">
        <ele>106.2</ele>
        <time>2011-07-03T06:02:35.000Z</time>
      </trkpt>
      <trkpt lat="46.5146" lon="0.34666">
        <ele>106</ele>
        <time>2011-07-03T06:02:41.000Z</time>
      </trkpt>
      <trkpt lat="46.5146" lon="0.34668">
        <ele>105.9</ele>
        <time>2011-07-03T06:02:42.000Z</time>
      </trkpt>
      <trkpt lat="46.51458" lon="0.34671">
        <ele>106.3</ele>
        <time>2011-07-03T06:02:44.000Z</time>
      </trkpt>
      <trkpt lat="46.51458" lon="0.34673">
        <ele>106.3</ele>
        <time>2011-07-03T06:02:45.000Z</time>
      </trkpt>
      <trkpt lat="46.51459" lon="0.34685">
        <ele>105.4</ele>
        <time>2011-07-03T06:02:49.000Z</time>
      </trkpt>
      <trkpt lat="46.5146" lon="0.34689">
        <ele>105</ele>
        <time>2011-07-03T06:02:51.000Z</time>
      </trkpt>
      <trkpt lat="46.51459" lon="0.34691">
        <ele>105</ele>
        <time>2011-07-03T06:02:52.000Z</time>
      </trkpt>
      <trkpt lat="46.5146" lon="0.34692">
        <ele>104.8</ele>
        <time>2011-07-03T06:02:53.000Z</time>
      </trkpt>
      <trkpt lat="46.5146" lon="0.34692">
        <ele>104.8</ele>
        <time>2011-07-03T06:02:54.000Z</time>
      </trkpt>
      <trkpt lat="46.5146" lon="0.34693">
        <ele>104.8</ele>
        <time>2011-07-03T06:02:55.000Z</time>
      </trkpt>
      <trkpt lat="46.5146" lon="0.34693">
        <ele>104.8</ele>
        <time>2011-07-03T06:02:57.000Z</time>
      </trkpt>
      <trkpt lat="46.5146" lon="0.34693">
        <ele>104.8</ele>
        <time>2011-07-03T06:02:59.000Z</time>
      </trkpt>
      <trkpt lat="46.51461" lon="0.34694">
        <ele>104.4</ele>
        <time>2011-07-03T06:03:04.000Z</time>
      </trkpt>
      <trkpt lat="46.51463" lon="0.34694">
        <ele>104</ele>
        <time>2011-07-03T06:03:05.000Z</time>
      </trkpt>
      <trkpt lat="46.51469" lon="0.34687">
        <ele>102.6</ele>
        <time>2011-07-03T06:03:09.000Z</time>
      </trkpt>
      <trkpt lat="46.5147" lon="0.34693">
        <ele>102.4</ele>
        <time>2011-07-03T06:03:12.000Z</time>
      </trkpt>
      <trkpt lat="46.51465" lon="0.34711">
        <ele>102.6</ele>
        <time>2011-07-03T06:03:16.000Z</time>
      </trkpt>
      <trkpt lat="46.51462" lon="0.34723">
        <ele>102.5</ele>
        <time>2011-07-03T06:03:19.000Z</time>
      </trkpt>
      <trkpt lat="46.51458" lon="0.34735">
        <ele>103</ele>
        <time>2011-07-03T06:03:22.000Z</time>
      </trkpt>
      <trkpt lat="46.51456" lon="0.34748">
        <ele>103.1</ele>
        <time>2011-07-03T06:03:25.000Z</time>
      </trkpt>
      <trkpt lat="46.51454" lon="0.34759">
        <ele>103.5</ele>
        <time>2011-07-03T06:03:28.000Z</time>
      </trkpt>
      <trkpt lat="46.51452" lon="0.34766">
        <ele>103.9</ele>
        <time>2011-07-03T06:03:30.000Z</time>
      </trkpt>
      <trkpt lat="46.51451" lon="0.34772">
        <ele>104.1</ele>
        <time>2011-07-03T06:03:32.000Z</time>
      </trkpt>
      <trkpt lat="46.51452" lon="0.34776">
        <ele>104.1</ele>
        <time>2011-07-03T06:03:34.000Z</time>
      </trkpt>
      <trkpt lat="46.51454" lon="0.34777">
        <ele>103.9</ele>
        <time>2011-07-03T06:03:35.000Z</time>
      </trkpt>
      <trkpt lat="46.51458" lon="0.34778">
        <ele>103.6</ele>
        <time>2011-07-03T06:03:36.000Z</time>
      </trkpt>
      <trkpt lat="46.51461" lon="0.34779">
        <ele>103.3</ele>
        <time>2011-07-03T06:03:37.000Z</time>
      </trkpt>
      <trkpt lat="46.51464" lon="0.34778">
        <ele>102.9</ele>
        <time>2011-07-03T06:03:38.000Z</time>
      </trkpt>
      <trkpt lat="46.51475" lon="0.34776">
        <ele>102.8</ele>
        <time>2011-07-03T06:03:41.000Z</time>
      </trkpt>
      <trkpt lat="46.51479" lon="0.34775">
        <ele>104.2</ele>
        <time>2011-07-03T06:03:42.000Z</time>
      </trkpt>
      <trkpt lat="46.51485" lon="0.34771">
        <ele>105.7</ele>
        <time>2011-07-03T06:03:44.000Z</time>
      </trkpt>
      <trkpt lat="46.51486" lon="0.34769">
        <ele>105.8</ele>
        <time>2011-07-03T06:03:45.000Z</time>
      </trkpt>
      <trkpt lat="46.51485" lon="0.34766">
        <ele>105.5</ele>
        <time>2011-07-03T06:03:49.000Z</time>
      </trkpt>
      <trkpt lat="46.51485" lon="0.34766">
        <ele>105.5</ele>
        <time>2011-07-03T06:03:59.000Z</time>
      </trkpt>
      <trkpt lat="46.51485" lon="0.34768">
        <ele>105.5</ele>
        <time>2011-07-03T06:04:05.000Z</time>
      </trkpt>
      <trkpt lat="46.51485" lon="0.34768">
        <ele>105.5</ele>
        <time>2011-07-03T06:04:12.000Z</time>
      </trkpt>
      <trkpt lat="46.51485" lon="0.34768">
        <ele>105.5</ele>
        <time>2011-07-03T06:04:17.000Z</time>
      </trkpt>
      <trkpt lat="46.51485" lon="0.34768">
        <ele>105.5</ele>
        <time>2011-07-03T06:04:22.000Z</time>
      </trkpt>
      <trkpt lat="46.51486" lon="0.34767">
        <ele>105.7</ele>
        <time>2011-07-03T06:04:23.000Z</time>
      </trkpt>
      <trkpt lat="46.5149" lon="0.34762">
        <ele>106.2</ele>
        <time>2011-07-03T06:04:26.000Z</time>
      </trkpt>
      <trkpt lat="46.51497" lon="0.34751">
        <ele>106.6</ele>
        <time>2011-07-03T06:04:32.000Z</time>
      </trkpt>
      <trkpt lat="46.515" lon="0.3475">
        <ele>106.9</ele>
        <time>2011-07-03T06:04:35.000Z</time>
      </trkpt>
      <trkpt lat="46.515" lon="0.3475">
        <ele>106.9</ele>
        <time>2011-07-03T06:04:37.000Z</time>
      </trkpt>
      <trkpt lat="46.51501" lon="0.34749">
        <ele>107.2</ele>
        <time>2011-07-03T06:04:40.000Z</time>
      </trkpt>
      <trkpt lat="46.51502" lon="0.34749">
        <ele>107.3</ele>
        <time>2011-07-03T06:04:41.000Z</time>
      </trkpt>
      <trkpt lat="46.51502" lon="0.34749">
        <ele>107.3</ele>
        <time>2011-07-03T06:04:42.000Z</time>
      </trkpt>
      <trkpt lat="46.51502" lon="0.34749">
        <ele>107.3</ele>
        <time>2011-07-03T06:04:43.000Z</time>
      </trkpt>
      <trkpt lat="46.51503" lon="0.34748">
        <ele>107.4</ele>
        <time>2011-07-03T06:04:45.000Z</time>
      </trkpt>
      <trkpt lat="46.51506" lon="0.34745">
        <ele>107.7</ele>
        <time>2011-07-03T06:04:51.000Z</time>
      </trkpt>
      <trkpt lat="46.51506" lon="0.34745">
        <ele>107.8</ele>
        <time>2011-07-03T06:04:52.000Z</time>
      </trkpt>
      <trkpt lat="46.51506" lon="0.34745">
        <ele>107.8</ele>
        <time>2011-07-03T06:04:53.000Z</time>
      </trkpt>
      <trkpt lat="46.51507" lon="0.34745">
        <ele>107.9</ele>
        <time>2011-07-03T06:04:54.000Z</time>
      </trkpt>
      <trkpt lat="46.51507" lon="0.34745">
        <ele>107.9</ele>
        <time>2011-07-03T06:04:55.000Z</time>
      </trkpt>
      <trkpt lat="46.51507" lon="0.34745">
        <ele>108</ele>
        <time>2011-07-03T06:04:58.000Z</time>
      </trkpt>
      <trkpt lat="46.51509" lon="0.34744">
        <ele>108.3</ele>
        <time>2011-07-03T06:05:01.000Z</time>
      </trkpt>
      <trkpt lat="46.51511" lon="0.34743">
        <ele>108.6</ele>
        <time>2011-07-03T06:05:04.000Z</time>
      </trkpt>
      <trkpt lat="46.51512" lon="0.34743">
        <ele>108.8</ele>
        <time>2011-07-03T06:05:05.000Z</time>
      </trkpt>
      <trkpt lat="46.51513" lon="0.34743">
        <ele>109.2</ele>
        <time>2011-07-03T06:05:06.000Z</time>
      </trkpt>
      <trkpt lat="46.51515" lon="0.34743">
        <ele>109.5</ele>
        <time>2011-07-03T06:05:07.000Z</time>
      </trkpt>
      <trkpt lat="46.51516" lon="0.34743">
        <ele>110</ele>
        <time>2011-07-03T06:05:08.000Z</time>
      </trkpt>
      <trkpt lat="46.51518" lon="0.34743">
        <ele>110.3</ele>
        <time>2011-07-03T06:05:09.000Z</time>
      </trkpt>
      <trkpt lat="46.51522" lon="0.34741">
        <ele>110.8</ele>
        <time>2011-07-03T06:05:13.000Z</time>
      </trkpt>
      <trkpt lat="46.51523" lon="0.3474">
        <ele>111.1</ele>
        <time>2011-07-03T06:05:14.000Z</time>
      </trkpt>
      <trkpt lat="46.51525" lon="0.34739">
        <ele>111.1</ele>
        <time>2011-07-03T06:05:15.000Z</time>
      </trkpt>
      <trkpt lat="46.51526" lon="0.34737">
        <ele>111</ele>
        <time>2011-07-03T06:05:16.000Z</time>
      </trkpt>
      <trkpt lat="46.51527" lon="0.34735">
        <ele>110.7</ele>
        <time>2011-07-03T06:05:17.000Z</time>
      </trkpt>
      <trkpt lat="46.51529" lon="0.34735">
        <ele>110.8</ele>
        <time>2011-07-03T06:05:18.000Z</time>
      </trkpt>
      <trkpt lat="46.5153" lon="0.34734">
        <ele>110.7</ele>
        <time>2011-07-03T06:05:19.000Z</time>
      </trkpt>
      <trkpt lat="46.51531" lon="0.34733">
        <ele>110.7</ele>
        <time>2011-07-03T06:05:20.000Z</time>
      </trkpt>
      <trkpt lat="46.51535" lon="0.34727">
        <ele>110.1</ele>
        <time>2011-07-03T06:05:24.000Z</time>
      </trkpt>
      <trkpt lat="46.51542" lon="0.34722">
        <ele>110.4</ele>
        <time>2011-07-03T06:05:30.000Z</time>
      </trkpt>
      <trkpt lat="46.51548" lon="0.34721">
        <ele>111.6</ele>
        <time>2011-07-03T06:05:34.000Z</time>
      </trkpt>
      <trkpt lat="46.51549" lon="0.34721">
        <ele>111.9</ele>
        <time>2011-07-03T06:05:35.000Z</time>
      </trkpt>
      <trkpt lat="46.51549" lon="0.3472">
        <ele>111.9</ele>
        <time>2011-07-03T06:05:36.000Z</time>
      </trkpt>
      <trkpt lat="46.51555" lon="0.34719">
        <ele>113.1</ele>
        <time>2011-07-03T06:05:41.000Z</time>
      </trkpt>
      <trkpt lat="46.51556" lon="0.34719">
        <ele>113.3</ele>
        <time>2011-07-03T06:05:42.000Z</time>
      </trkpt>
      <trkpt lat="46.51556" lon="0.34719">
        <ele>113.3</ele>
        <time>2011-07-03T06:05:43.000Z</time>
      </trkpt>
      <trkpt lat="46.51556" lon="0.34719">
        <ele>113.3</ele>
        <time>2011-07-03T06:05:44.000Z</time>
      </trkpt>
      <trkpt lat="46.51557" lon="0.3472">
        <ele>113.5</ele>
        <time>2011-07-03T06:05:45.000Z</time>
      </trkpt>
      <trkpt lat="46.51557" lon="0.34719">
        <ele>113.4</ele>
        <time>2011-07-03T06:05:46.000Z</time>
      </trkpt>
      <trkpt lat="46.51557" lon="0.34718">
        <ele>113.3</ele>
        <time>2011-07-03T06:05:47.000Z</time>
      </trkpt>
      <trkpt lat="46.51558" lon="0.34718">
        <ele>113.2</ele>
        <time>2011-07-03T06:05:48.000Z</time>
      </trkpt>
      <trkpt lat="46.51559" lon="0.34717">
        <ele>113.2</ele>
        <time>2011-07-03T06:05:50.000Z</time>
      </trkpt>
      <trkpt lat="46.51559" lon="0.34716">
        <ele>113.1</ele>
        <time>2011-07-03T06:05:53.000Z</time>
      </trkpt>
      <trkpt lat="46.5156" lon="0.34714">
        <ele>112.9</ele>
        <time>2011-07-03T06:05:54.000Z</time>
      </trkpt>
      <trkpt lat="46.51561" lon="0.34713">
        <ele>112.8</ele>
        <time>2011-07-03T06:05:55.000Z</time>
      </trkpt>
      <trkpt lat="46.51564" lon="0.34713">
        <ele>113.5</ele>
        <time>2011-07-03T06:06:01.000Z</time>
      </trkpt>
      <trkpt lat="46.51565" lon="0.34713">
        <ele>113.8</ele>
        <time>2011-07-03T06:06:02.000Z</time>
      </trkpt>
      <trkpt lat="46.51565" lon="0.34713">
        <ele>113.7</ele>
        <time>2011-07-03T06:06:03.000Z</time>
      </trkpt>
      <trkpt lat="46.51565" lon="0.34713">
        <ele>113.7</ele>
        <time>2011-07-03T06:06:04.000Z</time>
      </trkpt>
      <trkpt lat="46.51566" lon="0.34714">
        <ele>114.2</ele>
        <time>2011-07-03T06:06:05.000Z</time>
      </trkpt>
      <trkpt lat="46.51566" lon="0.34714">
        <ele>114.4</ele>
        <time>2011-07-03T06:06:07.000Z</time>
      </trkpt>
      <trkpt lat="46.51565" lon="0.34717">
        <ele>114.8</ele>
        <time>2011-07-03T06:06:10.000Z</time>
      </trkpt>
      <trkpt lat="46.51565" lon="0.34718">
        <ele>114.9</ele>
        <time>2011-07-03T06:06:11.000Z</time>
      </trkpt>
      <trkpt lat="46.51565" lon="0.34719">
        <ele>115.2</ele>
        <time>2011-07-03T06:06:12.000Z</time>
      </trkpt>
      <trkpt lat="46.51565" lon="0.34719">
        <ele>115.3</ele>
        <time>2011-07-03T06:06:13.000Z</time>
      </trkpt>
      <trkpt lat="46.51565" lon="0.34719">
        <ele>115.3</ele>
        <time>2011-07-03T06:06:14.000Z</time>
      </trkpt>
      <trkpt lat="46.51563" lon="0.34721">
        <ele>115.2</ele>
        <time>2011-07-03T06:06:19.000Z</time>
      </trkpt>
      <trkpt lat="46.51562" lon="0.34721">
        <ele>114.9</ele>
        <time>2011-07-03T06:06:20.000Z</time>
      </trkpt>
      <trkpt lat="46.51556" lon="0.34724">
        <ele>114.6</ele>
        <time>2011-07-03T06:06:26.000Z</time>
      </trkpt>
      <trkpt lat="46.51554" lon="0.34729">
        <ele>115.1</ele>
        <time>2011-07-03T06:06:32.000Z</time>
      </trkpt>
      <trkpt lat="46.51554" lon="0.34734">
        <ele>116.2</ele>
        <time>2011-07-03T06:06:36.000Z</time>
      </trkpt>
      <trkpt lat="46.51554" lon="0.34735">
        <ele>116.5</ele>
        <time>2011-07-03T06:06:37.000Z</time>
      </trkpt>
      <trkpt lat="46.51555" lon="0.34737">
        <ele>116.9</ele>
        <time>2011-07-03T06:06:42.000Z</time>
      </trkpt>
      <trkpt lat="46.51555" lon="0.34737">
        <ele>116.9</ele>
        <time>2011-07-03T06:06:43.000Z</time>
      </trkpt>
      <trkpt lat="46.51555" lon="0.34738">
        <ele>117.2</ele>
        <time>2011-07-03T06:06:44.000Z</time>
      </trkpt>
      <trkpt lat="46.51556" lon="0.34738">
        <ele>117.5</ele>
        <time>2011-07-03T06:06:45.000Z</time>
      </trkpt>
      <trkpt lat="46.51556" lon="0.34739">
        <ele>117.8</ele>
        <time>2011-07-03T06:06:46.000Z</time>
      </trkpt>
      <trkpt lat="46.51557" lon="0.34741">
        <ele>118.3</ele>
        <time>2011-07-03T06:06:48.000Z</time>
      </trkpt>
      <trkpt lat="46.51559" lon="0.34745">
        <ele>119.3</ele>
        <time>2011-07-03T06:06:52.000Z</time>
      </trkpt>
      <trkpt lat="46.5156" lon="0.34747">
        <ele>119.9</ele>
        <time>2011-07-03T06:06:54.000Z</time>
      </trkpt>
      <trkpt lat="46.51562" lon="0.3475">
        <ele>120.7</ele>
        <time>2011-07-03T06:06:57.000Z</time>
      </trkpt>
      <trkpt lat="46.51562" lon="0.34751">
        <ele>120.8</ele>
        <time>2011-07-03T06:06:58.000Z</time>
      </trkpt>
      <trkpt lat="46.51562" lon="0.34751">
        <ele>120.8</ele>
        <time>2011-07-03T06:06:59.000Z</time>
      </trkpt>
      <trkpt lat="46.51562" lon="0.34751">
        <ele>120.8</ele>
        <time>2011-07-03T06:07:00.000Z</time>
      </trkpt>
      <trkpt lat="46.51562" lon="0.34752">
        <ele>120.9</ele>
        <time>2011-07-03T06:07:01.000Z</time>
      </trkpt>
      <trkpt lat="46.5156" lon="0.34754">
        <ele>120.9</ele>
        <time>2011-07-03T06:07:07.000Z</time>
      </trkpt>
      <trkpt lat="46.51559" lon="0.34756">
        <ele>121</ele>
        <time>2011-07-03T06:07:14.000Z</time>
      </trkpt>
      <trkpt lat="46.51558" lon="0.34758">
        <ele>121.1</ele>
        <time>2011-07-03T06:07:15.000Z</time>
      </trkpt>
      <trkpt lat="46.51552" lon="0.34767">
        <ele>121.4</ele>
        <time>2011-07-03T06:07:20.000Z</time>
      </trkpt>
      <trkpt lat="46.51551" lon="0.34768">
        <ele>121.3</ele>
        <time>2011-07-03T06:07:21.000Z</time>
      </trkpt>
      <trkpt lat="46.51543" lon="0.34775">
        <ele>121.3</ele>
        <time>2011-07-03T06:07:26.000Z</time>
      </trkpt>
      <trkpt lat="46.51541" lon="0.34779">
        <ele>121.5</ele>
        <time>2011-07-03T06:07:27.000Z</time>
      </trkpt>
      <trkpt lat="46.51539" lon="0.34784">
        <ele>121.5</ele>
        <time>2011-07-03T06:07:29.000Z</time>
      </trkpt>
      <trkpt lat="46.51537" lon="0.34786">
        <ele>121.5</ele>
        <time>2011-07-03T06:07:30.000Z</time>
      </trkpt>
      <trkpt lat="46.51536" lon="0.34789">
        <ele>121.6</ele>
        <time>2011-07-03T06:07:31.000Z</time>
      </trkpt>
      <trkpt lat="46.51534" lon="0.34792">
        <ele>121.6</ele>
        <time>2011-07-03T06:07:32.000Z</time>
      </trkpt>
      <trkpt lat="46.51533" lon="0.34795">
        <ele>121.7</ele>
        <time>2011-07-03T06:07:33.000Z</time>
      </trkpt>
      <trkpt lat="46.51529" lon="0.34803">
        <ele>121.9</ele>
        <time>2011-07-03T06:07:36.000Z</time>
      </trkpt>
      <trkpt lat="46.51528" lon="0.34816">
        <ele>122.8</ele>
        <time>2011-07-03T06:07:41.000Z</time>
      </trkpt>
      <trkpt lat="46.51542" lon="0.34836">
        <ele>124.6</ele>
        <time>2011-07-03T06:07:48.000Z</time>
      </trkpt>
      <trkpt lat="46.51546" lon="0.34841">
        <ele>124.9</ele>
        <time>2011-07-03T06:07:50.000Z</time>
      </trkpt>
      <trkpt lat="46.51548" lon="0.34843">
        <ele>125.1</ele>
        <time>2011-07-03T06:07:51.000Z</time>
      </trkpt>
      <trkpt lat="46.51549" lon="0.34845">
        <ele>125.2</ele>
        <time>2011-07-03T06:07:52.000Z</time>
      </trkpt>
      <trkpt lat="46.5155" lon="0.34847">
        <ele>125.3</ele>
        <time>2011-07-03T06:07:53.000Z</time>
      </trkpt>
      <trkpt lat="46.51552" lon="0.34849">
        <ele>125.5</ele>
        <time>2011-07-03T06:07:54.000Z</time>
      </trkpt>
      <trkpt lat="46.51558" lon="0.34858">
        <ele>126.1</ele>
        <time>2011-07-03T06:07:58.000Z</time>
      </trkpt>
      <trkpt lat="46.5156" lon="0.34861">
        <ele>126.3</ele>
        <time>2011-07-03T06:07:59.000Z</time>
      </trkpt>
      <trkpt lat="46.51561" lon="0.34864">
        <ele>126.5</ele>
        <time>2011-07-03T06:08:00.000Z</time>
      </trkpt>
      <trkpt lat="46.51563" lon="0.34866">
        <ele>126.7</ele>
        <time>2011-07-03T06:08:01.000Z</time>
      </trkpt>
      <trkpt lat="46.51575" lon="0.34881">
        <ele>128.1</ele>
        <time>2011-07-03T06:08:07.000Z</time>
      </trkpt>
      <trkpt lat="46.51577" lon="0.34883">
        <ele>128.3</ele>
        <time>2011-07-03T06:08:08.000Z</time>
      </trkpt>
      <trkpt lat="46.51579" lon="0.34884">
        <ele>128.5</ele>
        <time>2011-07-03T06:08:09.000Z</time>
      </trkpt>
      <trkpt lat="46.51582" lon="0.34883">
        <ele>128.7</ele>
        <time>2011-07-03T06:08:10.000Z</time>
      </trkpt>
      <trkpt lat="46.51585" lon="0.34881">
        <ele>128.8</ele>
        <time>2011-07-03T06:08:11.000Z</time>
      </trkpt>
      <trkpt lat="46.51589" lon="0.3488">
        <ele>128.9</ele>
        <time>2011-07-03T06:08:12.000Z</time>
      </trkpt>
      <trkpt lat="46.51601" lon="0.34874">
        <ele>129.1</ele>
        <time>2011-07-03T06:08:16.000Z</time>
      </trkpt>
      <trkpt lat="46.51604" lon="0.34873">
        <ele>129.2</ele>
        <time>2011-07-03T06:08:17.000Z</time>
      </trkpt>
      <trkpt lat="46.51621" lon="0.34865">
        <ele>129.5</ele>
        <time>2011-07-03T06:08:23.000Z</time>
      </trkpt>
      <trkpt lat="46.51642" lon="0.34851">
        <ele>129.3</ele>
        <time>2011-07-03T06:08:29.000Z</time>
      </trkpt>
      <trkpt lat="46.51667" lon="0.34835">
        <ele>129.1</ele>
        <time>2011-07-03T06:08:36.000Z</time>
      </trkpt>
      <trkpt lat="46.5169" lon="0.34821">
        <ele>129</ele>
        <time>2011-07-03T06:08:42.000Z</time>
      </trkpt>
      <trkpt lat="46.51713" lon="0.34809">
        <ele>128.8</ele>
        <time>2011-07-03T06:08:49.000Z</time>
      </trkpt>
      <trkpt lat="46.51725" lon="0.348">
        <ele>128.8</ele>
        <time>2011-07-03T06:08:54.000Z</time>
      </trkpt>
      <trkpt lat="46.5174" lon="0.34798">
        <ele>128.7</ele>
        <time>2011-07-03T06:08:59.000Z</time>
      </trkpt>
      <trkpt lat="46.51743" lon="0.34798">
        <ele>128.7</ele>
        <time>2011-07-03T06:09:00.000Z</time>
      </trkpt>
      <trkpt lat="46.51758" lon="0.34802">
        <ele>128.9</ele>
        <time>2011-07-03T06:09:05.000Z</time>
      </trkpt>
      <trkpt lat="46.51761" lon="0.34824">
        <ele>129.4</ele>
        <time>2011-07-03T06:09:09.000Z</time>
      </trkpt>
      <trkpt lat="46.51767" lon="0.34844">
        <ele>129.9</ele>
        <time>2011-07-03T06:09:14.000Z</time>
      </trkpt>
      <trkpt lat="46.5177" lon="0.34843">
        <ele>129.8</ele>
        <time>2011-07-03T06:09:15.000Z</time>
      </trkpt>
      <trkpt lat="46.51783" lon="0.34836">
        <ele>129.2</ele>
        <time>2011-07-03T06:09:18.000Z</time>
      </trkpt>
      <trkpt lat="46.51788" lon="0.34834">
        <ele>129</ele>
        <time>2011-07-03T06:09:19.000Z</time>
      </trkpt>
      <trkpt lat="46.51792" lon="0.34831">
        <ele>129</ele>
        <time>2011-07-03T06:09:20.000Z</time>
      </trkpt>
      <trkpt lat="46.51797" lon="0.34828">
        <ele>129</ele>
        <time>2011-07-03T06:09:21.000Z</time>
      </trkpt>
      <trkpt lat="46.51801" lon="0.34825">
        <ele>129</ele>
        <time>2011-07-03T06:09:22.000Z</time>
      </trkpt>
      <trkpt lat="46.51816" lon="0.3482">
        <ele>128.4</ele>
        <time>2011-07-03T06:09:25.000Z</time>
      </trkpt>
      <trkpt lat="46.51821" lon="0.34823">
        <ele>128.3</ele>
        <time>2011-07-03T06:09:26.000Z</time>
      </trkpt>
      <trkpt lat="46.51829" lon="0.34843">
        <ele>128.5</ele>
        <time>2011-07-03T06:09:29.000Z</time>
      </trkpt>
      <trkpt lat="46.51834" lon="0.34856">
        <ele>128.8</ele>
        <time>2011-07-03T06:09:31.000Z</time>
      </trkpt>
      <trkpt lat="46.51844" lon="0.34884">
        <ele>129.4</ele>
        <time>2011-07-03T06:09:36.000Z</time>
      </trkpt>
      <trkpt lat="46.5185" lon="0.34901">
        <ele>129.5</ele>
        <time>2011-07-03T06:09:39.000Z</time>
      </trkpt>
      <trkpt lat="46.51856" lon="0.34917">
        <ele>129.4</ele>
        <time>2011-07-03T06:09:42.000Z</time>
      </trkpt>
      <trkpt lat="46.51859" lon="0.34921">
        <ele>129.3</ele>
        <time>2011-07-03T06:09:43.000Z</time>
      </trkpt>
      <trkpt lat="46.51872" lon="0.34923">
        <ele>128.9</ele>
        <time>2011-07-03T06:09:46.000Z</time>
      </trkpt>
      <trkpt lat="46.51877" lon="0.34922">
        <ele>128.6</ele>
        <time>2011-07-03T06:09:47.000Z</time>
      </trkpt>
      <trkpt lat="46.51888" lon="0.34921">
        <ele>128.2</ele>
        <time>2011-07-03T06:09:49.000Z</time>
      </trkpt>
      <trkpt lat="46.51895" lon="0.34919">
        <ele>127.7</ele>
        <time>2011-07-03T06:09:50.000Z</time>
      </trkpt>
      <trkpt lat="46.51902" lon="0.34918">
        <ele>127.1</ele>
        <time>2011-07-03T06:09:51.000Z</time>
      </trkpt>
      <trkpt lat="46.51909" lon="0.34916">
        <ele>126.6</ele>
        <time>2011-07-03T06:09:52.000Z</time>
      </trkpt>
      <trkpt lat="46.51916" lon="0.34915">
        <ele>126</ele>
        <time>2011-07-03T06:09:53.000Z</time>
      </trkpt>
      <trkpt lat="46.51924" lon="0.34913">
        <ele>125.4</ele>
        <time>2011-07-03T06:09:54.000Z</time>
      </trkpt>
      <trkpt lat="46.5194" lon="0.34909">
        <ele>124.1</ele>
        <time>2011-07-03T06:09:56.000Z</time>
      </trkpt>
      <trkpt lat="46.51967" lon="0.34903">
        <ele>122.3</ele>
        <time>2011-07-03T06:10:00.000Z</time>
      </trkpt>
      <trkpt lat="46.51974" lon="0.349">
        <ele>121.7</ele>
        <time>2011-07-03T06:10:01.000Z</time>
      </trkpt>
      <trkpt lat="46.51981" lon="0.34903">
        <ele>121.5</ele>
        <time>2011-07-03T06:10:02.000Z</time>
      </trkpt>
      <trkpt lat="46.51985" lon="0.3491">
        <ele>121.7</ele>
        <time>2011-07-03T06:10:03.000Z</time>
      </trkpt>
      <trkpt lat="46.51988" lon="0.34918">
        <ele>121.9</ele>
        <time>2011-07-03T06:10:04.000Z</time>
      </trkpt>
      <trkpt lat="46.5199" lon="0.34926">
        <ele>121.7</ele>
        <time>2011-07-03T06:10:05.000Z</time>
      </trkpt>
      <trkpt lat="46.51992" lon="0.34933">
        <ele>121.6</ele>
        <time>2011-07-03T06:10:06.000Z</time>
      </trkpt>
      <trkpt lat="46.51995" lon="0.34947">
        <ele>121.4</ele>
        <time>2011-07-03T06:10:08.000Z</time>
      </trkpt>
      <trkpt lat="46.51999" lon="0.34965">
        <ele>121.8</ele>
        <time>2011-07-03T06:10:11.000Z</time>
      </trkpt>
      <trkpt lat="46.52012" lon="0.34971">
        <ele>121.1</ele>
        <time>2011-07-03T06:10:14.000Z</time>
      </trkpt>
      <trkpt lat="46.52022" lon="0.34971">
        <ele>120.4</ele>
        <time>2011-07-03T06:10:16.000Z</time>
      </trkpt>
      <trkpt lat="46.52034" lon="0.34972">
        <ele>119.3</ele>
        <time>2011-07-03T06:10:18.000Z</time>
      </trkpt>
      <trkpt lat="46.52041" lon="0.34974">
        <ele>118.6</ele>
        <time>2011-07-03T06:10:19.000Z</time>
      </trkpt>
      <trkpt lat="46.52057" lon="0.34973">
        <ele>117</ele>
        <time>2011-07-03T06:10:21.000Z</time>
      </trkpt>
      <trkpt lat="46.52066" lon="0.34972">
        <ele>116.6</ele>
        <time>2011-07-03T06:10:22.000Z</time>
      </trkpt>
      <trkpt lat="46.52075" lon="0.3497">
        <ele>116.2</ele>
        <time>2011-07-03T06:10:23.000Z</time>
      </trkpt>
      <trkpt lat="46.52084" lon="0.34969">
        <ele>115.9</ele>
        <time>2011-07-03T06:10:24.000Z</time>
      </trkpt>
      <trkpt lat="46.52092" lon="0.34968">
        <ele>117.1</ele>
        <time>2011-07-03T06:10:25.000Z</time>
      </trkpt>
      <trkpt lat="46.521" lon="0.34967">
        <ele>118.2</ele>
        <time>2011-07-03T06:10:26.000Z</time>
      </trkpt>
      <trkpt lat="46.52106" lon="0.34967">
        <ele>119.1</ele>
        <time>2011-07-03T06:10:27.000Z</time>
      </trkpt>
      <trkpt lat="46.52112" lon="0.34966">
        <ele>119.8</ele>
        <time>2011-07-03T06:10:28.000Z</time>
      </trkpt>
      <trkpt lat="46.52117" lon="0.34967">
        <ele>120.3</ele>
        <time>2011-07-03T06:10:29.000Z</time>
      </trkpt>
      <trkpt lat="46.52126" lon="0.3497">
        <ele>121.1</ele>
        <time>2011-07-03T06:10:31.000Z</time>
      </trkpt>
      <trkpt lat="46.5213" lon="0.34972">
        <ele>121.4</ele>
        <time>2011-07-03T06:10:32.000Z</time>
      </trkpt>
      <trkpt lat="46.52134" lon="0.34974">
        <ele>121.7</ele>
        <time>2011-07-03T06:10:33.000Z</time>
      </trkpt>
      <trkpt lat="46.52138" lon="0.34977">
        <ele>122.1</ele>
        <time>2011-07-03T06:10:34.000Z</time>
      </trkpt>
      <trkpt lat="46.52142" lon="0.34979">
        <ele>122.6</ele>
        <time>2011-07-03T06:10:35.000Z</time>
      </trkpt>
      <trkpt lat="46.52149" lon="0.34984">
        <ele>123.6</ele>
        <time>2011-07-03T06:10:37.000Z</time>
      </trkpt>
      <trkpt lat="46.52153" lon="0.34987">
        <ele>124</ele>
        <time>2011-07-03T06:10:38.000Z</time>
      </trkpt>
      <trkpt lat="46.52156" lon="0.3499">
        <ele>124.3</ele>
        <time>2011-07-03T06:10:39.000Z</time>
      </trkpt>
      <trkpt lat="46.52159" lon="0.34993">
        <ele>124.6</ele>
        <time>2011-07-03T06:10:40.000Z</time>
      </trkpt>
      <trkpt lat="46.52163" lon="0.34996">
        <ele>124.8</ele>
        <time>2011-07-03T06:10:41.000Z</time>
      </trkpt>
      <trkpt lat="46.5217" lon="0.35001">
        <ele>125.3</ele>
        <time>2011-07-03T06:10:43.000Z</time>
      </trkpt>
      <trkpt lat="46.52173" lon="0.35003">
        <ele>125.6</ele>
        <time>2011-07-03T06:10:44.000Z</time>
      </trkpt>
      <trkpt lat="46.52177" lon="0.35005">
        <ele>126</ele>
        <time>2011-07-03T06:10:45.000Z</time>
      </trkpt>
      <trkpt lat="46.5218" lon="0.35006">
        <ele>126.2</ele>
        <time>2011-07-03T06:10:46.000Z</time>
      </trkpt>
      <trkpt lat="46.52185" lon="0.35007">
        <ele>126.5</ele>
        <time>2011-07-03T06:10:47.000Z</time>
      </trkpt>
      <trkpt lat="46.52193" lon="0.35008">
        <ele>126.9</ele>
        <time>2011-07-03T06:10:49.000Z</time>
      </trkpt>
      <trkpt lat="46.52198" lon="0.35008">
        <ele>127</ele>
        <time>2011-07-03T06:10:50.000Z</time>
      </trkpt>
      <trkpt lat="46.52202" lon="0.35008">
        <ele>127.1</ele>
        <time>2011-07-03T06:10:51.000Z</time>
      </trkpt>
      <trkpt lat="46.52207" lon="0.35008">
        <ele>127.1</ele>
        <time>2011-07-03T06:10:52.000Z</time>
      </trkpt>
      <trkpt lat="46.52212" lon="0.35008">
        <ele>127.2</ele>
        <time>2011-07-03T06:10:53.000Z</time>
      </trkpt>
      <trkpt lat="46.52226" lon="0.35006">
        <ele>127.3</ele>
        <time>2011-07-03T06:10:56.000Z</time>
      </trkpt>
      <trkpt lat="46.52265" lon="0.35006">
        <ele>128.5</ele>
        <time>2011-07-03T06:11:04.000Z</time>
      </trkpt>
      <trkpt lat="46.5227" lon="0.35006">
        <ele>128.7</ele>
        <time>2011-07-03T06:11:05.000Z</time>
      </trkpt>
      <trkpt lat="46.52274" lon="0.35005">
        <ele>128.9</ele>
        <time>2011-07-03T06:11:06.000Z</time>
      </trkpt>
      <trkpt lat="46.52278" lon="0.35005">
        <ele>129</ele>
        <time>2011-07-03T06:11:07.000Z</time>
      </trkpt>
      <trkpt lat="46.52282" lon="0.35005">
        <ele>129</ele>
        <time>2011-07-03T06:11:08.000Z</time>
      </trkpt>
      <trkpt lat="46.523" lon="0.35003">
        <ele>129</ele>
        <time>2011-07-03T06:11:12.000Z</time>
      </trkpt>
      <trkpt lat="46.52305" lon="0.35004">
        <ele>129</ele>
        <time>2011-07-03T06:11:13.000Z</time>
      </trkpt>
      <trkpt lat="46.52313" lon="0.35018">
        <ele>128.7</ele>
        <time>2011-07-03T06:11:16.000Z</time>
      </trkpt>
      <trkpt lat="46.52315" lon="0.35031">
        <ele>128.6</ele>
        <time>2011-07-03T06:11:18.000Z</time>
      </trkpt>
      <trkpt lat="46.52319" lon="0.35057">
        <ele>128.5</ele>
        <time>2011-07-03T06:11:22.000Z</time>
      </trkpt>
      <trkpt lat="46.52322" lon="0.35087">
        <ele>129</ele>
        <time>2011-07-03T06:11:26.000Z</time>
      </trkpt>
      <trkpt lat="46.52322" lon="0.35094">
        <ele>129</ele>
        <time>2011-07-03T06:11:27.000Z</time>
      </trkpt>
      <trkpt lat="46.52322" lon="0.35101">
        <ele>129</ele>
        <time>2011-07-03T06:11:28.000Z</time>
      </trkpt>
      <trkpt lat="46.52322" lon="0.35108">
        <ele>129</ele>
        <time>2011-07-03T06:11:29.000Z</time>
      </trkpt>
      <trkpt lat="46.52322" lon="0.35114">
        <ele>129</ele>
        <time>2011-07-03T06:11:30.000Z</time>
      </trkpt>
      <trkpt lat="46.52319" lon="0.35163">
        <ele>129.9</ele>
        <time>2011-07-03T06:11:37.000Z</time>
      </trkpt>
      <trkpt lat="46.52311" lon="0.35217">
        <ele>129.9</ele>
        <time>2011-07-03T06:11:45.000Z</time>
      </trkpt>
      <trkpt lat="46.52298" lon="0.35272">
        <ele>130</ele>
        <time>2011-07-03T06:11:53.000Z</time>
      </trkpt>
      <trkpt lat="46.52282" lon="0.35333">
        <ele>130.8</ele>
        <time>2011-07-03T06:12:02.000Z</time>
      </trkpt>
      <trkpt lat="46.52268" lon="0.35385">
        <ele>130</ele>
        <time>2011-07-03T06:12:10.000Z</time>
      </trkpt>
      <trkpt lat="46.52256" lon="0.35429">
        <ele>130.4</ele>
        <time>2011-07-03T06:12:17.000Z</time>
      </trkpt>
      <trkpt lat="46.52255" lon="0.35435">
        <ele>130.3</ele>
        <time>2011-07-03T06:12:18.000Z</time>
      </trkpt>
      <trkpt lat="46.5226" lon="0.35456">
        <ele>130</ele>
        <time>2011-07-03T06:12:22.000Z</time>
      </trkpt>
      <trkpt lat="46.52268" lon="0.35454">
        <ele>130</ele>
        <time>2011-07-03T06:12:24.000Z</time>
      </trkpt>
      <trkpt lat="46.52273" lon="0.35452">
        <ele>130</ele>
        <time>2011-07-03T06:12:25.000Z</time>
      </trkpt>
      <trkpt lat="46.52294" lon="0.35445">
        <ele>129.4</ele>
        <time>2011-07-03T06:12:29.000Z</time>
      </trkpt>
      <trkpt lat="46.52305" lon="0.35442">
        <ele>129</ele>
        <time>2011-07-03T06:12:31.000Z</time>
      </trkpt>
      <trkpt lat="46.52311" lon="0.3544">
        <ele>128.8</ele>
        <time>2011-07-03T06:12:32.000Z</time>
      </trkpt>
      <trkpt lat="46.52316" lon="0.35438">
        <ele>128.6</ele>
        <time>2011-07-03T06:12:33.000Z</time>
      </trkpt>
      <trkpt lat="46.52322" lon="0.35436">
        <ele>128.4</ele>
        <time>2011-07-03T06:12:34.000Z</time>
      </trkpt>
      <trkpt lat="46.52328" lon="0.35435">
        <ele>128.2</ele>
        <time>2011-07-03T06:12:35.000Z</time>
      </trkpt>
      <trkpt lat="46.5234" lon="0.35432">
        <ele>127.8</ele>
        <time>2011-07-03T06:12:37.000Z</time>
      </trkpt>
      <trkpt lat="46.52352" lon="0.35428">
        <ele>127.3</ele>
        <time>2011-07-03T06:12:39.000Z</time>
      </trkpt>
      <trkpt lat="46.52358" lon="0.35426">
        <ele>127.1</ele>
        <time>2011-07-03T06:12:40.000Z</time>
      </trkpt>
      <trkpt lat="46.52364" lon="0.35424">
        <ele>126.9</ele>
        <time>2011-07-03T06:12:41.000Z</time>
      </trkpt>
      <trkpt lat="46.5237" lon="0.35422">
        <ele>126.7</ele>
        <time>2011-07-03T06:12:42.000Z</time>
      </trkpt>
      <trkpt lat="46.52376" lon="0.3542">
        <ele>126.5</ele>
        <time>2011-07-03T06:12:43.000Z</time>
      </trkpt>
      <trkpt lat="46.52382" lon="0.35417">
        <ele>126.2</ele>
        <time>2011-07-03T06:12:44.000Z</time>
      </trkpt>
      <trkpt lat="46.52437" lon="0.35396">
        <ele>126.2</ele>
        <time>2011-07-03T06:12:53.000Z</time>
      </trkpt>
      <trkpt lat="46.52484" lon="0.35381">
        <ele>126.2</ele>
        <time>2011-07-03T06:13:01.000Z</time>
      </trkpt>
      <trkpt lat="46.52498" lon="0.35378">
        <ele>126</ele>
        <time>2011-07-03T06:13:04.000Z</time>
      </trkpt>
      <trkpt lat="46.52501" lon="0.35368">
        <ele>126</ele>
        <time>2011-07-03T06:13:06.000Z</time>
      </trkpt>
      <trkpt lat="46.52504" lon="0.35354">
        <ele>126</ele>
        <time>2011-07-03T06:13:08.000Z</time>
      </trkpt>
      <trkpt lat="46.52507" lon="0.35338">
        <ele>126</ele>
        <time>2011-07-03T06:13:10.000Z</time>
      </trkpt>
      <trkpt lat="46.5251" lon="0.35326">
        <ele>125.9</ele>
        <time>2011-07-03T06:13:13.000Z</time>
      </trkpt>
      <trkpt lat="46.52512" lon="0.35323">
        <ele>125.8</ele>
        <time>2011-07-03T06:13:15.000Z</time>
      </trkpt>
      <trkpt lat="46.52515" lon="0.35323">
        <ele>125.8</ele>
        <time>2011-07-03T06:13:17.000Z</time>
      </trkpt>
      <trkpt lat="46.5252" lon="0.35323">
        <ele>125.7</ele>
        <time>2011-07-03T06:13:22.000Z</time>
      </trkpt>
      <trkpt lat="46.5252" lon="0.3532">
        <ele>125.7</ele>
        <time>2011-07-03T06:13:23.000Z</time>
      </trkpt>
      <trkpt lat="46.52522" lon="0.35309">
        <ele>125.3</ele>
        <time>2011-07-03T06:13:27.000Z</time>
      </trkpt>
      <trkpt lat="46.52525" lon="0.35303">
        <ele>125.1</ele>
        <time>2011-07-03T06:13:29.000Z</time>
      </trkpt>
      <trkpt lat="46.52528" lon="0.35301">
        <ele>125</ele>
        <time>2011-07-03T06:13:30.000Z</time>
      </trkpt>
      <trkpt lat="46.52531" lon="0.353">
        <ele>125</ele>
        <time>2011-07-03T06:13:31.000Z</time>
      </trkpt>
      <trkpt lat="46.52531" lon="0.35301">
        <ele>125</ele>
        <time>2011-07-03T06:13:32.000Z</time>
      </trkpt>
      <trkpt lat="46.52533" lon="0.35302">
        <ele>125</ele>
        <time>2011-07-03T06:13:33.000Z</time>
      </trkpt>
      <trkpt lat="46.52535" lon="0.35301">
        <ele>125</ele>
        <time>2011-07-03T06:13:34.000Z</time>
      </trkpt>
      <trkpt lat="46.52548" lon="0.35297">
        <ele>124.8</ele>
        <time>2011-07-03T06:13:39.000Z</time>
      </trkpt>
      <trkpt lat="46.52548" lon="0.35295">
        <ele>124.7</ele>
        <time>2011-07-03T06:13:40.000Z</time>
      </trkpt>
      <trkpt lat="46.5255" lon="0.35292">
        <ele>124.6</ele>
        <time>2011-07-03T06:13:42.000Z</time>
      </trkpt>
      <trkpt lat="46.52552" lon="0.35292">
        <ele>124.6</ele>
        <time>2011-07-03T06:13:43.000Z</time>
      </trkpt>
      <trkpt lat="46.52555" lon="0.35291">
        <ele>124.5</ele>
        <time>2011-07-03T06:13:46.000Z</time>
      </trkpt>
      <trkpt lat="46.52562" lon="0.35286">
        <ele>124.3</ele>
        <time>2011-07-03T06:13:51.000Z</time>
      </trkpt>
      <trkpt lat="46.52563" lon="0.35285">
        <ele>124.2</ele>
        <time>2011-07-03T06:13:52.000Z</time>
      </trkpt>
      <trkpt lat="46.52568" lon="0.35281">
        <ele>124.1</ele>
        <time>2011-07-03T06:13:55.000Z</time>
      </trkpt>
      <trkpt lat="46.5257" lon="0.35277">
        <ele>124</ele>
        <time>2011-07-03T06:13:56.000Z</time>
      </trkpt>
      <trkpt lat="46.52572" lon="0.35271">
        <ele>123.9</ele>
        <time>2011-07-03T06:13:57.000Z</time>
      </trkpt>
      <trkpt lat="46.5258" lon="0.3525">
        <ele>123.1</ele>
        <time>2011-07-03T06:14:02.000Z</time>
      </trkpt>
      <trkpt lat="46.52588" lon="0.35239">
        <ele>123.1</ele>
        <time>2011-07-03T06:14:05.000Z</time>
      </trkpt>
      <trkpt lat="46.52591" lon="0.35236">
        <ele>123.1</ele>
        <time>2011-07-03T06:14:06.000Z</time>
      </trkpt>
      <trkpt lat="46.52593" lon="0.35236">
        <ele>123.2</ele>
        <time>2011-07-03T06:14:07.000Z</time>
      </trkpt>
      <trkpt lat="46.52594" lon="0.35236">
        <ele>123.2</ele>
        <time>2011-07-03T06:14:08.000Z</time>
      </trkpt>
      <trkpt lat="46.52596" lon="0.35236">
        <ele>123.2</ele>
        <time>2011-07-03T06:14:09.000Z</time>
      </trkpt>
      <trkpt lat="46.52597" lon="0.35233">
        <ele>123.2</ele>
        <time>2011-07-03T06:14:10.000Z</time>
      </trkpt>
      <trkpt lat="46.52612" lon="0.35218">
        <ele>123</ele>
        <time>2011-07-03T06:14:15.000Z</time>
      </trkpt>
      <trkpt lat="46.52617" lon="0.3521">
        <ele>123.1</ele>
        <time>2011-07-03T06:14:17.000Z</time>
      </trkpt>
      <trkpt lat="46.52625" lon="0.35199">
        <ele>123.1</ele>
        <time>2011-07-03T06:14:20.000Z</time>
      </trkpt>
      <trkpt lat="46.52627" lon="0.35198">
        <ele>123.1</ele>
        <time>2011-07-03T06:14:21.000Z</time>
      </trkpt>
      <trkpt lat="46.52631" lon="0.35195">
        <ele>123</ele>
        <time>2011-07-03T06:14:24.000Z</time>
      </trkpt>
      <trkpt lat="46.52634" lon="0.35193">
        <ele>123</ele>
        <time>2011-07-03T06:14:25.000Z</time>
      </trkpt>
      <trkpt lat="46.52646" lon="0.35185">
        <ele>123</ele>
        <time>2011-07-03T06:14:29.000Z</time>
      </trkpt>
      <trkpt lat="46.52649" lon="0.35183">
        <ele>123</ele>
        <time>2011-07-03T06:14:30.000Z</time>
      </trkpt>
      <trkpt lat="46.52662" lon="0.35173">
        <ele>123</ele>
        <time>2011-07-03T06:14:35.000Z</time>
      </trkpt>
      <trkpt lat="46.52667" lon="0.35173">
        <ele>123</ele>
        <time>2011-07-03T06:14:36.000Z</time>
      </trkpt>
      <trkpt lat="46.52674" lon="0.35173">
        <ele>123</ele>
        <time>2011-07-03T06:14:38.000Z</time>
      </trkpt>
      <trkpt lat="46.5268" lon="0.35174">
        <ele>123</ele>
        <time>2011-07-03T06:14:40.000Z</time>
      </trkpt>
      <trkpt lat="46.52685" lon="0.35176">
        <ele>123</ele>
        <time>2011-07-03T06:14:42.000Z</time>
      </trkpt>
      <trkpt lat="46.52691" lon="0.35174">
        <ele>123</ele>
        <time>2011-07-03T06:14:47.000Z</time>
      </trkpt>
      <trkpt lat="46.52693" lon="0.35171">
        <ele>123</ele>
        <time>2011-07-03T06:14:48.000Z</time>
      </trkpt>
      <trkpt lat="46.52696" lon="0.3516">
        <ele>123</ele>
        <time>2011-07-03T06:14:51.000Z</time>
      </trkpt>
      <trkpt lat="46.52698" lon="0.35157">
        <ele>123</ele>
        <time>2011-07-03T06:14:52.000Z</time>
      </trkpt>
      <trkpt lat="46.52704" lon="0.35154">
        <ele>123</ele>
        <time>2011-07-03T06:14:55.000Z</time>
      </trkpt>
      <trkpt lat="46.52716" lon="0.35152">
        <ele>123</ele>
        <time>2011-07-03T06:15:00.000Z</time>
      </trkpt>
      <trkpt lat="46.52722" lon="0.3515">
        <ele>123</ele>
        <time>2011-07-03T06:15:03.000Z</time>
      </trkpt>
      <trkpt lat="46.52725" lon="0.35147">
        <ele>123.1</ele>
        <time>2011-07-03T06:15:05.000Z</time>
      </trkpt>
      <trkpt lat="46.52726" lon="0.35144">
        <ele>123.1</ele>
        <time>2011-07-03T06:15:06.000Z</time>
      </trkpt>
      <trkpt lat="46.52726" lon="0.35141">
        <ele>123.1</ele>
        <time>2011-07-03T06:15:07.000Z</time>
      </trkpt>
      <trkpt lat="46.52728" lon="0.35133">
        <ele>123.2</ele>
        <time>2011-07-03T06:15:09.000Z</time>
      </trkpt>
      <trkpt lat="46.52733" lon="0.35127">
        <ele>123.4</ele>
        <time>2011-07-03T06:15:12.000Z</time>
      </trkpt>
      <trkpt lat="46.52735" lon="0.35124">
        <ele>123.5</ele>
        <time>2011-07-03T06:15:13.000Z</time>
      </trkpt>
      <trkpt lat="46.52737" lon="0.35105">
        <ele>123.5</ele>
        <time>2011-07-03T06:15:17.000Z</time>
      </trkpt>
      <trkpt lat="46.52737" lon="0.35101">
        <ele>123.5</ele>
        <time>2011-07-03T06:15:18.000Z</time>
      </trkpt>
      <trkpt lat="46.52736" lon="0.35081">
        <ele>123.5</ele>
        <time>2011-07-03T06:15:23.000Z</time>
      </trkpt>
      <trkpt lat="46.52732" lon="0.35052">
        <ele>123.5</ele>
        <time>2011-07-03T06:15:30.000Z</time>
      </trkpt>
      <trkpt lat="46.52728" lon="0.35032">
        <ele>124.1</ele>
        <time>2011-07-03T06:15:36.000Z</time>
      </trkpt>
      <trkpt lat="46.52727" lon="0.3501">
        <ele>124.2</ele>
        <time>2011-07-03T06:15:42.000Z</time>
      </trkpt>
      <trkpt lat="46.52728" lon="0.34982">
        <ele>124.7</ele>
        <time>2011-07-03T06:15:50.000Z</time>
      </trkpt>
      <trkpt lat="46.52729" lon="0.34959">
        <ele>125</ele>
        <time>2011-07-03T06:15:56.000Z</time>
      </trkpt>
      <trkpt lat="46.52729" lon="0.34947">
        <ele>125</ele>
        <time>2011-07-03T06:16:02.000Z</time>
      </trkpt>
      <trkpt lat="46.52729" lon="0.34947">
        <ele>125</ele>
        <time>2011-07-03T06:16:08.000Z</time>
      </trkpt>
      <trkpt lat="46.52729" lon="0.34947">
        <ele>125</ele>
        <time>2011-07-03T06:16:09.000Z</time>
      </trkpt>
      <trkpt lat="46.52729" lon="0.34947">
        <ele>125</ele>
        <time>2011-07-03T06:16:14.000Z</time>
      </trkpt>
      <trkpt lat="46.52729" lon="0.34947">
        <ele>125</ele>
        <time>2011-07-03T06:16:17.000Z</time>
      </trkpt>
      <trkpt lat="46.52729" lon="0.34947">
        <ele>125</ele>
        <time>2011-07-03T06:16:18.000Z</time>
      </trkpt>
      <trkpt lat="46.52729" lon="0.34947">
        <ele>125</ele>
        <time>2011-07-03T06:16:19.000Z</time>
      </trkpt>
      <trkpt lat="46.52729" lon="0.34947">
        <ele>125</ele>
        <time>2011-07-03T06:16:20.000Z</time>
      </trkpt>
      <trkpt lat="46.52729" lon="0.34947">
        <ele>125</ele>
        <time>2011-07-03T06:16:21.000Z</time>
      </trkpt>
      <trkpt lat="46.52729" lon="0.34947">
        <ele>125</ele>
        <time>2011-07-03T06:16:23.000Z</time>
      </trkpt>
      <trkpt lat="46.52729" lon="0.34947">
        <ele>125</ele>
        <time>2011-07-03T06:16:27.000Z</time>
      </trkpt>
      <trkpt lat="46.52729" lon="0.34947">
        <ele>125</ele>
        <time>2011-07-03T06:16:31.000Z</time>
      </trkpt>
      <trkpt lat="46.52729" lon="0.34947">
        <ele>125</ele>
        <time>2011-07-03T06:16:35.000Z</time>
      </trkpt>
      <trkpt lat="46.52729" lon="0.34947">
        <ele>125</ele>
        <time>2011-07-03T06:16:37.000Z</time>
      </trkpt>
      <trkpt lat="46.52729" lon="0.34947">
        <ele>125</ele>
        <time>2011-07-03T06:16:40.000Z</time>
      </trkpt>
      <trkpt lat="46.5273" lon="0.34943">
        <ele>125</ele>
        <time>2011-07-03T06:16:48.000Z</time>
      </trkpt>
      <trkpt lat="46.5273" lon="0.34923">
        <ele>125</ele>
        <time>2011-07-03T06:16:53.000Z</time>
      </trkpt>
      <trkpt lat="46.52731" lon="0.34894">
        <ele>124.5</ele>
        <time>2011-07-03T06:16:59.000Z</time>
      </trkpt>
      <trkpt lat="46.52731" lon="0.34889">
        <ele>124.3</ele>
        <time>2011-07-03T06:17:00.000Z</time>
      </trkpt>
      <trkpt lat="46.52733" lon="0.34859">
        <ele>124</ele>
        <time>2011-07-03T06:17:07.000Z</time>
      </trkpt>
      <trkpt lat="46.52735" lon="0.34832">
        <ele>123.4</ele>
        <time>2011-07-03T06:17:12.000Z</time>
      </trkpt>
      <trkpt lat="46.52736" lon="0.34826">
        <ele>123.4</ele>
        <time>2011-07-03T06:17:13.000Z</time>
      </trkpt>
      <trkpt lat="46.52742" lon="0.34789">
        <ele>122.4</ele>
        <time>2011-07-03T06:17:19.000Z</time>
      </trkpt>
      <trkpt lat="46.52745" lon="0.34776">
        <ele>121.9</ele>
        <time>2011-07-03T06:17:21.000Z</time>
      </trkpt>
      <trkpt lat="46.52746" lon="0.34769">
        <ele>121.4</ele>
        <time>2011-07-03T06:17:22.000Z</time>
      </trkpt>
      <trkpt lat="46.52748" lon="0.34762">
        <ele>120.9</ele>
        <time>2011-07-03T06:17:23.000Z</time>
      </trkpt>
      <trkpt lat="46.52749" lon="0.34754">
        <ele>120.3</ele>
        <time>2011-07-03T06:17:24.000Z</time>
      </trkpt>
      <trkpt lat="46.52751" lon="0.34747">
        <ele>119.9</ele>
        <time>2011-07-03T06:17:25.000Z</time>
      </trkpt>
      <trkpt lat="46.52752" lon="0.34739">
        <ele>119.5</ele>
        <time>2011-07-03T06:17:26.000Z</time>
      </trkpt>
      <trkpt lat="46.52756" lon="0.34724">
        <ele>118.8</ele>
        <time>2011-07-03T06:17:28.000Z</time>
      </trkpt>
      <trkpt lat="46.52758" lon="0.34715">
        <ele>118.4</ele>
        <time>2011-07-03T06:17:29.000Z</time>
      </trkpt>
      <trkpt lat="46.5276" lon="0.34705">
        <ele>117.8</ele>
        <time>2011-07-03T06:17:30.000Z</time>
      </trkpt>
      <trkpt lat="46.52762" lon="0.34696">
        <ele>117.2</ele>
        <time>2011-07-03T06:17:31.000Z</time>
      </trkpt>
      <trkpt lat="46.52765" lon="0.34686">
        <ele>116.5</ele>
        <time>2011-07-03T06:17:32.000Z</time>
      </trkpt>
      <trkpt lat="46.52767" lon="0.34677">
        <ele>115.9</ele>
        <time>2011-07-03T06:17:33.000Z</time>
      </trkpt>
      <trkpt lat="46.5277" lon="0.34666">
        <ele>115.3</ele>
        <time>2011-07-03T06:17:34.000Z</time>
      </trkpt>
      <trkpt lat="46.52774" lon="0.34656">
        <ele>114.8</ele>
        <time>2011-07-03T06:17:35.000Z</time>
      </trkpt>
      <trkpt lat="46.52778" lon="0.34645">
        <ele>114.2</ele>
        <time>2011-07-03T06:17:36.000Z</time>
      </trkpt>
      <trkpt lat="46.52781" lon="0.34633">
        <ele>113.1</ele>
        <time>2011-07-03T06:17:37.000Z</time>
      </trkpt>
      <trkpt lat="46.52786" lon="0.3462">
        <ele>111.6</ele>
        <time>2011-07-03T06:17:38.000Z</time>
      </trkpt>
      <trkpt lat="46.5279" lon="0.34608">
        <ele>110.4</ele>
        <time>2011-07-03T06:17:39.000Z</time>
      </trkpt>
      <trkpt lat="46.52794" lon="0.34595">
        <ele>109.5</ele>
        <time>2011-07-03T06:17:40.000Z</time>
      </trkpt>
      <trkpt lat="46.52799" lon="0.34581">
        <ele>108.3</ele>
        <time>2011-07-03T06:17:41.000Z</time>
      </trkpt>
      <trkpt lat="46.52804" lon="0.34567">
        <ele>107</ele>
        <time>2011-07-03T06:17:42.000Z</time>
      </trkpt>
      <trkpt lat="46.52809" lon="0.34553">
        <ele>105.6</ele>
        <time>2011-07-03T06:17:43.000Z</time>
      </trkpt>
      <trkpt lat="46.52815" lon="0.34538">
        <ele>104.3</ele>
        <time>2011-07-03T06:17:44.000Z</time>
      </trkpt>
      <trkpt lat="46.5282" lon="0.34523">
        <ele>103.1</ele>
        <time>2011-07-03T06:17:45.000Z</time>
      </trkpt>
      <trkpt lat="46.52824" lon="0.34508">
        <ele>101.9</ele>
        <time>2011-07-03T06:17:46.000Z</time>
      </trkpt>
      <trkpt lat="46.52828" lon="0.34492">
        <ele>100.7</ele>
        <time>2011-07-03T06:17:47.000Z</time>
      </trkpt>
      <trkpt lat="46.52831" lon="0.34478">
        <ele>99.5</ele>
        <time>2011-07-03T06:17:48.000Z</time>
      </trkpt>
      <trkpt lat="46.52834" lon="0.34464">
        <ele>98.4</ele>
        <time>2011-07-03T06:17:49.000Z</time>
      </trkpt>
      <trkpt lat="46.52837" lon="0.3445">
        <ele>97.3</ele>
        <time>2011-07-03T06:17:50.000Z</time>
      </trkpt>
      <trkpt lat="46.5284" lon="0.34438">
        <ele>96.5</ele>
        <time>2011-07-03T06:17:51.000Z</time>
      </trkpt>
      <trkpt lat="46.52842" lon="0.34428">
        <ele>96.1</ele>
        <time>2011-07-03T06:17:52.000Z</time>
      </trkpt>
      <trkpt lat="46.52845" lon="0.34417">
        <ele>95.6</ele>
        <time>2011-07-03T06:17:53.000Z</time>
      </trkpt>
      <trkpt lat="46.52846" lon="0.34409">
        <ele>95.3</ele>
        <time>2011-07-03T06:17:54.000Z</time>
      </trkpt>
      <trkpt lat="46.52848" lon="0.34401">
        <ele>94.9</ele>
        <time>2011-07-03T06:17:55.000Z</time>
      </trkpt>
      <trkpt lat="46.5285" lon="0.34395">
        <ele>94.6</ele>
        <time>2011-07-03T06:17:56.000Z</time>
      </trkpt>
      <trkpt lat="46.52852" lon="0.3439">
        <ele>94.4</ele>
        <time>2011-07-03T06:17:57.000Z</time>
      </trkpt>
      <trkpt lat="46.52856" lon="0.34387">
        <ele>94</ele>
        <time>2011-07-03T06:17:58.000Z</time>
      </trkpt>
      <trkpt lat="46.52861" lon="0.34389">
        <ele>94</ele>
        <time>2011-07-03T06:17:59.000Z</time>
      </trkpt>
      <trkpt lat="46.52866" lon="0.34392">
        <ele>94</ele>
        <time>2011-07-03T06:18:00.000Z</time>
      </trkpt>
      <trkpt lat="46.52874" lon="0.34396">
        <ele>93.9</ele>
        <time>2011-07-03T06:18:02.000Z</time>
      </trkpt>
      <trkpt lat="46.52878" lon="0.34396">
        <ele>93.8</ele>
        <time>2011-07-03T06:18:03.000Z</time>
      </trkpt>
      <trkpt lat="46.52907" lon="0.344">
        <ele>93.6</ele>
        <time>2011-07-03T06:18:09.000Z</time>
      </trkpt>
      <trkpt lat="46.52918" lon="0.34397">
        <ele>93.2</ele>
        <time>2011-07-03T06:18:11.000Z</time>
      </trkpt>
      <trkpt lat="46.5293" lon="0.3439">
        <ele>92.6</ele>
        <time>2011-07-03T06:18:13.000Z</time>
      </trkpt>
      <trkpt lat="46.52935" lon="0.34386">
        <ele>92.2</ele>
        <time>2011-07-03T06:18:14.000Z</time>
      </trkpt>
      <trkpt lat="46.52941" lon="0.34381">
        <ele>91.8</ele>
        <time>2011-07-03T06:18:15.000Z</time>
      </trkpt>
      <trkpt lat="46.52947" lon="0.34377">
        <ele>91.6</ele>
        <time>2011-07-03T06:18:16.000Z</time>
      </trkpt>
      <trkpt lat="46.52952" lon="0.34373">
        <ele>91.4</ele>
        <time>2011-07-03T06:18:17.000Z</time>
      </trkpt>
      <trkpt lat="46.52963" lon="0.34365">
        <ele>91.2</ele>
        <time>2011-07-03T06:18:19.000Z</time>
      </trkpt>
      <trkpt lat="46.52973" lon="0.34357">
        <ele>90.9</ele>
        <time>2011-07-03T06:18:21.000Z</time>
      </trkpt>
      <trkpt lat="46.52978" lon="0.34353">
        <ele>90.9</ele>
        <time>2011-07-03T06:18:22.000Z</time>
      </trkpt>
      <trkpt lat="46.52981" lon="0.3435">
        <ele>90.9</ele>
        <time>2011-07-03T06:18:23.000Z</time>
      </trkpt>
      <trkpt lat="46.52985" lon="0.34349">
        <ele>91</ele>
        <time>2011-07-03T06:18:24.000Z</time>
      </trkpt>
      <trkpt lat="46.52988" lon="0.34347">
        <ele>91.1</ele>
        <time>2011-07-03T06:18:25.000Z</time>
      </trkpt>
      <trkpt lat="46.52995" lon="0.34335">
        <ele>90.9</ele>
        <time>2011-07-03T06:18:28.000Z</time>
      </trkpt>
      <trkpt lat="46.52999" lon="0.34334">
        <ele>91</ele>
        <time>2011-07-03T06:18:29.000Z</time>
      </trkpt>
      <trkpt lat="46.53013" lon="0.34333">
        <ele>91.9</ele>
        <time>2011-07-03T06:18:32.000Z</time>
      </trkpt>
      <trkpt lat="46.53017" lon="0.34333">
        <ele>92.2</ele>
        <time>2011-07-03T06:18:33.000Z</time>
      </trkpt>
      <trkpt lat="46.53027" lon="0.34335">
        <ele>92.9</ele>
        <time>2011-07-03T06:18:35.000Z</time>
      </trkpt>
      <trkpt lat="46.5304" lon="0.34337">
        <ele>92.9</ele>
        <time>2011-07-03T06:18:38.000Z</time>
      </trkpt>
      <trkpt lat="46.53044" lon="0.34338">
        <ele>92.9</ele>
        <time>2011-07-03T06:18:39.000Z</time>
      </trkpt>
      <trkpt lat="46.53053" lon="0.3434">
        <ele>93</ele>
        <time>2011-07-03T06:18:41.000Z</time>
      </trkpt>
      <trkpt lat="46.53057" lon="0.34342">
        <ele>93</ele>
        <time>2011-07-03T06:18:42.000Z</time>
      </trkpt>
      <trkpt lat="46.53061" lon="0.34343">
        <ele>93.1</ele>
        <time>2011-07-03T06:18:43.000Z</time>
      </trkpt>
      <trkpt lat="46.53065" lon="0.34344">
        <ele>93.1</ele>
        <time>2011-07-03T06:18:44.000Z</time>
      </trkpt>
      <trkpt lat="46.53072" lon="0.34345">
        <ele>93.2</ele>
        <time>2011-07-03T06:18:46.000Z</time>
      </trkpt>
      <trkpt lat="46.5309" lon="0.34341">
        <ele>93.2</ele>
        <time>2011-07-03T06:18:51.000Z</time>
      </trkpt>
      <trkpt lat="46.53117" lon="0.34333">
        <ele>93</ele>
        <time>2011-07-03T06:18:57.000Z</time>
      </trkpt>
      <trkpt lat="46.53127" lon="0.34332">
        <ele>93</ele>
        <time>2011-07-03T06:18:59.000Z</time>
      </trkpt>
      <trkpt lat="46.53141" lon="0.34337">
        <ele>92.9</ele>
        <time>2011-07-03T06:19:02.000Z</time>
      </trkpt>
      <trkpt lat="46.53145" lon="0.3434">
        <ele>92.8</ele>
        <time>2011-07-03T06:19:03.000Z</time>
      </trkpt>
      <trkpt lat="46.53167" lon="0.34352">
        <ele>92.7</ele>
        <time>2011-07-03T06:19:08.000Z</time>
      </trkpt>
      <trkpt lat="46.53187" lon="0.34363">
        <ele>92.3</ele>
        <time>2011-07-03T06:19:13.000Z</time>
      </trkpt>
      <trkpt lat="46.53198" lon="0.3437">
        <ele>91.9</ele>
        <time>2011-07-03T06:19:16.000Z</time>
      </trkpt>
      <trkpt lat="46.53229" lon="0.34383">
        <ele>91.6</ele>
        <time>2011-07-03T06:19:23.000Z</time>
      </trkpt>
      <trkpt lat="46.53234" lon="0.34385">
        <ele>91.5</ele>
        <time>2011-07-03T06:19:24.000Z</time>
      </trkpt>
      <trkpt lat="46.53244" lon="0.34388">
        <ele>91.2</ele>
        <time>2011-07-03T06:19:26.000Z</time>
      </trkpt>
      <trkpt lat="46.53249" lon="0.34389">
        <ele>91</ele>
        <time>2011-07-03T06:19:27.000Z</time>
      </trkpt>
      <trkpt lat="46.53254" lon="0.3439">
        <ele>90.8</ele>
        <time>2011-07-03T06:19:28.000Z</time>
      </trkpt>
      <trkpt lat="46.53259" lon="0.34389">
        <ele>90.7</ele>
        <time>2011-07-03T06:19:29.000Z</time>
      </trkpt>
      <trkpt lat="46.53264" lon="0.3439">
        <ele>90.5</ele>
        <time>2011-07-03T06:19:30.000Z</time>
      </trkpt>
      <trkpt lat="46.5327" lon="0.3439">
        <ele>90.3</ele>
        <time>2011-07-03T06:19:31.000Z</time>
      </trkpt>
      <trkpt lat="46.53275" lon="0.34389">
        <ele>90.1</ele>
        <time>2011-07-03T06:19:32.000Z</time>
      </trkpt>
      <trkpt lat="46.53281" lon="0.34389">
        <ele>89.9</ele>
        <time>2011-07-03T06:19:33.000Z</time>
      </trkpt>
      <trkpt lat="46.5332" lon="0.34381">
        <ele>88.8</ele>
        <time>2011-07-03T06:19:40.000Z</time>
      </trkpt>
      <trkpt lat="46.5333" lon="0.34378">
        <ele>88.6</ele>
        <time>2011-07-03T06:19:42.000Z</time>
      </trkpt>
      <trkpt lat="46.53336" lon="0.34376">
        <ele>88.6</ele>
        <time>2011-07-03T06:19:43.000Z</time>
      </trkpt>
      <trkpt lat="46.53341" lon="0.34375">
        <ele>88.6</ele>
        <time>2011-07-03T06:19:44.000Z</time>
      </trkpt>
      <trkpt lat="46.53346" lon="0.34373">
        <ele>88.7</ele>
        <time>2011-07-03T06:19:45.000Z</time>
      </trkpt>
      <trkpt lat="46.53351" lon="0.34372">
        <ele>88.8</ele>
        <time>2011-07-03T06:19:46.000Z</time>
      </trkpt>
      <trkpt lat="46.53356" lon="0.34368">
        <ele>88.9</ele>
        <time>2011-07-03T06:19:47.000Z</time>
      </trkpt>
      <trkpt lat="46.5336" lon="0.34364">
        <ele>89</ele>
        <time>2011-07-03T06:19:48.000Z</time>
      </trkpt>
      <trkpt lat="46.53379" lon="0.34338">
        <ele>88.2</ele>
        <time>2011-07-03T06:19:53.000Z</time>
      </trkpt>
      <trkpt lat="46.53383" lon="0.34334">
        <ele>88</ele>
        <time>2011-07-03T06:19:54.000Z</time>
      </trkpt>
      <trkpt lat="46.53392" lon="0.34335">
        <ele>88.1</ele>
        <time>2011-07-03T06:19:56.000Z</time>
      </trkpt>
      <trkpt lat="46.534" lon="0.34339">
        <ele>88.2</ele>
        <time>2011-07-03T06:19:58.000Z</time>
      </trkpt>
      <trkpt lat="46.53423" lon="0.34341">
        <ele>88.4</ele>
        <time>2011-07-03T06:20:03.000Z</time>
      </trkpt>
      <trkpt lat="46.5346" lon="0.34346">
        <ele>88.7</ele>
        <time>2011-07-03T06:20:11.000Z</time>
      </trkpt>
      <trkpt lat="46.5349" lon="0.34356">
        <ele>88.2</ele>
        <time>2011-07-03T06:20:17.000Z</time>
      </trkpt>
      <trkpt lat="46.53519" lon="0.34369">
        <ele>87.3</ele>
        <time>2011-07-03T06:20:23.000Z</time>
      </trkpt>
      <trkpt lat="46.53539" lon="0.34379">
        <ele>86.4</ele>
        <time>2011-07-03T06:20:27.000Z</time>
      </trkpt>
      <trkpt lat="46.53544" lon="0.34383">
        <ele>86.3</ele>
        <time>2011-07-03T06:20:28.000Z</time>
      </trkpt>
      <trkpt lat="46.53549" lon="0.34387">
        <ele>86.2</ele>
        <time>2011-07-03T06:20:29.000Z</time>
      </trkpt>
      <trkpt lat="46.53554" lon="0.34391">
        <ele>86</ele>
        <time>2011-07-03T06:20:30.000Z</time>
      </trkpt>
      <trkpt lat="46.53559" lon="0.34395">
        <ele>85.6</ele>
        <time>2011-07-03T06:20:31.000Z</time>
      </trkpt>
      <trkpt lat="46.53573" lon="0.34406">
        <ele>84.9</ele>
        <time>2011-07-03T06:20:34.000Z</time>
      </trkpt>
      <trkpt lat="46.53578" lon="0.34407">
        <ele>84.8</ele>
        <time>2011-07-03T06:20:35.000Z</time>
      </trkpt>
      <trkpt lat="46.53599" lon="0.34411">
        <ele>85.2</ele>
        <time>2011-07-03T06:20:39.000Z</time>
      </trkpt>
      <trkpt lat="46.53604" lon="0.3441">
        <ele>85.3</ele>
        <time>2011-07-03T06:20:40.000Z</time>
      </trkpt>
      <trkpt lat="46.53609" lon="0.3441">
        <ele>85.5</ele>
        <time>2011-07-03T06:20:41.000Z</time>
      </trkpt>
      <trkpt lat="46.53626" lon="0.3441">
        <ele>85.6</ele>
        <time>2011-07-03T06:20:44.000Z</time>
      </trkpt>
      <trkpt lat="46.53642" lon="0.34414">
        <ele>85.9</ele>
        <time>2011-07-03T06:20:47.000Z</time>
      </trkpt>
      <trkpt lat="46.53656" lon="0.34419">
        <ele>86.1</ele>
        <time>2011-07-03T06:20:50.000Z</time>
      </trkpt>
      <trkpt lat="46.53669" lon="0.34425">
        <ele>86.5</ele>
        <time>2011-07-03T06:20:53.000Z</time>
      </trkpt>
      <trkpt lat="46.53697" lon="0.34438">
        <ele>87.2</ele>
        <time>2011-07-03T06:20:59.000Z</time>
      </trkpt>
      <trkpt lat="46.53725" lon="0.34454">
        <ele>87</ele>
        <time>2011-07-03T06:21:05.000Z</time>
      </trkpt>
      <trkpt lat="46.53729" lon="0.34456">
        <ele>87.2</ele>
        <time>2011-07-03T06:21:06.000Z</time>
      </trkpt>
      <trkpt lat="46.5376" lon="0.34469">
        <ele>88.3</ele>
        <time>2011-07-03T06:21:13.000Z</time>
      </trkpt>
      <trkpt lat="46.53794" lon="0.34483">
        <ele>88.4</ele>
        <time>2011-07-03T06:21:20.000Z</time>
      </trkpt>
      <trkpt lat="46.53824" lon="0.34493">
        <ele>88.5</ele>
        <time>2011-07-03T06:21:26.000Z</time>
      </trkpt>
      <trkpt lat="46.53851" lon="0.34503">
        <ele>88.5</ele>
        <time>2011-07-03T06:21:32.000Z</time>
      </trkpt>
      <trkpt lat="46.53856" lon="0.34502">
        <ele>88.3</ele>
        <time>2011-07-03T06:21:33.000Z</time>
      </trkpt>
      <trkpt lat="46.53872" lon="0.34502">
        <ele>87.7</ele>
        <time>2011-07-03T06:21:36.000Z</time>
      </trkpt>
      <trkpt lat="46.53878" lon="0.34502">
        <ele>87.4</ele>
        <time>2011-07-03T06:21:37.000Z</time>
      </trkpt>
      <trkpt lat="46.53912" lon="0.34493">
        <ele>85.8</ele>
        <time>2011-07-03T06:21:43.000Z</time>
      </trkpt>
      <trkpt lat="46.5393" lon="0.34474">
        <ele>86.5</ele>
        <time>2011-07-03T06:21:48.000Z</time>
      </trkpt>
      <trkpt lat="46.53932" lon="0.34465">
        <ele>87.2</ele>
        <time>2011-07-03T06:21:50.000Z</time>
      </trkpt>
      <trkpt lat="46.53933" lon="0.34453">
        <ele>88.4</ele>
        <time>2011-07-03T06:21:53.000Z</time>
      </trkpt>
      <trkpt lat="46.5394" lon="0.34434">
        <ele>90.4</ele>
        <time>2011-07-03T06:21:59.000Z</time>
      </trkpt>
      <trkpt lat="46.53942" lon="0.34432">
        <ele>91</ele>
        <time>2011-07-03T06:22:00.000Z</time>
      </trkpt>
      <trkpt lat="46.53944" lon="0.3443">
        <ele>91.3</ele>
        <time>2011-07-03T06:22:01.000Z</time>
      </trkpt>
      <trkpt lat="46.53944" lon="0.34428">
        <ele>91.3</ele>
        <time>2011-07-03T06:22:02.000Z</time>
      </trkpt>
      <trkpt lat="46.53947" lon="0.34425">
        <ele>91.9</ele>
        <time>2011-07-03T06:22:03.000Z</time>
      </trkpt>
      <trkpt lat="46.53955" lon="0.34421">
        <ele>93.4</ele>
        <time>2011-07-03T06:22:06.000Z</time>
      </trkpt>
      <trkpt lat="46.53956" lon="0.3442">
        <ele>93.7</ele>
        <time>2011-07-03T06:22:07.000Z</time>
      </trkpt>
      <trkpt lat="46.53958" lon="0.34419">
        <ele>94.1</ele>
        <time>2011-07-03T06:22:08.000Z</time>
      </trkpt>
      <trkpt lat="46.53961" lon="0.34418">
        <ele>94.6</ele>
        <time>2011-07-03T06:22:09.000Z</time>
      </trkpt>
      <trkpt lat="46.53963" lon="0.34416">
        <ele>94.8</ele>
        <time>2011-07-03T06:22:10.000Z</time>
      </trkpt>
      <trkpt lat="46.53969" lon="0.34412">
        <ele>95.5</ele>
        <time>2011-07-03T06:22:13.000Z</time>
      </trkpt>
      <trkpt lat="46.53972" lon="0.34411">
        <ele>95.9</ele>
        <time>2011-07-03T06:22:14.000Z</time>
      </trkpt>
      <trkpt lat="46.53975" lon="0.3441">
        <ele>96.2</ele>
        <time>2011-07-03T06:22:15.000Z</time>
      </trkpt>
      <trkpt lat="46.53977" lon="0.34409">
        <ele>96.4</ele>
        <time>2011-07-03T06:22:16.000Z</time>
      </trkpt>
      <trkpt lat="46.5398" lon="0.34409">
        <ele>96.5</ele>
        <time>2011-07-03T06:22:17.000Z</time>
      </trkpt>
      <trkpt lat="46.53985" lon="0.34406">
        <ele>96.9</ele>
        <time>2011-07-03T06:22:19.000Z</time>
      </trkpt>
      <trkpt lat="46.53992" lon="0.34401">
        <ele>97.1</ele>
        <time>2011-07-03T06:22:22.000Z</time>
      </trkpt>
      <trkpt lat="46.53994" lon="0.34401">
        <ele>97.4</ele>
        <time>2011-07-03T06:22:23.000Z</time>
      </trkpt>
      <trkpt lat="46.53996" lon="0.344">
        <ele>97.6</ele>
        <time>2011-07-03T06:22:24.000Z</time>
      </trkpt>
      <trkpt lat="46.53998" lon="0.34399">
        <ele>97.8</ele>
        <time>2011-07-03T06:22:25.000Z</time>
      </trkpt>
      <trkpt lat="46.54007" lon="0.34398">
        <ele>98.1</ele>
        <time>2011-07-03T06:22:29.000Z</time>
      </trkpt>
      <trkpt lat="46.54009" lon="0.34399">
        <ele>98.2</ele>
        <time>2011-07-03T06:22:30.000Z</time>
      </trkpt>
      <trkpt lat="46.54011" lon="0.34399">
        <ele>98.3</ele>
        <time>2011-07-03T06:22:31.000Z</time>
      </trkpt>
      <trkpt lat="46.54014" lon="0.34399">
        <ele>98.3</ele>
        <time>2011-07-03T06:22:32.000Z</time>
      </trkpt>
      <trkpt lat="46.54016" lon="0.34401">
        <ele>98.5</ele>
        <time>2011-07-03T06:22:33.000Z</time>
      </trkpt>
      <trkpt lat="46.54028" lon="0.34401">
        <ele>98.8</ele>
        <time>2011-07-03T06:22:37.000Z</time>
      </trkpt>
      <trkpt lat="46.54039" lon="0.34392">
        <ele>99.3</ele>
        <time>2011-07-03T06:22:42.000Z</time>
      </trkpt>
      <trkpt lat="46.54044" lon="0.34381">
        <ele>99.3</ele>
        <time>2011-07-03T06:22:47.000Z</time>
      </trkpt>
      <trkpt lat="46.54044" lon="0.34381">
        <ele>99.3</ele>
        <time>2011-07-03T06:22:50.000Z</time>
      </trkpt>
      <trkpt lat="46.54045" lon="0.34377">
        <ele>99.1</ele>
        <time>2011-07-03T06:22:51.000Z</time>
      </trkpt>
      <trkpt lat="46.54047" lon="0.34366">
        <ele>98.7</ele>
        <time>2011-07-03T06:22:53.000Z</time>
      </trkpt>
      <trkpt lat="46.54054" lon="0.34358">
        <ele>99.5</ele>
        <time>2011-07-03T06:22:57.000Z</time>
      </trkpt>
      <trkpt lat="46.54062" lon="0.34349">
        <ele>101.2</ele>
        <time>2011-07-03T06:23:01.000Z</time>
      </trkpt>
      <trkpt lat="46.54064" lon="0.34344">
        <ele>101.7</ele>
        <time>2011-07-03T06:23:03.000Z</time>
      </trkpt>
      <trkpt lat="46.54065" lon="0.34342">
        <ele>101.8</ele>
        <time>2011-07-03T06:23:04.000Z</time>
      </trkpt>
      <trkpt lat="46.54066" lon="0.34339">
        <ele>101.9</ele>
        <time>2011-07-03T06:23:05.000Z</time>
      </trkpt>
      <trkpt lat="46.54067" lon="0.34337">
        <ele>101.9</ele>
        <time>2011-07-03T06:23:06.000Z</time>
      </trkpt>
      <trkpt lat="46.54067" lon="0.34334">
        <ele>101.8</ele>
        <time>2011-07-03T06:23:07.000Z</time>
      </trkpt>
      <trkpt lat="46.54068" lon="0.34331">
        <ele>102</ele>
        <time>2011-07-03T06:23:08.000Z</time>
      </trkpt>
      <trkpt lat="46.5407" lon="0.34327">
        <ele>102.3</ele>
        <time>2011-07-03T06:23:10.000Z</time>
      </trkpt>
      <trkpt lat="46.54071" lon="0.34325">
        <ele>102.6</ele>
        <time>2011-07-03T06:23:11.000Z</time>
      </trkpt>
      <trkpt lat="46.54073" lon="0.34324">
        <ele>103</ele>
        <time>2011-07-03T06:23:12.000Z</time>
      </trkpt>
      <trkpt lat="46.54074" lon="0.34323">
        <ele>103.4</ele>
        <time>2011-07-03T06:23:13.000Z</time>
      </trkpt>
      <trkpt lat="46.54075" lon="0.3432">
        <ele>103.6</ele>
        <time>2011-07-03T06:23:14.000Z</time>
      </trkpt>
      <trkpt lat="46.54078" lon="0.34314">
        <ele>104.7</ele>
        <time>2011-07-03T06:23:16.000Z</time>
      </trkpt>
      <trkpt lat="46.5408" lon="0.34312">
        <ele>105.3</ele>
        <time>2011-07-03T06:23:17.000Z</time>
      </trkpt>
      <trkpt lat="46.54081" lon="0.34309">
        <ele>105.9</ele>
        <time>2011-07-03T06:23:18.000Z</time>
      </trkpt>
      <trkpt lat="46.54082" lon="0.34307">
        <ele>106.4</ele>
        <time>2011-07-03T06:23:19.000Z</time>
      </trkpt>
      <trkpt lat="46.54082" lon="0.34305">
        <ele>106.5</ele>
        <time>2011-07-03T06:23:20.000Z</time>
      </trkpt>
      <trkpt lat="46.54083" lon="0.34304">
        <ele>106.6</ele>
        <time>2011-07-03T06:23:21.000Z</time>
      </trkpt>
      <trkpt lat="46.54085" lon="0.34302">
        <ele>107</ele>
        <time>2011-07-03T06:23:22.000Z</time>
      </trkpt>
      <trkpt lat="46.54086" lon="0.343">
        <ele>107.2</ele>
        <time>2011-07-03T06:23:23.000Z</time>
      </trkpt>
      <trkpt lat="46.54087" lon="0.34298">
        <ele>107.3</ele>
        <time>2011-07-03T06:23:24.000Z</time>
      </trkpt>
      <trkpt lat="46.54089" lon="0.34297">
        <ele>107.4</ele>
        <time>2011-07-03T06:23:25.000Z</time>
      </trkpt>
      <trkpt lat="46.5409" lon="0.34293">
        <ele>107.5</ele>
        <time>2011-07-03T06:23:26.000Z</time>
      </trkpt>
      <trkpt lat="46.54091" lon="0.34291">
        <ele>107.6</ele>
        <time>2011-07-03T06:23:27.000Z</time>
      </trkpt>
      <trkpt lat="46.54091" lon="0.3429">
        <ele>107.6</ele>
        <time>2011-07-03T06:23:28.000Z</time>
      </trkpt>
      <trkpt lat="46.54091" lon="0.34288">
        <ele>107.6</ele>
        <time>2011-07-03T06:23:29.000Z</time>
      </trkpt>
      <trkpt lat="46.54091" lon="0.34285">
        <ele>107.3</ele>
        <time>2011-07-03T06:23:30.000Z</time>
      </trkpt>
      <trkpt lat="46.54091" lon="0.34282">
        <ele>107.2</ele>
        <time>2011-07-03T06:23:31.000Z</time>
      </trkpt>
      <trkpt lat="46.54091" lon="0.34279">
        <ele>106.9</ele>
        <time>2011-07-03T06:23:32.000Z</time>
      </trkpt>
      <trkpt lat="46.54095" lon="0.34275">
        <ele>107.5</ele>
        <time>2011-07-03T06:23:34.000Z</time>
      </trkpt>
      <trkpt lat="46.54099" lon="0.34271">
        <ele>108.1</ele>
        <time>2011-07-03T06:23:39.000Z</time>
      </trkpt>
      <trkpt lat="46.54101" lon="0.34268">
        <ele>108.5</ele>
        <time>2011-07-03T06:23:40.000Z</time>
      </trkpt>
      <trkpt lat="46.54103" lon="0.34266">
        <ele>109</ele>
        <time>2011-07-03T06:23:41.000Z</time>
      </trkpt>
      <trkpt lat="46.54105" lon="0.34263">
        <ele>109.5</ele>
        <time>2011-07-03T06:23:42.000Z</time>
      </trkpt>
      <trkpt lat="46.54106" lon="0.3426">
        <ele>109.8</ele>
        <time>2011-07-03T06:23:43.000Z</time>
      </trkpt>
      <trkpt lat="46.54107" lon="0.34257">
        <ele>110.2</ele>
        <time>2011-07-03T06:23:44.000Z</time>
      </trkpt>
      <trkpt lat="46.5411" lon="0.34253">
        <ele>111.4</ele>
        <time>2011-07-03T06:23:46.000Z</time>
      </trkpt>
      <trkpt lat="46.54115" lon="0.34248">
        <ele>112.2</ele>
        <time>2011-07-03T06:23:50.000Z</time>
      </trkpt>
      <trkpt lat="46.5412" lon="0.34238">
        <ele>112.1</ele>
        <time>2011-07-03T06:23:55.000Z</time>
      </trkpt>
      <trkpt lat="46.54121" lon="0.34236">
        <ele>112.1</ele>
        <time>2011-07-03T06:23:56.000Z</time>
      </trkpt>
      <trkpt lat="46.54122" lon="0.34234">
        <ele>112.1</ele>
        <time>2011-07-03T06:23:57.000Z</time>
      </trkpt>
      <trkpt lat="46.54123" lon="0.34232">
        <ele>112.1</ele>
        <time>2011-07-03T06:23:58.000Z</time>
      </trkpt>
      <trkpt lat="46.54124" lon="0.3423">
        <ele>112.2</ele>
        <time>2011-07-03T06:23:59.000Z</time>
      </trkpt>
      <trkpt lat="46.54124" lon="0.34228">
        <ele>112.2</ele>
        <time>2011-07-03T06:24:00.000Z</time>
      </trkpt>
      <trkpt lat="46.54126" lon="0.34225">
        <ele>112.3</ele>
        <time>2011-07-03T06:24:01.000Z</time>
      </trkpt>
      <trkpt lat="46.54131" lon="0.34206">
        <ele>111.4</ele>
        <time>2011-07-03T06:24:05.000Z</time>
      </trkpt>
      <trkpt lat="46.54134" lon="0.34187">
        <ele>111.1</ele>
        <time>2011-07-03T06:24:09.000Z</time>
      </trkpt>
      <trkpt lat="46.54135" lon="0.34176">
        <ele>111.2</ele>
        <time>2011-07-03T06:24:13.000Z</time>
      </trkpt>
      <trkpt lat="46.54138" lon="0.34172">
        <ele>112.3</ele>
        <time>2011-07-03T06:24:15.000Z</time>
      </trkpt>
      <trkpt lat="46.54144" lon="0.34156">
        <ele>112.2</ele>
        <time>2011-07-03T06:24:22.000Z</time>
      </trkpt>
      <trkpt lat="46.54146" lon="0.34152">
        <ele>112</ele>
        <time>2011-07-03T06:24:24.000Z</time>
      </trkpt>
      <trkpt lat="46.54149" lon="0.34149">
        <ele>112</ele>
        <time>2011-07-03T06:24:26.000Z</time>
      </trkpt>
      <trkpt lat="46.54149" lon="0.34147">
        <ele>111.9</ele>
        <time>2011-07-03T06:24:27.000Z</time>
      </trkpt>
      <trkpt lat="46.54148" lon="0.34147">
        <ele>111.9</ele>
        <time>2011-07-03T06:24:31.000Z</time>
      </trkpt>
      <trkpt lat="46.54148" lon="0.34145">
        <ele>111.5</ele>
        <time>2011-07-03T06:24:39.000Z</time>
      </trkpt>
      <trkpt lat="46.54149" lon="0.34142">
        <ele>111.3</ele>
        <time>2011-07-03T06:24:45.000Z</time>
      </trkpt>
      <trkpt lat="46.54149" lon="0.34141">
        <ele>111.3</ele>
        <time>2011-07-03T06:24:46.000Z</time>
      </trkpt>
      <trkpt lat="46.54154" lon="0.34132">
        <ele>111</ele>
        <time>2011-07-03T06:24:51.000Z</time>
      </trkpt>
      <trkpt lat="46.54162" lon="0.34121">
        <ele>113</ele>
        <time>2011-07-03T06:24:56.000Z</time>
      </trkpt>
      <trkpt lat="46.54164" lon="0.34118">
        <ele>113.6</ele>
        <time>2011-07-03T06:24:57.000Z</time>
      </trkpt>
      <trkpt lat="46.54166" lon="0.34109">
        <ele>114.4</ele>
        <time>2011-07-03T06:25:00.000Z</time>
      </trkpt>
      <trkpt lat="46.54166" lon="0.34102">
        <ele>113.4</ele>
        <time>2011-07-03T06:25:02.000Z</time>
      </trkpt>
      <trkpt lat="46.54167" lon="0.34097">
        <ele>113</ele>
        <time>2011-07-03T06:25:04.000Z</time>
      </trkpt>
      <trkpt lat="46.5417" lon="0.34093">
        <ele>112.8</ele>
        <time>2011-07-03T06:25:09.000Z</time>
      </trkpt>
      <trkpt lat="46.5417" lon="0.34091">
        <ele>112.6</ele>
        <time>2011-07-03T06:25:14.000Z</time>
      </trkpt>
      <trkpt lat="46.5417" lon="0.3409">
        <ele>112.5</ele>
        <time>2011-07-03T06:25:20.000Z</time>
      </trkpt>
      <trkpt lat="46.5417" lon="0.3409">
        <ele>112.5</ele>
        <time>2011-07-03T06:25:21.000Z</time>
      </trkpt>
      <trkpt lat="46.5417" lon="0.34088">
        <ele>112.3</ele>
        <time>2011-07-03T06:25:24.000Z</time>
      </trkpt>
      <trkpt lat="46.54171" lon="0.34087">
        <ele>112.2</ele>
        <time>2011-07-03T06:25:25.000Z</time>
      </trkpt>
      <trkpt lat="46.54171" lon="0.34085">
        <ele>111.9</ele>
        <time>2011-07-03T06:25:27.000Z</time>
      </trkpt>
      <trkpt lat="46.54172" lon="0.34082">
        <ele>111.7</ele>
        <time>2011-07-03T06:25:29.000Z</time>
      </trkpt>
      <trkpt lat="46.54172" lon="0.34081">
        <ele>111.7</ele>
        <time>2011-07-03T06:25:30.000Z</time>
      </trkpt>
      <trkpt lat="46.54175" lon="0.34076">
        <ele>111.4</ele>
        <time>2011-07-03T06:25:36.000Z</time>
      </trkpt>
      <trkpt lat="46.54179" lon="0.3407">
        <ele>111.4</ele>
        <time>2011-07-03T06:25:42.000Z</time>
      </trkpt>
      <trkpt lat="46.54181" lon="0.34064">
        <ele>111.3</ele>
        <time>2011-07-03T06:25:44.000Z</time>
      </trkpt>
      <trkpt lat="46.54183" lon="0.34062">
        <ele>111.5</ele>
        <time>2011-07-03T06:25:45.000Z</time>
      </trkpt>
      <trkpt lat="46.54186" lon="0.34048">
        <ele>111.6</ele>
        <time>2011-07-03T06:25:50.000Z</time>
      </trkpt>
      <trkpt lat="46.5419" lon="0.34041">
        <ele>113.2</ele>
        <time>2011-07-03T06:25:54.000Z</time>
      </trkpt>
      <trkpt lat="46.54192" lon="0.34029">
        <ele>114</ele>
        <time>2011-07-03T06:25:58.000Z</time>
      </trkpt>
      <trkpt lat="46.54188" lon="0.34013">
        <ele>111.7</ele>
        <time>2011-07-03T06:26:02.000Z</time>
      </trkpt>
      <trkpt lat="46.54184" lon="0.33996">
        <ele>109.3</ele>
        <time>2011-07-03T06:26:06.000Z</time>
      </trkpt>
      <trkpt lat="46.54184" lon="0.33994">
        <ele>109.2</ele>
        <time>2011-07-03T06:26:11.000Z</time>
      </trkpt>
      <trkpt lat="46.54184" lon="0.33994">
        <ele>109.2</ele>
        <time>2011-07-03T06:26:18.000Z</time>
      </trkpt>
      <trkpt lat="46.54184" lon="0.33994">
        <ele>109.2</ele>
        <time>2011-07-03T06:26:22.000Z</time>
      </trkpt>
      <trkpt lat="46.54184" lon="0.33994">
        <ele>109.2</ele>
        <time>2011-07-03T06:26:24.000Z</time>
      </trkpt>
      <trkpt lat="46.54184" lon="0.33994">
        <ele>109.2</ele>
        <time>2011-07-03T06:26:29.000Z</time>
      </trkpt>
      <trkpt lat="46.54184" lon="0.33994">
        <ele>109.2</ele>
        <time>2011-07-03T06:26:34.000Z</time>
      </trkpt>
      <trkpt lat="46.54184" lon="0.33994">
        <ele>109.2</ele>
        <time>2011-07-03T06:26:37.000Z</time>
      </trkpt>
      <trkpt lat="46.54184" lon="0.33994">
        <ele>109.2</ele>
        <time>2011-07-03T06:26:38.000Z</time>
      </trkpt>
      <trkpt lat="46.54184" lon="0.33994">
        <ele>109.2</ele>
        <time>2011-07-03T06:26:42.000Z</time>
      </trkpt>
      <trkpt lat="46.54184" lon="0.33994">
        <ele>109.2</ele>
        <time>2011-07-03T06:26:47.000Z</time>
      </trkpt>
      <trkpt lat="46.54184" lon="0.33994">
        <ele>109.2</ele>
        <time>2011-07-03T06:26:51.000Z</time>
      </trkpt>
      <trkpt lat="46.54184" lon="0.33993">
        <ele>109.3</ele>
        <time>2011-07-03T06:26:54.000Z</time>
      </trkpt>
      <trkpt lat="46.54184" lon="0.33993">
        <ele>109.3</ele>
        <time>2011-07-03T06:26:58.000Z</time>
      </trkpt>
      <trkpt lat="46.54185" lon="0.33991">
        <ele>109.7</ele>
        <time>2011-07-03T06:27:10.000Z</time>
      </trkpt>
      <trkpt lat="46.5419" lon="0.33983">
        <ele>112.4</ele>
        <time>2011-07-03T06:27:14.000Z</time>
      </trkpt>
      <trkpt lat="46.54192" lon="0.33976">
        <ele>113.7</ele>
        <time>2011-07-03T06:27:16.000Z</time>
      </trkpt>
      <trkpt lat="46.54196" lon="0.33963">
        <ele>115</ele>
        <time>2011-07-03T06:27:20.000Z</time>
      </trkpt>
      <trkpt lat="46.54201" lon="0.33947">
        <ele>115</ele>
        <time>2011-07-03T06:27:24.000Z</time>
      </trkpt>
      <trkpt lat="46.542" lon="0.33942">
        <ele>114.9</ele>
        <time>2011-07-03T06:27:25.000Z</time>
      </trkpt>
      <trkpt lat="46.54194" lon="0.33907">
        <ele>113.6</ele>
        <time>2011-07-03T06:27:31.000Z</time>
      </trkpt>
      <trkpt lat="46.54188" lon="0.33861">
        <ele>112.5</ele>
        <time>2011-07-03T06:27:37.000Z</time>
      </trkpt>
      <trkpt lat="46.54185" lon="0.33836">
        <ele>112.6</ele>
        <time>2011-07-03T06:27:40.000Z</time>
      </trkpt>
      <trkpt lat="46.54185" lon="0.33828">
        <ele>112.3</ele>
        <time>2011-07-03T06:27:41.000Z</time>
      </trkpt>
      <trkpt lat="46.54187" lon="0.33819">
        <ele>111.7</ele>
        <time>2011-07-03T06:27:42.000Z</time>
      </trkpt>
      <trkpt lat="46.54189" lon="0.3381">
        <ele>111.1</ele>
        <time>2011-07-03T06:27:43.000Z</time>
      </trkpt>
      <trkpt lat="46.54191" lon="0.33802">
        <ele>110.6</ele>
        <time>2011-07-03T06:27:44.000Z</time>
      </trkpt>
      <trkpt lat="46.54194" lon="0.33794">
        <ele>110.1</ele>
        <time>2011-07-03T06:27:45.000Z</time>
      </trkpt>
      <trkpt lat="46.54196" lon="0.33785">
        <ele>109.7</ele>
        <time>2011-07-03T06:27:46.000Z</time>
      </trkpt>
      <trkpt lat="46.54199" lon="0.33776">
        <ele>109.4</ele>
        <time>2011-07-03T06:27:47.000Z</time>
      </trkpt>
      <trkpt lat="46.54202" lon="0.33767">
        <ele>109.7</ele>
        <time>2011-07-03T06:27:48.000Z</time>
      </trkpt>
      <trkpt lat="46.54205" lon="0.33758">
        <ele>109.9</ele>
        <time>2011-07-03T06:27:49.000Z</time>
      </trkpt>
      <trkpt lat="46.54208" lon="0.3375">
        <ele>110</ele>
        <time>2011-07-03T06:27:50.000Z</time>
      </trkpt>
      <trkpt lat="46.54212" lon="0.33741">
        <ele>109</ele>
        <time>2011-07-03T06:27:51.000Z</time>
      </trkpt>
      <trkpt lat="46.5422" lon="0.33724">
        <ele>107.2</ele>
        <time>2011-07-03T06:27:53.000Z</time>
      </trkpt>
      <trkpt lat="46.54229" lon="0.3371">
        <ele>106.5</ele>
        <time>2011-07-03T06:27:55.000Z</time>
      </trkpt>
      <trkpt lat="46.54266" lon="0.33669">
        <ele>104.1</ele>
        <time>2011-07-03T06:28:01.000Z</time>
      </trkpt>
      <trkpt lat="46.54285" lon="0.3365">
        <ele>102.9</ele>
        <time>2011-07-03T06:28:04.000Z</time>
      </trkpt>
      <trkpt lat="46.54292" lon="0.33644">
        <ele>102.8</ele>
        <time>2011-07-03T06:28:05.000Z</time>
      </trkpt>
      <trkpt lat="46.54298" lon="0.33638">
        <ele>102.7</ele>
        <time>2011-07-03T06:28:06.000Z</time>
      </trkpt>
      <trkpt lat="46.54304" lon="0.33633">
        <ele>102.3</ele>
        <time>2011-07-03T06:28:07.000Z</time>
      </trkpt>
      <trkpt lat="46.54311" lon="0.33628">
        <ele>101.8</ele>
        <time>2011-07-03T06:28:08.000Z</time>
      </trkpt>
      <trkpt lat="46.54318" lon="0.33622">
        <ele>101.3</ele>
        <time>2011-07-03T06:28:09.000Z</time>
      </trkpt>
      <trkpt lat="46.54325" lon="0.33617">
        <ele>101</ele>
        <time>2011-07-03T06:28:10.000Z</time>
      </trkpt>
      <trkpt lat="46.54332" lon="0.33614">
        <ele>101.1</ele>
        <time>2011-07-03T06:28:11.000Z</time>
      </trkpt>
      <trkpt lat="46.5434" lon="0.33612">
        <ele>100.8</ele>
        <time>2011-07-03T06:28:12.000Z</time>
      </trkpt>
      <trkpt lat="46.54366" lon="0.33611">
        <ele>100</ele>
        <time>2011-07-03T06:28:15.000Z</time>
      </trkpt>
      <trkpt lat="46.54382" lon="0.33612">
        <ele>100</ele>
        <time>2011-07-03T06:28:17.000Z</time>
      </trkpt>
      <trkpt lat="46.54411" lon="0.33612">
        <ele>100</ele>
        <time>2011-07-03T06:28:21.000Z</time>
      </trkpt>
      <trkpt lat="46.54418" lon="0.33613">
        <ele>100.1</ele>
        <time>2011-07-03T06:28:22.000Z</time>
      </trkpt>
      <trkpt lat="46.54424" lon="0.33613">
        <ele>100.4</ele>
        <time>2011-07-03T06:28:23.000Z</time>
      </trkpt>
      <trkpt lat="46.5443" lon="0.33614">
        <ele>100.6</ele>
        <time>2011-07-03T06:28:24.000Z</time>
      </trkpt>
      <trkpt lat="46.54436" lon="0.33614">
        <ele>100.8</ele>
        <time>2011-07-03T06:28:25.000Z</time>
      </trkpt>
      <trkpt lat="46.5445" lon="0.33613">
        <ele>101.2</ele>
        <time>2011-07-03T06:28:28.000Z</time>
      </trkpt>
      <trkpt lat="46.5446" lon="0.33613">
        <ele>101.1</ele>
        <time>2011-07-03T06:28:30.000Z</time>
      </trkpt>
      <trkpt lat="46.54475" lon="0.33614">
        <ele>101.2</ele>
        <time>2011-07-03T06:28:33.000Z</time>
      </trkpt>
      <trkpt lat="46.5448" lon="0.33615">
        <ele>101.3</ele>
        <time>2011-07-03T06:28:34.000Z</time>
      </trkpt>
      <trkpt lat="46.54496" lon="0.33618">
        <ele>101.7</ele>
        <time>2011-07-03T06:28:37.000Z</time>
      </trkpt>
      <trkpt lat="46.54506" lon="0.33621">
        <ele>101.9</ele>
        <time>2011-07-03T06:28:39.000Z</time>
      </trkpt>
      <trkpt lat="46.54511" lon="0.33623">
        <ele>101.9</ele>
        <time>2011-07-03T06:28:40.000Z</time>
      </trkpt>
      <trkpt lat="46.54535" lon="0.33638">
        <ele>102.6</ele>
        <time>2011-07-03T06:28:45.000Z</time>
      </trkpt>
      <trkpt lat="46.54545" lon="0.33643">
        <ele>102.7</ele>
        <time>2011-07-03T06:28:47.000Z</time>
      </trkpt>
      <trkpt lat="46.54581" lon="0.33657">
        <ele>102.1</ele>
        <time>2011-07-03T06:28:55.000Z</time>
      </trkpt>
      <trkpt lat="46.54589" lon="0.3364">
        <ele>99.8</ele>
        <time>2011-07-03T06:28:58.000Z</time>
      </trkpt>
      <trkpt lat="46.54592" lon="0.33623">
        <ele>97.7</ele>
        <time>2011-07-03T06:29:00.000Z</time>
      </trkpt>
      <trkpt lat="46.54594" lon="0.33616">
        <ele>96.8</ele>
        <time>2011-07-03T06:29:01.000Z</time>
      </trkpt>
      <trkpt lat="46.54595" lon="0.3361">
        <ele>96</ele>
        <time>2011-07-03T06:29:02.000Z</time>
      </trkpt>
      <trkpt lat="46.54598" lon="0.33605">
        <ele>95.4</ele>
        <time>2011-07-03T06:29:03.000Z</time>
      </trkpt>
      <trkpt lat="46.54601" lon="0.33602">
        <ele>94.9</ele>
        <time>2011-07-03T06:29:04.000Z</time>
      </trkpt>
      <trkpt lat="46.54605" lon="0.33603">
        <ele>94.6</ele>
        <time>2011-07-03T06:29:05.000Z</time>
      </trkpt>
      <trkpt lat="46.54609" lon="0.33606">
        <ele>94.6</ele>
        <time>2011-07-03T06:29:06.000Z</time>
      </trkpt>
      <trkpt lat="46.54614" lon="0.3361">
        <ele>94.6</ele>
        <time>2011-07-03T06:29:07.000Z</time>
      </trkpt>
      <trkpt lat="46.54619" lon="0.33615">
        <ele>94.5</ele>
        <time>2011-07-03T06:29:08.000Z</time>
      </trkpt>
      <trkpt lat="46.54624" lon="0.33619">
        <ele>94.4</ele>
        <time>2011-07-03T06:29:09.000Z</time>
      </trkpt>
      <trkpt lat="46.54629" lon="0.33624">
        <ele>94.1</ele>
        <time>2011-07-03T06:29:10.000Z</time>
      </trkpt>
      <trkpt lat="46.5464" lon="0.33634">
        <ele>93.6</ele>
        <time>2011-07-03T06:29:12.000Z</time>
      </trkpt>
      <trkpt lat="46.54652" lon="0.33643">
        <ele>94.3</ele>
        <time>2011-07-03T06:29:14.000Z</time>
      </trkpt>
      <trkpt lat="46.54664" lon="0.33646">
        <ele>94.5</ele>
        <time>2011-07-03T06:29:16.000Z</time>
      </trkpt>
      <trkpt lat="46.5467" lon="0.33647">
        <ele>94.1</ele>
        <time>2011-07-03T06:29:17.000Z</time>
      </trkpt>
      <trkpt lat="46.54677" lon="0.33646">
        <ele>93.4</ele>
        <time>2011-07-03T06:29:18.000Z</time>
      </trkpt>
      <trkpt lat="46.54683" lon="0.33645">
        <ele>92.8</ele>
        <time>2011-07-03T06:29:19.000Z</time>
      </trkpt>
      <trkpt lat="46.54688" lon="0.33643">
        <ele>92.2</ele>
        <time>2011-07-03T06:29:20.000Z</time>
      </trkpt>
      <trkpt lat="46.54692" lon="0.33641">
        <ele>91.5</ele>
        <time>2011-07-03T06:29:21.000Z</time>
      </trkpt>
      <trkpt lat="46.54696" lon="0.33639">
        <ele>90.5</ele>
        <time>2011-07-03T06:29:22.000Z</time>
      </trkpt>
      <trkpt lat="46.54698" lon="0.33637">
        <ele>89.2</ele>
        <time>2011-07-03T06:29:23.000Z</time>
      </trkpt>
      <trkpt lat="46.54705" lon="0.33633">
        <ele>86.2</ele>
        <time>2011-07-03T06:29:26.000Z</time>
      </trkpt>
      <trkpt lat="46.54717" lon="0.33619">
        <ele>81.9</ele>
        <time>2011-07-03T06:29:30.000Z</time>
      </trkpt>
      <trkpt lat="46.54721" lon="0.33615">
        <ele>81.3</ele>
        <time>2011-07-03T06:29:31.000Z</time>
      </trkpt>
      <trkpt lat="46.54741" lon="0.33578">
        <ele>83.4</ele>
        <time>2011-07-03T06:29:38.000Z</time>
      </trkpt>
      <trkpt lat="46.54755" lon="0.33552">
        <ele>77.8</ele>
        <time>2011-07-03T06:29:43.000Z</time>
      </trkpt>
      <trkpt lat="46.54776" lon="0.33515">
        <ele>74</ele>
        <time>2011-07-03T06:29:49.000Z</time>
      </trkpt>
      <trkpt lat="46.54779" lon="0.33509">
        <ele>74</ele>
        <time>2011-07-03T06:29:50.000Z</time>
      </trkpt>
      <trkpt lat="46.54783" lon="0.33503">
        <ele>74</ele>
        <time>2011-07-03T06:29:51.000Z</time>
      </trkpt>
      <trkpt lat="46.54786" lon="0.33498">
        <ele>74</ele>
        <time>2011-07-03T06:29:52.000Z</time>
      </trkpt>
      <trkpt lat="46.54789" lon="0.33492">
        <ele>74</ele>
        <time>2011-07-03T06:29:53.000Z</time>
      </trkpt>
      <trkpt lat="46.54801" lon="0.33468">
        <ele>74</ele>
        <time>2011-07-03T06:29:57.000Z</time>
      </trkpt>
      <trkpt lat="46.54827" lon="0.33421">
        <ele>74</ele>
        <time>2011-07-03T06:30:05.000Z</time>
      </trkpt>
      <trkpt lat="46.54833" lon="0.33411">
        <ele>74</ele>
        <time>2011-07-03T06:30:07.000Z</time>
      </trkpt>
      <trkpt lat="46.54847" lon="0.33392">
        <ele>74</ele>
        <time>2011-07-03T06:30:11.000Z</time>
      </trkpt>
      <trkpt lat="46.5487" lon="0.33367">
        <ele>75.1</ele>
        <time>2011-07-03T06:30:17.000Z</time>
      </trkpt>
      <trkpt lat="46.549" lon="0.33343">
        <ele>83.7</ele>
        <time>2011-07-03T06:30:24.000Z</time>
      </trkpt>
      <trkpt lat="46.54905" lon="0.33341">
        <ele>85.4</ele>
        <time>2011-07-03T06:30:25.000Z</time>
      </trkpt>
      <trkpt lat="46.54914" lon="0.33338">
        <ele>88.5</ele>
        <time>2011-07-03T06:30:27.000Z</time>
      </trkpt>
      <trkpt lat="46.54923" lon="0.33336">
        <ele>91.5</ele>
        <time>2011-07-03T06:30:29.000Z</time>
      </trkpt>
      <trkpt lat="46.54934" lon="0.33337">
        <ele>94</ele>
        <time>2011-07-03T06:30:32.000Z</time>
      </trkpt>
      <trkpt lat="46.54942" lon="0.33341">
        <ele>95</ele>
        <time>2011-07-03T06:30:37.000Z</time>
      </trkpt>
      <trkpt lat="46.54946" lon="0.33342">
        <ele>95.7</ele>
        <time>2011-07-03T06:30:43.000Z</time>
      </trkpt>
      <trkpt lat="46.54944" lon="0.33337">
        <ele>96.7</ele>
        <time>2011-07-03T06:30:46.000Z</time>
      </trkpt>
      <trkpt lat="46.54944" lon="0.33336">
        <ele>96.9</ele>
        <time>2011-07-03T06:30:47.000Z</time>
      </trkpt>
      <trkpt lat="46.54942" lon="0.33335">
        <ele>96.9</ele>
        <time>2011-07-03T06:30:48.000Z</time>
      </trkpt>
      <trkpt lat="46.54941" lon="0.33335">
        <ele>96.6</ele>
        <time>2011-07-03T06:30:49.000Z</time>
      </trkpt>
      <trkpt lat="46.54939" lon="0.33334">
        <ele>96.3</ele>
        <time>2011-07-03T06:30:50.000Z</time>
      </trkpt>
      <trkpt lat="46.54936" lon="0.33333">
        <ele>96</ele>
        <time>2011-07-03T06:30:52.000Z</time>
      </trkpt>
      <trkpt lat="46.54934" lon="0.33331">
        <ele>96.2</ele>
        <time>2011-07-03T06:30:53.000Z</time>
      </trkpt>
      <trkpt lat="46.54933" lon="0.3333">
        <ele>96.5</ele>
        <time>2011-07-03T06:30:54.000Z</time>
      </trkpt>
      <trkpt lat="46.54932" lon="0.33328">
        <ele>96.8</ele>
        <time>2011-07-03T06:30:55.000Z</time>
      </trkpt>
      <trkpt lat="46.54931" lon="0.33327">
        <ele>97.1</ele>
        <time>2011-07-03T06:30:56.000Z</time>
      </trkpt>
      <trkpt lat="46.5493" lon="0.33325">
        <ele>97.1</ele>
        <time>2011-07-03T06:30:57.000Z</time>
      </trkpt>
      <trkpt lat="46.54928" lon="0.33324">
        <ele>97.3</ele>
        <time>2011-07-03T06:30:58.000Z</time>
      </trkpt>
      <trkpt lat="46.54925" lon="0.33322">
        <ele>97.2</ele>
        <time>2011-07-03T06:31:00.000Z</time>
      </trkpt>
      <trkpt lat="46.54922" lon="0.33319">
        <ele>97.4</ele>
        <time>2011-07-03T06:31:02.000Z</time>
      </trkpt>
      <trkpt lat="46.54921" lon="0.33318">
        <ele>97.5</ele>
        <time>2011-07-03T06:31:03.000Z</time>
      </trkpt>
      <trkpt lat="46.5492" lon="0.33317">
        <ele>97.7</ele>
        <time>2011-07-03T06:31:04.000Z</time>
      </trkpt>
      <trkpt lat="46.54919" lon="0.33316">
        <ele>97.8</ele>
        <time>2011-07-03T06:31:05.000Z</time>
      </trkpt>
      <trkpt lat="46.54918" lon="0.33315">
        <ele>97.9</ele>
        <time>2011-07-03T06:31:06.000Z</time>
      </trkpt>
      <trkpt lat="46.54916" lon="0.33312">
        <ele>98.3</ele>
        <time>2011-07-03T06:31:08.000Z</time>
      </trkpt>
      <trkpt lat="46.54914" lon="0.3331">
        <ele>98.9</ele>
        <time>2011-07-03T06:31:09.000Z</time>
      </trkpt>
      <trkpt lat="46.54913" lon="0.33307">
        <ele>99.5</ele>
        <time>2011-07-03T06:31:10.000Z</time>
      </trkpt>
      <trkpt lat="46.54912" lon="0.33306">
        <ele>99.9</ele>
        <time>2011-07-03T06:31:11.000Z</time>
      </trkpt>
      <trkpt lat="46.54911" lon="0.33304">
        <ele>100.4</ele>
        <time>2011-07-03T06:31:12.000Z</time>
      </trkpt>
      <trkpt lat="46.54907" lon="0.33297">
        <ele>102</ele>
        <time>2011-07-03T06:31:16.000Z</time>
      </trkpt>
      <trkpt lat="46.54906" lon="0.33296">
        <ele>102.2</ele>
        <time>2011-07-03T06:31:17.000Z</time>
      </trkpt>
      <trkpt lat="46.54905" lon="0.33294">
        <ele>102.6</ele>
        <time>2011-07-03T06:31:18.000Z</time>
      </trkpt>
      <trkpt lat="46.54904" lon="0.33292">
        <ele>103</ele>
        <time>2011-07-03T06:31:19.000Z</time>
      </trkpt>
      <trkpt lat="46.54903" lon="0.3329">
        <ele>103.6</ele>
        <time>2011-07-03T06:31:20.000Z</time>
      </trkpt>
      <trkpt lat="46.54899" lon="0.33287">
        <ele>104.1</ele>
        <time>2011-07-03T06:31:22.000Z</time>
      </trkpt>
      <trkpt lat="46.54897" lon="0.33284">
        <ele>104.5</ele>
        <time>2011-07-03T06:31:24.000Z</time>
      </trkpt>
      <trkpt lat="46.54896" lon="0.33282">
        <ele>104.9</ele>
        <time>2011-07-03T06:31:25.000Z</time>
      </trkpt>
      <trkpt lat="46.54896" lon="0.33281">
        <ele>105.4</ele>
        <time>2011-07-03T06:31:26.000Z</time>
      </trkpt>
      <trkpt lat="46.54895" lon="0.33279">
        <ele>106</ele>
        <time>2011-07-03T06:31:27.000Z</time>
      </trkpt>
      <trkpt lat="46.54892" lon="0.33269">
        <ele>108.3</ele>
        <time>2011-07-03T06:31:31.000Z</time>
      </trkpt>
      <trkpt lat="46.54891" lon="0.33267">
        <ele>108.9</ele>
        <time>2011-07-03T06:31:32.000Z</time>
      </trkpt>
      <trkpt lat="46.54889" lon="0.33264">
        <ele>109.4</ele>
        <time>2011-07-03T06:31:33.000Z</time>
      </trkpt>
      <trkpt lat="46.54888" lon="0.33263">
        <ele>109.7</ele>
        <time>2011-07-03T06:31:34.000Z</time>
      </trkpt>
      <trkpt lat="46.54887" lon="0.33261">
        <ele>110.1</ele>
        <time>2011-07-03T06:31:35.000Z</time>
      </trkpt>
      <trkpt lat="46.54886" lon="0.3326">
        <ele>110.4</ele>
        <time>2011-07-03T06:31:36.000Z</time>
      </trkpt>
      <trkpt lat="46.54886" lon="0.33258">
        <ele>110.7</ele>
        <time>2011-07-03T06:31:37.000Z</time>
      </trkpt>
      <trkpt lat="46.54884" lon="0.33256">
        <ele>111.2</ele>
        <time>2011-07-03T06:31:39.000Z</time>
      </trkpt>
      <trkpt lat="46.54883" lon="0.33254">
        <ele>111.4</ele>
        <time>2011-07-03T06:31:40.000Z</time>
      </trkpt>
      <trkpt lat="46.54882" lon="0.33253">
        <ele>111.6</ele>
        <time>2011-07-03T06:31:41.000Z</time>
      </trkpt>
      <trkpt lat="46.54881" lon="0.33252">
        <ele>111.9</ele>
        <time>2011-07-03T06:31:42.000Z</time>
      </trkpt>
      <trkpt lat="46.5488" lon="0.3325">
        <ele>112.3</ele>
        <time>2011-07-03T06:31:43.000Z</time>
      </trkpt>
      <trkpt lat="46.54878" lon="0.33248">
        <ele>112.4</ele>
        <time>2011-07-03T06:31:45.000Z</time>
      </trkpt>
      <trkpt lat="46.54877" lon="0.33247">
        <ele>112.4</ele>
        <time>2011-07-03T06:31:46.000Z</time>
      </trkpt>
      <trkpt lat="46.54875" lon="0.33246">
        <ele>112.5</ele>
        <time>2011-07-03T06:31:47.000Z</time>
      </trkpt>
      <trkpt lat="46.54874" lon="0.33244">
        <ele>112.6</ele>
        <time>2011-07-03T06:31:48.000Z</time>
      </trkpt>
      <trkpt lat="46.54873" lon="0.33243">
        <ele>112.8</ele>
        <time>2011-07-03T06:31:49.000Z</time>
      </trkpt>
      <trkpt lat="46.54872" lon="0.33241">
        <ele>113.1</ele>
        <time>2011-07-03T06:31:50.000Z</time>
      </trkpt>
      <trkpt lat="46.54869" lon="0.33236">
        <ele>113.8</ele>
        <time>2011-07-03T06:31:53.000Z</time>
      </trkpt>
      <trkpt lat="46.54868" lon="0.33234">
        <ele>114.2</ele>
        <time>2011-07-03T06:31:55.000Z</time>
      </trkpt>
      <trkpt lat="46.54867" lon="0.33233">
        <ele>114.5</ele>
        <time>2011-07-03T06:31:56.000Z</time>
      </trkpt>
      <trkpt lat="46.54865" lon="0.33231">
        <ele>114.8</ele>
        <time>2011-07-03T06:31:57.000Z</time>
      </trkpt>
      <trkpt lat="46.54865" lon="0.33229">
        <ele>115.2</ele>
        <time>2011-07-03T06:31:58.000Z</time>
      </trkpt>
      <trkpt lat="46.54864" lon="0.33227">
        <ele>115.6</ele>
        <time>2011-07-03T06:31:59.000Z</time>
      </trkpt>
      <trkpt lat="46.54858" lon="0.33217">
        <ele>116.7</ele>
        <time>2011-07-03T06:32:04.000Z</time>
      </trkpt>
      <trkpt lat="46.54855" lon="0.33209">
        <ele>116.7</ele>
        <time>2011-07-03T06:32:08.000Z</time>
      </trkpt>
      <trkpt lat="46.54854" lon="0.33208">
        <ele>116.7</ele>
        <time>2011-07-03T06:32:09.000Z</time>
      </trkpt>
      <trkpt lat="46.54853" lon="0.33206">
        <ele>116.7</ele>
        <time>2011-07-03T06:32:10.000Z</time>
      </trkpt>
      <trkpt lat="46.54853" lon="0.33204">
        <ele>116.9</ele>
        <time>2011-07-03T06:32:11.000Z</time>
      </trkpt>
      <trkpt lat="46.54852" lon="0.33202">
        <ele>117.1</ele>
        <time>2011-07-03T06:32:12.000Z</time>
      </trkpt>
      <trkpt lat="46.54851" lon="0.332">
        <ele>117.2</ele>
        <time>2011-07-03T06:32:13.000Z</time>
      </trkpt>
      <trkpt lat="46.5485" lon="0.33198">
        <ele>117.4</ele>
        <time>2011-07-03T06:32:14.000Z</time>
      </trkpt>
      <trkpt lat="46.54846" lon="0.33183">
        <ele>118.4</ele>
        <time>2011-07-03T06:32:20.000Z</time>
      </trkpt>
      <trkpt lat="46.54844" lon="0.33178">
        <ele>118.6</ele>
        <time>2011-07-03T06:32:22.000Z</time>
      </trkpt>
      <trkpt lat="46.54842" lon="0.33167">
        <ele>119.5</ele>
        <time>2011-07-03T06:32:25.000Z</time>
      </trkpt>
      <trkpt lat="46.54841" lon="0.33164">
        <ele>119.7</ele>
        <time>2011-07-03T06:32:26.000Z</time>
      </trkpt>
      <trkpt lat="46.54839" lon="0.3316">
        <ele>119.8</ele>
        <time>2011-07-03T06:32:27.000Z</time>
      </trkpt>
      <trkpt lat="46.54838" lon="0.33158">
        <ele>119.9</ele>
        <time>2011-07-03T06:32:28.000Z</time>
      </trkpt>
      <trkpt lat="46.54838" lon="0.33155">
        <ele>120.1</ele>
        <time>2011-07-03T06:32:29.000Z</time>
      </trkpt>
      <trkpt lat="46.54837" lon="0.33151">
        <ele>120.3</ele>
        <time>2011-07-03T06:32:30.000Z</time>
      </trkpt>
      <trkpt lat="46.54836" lon="0.33148">
        <ele>120.5</ele>
        <time>2011-07-03T06:32:31.000Z</time>
      </trkpt>
      <trkpt lat="46.5483" lon="0.33133">
        <ele>121.3</ele>
        <time>2011-07-03T06:32:36.000Z</time>
      </trkpt>
      <trkpt lat="46.54829" lon="0.33126">
        <ele>121.8</ele>
        <time>2011-07-03T06:32:38.000Z</time>
      </trkpt>
      <trkpt lat="46.54829" lon="0.33124">
        <ele>121.9</ele>
        <time>2011-07-03T06:32:39.000Z</time>
      </trkpt>
      <trkpt lat="46.5483" lon="0.33121">
        <ele>122.2</ele>
        <time>2011-07-03T06:32:40.000Z</time>
      </trkpt>
      <trkpt lat="46.5483" lon="0.33118">
        <ele>122.4</ele>
        <time>2011-07-03T06:32:41.000Z</time>
      </trkpt>
      <trkpt lat="46.5483" lon="0.33114">
        <ele>122.6</ele>
        <time>2011-07-03T06:32:42.000Z</time>
      </trkpt>
      <trkpt lat="46.54827" lon="0.33095">
        <ele>123.5</ele>
        <time>2011-07-03T06:32:48.000Z</time>
      </trkpt>
      <trkpt lat="46.54827" lon="0.33088">
        <ele>123.8</ele>
        <time>2011-07-03T06:32:50.000Z</time>
      </trkpt>
      <trkpt lat="46.54826" lon="0.33085">
        <ele>123.9</ele>
        <time>2011-07-03T06:32:51.000Z</time>
      </trkpt>
      <trkpt lat="46.54825" lon="0.3308">
        <ele>124.1</ele>
        <time>2011-07-03T06:32:52.000Z</time>
      </trkpt>
      <trkpt lat="46.54825" lon="0.33075">
        <ele>124.3</ele>
        <time>2011-07-03T06:32:53.000Z</time>
      </trkpt>
      <trkpt lat="46.54824" lon="0.3307">
        <ele>124.5</ele>
        <time>2011-07-03T06:32:54.000Z</time>
      </trkpt>
      <trkpt lat="46.5482" lon="0.33052">
        <ele>125</ele>
        <time>2011-07-03T06:32:58.000Z</time>
      </trkpt>
      <trkpt lat="46.54817" lon="0.33037">
        <ele>125</ele>
        <time>2011-07-03T06:33:01.000Z</time>
      </trkpt>
      <trkpt lat="46.54817" lon="0.33032">
        <ele>125</ele>
        <time>2011-07-03T06:33:02.000Z</time>
      </trkpt>
      <trkpt lat="46.54816" lon="0.33027">
        <ele>125</ele>
        <time>2011-07-03T06:33:03.000Z</time>
      </trkpt>
      <trkpt lat="46.54816" lon="0.33022">
        <ele>125.2</ele>
        <time>2011-07-03T06:33:04.000Z</time>
      </trkpt>
      <trkpt lat="46.54816" lon="0.33017">
        <ele>125.4</ele>
        <time>2011-07-03T06:33:05.000Z</time>
      </trkpt>
      <trkpt lat="46.54815" lon="0.32991">
        <ele>126</ele>
        <time>2011-07-03T06:33:10.000Z</time>
      </trkpt>
      <trkpt lat="46.54815" lon="0.32965">
        <ele>126.2</ele>
        <time>2011-07-03T06:33:15.000Z</time>
      </trkpt>
      <trkpt lat="46.54816" lon="0.3296">
        <ele>126.3</ele>
        <time>2011-07-03T06:33:16.000Z</time>
      </trkpt>
      <trkpt lat="46.54817" lon="0.32949">
        <ele>126.5</ele>
        <time>2011-07-03T06:33:18.000Z</time>
      </trkpt>
      <trkpt lat="46.54817" lon="0.32939">
        <ele>126.6</ele>
        <time>2011-07-03T06:33:20.000Z</time>
      </trkpt>
      <trkpt lat="46.54817" lon="0.32928">
        <ele>126.6</ele>
        <time>2011-07-03T06:33:22.000Z</time>
      </trkpt>
      <trkpt lat="46.54818" lon="0.32922">
        <ele>126.6</ele>
        <time>2011-07-03T06:33:23.000Z</time>
      </trkpt>
      <trkpt lat="46.54818" lon="0.32916">
        <ele>126.6</ele>
        <time>2011-07-03T06:33:24.000Z</time>
      </trkpt>
      <trkpt lat="46.54818" lon="0.3291">
        <ele>126.6</ele>
        <time>2011-07-03T06:33:25.000Z</time>
      </trkpt>
      <trkpt lat="46.54817" lon="0.32905">
        <ele>126.6</ele>
        <time>2011-07-03T06:33:26.000Z</time>
      </trkpt>
      <trkpt lat="46.54815" lon="0.32893">
        <ele>126.6</ele>
        <time>2011-07-03T06:33:28.000Z</time>
      </trkpt>
      <trkpt lat="46.54809" lon="0.3287">
        <ele>126.3</ele>
        <time>2011-07-03T06:33:33.000Z</time>
      </trkpt>
      <trkpt lat="46.54806" lon="0.32865">
        <ele>126.1</ele>
        <time>2011-07-03T06:33:35.000Z</time>
      </trkpt>
      <trkpt lat="46.54805" lon="0.32864">
        <ele>126.1</ele>
        <time>2011-07-03T06:33:36.000Z</time>
      </trkpt>
      <trkpt lat="46.54804" lon="0.32864">
        <ele>126.1</ele>
        <time>2011-07-03T06:33:43.000Z</time>
      </trkpt>
      <trkpt lat="46.54804" lon="0.32864">
        <ele>126.1</ele>
        <time>2011-07-03T06:33:57.000Z</time>
      </trkpt>
      <trkpt lat="46.54804" lon="0.32864">
        <ele>126.1</ele>
        <time>2011-07-03T06:33:58.000Z</time>
      </trkpt>
      <trkpt lat="46.54804" lon="0.32864">
        <ele>126.1</ele>
        <time>2011-07-03T06:33:59.000Z</time>
      </trkpt>
      <trkpt lat="46.54804" lon="0.32864">
        <ele>126.1</ele>
        <time>2011-07-03T06:34:00.000Z</time>
      </trkpt>
      <trkpt lat="46.54804" lon="0.32864">
        <ele>126.1</ele>
        <time>2011-07-03T06:34:01.000Z</time>
      </trkpt>
      <trkpt lat="46.54804" lon="0.32864">
        <ele>126.1</ele>
        <time>2011-07-03T06:34:02.000Z</time>
      </trkpt>
      <trkpt lat="46.54804" lon="0.32864">
        <ele>126.1</ele>
        <time>2011-07-03T06:34:07.000Z</time>
      </trkpt>
      <trkpt lat="46.54803" lon="0.32865">
        <ele>126.1</ele>
        <time>2011-07-03T06:34:10.000Z</time>
      </trkpt>
      <trkpt lat="46.54803" lon="0.32866">
        <ele>126.2</ele>
        <time>2011-07-03T06:34:11.000Z</time>
      </trkpt>
      <trkpt lat="46.54798" lon="0.32878">
        <ele>126.6</ele>
        <time>2011-07-03T06:34:15.000Z</time>
      </trkpt>
      <trkpt lat="46.5479" lon="0.32896">
        <ele>127</ele>
        <time>2011-07-03T06:34:20.000Z</time>
      </trkpt>
      <trkpt lat="46.54779" lon="0.32915">
        <ele>127</ele>
        <time>2011-07-03T06:34:25.000Z</time>
      </trkpt>
      <trkpt lat="46.54768" lon="0.32927">
        <ele>127</ele>
        <time>2011-07-03T06:34:29.000Z</time>
      </trkpt>
      <trkpt lat="46.54765" lon="0.32928">
        <ele>127</ele>
        <time>2011-07-03T06:34:30.000Z</time>
      </trkpt>
      <trkpt lat="46.54744" lon="0.32943">
        <ele>126.8</ele>
        <time>2011-07-03T06:34:36.000Z</time>
      </trkpt>
      <trkpt lat="46.54723" lon="0.32962">
        <ele>126</ele>
        <time>2011-07-03T06:34:42.000Z</time>
      </trkpt>
      <trkpt lat="46.54709" lon="0.32957">
        <ele>126</ele>
        <time>2011-07-03T06:34:46.000Z</time>
      </trkpt>
      <trkpt lat="46.54697" lon="0.32944">
        <ele>126</ele>
        <time>2011-07-03T06:34:50.000Z</time>
      </trkpt>
      <trkpt lat="46.54686" lon="0.32931">
        <ele>125.7</ele>
        <time>2011-07-03T06:34:54.000Z</time>
      </trkpt>
      <trkpt lat="46.54689" lon="0.32919">
        <ele>125.8</ele>
        <time>2011-07-03T06:34:57.000Z</time>
      </trkpt>
      <trkpt lat="46.5469" lon="0.329">
        <ele>125.9</ele>
        <time>2011-07-03T06:35:01.000Z</time>
      </trkpt>
      <trkpt lat="46.54681" lon="0.32889">
        <ele>126</ele>
        <time>2011-07-03T06:35:05.000Z</time>
      </trkpt>
      <trkpt lat="46.54672" lon="0.32887">
        <ele>125.9</ele>
        <time>2011-07-03T06:35:08.000Z</time>
      </trkpt>
      <trkpt lat="46.5467" lon="0.32884">
        <ele>125.8</ele>
        <time>2011-07-03T06:35:09.000Z</time>
      </trkpt>
      <trkpt lat="46.54667" lon="0.32881">
        <ele>125.7</ele>
        <time>2011-07-03T06:35:10.000Z</time>
      </trkpt>
      <trkpt lat="46.5465" lon="0.3286">
        <ele>125</ele>
        <time>2011-07-03T06:35:15.000Z</time>
      </trkpt>
      <trkpt lat="46.54639" lon="0.32854">
        <ele>125</ele>
        <time>2011-07-03T06:35:19.000Z</time>
      </trkpt>
      <trkpt lat="46.54634" lon="0.32852">
        <ele>124.8</ele>
        <time>2011-07-03T06:35:21.000Z</time>
      </trkpt>
      <trkpt lat="46.5463" lon="0.32845">
        <ele>124.7</ele>
        <time>2011-07-03T06:35:23.000Z</time>
      </trkpt>
      <trkpt lat="46.54618" lon="0.32825">
        <ele>123.9</ele>
        <time>2011-07-03T06:35:27.000Z</time>
      </trkpt>
      <trkpt lat="46.54615" lon="0.32819">
        <ele>123.6</ele>
        <time>2011-07-03T06:35:28.000Z</time>
      </trkpt>
      <trkpt lat="46.54612" lon="0.32814">
        <ele>123.3</ele>
        <time>2011-07-03T06:35:29.000Z</time>
      </trkpt>
      <trkpt lat="46.54608" lon="0.3281">
        <ele>123.1</ele>
        <time>2011-07-03T06:35:30.000Z</time>
      </trkpt>
      <trkpt lat="46.54605" lon="0.32806">
        <ele>123</ele>
        <time>2011-07-03T06:35:31.000Z</time>
      </trkpt>
      <trkpt lat="46.54602" lon="0.328">
        <ele>122.8</ele>
        <time>2011-07-03T06:35:32.000Z</time>
      </trkpt>
      <trkpt lat="46.54597" lon="0.32789">
        <ele>122.4</ele>
        <time>2011-07-03T06:35:34.000Z</time>
      </trkpt>
      <trkpt lat="46.54594" lon="0.32784">
        <ele>122.2</ele>
        <time>2011-07-03T06:35:35.000Z</time>
      </trkpt>
      <trkpt lat="46.54584" lon="0.3278">
        <ele>122.1</ele>
        <time>2011-07-03T06:35:38.000Z</time>
      </trkpt>
      <trkpt lat="46.54581" lon="0.32777">
        <ele>121.9</ele>
        <time>2011-07-03T06:35:39.000Z</time>
      </trkpt>
      <trkpt lat="46.54576" lon="0.32769">
        <ele>121.4</ele>
        <time>2011-07-03T06:35:41.000Z</time>
      </trkpt>
      <trkpt lat="46.54574" lon="0.32764">
        <ele>121.2</ele>
        <time>2011-07-03T06:35:42.000Z</time>
      </trkpt>
      <trkpt lat="46.54572" lon="0.3276">
        <ele>121</ele>
        <time>2011-07-03T06:35:43.000Z</time>
      </trkpt>
      <trkpt lat="46.54569" lon="0.32756">
        <ele>120.7</ele>
        <time>2011-07-03T06:35:44.000Z</time>
      </trkpt>
      <trkpt lat="46.54567" lon="0.32753">
        <ele>120.5</ele>
        <time>2011-07-03T06:35:45.000Z</time>
      </trkpt>
      <trkpt lat="46.54565" lon="0.32748">
        <ele>120.3</ele>
        <time>2011-07-03T06:35:46.000Z</time>
      </trkpt>
      <trkpt lat="46.54565" lon="0.32743">
        <ele>120.1</ele>
        <time>2011-07-03T06:35:47.000Z</time>
      </trkpt>
      <trkpt lat="46.54564" lon="0.3274">
        <ele>119.9</ele>
        <time>2011-07-03T06:35:48.000Z</time>
      </trkpt>
      <trkpt lat="46.54563" lon="0.32734">
        <ele>119.7</ele>
        <time>2011-07-03T06:35:49.000Z</time>
      </trkpt>
      <trkpt lat="46.5456" lon="0.3273">
        <ele>119.4</ele>
        <time>2011-07-03T06:35:50.000Z</time>
      </trkpt>
      <trkpt lat="46.54555" lon="0.32727">
        <ele>119.2</ele>
        <time>2011-07-03T06:35:51.000Z</time>
      </trkpt>
      <trkpt lat="46.5455" lon="0.32724">
        <ele>118.9</ele>
        <time>2011-07-03T06:35:52.000Z</time>
      </trkpt>
      <trkpt lat="46.54536" lon="0.32711">
        <ele>117.5</ele>
        <time>2011-07-03T06:35:55.000Z</time>
      </trkpt>
      <trkpt lat="46.54534" lon="0.32708">
        <ele>117.2</ele>
        <time>2011-07-03T06:35:56.000Z</time>
      </trkpt>
      <trkpt lat="46.54532" lon="0.32705">
        <ele>116.9</ele>
        <time>2011-07-03T06:35:57.000Z</time>
      </trkpt>
      <trkpt lat="46.5453" lon="0.32701">
        <ele>116.6</ele>
        <time>2011-07-03T06:35:58.000Z</time>
      </trkpt>
      <trkpt lat="46.54529" lon="0.32696">
        <ele>116.2</ele>
        <time>2011-07-03T06:35:59.000Z</time>
      </trkpt>
      <trkpt lat="46.54528" lon="0.32686">
        <ele>115.7</ele>
        <time>2011-07-03T06:36:01.000Z</time>
      </trkpt>
      <trkpt lat="46.54527" lon="0.32681">
        <ele>115.5</ele>
        <time>2011-07-03T06:36:02.000Z</time>
      </trkpt>
      <trkpt lat="46.54526" lon="0.32677">
        <ele>115.3</ele>
        <time>2011-07-03T06:36:03.000Z</time>
      </trkpt>
      <trkpt lat="46.54525" lon="0.32673">
        <ele>115.2</ele>
        <time>2011-07-03T06:36:04.000Z</time>
      </trkpt>
      <trkpt lat="46.54523" lon="0.32669">
        <ele>115</ele>
        <time>2011-07-03T06:36:05.000Z</time>
      </trkpt>
      <trkpt lat="46.54522" lon="0.32665">
        <ele>115.1</ele>
        <time>2011-07-03T06:36:06.000Z</time>
      </trkpt>
      <trkpt lat="46.54522" lon="0.32661">
        <ele>115.2</ele>
        <time>2011-07-03T06:36:07.000Z</time>
      </trkpt>
      <trkpt lat="46.54522" lon="0.32656">
        <ele>115.4</ele>
        <time>2011-07-03T06:36:08.000Z</time>
      </trkpt>
      <trkpt lat="46.54519" lon="0.32637">
        <ele>116.1</ele>
        <time>2011-07-03T06:36:12.000Z</time>
      </trkpt>
      <trkpt lat="46.54519" lon="0.32633">
        <ele>116.4</ele>
        <time>2011-07-03T06:36:13.000Z</time>
      </trkpt>
      <trkpt lat="46.54519" lon="0.32624">
        <ele>117.1</ele>
        <time>2011-07-03T06:36:15.000Z</time>
      </trkpt>
      <trkpt lat="46.54518" lon="0.32619">
        <ele>117.4</ele>
        <time>2011-07-03T06:36:16.000Z</time>
      </trkpt>
      <trkpt lat="46.54518" lon="0.32615">
        <ele>117.7</ele>
        <time>2011-07-03T06:36:17.000Z</time>
      </trkpt>
      <trkpt lat="46.54517" lon="0.3261">
        <ele>118</ele>
        <time>2011-07-03T06:36:18.000Z</time>
      </trkpt>
      <trkpt lat="46.54517" lon="0.32606">
        <ele>118.3</ele>
        <time>2011-07-03T06:36:19.000Z</time>
      </trkpt>
      <trkpt lat="46.54516" lon="0.32594">
        <ele>119</ele>
        <time>2011-07-03T06:36:22.000Z</time>
      </trkpt>
      <trkpt lat="46.54516" lon="0.32586">
        <ele>119.4</ele>
        <time>2011-07-03T06:36:24.000Z</time>
      </trkpt>
      <trkpt lat="46.54517" lon="0.32581">
        <ele>119.7</ele>
        <time>2011-07-03T06:36:25.000Z</time>
      </trkpt>
      <trkpt lat="46.54517" lon="0.32578">
        <ele>119.9</ele>
        <time>2011-07-03T06:36:26.000Z</time>
      </trkpt>
      <trkpt lat="46.54517" lon="0.32574">
        <ele>120.1</ele>
        <time>2011-07-03T06:36:27.000Z</time>
      </trkpt>
      <trkpt lat="46.54518" lon="0.32571">
        <ele>120.3</ele>
        <time>2011-07-03T06:36:28.000Z</time>
      </trkpt>
      <trkpt lat="46.54519" lon="0.32541">
        <ele>121.5</ele>
        <time>2011-07-03T06:36:34.000Z</time>
      </trkpt>
      <trkpt lat="46.54517" lon="0.32536">
        <ele>121.7</ele>
        <time>2011-07-03T06:36:35.000Z</time>
      </trkpt>
      <trkpt lat="46.54515" lon="0.32532">
        <ele>121.8</ele>
        <time>2011-07-03T06:36:36.000Z</time>
      </trkpt>
      <trkpt lat="46.54512" lon="0.32529">
        <ele>121.9</ele>
        <time>2011-07-03T06:36:37.000Z</time>
      </trkpt>
      <trkpt lat="46.54509" lon="0.32528">
        <ele>122</ele>
        <time>2011-07-03T06:36:38.000Z</time>
      </trkpt>
      <trkpt lat="46.54506" lon="0.32527">
        <ele>122</ele>
        <time>2011-07-03T06:36:39.000Z</time>
      </trkpt>
      <trkpt lat="46.54498" lon="0.32529">
        <ele>122</ele>
        <time>2011-07-03T06:36:42.000Z</time>
      </trkpt>
      <trkpt lat="46.54494" lon="0.32529">
        <ele>122</ele>
        <time>2011-07-03T06:36:44.000Z</time>
      </trkpt>
      <trkpt lat="46.54489" lon="0.32531">
        <ele>121.9</ele>
        <time>2011-07-03T06:36:47.000Z</time>
      </trkpt>
      <trkpt lat="46.54481" lon="0.32545">
        <ele>121.4</ele>
        <time>2011-07-03T06:36:52.000Z</time>
      </trkpt>
      <trkpt lat="46.5447" lon="0.3256">
        <ele>120.6</ele>
        <time>2011-07-03T06:36:57.000Z</time>
      </trkpt>
      <trkpt lat="46.54467" lon="0.32583">
        <ele>118.9</ele>
        <time>2011-07-03T06:37:01.000Z</time>
      </trkpt>
      <trkpt lat="46.54468" lon="0.32587">
        <ele>118.6</ele>
        <time>2011-07-03T06:37:02.000Z</time>
      </trkpt>
      <trkpt lat="46.54469" lon="0.32593">
        <ele>118.2</ele>
        <time>2011-07-03T06:37:03.000Z</time>
      </trkpt>
      <trkpt lat="46.5447" lon="0.326">
        <ele>117.7</ele>
        <time>2011-07-03T06:37:04.000Z</time>
      </trkpt>
      <trkpt lat="46.5447" lon="0.32605">
        <ele>117.3</ele>
        <time>2011-07-03T06:37:05.000Z</time>
      </trkpt>
      <trkpt lat="46.5447" lon="0.32611">
        <ele>116.9</ele>
        <time>2011-07-03T06:37:06.000Z</time>
      </trkpt>
      <trkpt lat="46.5447" lon="0.32615">
        <ele>116.6</ele>
        <time>2011-07-03T06:37:07.000Z</time>
      </trkpt>
      <trkpt lat="46.54471" lon="0.3262">
        <ele>116.3</ele>
        <time>2011-07-03T06:37:08.000Z</time>
      </trkpt>
      <trkpt lat="46.54471" lon="0.32625">
        <ele>115.9</ele>
        <time>2011-07-03T06:37:09.000Z</time>
      </trkpt>
      <trkpt lat="46.54471" lon="0.3263">
        <ele>115.6</ele>
        <time>2011-07-03T06:37:10.000Z</time>
      </trkpt>
      <trkpt lat="46.54471" lon="0.3264">
        <ele>114.9</ele>
        <time>2011-07-03T06:37:13.000Z</time>
      </trkpt>
      <trkpt lat="46.54473" lon="0.32642">
        <ele>114.8</ele>
        <time>2011-07-03T06:37:14.000Z</time>
      </trkpt>
      <trkpt lat="46.54474" lon="0.32646">
        <ele>114.6</ele>
        <time>2011-07-03T06:37:15.000Z</time>
      </trkpt>
      <trkpt lat="46.54475" lon="0.32649">
        <ele>114.4</ele>
        <time>2011-07-03T06:37:16.000Z</time>
      </trkpt>
      <trkpt lat="46.54476" lon="0.32658">
        <ele>113.9</ele>
        <time>2011-07-03T06:37:18.000Z</time>
      </trkpt>
      <trkpt lat="46.54478" lon="0.32669">
        <ele>113.4</ele>
        <time>2011-07-03T06:37:21.000Z</time>
      </trkpt>
      <trkpt lat="46.54473" lon="0.32674">
        <ele>113</ele>
        <time>2011-07-03T06:37:23.000Z</time>
      </trkpt>
      <trkpt lat="46.54465" lon="0.32678">
        <ele>112.5</ele>
        <time>2011-07-03T06:37:25.000Z</time>
      </trkpt>
      <trkpt lat="46.54456" lon="0.32683">
        <ele>111.8</ele>
        <time>2011-07-03T06:37:27.000Z</time>
      </trkpt>
      <trkpt lat="46.54444" lon="0.32688">
        <ele>111</ele>
        <time>2011-07-03T06:37:29.000Z</time>
      </trkpt>
      <trkpt lat="46.54439" lon="0.32689">
        <ele>110.6</ele>
        <time>2011-07-03T06:37:30.000Z</time>
      </trkpt>
      <trkpt lat="46.54433" lon="0.3269">
        <ele>110.2</ele>
        <time>2011-07-03T06:37:31.000Z</time>
      </trkpt>
      <trkpt lat="46.54427" lon="0.32691">
        <ele>109.8</ele>
        <time>2011-07-03T06:37:32.000Z</time>
      </trkpt>
      <trkpt lat="46.54421" lon="0.32692">
        <ele>109.4</ele>
        <time>2011-07-03T06:37:33.000Z</time>
      </trkpt>
      <trkpt lat="46.54409" lon="0.32692">
        <ele>108.6</ele>
        <time>2011-07-03T06:37:35.000Z</time>
      </trkpt>
      <trkpt lat="46.54405" lon="0.32691">
        <ele>108.3</ele>
        <time>2011-07-03T06:37:36.000Z</time>
      </trkpt>
      <trkpt lat="46.54399" lon="0.3269">
        <ele>108</ele>
        <time>2011-07-03T06:37:37.000Z</time>
      </trkpt>
      <trkpt lat="46.54394" lon="0.32689">
        <ele>107.7</ele>
        <time>2011-07-03T06:37:38.000Z</time>
      </trkpt>
      <trkpt lat="46.54389" lon="0.32689">
        <ele>107.4</ele>
        <time>2011-07-03T06:37:39.000Z</time>
      </trkpt>
      <trkpt lat="46.54384" lon="0.32689">
        <ele>106.5</ele>
        <time>2011-07-03T06:37:40.000Z</time>
      </trkpt>
      <trkpt lat="46.54379" lon="0.32689">
        <ele>105.8</ele>
        <time>2011-07-03T06:37:41.000Z</time>
      </trkpt>
      <trkpt lat="46.54375" lon="0.32689">
        <ele>105.1</ele>
        <time>2011-07-03T06:37:42.000Z</time>
      </trkpt>
      <trkpt lat="46.54371" lon="0.32689">
        <ele>104.4</ele>
        <time>2011-07-03T06:37:43.000Z</time>
      </trkpt>
      <trkpt lat="46.54367" lon="0.32688">
        <ele>104</ele>
        <time>2011-07-03T06:37:44.000Z</time>
      </trkpt>
      <trkpt lat="46.54364" lon="0.32687">
        <ele>103.5</ele>
        <time>2011-07-03T06:37:45.000Z</time>
      </trkpt>
      <trkpt lat="46.54361" lon="0.32687">
        <ele>102.9</ele>
        <time>2011-07-03T06:37:46.000Z</time>
      </trkpt>
      <trkpt lat="46.54358" lon="0.32688">
        <ele>102.4</ele>
        <time>2011-07-03T06:37:47.000Z</time>
      </trkpt>
      <trkpt lat="46.54356" lon="0.32689">
        <ele>101.7</ele>
        <time>2011-07-03T06:37:48.000Z</time>
      </trkpt>
      <trkpt lat="46.54353" lon="0.3269">
        <ele>101.1</ele>
        <time>2011-07-03T06:37:49.000Z</time>
      </trkpt>
      <trkpt lat="46.5435" lon="0.32691">
        <ele>100.2</ele>
        <time>2011-07-03T06:37:50.000Z</time>
      </trkpt>
      <trkpt lat="46.54346" lon="0.32693">
        <ele>99.2</ele>
        <time>2011-07-03T06:37:51.000Z</time>
      </trkpt>
      <trkpt lat="46.54343" lon="0.32694">
        <ele>98.3</ele>
        <time>2011-07-03T06:37:52.000Z</time>
      </trkpt>
      <trkpt lat="46.54339" lon="0.32695">
        <ele>97.2</ele>
        <time>2011-07-03T06:37:53.000Z</time>
      </trkpt>
      <trkpt lat="46.54335" lon="0.32698">
        <ele>95.9</ele>
        <time>2011-07-03T06:37:54.000Z</time>
      </trkpt>
      <trkpt lat="46.5433" lon="0.32701">
        <ele>94.8</ele>
        <time>2011-07-03T06:37:55.000Z</time>
      </trkpt>
      <trkpt lat="46.54326" lon="0.32704">
        <ele>93.8</ele>
        <time>2011-07-03T06:37:56.000Z</time>
      </trkpt>
      <trkpt lat="46.54321" lon="0.32706">
        <ele>92.4</ele>
        <time>2011-07-03T06:37:57.000Z</time>
      </trkpt>
      <trkpt lat="46.54316" lon="0.32708">
        <ele>90.8</ele>
        <time>2011-07-03T06:37:58.000Z</time>
      </trkpt>
      <trkpt lat="46.54311" lon="0.32711">
        <ele>88.8</ele>
        <time>2011-07-03T06:37:59.000Z</time>
      </trkpt>
      <trkpt lat="46.54306" lon="0.32715">
        <ele>86</ele>
        <time>2011-07-03T06:38:00.000Z</time>
      </trkpt>
      <trkpt lat="46.54301" lon="0.32718">
        <ele>83.7</ele>
        <time>2011-07-03T06:38:01.000Z</time>
      </trkpt>
      <trkpt lat="46.54295" lon="0.32719">
        <ele>82.3</ele>
        <time>2011-07-03T06:38:02.000Z</time>
      </trkpt>
      <trkpt lat="46.54288" lon="0.32718">
        <ele>81.5</ele>
        <time>2011-07-03T06:38:03.000Z</time>
      </trkpt>
      <trkpt lat="46.54281" lon="0.32717">
        <ele>80.9</ele>
        <time>2011-07-03T06:38:04.000Z</time>
      </trkpt>
      <trkpt lat="46.54275" lon="0.32716">
        <ele>80.5</ele>
        <time>2011-07-03T06:38:05.000Z</time>
      </trkpt>
      <trkpt lat="46.5427" lon="0.32715">
        <ele>80.4</ele>
        <time>2011-07-03T06:38:06.000Z</time>
      </trkpt>
      <trkpt lat="46.54265" lon="0.32713">
        <ele>80.2</ele>
        <time>2011-07-03T06:38:07.000Z</time>
      </trkpt>
      <trkpt lat="46.5426" lon="0.32713">
        <ele>79.8</ele>
        <time>2011-07-03T06:38:08.000Z</time>
      </trkpt>
      <trkpt lat="46.54254" lon="0.32711">
        <ele>79.6</ele>
        <time>2011-07-03T06:38:09.000Z</time>
      </trkpt>
      <trkpt lat="46.5425" lon="0.32709">
        <ele>79.8</ele>
        <time>2011-07-03T06:38:10.000Z</time>
      </trkpt>
      <trkpt lat="46.54246" lon="0.32707">
        <ele>80.2</ele>
        <time>2011-07-03T06:38:11.000Z</time>
      </trkpt>
      <trkpt lat="46.54241" lon="0.32705">
        <ele>80.1</ele>
        <time>2011-07-03T06:38:13.000Z</time>
      </trkpt>
      <trkpt lat="46.54235" lon="0.32705">
        <ele>79.5</ele>
        <time>2011-07-03T06:38:15.000Z</time>
      </trkpt>
      <trkpt lat="46.54232" lon="0.32704">
        <ele>79.2</ele>
        <time>2011-07-03T06:38:16.000Z</time>
      </trkpt>
      <trkpt lat="46.5422" lon="0.32702">
        <ele>77.9</ele>
        <time>2011-07-03T06:38:20.000Z</time>
      </trkpt>
      <trkpt lat="46.54214" lon="0.32705">
        <ele>77.1</ele>
        <time>2011-07-03T06:38:23.000Z</time>
      </trkpt>
      <trkpt lat="46.54212" lon="0.32706">
        <ele>77</ele>
        <time>2011-07-03T06:38:24.000Z</time>
      </trkpt>
      <trkpt lat="46.54208" lon="0.32713">
        <ele>76.1</ele>
        <time>2011-07-03T06:38:30.000Z</time>
      </trkpt>
      <trkpt lat="46.54208" lon="0.32716">
        <ele>76</ele>
        <time>2011-07-03T06:38:40.000Z</time>
      </trkpt>
      <trkpt lat="46.54208" lon="0.32716">
        <ele>76</ele>
        <time>2011-07-03T06:38:51.000Z</time>
      </trkpt>
      <trkpt lat="46.54207" lon="0.32719">
        <ele>75.7</ele>
        <time>2011-07-03T06:38:54.000Z</time>
      </trkpt>
      <trkpt lat="46.54207" lon="0.32725">
        <ele>75.4</ele>
        <time>2011-07-03T06:38:56.000Z</time>
      </trkpt>
      <trkpt lat="46.54206" lon="0.32737">
        <ele>75.2</ele>
        <time>2011-07-03T06:38:59.000Z</time>
      </trkpt>
      <trkpt lat="46.54204" lon="0.32742">
        <ele>75.1</ele>
        <time>2011-07-03T06:39:00.000Z</time>
      </trkpt>
      <trkpt lat="46.54195" lon="0.32758">
        <ele>74.7</ele>
        <time>2011-07-03T06:39:04.000Z</time>
      </trkpt>
      <trkpt lat="46.54193" lon="0.3276">
        <ele>74.7</ele>
        <time>2011-07-03T06:39:05.000Z</time>
      </trkpt>
      <trkpt lat="46.54189" lon="0.32763">
        <ele>74.8</ele>
        <time>2011-07-03T06:39:06.000Z</time>
      </trkpt>
      <trkpt lat="46.54186" lon="0.32765">
        <ele>74.9</ele>
        <time>2011-07-03T06:39:07.000Z</time>
      </trkpt>
      <trkpt lat="46.54182" lon="0.32768">
        <ele>75.1</ele>
        <time>2011-07-03T06:39:08.000Z</time>
      </trkpt>
      <trkpt lat="46.54178" lon="0.3277">
        <ele>75.3</ele>
        <time>2011-07-03T06:39:09.000Z</time>
      </trkpt>
      <trkpt lat="46.54175" lon="0.32772">
        <ele>75.5</ele>
        <time>2011-07-03T06:39:10.000Z</time>
      </trkpt>
      <trkpt lat="46.54155" lon="0.3278">
        <ele>77</ele>
        <time>2011-07-03T06:39:15.000Z</time>
      </trkpt>
      <trkpt lat="46.54139" lon="0.32788">
        <ele>77.1</ele>
        <time>2011-07-03T06:39:19.000Z</time>
      </trkpt>
      <trkpt lat="46.54128" lon="0.32794">
        <ele>77.7</ele>
        <time>2011-07-03T06:39:23.000Z</time>
      </trkpt>
      <trkpt lat="46.54109" lon="0.32807">
        <ele>78.6</ele>
        <time>2011-07-03T06:39:29.000Z</time>
      </trkpt>
      <trkpt lat="46.54095" lon="0.32822">
        <ele>79.5</ele>
        <time>2011-07-03T06:39:34.000Z</time>
      </trkpt>
      <trkpt lat="46.54093" lon="0.32826">
        <ele>78.9</ele>
        <time>2011-07-03T06:39:35.000Z</time>
      </trkpt>
      <trkpt lat="46.54092" lon="0.3283">
        <ele>78.2</ele>
        <time>2011-07-03T06:39:36.000Z</time>
      </trkpt>
      <trkpt lat="46.54091" lon="0.32833">
        <ele>77.8</ele>
        <time>2011-07-03T06:39:37.000Z</time>
      </trkpt>
      <trkpt lat="46.54089" lon="0.32836">
        <ele>77.7</ele>
        <time>2011-07-03T06:39:38.000Z</time>
      </trkpt>
      <trkpt lat="46.54088" lon="0.32839">
        <ele>77.6</ele>
        <time>2011-07-03T06:39:39.000Z</time>
      </trkpt>
      <trkpt lat="46.54084" lon="0.32842">
        <ele>77.7</ele>
        <time>2011-07-03T06:39:40.000Z</time>
      </trkpt>
      <trkpt lat="46.54076" lon="0.3285">
        <ele>77.4</ele>
        <time>2011-07-03T06:39:43.000Z</time>
      </trkpt>
      <trkpt lat="46.54062" lon="0.32855">
        <ele>78</ele>
        <time>2011-07-03T06:39:46.000Z</time>
      </trkpt>
      <trkpt lat="46.54053" lon="0.32858">
        <ele>77.8</ele>
        <time>2011-07-03T06:39:48.000Z</time>
      </trkpt>
      <trkpt lat="46.54044" lon="0.3286">
        <ele>77.6</ele>
        <time>2011-07-03T06:39:50.000Z</time>
      </trkpt>
      <trkpt lat="46.54035" lon="0.32865">
        <ele>77.3</ele>
        <time>2011-07-03T06:39:52.000Z</time>
      </trkpt>
      <trkpt lat="46.5403" lon="0.32868">
        <ele>76.9</ele>
        <time>2011-07-03T06:39:53.000Z</time>
      </trkpt>
      <trkpt lat="46.54017" lon="0.32878">
        <ele>77.2</ele>
        <time>2011-07-03T06:39:56.000Z</time>
      </trkpt>
      <trkpt lat="46.54008" lon="0.32885">
        <ele>76.6</ele>
        <time>2011-07-03T06:39:58.000Z</time>
      </trkpt>
      <trkpt lat="46.54" lon="0.32891">
        <ele>75.8</ele>
        <time>2011-07-03T06:40:00.000Z</time>
      </trkpt>
      <trkpt lat="46.53988" lon="0.32904">
        <ele>76.6</ele>
        <time>2011-07-03T06:40:03.000Z</time>
      </trkpt>
      <trkpt lat="46.5398" lon="0.32909">
        <ele>76.4</ele>
        <time>2011-07-03T06:40:05.000Z</time>
      </trkpt>
      <trkpt lat="46.53973" lon="0.32914">
        <ele>75.8</ele>
        <time>2011-07-03T06:40:07.000Z</time>
      </trkpt>
      <trkpt lat="46.53954" lon="0.32928">
        <ele>78.3</ele>
        <time>2011-07-03T06:40:13.000Z</time>
      </trkpt>
      <trkpt lat="46.53951" lon="0.32931">
        <ele>78.4</ele>
        <time>2011-07-03T06:40:14.000Z</time>
      </trkpt>
      <trkpt lat="46.53942" lon="0.32947">
        <ele>76.9</ele>
        <time>2011-07-03T06:40:19.000Z</time>
      </trkpt>
      <trkpt lat="46.53931" lon="0.32969">
        <ele>77.1</ele>
        <time>2011-07-03T06:40:25.000Z</time>
      </trkpt>
      <trkpt lat="46.53921" lon="0.32992">
        <ele>75.6</ele>
        <time>2011-07-03T06:40:31.000Z</time>
      </trkpt>
      <trkpt lat="46.5392" lon="0.32996">
        <ele>75.2</ele>
        <time>2011-07-03T06:40:32.000Z</time>
      </trkpt>
      <trkpt lat="46.53908" lon="0.3303">
        <ele>75.1</ele>
        <time>2011-07-03T06:40:38.000Z</time>
      </trkpt>
      <trkpt lat="46.53902" lon="0.33049">
        <ele>74.9</ele>
        <time>2011-07-03T06:40:42.000Z</time>
      </trkpt>
      <trkpt lat="46.53896" lon="0.33062">
        <ele>74.8</ele>
        <time>2011-07-03T06:40:47.000Z</time>
      </trkpt>
      <trkpt lat="46.53894" lon="0.33064">
        <ele>74.9</ele>
        <time>2011-07-03T06:40:48.000Z</time>
      </trkpt>
      <trkpt lat="46.53892" lon="0.33065">
        <ele>74.9</ele>
        <time>2011-07-03T06:40:49.000Z</time>
      </trkpt>
      <trkpt lat="46.53887" lon="0.33068">
        <ele>75.7</ele>
        <time>2011-07-03T06:40:52.000Z</time>
      </trkpt>
      <trkpt lat="46.53885" lon="0.3307">
        <ele>76.1</ele>
        <time>2011-07-03T06:40:53.000Z</time>
      </trkpt>
      <trkpt lat="46.53884" lon="0.33072">
        <ele>76.6</ele>
        <time>2011-07-03T06:40:54.000Z</time>
      </trkpt>
      <trkpt lat="46.53882" lon="0.33074">
        <ele>77</ele>
        <time>2011-07-03T06:40:55.000Z</time>
      </trkpt>
      <trkpt lat="46.53875" lon="0.33084">
        <ele>78.4</ele>
        <time>2011-07-03T06:40:58.000Z</time>
      </trkpt>
      <trkpt lat="46.53873" lon="0.33086">
        <ele>78.8</ele>
        <time>2011-07-03T06:40:59.000Z</time>
      </trkpt>
      <trkpt lat="46.5387" lon="0.33089">
        <ele>79.2</ele>
        <time>2011-07-03T06:41:00.000Z</time>
      </trkpt>
      <trkpt lat="46.53868" lon="0.33092">
        <ele>79.6</ele>
        <time>2011-07-03T06:41:01.000Z</time>
      </trkpt>
      <trkpt lat="46.53866" lon="0.33094">
        <ele>79.8</ele>
        <time>2011-07-03T06:41:02.000Z</time>
      </trkpt>
      <trkpt lat="46.53864" lon="0.33095">
        <ele>80.1</ele>
        <time>2011-07-03T06:41:03.000Z</time>
      </trkpt>
      <trkpt lat="46.53862" lon="0.33099">
        <ele>80.2</ele>
        <time>2011-07-03T06:41:05.000Z</time>
      </trkpt>
      <trkpt lat="46.53858" lon="0.33106">
        <ele>80.8</ele>
        <time>2011-07-03T06:41:08.000Z</time>
      </trkpt>
      <trkpt lat="46.53857" lon="0.33108">
        <ele>80.9</ele>
        <time>2011-07-03T06:41:09.000Z</time>
      </trkpt>
      <trkpt lat="46.53856" lon="0.3311">
        <ele>81.1</ele>
        <time>2011-07-03T06:41:10.000Z</time>
      </trkpt>
      <trkpt lat="46.53854" lon="0.33113">
        <ele>81.3</ele>
        <time>2011-07-03T06:41:11.000Z</time>
      </trkpt>
      <trkpt lat="46.53854" lon="0.33114">
        <ele>81.5</ele>
        <time>2011-07-03T06:41:12.000Z</time>
      </trkpt>
      <trkpt lat="46.5385" lon="0.33119">
        <ele>82.7</ele>
        <time>2011-07-03T06:41:16.000Z</time>
      </trkpt>
      <trkpt lat="46.53849" lon="0.33119">
        <ele>82.9</ele>
        <time>2011-07-03T06:41:17.000Z</time>
      </trkpt>
      <trkpt lat="46.53848" lon="0.33119">
        <ele>83.1</ele>
        <time>2011-07-03T06:41:18.000Z</time>
      </trkpt>
      <trkpt lat="46.53847" lon="0.3312">
        <ele>83.3</ele>
        <time>2011-07-03T06:41:19.000Z</time>
      </trkpt>
      <trkpt lat="46.53847" lon="0.3312">
        <ele>83.4</ele>
        <time>2011-07-03T06:41:20.000Z</time>
      </trkpt>
      <trkpt lat="46.53846" lon="0.33121">
        <ele>83.8</ele>
        <time>2011-07-03T06:41:21.000Z</time>
      </trkpt>
      <trkpt lat="46.53845" lon="0.33122">
        <ele>84</ele>
        <time>2011-07-03T06:41:22.000Z</time>
      </trkpt>
      <trkpt lat="46.53844" lon="0.33123">
        <ele>84.3</ele>
        <time>2011-07-03T06:41:23.000Z</time>
      </trkpt>
      <trkpt lat="46.53843" lon="0.33123">
        <ele>84.5</ele>
        <time>2011-07-03T06:41:24.000Z</time>
      </trkpt>
      <trkpt lat="46.53843" lon="0.33123">
        <ele>84.5</ele>
        <time>2011-07-03T06:41:25.000Z</time>
      </trkpt>
      <trkpt lat="46.53842" lon="0.33124">
        <ele>84.7</ele>
        <time>2011-07-03T06:41:27.000Z</time>
      </trkpt>
      <trkpt lat="46.53841" lon="0.33126">
        <ele>85.1</ele>
        <time>2011-07-03T06:41:30.000Z</time>
      </trkpt>
      <trkpt lat="46.53839" lon="0.33128">
        <ele>85.3</ele>
        <time>2011-07-03T06:41:31.000Z</time>
      </trkpt>
      <trkpt lat="46.53838" lon="0.33129">
        <ele>85.5</ele>
        <time>2011-07-03T06:41:32.000Z</time>
      </trkpt>
      <trkpt lat="46.53837" lon="0.33131">
        <ele>85.7</ele>
        <time>2011-07-03T06:41:33.000Z</time>
      </trkpt>
      <trkpt lat="46.53835" lon="0.33133">
        <ele>86</ele>
        <time>2011-07-03T06:41:34.000Z</time>
      </trkpt>
      <trkpt lat="46.53834" lon="0.33135">
        <ele>86.2</ele>
        <time>2011-07-03T06:41:35.000Z</time>
      </trkpt>
      <trkpt lat="46.5383" lon="0.3314">
        <ele>87.3</ele>
        <time>2011-07-03T06:41:37.000Z</time>
      </trkpt>
      <trkpt lat="46.53826" lon="0.33145">
        <ele>88.6</ele>
        <time>2011-07-03T06:41:42.000Z</time>
      </trkpt>
      <trkpt lat="46.53825" lon="0.33147">
        <ele>88.7</ele>
        <time>2011-07-03T06:41:43.000Z</time>
      </trkpt>
      <trkpt lat="46.53825" lon="0.33149">
        <ele>88.7</ele>
        <time>2011-07-03T06:41:44.000Z</time>
      </trkpt>
      <trkpt lat="46.53824" lon="0.33151">
        <ele>88.9</ele>
        <time>2011-07-03T06:41:45.000Z</time>
      </trkpt>
      <trkpt lat="46.53821" lon="0.33158">
        <ele>89.5</ele>
        <time>2011-07-03T06:41:48.000Z</time>
      </trkpt>
      <trkpt lat="46.53819" lon="0.33159">
        <ele>89.8</ele>
        <time>2011-07-03T06:41:50.000Z</time>
      </trkpt>
      <trkpt lat="46.53819" lon="0.3316">
        <ele>89.9</ele>
        <time>2011-07-03T06:41:51.000Z</time>
      </trkpt>
      <trkpt lat="46.53818" lon="0.33161">
        <ele>90</ele>
        <time>2011-07-03T06:41:52.000Z</time>
      </trkpt>
      <trkpt lat="46.53818" lon="0.33163">
        <ele>90.1</ele>
        <time>2011-07-03T06:41:53.000Z</time>
      </trkpt>
      <trkpt lat="46.53818" lon="0.33163">
        <ele>90.1</ele>
        <time>2011-07-03T06:41:54.000Z</time>
      </trkpt>
      <trkpt lat="46.53815" lon="0.33166">
        <ele>90.9</ele>
        <time>2011-07-03T06:41:56.000Z</time>
      </trkpt>
      <trkpt lat="46.53813" lon="0.33167">
        <ele>91.1</ele>
        <time>2011-07-03T06:41:57.000Z</time>
      </trkpt>
      <trkpt lat="46.53813" lon="0.33169">
        <ele>91.2</ele>
        <time>2011-07-03T06:41:58.000Z</time>
      </trkpt>
      <trkpt lat="46.53811" lon="0.33173">
        <ele>91.2</ele>
        <time>2011-07-03T06:41:59.000Z</time>
      </trkpt>
      <trkpt lat="46.5381" lon="0.33175">
        <ele>91.3</ele>
        <time>2011-07-03T06:42:00.000Z</time>
      </trkpt>
      <trkpt lat="46.53808" lon="0.33178">
        <ele>91.5</ele>
        <time>2011-07-03T06:42:04.000Z</time>
      </trkpt>
      <trkpt lat="46.53805" lon="0.33179">
        <ele>92.3</ele>
        <time>2011-07-03T06:42:07.000Z</time>
      </trkpt>
      <trkpt lat="46.53804" lon="0.3318">
        <ele>92.7</ele>
        <time>2011-07-03T06:42:08.000Z</time>
      </trkpt>
      <trkpt lat="46.53802" lon="0.3318">
        <ele>93.3</ele>
        <time>2011-07-03T06:42:09.000Z</time>
      </trkpt>
      <trkpt lat="46.53801" lon="0.33181">
        <ele>93.6</ele>
        <time>2011-07-03T06:42:10.000Z</time>
      </trkpt>
      <trkpt lat="46.53796" lon="0.33182">
        <ele>95.1</ele>
        <time>2011-07-03T06:42:14.000Z</time>
      </trkpt>
      <trkpt lat="46.53796" lon="0.33182">
        <ele>95.3</ele>
        <time>2011-07-03T06:42:15.000Z</time>
      </trkpt>
      <trkpt lat="46.53795" lon="0.33182">
        <ele>95.6</ele>
        <time>2011-07-03T06:42:16.000Z</time>
      </trkpt>
      <trkpt lat="46.53794" lon="0.33182">
        <ele>95.8</ele>
        <time>2011-07-03T06:42:17.000Z</time>
      </trkpt>
      <trkpt lat="46.53794" lon="0.33182">
        <ele>96</ele>
        <time>2011-07-03T06:42:18.000Z</time>
      </trkpt>
      <trkpt lat="46.53788" lon="0.33185">
        <ele>97.4</ele>
        <time>2011-07-03T06:42:22.000Z</time>
      </trkpt>
      <trkpt lat="46.53787" lon="0.33185">
        <ele>97.7</ele>
        <time>2011-07-03T06:42:23.000Z</time>
      </trkpt>
      <trkpt lat="46.53786" lon="0.33186">
        <ele>97.9</ele>
        <time>2011-07-03T06:42:24.000Z</time>
      </trkpt>
      <trkpt lat="46.53785" lon="0.33186">
        <ele>98.2</ele>
        <time>2011-07-03T06:42:25.000Z</time>
      </trkpt>
      <trkpt lat="46.53785" lon="0.33185">
        <ele>98.6</ele>
        <time>2011-07-03T06:42:26.000Z</time>
      </trkpt>
      <trkpt lat="46.53783" lon="0.33185">
        <ele>99.2</ele>
        <time>2011-07-03T06:42:30.000Z</time>
      </trkpt>
      <trkpt lat="46.53783" lon="0.33185">
        <ele>99.2</ele>
        <time>2011-07-03T06:42:31.000Z</time>
      </trkpt>
      <trkpt lat="46.53782" lon="0.33185">
        <ele>99.4</ele>
        <time>2011-07-03T06:42:32.000Z</time>
      </trkpt>
      <trkpt lat="46.53781" lon="0.33185">
        <ele>100</ele>
        <time>2011-07-03T06:42:33.000Z</time>
      </trkpt>
      <trkpt lat="46.53779" lon="0.33184">
        <ele>100.9</ele>
        <time>2011-07-03T06:42:34.000Z</time>
      </trkpt>
      <trkpt lat="46.53778" lon="0.33184">
        <ele>101.3</ele>
        <time>2011-07-03T06:42:35.000Z</time>
      </trkpt>
      <trkpt lat="46.53776" lon="0.33184">
        <ele>101.7</ele>
        <time>2011-07-03T06:42:36.000Z</time>
      </trkpt>
      <trkpt lat="46.53774" lon="0.33183">
        <ele>102.2</ele>
        <time>2011-07-03T06:42:37.000Z</time>
      </trkpt>
      <trkpt lat="46.53772" lon="0.33183">
        <ele>102.6</ele>
        <time>2011-07-03T06:42:38.000Z</time>
      </trkpt>
      <trkpt lat="46.53771" lon="0.33181">
        <ele>103</ele>
        <time>2011-07-03T06:42:39.000Z</time>
      </trkpt>
      <trkpt lat="46.53769" lon="0.33181">
        <ele>103.5</ele>
        <time>2011-07-03T06:42:40.000Z</time>
      </trkpt>
      <trkpt lat="46.53759" lon="0.33172">
        <ele>106.3</ele>
        <time>2011-07-03T06:42:46.000Z</time>
      </trkpt>
      <trkpt lat="46.53758" lon="0.3317">
        <ele>106.8</ele>
        <time>2011-07-03T06:42:47.000Z</time>
      </trkpt>
      <trkpt lat="46.53756" lon="0.33169">
        <ele>107.1</ele>
        <time>2011-07-03T06:42:48.000Z</time>
      </trkpt>
      <trkpt lat="46.53755" lon="0.33169">
        <ele>107.3</ele>
        <time>2011-07-03T06:42:49.000Z</time>
      </trkpt>
      <trkpt lat="46.53754" lon="0.33168">
        <ele>107.4</ele>
        <time>2011-07-03T06:42:50.000Z</time>
      </trkpt>
      <trkpt lat="46.53753" lon="0.33168">
        <ele>107.6</ele>
        <time>2011-07-03T06:42:51.000Z</time>
      </trkpt>
      <trkpt lat="46.53752" lon="0.33167">
        <ele>107.8</ele>
        <time>2011-07-03T06:42:52.000Z</time>
      </trkpt>
      <trkpt lat="46.53751" lon="0.33164">
        <ele>108.1</ele>
        <time>2011-07-03T06:42:58.000Z</time>
      </trkpt>
      <trkpt lat="46.53754" lon="0.33156">
        <ele>108.4</ele>
        <time>2011-07-03T06:43:03.000Z</time>
      </trkpt>
      <trkpt lat="46.53755" lon="0.33154">
        <ele>108.5</ele>
        <time>2011-07-03T06:43:04.000Z</time>
      </trkpt>
      <trkpt lat="46.53758" lon="0.33141">
        <ele>109.2</ele>
        <time>2011-07-03T06:43:10.000Z</time>
      </trkpt>
      <trkpt lat="46.53759" lon="0.3314">
        <ele>109.3</ele>
        <time>2011-07-03T06:43:11.000Z</time>
      </trkpt>
      <trkpt lat="46.5376" lon="0.33135">
        <ele>109.6</ele>
        <time>2011-07-03T06:43:14.000Z</time>
      </trkpt>
      <trkpt lat="46.53757" lon="0.33136">
        <ele>109.7</ele>
        <time>2011-07-03T06:43:16.000Z</time>
      </trkpt>
      <trkpt lat="46.53756" lon="0.33138">
        <ele>109.6</ele>
        <time>2011-07-03T06:43:18.000Z</time>
      </trkpt>
      <trkpt lat="46.53755" lon="0.33143">
        <ele>109.3</ele>
        <time>2011-07-03T06:43:22.000Z</time>
      </trkpt>
      <trkpt lat="46.5375" lon="0.3315">
        <ele>109.2</ele>
        <time>2011-07-03T06:43:26.000Z</time>
      </trkpt>
      <trkpt lat="46.53747" lon="0.33155">
        <ele>109.1</ele>
        <time>2011-07-03T06:43:29.000Z</time>
      </trkpt>
      <trkpt lat="46.53744" lon="0.33158">
        <ele>109.2</ele>
        <time>2011-07-03T06:43:32.000Z</time>
      </trkpt>
      <trkpt lat="46.53743" lon="0.33161">
        <ele>109.2</ele>
        <time>2011-07-03T06:43:34.000Z</time>
      </trkpt>
      <trkpt lat="46.53745" lon="0.33164">
        <ele>108.7</ele>
        <time>2011-07-03T06:43:38.000Z</time>
      </trkpt>
      <trkpt lat="46.53746" lon="0.33162">
        <ele>108.7</ele>
        <time>2011-07-03T06:43:40.000Z</time>
      </trkpt>
      <trkpt lat="46.53749" lon="0.33158">
        <ele>108.7</ele>
        <time>2011-07-03T06:43:44.000Z</time>
      </trkpt>
      <trkpt lat="46.5375" lon="0.33157">
        <ele>108.8</ele>
        <time>2011-07-03T06:43:45.000Z</time>
      </trkpt>
      <trkpt lat="46.5375" lon="0.33155">
        <ele>108.8</ele>
        <time>2011-07-03T06:43:52.000Z</time>
      </trkpt>
      <trkpt lat="46.5375" lon="0.33155">
        <ele>108.8</ele>
        <time>2011-07-03T06:43:55.000Z</time>
      </trkpt>
      <trkpt lat="46.5375" lon="0.33155">
        <ele>108.8</ele>
        <time>2011-07-03T06:43:56.000Z</time>
      </trkpt>
      <trkpt lat="46.5375" lon="0.33155">
        <ele>108.8</ele>
        <time>2011-07-03T06:43:57.000Z</time>
      </trkpt>
      <trkpt lat="46.5375" lon="0.33155">
        <ele>108.8</ele>
        <time>2011-07-03T06:43:58.000Z</time>
      </trkpt>
      <trkpt lat="46.5375" lon="0.33155">
        <ele>108.8</ele>
        <time>2011-07-03T06:43:59.000Z</time>
      </trkpt>
      <trkpt lat="46.5375" lon="0.33155">
        <ele>108.8</ele>
        <time>2011-07-03T06:44:04.000Z</time>
      </trkpt>
      <trkpt lat="46.5375" lon="0.33155">
        <ele>108.8</ele>
        <time>2011-07-03T06:44:07.000Z</time>
      </trkpt>
      <trkpt lat="46.5375" lon="0.33155">
        <ele>108.8</ele>
        <time>2011-07-03T06:44:15.000Z</time>
      </trkpt>
      <trkpt lat="46.5375" lon="0.33155">
        <ele>108.8</ele>
        <time>2011-07-03T06:44:18.000Z</time>
      </trkpt>
      <trkpt lat="46.5375" lon="0.33155">
        <ele>108.8</ele>
        <time>2011-07-03T06:44:23.000Z</time>
      </trkpt>
      <trkpt lat="46.5375" lon="0.33155">
        <ele>108.8</ele>
        <time>2011-07-03T06:44:31.000Z</time>
      </trkpt>
      <trkpt lat="46.5375" lon="0.33155">
        <ele>108.8</ele>
        <time>2011-07-03T06:44:36.000Z</time>
      </trkpt>
      <trkpt lat="46.5375" lon="0.33155">
        <ele>108.8</ele>
        <time>2011-07-03T06:44:43.000Z</time>
      </trkpt>
      <trkpt lat="46.5375" lon="0.33155">
        <ele>108.8</ele>
        <time>2011-07-03T06:44:50.000Z</time>
      </trkpt>
      <trkpt lat="46.5375" lon="0.33155">
        <ele>108.8</ele>
        <time>2011-07-03T06:44:53.000Z</time>
      </trkpt>
      <trkpt lat="46.5375" lon="0.33155">
        <ele>108.8</ele>
        <time>2011-07-03T06:45:05.000Z</time>
      </trkpt>
      <trkpt lat="46.5375" lon="0.33155">
        <ele>108.8</ele>
        <time>2011-07-03T06:45:13.000Z</time>
      </trkpt>
      <trkpt lat="46.5375" lon="0.33155">
        <ele>108.8</ele>
        <time>2011-07-03T06:45:17.000Z</time>
      </trkpt>
      <trkpt lat="46.5375" lon="0.33155">
        <ele>108.8</ele>
        <time>2011-07-03T06:45:21.000Z</time>
      </trkpt>
      <trkpt lat="46.5375" lon="0.33155">
        <ele>108.8</ele>
        <time>2011-07-03T06:45:28.000Z</time>
      </trkpt>
      <trkpt lat="46.5375" lon="0.33155">
        <ele>108.8</ele>
        <time>2011-07-03T06:45:31.000Z</time>
      </trkpt>
      <trkpt lat="46.5375" lon="0.33155">
        <ele>108.8</ele>
        <time>2011-07-03T06:45:45.000Z</time>
      </trkpt>
      <trkpt lat="46.5375" lon="0.33155">
        <ele>108.9</ele>
        <time>2011-07-03T06:45:53.000Z</time>
      </trkpt>
      <trkpt lat="46.5375" lon="0.33155">
        <ele>108.8</ele>
        <time>2011-07-03T06:45:59.000Z</time>
      </trkpt>
      <trkpt lat="46.53751" lon="0.33153">
        <ele>108.9</ele>
        <time>2011-07-03T06:46:02.000Z</time>
      </trkpt>
      <trkpt lat="46.53752" lon="0.33151">
        <ele>108.9</ele>
        <time>2011-07-03T06:46:03.000Z</time>
      </trkpt>
      <trkpt lat="46.53755" lon="0.33144">
        <ele>109.2</ele>
        <time>2011-07-03T06:46:06.000Z</time>
      </trkpt>
      <trkpt lat="46.53757" lon="0.33142">
        <ele>109.3</ele>
        <time>2011-07-03T06:46:07.000Z</time>
      </trkpt>
      <trkpt lat="46.53757" lon="0.3314">
        <ele>109.4</ele>
        <time>2011-07-03T06:46:08.000Z</time>
      </trkpt>
      <trkpt lat="46.53766" lon="0.33127">
        <ele>109.4</ele>
        <time>2011-07-03T06:46:13.000Z</time>
      </trkpt>
      <trkpt lat="46.53775" lon="0.33112">
        <ele>109.3</ele>
        <time>2011-07-03T06:46:18.000Z</time>
      </trkpt>
      <trkpt lat="46.53781" lon="0.33096">
        <ele>109.4</ele>
        <time>2011-07-03T06:46:22.000Z</time>
      </trkpt>
      <trkpt lat="46.53793" lon="0.33076">
        <ele>108.9</ele>
        <time>2011-07-03T06:46:27.000Z</time>
      </trkpt>
      <trkpt lat="46.53804" lon="0.33053">
        <ele>107.3</ele>
        <time>2011-07-03T06:46:32.000Z</time>
      </trkpt>
      <trkpt lat="46.53816" lon="0.33029">
        <ele>106.1</ele>
        <time>2011-07-03T06:46:37.000Z</time>
      </trkpt>
      <trkpt lat="46.53819" lon="0.33025">
        <ele>105.9</ele>
        <time>2011-07-03T06:46:38.000Z</time>
      </trkpt>
      <trkpt lat="46.53823" lon="0.33022">
        <ele>105.5</ele>
        <time>2011-07-03T06:46:39.000Z</time>
      </trkpt>
      <trkpt lat="46.53825" lon="0.33021">
        <ele>105.2</ele>
        <time>2011-07-03T06:46:40.000Z</time>
      </trkpt>
      <trkpt lat="46.53828" lon="0.3302">
        <ele>104.9</ele>
        <time>2011-07-03T06:46:41.000Z</time>
      </trkpt>
      <trkpt lat="46.53831" lon="0.33019">
        <ele>104.6</ele>
        <time>2011-07-03T06:46:42.000Z</time>
      </trkpt>
      <trkpt lat="46.53844" lon="0.33015">
        <ele>102</ele>
        <time>2011-07-03T06:46:46.000Z</time>
      </trkpt>
      <trkpt lat="46.53854" lon="0.33004">
        <ele>101.6</ele>
        <time>2011-07-03T06:46:50.000Z</time>
      </trkpt>
      <trkpt lat="46.53855" lon="0.33">
        <ele>102.3</ele>
        <time>2011-07-03T06:46:51.000Z</time>
      </trkpt>
      <trkpt lat="46.53858" lon="0.32989">
        <ele>104.3</ele>
        <time>2011-07-03T06:46:54.000Z</time>
      </trkpt>
      <trkpt lat="46.53861" lon="0.32985">
        <ele>104.9</ele>
        <time>2011-07-03T06:46:55.000Z</time>
      </trkpt>
      <trkpt lat="46.53863" lon="0.32973">
        <ele>106.6</ele>
        <time>2011-07-03T06:46:58.000Z</time>
      </trkpt>
      <trkpt lat="46.53866" lon="0.32967">
        <ele>106.7</ele>
        <time>2011-07-03T06:47:00.000Z</time>
      </trkpt>
      <trkpt lat="46.5387" lon="0.32958">
        <ele>106.4</ele>
        <time>2011-07-03T06:47:03.000Z</time>
      </trkpt>
      <trkpt lat="46.53872" lon="0.32957">
        <ele>105.7</ele>
        <time>2011-07-03T06:47:04.000Z</time>
      </trkpt>
      <trkpt lat="46.53874" lon="0.32956">
        <ele>105.4</ele>
        <time>2011-07-03T06:47:05.000Z</time>
      </trkpt>
      <trkpt lat="46.53875" lon="0.32954">
        <ele>105.3</ele>
        <time>2011-07-03T06:47:06.000Z</time>
      </trkpt>
      <trkpt lat="46.53877" lon="0.32952">
        <ele>105.3</ele>
        <time>2011-07-03T06:47:07.000Z</time>
      </trkpt>
      <trkpt lat="46.53879" lon="0.3295">
        <ele>105.2</ele>
        <time>2011-07-03T06:47:08.000Z</time>
      </trkpt>
      <trkpt lat="46.53883" lon="0.32942">
        <ele>106</ele>
        <time>2011-07-03T06:47:11.000Z</time>
      </trkpt>
      <trkpt lat="46.53891" lon="0.32929">
        <ele>106.9</ele>
        <time>2011-07-03T06:47:18.000Z</time>
      </trkpt>
      <trkpt lat="46.53893" lon="0.32922">
        <ele>107.6</ele>
        <time>2011-07-03T06:47:23.000Z</time>
      </trkpt>
      <trkpt lat="46.53894" lon="0.3292">
        <ele>107.7</ele>
        <time>2011-07-03T06:47:24.000Z</time>
      </trkpt>
      <trkpt lat="46.53895" lon="0.32917">
        <ele>108.6</ele>
        <time>2011-07-03T06:47:26.000Z</time>
      </trkpt>
      <trkpt lat="46.53897" lon="0.3291">
        <ele>108.9</ele>
        <time>2011-07-03T06:47:30.000Z</time>
      </trkpt>
      <trkpt lat="46.53898" lon="0.32904">
        <ele>109.6</ele>
        <time>2011-07-03T06:47:33.000Z</time>
      </trkpt>
      <trkpt lat="46.53898" lon="0.32902">
        <ele>109.9</ele>
        <time>2011-07-03T06:47:34.000Z</time>
      </trkpt>
      <trkpt lat="46.53898" lon="0.329">
        <ele>110.2</ele>
        <time>2011-07-03T06:47:35.000Z</time>
      </trkpt>
      <trkpt lat="46.53898" lon="0.32899">
        <ele>110.4</ele>
        <time>2011-07-03T06:47:36.000Z</time>
      </trkpt>
      <trkpt lat="46.53899" lon="0.32897">
        <ele>110.6</ele>
        <time>2011-07-03T06:47:37.000Z</time>
      </trkpt>
      <trkpt lat="46.53901" lon="0.32893">
        <ele>110.8</ele>
        <time>2011-07-03T06:47:39.000Z</time>
      </trkpt>
      <trkpt lat="46.53902" lon="0.32893">
        <ele>110.8</ele>
        <time>2011-07-03T06:47:40.000Z</time>
      </trkpt>
      <trkpt lat="46.53905" lon="0.32884">
        <ele>111.3</ele>
        <time>2011-07-03T06:47:44.000Z</time>
      </trkpt>
      <trkpt lat="46.5391" lon="0.32876">
        <ele>111</ele>
        <time>2011-07-03T06:47:49.000Z</time>
      </trkpt>
      <trkpt lat="46.53919" lon="0.32872">
        <ele>110.1</ele>
        <time>2011-07-03T06:47:54.000Z</time>
      </trkpt>
      <trkpt lat="46.53923" lon="0.3287">
        <ele>109.4</ele>
        <time>2011-07-03T06:47:56.000Z</time>
      </trkpt>
      <trkpt lat="46.53926" lon="0.32871">
        <ele>108.7</ele>
        <time>2011-07-03T06:47:58.000Z</time>
      </trkpt>
      <trkpt lat="46.53927" lon="0.32871">
        <ele>108.4</ele>
        <time>2011-07-03T06:47:59.000Z</time>
      </trkpt>
      <trkpt lat="46.53928" lon="0.32871">
        <ele>108.2</ele>
        <time>2011-07-03T06:48:00.000Z</time>
      </trkpt>
      <trkpt lat="46.5393" lon="0.3287">
        <ele>108</ele>
        <time>2011-07-03T06:48:01.000Z</time>
      </trkpt>
      <trkpt lat="46.53931" lon="0.32869">
        <ele>108</ele>
        <time>2011-07-03T06:48:02.000Z</time>
      </trkpt>
      <trkpt lat="46.53932" lon="0.32866">
        <ele>108.3</ele>
        <time>2011-07-03T06:48:03.000Z</time>
      </trkpt>
      <trkpt lat="46.53938" lon="0.32856">
        <ele>108.6</ele>
        <time>2011-07-03T06:48:08.000Z</time>
      </trkpt>
      <trkpt lat="46.53939" lon="0.32856">
        <ele>108.5</ele>
        <time>2011-07-03T06:48:09.000Z</time>
      </trkpt>
      <trkpt lat="46.53945" lon="0.32853">
        <ele>107.8</ele>
        <time>2011-07-03T06:48:13.000Z</time>
      </trkpt>
      <trkpt lat="46.53947" lon="0.32853">
        <ele>107.2</ele>
        <time>2011-07-03T06:48:14.000Z</time>
      </trkpt>
      <trkpt lat="46.53953" lon="0.3285">
        <ele>105.9</ele>
        <time>2011-07-03T06:48:19.000Z</time>
      </trkpt>
      <trkpt lat="46.53954" lon="0.3285">
        <ele>105.8</ele>
        <time>2011-07-03T06:48:20.000Z</time>
      </trkpt>
      <trkpt lat="46.53955" lon="0.32849">
        <ele>105.6</ele>
        <time>2011-07-03T06:48:21.000Z</time>
      </trkpt>
      <trkpt lat="46.53957" lon="0.32849">
        <ele>105.2</ele>
        <time>2011-07-03T06:48:22.000Z</time>
      </trkpt>
      <trkpt lat="46.53961" lon="0.32847">
        <ele>104.7</ele>
        <time>2011-07-03T06:48:24.000Z</time>
      </trkpt>
      <trkpt lat="46.53963" lon="0.32845">
        <ele>104.9</ele>
        <time>2011-07-03T06:48:25.000Z</time>
      </trkpt>
      <trkpt lat="46.53964" lon="0.32842">
        <ele>105.2</ele>
        <time>2011-07-03T06:48:26.000Z</time>
      </trkpt>
      <trkpt lat="46.53966" lon="0.32838">
        <ele>106</ele>
        <time>2011-07-03T06:48:27.000Z</time>
      </trkpt>
      <trkpt lat="46.53967" lon="0.32835">
        <ele>106.8</ele>
        <time>2011-07-03T06:48:28.000Z</time>
      </trkpt>
      <trkpt lat="46.53968" lon="0.32832">
        <ele>106.9</ele>
        <time>2011-07-03T06:48:29.000Z</time>
      </trkpt>
      <trkpt lat="46.53967" lon="0.32831">
        <ele>106.7</ele>
        <time>2011-07-03T06:48:30.000Z</time>
      </trkpt>
      <trkpt lat="46.53967" lon="0.32829">
        <ele>106.3</ele>
        <time>2011-07-03T06:48:31.000Z</time>
      </trkpt>
      <trkpt lat="46.53971" lon="0.32823">
        <ele>104.9</ele>
        <time>2011-07-03T06:48:34.000Z</time>
      </trkpt>
      <trkpt lat="46.53976" lon="0.32818">
        <ele>102.7</ele>
        <time>2011-07-03T06:48:37.000Z</time>
      </trkpt>
      <trkpt lat="46.53975" lon="0.32817">
        <ele>102.8</ele>
        <time>2011-07-03T06:48:38.000Z</time>
      </trkpt>
      <trkpt lat="46.53975" lon="0.32815">
        <ele>102.3</ele>
        <time>2011-07-03T06:48:39.000Z</time>
      </trkpt>
      <trkpt lat="46.53974" lon="0.32813">
        <ele>102</ele>
        <time>2011-07-03T06:48:40.000Z</time>
      </trkpt>
      <trkpt lat="46.53973" lon="0.32812">
        <ele>102.2</ele>
        <time>2011-07-03T06:48:41.000Z</time>
      </trkpt>
      <trkpt lat="46.5397" lon="0.32811">
        <ele>102.3</ele>
        <time>2011-07-03T06:48:44.000Z</time>
      </trkpt>
      <trkpt lat="46.53967" lon="0.32809">
        <ele>102.2</ele>
        <time>2011-07-03T06:48:46.000Z</time>
      </trkpt>
      <trkpt lat="46.53963" lon="0.32808">
        <ele>102.5</ele>
        <time>2011-07-03T06:48:48.000Z</time>
      </trkpt>
      <trkpt lat="46.53952" lon="0.32811">
        <ele>104.1</ele>
        <time>2011-07-03T06:48:53.000Z</time>
      </trkpt>
      <trkpt lat="46.53944" lon="0.32811">
        <ele>104.8</ele>
        <time>2011-07-03T06:48:57.000Z</time>
      </trkpt>
      <trkpt lat="46.53942" lon="0.32811">
        <ele>105</ele>
        <time>2011-07-03T06:48:58.000Z</time>
      </trkpt>
      <trkpt lat="46.5394" lon="0.32812">
        <ele>105.2</ele>
        <time>2011-07-03T06:48:59.000Z</time>
      </trkpt>
      <trkpt lat="46.53938" lon="0.32812">
        <ele>105.4</ele>
        <time>2011-07-03T06:49:00.000Z</time>
      </trkpt>
      <trkpt lat="46.53936" lon="0.32813">
        <ele>105.6</ele>
        <time>2011-07-03T06:49:01.000Z</time>
      </trkpt>
      <trkpt lat="46.53932" lon="0.32813">
        <ele>105.9</ele>
        <time>2011-07-03T06:49:03.000Z</time>
      </trkpt>
      <trkpt lat="46.5392" lon="0.32816">
        <ele>106.9</ele>
        <time>2011-07-03T06:49:09.000Z</time>
      </trkpt>
      <trkpt lat="46.53919" lon="0.32817">
        <ele>107.1</ele>
        <time>2011-07-03T06:49:10.000Z</time>
      </trkpt>
      <trkpt lat="46.53917" lon="0.32817">
        <ele>107.2</ele>
        <time>2011-07-03T06:49:11.000Z</time>
      </trkpt>
      <trkpt lat="46.53916" lon="0.32816">
        <ele>107.3</ele>
        <time>2011-07-03T06:49:12.000Z</time>
      </trkpt>
      <trkpt lat="46.53911" lon="0.32816">
        <ele>107.5</ele>
        <time>2011-07-03T06:49:14.000Z</time>
      </trkpt>
      <trkpt lat="46.53896" lon="0.3281">
        <ele>108</ele>
        <time>2011-07-03T06:49:20.000Z</time>
      </trkpt>
      <trkpt lat="46.53875" lon="0.32803">
        <ele>108.1</ele>
        <time>2011-07-03T06:49:26.000Z</time>
      </trkpt>
      <trkpt lat="46.53863" lon="0.32792">
        <ele>107.4</ele>
        <time>2011-07-03T06:49:30.000Z</time>
      </trkpt>
      <trkpt lat="46.53836" lon="0.32778">
        <ele>108.7</ele>
        <time>2011-07-03T06:49:36.000Z</time>
      </trkpt>
      <trkpt lat="46.53814" lon="0.32769">
        <ele>108.3</ele>
        <time>2011-07-03T06:49:41.000Z</time>
      </trkpt>
      <trkpt lat="46.53811" lon="0.32768">
        <ele>108.3</ele>
        <time>2011-07-03T06:49:42.000Z</time>
      </trkpt>
      <trkpt lat="46.53807" lon="0.32766">
        <ele>108.3</ele>
        <time>2011-07-03T06:49:43.000Z</time>
      </trkpt>
      <trkpt lat="46.53804" lon="0.32765">
        <ele>108.3</ele>
        <time>2011-07-03T06:49:44.000Z</time>
      </trkpt>
      <trkpt lat="46.538" lon="0.32763">
        <ele>108.3</ele>
        <time>2011-07-03T06:49:45.000Z</time>
      </trkpt>
      <trkpt lat="46.53797" lon="0.32761">
        <ele>108.3</ele>
        <time>2011-07-03T06:49:46.000Z</time>
      </trkpt>
      <trkpt lat="46.5378" lon="0.32759">
        <ele>109.4</ele>
        <time>2011-07-03T06:49:50.000Z</time>
      </trkpt>
      <trkpt lat="46.53759" lon="0.32756">
        <ele>110.3</ele>
        <time>2011-07-03T06:49:56.000Z</time>
      </trkpt>
      <trkpt lat="46.53741" lon="0.32754">
        <ele>110.8</ele>
        <time>2011-07-03T06:50:02.000Z</time>
      </trkpt>
      <trkpt lat="46.53725" lon="0.32752">
        <ele>111.2</ele>
        <time>2011-07-03T06:50:07.000Z</time>
      </trkpt>
      <trkpt lat="46.53722" lon="0.32752">
        <ele>111.2</ele>
        <time>2011-07-03T06:50:08.000Z</time>
      </trkpt>
      <trkpt lat="46.53719" lon="0.32751">
        <ele>111.3</ele>
        <time>2011-07-03T06:50:09.000Z</time>
      </trkpt>
      <trkpt lat="46.53716" lon="0.3275">
        <ele>111.5</ele>
        <time>2011-07-03T06:50:10.000Z</time>
      </trkpt>
      <trkpt lat="46.53713" lon="0.32748">
        <ele>111.5</ele>
        <time>2011-07-03T06:50:11.000Z</time>
      </trkpt>
      <trkpt lat="46.53698" lon="0.32745">
        <ele>112.2</ele>
        <time>2011-07-03T06:50:15.000Z</time>
      </trkpt>
      <trkpt lat="46.5368" lon="0.32744">
        <ele>113.3</ele>
        <time>2011-07-03T06:50:20.000Z</time>
      </trkpt>
      <trkpt lat="46.53675" lon="0.32743">
        <ele>113.4</ele>
        <time>2011-07-03T06:50:21.000Z</time>
      </trkpt>
      <trkpt lat="46.53671" lon="0.32743">
        <ele>113.8</ele>
        <time>2011-07-03T06:50:22.000Z</time>
      </trkpt>
      <trkpt lat="46.53667" lon="0.32744">
        <ele>114.1</ele>
        <time>2011-07-03T06:50:23.000Z</time>
      </trkpt>
      <trkpt lat="46.53664" lon="0.32745">
        <ele>114.4</ele>
        <time>2011-07-03T06:50:24.000Z</time>
      </trkpt>
      <trkpt lat="46.53661" lon="0.32745">
        <ele>114.6</ele>
        <time>2011-07-03T06:50:25.000Z</time>
      </trkpt>
      <trkpt lat="46.53649" lon="0.32746">
        <ele>115.3</ele>
        <time>2011-07-03T06:50:29.000Z</time>
      </trkpt>
      <trkpt lat="46.53646" lon="0.32746">
        <ele>115.4</ele>
        <time>2011-07-03T06:50:30.000Z</time>
      </trkpt>
      <trkpt lat="46.53643" lon="0.32747">
        <ele>115.6</ele>
        <time>2011-07-03T06:50:31.000Z</time>
      </trkpt>
      <trkpt lat="46.53639" lon="0.32748">
        <ele>115.8</ele>
        <time>2011-07-03T06:50:32.000Z</time>
      </trkpt>
      <trkpt lat="46.53636" lon="0.32748">
        <ele>116</ele>
        <time>2011-07-03T06:50:33.000Z</time>
      </trkpt>
      <trkpt lat="46.53628" lon="0.32749">
        <ele>116.3</ele>
        <time>2011-07-03T06:50:35.000Z</time>
      </trkpt>
      <trkpt lat="46.53603" lon="0.3275">
        <ele>117.6</ele>
        <time>2011-07-03T06:50:41.000Z</time>
      </trkpt>
      <trkpt lat="46.53599" lon="0.3275">
        <ele>117.9</ele>
        <time>2011-07-03T06:50:42.000Z</time>
      </trkpt>
      <trkpt lat="46.53595" lon="0.32751">
        <ele>118.2</ele>
        <time>2011-07-03T06:50:43.000Z</time>
      </trkpt>
      <trkpt lat="46.53591" lon="0.3275">
        <ele>118.5</ele>
        <time>2011-07-03T06:50:44.000Z</time>
      </trkpt>
      <trkpt lat="46.53587" lon="0.32749">
        <ele>118.7</ele>
        <time>2011-07-03T06:50:45.000Z</time>
      </trkpt>
      <trkpt lat="46.53584" lon="0.32751">
        <ele>119</ele>
        <time>2011-07-03T06:50:46.000Z</time>
      </trkpt>
      <trkpt lat="46.53565" lon="0.32744">
        <ele>119.2</ele>
        <time>2011-07-03T06:50:51.000Z</time>
      </trkpt>
      <trkpt lat="46.53547" lon="0.32728">
        <ele>118.6</ele>
        <time>2011-07-03T06:50:56.000Z</time>
      </trkpt>
      <trkpt lat="46.53534" lon="0.32719">
        <ele>118.6</ele>
        <time>2011-07-03T06:50:59.000Z</time>
      </trkpt>
      <trkpt lat="46.53519" lon="0.32711">
        <ele>118.5</ele>
        <time>2011-07-03T06:51:02.000Z</time>
      </trkpt>
      <trkpt lat="46.5351" lon="0.32702">
        <ele>118.2</ele>
        <time>2011-07-03T06:51:04.000Z</time>
      </trkpt>
      <trkpt lat="46.53498" lon="0.32688">
        <ele>117.6</ele>
        <time>2011-07-03T06:51:07.000Z</time>
      </trkpt>
      <trkpt lat="46.53495" lon="0.32683">
        <ele>117.4</ele>
        <time>2011-07-03T06:51:08.000Z</time>
      </trkpt>
      <trkpt lat="46.53483" lon="0.3267">
        <ele>116.9</ele>
        <time>2011-07-03T06:51:11.000Z</time>
      </trkpt>
      <trkpt lat="46.53474" lon="0.32665">
        <ele>116.8</ele>
        <time>2011-07-03T06:51:13.000Z</time>
      </trkpt>
      <trkpt lat="46.53466" lon="0.32661">
        <ele>116.6</ele>
        <time>2011-07-03T06:51:15.000Z</time>
      </trkpt>
      <trkpt lat="46.53458" lon="0.32659">
        <ele>116.8</ele>
        <time>2011-07-03T06:51:17.000Z</time>
      </trkpt>
      <trkpt lat="46.53429" lon="0.32659">
        <ele>118</ele>
        <time>2011-07-03T06:51:23.000Z</time>
      </trkpt>
      <trkpt lat="46.53413" lon="0.32657">
        <ele>118.4</ele>
        <time>2011-07-03T06:51:26.000Z</time>
      </trkpt>
      <trkpt lat="46.53399" lon="0.32652">
        <ele>118.6</ele>
        <time>2011-07-03T06:51:29.000Z</time>
      </trkpt>
      <trkpt lat="46.53369" lon="0.32635">
        <ele>118.5</ele>
        <time>2011-07-03T06:51:35.000Z</time>
      </trkpt>
      <trkpt lat="46.53354" lon="0.32626">
        <ele>118.3</ele>
        <time>2011-07-03T06:51:38.000Z</time>
      </trkpt>
      <trkpt lat="46.53337" lon="0.32619">
        <ele>118.4</ele>
        <time>2011-07-03T06:51:41.000Z</time>
      </trkpt>
      <trkpt lat="46.53322" lon="0.32611">
        <ele>118.8</ele>
        <time>2011-07-03T06:51:45.000Z</time>
      </trkpt>
      <trkpt lat="46.5332" lon="0.32608">
        <ele>118.7</ele>
        <time>2011-07-03T06:51:46.000Z</time>
      </trkpt>
      <trkpt lat="46.5332" lon="0.32603">
        <ele>118.4</ele>
        <time>2011-07-03T06:51:48.000Z</time>
      </trkpt>
      <trkpt lat="46.53318" lon="0.32594">
        <ele>117.9</ele>
        <time>2011-07-03T06:51:52.000Z</time>
      </trkpt>
      <trkpt lat="46.53317" lon="0.32592">
        <ele>117.7</ele>
        <time>2011-07-03T06:51:53.000Z</time>
      </trkpt>
      <trkpt lat="46.53314" lon="0.32572">
        <ele>116.5</ele>
        <time>2011-07-03T06:51:57.000Z</time>
      </trkpt>
      <trkpt lat="46.53315" lon="0.32566">
        <ele>116.1</ele>
        <time>2011-07-03T06:51:58.000Z</time>
      </trkpt>
      <trkpt lat="46.53315" lon="0.32552">
        <ele>115.1</ele>
        <time>2011-07-03T06:52:00.000Z</time>
      </trkpt>
      <trkpt lat="46.53311" lon="0.32539">
        <ele>114.3</ele>
        <time>2011-07-03T06:52:02.000Z</time>
      </trkpt>
      <trkpt lat="46.53308" lon="0.32533">
        <ele>114.1</ele>
        <time>2011-07-03T06:52:03.000Z</time>
      </trkpt>
      <trkpt lat="46.53306" lon="0.32529">
        <ele>114</ele>
        <time>2011-07-03T06:52:04.000Z</time>
      </trkpt>
      <trkpt lat="46.53306" lon="0.32525">
        <ele>113.6</ele>
        <time>2011-07-03T06:52:05.000Z</time>
      </trkpt>
      <trkpt lat="46.5331" lon="0.3252">
        <ele>112.6</ele>
        <time>2011-07-03T06:52:07.000Z</time>
      </trkpt>
      <trkpt lat="46.53311" lon="0.32518">
        <ele>112.2</ele>
        <time>2011-07-03T06:52:08.000Z</time>
      </trkpt>
      <trkpt lat="46.53312" lon="0.32517">
        <ele>112</ele>
        <time>2011-07-03T06:52:09.000Z</time>
      </trkpt>
      <trkpt lat="46.53313" lon="0.32515">
        <ele>111.7</ele>
        <time>2011-07-03T06:52:10.000Z</time>
      </trkpt>
      <trkpt lat="46.53316" lon="0.32513">
        <ele>111.2</ele>
        <time>2011-07-03T06:52:11.000Z</time>
      </trkpt>
      <trkpt lat="46.53318" lon="0.32511">
        <ele>110.5</ele>
        <time>2011-07-03T06:52:12.000Z</time>
      </trkpt>
      <trkpt lat="46.53325" lon="0.32506">
        <ele>109.1</ele>
        <time>2011-07-03T06:52:14.000Z</time>
      </trkpt>
      <trkpt lat="46.53329" lon="0.32504">
        <ele>108.2</ele>
        <time>2011-07-03T06:52:15.000Z</time>
      </trkpt>
      <trkpt lat="46.53332" lon="0.32502">
        <ele>107.4</ele>
        <time>2011-07-03T06:52:16.000Z</time>
      </trkpt>
      <trkpt lat="46.53336" lon="0.32498">
        <ele>106.4</ele>
        <time>2011-07-03T06:52:17.000Z</time>
      </trkpt>
      <trkpt lat="46.5334" lon="0.32495">
        <ele>105.6</ele>
        <time>2011-07-03T06:52:18.000Z</time>
      </trkpt>
      <trkpt lat="46.53346" lon="0.32492">
        <ele>104.5</ele>
        <time>2011-07-03T06:52:19.000Z</time>
      </trkpt>
      <trkpt lat="46.53349" lon="0.32488">
        <ele>103.5</ele>
        <time>2011-07-03T06:52:20.000Z</time>
      </trkpt>
      <trkpt lat="46.53351" lon="0.32484">
        <ele>102.7</ele>
        <time>2011-07-03T06:52:21.000Z</time>
      </trkpt>
      <trkpt lat="46.53352" lon="0.32479">
        <ele>102</ele>
        <time>2011-07-03T06:52:22.000Z</time>
      </trkpt>
      <trkpt lat="46.53353" lon="0.32475">
        <ele>101.2</ele>
        <time>2011-07-03T06:52:23.000Z</time>
      </trkpt>
      <trkpt lat="46.53355" lon="0.32471">
        <ele>100.5</ele>
        <time>2011-07-03T06:52:24.000Z</time>
      </trkpt>
      <trkpt lat="46.53357" lon="0.32467">
        <ele>99.7</ele>
        <time>2011-07-03T06:52:25.000Z</time>
      </trkpt>
      <trkpt lat="46.53359" lon="0.32463">
        <ele>98.7</ele>
        <time>2011-07-03T06:52:26.000Z</time>
      </trkpt>
      <trkpt lat="46.53362" lon="0.3246">
        <ele>97.7</ele>
        <time>2011-07-03T06:52:27.000Z</time>
      </trkpt>
      <trkpt lat="46.53364" lon="0.32457">
        <ele>96.9</ele>
        <time>2011-07-03T06:52:28.000Z</time>
      </trkpt>
      <trkpt lat="46.53366" lon="0.32456">
        <ele>96.2</ele>
        <time>2011-07-03T06:52:29.000Z</time>
      </trkpt>
      <trkpt lat="46.53368" lon="0.32455">
        <ele>95.7</ele>
        <time>2011-07-03T06:52:30.000Z</time>
      </trkpt>
      <trkpt lat="46.5337" lon="0.32453">
        <ele>95</ele>
        <time>2011-07-03T06:52:31.000Z</time>
      </trkpt>
      <trkpt lat="46.53372" lon="0.32452">
        <ele>94.6</ele>
        <time>2011-07-03T06:52:32.000Z</time>
      </trkpt>
      <trkpt lat="46.53373" lon="0.32452">
        <ele>94.2</ele>
        <time>2011-07-03T06:52:33.000Z</time>
      </trkpt>
      <trkpt lat="46.53375" lon="0.32451">
        <ele>93.9</ele>
        <time>2011-07-03T06:52:34.000Z</time>
      </trkpt>
      <trkpt lat="46.53376" lon="0.32451">
        <ele>93.5</ele>
        <time>2011-07-03T06:52:35.000Z</time>
      </trkpt>
      <trkpt lat="46.53378" lon="0.3245">
        <ele>93.1</ele>
        <time>2011-07-03T06:52:36.000Z</time>
      </trkpt>
      <trkpt lat="46.5338" lon="0.32449">
        <ele>92.7</ele>
        <time>2011-07-03T06:52:37.000Z</time>
      </trkpt>
      <trkpt lat="46.53381" lon="0.32449">
        <ele>92.2</ele>
        <time>2011-07-03T06:52:38.000Z</time>
      </trkpt>
      <trkpt lat="46.53383" lon="0.32449">
        <ele>92</ele>
        <time>2011-07-03T06:52:39.000Z</time>
      </trkpt>
      <trkpt lat="46.53384" lon="0.32449">
        <ele>91.8</ele>
        <time>2011-07-03T06:52:40.000Z</time>
      </trkpt>
      <trkpt lat="46.53385" lon="0.32449">
        <ele>91.6</ele>
        <time>2011-07-03T06:52:41.000Z</time>
      </trkpt>
      <trkpt lat="46.53386" lon="0.32448">
        <ele>91.2</ele>
        <time>2011-07-03T06:52:42.000Z</time>
      </trkpt>
      <trkpt lat="46.53387" lon="0.32447">
        <ele>90.9</ele>
        <time>2011-07-03T06:52:43.000Z</time>
      </trkpt>
      <trkpt lat="46.53391" lon="0.32447">
        <ele>90.5</ele>
        <time>2011-07-03T06:52:45.000Z</time>
      </trkpt>
      <trkpt lat="46.53393" lon="0.32448">
        <ele>90.7</ele>
        <time>2011-07-03T06:52:46.000Z</time>
      </trkpt>
      <trkpt lat="46.53395" lon="0.3245">
        <ele>90.9</ele>
        <time>2011-07-03T06:52:47.000Z</time>
      </trkpt>
      <trkpt lat="46.53396" lon="0.3245">
        <ele>90.8</ele>
        <time>2011-07-03T06:52:48.000Z</time>
      </trkpt>
      <trkpt lat="46.53399" lon="0.32451">
        <ele>90.8</ele>
        <time>2011-07-03T06:52:49.000Z</time>
      </trkpt>
      <trkpt lat="46.53401" lon="0.32451">
        <ele>90.7</ele>
        <time>2011-07-03T06:52:50.000Z</time>
      </trkpt>
      <trkpt lat="46.53402" lon="0.32453">
        <ele>90.8</ele>
        <time>2011-07-03T06:52:51.000Z</time>
      </trkpt>
      <trkpt lat="46.53409" lon="0.32456">
        <ele>90.3</ele>
        <time>2011-07-03T06:52:54.000Z</time>
      </trkpt>
      <trkpt lat="46.53411" lon="0.32458">
        <ele>90.2</ele>
        <time>2011-07-03T06:52:55.000Z</time>
      </trkpt>
      <trkpt lat="46.53412" lon="0.3246">
        <ele>90.1</ele>
        <time>2011-07-03T06:52:56.000Z</time>
      </trkpt>
      <trkpt lat="46.53414" lon="0.32462">
        <ele>89.8</ele>
        <time>2011-07-03T06:52:57.000Z</time>
      </trkpt>
      <trkpt lat="46.53416" lon="0.32463">
        <ele>89.5</ele>
        <time>2011-07-03T06:52:59.000Z</time>
      </trkpt>
      <trkpt lat="46.53416" lon="0.32463">
        <ele>89.5</ele>
        <time>2011-07-03T06:53:00.000Z</time>
      </trkpt>
      <trkpt lat="46.53416" lon="0.32463">
        <ele>89.5</ele>
        <time>2011-07-03T06:53:01.000Z</time>
      </trkpt>
      <trkpt lat="46.53416" lon="0.32463">
        <ele>89.5</ele>
        <time>2011-07-03T06:53:02.000Z</time>
      </trkpt>
      <trkpt lat="46.53416" lon="0.32463">
        <ele>89.5</ele>
        <time>2011-07-03T06:53:04.000Z</time>
      </trkpt>
      <trkpt lat="46.53417" lon="0.32463">
        <ele>89.3</ele>
        <time>2011-07-03T06:53:06.000Z</time>
      </trkpt>
      <trkpt lat="46.53419" lon="0.32463">
        <ele>89</ele>
        <time>2011-07-03T06:53:11.000Z</time>
      </trkpt>
      <trkpt lat="46.53421" lon="0.32461">
        <ele>88.9</ele>
        <time>2011-07-03T06:53:14.000Z</time>
      </trkpt>
      <trkpt lat="46.53421" lon="0.32461">
        <ele>88.9</ele>
        <time>2011-07-03T06:53:15.000Z</time>
      </trkpt>
      <trkpt lat="46.53422" lon="0.32461">
        <ele>88.8</ele>
        <time>2011-07-03T06:53:16.000Z</time>
      </trkpt>
      <trkpt lat="46.53423" lon="0.32461">
        <ele>88.7</ele>
        <time>2011-07-03T06:53:17.000Z</time>
      </trkpt>
      <trkpt lat="46.53423" lon="0.32461">
        <ele>88.7</ele>
        <time>2011-07-03T06:53:18.000Z</time>
      </trkpt>
      <trkpt lat="46.53424" lon="0.32461">
        <ele>88.6</ele>
        <time>2011-07-03T06:53:22.000Z</time>
      </trkpt>
      <trkpt lat="46.53425" lon="0.32461">
        <ele>88.4</ele>
        <time>2011-07-03T06:53:23.000Z</time>
      </trkpt>
      <trkpt lat="46.53426" lon="0.32461">
        <ele>88.3</ele>
        <time>2011-07-03T06:53:24.000Z</time>
      </trkpt>
      <trkpt lat="46.53428" lon="0.32462">
        <ele>88</ele>
        <time>2011-07-03T06:53:25.000Z</time>
      </trkpt>
      <trkpt lat="46.5343" lon="0.32463">
        <ele>87.5</ele>
        <time>2011-07-03T06:53:26.000Z</time>
      </trkpt>
      <trkpt lat="46.53432" lon="0.32464">
        <ele>87</ele>
        <time>2011-07-03T06:53:27.000Z</time>
      </trkpt>
      <trkpt lat="46.53437" lon="0.32465">
        <ele>86.1</ele>
        <time>2011-07-03T06:53:29.000Z</time>
      </trkpt>
      <trkpt lat="46.5344" lon="0.32466">
        <ele>85.5</ele>
        <time>2011-07-03T06:53:30.000Z</time>
      </trkpt>
      <trkpt lat="46.53443" lon="0.32467">
        <ele>84.8</ele>
        <time>2011-07-03T06:53:31.000Z</time>
      </trkpt>
      <trkpt lat="46.53447" lon="0.32468">
        <ele>83.8</ele>
        <time>2011-07-03T06:53:32.000Z</time>
      </trkpt>
      <trkpt lat="46.5345" lon="0.32467">
        <ele>83.3</ele>
        <time>2011-07-03T06:53:33.000Z</time>
      </trkpt>
      <trkpt lat="46.53455" lon="0.32467">
        <ele>82.1</ele>
        <time>2011-07-03T06:53:35.000Z</time>
      </trkpt>
      <trkpt lat="46.53458" lon="0.32466">
        <ele>81.6</ele>
        <time>2011-07-03T06:53:36.000Z</time>
      </trkpt>
      <trkpt lat="46.5346" lon="0.32465">
        <ele>81.4</ele>
        <time>2011-07-03T06:53:37.000Z</time>
      </trkpt>
      <trkpt lat="46.5346" lon="0.32466">
        <ele>81.2</ele>
        <time>2011-07-03T06:53:38.000Z</time>
      </trkpt>
      <trkpt lat="46.53461" lon="0.32466">
        <ele>80.9</ele>
        <time>2011-07-03T06:53:39.000Z</time>
      </trkpt>
      <trkpt lat="46.53462" lon="0.32466">
        <ele>80.6</ele>
        <time>2011-07-03T06:53:41.000Z</time>
      </trkpt>
      <trkpt lat="46.53462" lon="0.32466">
        <ele>80.6</ele>
        <time>2011-07-03T06:53:44.000Z</time>
      </trkpt>
      <trkpt lat="46.53462" lon="0.32466">
        <ele>80.6</ele>
        <time>2011-07-03T06:53:51.000Z</time>
      </trkpt>
      <trkpt lat="46.53462" lon="0.32466">
        <ele>80.6</ele>
        <time>2011-07-03T06:54:01.000Z</time>
      </trkpt>
      <trkpt lat="46.53462" lon="0.32466">
        <ele>80.6</ele>
        <time>2011-07-03T06:54:07.000Z</time>
      </trkpt>
      <trkpt lat="46.53462" lon="0.32466">
        <ele>80.6</ele>
        <time>2011-07-03T06:54:08.000Z</time>
      </trkpt>
      <trkpt lat="46.53463" lon="0.32465">
        <ele>80.5</ele>
        <time>2011-07-03T06:54:12.000Z</time>
      </trkpt>
      <trkpt lat="46.53467" lon="0.32462">
        <ele>79.8</ele>
        <time>2011-07-03T06:54:15.000Z</time>
      </trkpt>
      <trkpt lat="46.53469" lon="0.32456">
        <ele>79.5</ele>
        <time>2011-07-03T06:54:19.000Z</time>
      </trkpt>
      <trkpt lat="46.53473" lon="0.32448">
        <ele>78.9</ele>
        <time>2011-07-03T06:54:23.000Z</time>
      </trkpt>
      <trkpt lat="46.5347" lon="0.3244">
        <ele>80.3</ele>
        <time>2011-07-03T06:54:27.000Z</time>
      </trkpt>
      <trkpt lat="46.53468" lon="0.32434">
        <ele>81.5</ele>
        <time>2011-07-03T06:54:29.000Z</time>
      </trkpt>
      <trkpt lat="46.53461" lon="0.32426">
        <ele>82.5</ele>
        <time>2011-07-03T06:54:33.000Z</time>
      </trkpt>
      <trkpt lat="46.53455" lon="0.32421">
        <ele>82</ele>
        <time>2011-07-03T06:54:37.000Z</time>
      </trkpt>
      <trkpt lat="46.53455" lon="0.3242">
        <ele>81.7</ele>
        <time>2011-07-03T06:54:38.000Z</time>
      </trkpt>
      <trkpt lat="46.53454" lon="0.32419">
        <ele>81.5</ele>
        <time>2011-07-03T06:54:39.000Z</time>
      </trkpt>
      <trkpt lat="46.53452" lon="0.32417">
        <ele>81</ele>
        <time>2011-07-03T06:54:40.000Z</time>
      </trkpt>
      <trkpt lat="46.53451" lon="0.32415">
        <ele>81</ele>
        <time>2011-07-03T06:54:41.000Z</time>
      </trkpt>
      <trkpt lat="46.53444" lon="0.32409">
        <ele>81.3</ele>
        <time>2011-07-03T06:54:45.000Z</time>
      </trkpt>
      <trkpt lat="46.53442" lon="0.32408">
        <ele>81.6</ele>
        <time>2011-07-03T06:54:46.000Z</time>
      </trkpt>
      <trkpt lat="46.5344" lon="0.32407">
        <ele>81.6</ele>
        <time>2011-07-03T06:54:47.000Z</time>
      </trkpt>
      <trkpt lat="46.53437" lon="0.32406">
        <ele>81.7</ele>
        <time>2011-07-03T06:54:48.000Z</time>
      </trkpt>
      <trkpt lat="46.53435" lon="0.32405">
        <ele>81.8</ele>
        <time>2011-07-03T06:54:49.000Z</time>
      </trkpt>
      <trkpt lat="46.53428" lon="0.32405">
        <ele>81.5</ele>
        <time>2011-07-03T06:54:52.000Z</time>
      </trkpt>
      <trkpt lat="46.53416" lon="0.32405">
        <ele>81.2</ele>
        <time>2011-07-03T06:54:56.000Z</time>
      </trkpt>
      <trkpt lat="46.53413" lon="0.32405">
        <ele>81.6</ele>
        <time>2011-07-03T06:54:57.000Z</time>
      </trkpt>
      <trkpt lat="46.53407" lon="0.32401">
        <ele>81.9</ele>
        <time>2011-07-03T06:55:01.000Z</time>
      </trkpt>
      <trkpt lat="46.53401" lon="0.32397">
        <ele>81.8</ele>
        <time>2011-07-03T06:55:07.000Z</time>
      </trkpt>
      <trkpt lat="46.53401" lon="0.32397">
        <ele>81.8</ele>
        <time>2011-07-03T06:55:11.000Z</time>
      </trkpt>
      <trkpt lat="46.53401" lon="0.32396">
        <ele>81.6</ele>
        <time>2011-07-03T06:55:12.000Z</time>
      </trkpt>
      <trkpt lat="46.53401" lon="0.32395">
        <ele>81.5</ele>
        <time>2011-07-03T06:55:14.000Z</time>
      </trkpt>
      <trkpt lat="46.53401" lon="0.32395">
        <ele>81.5</ele>
        <time>2011-07-03T06:55:19.000Z</time>
      </trkpt>
      <trkpt lat="46.53399" lon="0.32393">
        <ele>81.3</ele>
        <time>2011-07-03T06:55:25.000Z</time>
      </trkpt>
      <trkpt lat="46.534" lon="0.32392">
        <ele>81.1</ele>
        <time>2011-07-03T06:55:33.000Z</time>
      </trkpt>
      <trkpt lat="46.534" lon="0.32387">
        <ele>80.8</ele>
        <time>2011-07-03T06:55:39.000Z</time>
      </trkpt>
      <trkpt lat="46.53401" lon="0.32381">
        <ele>81.1</ele>
        <time>2011-07-03T06:55:43.000Z</time>
      </trkpt>
      <trkpt lat="46.53401" lon="0.32381">
        <ele>81.1</ele>
        <time>2011-07-03T06:55:44.000Z</time>
      </trkpt>
      <trkpt lat="46.53398" lon="0.32374">
        <ele>81.4</ele>
        <time>2011-07-03T06:55:49.000Z</time>
      </trkpt>
      <trkpt lat="46.53396" lon="0.32369">
        <ele>81.2</ele>
        <time>2011-07-03T06:55:52.000Z</time>
      </trkpt>
      <trkpt lat="46.53394" lon="0.32366">
        <ele>81</ele>
        <time>2011-07-03T06:55:54.000Z</time>
      </trkpt>
      <trkpt lat="46.53394" lon="0.32366">
        <ele>81</ele>
        <time>2011-07-03T06:55:58.000Z</time>
      </trkpt>
      <trkpt lat="46.53393" lon="0.32366">
        <ele>80.9</ele>
        <time>2011-07-03T06:56:03.000Z</time>
      </trkpt>
      <trkpt lat="46.53393" lon="0.32366">
        <ele>80.9</ele>
        <time>2011-07-03T06:56:06.000Z</time>
      </trkpt>
      <trkpt lat="46.53394" lon="0.32366">
        <ele>81</ele>
        <time>2011-07-03T06:56:13.000Z</time>
      </trkpt>
      <trkpt lat="46.53393" lon="0.32365">
        <ele>80.8</ele>
        <time>2011-07-03T06:56:22.000Z</time>
      </trkpt>
      <trkpt lat="46.53391" lon="0.32364">
        <ele>80.5</ele>
        <time>2011-07-03T06:56:29.000Z</time>
      </trkpt>
      <trkpt lat="46.53389" lon="0.32362">
        <ele>80</ele>
        <time>2011-07-03T06:56:35.000Z</time>
      </trkpt>
      <trkpt lat="46.53384" lon="0.32357">
        <ele>81</ele>
        <time>2011-07-03T06:56:39.000Z</time>
      </trkpt>
      <trkpt lat="46.5338" lon="0.32357">
        <ele>81.2</ele>
        <time>2011-07-03T06:56:41.000Z</time>
      </trkpt>
      <trkpt lat="46.53379" lon="0.32358">
        <ele>81.1</ele>
        <time>2011-07-03T06:56:43.000Z</time>
      </trkpt>
      <trkpt lat="46.53378" lon="0.32357">
        <ele>81.3</ele>
        <time>2011-07-03T06:56:49.000Z</time>
      </trkpt>
      <trkpt lat="46.53375" lon="0.32358">
        <ele>81.2</ele>
        <time>2011-07-03T06:56:53.000Z</time>
      </trkpt>
      <trkpt lat="46.53374" lon="0.32357">
        <ele>81.3</ele>
        <time>2011-07-03T06:56:55.000Z</time>
      </trkpt>
      <trkpt lat="46.53371" lon="0.32356">
        <ele>81.4</ele>
        <time>2011-07-03T06:56:57.000Z</time>
      </trkpt>
      <trkpt lat="46.53367" lon="0.32353">
        <ele>81.5</ele>
        <time>2011-07-03T06:57:00.000Z</time>
      </trkpt>
      <trkpt lat="46.53364" lon="0.3235">
        <ele>81.4</ele>
        <time>2011-07-03T06:57:03.000Z</time>
      </trkpt>
      <trkpt lat="46.5336" lon="0.32346">
        <ele>81.2</ele>
        <time>2011-07-03T06:57:09.000Z</time>
      </trkpt>
      <trkpt lat="46.5336" lon="0.32346">
        <ele>81.3</ele>
        <time>2011-07-03T06:57:10.000Z</time>
      </trkpt>
      <trkpt lat="46.5336" lon="0.32346">
        <ele>81.3</ele>
        <time>2011-07-03T06:57:11.000Z</time>
      </trkpt>
      <trkpt lat="46.53359" lon="0.32346">
        <ele>81.5</ele>
        <time>2011-07-03T06:57:12.000Z</time>
      </trkpt>
      <trkpt lat="46.53359" lon="0.32345">
        <ele>81.7</ele>
        <time>2011-07-03T06:57:13.000Z</time>
      </trkpt>
      <trkpt lat="46.53358" lon="0.32345">
        <ele>81.8</ele>
        <time>2011-07-03T06:57:14.000Z</time>
      </trkpt>
      <trkpt lat="46.53357" lon="0.32343">
        <ele>82</ele>
        <time>2011-07-03T06:57:15.000Z</time>
      </trkpt>
      <trkpt lat="46.53355" lon="0.32337">
        <ele>82.1</ele>
        <time>2011-07-03T06:57:21.000Z</time>
      </trkpt>
      <trkpt lat="46.53354" lon="0.32336">
        <ele>82.5</ele>
        <time>2011-07-03T06:57:27.000Z</time>
      </trkpt>
      <trkpt lat="46.53353" lon="0.32335">
        <ele>82.7</ele>
        <time>2011-07-03T06:57:32.000Z</time>
      </trkpt>
      <trkpt lat="46.53351" lon="0.32331">
        <ele>83.6</ele>
        <time>2011-07-03T06:57:38.000Z</time>
      </trkpt>
      <trkpt lat="46.53349" lon="0.32329">
        <ele>84</ele>
        <time>2011-07-03T06:57:39.000Z</time>
      </trkpt>
      <trkpt lat="46.53348" lon="0.32328">
        <ele>84.4</ele>
        <time>2011-07-03T06:57:40.000Z</time>
      </trkpt>
      <trkpt lat="46.53346" lon="0.32322">
        <ele>84.9</ele>
        <time>2011-07-03T06:57:43.000Z</time>
      </trkpt>
      <trkpt lat="46.53345" lon="0.3232">
        <ele>85</ele>
        <time>2011-07-03T06:57:44.000Z</time>
      </trkpt>
      <trkpt lat="46.53342" lon="0.32318">
        <ele>85.3</ele>
        <time>2011-07-03T06:57:46.000Z</time>
      </trkpt>
      <trkpt lat="46.53342" lon="0.32317">
        <ele>85.3</ele>
        <time>2011-07-03T06:57:47.000Z</time>
      </trkpt>
      <trkpt lat="46.5334" lon="0.32317">
        <ele>85.4</ele>
        <time>2011-07-03T06:57:48.000Z</time>
      </trkpt>
      <trkpt lat="46.53339" lon="0.32315">
        <ele>85.3</ele>
        <time>2011-07-03T06:57:49.000Z</time>
      </trkpt>
      <trkpt lat="46.53338" lon="0.32312">
        <ele>85.1</ele>
        <time>2011-07-03T06:57:50.000Z</time>
      </trkpt>
      <trkpt lat="46.53335" lon="0.32309">
        <ele>84.6</ele>
        <time>2011-07-03T06:57:52.000Z</time>
      </trkpt>
      <trkpt lat="46.53333" lon="0.32307">
        <ele>84.4</ele>
        <time>2011-07-03T06:57:54.000Z</time>
      </trkpt>
      <trkpt lat="46.53328" lon="0.32303">
        <ele>85.4</ele>
        <time>2011-07-03T06:57:58.000Z</time>
      </trkpt>
      <trkpt lat="46.53325" lon="0.32303">
        <ele>86</ele>
        <time>2011-07-03T06:58:00.000Z</time>
      </trkpt>
      <trkpt lat="46.53324" lon="0.32298">
        <ele>86.4</ele>
        <time>2011-07-03T06:58:03.000Z</time>
      </trkpt>
      <trkpt lat="46.53323" lon="0.32298">
        <ele>86.4</ele>
        <time>2011-07-03T06:58:04.000Z</time>
      </trkpt>
      <trkpt lat="46.53322" lon="0.32297">
        <ele>86.7</ele>
        <time>2011-07-03T06:58:05.000Z</time>
      </trkpt>
      <trkpt lat="46.53322" lon="0.32297">
        <ele>86.6</ele>
        <time>2011-07-03T06:58:06.000Z</time>
      </trkpt>
      <trkpt lat="46.53322" lon="0.32297">
        <ele>86.7</ele>
        <time>2011-07-03T06:58:07.000Z</time>
      </trkpt>
      <trkpt lat="46.53321" lon="0.32297">
        <ele>86.8</ele>
        <time>2011-07-03T06:58:08.000Z</time>
      </trkpt>
      <trkpt lat="46.5332" lon="0.32297">
        <ele>86.9</ele>
        <time>2011-07-03T06:58:14.000Z</time>
      </trkpt>
      <trkpt lat="46.53319" lon="0.32296">
        <ele>87</ele>
        <time>2011-07-03T06:58:19.000Z</time>
      </trkpt>
      <trkpt lat="46.53316" lon="0.32294">
        <ele>87.3</ele>
        <time>2011-07-03T06:58:24.000Z</time>
      </trkpt>
      <trkpt lat="46.53314" lon="0.32292">
        <ele>87.2</ele>
        <time>2011-07-03T06:58:25.000Z</time>
      </trkpt>
      <trkpt lat="46.53312" lon="0.32288">
        <ele>86.9</ele>
        <time>2011-07-03T06:58:27.000Z</time>
      </trkpt>
      <trkpt lat="46.5331" lon="0.32286">
        <ele>86.7</ele>
        <time>2011-07-03T06:58:28.000Z</time>
      </trkpt>
      <trkpt lat="46.53308" lon="0.32285">
        <ele>86.5</ele>
        <time>2011-07-03T06:58:29.000Z</time>
      </trkpt>
      <trkpt lat="46.53306" lon="0.32284">
        <ele>86.3</ele>
        <time>2011-07-03T06:58:30.000Z</time>
      </trkpt>
      <trkpt lat="46.53305" lon="0.32282">
        <ele>86.2</ele>
        <time>2011-07-03T06:58:31.000Z</time>
      </trkpt>
      <trkpt lat="46.53303" lon="0.32281">
        <ele>86.3</ele>
        <time>2011-07-03T06:58:32.000Z</time>
      </trkpt>
      <trkpt lat="46.53298" lon="0.32275">
        <ele>87.2</ele>
        <time>2011-07-03T06:58:37.000Z</time>
      </trkpt>
      <trkpt lat="46.53293" lon="0.3227">
        <ele>88</ele>
        <time>2011-07-03T06:58:41.000Z</time>
      </trkpt>
      <trkpt lat="46.53293" lon="0.3227">
        <ele>88</ele>
        <time>2011-07-03T06:58:42.000Z</time>
      </trkpt>
      <trkpt lat="46.53293" lon="0.32268">
        <ele>87.9</ele>
        <time>2011-07-03T06:58:43.000Z</time>
      </trkpt>
      <trkpt lat="46.53293" lon="0.32266">
        <ele>87.7</ele>
        <time>2011-07-03T06:58:44.000Z</time>
      </trkpt>
      <trkpt lat="46.53293" lon="0.32264">
        <ele>87.5</ele>
        <time>2011-07-03T06:58:45.000Z</time>
      </trkpt>
      <trkpt lat="46.5329" lon="0.32261">
        <ele>87.7</ele>
        <time>2011-07-03T06:58:48.000Z</time>
      </trkpt>
      <trkpt lat="46.53285" lon="0.32254">
        <ele>87.4</ele>
        <time>2011-07-03T06:58:52.000Z</time>
      </trkpt>
      <trkpt lat="46.53284" lon="0.32254">
        <ele>87.4</ele>
        <time>2011-07-03T06:58:53.000Z</time>
      </trkpt>
      <trkpt lat="46.5328" lon="0.32254">
        <ele>87.7</ele>
        <time>2011-07-03T06:58:58.000Z</time>
      </trkpt>
      <trkpt lat="46.53276" lon="0.32247">
        <ele>87.3</ele>
        <time>2011-07-03T06:59:03.000Z</time>
      </trkpt>
      <trkpt lat="46.53275" lon="0.32243">
        <ele>87.3</ele>
        <time>2011-07-03T06:59:05.000Z</time>
      </trkpt>
      <trkpt lat="46.53272" lon="0.32239">
        <ele>87.8</ele>
        <time>2011-07-03T06:59:08.000Z</time>
      </trkpt>
      <trkpt lat="46.53267" lon="0.32234">
        <ele>88.7</ele>
        <time>2011-07-03T06:59:14.000Z</time>
      </trkpt>
      <trkpt lat="46.53261" lon="0.32223">
        <ele>89.3</ele>
        <time>2011-07-03T06:59:20.000Z</time>
      </trkpt>
      <trkpt lat="46.53254" lon="0.32219">
        <ele>90</ele>
        <time>2011-07-03T06:59:24.000Z</time>
      </trkpt>
      <trkpt lat="46.53253" lon="0.32219">
        <ele>90.2</ele>
        <time>2011-07-03T06:59:25.000Z</time>
      </trkpt>
      <trkpt lat="46.5325" lon="0.32215">
        <ele>89.7</ele>
        <time>2011-07-03T06:59:27.000Z</time>
      </trkpt>
      <trkpt lat="46.53249" lon="0.32209">
        <ele>88.2</ele>
        <time>2011-07-03T06:59:29.000Z</time>
      </trkpt>
      <trkpt lat="46.53243" lon="0.32199">
        <ele>86.5</ele>
        <time>2011-07-03T06:59:33.000Z</time>
      </trkpt>
      <trkpt lat="46.53235" lon="0.32186">
        <ele>87.5</ele>
        <time>2011-07-03T06:59:38.000Z</time>
      </trkpt>
      <trkpt lat="46.53233" lon="0.32172">
        <ele>87.3</ele>
        <time>2011-07-03T06:59:42.000Z</time>
      </trkpt>
      <trkpt lat="46.53223" lon="0.32161">
        <ele>86.6</ele>
        <time>2011-07-03T06:59:47.000Z</time>
      </trkpt>
      <trkpt lat="46.53222" lon="0.32161">
        <ele>86.6</ele>
        <time>2011-07-03T06:59:48.000Z</time>
      </trkpt>
      <trkpt lat="46.5322" lon="0.3216">
        <ele>86.9</ele>
        <time>2011-07-03T06:59:49.000Z</time>
      </trkpt>
      <trkpt lat="46.53218" lon="0.3216">
        <ele>87.1</ele>
        <time>2011-07-03T06:59:50.000Z</time>
      </trkpt>
      <trkpt lat="46.53216" lon="0.32158">
        <ele>87.3</ele>
        <time>2011-07-03T06:59:51.000Z</time>
      </trkpt>
      <trkpt lat="46.53213" lon="0.32155">
        <ele>87.4</ele>
        <time>2011-07-03T06:59:52.000Z</time>
      </trkpt>
      <trkpt lat="46.53206" lon="0.3215">
        <ele>87.7</ele>
        <time>2011-07-03T06:59:55.000Z</time>
      </trkpt>
      <trkpt lat="46.53202" lon="0.32148">
        <ele>87.8</ele>
        <time>2011-07-03T06:59:57.000Z</time>
      </trkpt>
      <trkpt lat="46.53191" lon="0.32141">
        <ele>87.4</ele>
        <time>2011-07-03T07:00:03.000Z</time>
      </trkpt>
      <trkpt lat="46.53187" lon="0.32138">
        <ele>86.9</ele>
        <time>2011-07-03T07:00:09.000Z</time>
      </trkpt>
      <trkpt lat="46.53186" lon="0.32138">
        <ele>86.8</ele>
        <time>2011-07-03T07:00:13.000Z</time>
      </trkpt>
      <trkpt lat="46.53186" lon="0.32138">
        <ele>86.8</ele>
        <time>2011-07-03T07:00:14.000Z</time>
      </trkpt>
      <trkpt lat="46.53186" lon="0.32138">
        <ele>86.8</ele>
        <time>2011-07-03T07:00:15.000Z</time>
      </trkpt>
      <trkpt lat="46.53186" lon="0.32138">
        <ele>86.8</ele>
        <time>2011-07-03T07:00:17.000Z</time>
      </trkpt>
      <trkpt lat="46.53186" lon="0.32138">
        <ele>86.8</ele>
        <time>2011-07-03T07:00:18.000Z</time>
      </trkpt>
      <trkpt lat="46.53185" lon="0.32138">
        <ele>86.8</ele>
        <time>2011-07-03T07:00:19.000Z</time>
      </trkpt>
      <trkpt lat="46.53185" lon="0.32137">
        <ele>86.7</ele>
        <time>2011-07-03T07:00:20.000Z</time>
      </trkpt>
      <trkpt lat="46.53183" lon="0.32134">
        <ele>86</ele>
        <time>2011-07-03T07:00:24.000Z</time>
      </trkpt>
      <trkpt lat="46.53182" lon="0.32132">
        <ele>85.5</ele>
        <time>2011-07-03T07:00:25.000Z</time>
      </trkpt>
      <trkpt lat="46.53182" lon="0.32131">
        <ele>85.4</ele>
        <time>2011-07-03T07:00:26.000Z</time>
      </trkpt>
      <trkpt lat="46.53182" lon="0.3213">
        <ele>85.2</ele>
        <time>2011-07-03T07:00:27.000Z</time>
      </trkpt>
      <trkpt lat="46.53182" lon="0.3213">
        <ele>85.2</ele>
        <time>2011-07-03T07:00:28.000Z</time>
      </trkpt>
      <trkpt lat="46.53178" lon="0.32128">
        <ele>84.7</ele>
        <time>2011-07-03T07:00:31.000Z</time>
      </trkpt>
      <trkpt lat="46.53174" lon="0.32124">
        <ele>83.6</ele>
        <time>2011-07-03T07:00:34.000Z</time>
      </trkpt>
      <trkpt lat="46.5317" lon="0.32122">
        <ele>82.9</ele>
        <time>2011-07-03T07:00:36.000Z</time>
      </trkpt>
      <trkpt lat="46.53165" lon="0.32118">
        <ele>81.8</ele>
        <time>2011-07-03T07:00:38.000Z</time>
      </trkpt>
      <trkpt lat="46.53163" lon="0.32116">
        <ele>81.3</ele>
        <time>2011-07-03T07:00:39.000Z</time>
      </trkpt>
      <trkpt lat="46.53161" lon="0.32114">
        <ele>80.9</ele>
        <time>2011-07-03T07:00:40.000Z</time>
      </trkpt>
      <trkpt lat="46.53158" lon="0.32113">
        <ele>80.9</ele>
        <time>2011-07-03T07:00:41.000Z</time>
      </trkpt>
      <trkpt lat="46.53155" lon="0.32113">
        <ele>80.8</ele>
        <time>2011-07-03T07:00:42.000Z</time>
      </trkpt>
      <trkpt lat="46.53153" lon="0.32112">
        <ele>80.7</ele>
        <time>2011-07-03T07:00:43.000Z</time>
      </trkpt>
      <trkpt lat="46.5315" lon="0.3211">
        <ele>80.6</ele>
        <time>2011-07-03T07:00:46.000Z</time>
      </trkpt>
      <trkpt lat="46.53146" lon="0.3211">
        <ele>80.7</ele>
        <time>2011-07-03T07:00:50.000Z</time>
      </trkpt>
      <trkpt lat="46.53146" lon="0.3211">
        <ele>80.7</ele>
        <time>2011-07-03T07:00:56.000Z</time>
      </trkpt>
      <trkpt lat="46.53146" lon="0.3211">
        <ele>80.7</ele>
        <time>2011-07-03T07:01:00.000Z</time>
      </trkpt>
      <trkpt lat="46.53146" lon="0.3211">
        <ele>80.7</ele>
        <time>2011-07-03T07:01:08.000Z</time>
      </trkpt>
      <trkpt lat="46.53146" lon="0.3211">
        <ele>80.7</ele>
        <time>2011-07-03T07:01:15.000Z</time>
      </trkpt>
      <trkpt lat="46.53146" lon="0.3211">
        <ele>80.7</ele>
        <time>2011-07-03T07:01:21.000Z</time>
      </trkpt>
      <trkpt lat="46.53146" lon="0.3211">
        <ele>80.7</ele>
        <time>2011-07-03T07:01:28.000Z</time>
      </trkpt>
      <trkpt lat="46.53142" lon="0.3211">
        <ele>80.9</ele>
        <time>2011-07-03T07:01:37.000Z</time>
      </trkpt>
      <trkpt lat="46.53136" lon="0.32111">
        <ele>81.2</ele>
        <time>2011-07-03T07:01:41.000Z</time>
      </trkpt>
      <trkpt lat="46.53134" lon="0.32111">
        <ele>81.3</ele>
        <time>2011-07-03T07:01:43.000Z</time>
      </trkpt>
      <trkpt lat="46.53132" lon="0.32108">
        <ele>81.4</ele>
        <time>2011-07-03T07:01:45.000Z</time>
      </trkpt>
      <trkpt lat="46.53127" lon="0.32103">
        <ele>81.5</ele>
        <time>2011-07-03T07:01:48.000Z</time>
      </trkpt>
      <trkpt lat="46.53112" lon="0.32097">
        <ele>81.4</ele>
        <time>2011-07-03T07:01:54.000Z</time>
      </trkpt>
      <trkpt lat="46.53102" lon="0.3209">
        <ele>82.1</ele>
        <time>2011-07-03T07:01:58.000Z</time>
      </trkpt>
      <trkpt lat="46.531" lon="0.32089">
        <ele>82.4</ele>
        <time>2011-07-03T07:01:59.000Z</time>
      </trkpt>
      <trkpt lat="46.53099" lon="0.32087">
        <ele>82.3</ele>
        <time>2011-07-03T07:02:00.000Z</time>
      </trkpt>
      <trkpt lat="46.53096" lon="0.32087">
        <ele>82.7</ele>
        <time>2011-07-03T07:02:02.000Z</time>
      </trkpt>
      <trkpt lat="46.53092" lon="0.32084">
        <ele>82.8</ele>
        <time>2011-07-03T07:02:04.000Z</time>
      </trkpt>
      <trkpt lat="46.53089" lon="0.3208">
        <ele>82.9</ele>
        <time>2011-07-03T07:02:07.000Z</time>
      </trkpt>
      <trkpt lat="46.53086" lon="0.32079">
        <ele>83.1</ele>
        <time>2011-07-03T07:02:10.000Z</time>
      </trkpt>
      <trkpt lat="46.53086" lon="0.32078">
        <ele>83.1</ele>
        <time>2011-07-03T07:02:11.000Z</time>
      </trkpt>
      <trkpt lat="46.53085" lon="0.32077">
        <ele>83.1</ele>
        <time>2011-07-03T07:02:12.000Z</time>
      </trkpt>
      <trkpt lat="46.53085" lon="0.32076">
        <ele>83</ele>
        <time>2011-07-03T07:02:13.000Z</time>
      </trkpt>
      <trkpt lat="46.53084" lon="0.32074">
        <ele>82.9</ele>
        <time>2011-07-03T07:02:14.000Z</time>
      </trkpt>
      <trkpt lat="46.53084" lon="0.32071">
        <ele>82.6</ele>
        <time>2011-07-03T07:02:15.000Z</time>
      </trkpt>
      <trkpt lat="46.53084" lon="0.32067">
        <ele>82.2</ele>
        <time>2011-07-03T07:02:16.000Z</time>
      </trkpt>
      <trkpt lat="46.53081" lon="0.3206">
        <ele>82.1</ele>
        <time>2011-07-03T07:02:18.000Z</time>
      </trkpt>
      <trkpt lat="46.5308" lon="0.32053">
        <ele>81.8</ele>
        <time>2011-07-03T07:02:21.000Z</time>
      </trkpt>
      <trkpt lat="46.53078" lon="0.32044">
        <ele>82</ele>
        <time>2011-07-03T07:02:25.000Z</time>
      </trkpt>
      <trkpt lat="46.53075" lon="0.32038">
        <ele>82.6</ele>
        <time>2011-07-03T07:02:27.000Z</time>
      </trkpt>
      <trkpt lat="46.53071" lon="0.32023">
        <ele>82.6</ele>
        <time>2011-07-03T07:02:33.000Z</time>
      </trkpt>
      <trkpt lat="46.53071" lon="0.32011">
        <ele>82.2</ele>
        <time>2011-07-03T07:02:39.000Z</time>
      </trkpt>
      <trkpt lat="46.53068" lon="0.32">
        <ele>82.1</ele>
        <time>2011-07-03T07:02:46.000Z</time>
      </trkpt>
      <trkpt lat="46.53068" lon="0.31986">
        <ele>81.8</ele>
        <time>2011-07-03T07:02:51.000Z</time>
      </trkpt>
      <trkpt lat="46.5307" lon="0.31963">
        <ele>81.5</ele>
        <time>2011-07-03T07:02:57.000Z</time>
      </trkpt>
      <trkpt lat="46.53069" lon="0.3195">
        <ele>81.5</ele>
        <time>2011-07-03T07:03:00.000Z</time>
      </trkpt>
      <trkpt lat="46.53068" lon="0.31944">
        <ele>81.5</ele>
        <time>2011-07-03T07:03:02.000Z</time>
      </trkpt>
      <trkpt lat="46.53068" lon="0.31938">
        <ele>81.6</ele>
        <time>2011-07-03T07:03:04.000Z</time>
      </trkpt>
      <trkpt lat="46.53068" lon="0.3193">
        <ele>81.6</ele>
        <time>2011-07-03T07:03:07.000Z</time>
      </trkpt>
      <trkpt lat="46.53066" lon="0.31916">
        <ele>81.6</ele>
        <time>2011-07-03T07:03:13.000Z</time>
      </trkpt>
      <trkpt lat="46.53065" lon="0.31912">
        <ele>81.8</ele>
        <time>2011-07-03T07:03:15.000Z</time>
      </trkpt>
      <trkpt lat="46.53065" lon="0.31909">
        <ele>81.8</ele>
        <time>2011-07-03T07:03:17.000Z</time>
      </trkpt>
      <trkpt lat="46.53067" lon="0.31898">
        <ele>82</ele>
        <time>2011-07-03T07:03:22.000Z</time>
      </trkpt>
      <trkpt lat="46.53065" lon="0.31892">
        <ele>82.2</ele>
        <time>2011-07-03T07:03:26.000Z</time>
      </trkpt>
      <trkpt lat="46.53066" lon="0.31887">
        <ele>82.3</ele>
        <time>2011-07-03T07:03:28.000Z</time>
      </trkpt>
      <trkpt lat="46.53066" lon="0.31882">
        <ele>82.3</ele>
        <time>2011-07-03T07:03:30.000Z</time>
      </trkpt>
      <trkpt lat="46.53065" lon="0.31876">
        <ele>82.5</ele>
        <time>2011-07-03T07:03:33.000Z</time>
      </trkpt>
      <trkpt lat="46.53062" lon="0.31872">
        <ele>82.7</ele>
        <time>2011-07-03T07:03:37.000Z</time>
      </trkpt>
      <trkpt lat="46.5306" lon="0.31869">
        <ele>82.8</ele>
        <time>2011-07-03T07:03:39.000Z</time>
      </trkpt>
      <trkpt lat="46.53054" lon="0.31863">
        <ele>83.4</ele>
        <time>2011-07-03T07:03:43.000Z</time>
      </trkpt>
      <trkpt lat="46.53051" lon="0.31859">
        <ele>84.1</ele>
        <time>2011-07-03T07:03:45.000Z</time>
      </trkpt>
      <trkpt lat="46.53045" lon="0.31852">
        <ele>86</ele>
        <time>2011-07-03T07:03:50.000Z</time>
      </trkpt>
      <trkpt lat="46.53044" lon="0.31849">
        <ele>86.3</ele>
        <time>2011-07-03T07:03:51.000Z</time>
      </trkpt>
      <trkpt lat="46.53043" lon="0.31847">
        <ele>86.6</ele>
        <time>2011-07-03T07:03:52.000Z</time>
      </trkpt>
      <trkpt lat="46.53041" lon="0.31845">
        <ele>86.9</ele>
        <time>2011-07-03T07:03:53.000Z</time>
      </trkpt>
      <trkpt lat="46.5304" lon="0.31843">
        <ele>87.1</ele>
        <time>2011-07-03T07:03:54.000Z</time>
      </trkpt>
      <trkpt lat="46.53037" lon="0.3184">
        <ele>87.5</ele>
        <time>2011-07-03T07:03:56.000Z</time>
      </trkpt>
      <trkpt lat="46.53036" lon="0.31839">
        <ele>87.6</ele>
        <time>2011-07-03T07:03:57.000Z</time>
      </trkpt>
      <trkpt lat="46.53034" lon="0.31838">
        <ele>87.7</ele>
        <time>2011-07-03T07:03:58.000Z</time>
      </trkpt>
      <trkpt lat="46.53033" lon="0.31837">
        <ele>87.8</ele>
        <time>2011-07-03T07:03:59.000Z</time>
      </trkpt>
      <trkpt lat="46.53032" lon="0.31836">
        <ele>87.9</ele>
        <time>2011-07-03T07:04:00.000Z</time>
      </trkpt>
      <trkpt lat="46.53031" lon="0.31835">
        <ele>87.9</ele>
        <time>2011-07-03T07:04:01.000Z</time>
      </trkpt>
      <trkpt lat="46.53031" lon="0.31835">
        <ele>87.9</ele>
        <time>2011-07-03T07:04:02.000Z</time>
      </trkpt>
      <trkpt lat="46.53035" lon="0.31833">
        <ele>87.8</ele>
        <time>2011-07-03T07:04:05.000Z</time>
      </trkpt>
      <trkpt lat="46.5304" lon="0.3183">
        <ele>87.7</ele>
        <time>2011-07-03T07:04:08.000Z</time>
      </trkpt>
      <trkpt lat="46.53044" lon="0.31829">
        <ele>87.6</ele>
        <time>2011-07-03T07:04:11.000Z</time>
      </trkpt>
      <trkpt lat="46.53046" lon="0.31824">
        <ele>87.7</ele>
        <time>2011-07-03T07:04:13.000Z</time>
      </trkpt>
      <trkpt lat="46.53047" lon="0.31811">
        <ele>88</ele>
        <time>2011-07-03T07:04:18.000Z</time>
      </trkpt>
      <trkpt lat="46.53047" lon="0.31808">
        <ele>88.1</ele>
        <time>2011-07-03T07:04:19.000Z</time>
      </trkpt>
      <trkpt lat="46.53048" lon="0.31804">
        <ele>88.1</ele>
        <time>2011-07-03T07:04:20.000Z</time>
      </trkpt>
      <trkpt lat="46.53047" lon="0.318">
        <ele>88</ele>
        <time>2011-07-03T07:04:21.000Z</time>
      </trkpt>
      <trkpt lat="46.53047" lon="0.31798">
        <ele>88</ele>
        <time>2011-07-03T07:04:22.000Z</time>
      </trkpt>
      <trkpt lat="46.53046" lon="0.31795">
        <ele>88.1</ele>
        <time>2011-07-03T07:04:23.000Z</time>
      </trkpt>
      <trkpt lat="46.53041" lon="0.31785">
        <ele>89.2</ele>
        <time>2011-07-03T07:04:28.000Z</time>
      </trkpt>
      <trkpt lat="46.53039" lon="0.31783">
        <ele>89.6</ele>
        <time>2011-07-03T07:04:29.000Z</time>
      </trkpt>
      <trkpt lat="46.53039" lon="0.31781">
        <ele>89.9</ele>
        <time>2011-07-03T07:04:30.000Z</time>
      </trkpt>
      <trkpt lat="46.53038" lon="0.31778">
        <ele>90</ele>
        <time>2011-07-03T07:04:31.000Z</time>
      </trkpt>
      <trkpt lat="46.53039" lon="0.31775">
        <ele>90</ele>
        <time>2011-07-03T07:04:32.000Z</time>
      </trkpt>
      <trkpt lat="46.53039" lon="0.31772">
        <ele>90</ele>
        <time>2011-07-03T07:04:33.000Z</time>
      </trkpt>
      <trkpt lat="46.53037" lon="0.3176">
        <ele>91</ele>
        <time>2011-07-03T07:04:37.000Z</time>
      </trkpt>
      <trkpt lat="46.53034" lon="0.31752">
        <ele>92.6</ele>
        <time>2011-07-03T07:04:40.000Z</time>
      </trkpt>
      <trkpt lat="46.53032" lon="0.31748">
        <ele>93.2</ele>
        <time>2011-07-03T07:04:41.000Z</time>
      </trkpt>
      <trkpt lat="46.53031" lon="0.31745">
        <ele>93.6</ele>
        <time>2011-07-03T07:04:42.000Z</time>
      </trkpt>
      <trkpt lat="46.5303" lon="0.31742">
        <ele>94</ele>
        <time>2011-07-03T07:04:43.000Z</time>
      </trkpt>
      <trkpt lat="46.5303" lon="0.3174">
        <ele>94</ele>
        <time>2011-07-03T07:04:44.000Z</time>
      </trkpt>
      <trkpt lat="46.5303" lon="0.31738">
        <ele>94.2</ele>
        <time>2011-07-03T07:04:45.000Z</time>
      </trkpt>
      <trkpt lat="46.53029" lon="0.31737">
        <ele>94.5</ele>
        <time>2011-07-03T07:04:46.000Z</time>
      </trkpt>
      <trkpt lat="46.53029" lon="0.31724">
        <ele>94.5</ele>
        <time>2011-07-03T07:04:51.000Z</time>
      </trkpt>
      <trkpt lat="46.53029" lon="0.31721">
        <ele>94.6</ele>
        <time>2011-07-03T07:04:52.000Z</time>
      </trkpt>
      <trkpt lat="46.53029" lon="0.31718">
        <ele>94.7</ele>
        <time>2011-07-03T07:04:53.000Z</time>
      </trkpt>
      <trkpt lat="46.53029" lon="0.31715">
        <ele>94.9</ele>
        <time>2011-07-03T07:04:54.000Z</time>
      </trkpt>
      <trkpt lat="46.53028" lon="0.31711">
        <ele>95.2</ele>
        <time>2011-07-03T07:04:55.000Z</time>
      </trkpt>
      <trkpt lat="46.53028" lon="0.31708">
        <ele>95.5</ele>
        <time>2011-07-03T07:04:56.000Z</time>
      </trkpt>
      <trkpt lat="46.53027" lon="0.31706">
        <ele>95.9</ele>
        <time>2011-07-03T07:04:57.000Z</time>
      </trkpt>
      <trkpt lat="46.53026" lon="0.31704">
        <ele>96.1</ele>
        <time>2011-07-03T07:04:58.000Z</time>
      </trkpt>
      <trkpt lat="46.53026" lon="0.31701">
        <ele>96.3</ele>
        <time>2011-07-03T07:04:59.000Z</time>
      </trkpt>
      <trkpt lat="46.53027" lon="0.31699">
        <ele>96.2</ele>
        <time>2011-07-03T07:05:00.000Z</time>
      </trkpt>
      <trkpt lat="46.53026" lon="0.31697">
        <ele>96.4</ele>
        <time>2011-07-03T07:05:01.000Z</time>
      </trkpt>
      <trkpt lat="46.53026" lon="0.31695">
        <ele>96.5</ele>
        <time>2011-07-03T07:05:02.000Z</time>
      </trkpt>
      <trkpt lat="46.53026" lon="0.31684">
        <ele>96.9</ele>
        <time>2011-07-03T07:05:08.000Z</time>
      </trkpt>
      <trkpt lat="46.53026" lon="0.31684">
        <ele>97</ele>
        <time>2011-07-03T07:05:09.000Z</time>
      </trkpt>
      <trkpt lat="46.53025" lon="0.31682">
        <ele>97.3</ele>
        <time>2011-07-03T07:05:10.000Z</time>
      </trkpt>
      <trkpt lat="46.53024" lon="0.31681">
        <ele>97.7</ele>
        <time>2011-07-03T07:05:11.000Z</time>
      </trkpt>
      <trkpt lat="46.53024" lon="0.3168">
        <ele>97.9</ele>
        <time>2011-07-03T07:05:12.000Z</time>
      </trkpt>
      <trkpt lat="46.53024" lon="0.31679">
        <ele>98.1</ele>
        <time>2011-07-03T07:05:13.000Z</time>
      </trkpt>
      <trkpt lat="46.5302" lon="0.31676">
        <ele>99.6</ele>
        <time>2011-07-03T07:05:18.000Z</time>
      </trkpt>
      <trkpt lat="46.53019" lon="0.31675">
        <ele>99.8</ele>
        <time>2011-07-03T07:05:19.000Z</time>
      </trkpt>
      <trkpt lat="46.53019" lon="0.31674">
        <ele>100.2</ele>
        <time>2011-07-03T07:05:20.000Z</time>
      </trkpt>
      <trkpt lat="46.53018" lon="0.31673">
        <ele>100.6</ele>
        <time>2011-07-03T07:05:21.000Z</time>
      </trkpt>
      <trkpt lat="46.53016" lon="0.31671">
        <ele>101.2</ele>
        <time>2011-07-03T07:05:22.000Z</time>
      </trkpt>
      <trkpt lat="46.53016" lon="0.31667">
        <ele>101.8</ele>
        <time>2011-07-03T07:05:27.000Z</time>
      </trkpt>
      <trkpt lat="46.53015" lon="0.31664">
        <ele>102.1</ele>
        <time>2011-07-03T07:05:30.000Z</time>
      </trkpt>
      <trkpt lat="46.53015" lon="0.31664">
        <ele>102.1</ele>
        <time>2011-07-03T07:05:31.000Z</time>
      </trkpt>
      <trkpt lat="46.53014" lon="0.31664">
        <ele>102.4</ele>
        <time>2011-07-03T07:05:32.000Z</time>
      </trkpt>
      <trkpt lat="46.53014" lon="0.31663">
        <ele>102.6</ele>
        <time>2011-07-03T07:05:33.000Z</time>
      </trkpt>
      <trkpt lat="46.53014" lon="0.31663">
        <ele>102.6</ele>
        <time>2011-07-03T07:05:34.000Z</time>
      </trkpt>
      <trkpt lat="46.53011" lon="0.31664">
        <ele>103.5</ele>
        <time>2011-07-03T07:05:37.000Z</time>
      </trkpt>
      <trkpt lat="46.5301" lon="0.31665">
        <ele>104</ele>
        <time>2011-07-03T07:05:39.000Z</time>
      </trkpt>
      <trkpt lat="46.5301" lon="0.31664">
        <ele>104</ele>
        <time>2011-07-03T07:05:42.000Z</time>
      </trkpt>
      <trkpt lat="46.5301" lon="0.31664">
        <ele>104.1</ele>
        <time>2011-07-03T07:05:43.000Z</time>
      </trkpt>
      <trkpt lat="46.53009" lon="0.31664">
        <ele>104.3</ele>
        <time>2011-07-03T07:05:44.000Z</time>
      </trkpt>
      <trkpt lat="46.53009" lon="0.31663">
        <ele>104.6</ele>
        <time>2011-07-03T07:05:45.000Z</time>
      </trkpt>
      <trkpt lat="46.53009" lon="0.31663">
        <ele>104.6</ele>
        <time>2011-07-03T07:05:46.000Z</time>
      </trkpt>
      <trkpt lat="46.53007" lon="0.3166">
        <ele>105.3</ele>
        <time>2011-07-03T07:05:52.000Z</time>
      </trkpt>
      <trkpt lat="46.53003" lon="0.31656">
        <ele>107</ele>
        <time>2011-07-03T07:05:59.000Z</time>
      </trkpt>
      <trkpt lat="46.53003" lon="0.31649">
        <ele>106.8</ele>
        <time>2011-07-03T07:06:03.000Z</time>
      </trkpt>
      <trkpt lat="46.53003" lon="0.31647">
        <ele>106.8</ele>
        <time>2011-07-03T07:06:04.000Z</time>
      </trkpt>
      <trkpt lat="46.53002" lon="0.31644">
        <ele>107.1</ele>
        <time>2011-07-03T07:06:05.000Z</time>
      </trkpt>
      <trkpt lat="46.53001" lon="0.31642">
        <ele>107.6</ele>
        <time>2011-07-03T07:06:06.000Z</time>
      </trkpt>
      <trkpt lat="46.53" lon="0.3164">
        <ele>108</ele>
        <time>2011-07-03T07:06:07.000Z</time>
      </trkpt>
      <trkpt lat="46.52999" lon="0.31639">
        <ele>108.2</ele>
        <time>2011-07-03T07:06:08.000Z</time>
      </trkpt>
      <trkpt lat="46.52999" lon="0.31637">
        <ele>108.3</ele>
        <time>2011-07-03T07:06:09.000Z</time>
      </trkpt>
      <trkpt lat="46.52997" lon="0.31627">
        <ele>108.8</ele>
        <time>2011-07-03T07:06:13.000Z</time>
      </trkpt>
      <trkpt lat="46.52997" lon="0.31624">
        <ele>108.8</ele>
        <time>2011-07-03T07:06:14.000Z</time>
      </trkpt>
      <trkpt lat="46.52997" lon="0.31621">
        <ele>108.8</ele>
        <time>2011-07-03T07:06:15.000Z</time>
      </trkpt>
      <trkpt lat="46.52996" lon="0.31618">
        <ele>108.9</ele>
        <time>2011-07-03T07:06:16.000Z</time>
      </trkpt>
      <trkpt lat="46.52996" lon="0.31615">
        <ele>109</ele>
        <time>2011-07-03T07:06:17.000Z</time>
      </trkpt>
      <trkpt lat="46.52996" lon="0.31612">
        <ele>109.1</ele>
        <time>2011-07-03T07:06:18.000Z</time>
      </trkpt>
      <trkpt lat="46.52993" lon="0.31587">
        <ele>108.3</ele>
        <time>2011-07-03T07:06:26.000Z</time>
      </trkpt>
      <trkpt lat="46.52994" lon="0.31585">
        <ele>108.2</ele>
        <time>2011-07-03T07:06:27.000Z</time>
      </trkpt>
      <trkpt lat="46.52992" lon="0.31575">
        <ele>108.4</ele>
        <time>2011-07-03T07:06:30.000Z</time>
      </trkpt>
      <trkpt lat="46.52988" lon="0.31566">
        <ele>109.4</ele>
        <time>2011-07-03T07:06:33.000Z</time>
      </trkpt>
      <trkpt lat="46.52988" lon="0.31563">
        <ele>109.5</ele>
        <time>2011-07-03T07:06:34.000Z</time>
      </trkpt>
      <trkpt lat="46.52985" lon="0.31549">
        <ele>109.8</ele>
        <time>2011-07-03T07:06:38.000Z</time>
      </trkpt>
      <trkpt lat="46.52982" lon="0.31537">
        <ele>110</ele>
        <time>2011-07-03T07:06:42.000Z</time>
      </trkpt>
      <trkpt lat="46.52977" lon="0.31516">
        <ele>109.9</ele>
        <time>2011-07-03T07:06:47.000Z</time>
      </trkpt>
      <trkpt lat="46.52971" lon="0.31491">
        <ele>110.3</ele>
        <time>2011-07-03T07:06:52.000Z</time>
      </trkpt>
      <trkpt lat="46.52966" lon="0.31467">
        <ele>109.4</ele>
        <time>2011-07-03T07:06:57.000Z</time>
      </trkpt>
      <trkpt lat="46.52959" lon="0.3145">
        <ele>110.1</ele>
        <time>2011-07-03T07:07:01.000Z</time>
      </trkpt>
      <trkpt lat="46.52958" lon="0.31446">
        <ele>110.3</ele>
        <time>2011-07-03T07:07:02.000Z</time>
      </trkpt>
      <trkpt lat="46.52953" lon="0.31434">
        <ele>110.2</ele>
        <time>2011-07-03T07:07:06.000Z</time>
      </trkpt>
      <trkpt lat="46.5295" lon="0.31431">
        <ele>110.8</ele>
        <time>2011-07-03T07:07:10.000Z</time>
      </trkpt>
      <trkpt lat="46.5295" lon="0.31429">
        <ele>110.6</ele>
        <time>2011-07-03T07:07:13.000Z</time>
      </trkpt>
      <trkpt lat="46.52949" lon="0.31427">
        <ele>110.6</ele>
        <time>2011-07-03T07:07:17.000Z</time>
      </trkpt>
      <trkpt lat="46.52949" lon="0.31427">
        <ele>110.6</ele>
        <time>2011-07-03T07:07:19.000Z</time>
      </trkpt>
      <trkpt lat="46.52949" lon="0.31427">
        <ele>110.6</ele>
        <time>2011-07-03T07:07:25.000Z</time>
      </trkpt>
      <trkpt lat="46.52949" lon="0.31427">
        <ele>110.6</ele>
        <time>2011-07-03T07:07:26.000Z</time>
      </trkpt>
      <trkpt lat="46.52949" lon="0.31427">
        <ele>110.6</ele>
        <time>2011-07-03T07:07:28.000Z</time>
      </trkpt>
      <trkpt lat="46.52949" lon="0.31427">
        <ele>110.6</ele>
        <time>2011-07-03T07:07:29.000Z</time>
      </trkpt>
      <trkpt lat="46.52949" lon="0.31427">
        <ele>110.6</ele>
        <time>2011-07-03T07:07:32.000Z</time>
      </trkpt>
      <trkpt lat="46.52949" lon="0.31427">
        <ele>110.6</ele>
        <time>2011-07-03T07:07:38.000Z</time>
      </trkpt>
      <trkpt lat="46.5295" lon="0.31423">
        <ele>109.7</ele>
        <time>2011-07-03T07:07:46.000Z</time>
      </trkpt>
      <trkpt lat="46.5295" lon="0.3142">
        <ele>109</ele>
        <time>2011-07-03T07:07:47.000Z</time>
      </trkpt>
      <trkpt lat="46.52951" lon="0.31403">
        <ele>106.2</ele>
        <time>2011-07-03T07:07:50.000Z</time>
      </trkpt>
      <trkpt lat="46.52948" lon="0.31389">
        <ele>105.3</ele>
        <time>2011-07-03T07:07:52.000Z</time>
      </trkpt>
      <trkpt lat="46.52947" lon="0.31381">
        <ele>104.9</ele>
        <time>2011-07-03T07:07:53.000Z</time>
      </trkpt>
      <trkpt lat="46.52945" lon="0.31374">
        <ele>104.6</ele>
        <time>2011-07-03T07:07:54.000Z</time>
      </trkpt>
      <trkpt lat="46.52943" lon="0.31367">
        <ele>104.3</ele>
        <time>2011-07-03T07:07:55.000Z</time>
      </trkpt>
      <trkpt lat="46.52941" lon="0.31359">
        <ele>104.2</ele>
        <time>2011-07-03T07:07:56.000Z</time>
      </trkpt>
      <trkpt lat="46.52939" lon="0.31353">
        <ele>103.5</ele>
        <time>2011-07-03T07:07:57.000Z</time>
      </trkpt>
      <trkpt lat="46.52935" lon="0.31338">
        <ele>102.3</ele>
        <time>2011-07-03T07:07:59.000Z</time>
      </trkpt>
      <trkpt lat="46.52933" lon="0.31332">
        <ele>101.5</ele>
        <time>2011-07-03T07:08:00.000Z</time>
      </trkpt>
      <trkpt lat="46.52932" lon="0.31324">
        <ele>100.6</ele>
        <time>2011-07-03T07:08:01.000Z</time>
      </trkpt>
      <trkpt lat="46.52931" lon="0.31317">
        <ele>99.5</ele>
        <time>2011-07-03T07:08:02.000Z</time>
      </trkpt>
      <trkpt lat="46.52929" lon="0.3131">
        <ele>98.6</ele>
        <time>2011-07-03T07:08:03.000Z</time>
      </trkpt>
      <trkpt lat="46.52928" lon="0.31305">
        <ele>97.9</ele>
        <time>2011-07-03T07:08:04.000Z</time>
      </trkpt>
      <trkpt lat="46.52926" lon="0.31299">
        <ele>97.4</ele>
        <time>2011-07-03T07:08:05.000Z</time>
      </trkpt>
      <trkpt lat="46.52924" lon="0.31292">
        <ele>96.5</ele>
        <time>2011-07-03T07:08:06.000Z</time>
      </trkpt>
      <trkpt lat="46.52923" lon="0.31286">
        <ele>95.1</ele>
        <time>2011-07-03T07:08:07.000Z</time>
      </trkpt>
      <trkpt lat="46.52921" lon="0.31278">
        <ele>93.5</ele>
        <time>2011-07-03T07:08:08.000Z</time>
      </trkpt>
      <trkpt lat="46.5292" lon="0.31273">
        <ele>92.4</ele>
        <time>2011-07-03T07:08:09.000Z</time>
      </trkpt>
      <trkpt lat="46.52919" lon="0.31269">
        <ele>91.3</ele>
        <time>2011-07-03T07:08:10.000Z</time>
      </trkpt>
      <trkpt lat="46.52919" lon="0.31264">
        <ele>89.9</ele>
        <time>2011-07-03T07:08:11.000Z</time>
      </trkpt>
      <trkpt lat="46.52918" lon="0.31256">
        <ele>87.8</ele>
        <time>2011-07-03T07:08:12.000Z</time>
      </trkpt>
      <trkpt lat="46.52916" lon="0.31246">
        <ele>86.1</ele>
        <time>2011-07-03T07:08:13.000Z</time>
      </trkpt>
      <trkpt lat="46.52916" lon="0.31239">
        <ele>86.3</ele>
        <time>2011-07-03T07:08:14.000Z</time>
      </trkpt>
      <trkpt lat="46.52915" lon="0.31232">
        <ele>86.4</ele>
        <time>2011-07-03T07:08:15.000Z</time>
      </trkpt>
      <trkpt lat="46.52914" lon="0.31229">
        <ele>86.7</ele>
        <time>2011-07-03T07:08:16.000Z</time>
      </trkpt>
      <trkpt lat="46.52912" lon="0.31225">
        <ele>86.9</ele>
        <time>2011-07-03T07:08:17.000Z</time>
      </trkpt>
      <trkpt lat="46.52909" lon="0.31221">
        <ele>87.2</ele>
        <time>2011-07-03T07:08:18.000Z</time>
      </trkpt>
      <trkpt lat="46.52906" lon="0.31216">
        <ele>87.8</ele>
        <time>2011-07-03T07:08:19.000Z</time>
      </trkpt>
      <trkpt lat="46.52903" lon="0.31211">
        <ele>88.4</ele>
        <time>2011-07-03T07:08:20.000Z</time>
      </trkpt>
      <trkpt lat="46.5289" lon="0.31194">
        <ele>88</ele>
        <time>2011-07-03T07:08:26.000Z</time>
      </trkpt>
      <trkpt lat="46.52885" lon="0.31184">
        <ele>87.7</ele>
        <time>2011-07-03T07:08:30.000Z</time>
      </trkpt>
      <trkpt lat="46.52883" lon="0.31178">
        <ele>87.5</ele>
        <time>2011-07-03T07:08:32.000Z</time>
      </trkpt>
      <trkpt lat="46.52882" lon="0.31177">
        <ele>87.5</ele>
        <time>2011-07-03T07:08:33.000Z</time>
      </trkpt>
      <trkpt lat="46.52879" lon="0.31172">
        <ele>87.5</ele>
        <time>2011-07-03T07:08:36.000Z</time>
      </trkpt>
      <trkpt lat="46.52877" lon="0.31165">
        <ele>87.1</ele>
        <time>2011-07-03T07:08:40.000Z</time>
      </trkpt>
      <trkpt lat="46.52873" lon="0.31154">
        <ele>87.5</ele>
        <time>2011-07-03T07:08:44.000Z</time>
      </trkpt>
      <trkpt lat="46.52873" lon="0.31151">
        <ele>87.5</ele>
        <time>2011-07-03T07:08:45.000Z</time>
      </trkpt>
      <trkpt lat="46.52871" lon="0.3114">
        <ele>87.3</ele>
        <time>2011-07-03T07:08:48.000Z</time>
      </trkpt>
      <trkpt lat="46.5287" lon="0.31137">
        <ele>87.3</ele>
        <time>2011-07-03T07:08:49.000Z</time>
      </trkpt>
      <trkpt lat="46.52869" lon="0.31133">
        <ele>87.2</ele>
        <time>2011-07-03T07:08:50.000Z</time>
      </trkpt>
      <trkpt lat="46.52865" lon="0.3112">
        <ele>86.7</ele>
        <time>2011-07-03T07:08:54.000Z</time>
      </trkpt>
      <trkpt lat="46.52863" lon="0.31118">
        <ele>86.6</ele>
        <time>2011-07-03T07:08:55.000Z</time>
      </trkpt>
      <trkpt lat="46.52853" lon="0.31099">
        <ele>87</ele>
        <time>2011-07-03T07:09:02.000Z</time>
      </trkpt>
      <trkpt lat="46.52847" lon="0.31083">
        <ele>87.1</ele>
        <time>2011-07-03T07:09:07.000Z</time>
      </trkpt>
      <trkpt lat="46.52843" lon="0.31076">
        <ele>87.4</ele>
        <time>2011-07-03T07:09:09.000Z</time>
      </trkpt>
      <trkpt lat="46.52841" lon="0.3107">
        <ele>87.6</ele>
        <time>2011-07-03T07:09:11.000Z</time>
      </trkpt>
      <trkpt lat="46.52835" lon="0.31059">
        <ele>88</ele>
        <time>2011-07-03T07:09:15.000Z</time>
      </trkpt>
      <trkpt lat="46.52828" lon="0.31045">
        <ele>88.9</ele>
        <time>2011-07-03T07:09:19.000Z</time>
      </trkpt>
      <trkpt lat="46.52826" lon="0.31042">
        <ele>89.2</ele>
        <time>2011-07-03T07:09:20.000Z</time>
      </trkpt>
      <trkpt lat="46.52825" lon="0.31038">
        <ele>89.3</ele>
        <time>2011-07-03T07:09:21.000Z</time>
      </trkpt>
      <trkpt lat="46.52823" lon="0.31035">
        <ele>89.5</ele>
        <time>2011-07-03T07:09:22.000Z</time>
      </trkpt>
      <trkpt lat="46.52822" lon="0.31031">
        <ele>89.7</ele>
        <time>2011-07-03T07:09:23.000Z</time>
      </trkpt>
      <trkpt lat="46.52817" lon="0.31018">
        <ele>90.3</ele>
        <time>2011-07-03T07:09:27.000Z</time>
      </trkpt>
      <trkpt lat="46.52816" lon="0.31016">
        <ele>90.5</ele>
        <time>2011-07-03T07:09:28.000Z</time>
      </trkpt>
      <trkpt lat="46.52816" lon="0.31013">
        <ele>90.6</ele>
        <time>2011-07-03T07:09:29.000Z</time>
      </trkpt>
      <trkpt lat="46.52815" lon="0.3101">
        <ele>90.8</ele>
        <time>2011-07-03T07:09:30.000Z</time>
      </trkpt>
      <trkpt lat="46.52814" lon="0.31008">
        <ele>90.9</ele>
        <time>2011-07-03T07:09:31.000Z</time>
      </trkpt>
      <trkpt lat="46.52813" lon="0.31005">
        <ele>91.3</ele>
        <time>2011-07-03T07:09:32.000Z</time>
      </trkpt>
      <trkpt lat="46.5281" lon="0.30999">
        <ele>92</ele>
        <time>2011-07-03T07:09:34.000Z</time>
      </trkpt>
      <trkpt lat="46.52808" lon="0.30997">
        <ele>92.2</ele>
        <time>2011-07-03T07:09:35.000Z</time>
      </trkpt>
      <trkpt lat="46.52805" lon="0.30991">
        <ele>92.9</ele>
        <time>2011-07-03T07:09:37.000Z</time>
      </trkpt>
      <trkpt lat="46.52803" lon="0.30989">
        <ele>93.2</ele>
        <time>2011-07-03T07:09:38.000Z</time>
      </trkpt>
      <trkpt lat="46.52802" lon="0.30987">
        <ele>93.6</ele>
        <time>2011-07-03T07:09:39.000Z</time>
      </trkpt>
      <trkpt lat="46.528" lon="0.30985">
        <ele>94</ele>
        <time>2011-07-03T07:09:40.000Z</time>
      </trkpt>
      <trkpt lat="46.52799" lon="0.30983">
        <ele>94.3</ele>
        <time>2011-07-03T07:09:41.000Z</time>
      </trkpt>
      <trkpt lat="46.52796" lon="0.3098">
        <ele>95.1</ele>
        <time>2011-07-03T07:09:43.000Z</time>
      </trkpt>
      <trkpt lat="46.52793" lon="0.30975">
        <ele>95.9</ele>
        <time>2011-07-03T07:09:45.000Z</time>
      </trkpt>
      <trkpt lat="46.52791" lon="0.30972">
        <ele>96.2</ele>
        <time>2011-07-03T07:09:46.000Z</time>
      </trkpt>
      <trkpt lat="46.5279" lon="0.3097">
        <ele>96.3</ele>
        <time>2011-07-03T07:09:47.000Z</time>
      </trkpt>
      <trkpt lat="46.52789" lon="0.30968">
        <ele>96.5</ele>
        <time>2011-07-03T07:09:48.000Z</time>
      </trkpt>
      <trkpt lat="46.52788" lon="0.30966">
        <ele>96.7</ele>
        <time>2011-07-03T07:09:49.000Z</time>
      </trkpt>
      <trkpt lat="46.52787" lon="0.30961">
        <ele>96.9</ele>
        <time>2011-07-03T07:09:51.000Z</time>
      </trkpt>
      <trkpt lat="46.52784" lon="0.30954">
        <ele>97.6</ele>
        <time>2011-07-03T07:09:54.000Z</time>
      </trkpt>
      <trkpt lat="46.52783" lon="0.30952">
        <ele>98</ele>
        <time>2011-07-03T07:09:55.000Z</time>
      </trkpt>
      <trkpt lat="46.52781" lon="0.3095">
        <ele>98.4</ele>
        <time>2011-07-03T07:09:56.000Z</time>
      </trkpt>
      <trkpt lat="46.5278" lon="0.30948">
        <ele>99</ele>
        <time>2011-07-03T07:09:57.000Z</time>
      </trkpt>
      <trkpt lat="46.52779" lon="0.30946">
        <ele>99.3</ele>
        <time>2011-07-03T07:09:58.000Z</time>
      </trkpt>
      <trkpt lat="46.52779" lon="0.30944">
        <ele>99.6</ele>
        <time>2011-07-03T07:09:59.000Z</time>
      </trkpt>
      <trkpt lat="46.52778" lon="0.30941">
        <ele>99.8</ele>
        <time>2011-07-03T07:10:00.000Z</time>
      </trkpt>
      <trkpt lat="46.52774" lon="0.3093">
        <ele>101.2</ele>
        <time>2011-07-03T07:10:04.000Z</time>
      </trkpt>
      <trkpt lat="46.52773" lon="0.30928">
        <ele>101.6</ele>
        <time>2011-07-03T07:10:05.000Z</time>
      </trkpt>
      <trkpt lat="46.52772" lon="0.30926">
        <ele>101.9</ele>
        <time>2011-07-03T07:10:06.000Z</time>
      </trkpt>
      <trkpt lat="46.52771" lon="0.30924">
        <ele>102.3</ele>
        <time>2011-07-03T07:10:07.000Z</time>
      </trkpt>
      <trkpt lat="46.5277" lon="0.30922">
        <ele>102.7</ele>
        <time>2011-07-03T07:10:08.000Z</time>
      </trkpt>
      <trkpt lat="46.52765" lon="0.30913">
        <ele>103.9</ele>
        <time>2011-07-03T07:10:12.000Z</time>
      </trkpt>
      <trkpt lat="46.52764" lon="0.30911">
        <ele>103.9</ele>
        <time>2011-07-03T07:10:13.000Z</time>
      </trkpt>
      <trkpt lat="46.52763" lon="0.30908">
        <ele>104.1</ele>
        <time>2011-07-03T07:10:14.000Z</time>
      </trkpt>
      <trkpt lat="46.52762" lon="0.30906">
        <ele>104.3</ele>
        <time>2011-07-03T07:10:15.000Z</time>
      </trkpt>
      <trkpt lat="46.5276" lon="0.30902">
        <ele>104.9</ele>
        <time>2011-07-03T07:10:17.000Z</time>
      </trkpt>
      <trkpt lat="46.52758" lon="0.30899">
        <ele>105.3</ele>
        <time>2011-07-03T07:10:19.000Z</time>
      </trkpt>
      <trkpt lat="46.52757" lon="0.30897">
        <ele>105.5</ele>
        <time>2011-07-03T07:10:20.000Z</time>
      </trkpt>
      <trkpt lat="46.52756" lon="0.30896">
        <ele>105.8</ele>
        <time>2011-07-03T07:10:21.000Z</time>
      </trkpt>
      <trkpt lat="46.52755" lon="0.30894">
        <ele>105.9</ele>
        <time>2011-07-03T07:10:22.000Z</time>
      </trkpt>
      <trkpt lat="46.52755" lon="0.30891">
        <ele>105.9</ele>
        <time>2011-07-03T07:10:23.000Z</time>
      </trkpt>
      <trkpt lat="46.52753" lon="0.30877">
        <ele>106.4</ele>
        <time>2011-07-03T07:10:28.000Z</time>
      </trkpt>
      <trkpt lat="46.52753" lon="0.30875">
        <ele>106.6</ele>
        <time>2011-07-03T07:10:29.000Z</time>
      </trkpt>
      <trkpt lat="46.52752" lon="0.30873">
        <ele>107</ele>
        <time>2011-07-03T07:10:30.000Z</time>
      </trkpt>
      <trkpt lat="46.52752" lon="0.30871">
        <ele>107.1</ele>
        <time>2011-07-03T07:10:31.000Z</time>
      </trkpt>
      <trkpt lat="46.52751" lon="0.30868">
        <ele>107.3</ele>
        <time>2011-07-03T07:10:32.000Z</time>
      </trkpt>
      <trkpt lat="46.52751" lon="0.30866">
        <ele>107.7</ele>
        <time>2011-07-03T07:10:33.000Z</time>
      </trkpt>
      <trkpt lat="46.52749" lon="0.30862">
        <ele>108.4</ele>
        <time>2011-07-03T07:10:35.000Z</time>
      </trkpt>
      <trkpt lat="46.52744" lon="0.30849">
        <ele>109.1</ele>
        <time>2011-07-03T07:10:41.000Z</time>
      </trkpt>
      <trkpt lat="46.52744" lon="0.30847">
        <ele>109</ele>
        <time>2011-07-03T07:10:42.000Z</time>
      </trkpt>
      <trkpt lat="46.52744" lon="0.30845">
        <ele>108.9</ele>
        <time>2011-07-03T07:10:43.000Z</time>
      </trkpt>
      <trkpt lat="46.52743" lon="0.30843">
        <ele>109</ele>
        <time>2011-07-03T07:10:44.000Z</time>
      </trkpt>
      <trkpt lat="46.52743" lon="0.30842">
        <ele>109.2</ele>
        <time>2011-07-03T07:10:45.000Z</time>
      </trkpt>
      <trkpt lat="46.52742" lon="0.3084">
        <ele>109.4</ele>
        <time>2011-07-03T07:10:46.000Z</time>
      </trkpt>
      <trkpt lat="46.52741" lon="0.30838">
        <ele>109.7</ele>
        <time>2011-07-03T07:10:47.000Z</time>
      </trkpt>
      <trkpt lat="46.52737" lon="0.30829">
        <ele>110.4</ele>
        <time>2011-07-03T07:10:51.000Z</time>
      </trkpt>
      <trkpt lat="46.52737" lon="0.30827">
        <ele>110.4</ele>
        <time>2011-07-03T07:10:52.000Z</time>
      </trkpt>
      <trkpt lat="46.52735" lon="0.30823">
        <ele>110.9</ele>
        <time>2011-07-03T07:10:55.000Z</time>
      </trkpt>
      <trkpt lat="46.52734" lon="0.30821">
        <ele>111.1</ele>
        <time>2011-07-03T07:10:56.000Z</time>
      </trkpt>
      <trkpt lat="46.52733" lon="0.30819">
        <ele>111.3</ele>
        <time>2011-07-03T07:10:57.000Z</time>
      </trkpt>
      <trkpt lat="46.52733" lon="0.30818">
        <ele>111.5</ele>
        <time>2011-07-03T07:10:58.000Z</time>
      </trkpt>
      <trkpt lat="46.52732" lon="0.30816">
        <ele>111.7</ele>
        <time>2011-07-03T07:10:59.000Z</time>
      </trkpt>
      <trkpt lat="46.5273" lon="0.30813">
        <ele>112.2</ele>
        <time>2011-07-03T07:11:01.000Z</time>
      </trkpt>
      <trkpt lat="46.52728" lon="0.3081">
        <ele>112.7</ele>
        <time>2011-07-03T07:11:03.000Z</time>
      </trkpt>
      <trkpt lat="46.52728" lon="0.30809">
        <ele>112.8</ele>
        <time>2011-07-03T07:11:04.000Z</time>
      </trkpt>
      <trkpt lat="46.52727" lon="0.30807">
        <ele>113.1</ele>
        <time>2011-07-03T07:11:05.000Z</time>
      </trkpt>
      <trkpt lat="46.52727" lon="0.30806">
        <ele>113.2</ele>
        <time>2011-07-03T07:11:06.000Z</time>
      </trkpt>
      <trkpt lat="46.52726" lon="0.30805">
        <ele>113.5</ele>
        <time>2011-07-03T07:11:07.000Z</time>
      </trkpt>
      <trkpt lat="46.52725" lon="0.30802">
        <ele>114</ele>
        <time>2011-07-03T07:11:09.000Z</time>
      </trkpt>
      <trkpt lat="46.52722" lon="0.30794">
        <ele>115.1</ele>
        <time>2011-07-03T07:11:14.000Z</time>
      </trkpt>
      <trkpt lat="46.52721" lon="0.30792">
        <ele>115.2</ele>
        <time>2011-07-03T07:11:15.000Z</time>
      </trkpt>
      <trkpt lat="46.52721" lon="0.30791">
        <ele>115.3</ele>
        <time>2011-07-03T07:11:16.000Z</time>
      </trkpt>
      <trkpt lat="46.52721" lon="0.30789">
        <ele>115.3</ele>
        <time>2011-07-03T07:11:17.000Z</time>
      </trkpt>
      <trkpt lat="46.5272" lon="0.30788">
        <ele>115.5</ele>
        <time>2011-07-03T07:11:18.000Z</time>
      </trkpt>
      <trkpt lat="46.52719" lon="0.30784">
        <ele>115.9</ele>
        <time>2011-07-03T07:11:21.000Z</time>
      </trkpt>
      <trkpt lat="46.52715" lon="0.30782">
        <ele>116.8</ele>
        <time>2011-07-03T07:11:24.000Z</time>
      </trkpt>
      <trkpt lat="46.52715" lon="0.30785">
        <ele>116.8</ele>
        <time>2011-07-03T07:11:26.000Z</time>
      </trkpt>
      <trkpt lat="46.52715" lon="0.30786">
        <ele>116.8</ele>
        <time>2011-07-03T07:11:27.000Z</time>
      </trkpt>
      <trkpt lat="46.52714" lon="0.30788">
        <ele>117</ele>
        <time>2011-07-03T07:11:28.000Z</time>
      </trkpt>
      <trkpt lat="46.52713" lon="0.3079">
        <ele>117.3</ele>
        <time>2011-07-03T07:11:29.000Z</time>
      </trkpt>
      <trkpt lat="46.52711" lon="0.30793">
        <ele>117.7</ele>
        <time>2011-07-03T07:11:31.000Z</time>
      </trkpt>
      <trkpt lat="46.52708" lon="0.308">
        <ele>118.5</ele>
        <time>2011-07-03T07:11:35.000Z</time>
      </trkpt>
      <trkpt lat="46.52709" lon="0.30802">
        <ele>118.4</ele>
        <time>2011-07-03T07:11:36.000Z</time>
      </trkpt>
      <trkpt lat="46.52709" lon="0.30808">
        <ele>118.3</ele>
        <time>2011-07-03T07:11:40.000Z</time>
      </trkpt>
      <trkpt lat="46.52709" lon="0.3081">
        <ele>118.4</ele>
        <time>2011-07-03T07:11:41.000Z</time>
      </trkpt>
      <trkpt lat="46.52709" lon="0.30811">
        <ele>118.5</ele>
        <time>2011-07-03T07:11:42.000Z</time>
      </trkpt>
      <trkpt lat="46.52709" lon="0.30813">
        <ele>118.6</ele>
        <time>2011-07-03T07:11:43.000Z</time>
      </trkpt>
      <trkpt lat="46.52709" lon="0.30815">
        <ele>118.8</ele>
        <time>2011-07-03T07:11:44.000Z</time>
      </trkpt>
      <trkpt lat="46.52709" lon="0.30818">
        <ele>118.8</ele>
        <time>2011-07-03T07:11:45.000Z</time>
      </trkpt>
      <trkpt lat="46.5271" lon="0.3083">
        <ele>119</ele>
        <time>2011-07-03T07:11:50.000Z</time>
      </trkpt>
      <trkpt lat="46.52711" lon="0.3084">
        <ele>119.1</ele>
        <time>2011-07-03T07:11:55.000Z</time>
      </trkpt>
      <trkpt lat="46.52713" lon="0.30855">
        <ele>118.8</ele>
        <time>2011-07-03T07:12:00.000Z</time>
      </trkpt>
      <trkpt lat="46.52716" lon="0.30866">
        <ele>118.2</ele>
        <time>2011-07-03T07:12:02.000Z</time>
      </trkpt>
      <trkpt lat="46.52721" lon="0.30878">
        <ele>117.3</ele>
        <time>2011-07-03T07:12:04.000Z</time>
      </trkpt>
      <trkpt lat="46.52724" lon="0.30898">
        <ele>116.4</ele>
        <time>2011-07-03T07:12:07.000Z</time>
      </trkpt>
      <trkpt lat="46.52726" lon="0.30905">
        <ele>115.8</ele>
        <time>2011-07-03T07:12:08.000Z</time>
      </trkpt>
      <trkpt lat="46.52728" lon="0.30911">
        <ele>115.3</ele>
        <time>2011-07-03T07:12:09.000Z</time>
      </trkpt>
      <trkpt lat="46.5273" lon="0.30917">
        <ele>114.8</ele>
        <time>2011-07-03T07:12:10.000Z</time>
      </trkpt>
      <trkpt lat="46.52732" lon="0.30923">
        <ele>114.5</ele>
        <time>2011-07-03T07:12:11.000Z</time>
      </trkpt>
      <trkpt lat="46.52734" lon="0.30929">
        <ele>114.3</ele>
        <time>2011-07-03T07:12:12.000Z</time>
      </trkpt>
      <trkpt lat="46.52735" lon="0.30936">
        <ele>114.3</ele>
        <time>2011-07-03T07:12:13.000Z</time>
      </trkpt>
      <trkpt lat="46.52737" lon="0.30951">
        <ele>114.3</ele>
        <time>2011-07-03T07:12:15.000Z</time>
      </trkpt>
      <trkpt lat="46.52737" lon="0.30958">
        <ele>114.3</ele>
        <time>2011-07-03T07:12:16.000Z</time>
      </trkpt>
      <trkpt lat="46.52737" lon="0.30964">
        <ele>114.5</ele>
        <time>2011-07-03T07:12:17.000Z</time>
      </trkpt>
      <trkpt lat="46.52738" lon="0.3098">
        <ele>114.7</ele>
        <time>2011-07-03T07:12:20.000Z</time>
      </trkpt>
      <trkpt lat="46.52744" lon="0.31017">
        <ele>115.1</ele>
        <time>2011-07-03T07:12:26.000Z</time>
      </trkpt>
      <trkpt lat="46.52746" lon="0.31024">
        <ele>115</ele>
        <time>2011-07-03T07:12:27.000Z</time>
      </trkpt>
      <trkpt lat="46.52748" lon="0.31036">
        <ele>115</ele>
        <time>2011-07-03T07:12:29.000Z</time>
      </trkpt>
      <trkpt lat="46.52749" lon="0.31042">
        <ele>115.1</ele>
        <time>2011-07-03T07:12:30.000Z</time>
      </trkpt>
      <trkpt lat="46.52751" lon="0.31048">
        <ele>115.2</ele>
        <time>2011-07-03T07:12:31.000Z</time>
      </trkpt>
      <trkpt lat="46.52752" lon="0.31054">
        <ele>115.1</ele>
        <time>2011-07-03T07:12:32.000Z</time>
      </trkpt>
      <trkpt lat="46.52754" lon="0.31059">
        <ele>115</ele>
        <time>2011-07-03T07:12:33.000Z</time>
      </trkpt>
      <trkpt lat="46.52756" lon="0.31069">
        <ele>114.8</ele>
        <time>2011-07-03T07:12:35.000Z</time>
      </trkpt>
      <trkpt lat="46.52758" lon="0.31096">
        <ele>116.3</ele>
        <time>2011-07-03T07:12:41.000Z</time>
      </trkpt>
      <trkpt lat="46.52761" lon="0.31113">
        <ele>117.1</ele>
        <time>2011-07-03T07:12:45.000Z</time>
      </trkpt>
      <trkpt lat="46.52761" lon="0.31117">
        <ele>117.3</ele>
        <time>2011-07-03T07:12:46.000Z</time>
      </trkpt>
      <trkpt lat="46.52761" lon="0.31121">
        <ele>117.6</ele>
        <time>2011-07-03T07:12:47.000Z</time>
      </trkpt>
      <trkpt lat="46.52761" lon="0.31125">
        <ele>118</ele>
        <time>2011-07-03T07:12:48.000Z</time>
      </trkpt>
      <trkpt lat="46.52761" lon="0.31129">
        <ele>118.5</ele>
        <time>2011-07-03T07:12:49.000Z</time>
      </trkpt>
      <trkpt lat="46.52758" lon="0.31138">
        <ele>119.9</ele>
        <time>2011-07-03T07:12:51.000Z</time>
      </trkpt>
      <trkpt lat="46.52758" lon="0.31152">
        <ele>120.9</ele>
        <time>2011-07-03T07:12:54.000Z</time>
      </trkpt>
      <trkpt lat="46.52759" lon="0.31156">
        <ele>120.9</ele>
        <time>2011-07-03T07:12:55.000Z</time>
      </trkpt>
      <trkpt lat="46.5276" lon="0.31161">
        <ele>121</ele>
        <time>2011-07-03T07:12:56.000Z</time>
      </trkpt>
      <trkpt lat="46.52761" lon="0.31165">
        <ele>121.2</ele>
        <time>2011-07-03T07:12:57.000Z</time>
      </trkpt>
      <trkpt lat="46.52761" lon="0.31169">
        <ele>121.5</ele>
        <time>2011-07-03T07:12:58.000Z</time>
      </trkpt>
      <trkpt lat="46.52762" lon="0.31174">
        <ele>121.7</ele>
        <time>2011-07-03T07:13:00.000Z</time>
      </trkpt>
      <trkpt lat="46.52763" lon="0.31177">
        <ele>121.7</ele>
        <time>2011-07-03T07:13:01.000Z</time>
      </trkpt>
      <trkpt lat="46.52765" lon="0.31184">
        <ele>121.8</ele>
        <time>2011-07-03T07:13:03.000Z</time>
      </trkpt>
      <trkpt lat="46.52766" lon="0.31192">
        <ele>122.2</ele>
        <time>2011-07-03T07:13:05.000Z</time>
      </trkpt>
      <trkpt lat="46.52769" lon="0.31199">
        <ele>122.3</ele>
        <time>2011-07-03T07:13:07.000Z</time>
      </trkpt>
      <trkpt lat="46.52771" lon="0.31203">
        <ele>122.3</ele>
        <time>2011-07-03T07:13:08.000Z</time>
      </trkpt>
      <trkpt lat="46.52772" lon="0.31207">
        <ele>122.3</ele>
        <time>2011-07-03T07:13:09.000Z</time>
      </trkpt>
      <trkpt lat="46.52774" lon="0.31211">
        <ele>122.5</ele>
        <time>2011-07-03T07:13:10.000Z</time>
      </trkpt>
      <trkpt lat="46.52774" lon="0.31216">
        <ele>122.9</ele>
        <time>2011-07-03T07:13:11.000Z</time>
      </trkpt>
      <trkpt lat="46.52776" lon="0.31232">
        <ele>123.9</ele>
        <time>2011-07-03T07:13:15.000Z</time>
      </trkpt>
      <trkpt lat="46.5278" lon="0.31246">
        <ele>124.4</ele>
        <time>2011-07-03T07:13:18.000Z</time>
      </trkpt>
      <trkpt lat="46.52781" lon="0.31251">
        <ele>124.7</ele>
        <time>2011-07-03T07:13:19.000Z</time>
      </trkpt>
      <trkpt lat="46.52781" lon="0.31256">
        <ele>124.9</ele>
        <time>2011-07-03T07:13:20.000Z</time>
      </trkpt>
      <trkpt lat="46.52782" lon="0.31261">
        <ele>125</ele>
        <time>2011-07-03T07:13:21.000Z</time>
      </trkpt>
      <trkpt lat="46.52784" lon="0.31266">
        <ele>125.1</ele>
        <time>2011-07-03T07:13:22.000Z</time>
      </trkpt>
      <trkpt lat="46.52786" lon="0.31277">
        <ele>125.4</ele>
        <time>2011-07-03T07:13:24.000Z</time>
      </trkpt>
      <trkpt lat="46.52792" lon="0.31306">
        <ele>126</ele>
        <time>2011-07-03T07:13:29.000Z</time>
      </trkpt>
      <trkpt lat="46.52791" lon="0.31319">
        <ele>126.6</ele>
        <time>2011-07-03T07:13:32.000Z</time>
      </trkpt>
      <trkpt lat="46.52788" lon="0.31328">
        <ele>127</ele>
        <time>2011-07-03T07:13:34.000Z</time>
      </trkpt>
      <trkpt lat="46.52788" lon="0.31332">
        <ele>127.2</ele>
        <time>2011-07-03T07:13:35.000Z</time>
      </trkpt>
      <trkpt lat="46.52788" lon="0.31337">
        <ele>127.2</ele>
        <time>2011-07-03T07:13:36.000Z</time>
      </trkpt>
      <trkpt lat="46.52789" lon="0.31341">
        <ele>127.2</ele>
        <time>2011-07-03T07:13:37.000Z</time>
      </trkpt>
      <trkpt lat="46.52789" lon="0.31346">
        <ele>127.2</ele>
        <time>2011-07-03T07:13:38.000Z</time>
      </trkpt>
      <trkpt lat="46.52792" lon="0.31371">
        <ele>127</ele>
        <time>2011-07-03T07:13:43.000Z</time>
      </trkpt>
      <trkpt lat="46.52787" lon="0.3139">
        <ele>127.3</ele>
        <time>2011-07-03T07:13:47.000Z</time>
      </trkpt>
      <trkpt lat="46.5277" lon="0.31398">
        <ele>127.7</ele>
        <time>2011-07-03T07:13:52.000Z</time>
      </trkpt>
      <trkpt lat="46.52754" lon="0.31406">
        <ele>127.4</ele>
        <time>2011-07-03T07:13:57.000Z</time>
      </trkpt>
      <trkpt lat="46.52741" lon="0.31416">
        <ele>127.3</ele>
        <time>2011-07-03T07:14:01.000Z</time>
      </trkpt>
      <trkpt lat="46.52726" lon="0.31429">
        <ele>127.5</ele>
        <time>2011-07-03T07:14:06.000Z</time>
      </trkpt>
      <trkpt lat="46.52719" lon="0.31435">
        <ele>127.4</ele>
        <time>2011-07-03T07:14:09.000Z</time>
      </trkpt>
      <trkpt lat="46.52714" lon="0.31434">
        <ele>127.4</ele>
        <time>2011-07-03T07:14:11.000Z</time>
      </trkpt>
      <trkpt lat="46.52699" lon="0.31425">
        <ele>127.7</ele>
        <time>2011-07-03T07:14:15.000Z</time>
      </trkpt>
      <trkpt lat="46.52687" lon="0.31422">
        <ele>127.8</ele>
        <time>2011-07-03T07:14:18.000Z</time>
      </trkpt>
      <trkpt lat="46.52682" lon="0.31422">
        <ele>127.8</ele>
        <time>2011-07-03T07:14:19.000Z</time>
      </trkpt>
      <trkpt lat="46.52666" lon="0.3142">
        <ele>127.9</ele>
        <time>2011-07-03T07:14:23.000Z</time>
      </trkpt>
      <trkpt lat="46.52641" lon="0.31419">
        <ele>127.1</ele>
        <time>2011-07-03T07:14:28.000Z</time>
      </trkpt>
      <trkpt lat="46.52621" lon="0.31414">
        <ele>127.1</ele>
        <time>2011-07-03T07:14:32.000Z</time>
      </trkpt>
      <trkpt lat="46.52598" lon="0.31407">
        <ele>126.9</ele>
        <time>2011-07-03T07:14:37.000Z</time>
      </trkpt>
      <trkpt lat="46.52594" lon="0.31405">
        <ele>126.8</ele>
        <time>2011-07-03T07:14:38.000Z</time>
      </trkpt>
      <trkpt lat="46.52579" lon="0.31398">
        <ele>126.5</ele>
        <time>2011-07-03T07:14:41.000Z</time>
      </trkpt>
      <trkpt lat="46.52574" lon="0.31396">
        <ele>126.4</ele>
        <time>2011-07-03T07:14:42.000Z</time>
      </trkpt>
      <trkpt lat="46.52555" lon="0.31383">
        <ele>126</ele>
        <time>2011-07-03T07:14:46.000Z</time>
      </trkpt>
      <trkpt lat="46.5255" lon="0.31379">
        <ele>125.8</ele>
        <time>2011-07-03T07:14:47.000Z</time>
      </trkpt>
      <trkpt lat="46.52526" lon="0.31361">
        <ele>124.9</ele>
        <time>2011-07-03T07:14:52.000Z</time>
      </trkpt>
      <trkpt lat="46.52521" lon="0.31358">
        <ele>124.9</ele>
        <time>2011-07-03T07:14:53.000Z</time>
      </trkpt>
      <trkpt lat="46.52506" lon="0.31345">
        <ele>124.8</ele>
        <time>2011-07-03T07:14:56.000Z</time>
      </trkpt>
      <trkpt lat="46.52501" lon="0.31341">
        <ele>124.8</ele>
        <time>2011-07-03T07:14:57.000Z</time>
      </trkpt>
      <trkpt lat="46.52496" lon="0.31338">
        <ele>124.6</ele>
        <time>2011-07-03T07:14:58.000Z</time>
      </trkpt>
      <trkpt lat="46.52491" lon="0.31334">
        <ele>124.4</ele>
        <time>2011-07-03T07:14:59.000Z</time>
      </trkpt>
      <trkpt lat="46.52487" lon="0.3133">
        <ele>124.2</ele>
        <time>2011-07-03T07:15:00.000Z</time>
      </trkpt>
      <trkpt lat="46.5247" lon="0.3132">
        <ele>123.2</ele>
        <time>2011-07-03T07:15:03.000Z</time>
      </trkpt>
      <trkpt lat="46.52458" lon="0.31314">
        <ele>122</ele>
        <time>2011-07-03T07:15:05.000Z</time>
      </trkpt>
      <trkpt lat="46.52452" lon="0.3131">
        <ele>121.5</ele>
        <time>2011-07-03T07:15:06.000Z</time>
      </trkpt>
      <trkpt lat="46.52445" lon="0.31307">
        <ele>121</ele>
        <time>2011-07-03T07:15:07.000Z</time>
      </trkpt>
      <trkpt lat="46.52439" lon="0.31304">
        <ele>120.7</ele>
        <time>2011-07-03T07:15:08.000Z</time>
      </trkpt>
      <trkpt lat="46.52434" lon="0.31302">
        <ele>120.4</ele>
        <time>2011-07-03T07:15:09.000Z</time>
      </trkpt>
      <trkpt lat="46.5243" lon="0.31303">
        <ele>120.1</ele>
        <time>2011-07-03T07:15:10.000Z</time>
      </trkpt>
      <trkpt lat="46.52427" lon="0.31304">
        <ele>119.8</ele>
        <time>2011-07-03T07:15:11.000Z</time>
      </trkpt>
      <trkpt lat="46.52425" lon="0.31306">
        <ele>119.6</ele>
        <time>2011-07-03T07:15:12.000Z</time>
      </trkpt>
      <trkpt lat="46.52424" lon="0.31307">
        <ele>119.4</ele>
        <time>2011-07-03T07:15:13.000Z</time>
      </trkpt>
      <trkpt lat="46.52423" lon="0.31308">
        <ele>119.3</ele>
        <time>2011-07-03T07:15:14.000Z</time>
      </trkpt>
      <trkpt lat="46.52424" lon="0.31309">
        <ele>119.3</ele>
        <time>2011-07-03T07:15:15.000Z</time>
      </trkpt>
      <trkpt lat="46.52424" lon="0.31311">
        <ele>119.2</ele>
        <time>2011-07-03T07:15:16.000Z</time>
      </trkpt>
      <trkpt lat="46.52424" lon="0.31313">
        <ele>119</ele>
        <time>2011-07-03T07:15:17.000Z</time>
      </trkpt>
      <trkpt lat="46.52425" lon="0.31315">
        <ele>118.9</ele>
        <time>2011-07-03T07:15:18.000Z</time>
      </trkpt>
      <trkpt lat="46.52427" lon="0.31321">
        <ele>118.6</ele>
        <time>2011-07-03T07:15:20.000Z</time>
      </trkpt>
      <trkpt lat="46.52429" lon="0.31324">
        <ele>118.5</ele>
        <time>2011-07-03T07:15:21.000Z</time>
      </trkpt>
      <trkpt lat="46.52432" lon="0.31343">
        <ele>117.7</ele>
        <time>2011-07-03T07:15:25.000Z</time>
      </trkpt>
      <trkpt lat="46.52434" lon="0.31358">
        <ele>117.1</ele>
        <time>2011-07-03T07:15:27.000Z</time>
      </trkpt>
      <trkpt lat="46.52436" lon="0.31375">
        <ele>116.6</ele>
        <time>2011-07-03T07:15:30.000Z</time>
      </trkpt>
      <trkpt lat="46.52441" lon="0.31404">
        <ele>115.7</ele>
        <time>2011-07-03T07:15:34.000Z</time>
      </trkpt>
      <trkpt lat="46.52442" lon="0.31411">
        <ele>115.4</ele>
        <time>2011-07-03T07:15:35.000Z</time>
      </trkpt>
      <trkpt lat="46.52446" lon="0.31419">
        <ele>115.1</ele>
        <time>2011-07-03T07:15:36.000Z</time>
      </trkpt>
      <trkpt lat="46.52449" lon="0.31427">
        <ele>115.3</ele>
        <time>2011-07-03T07:15:37.000Z</time>
      </trkpt>
      <trkpt lat="46.52452" lon="0.31436">
        <ele>115.6</ele>
        <time>2011-07-03T07:15:38.000Z</time>
      </trkpt>
      <trkpt lat="46.52456" lon="0.31446">
        <ele>115.8</ele>
        <time>2011-07-03T07:15:39.000Z</time>
      </trkpt>
      <trkpt lat="46.52475" lon="0.31497">
        <ele>113.5</ele>
        <time>2011-07-03T07:15:44.000Z</time>
      </trkpt>
      <trkpt lat="46.52501" lon="0.31545">
        <ele>113.9</ele>
        <time>2011-07-03T07:15:50.000Z</time>
      </trkpt>
      <trkpt lat="46.5251" lon="0.31555">
        <ele>114.2</ele>
        <time>2011-07-03T07:15:52.000Z</time>
      </trkpt>
      <trkpt lat="46.52515" lon="0.31559">
        <ele>114.3</ele>
        <time>2011-07-03T07:15:53.000Z</time>
      </trkpt>
      <trkpt lat="46.52519" lon="0.31565">
        <ele>114.2</ele>
        <time>2011-07-03T07:15:54.000Z</time>
      </trkpt>
      <trkpt lat="46.52524" lon="0.31569">
        <ele>113.9</ele>
        <time>2011-07-03T07:15:55.000Z</time>
      </trkpt>
      <trkpt lat="46.52529" lon="0.31574">
        <ele>113.4</ele>
        <time>2011-07-03T07:15:56.000Z</time>
      </trkpt>
      <trkpt lat="46.52534" lon="0.3158">
        <ele>112.9</ele>
        <time>2011-07-03T07:15:57.000Z</time>
      </trkpt>
      <trkpt lat="46.52545" lon="0.31591">
        <ele>112.5</ele>
        <time>2011-07-03T07:15:59.000Z</time>
      </trkpt>
      <trkpt lat="46.52559" lon="0.31603">
        <ele>111.1</ele>
        <time>2011-07-03T07:16:01.000Z</time>
      </trkpt>
      <trkpt lat="46.52566" lon="0.31608">
        <ele>110.1</ele>
        <time>2011-07-03T07:16:02.000Z</time>
      </trkpt>
      <trkpt lat="46.52574" lon="0.31614">
        <ele>109.4</ele>
        <time>2011-07-03T07:16:03.000Z</time>
      </trkpt>
      <trkpt lat="46.52581" lon="0.31619">
        <ele>109.1</ele>
        <time>2011-07-03T07:16:04.000Z</time>
      </trkpt>
      <trkpt lat="46.52589" lon="0.31624">
        <ele>108.8</ele>
        <time>2011-07-03T07:16:05.000Z</time>
      </trkpt>
      <trkpt lat="46.52596" lon="0.3163">
        <ele>108.4</ele>
        <time>2011-07-03T07:16:06.000Z</time>
      </trkpt>
      <trkpt lat="46.52603" lon="0.31636">
        <ele>107.8</ele>
        <time>2011-07-03T07:16:07.000Z</time>
      </trkpt>
      <trkpt lat="46.5261" lon="0.31642">
        <ele>107.4</ele>
        <time>2011-07-03T07:16:08.000Z</time>
      </trkpt>
      <trkpt lat="46.52616" lon="0.31649">
        <ele>107.9</ele>
        <time>2011-07-03T07:16:09.000Z</time>
      </trkpt>
      <trkpt lat="46.52623" lon="0.31657">
        <ele>108</ele>
        <time>2011-07-03T07:16:10.000Z</time>
      </trkpt>
      <trkpt lat="46.5263" lon="0.31666">
        <ele>107.3</ele>
        <time>2011-07-03T07:16:11.000Z</time>
      </trkpt>
      <trkpt lat="46.52637" lon="0.31674">
        <ele>106.8</ele>
        <time>2011-07-03T07:16:12.000Z</time>
      </trkpt>
      <trkpt lat="46.5265" lon="0.31689">
        <ele>106.3</ele>
        <time>2011-07-03T07:16:14.000Z</time>
      </trkpt>
      <trkpt lat="46.52657" lon="0.31695">
        <ele>105.5</ele>
        <time>2011-07-03T07:16:15.000Z</time>
      </trkpt>
      <trkpt lat="46.52663" lon="0.31701">
        <ele>105.1</ele>
        <time>2011-07-03T07:16:16.000Z</time>
      </trkpt>
      <trkpt lat="46.52669" lon="0.31707">
        <ele>104.9</ele>
        <time>2011-07-03T07:16:17.000Z</time>
      </trkpt>
      <trkpt lat="46.52674" lon="0.31713">
        <ele>105</ele>
        <time>2011-07-03T07:16:18.000Z</time>
      </trkpt>
      <trkpt lat="46.52681" lon="0.31718">
        <ele>104.9</ele>
        <time>2011-07-03T07:16:19.000Z</time>
      </trkpt>
      <trkpt lat="46.52706" lon="0.31736">
        <ele>103.9</ele>
        <time>2011-07-03T07:16:23.000Z</time>
      </trkpt>
      <trkpt lat="46.52714" lon="0.31742">
        <ele>103.2</ele>
        <time>2011-07-03T07:16:24.000Z</time>
      </trkpt>
      <trkpt lat="46.5272" lon="0.31749">
        <ele>102.3</ele>
        <time>2011-07-03T07:16:25.000Z</time>
      </trkpt>
      <trkpt lat="46.52727" lon="0.31755">
        <ele>102.6</ele>
        <time>2011-07-03T07:16:26.000Z</time>
      </trkpt>
      <trkpt lat="46.52733" lon="0.31764">
        <ele>102.9</ele>
        <time>2011-07-03T07:16:27.000Z</time>
      </trkpt>
      <trkpt lat="46.52738" lon="0.31772">
        <ele>102.7</ele>
        <time>2011-07-03T07:16:28.000Z</time>
      </trkpt>
      <trkpt lat="46.52742" lon="0.31779">
        <ele>102.2</ele>
        <time>2011-07-03T07:16:29.000Z</time>
      </trkpt>
      <trkpt lat="46.52747" lon="0.31788">
        <ele>102.2</ele>
        <time>2011-07-03T07:16:30.000Z</time>
      </trkpt>
      <trkpt lat="46.52751" lon="0.31796">
        <ele>102.2</ele>
        <time>2011-07-03T07:16:31.000Z</time>
      </trkpt>
      <trkpt lat="46.52758" lon="0.31809">
        <ele>102.6</ele>
        <time>2011-07-03T07:16:33.000Z</time>
      </trkpt>
      <trkpt lat="46.52762" lon="0.31814">
        <ele>102.9</ele>
        <time>2011-07-03T07:16:34.000Z</time>
      </trkpt>
      <trkpt lat="46.52769" lon="0.3183">
        <ele>103.9</ele>
        <time>2011-07-03T07:16:37.000Z</time>
      </trkpt>
      <trkpt lat="46.52769" lon="0.31834">
        <ele>104.3</ele>
        <time>2011-07-03T07:16:38.000Z</time>
      </trkpt>
      <trkpt lat="46.52765" lon="0.31844">
        <ele>105.7</ele>
        <time>2011-07-03T07:16:41.000Z</time>
      </trkpt>
      <trkpt lat="46.52764" lon="0.31847">
        <ele>106.2</ele>
        <time>2011-07-03T07:16:42.000Z</time>
      </trkpt>
      <trkpt lat="46.52763" lon="0.31849">
        <ele>106.6</ele>
        <time>2011-07-03T07:16:43.000Z</time>
      </trkpt>
      <trkpt lat="46.52761" lon="0.31851">
        <ele>106.9</ele>
        <time>2011-07-03T07:16:44.000Z</time>
      </trkpt>
      <trkpt lat="46.5276" lon="0.31852">
        <ele>107.1</ele>
        <time>2011-07-03T07:16:45.000Z</time>
      </trkpt>
      <trkpt lat="46.52759" lon="0.31854">
        <ele>107.4</ele>
        <time>2011-07-03T07:16:46.000Z</time>
      </trkpt>
      <trkpt lat="46.52757" lon="0.31856">
        <ele>107.8</ele>
        <time>2011-07-03T07:16:47.000Z</time>
      </trkpt>
      <trkpt lat="46.52755" lon="0.31857">
        <ele>108.1</ele>
        <time>2011-07-03T07:16:48.000Z</time>
      </trkpt>
      <trkpt lat="46.52753" lon="0.31858">
        <ele>108.4</ele>
        <time>2011-07-03T07:16:49.000Z</time>
      </trkpt>
      <trkpt lat="46.52751" lon="0.31859">
        <ele>108.7</ele>
        <time>2011-07-03T07:16:50.000Z</time>
      </trkpt>
      <trkpt lat="46.5275" lon="0.31861">
        <ele>109</ele>
        <time>2011-07-03T07:16:51.000Z</time>
      </trkpt>
      <trkpt lat="46.52748" lon="0.31863">
        <ele>109.4</ele>
        <time>2011-07-03T07:16:52.000Z</time>
      </trkpt>
      <trkpt lat="46.52746" lon="0.31866">
        <ele>109.8</ele>
        <time>2011-07-03T07:16:53.000Z</time>
      </trkpt>
      <trkpt lat="46.52744" lon="0.31868">
        <ele>110.1</ele>
        <time>2011-07-03T07:16:54.000Z</time>
      </trkpt>
      <trkpt lat="46.52742" lon="0.3187">
        <ele>110.5</ele>
        <time>2011-07-03T07:16:55.000Z</time>
      </trkpt>
      <trkpt lat="46.5274" lon="0.31872">
        <ele>110.9</ele>
        <time>2011-07-03T07:16:56.000Z</time>
      </trkpt>
      <trkpt lat="46.52738" lon="0.31875">
        <ele>111.3</ele>
        <time>2011-07-03T07:16:57.000Z</time>
      </trkpt>
      <trkpt lat="46.52736" lon="0.31877">
        <ele>111.7</ele>
        <time>2011-07-03T07:16:58.000Z</time>
      </trkpt>
      <trkpt lat="46.52734" lon="0.31879">
        <ele>112</ele>
        <time>2011-07-03T07:16:59.000Z</time>
      </trkpt>
      <trkpt lat="46.52731" lon="0.31881">
        <ele>112.5</ele>
        <time>2011-07-03T07:17:00.000Z</time>
      </trkpt>
      <trkpt lat="46.52728" lon="0.31884">
        <ele>113</ele>
        <time>2011-07-03T07:17:01.000Z</time>
      </trkpt>
      <trkpt lat="46.52723" lon="0.31888">
        <ele>113.9</ele>
        <time>2011-07-03T07:17:03.000Z</time>
      </trkpt>
      <trkpt lat="46.52721" lon="0.3189">
        <ele>114.3</ele>
        <time>2011-07-03T07:17:04.000Z</time>
      </trkpt>
      <trkpt lat="46.52719" lon="0.31892">
        <ele>114.6</ele>
        <time>2011-07-03T07:17:05.000Z</time>
      </trkpt>
      <trkpt lat="46.52718" lon="0.31894">
        <ele>114.8</ele>
        <time>2011-07-03T07:17:06.000Z</time>
      </trkpt>
      <trkpt lat="46.52716" lon="0.31896">
        <ele>115.1</ele>
        <time>2011-07-03T07:17:07.000Z</time>
      </trkpt>
      <trkpt lat="46.5271" lon="0.319">
        <ele>116</ele>
        <time>2011-07-03T07:17:10.000Z</time>
      </trkpt>
      <trkpt lat="46.52708" lon="0.31902">
        <ele>116.3</ele>
        <time>2011-07-03T07:17:11.000Z</time>
      </trkpt>
      <trkpt lat="46.52705" lon="0.31904">
        <ele>116.6</ele>
        <time>2011-07-03T07:17:12.000Z</time>
      </trkpt>
      <trkpt lat="46.52703" lon="0.31905">
        <ele>116.8</ele>
        <time>2011-07-03T07:17:13.000Z</time>
      </trkpt>
      <trkpt lat="46.52696" lon="0.31912">
        <ele>117.7</ele>
        <time>2011-07-03T07:17:17.000Z</time>
      </trkpt>
      <trkpt lat="46.52691" lon="0.31916">
        <ele>118.1</ele>
        <time>2011-07-03T07:17:19.000Z</time>
      </trkpt>
      <trkpt lat="46.52688" lon="0.31918">
        <ele>118.3</ele>
        <time>2011-07-03T07:17:20.000Z</time>
      </trkpt>
      <trkpt lat="46.52686" lon="0.3192">
        <ele>118.4</ele>
        <time>2011-07-03T07:17:21.000Z</time>
      </trkpt>
      <trkpt lat="46.52684" lon="0.31921">
        <ele>118.6</ele>
        <time>2011-07-03T07:17:22.000Z</time>
      </trkpt>
      <trkpt lat="46.52683" lon="0.31923">
        <ele>118.7</ele>
        <time>2011-07-03T07:17:23.000Z</time>
      </trkpt>
      <trkpt lat="46.52675" lon="0.31929">
        <ele>119.5</ele>
        <time>2011-07-03T07:17:29.000Z</time>
      </trkpt>
      <trkpt lat="46.52673" lon="0.31932">
        <ele>119.7</ele>
        <time>2011-07-03T07:17:31.000Z</time>
      </trkpt>
      <trkpt lat="46.52671" lon="0.31938">
        <ele>120.2</ele>
        <time>2011-07-03T07:17:34.000Z</time>
      </trkpt>
      <trkpt lat="46.52671" lon="0.3194">
        <ele>120.4</ele>
        <time>2011-07-03T07:17:35.000Z</time>
      </trkpt>
      <trkpt lat="46.5267" lon="0.31942">
        <ele>120.5</ele>
        <time>2011-07-03T07:17:36.000Z</time>
      </trkpt>
      <trkpt lat="46.52669" lon="0.31944">
        <ele>120.8</ele>
        <time>2011-07-03T07:17:37.000Z</time>
      </trkpt>
      <trkpt lat="46.52669" lon="0.31948">
        <ele>121</ele>
        <time>2011-07-03T07:17:39.000Z</time>
      </trkpt>
      <trkpt lat="46.52669" lon="0.3195">
        <ele>121</ele>
        <time>2011-07-03T07:17:40.000Z</time>
      </trkpt>
      <trkpt lat="46.52671" lon="0.31962">
        <ele>121.4</ele>
        <time>2011-07-03T07:17:45.000Z</time>
      </trkpt>
      <trkpt lat="46.52673" lon="0.31964">
        <ele>121.4</ele>
        <time>2011-07-03T07:17:46.000Z</time>
      </trkpt>
      <trkpt lat="46.52678" lon="0.31972">
        <ele>121.6</ele>
        <time>2011-07-03T07:17:49.000Z</time>
      </trkpt>
      <trkpt lat="46.52689" lon="0.31992">
        <ele>121.9</ele>
        <time>2011-07-03T07:17:55.000Z</time>
      </trkpt>
      <trkpt lat="46.52697" lon="0.3201">
        <ele>122.3</ele>
        <time>2011-07-03T07:18:00.000Z</time>
      </trkpt>
      <trkpt lat="46.52698" lon="0.32013">
        <ele>122.3</ele>
        <time>2011-07-03T07:18:01.000Z</time>
      </trkpt>
      <trkpt lat="46.52699" lon="0.32016">
        <ele>122.4</ele>
        <time>2011-07-03T07:18:02.000Z</time>
      </trkpt>
      <trkpt lat="46.52701" lon="0.3202">
        <ele>122.5</ele>
        <time>2011-07-03T07:18:03.000Z</time>
      </trkpt>
      <trkpt lat="46.52704" lon="0.32028">
        <ele>122.7</ele>
        <time>2011-07-03T07:18:05.000Z</time>
      </trkpt>
      <trkpt lat="46.52715" lon="0.32052">
        <ele>122.9</ele>
        <time>2011-07-03T07:18:11.000Z</time>
      </trkpt>
      <trkpt lat="46.52724" lon="0.32066">
        <ele>123.4</ele>
        <time>2011-07-03T07:18:16.000Z</time>
      </trkpt>
      <trkpt lat="46.5273" lon="0.32081">
        <ele>123.9</ele>
        <time>2011-07-03T07:18:21.000Z</time>
      </trkpt>
      <trkpt lat="46.52729" lon="0.32084">
        <ele>124</ele>
        <time>2011-07-03T07:18:22.000Z</time>
      </trkpt>
      <trkpt lat="46.52729" lon="0.32087">
        <ele>124</ele>
        <time>2011-07-03T07:18:25.000Z</time>
      </trkpt>
      <trkpt lat="46.52729" lon="0.32087">
        <ele>124</ele>
        <time>2011-07-03T07:18:26.000Z</time>
      </trkpt>
      <trkpt lat="46.52729" lon="0.32087">
        <ele>124</ele>
        <time>2011-07-03T07:18:27.000Z</time>
      </trkpt>
      <trkpt lat="46.52729" lon="0.32087">
        <ele>124</ele>
        <time>2011-07-03T07:18:28.000Z</time>
      </trkpt>
      <trkpt lat="46.5273" lon="0.32094">
        <ele>124</ele>
        <time>2011-07-03T07:18:31.000Z</time>
      </trkpt>
      <trkpt lat="46.52732" lon="0.32098">
        <ele>124</ele>
        <time>2011-07-03T07:18:33.000Z</time>
      </trkpt>
      <trkpt lat="46.52733" lon="0.32103">
        <ele>124</ele>
        <time>2011-07-03T07:18:36.000Z</time>
      </trkpt>
      <trkpt lat="46.52733" lon="0.32105">
        <ele>124</ele>
        <time>2011-07-03T07:18:37.000Z</time>
      </trkpt>
      <trkpt lat="46.52733" lon="0.32111">
        <ele>124</ele>
        <time>2011-07-03T07:18:40.000Z</time>
      </trkpt>
      <trkpt lat="46.52733" lon="0.32122">
        <ele>124.4</ele>
        <time>2011-07-03T07:18:46.000Z</time>
      </trkpt>
      <trkpt lat="46.52733" lon="0.32124">
        <ele>124.4</ele>
        <time>2011-07-03T07:18:47.000Z</time>
      </trkpt>
      <trkpt lat="46.52732" lon="0.32133">
        <ele>124.8</ele>
        <time>2011-07-03T07:18:51.000Z</time>
      </trkpt>
      <trkpt lat="46.52731" lon="0.32136">
        <ele>124.9</ele>
        <time>2011-07-03T07:18:53.000Z</time>
      </trkpt>
      <trkpt lat="46.52732" lon="0.3214">
        <ele>125</ele>
        <time>2011-07-03T07:18:55.000Z</time>
      </trkpt>
      <trkpt lat="46.52735" lon="0.3215">
        <ele>125.2</ele>
        <time>2011-07-03T07:18:59.000Z</time>
      </trkpt>
      <trkpt lat="46.52735" lon="0.32157">
        <ele>125.3</ele>
        <time>2011-07-03T07:19:01.000Z</time>
      </trkpt>
      <trkpt lat="46.52733" lon="0.32177">
        <ele>125.7</ele>
        <time>2011-07-03T07:19:07.000Z</time>
      </trkpt>
      <trkpt lat="46.52735" lon="0.32195">
        <ele>126</ele>
        <time>2011-07-03T07:19:13.000Z</time>
      </trkpt>
      <trkpt lat="46.52735" lon="0.32198">
        <ele>126.1</ele>
        <time>2011-07-03T07:19:14.000Z</time>
      </trkpt>
      <trkpt lat="46.52735" lon="0.32202">
        <ele>126.1</ele>
        <time>2011-07-03T07:19:15.000Z</time>
      </trkpt>
      <trkpt lat="46.52735" lon="0.32206">
        <ele>126.2</ele>
        <time>2011-07-03T07:19:16.000Z</time>
      </trkpt>
      <trkpt lat="46.52735" lon="0.3221">
        <ele>126.3</ele>
        <time>2011-07-03T07:19:17.000Z</time>
      </trkpt>
      <trkpt lat="46.52735" lon="0.32214">
        <ele>126.4</ele>
        <time>2011-07-03T07:19:18.000Z</time>
      </trkpt>
      <trkpt lat="46.52734" lon="0.32236">
        <ele>126.8</ele>
        <time>2011-07-03T07:19:23.000Z</time>
      </trkpt>
      <trkpt lat="46.52731" lon="0.32264">
        <ele>127</ele>
        <time>2011-07-03T07:19:29.000Z</time>
      </trkpt>
      <trkpt lat="46.52732" lon="0.32298">
        <ele>127</ele>
        <time>2011-07-03T07:19:36.000Z</time>
      </trkpt>
      <trkpt lat="46.52735" lon="0.32328">
        <ele>127</ele>
        <time>2011-07-03T07:19:42.000Z</time>
      </trkpt>
      <trkpt lat="46.52735" lon="0.32352">
        <ele>127</ele>
        <time>2011-07-03T07:19:47.000Z</time>
      </trkpt>
      <trkpt lat="46.52734" lon="0.32383">
        <ele>126.5</ele>
        <time>2011-07-03T07:19:53.000Z</time>
      </trkpt>
      <trkpt lat="46.52729" lon="0.32411">
        <ele>126</ele>
        <time>2011-07-03T07:19:59.000Z</time>
      </trkpt>
      <trkpt lat="46.52728" lon="0.32437">
        <ele>126</ele>
        <time>2011-07-03T07:20:03.000Z</time>
      </trkpt>
      <trkpt lat="46.52727" lon="0.32471">
        <ele>125.2</ele>
        <time>2011-07-03T07:20:09.000Z</time>
      </trkpt>
      <trkpt lat="46.52726" lon="0.32501">
        <ele>124.1</ele>
        <time>2011-07-03T07:20:14.000Z</time>
      </trkpt>
      <trkpt lat="46.52727" lon="0.32529">
        <ele>123.2</ele>
        <time>2011-07-03T07:20:18.000Z</time>
      </trkpt>
      <trkpt lat="46.52728" lon="0.32537">
        <ele>122.9</ele>
        <time>2011-07-03T07:20:19.000Z</time>
      </trkpt>
      <trkpt lat="46.52728" lon="0.32555">
        <ele>122.2</ele>
        <time>2011-07-03T07:20:21.000Z</time>
      </trkpt>
      <trkpt lat="46.52728" lon="0.32565">
        <ele>122.2</ele>
        <time>2011-07-03T07:20:22.000Z</time>
      </trkpt>
      <trkpt lat="46.52728" lon="0.32574">
        <ele>122.2</ele>
        <time>2011-07-03T07:20:23.000Z</time>
      </trkpt>
      <trkpt lat="46.52729" lon="0.32581">
        <ele>122.2</ele>
        <time>2011-07-03T07:20:24.000Z</time>
      </trkpt>
      <trkpt lat="46.5273" lon="0.32588">
        <ele>122.1</ele>
        <time>2011-07-03T07:20:25.000Z</time>
      </trkpt>
      <trkpt lat="46.52734" lon="0.32617">
        <ele>121.8</ele>
        <time>2011-07-03T07:20:29.000Z</time>
      </trkpt>
      <trkpt lat="46.52736" lon="0.32631">
        <ele>122</ele>
        <time>2011-07-03T07:20:31.000Z</time>
      </trkpt>
      <trkpt lat="46.52736" lon="0.32638">
        <ele>122</ele>
        <time>2011-07-03T07:20:32.000Z</time>
      </trkpt>
      <trkpt lat="46.52737" lon="0.3265">
        <ele>121.8</ele>
        <time>2011-07-03T07:20:34.000Z</time>
      </trkpt>
      <trkpt lat="46.52738" lon="0.32656">
        <ele>121.8</ele>
        <time>2011-07-03T07:20:35.000Z</time>
      </trkpt>
      <trkpt lat="46.52742" lon="0.32689">
        <ele>122.3</ele>
        <time>2011-07-03T07:20:40.000Z</time>
      </trkpt>
      <trkpt lat="46.52743" lon="0.32702">
        <ele>122.3</ele>
        <time>2011-07-03T07:20:42.000Z</time>
      </trkpt>
      <trkpt lat="46.52743" lon="0.32715">
        <ele>122</ele>
        <time>2011-07-03T07:20:44.000Z</time>
      </trkpt>
      <trkpt lat="46.52743" lon="0.32722">
        <ele>121.8</ele>
        <time>2011-07-03T07:20:45.000Z</time>
      </trkpt>
      <trkpt lat="46.52747" lon="0.32751">
        <ele>121.9</ele>
        <time>2011-07-03T07:20:49.000Z</time>
      </trkpt>
      <trkpt lat="46.52748" lon="0.32766">
        <ele>121.9</ele>
        <time>2011-07-03T07:20:51.000Z</time>
      </trkpt>
      <trkpt lat="46.5275" lon="0.328">
        <ele>121.2</ele>
        <time>2011-07-03T07:20:55.000Z</time>
      </trkpt>
      <trkpt lat="46.52753" lon="0.32816">
        <ele>121.2</ele>
        <time>2011-07-03T07:20:57.000Z</time>
      </trkpt>
      <trkpt lat="46.52757" lon="0.32845">
        <ele>121.2</ele>
        <time>2011-07-03T07:21:01.000Z</time>
      </trkpt>
      <trkpt lat="46.52759" lon="0.32852">
        <ele>121.1</ele>
        <time>2011-07-03T07:21:02.000Z</time>
      </trkpt>
      <trkpt lat="46.5276" lon="0.32858">
        <ele>121</ele>
        <time>2011-07-03T07:21:03.000Z</time>
      </trkpt>
      <trkpt lat="46.52761" lon="0.32865">
        <ele>120.9</ele>
        <time>2011-07-03T07:21:04.000Z</time>
      </trkpt>
      <trkpt lat="46.52761" lon="0.32874">
        <ele>120.7</ele>
        <time>2011-07-03T07:21:05.000Z</time>
      </trkpt>
      <trkpt lat="46.52763" lon="0.32893">
        <ele>120.4</ele>
        <time>2011-07-03T07:21:07.000Z</time>
      </trkpt>
      <trkpt lat="46.52764" lon="0.32943">
        <ele>119.5</ele>
        <time>2011-07-03T07:21:12.000Z</time>
      </trkpt>
      <trkpt lat="46.52769" lon="0.32988">
        <ele>118.4</ele>
        <time>2011-07-03T07:21:16.000Z</time>
      </trkpt>
      <trkpt lat="46.52769" lon="0.32999">
        <ele>118</ele>
        <time>2011-07-03T07:21:17.000Z</time>
      </trkpt>
      <trkpt lat="46.5277" lon="0.3301">
        <ele>117.6</ele>
        <time>2011-07-03T07:21:18.000Z</time>
      </trkpt>
      <trkpt lat="46.52771" lon="0.33021">
        <ele>117.2</ele>
        <time>2011-07-03T07:21:19.000Z</time>
      </trkpt>
      <trkpt lat="46.52771" lon="0.33032">
        <ele>116.8</ele>
        <time>2011-07-03T07:21:20.000Z</time>
      </trkpt>
      <trkpt lat="46.52773" lon="0.33056">
        <ele>115.8</ele>
        <time>2011-07-03T07:21:23.000Z</time>
      </trkpt>
      <trkpt lat="46.52775" lon="0.33067">
        <ele>115.1</ele>
        <time>2011-07-03T07:21:24.000Z</time>
      </trkpt>
      <trkpt lat="46.52776" lon="0.33079">
        <ele>114.3</ele>
        <time>2011-07-03T07:21:25.000Z</time>
      </trkpt>
      <trkpt lat="46.52777" lon="0.3309">
        <ele>113.8</ele>
        <time>2011-07-03T07:21:26.000Z</time>
      </trkpt>
      <trkpt lat="46.52778" lon="0.33101">
        <ele>113.4</ele>
        <time>2011-07-03T07:21:27.000Z</time>
      </trkpt>
      <trkpt lat="46.5278" lon="0.33112">
        <ele>113</ele>
        <time>2011-07-03T07:21:28.000Z</time>
      </trkpt>
      <trkpt lat="46.52782" lon="0.33124">
        <ele>112.5</ele>
        <time>2011-07-03T07:21:29.000Z</time>
      </trkpt>
      <trkpt lat="46.52784" lon="0.33136">
        <ele>111.9</ele>
        <time>2011-07-03T07:21:30.000Z</time>
      </trkpt>
      <trkpt lat="46.52786" lon="0.33147">
        <ele>111.2</ele>
        <time>2011-07-03T07:21:31.000Z</time>
      </trkpt>
      <trkpt lat="46.52788" lon="0.33162">
        <ele>110.3</ele>
        <time>2011-07-03T07:21:32.000Z</time>
      </trkpt>
      <trkpt lat="46.52789" lon="0.33176">
        <ele>109.7</ele>
        <time>2011-07-03T07:21:33.000Z</time>
      </trkpt>
      <trkpt lat="46.5279" lon="0.3319">
        <ele>109.2</ele>
        <time>2011-07-03T07:21:34.000Z</time>
      </trkpt>
      <trkpt lat="46.52791" lon="0.33205">
        <ele>108.4</ele>
        <time>2011-07-03T07:21:35.000Z</time>
      </trkpt>
      <trkpt lat="46.52792" lon="0.33218">
        <ele>107.7</ele>
        <time>2011-07-03T07:21:36.000Z</time>
      </trkpt>
      <trkpt lat="46.52794" lon="0.33231">
        <ele>107.2</ele>
        <time>2011-07-03T07:21:37.000Z</time>
      </trkpt>
      <trkpt lat="46.52795" lon="0.33244">
        <ele>106.6</ele>
        <time>2011-07-03T07:21:38.000Z</time>
      </trkpt>
      <trkpt lat="46.52796" lon="0.33257">
        <ele>106.1</ele>
        <time>2011-07-03T07:21:39.000Z</time>
      </trkpt>
      <trkpt lat="46.52797" lon="0.33268">
        <ele>105.7</ele>
        <time>2011-07-03T07:21:40.000Z</time>
      </trkpt>
      <trkpt lat="46.52797" lon="0.33279">
        <ele>105.3</ele>
        <time>2011-07-03T07:21:41.000Z</time>
      </trkpt>
      <trkpt lat="46.52797" lon="0.33291">
        <ele>105</ele>
        <time>2011-07-03T07:21:42.000Z</time>
      </trkpt>
      <trkpt lat="46.52796" lon="0.33303">
        <ele>104.8</ele>
        <time>2011-07-03T07:21:43.000Z</time>
      </trkpt>
      <trkpt lat="46.52794" lon="0.33315">
        <ele>104.7</ele>
        <time>2011-07-03T07:21:44.000Z</time>
      </trkpt>
      <trkpt lat="46.52793" lon="0.33325">
        <ele>104.6</ele>
        <time>2011-07-03T07:21:45.000Z</time>
      </trkpt>
      <trkpt lat="46.52793" lon="0.33336">
        <ele>104.4</ele>
        <time>2011-07-03T07:21:46.000Z</time>
      </trkpt>
      <trkpt lat="46.52793" lon="0.33346">
        <ele>104.2</ele>
        <time>2011-07-03T07:21:47.000Z</time>
      </trkpt>
      <trkpt lat="46.52794" lon="0.33356">
        <ele>104</ele>
        <time>2011-07-03T07:21:48.000Z</time>
      </trkpt>
      <trkpt lat="46.52794" lon="0.33365">
        <ele>103.8</ele>
        <time>2011-07-03T07:21:49.000Z</time>
      </trkpt>
      <trkpt lat="46.52795" lon="0.33375">
        <ele>103.6</ele>
        <time>2011-07-03T07:21:50.000Z</time>
      </trkpt>
      <trkpt lat="46.52796" lon="0.33384">
        <ele>103.4</ele>
        <time>2011-07-03T07:21:51.000Z</time>
      </trkpt>
      <trkpt lat="46.52797" lon="0.33392">
        <ele>103.2</ele>
        <time>2011-07-03T07:21:52.000Z</time>
      </trkpt>
      <trkpt lat="46.52799" lon="0.334">
        <ele>103</ele>
        <time>2011-07-03T07:21:53.000Z</time>
      </trkpt>
      <trkpt lat="46.528" lon="0.33408">
        <ele>102.9</ele>
        <time>2011-07-03T07:21:54.000Z</time>
      </trkpt>
      <trkpt lat="46.52801" lon="0.33414">
        <ele>102.9</ele>
        <time>2011-07-03T07:21:55.000Z</time>
      </trkpt>
      <trkpt lat="46.52803" lon="0.3342">
        <ele>102.7</ele>
        <time>2011-07-03T07:21:56.000Z</time>
      </trkpt>
      <trkpt lat="46.5281" lon="0.3343">
        <ele>102</ele>
        <time>2011-07-03T07:21:58.000Z</time>
      </trkpt>
      <trkpt lat="46.52814" lon="0.33435">
        <ele>101.6</ele>
        <time>2011-07-03T07:21:59.000Z</time>
      </trkpt>
      <trkpt lat="46.52817" lon="0.33439">
        <ele>101.3</ele>
        <time>2011-07-03T07:22:00.000Z</time>
      </trkpt>
      <trkpt lat="46.52821" lon="0.33443">
        <ele>101.1</ele>
        <time>2011-07-03T07:22:01.000Z</time>
      </trkpt>
      <trkpt lat="46.52824" lon="0.33444">
        <ele>101</ele>
        <time>2011-07-03T07:22:02.000Z</time>
      </trkpt>
      <trkpt lat="46.52828" lon="0.33444">
        <ele>101</ele>
        <time>2011-07-03T07:22:03.000Z</time>
      </trkpt>
      <trkpt lat="46.52831" lon="0.33442">
        <ele>101.1</ele>
        <time>2011-07-03T07:22:04.000Z</time>
      </trkpt>
      <trkpt lat="46.52835" lon="0.33436">
        <ele>101.2</ele>
        <time>2011-07-03T07:22:06.000Z</time>
      </trkpt>
      <trkpt lat="46.52837" lon="0.33434">
        <ele>101.2</ele>
        <time>2011-07-03T07:22:08.000Z</time>
      </trkpt>
      <trkpt lat="46.52839" lon="0.33435">
        <ele>101</ele>
        <time>2011-07-03T07:22:09.000Z</time>
      </trkpt>
      <trkpt lat="46.52845" lon="0.33434">
        <ele>100.7</ele>
        <time>2011-07-03T07:22:11.000Z</time>
      </trkpt>
      <trkpt lat="46.52849" lon="0.33433">
        <ele>100.5</ele>
        <time>2011-07-03T07:22:12.000Z</time>
      </trkpt>
      <trkpt lat="46.52855" lon="0.33432">
        <ele>100.2</ele>
        <time>2011-07-03T07:22:13.000Z</time>
      </trkpt>
      <trkpt lat="46.52861" lon="0.33432">
        <ele>99.9</ele>
        <time>2011-07-03T07:22:14.000Z</time>
      </trkpt>
      <trkpt lat="46.52868" lon="0.33434">
        <ele>100.2</ele>
        <time>2011-07-03T07:22:15.000Z</time>
      </trkpt>
      <trkpt lat="46.52882" lon="0.33438">
        <ele>100.6</ele>
        <time>2011-07-03T07:22:17.000Z</time>
      </trkpt>
      <trkpt lat="46.52894" lon="0.33443">
        <ele>100.7</ele>
        <time>2011-07-03T07:22:19.000Z</time>
      </trkpt>
      <trkpt lat="46.52904" lon="0.33449">
        <ele>101.2</ele>
        <time>2011-07-03T07:22:21.000Z</time>
      </trkpt>
      <trkpt lat="46.52913" lon="0.33454">
        <ele>101.6</ele>
        <time>2011-07-03T07:22:23.000Z</time>
      </trkpt>
      <trkpt lat="46.52925" lon="0.3346">
        <ele>102.4</ele>
        <time>2011-07-03T07:22:26.000Z</time>
      </trkpt>
      <trkpt lat="46.52932" lon="0.33466">
        <ele>102.8</ele>
        <time>2011-07-03T07:22:28.000Z</time>
      </trkpt>
      <trkpt lat="46.52936" lon="0.33469">
        <ele>103</ele>
        <time>2011-07-03T07:22:29.000Z</time>
      </trkpt>
      <trkpt lat="46.5294" lon="0.33471">
        <ele>103.4</ele>
        <time>2011-07-03T07:22:30.000Z</time>
      </trkpt>
      <trkpt lat="46.52944" lon="0.33472">
        <ele>103.9</ele>
        <time>2011-07-03T07:22:31.000Z</time>
      </trkpt>
      <trkpt lat="46.52948" lon="0.33472">
        <ele>104.2</ele>
        <time>2011-07-03T07:22:32.000Z</time>
      </trkpt>
      <trkpt lat="46.52951" lon="0.33473">
        <ele>104.4</ele>
        <time>2011-07-03T07:22:33.000Z</time>
      </trkpt>
      <trkpt lat="46.52962" lon="0.33476">
        <ele>105</ele>
        <time>2011-07-03T07:22:36.000Z</time>
      </trkpt>
      <trkpt lat="46.52964" lon="0.33478">
        <ele>105.1</ele>
        <time>2011-07-03T07:22:37.000Z</time>
      </trkpt>
      <trkpt lat="46.52967" lon="0.3348">
        <ele>105.3</ele>
        <time>2011-07-03T07:22:38.000Z</time>
      </trkpt>
      <trkpt lat="46.52968" lon="0.33483">
        <ele>105.2</ele>
        <time>2011-07-03T07:22:39.000Z</time>
      </trkpt>
      <trkpt lat="46.52969" lon="0.33488">
        <ele>105.2</ele>
        <time>2011-07-03T07:22:40.000Z</time>
      </trkpt>
      <trkpt lat="46.52971" lon="0.33494">
        <ele>105.1</ele>
        <time>2011-07-03T07:22:41.000Z</time>
      </trkpt>
      <trkpt lat="46.52973" lon="0.335">
        <ele>105</ele>
        <time>2011-07-03T07:22:42.000Z</time>
      </trkpt>
      <trkpt lat="46.52978" lon="0.33511">
        <ele>104.7</ele>
        <time>2011-07-03T07:22:44.000Z</time>
      </trkpt>
      <trkpt lat="46.52983" lon="0.3352">
        <ele>104.4</ele>
        <time>2011-07-03T07:22:46.000Z</time>
      </trkpt>
      <trkpt lat="46.52987" lon="0.33522">
        <ele>104.3</ele>
        <time>2011-07-03T07:22:47.000Z</time>
      </trkpt>
      <trkpt lat="46.52999" lon="0.33526">
        <ele>104.1</ele>
        <time>2011-07-03T07:22:50.000Z</time>
      </trkpt>
      <trkpt lat="46.5302" lon="0.33531">
        <ele>104.6</ele>
        <time>2011-07-03T07:22:56.000Z</time>
      </trkpt>
      <trkpt lat="46.53033" lon="0.33532">
        <ele>105</ele>
        <time>2011-07-03T07:22:59.000Z</time>
      </trkpt>
      <trkpt lat="46.5304" lon="0.33537">
        <ele>105.1</ele>
        <time>2011-07-03T07:23:01.000Z</time>
      </trkpt>
      <trkpt lat="46.53049" lon="0.33541">
        <ele>105.3</ele>
        <time>2011-07-03T07:23:03.000Z</time>
      </trkpt>
      <trkpt lat="46.53069" lon="0.33549">
        <ele>105.9</ele>
        <time>2011-07-03T07:23:08.000Z</time>
      </trkpt>
      <trkpt lat="46.53091" lon="0.33555">
        <ele>106.6</ele>
        <time>2011-07-03T07:23:14.000Z</time>
      </trkpt>
      <trkpt lat="46.53095" lon="0.33554">
        <ele>106.9</ele>
        <time>2011-07-03T07:23:15.000Z</time>
      </trkpt>
      <trkpt lat="46.53107" lon="0.33554">
        <ele>107.8</ele>
        <time>2011-07-03T07:23:18.000Z</time>
      </trkpt>
      <trkpt lat="46.53111" lon="0.33555">
        <ele>108</ele>
        <time>2011-07-03T07:23:19.000Z</time>
      </trkpt>
      <trkpt lat="46.53115" lon="0.33557">
        <ele>107.8</ele>
        <time>2011-07-03T07:23:20.000Z</time>
      </trkpt>
      <trkpt lat="46.53119" lon="0.33558">
        <ele>107.7</ele>
        <time>2011-07-03T07:23:21.000Z</time>
      </trkpt>
      <trkpt lat="46.53124" lon="0.33559">
        <ele>107.6</ele>
        <time>2011-07-03T07:23:22.000Z</time>
      </trkpt>
      <trkpt lat="46.53143" lon="0.33563">
        <ele>107.9</ele>
        <time>2011-07-03T07:23:26.000Z</time>
      </trkpt>
      <trkpt lat="46.53167" lon="0.3357">
        <ele>108.5</ele>
        <time>2011-07-03T07:23:32.000Z</time>
      </trkpt>
      <trkpt lat="46.53176" lon="0.33571">
        <ele>108.8</ele>
        <time>2011-07-03T07:23:34.000Z</time>
      </trkpt>
      <trkpt lat="46.5319" lon="0.33568">
        <ele>109.4</ele>
        <time>2011-07-03T07:23:37.000Z</time>
      </trkpt>
      <trkpt lat="46.53206" lon="0.33564">
        <ele>110.1</ele>
        <time>2011-07-03T07:23:41.000Z</time>
      </trkpt>
      <trkpt lat="46.53209" lon="0.33562">
        <ele>110.3</ele>
        <time>2011-07-03T07:23:42.000Z</time>
      </trkpt>
      <trkpt lat="46.53212" lon="0.33561">
        <ele>110.4</ele>
        <time>2011-07-03T07:23:43.000Z</time>
      </trkpt>
      <trkpt lat="46.53216" lon="0.33561">
        <ele>110.6</ele>
        <time>2011-07-03T07:23:44.000Z</time>
      </trkpt>
      <trkpt lat="46.53218" lon="0.33562">
        <ele>110.6</ele>
        <time>2011-07-03T07:23:45.000Z</time>
      </trkpt>
      <trkpt lat="46.53223" lon="0.33565">
        <ele>110.7</ele>
        <time>2011-07-03T07:23:47.000Z</time>
      </trkpt>
      <trkpt lat="46.53223" lon="0.33574">
        <ele>110.4</ele>
        <time>2011-07-03T07:23:50.000Z</time>
      </trkpt>
      <trkpt lat="46.53222" lon="0.33576">
        <ele>110.3</ele>
        <time>2011-07-03T07:23:51.000Z</time>
      </trkpt>
      <trkpt lat="46.53222" lon="0.33579">
        <ele>110.1</ele>
        <time>2011-07-03T07:23:52.000Z</time>
      </trkpt>
      <trkpt lat="46.53224" lon="0.33585">
        <ele>110</ele>
        <time>2011-07-03T07:23:54.000Z</time>
      </trkpt>
      <trkpt lat="46.53232" lon="0.33598">
        <ele>109.5</ele>
        <time>2011-07-03T07:24:00.000Z</time>
      </trkpt>
      <trkpt lat="46.53238" lon="0.3361">
        <ele>109.2</ele>
        <time>2011-07-03T07:24:04.000Z</time>
      </trkpt>
      <trkpt lat="46.5324" lon="0.33612">
        <ele>108.8</ele>
        <time>2011-07-03T07:24:06.000Z</time>
      </trkpt>
      <trkpt lat="46.53246" lon="0.33621">
        <ele>106.3</ele>
        <time>2011-07-03T07:24:09.000Z</time>
      </trkpt>
      <trkpt lat="46.5325" lon="0.33625">
        <ele>105.5</ele>
        <time>2011-07-03T07:24:11.000Z</time>
      </trkpt>
      <trkpt lat="46.53251" lon="0.33626">
        <ele>105.1</ele>
        <time>2011-07-03T07:24:12.000Z</time>
      </trkpt>
      <trkpt lat="46.53251" lon="0.33628">
        <ele>104.7</ele>
        <time>2011-07-03T07:24:13.000Z</time>
      </trkpt>
      <trkpt lat="46.53251" lon="0.33628">
        <ele>104.7</ele>
        <time>2011-07-03T07:24:14.000Z</time>
      </trkpt>
      <trkpt lat="46.5325" lon="0.33628">
        <ele>104.6</ele>
        <time>2011-07-03T07:24:15.000Z</time>
      </trkpt>
      <trkpt lat="46.5325" lon="0.33628">
        <ele>104.6</ele>
        <time>2011-07-03T07:24:16.000Z</time>
      </trkpt>
      <trkpt lat="46.53248" lon="0.33627">
        <ele>104.6</ele>
        <time>2011-07-03T07:24:17.000Z</time>
      </trkpt>
      <trkpt lat="46.53245" lon="0.33625">
        <ele>104.5</ele>
        <time>2011-07-03T07:24:18.000Z</time>
      </trkpt>
      <trkpt lat="46.53244" lon="0.33624">
        <ele>104.7</ele>
        <time>2011-07-03T07:24:19.000Z</time>
      </trkpt>
      <trkpt lat="46.53243" lon="0.33624">
        <ele>104.5</ele>
        <time>2011-07-03T07:24:20.000Z</time>
      </trkpt>
      <trkpt lat="46.53242" lon="0.33624">
        <ele>104.4</ele>
        <time>2011-07-03T07:24:21.000Z</time>
      </trkpt>
      <trkpt lat="46.5324" lon="0.33624">
        <ele>104</ele>
        <time>2011-07-03T07:24:22.000Z</time>
      </trkpt>
      <trkpt lat="46.53239" lon="0.33625">
        <ele>103.7</ele>
        <time>2011-07-03T07:24:23.000Z</time>
      </trkpt>
      <trkpt lat="46.53238" lon="0.33625">
        <ele>103.1</ele>
        <time>2011-07-03T07:24:24.000Z</time>
      </trkpt>
      <trkpt lat="46.53237" lon="0.33627">
        <ele>102.4</ele>
        <time>2011-07-03T07:24:25.000Z</time>
      </trkpt>
      <trkpt lat="46.53237" lon="0.33627">
        <ele>102.1</ele>
        <time>2011-07-03T07:24:26.000Z</time>
      </trkpt>
      <trkpt lat="46.53237" lon="0.33628">
        <ele>101.7</ele>
        <time>2011-07-03T07:24:27.000Z</time>
      </trkpt>
      <trkpt lat="46.53237" lon="0.33629">
        <ele>101.3</ele>
        <time>2011-07-03T07:24:28.000Z</time>
      </trkpt>
      <trkpt lat="46.53238" lon="0.3363">
        <ele>101.1</ele>
        <time>2011-07-03T07:24:29.000Z</time>
      </trkpt>
      <trkpt lat="46.53238" lon="0.33632">
        <ele>100.6</ele>
        <time>2011-07-03T07:24:30.000Z</time>
      </trkpt>
      <trkpt lat="46.53239" lon="0.33633">
        <ele>100.4</ele>
        <time>2011-07-03T07:24:31.000Z</time>
      </trkpt>
      <trkpt lat="46.5324" lon="0.33635">
        <ele>99.8</ele>
        <time>2011-07-03T07:24:32.000Z</time>
      </trkpt>
      <trkpt lat="46.53242" lon="0.33636">
        <ele>99.6</ele>
        <time>2011-07-03T07:24:33.000Z</time>
      </trkpt>
      <trkpt lat="46.53244" lon="0.33639">
        <ele>99.2</ele>
        <time>2011-07-03T07:24:34.000Z</time>
      </trkpt>
      <trkpt lat="46.53246" lon="0.33641">
        <ele>98.6</ele>
        <time>2011-07-03T07:24:35.000Z</time>
      </trkpt>
      <trkpt lat="46.53247" lon="0.33644">
        <ele>97.9</ele>
        <time>2011-07-03T07:24:36.000Z</time>
      </trkpt>
      <trkpt lat="46.53249" lon="0.33646">
        <ele>97.1</ele>
        <time>2011-07-03T07:24:37.000Z</time>
      </trkpt>
      <trkpt lat="46.5325" lon="0.33647">
        <ele>96.9</ele>
        <time>2011-07-03T07:24:38.000Z</time>
      </trkpt>
      <trkpt lat="46.53252" lon="0.33649">
        <ele>96.6</ele>
        <time>2011-07-03T07:24:39.000Z</time>
      </trkpt>
      <trkpt lat="46.53253" lon="0.33649">
        <ele>96.7</ele>
        <time>2011-07-03T07:24:40.000Z</time>
      </trkpt>
      <trkpt lat="46.53254" lon="0.33649">
        <ele>96.8</ele>
        <time>2011-07-03T07:24:41.000Z</time>
      </trkpt>
      <trkpt lat="46.53255" lon="0.3365">
        <ele>97</ele>
        <time>2011-07-03T07:24:42.000Z</time>
      </trkpt>
      <trkpt lat="46.53255" lon="0.3365">
        <ele>97</ele>
        <time>2011-07-03T07:24:43.000Z</time>
      </trkpt>
      <trkpt lat="46.53255" lon="0.3365">
        <ele>97</ele>
        <time>2011-07-03T07:24:44.000Z</time>
      </trkpt>
      <trkpt lat="46.53255" lon="0.3365">
        <ele>97</ele>
        <time>2011-07-03T07:24:45.000Z</time>
      </trkpt>
      <trkpt lat="46.53255" lon="0.3365">
        <ele>97.1</ele>
        <time>2011-07-03T07:24:46.000Z</time>
      </trkpt>
      <trkpt lat="46.53255" lon="0.3365">
        <ele>97.1</ele>
        <time>2011-07-03T07:24:47.000Z</time>
      </trkpt>
      <trkpt lat="46.53256" lon="0.3365">
        <ele>96.9</ele>
        <time>2011-07-03T07:24:48.000Z</time>
      </trkpt>
      <trkpt lat="46.53256" lon="0.3365">
        <ele>96.9</ele>
        <time>2011-07-03T07:24:49.000Z</time>
      </trkpt>
      <trkpt lat="46.53252" lon="0.33652">
        <ele>95.1</ele>
        <time>2011-07-03T07:24:53.000Z</time>
      </trkpt>
      <trkpt lat="46.53246" lon="0.33652">
        <ele>93.6</ele>
        <time>2011-07-03T07:24:55.000Z</time>
      </trkpt>
      <trkpt lat="46.53241" lon="0.33652">
        <ele>92.7</ele>
        <time>2011-07-03T07:24:58.000Z</time>
      </trkpt>
      <trkpt lat="46.53232" lon="0.33652">
        <ele>91.3</ele>
        <time>2011-07-03T07:25:02.000Z</time>
      </trkpt>
      <trkpt lat="46.53229" lon="0.33652">
        <ele>90.8</ele>
        <time>2011-07-03T07:25:03.000Z</time>
      </trkpt>
      <trkpt lat="46.53227" lon="0.33652">
        <ele>90.5</ele>
        <time>2011-07-03T07:25:04.000Z</time>
      </trkpt>
      <trkpt lat="46.53225" lon="0.33652">
        <ele>90.1</ele>
        <time>2011-07-03T07:25:05.000Z</time>
      </trkpt>
      <trkpt lat="46.53223" lon="0.33652">
        <ele>89.6</ele>
        <time>2011-07-03T07:25:06.000Z</time>
      </trkpt>
      <trkpt lat="46.53221" lon="0.33652">
        <ele>89.5</ele>
        <time>2011-07-03T07:25:07.000Z</time>
      </trkpt>
      <trkpt lat="46.53219" lon="0.33653">
        <ele>89.2</ele>
        <time>2011-07-03T07:25:08.000Z</time>
      </trkpt>
      <trkpt lat="46.53219" lon="0.33655">
        <ele>88.8</ele>
        <time>2011-07-03T07:25:09.000Z</time>
      </trkpt>
      <trkpt lat="46.5322" lon="0.33656">
        <ele>88.5</ele>
        <time>2011-07-03T07:25:10.000Z</time>
      </trkpt>
      <trkpt lat="46.53221" lon="0.33656">
        <ele>88.5</ele>
        <time>2011-07-03T07:25:11.000Z</time>
      </trkpt>
      <trkpt lat="46.53221" lon="0.33657">
        <ele>88.4</ele>
        <time>2011-07-03T07:25:12.000Z</time>
      </trkpt>
      <trkpt lat="46.53223" lon="0.33658">
        <ele>88.3</ele>
        <time>2011-07-03T07:25:13.000Z</time>
      </trkpt>
      <trkpt lat="46.53223" lon="0.33658">
        <ele>88.2</ele>
        <time>2011-07-03T07:25:14.000Z</time>
      </trkpt>
      <trkpt lat="46.53224" lon="0.33659">
        <ele>88</ele>
        <time>2011-07-03T07:25:15.000Z</time>
      </trkpt>
      <trkpt lat="46.53225" lon="0.33661">
        <ele>87.6</ele>
        <time>2011-07-03T07:25:16.000Z</time>
      </trkpt>
      <trkpt lat="46.53226" lon="0.33662">
        <ele>87.4</ele>
        <time>2011-07-03T07:25:17.000Z</time>
      </trkpt>
      <trkpt lat="46.53227" lon="0.33664">
        <ele>87</ele>
        <time>2011-07-03T07:25:18.000Z</time>
      </trkpt>
      <trkpt lat="46.53228" lon="0.33664">
        <ele>86.9</ele>
        <time>2011-07-03T07:25:19.000Z</time>
      </trkpt>
      <trkpt lat="46.53228" lon="0.33665">
        <ele>86.6</ele>
        <time>2011-07-03T07:25:20.000Z</time>
      </trkpt>
      <trkpt lat="46.53228" lon="0.33665">
        <ele>86.6</ele>
        <time>2011-07-03T07:25:21.000Z</time>
      </trkpt>
      <trkpt lat="46.53228" lon="0.33666">
        <ele>86.4</ele>
        <time>2011-07-03T07:25:22.000Z</time>
      </trkpt>
      <trkpt lat="46.53228" lon="0.33666">
        <ele>86.4</ele>
        <time>2011-07-03T07:25:24.000Z</time>
      </trkpt>
      <trkpt lat="46.53228" lon="0.33666">
        <ele>86.4</ele>
        <time>2011-07-03T07:25:25.000Z</time>
      </trkpt>
      <trkpt lat="46.53228" lon="0.33666">
        <ele>86.4</ele>
        <time>2011-07-03T07:25:26.000Z</time>
      </trkpt>
      <trkpt lat="46.53228" lon="0.33666">
        <ele>86.4</ele>
        <time>2011-07-03T07:25:27.000Z</time>
      </trkpt>
      <trkpt lat="46.53229" lon="0.33664">
        <ele>87</ele>
        <time>2011-07-03T07:25:30.000Z</time>
      </trkpt>
      <trkpt lat="46.5323" lon="0.33662">
        <ele>87.8</ele>
        <time>2011-07-03T07:25:36.000Z</time>
      </trkpt>
      <trkpt lat="46.53233" lon="0.33664">
        <ele>87.3</ele>
        <time>2011-07-03T07:25:42.000Z</time>
      </trkpt>
      <trkpt lat="46.53235" lon="0.33666">
        <ele>86.7</ele>
        <time>2011-07-03T07:25:44.000Z</time>
      </trkpt>
      <trkpt lat="46.53236" lon="0.33667">
        <ele>86.5</ele>
        <time>2011-07-03T07:25:45.000Z</time>
      </trkpt>
      <trkpt lat="46.53236" lon="0.33667">
        <ele>86.5</ele>
        <time>2011-07-03T07:25:46.000Z</time>
      </trkpt>
      <trkpt lat="46.53237" lon="0.33668">
        <ele>86.4</ele>
        <time>2011-07-03T07:25:47.000Z</time>
      </trkpt>
      <trkpt lat="46.53237" lon="0.33669">
        <ele>86.2</ele>
        <time>2011-07-03T07:25:48.000Z</time>
      </trkpt>
      <trkpt lat="46.53235" lon="0.33688">
        <ele>82.5</ele>
        <time>2011-07-03T07:25:57.000Z</time>
      </trkpt>
      <trkpt lat="46.53235" lon="0.33689">
        <ele>82.2</ele>
        <time>2011-07-03T07:25:58.000Z</time>
      </trkpt>
      <trkpt lat="46.53234" lon="0.33691">
        <ele>81.7</ele>
        <time>2011-07-03T07:25:59.000Z</time>
      </trkpt>
      <trkpt lat="46.53233" lon="0.33693">
        <ele>81.2</ele>
        <time>2011-07-03T07:26:00.000Z</time>
      </trkpt>
      <trkpt lat="46.53233" lon="0.33694">
        <ele>80.7</ele>
        <time>2011-07-03T07:26:01.000Z</time>
      </trkpt>
      <trkpt lat="46.53231" lon="0.33697">
        <ele>79.8</ele>
        <time>2011-07-03T07:26:06.000Z</time>
      </trkpt>
      <trkpt lat="46.5323" lon="0.337">
        <ele>78.9</ele>
        <time>2011-07-03T07:26:09.000Z</time>
      </trkpt>
      <trkpt lat="46.5323" lon="0.337">
        <ele>78.8</ele>
        <time>2011-07-03T07:26:10.000Z</time>
      </trkpt>
      <trkpt lat="46.5323" lon="0.337">
        <ele>78.8</ele>
        <time>2011-07-03T07:26:11.000Z</time>
      </trkpt>
      <trkpt lat="46.5323" lon="0.33701">
        <ele>78.6</ele>
        <time>2011-07-03T07:26:12.000Z</time>
      </trkpt>
      <trkpt lat="46.53229" lon="0.33702">
        <ele>78.3</ele>
        <time>2011-07-03T07:26:13.000Z</time>
      </trkpt>
      <trkpt lat="46.53229" lon="0.33704">
        <ele>77.8</ele>
        <time>2011-07-03T07:26:14.000Z</time>
      </trkpt>
      <trkpt lat="46.53229" lon="0.33707">
        <ele>77.3</ele>
        <time>2011-07-03T07:26:16.000Z</time>
      </trkpt>
      <trkpt lat="46.53229" lon="0.33707">
        <ele>77.1</ele>
        <time>2011-07-03T07:26:17.000Z</time>
      </trkpt>
      <trkpt lat="46.53228" lon="0.33707">
        <ele>77.1</ele>
        <time>2011-07-03T07:26:18.000Z</time>
      </trkpt>
      <trkpt lat="46.53228" lon="0.33707">
        <ele>77</ele>
        <time>2011-07-03T07:26:19.000Z</time>
      </trkpt>
      <trkpt lat="46.53226" lon="0.33707">
        <ele>76.9</ele>
        <time>2011-07-03T07:26:23.000Z</time>
      </trkpt>
      <trkpt lat="46.53226" lon="0.33707">
        <ele>76.9</ele>
        <time>2011-07-03T07:26:28.000Z</time>
      </trkpt>
      <trkpt lat="46.53226" lon="0.33707">
        <ele>76.9</ele>
        <time>2011-07-03T07:26:33.000Z</time>
      </trkpt>
      <trkpt lat="46.53226" lon="0.33707">
        <ele>76.9</ele>
        <time>2011-07-03T07:26:41.000Z</time>
      </trkpt>
      <trkpt lat="46.53226" lon="0.33707">
        <ele>76.9</ele>
        <time>2011-07-03T07:26:44.000Z</time>
      </trkpt>
      <trkpt lat="46.53224" lon="0.33705">
        <ele>76.7</ele>
        <time>2011-07-03T07:26:48.000Z</time>
      </trkpt>
      <trkpt lat="46.5322" lon="0.33703">
        <ele>76.6</ele>
        <time>2011-07-03T07:26:50.000Z</time>
      </trkpt>
      <trkpt lat="46.5321" lon="0.33698">
        <ele>76.4</ele>
        <time>2011-07-03T07:26:55.000Z</time>
      </trkpt>
      <trkpt lat="46.53201" lon="0.33693">
        <ele>76.3</ele>
        <time>2011-07-03T07:26:59.000Z</time>
      </trkpt>
      <trkpt lat="46.53197" lon="0.33692">
        <ele>76.3</ele>
        <time>2011-07-03T07:27:00.000Z</time>
      </trkpt>
      <trkpt lat="46.5318" lon="0.33683">
        <ele>77.3</ele>
        <time>2011-07-03T07:27:05.000Z</time>
      </trkpt>
      <trkpt lat="46.53157" lon="0.33669">
        <ele>76.8</ele>
        <time>2011-07-03T07:27:11.000Z</time>
      </trkpt>
      <trkpt lat="46.53149" lon="0.33665">
        <ele>76.6</ele>
        <time>2011-07-03T07:27:13.000Z</time>
      </trkpt>
      <trkpt lat="46.53135" lon="0.33661">
        <ele>76.5</ele>
        <time>2011-07-03T07:27:16.000Z</time>
      </trkpt>
      <trkpt lat="46.53131" lon="0.3366">
        <ele>76.8</ele>
        <time>2011-07-03T07:27:17.000Z</time>
      </trkpt>
      <trkpt lat="46.5311" lon="0.33652">
        <ele>77.1</ele>
        <time>2011-07-03T07:27:22.000Z</time>
      </trkpt>
      <trkpt lat="46.53105" lon="0.33652">
        <ele>76.7</ele>
        <time>2011-07-03T07:27:26.000Z</time>
      </trkpt>
      <trkpt lat="46.53095" lon="0.3365">
        <ele>76.6</ele>
        <time>2011-07-03T07:27:29.000Z</time>
      </trkpt>
      <trkpt lat="46.53087" lon="0.33649">
        <ele>76.1</ele>
        <time>2011-07-03T07:27:31.000Z</time>
      </trkpt>
      <trkpt lat="46.53074" lon="0.33655">
        <ele>75.2</ele>
        <time>2011-07-03T07:27:34.000Z</time>
      </trkpt>
      <trkpt lat="46.53071" lon="0.33657">
        <ele>75</ele>
        <time>2011-07-03T07:27:35.000Z</time>
      </trkpt>
      <trkpt lat="46.53062" lon="0.33661">
        <ele>74.9</ele>
        <time>2011-07-03T07:27:37.000Z</time>
      </trkpt>
      <trkpt lat="46.53053" lon="0.33665">
        <ele>75</ele>
        <time>2011-07-03T07:27:39.000Z</time>
      </trkpt>
      <trkpt lat="46.53036" lon="0.33671">
        <ele>74.9</ele>
        <time>2011-07-03T07:27:43.000Z</time>
      </trkpt>
      <trkpt lat="46.53018" lon="0.33676">
        <ele>74.8</ele>
        <time>2011-07-03T07:27:47.000Z</time>
      </trkpt>
      <trkpt lat="46.52989" lon="0.3368">
        <ele>75</ele>
        <time>2011-07-03T07:27:53.000Z</time>
      </trkpt>
      <trkpt lat="46.52984" lon="0.33681">
        <ele>75</ele>
        <time>2011-07-03T07:27:54.000Z</time>
      </trkpt>
      <trkpt lat="46.52969" lon="0.3368">
        <ele>75</ele>
        <time>2011-07-03T07:27:57.000Z</time>
      </trkpt>
      <trkpt lat="46.52945" lon="0.33672">
        <ele>75</ele>
        <time>2011-07-03T07:28:02.000Z</time>
      </trkpt>
      <trkpt lat="46.52919" lon="0.33662">
        <ele>75</ele>
        <time>2011-07-03T07:28:08.000Z</time>
      </trkpt>
      <trkpt lat="46.52897" lon="0.33656">
        <ele>75</ele>
        <time>2011-07-03T07:28:14.000Z</time>
      </trkpt>
      <trkpt lat="46.52895" lon="0.33657">
        <ele>75</ele>
        <time>2011-07-03T07:28:15.000Z</time>
      </trkpt>
      <trkpt lat="46.52893" lon="0.33659">
        <ele>75</ele>
        <time>2011-07-03T07:28:18.000Z</time>
      </trkpt>
      <trkpt lat="46.52888" lon="0.33663">
        <ele>75</ele>
        <time>2011-07-03T07:28:25.000Z</time>
      </trkpt>
      <trkpt lat="46.52888" lon="0.33666">
        <ele>75</ele>
        <time>2011-07-03T07:28:30.000Z</time>
      </trkpt>
      <trkpt lat="46.52886" lon="0.3367">
        <ele>75</ele>
        <time>2011-07-03T07:28:32.000Z</time>
      </trkpt>
      <trkpt lat="46.52885" lon="0.33675">
        <ele>75</ele>
        <time>2011-07-03T07:28:35.000Z</time>
      </trkpt>
      <trkpt lat="46.52884" lon="0.33679">
        <ele>75</ele>
        <time>2011-07-03T07:28:37.000Z</time>
      </trkpt>
      <trkpt lat="46.52881" lon="0.33685">
        <ele>75</ele>
        <time>2011-07-03T07:28:40.000Z</time>
      </trkpt>
      <trkpt lat="46.52881" lon="0.33691">
        <ele>75</ele>
        <time>2011-07-03T07:28:42.000Z</time>
      </trkpt>
      <trkpt lat="46.52885" lon="0.3369">
        <ele>75</ele>
        <time>2011-07-03T07:28:44.000Z</time>
      </trkpt>
      <trkpt lat="46.52888" lon="0.33692">
        <ele>75</ele>
        <time>2011-07-03T07:28:45.000Z</time>
      </trkpt>
      <trkpt lat="46.52893" lon="0.337">
        <ele>75.1</ele>
        <time>2011-07-03T07:28:48.000Z</time>
      </trkpt>
      <trkpt lat="46.5289" lon="0.33714">
        <ele>75.6</ele>
        <time>2011-07-03T07:28:52.000Z</time>
      </trkpt>
      <trkpt lat="46.52888" lon="0.33715">
        <ele>75.7</ele>
        <time>2011-07-03T07:28:53.000Z</time>
      </trkpt>
      <trkpt lat="46.52883" lon="0.33715">
        <ele>75.6</ele>
        <time>2011-07-03T07:28:55.000Z</time>
      </trkpt>
      <trkpt lat="46.52865" lon="0.33721">
        <ele>75.1</ele>
        <time>2011-07-03T07:29:00.000Z</time>
      </trkpt>
      <trkpt lat="46.52846" lon="0.33725">
        <ele>75</ele>
        <time>2011-07-03T07:29:06.000Z</time>
      </trkpt>
      <trkpt lat="46.52843" lon="0.3373">
        <ele>74.9</ele>
        <time>2011-07-03T07:29:11.000Z</time>
      </trkpt>
      <trkpt lat="46.52843" lon="0.33733">
        <ele>74.9</ele>
        <time>2011-07-03T07:29:12.000Z</time>
      </trkpt>
      <trkpt lat="46.52842" lon="0.33738">
        <ele>74.8</ele>
        <time>2011-07-03T07:29:16.000Z</time>
      </trkpt>
      <trkpt lat="46.52842" lon="0.3374">
        <ele>74.8</ele>
        <time>2011-07-03T07:29:17.000Z</time>
      </trkpt>
      <trkpt lat="46.52841" lon="0.33746">
        <ele>74.8</ele>
        <time>2011-07-03T07:29:19.000Z</time>
      </trkpt>
      <trkpt lat="46.52841" lon="0.33752">
        <ele>74.7</ele>
        <time>2011-07-03T07:29:21.000Z</time>
      </trkpt>
      <trkpt lat="46.52838" lon="0.33759">
        <ele>74.8</ele>
        <time>2011-07-03T07:29:26.000Z</time>
      </trkpt>
      <trkpt lat="46.52837" lon="0.33761">
        <ele>74.9</ele>
        <time>2011-07-03T07:29:34.000Z</time>
      </trkpt>
      <trkpt lat="46.52837" lon="0.33762">
        <ele>74.9</ele>
        <time>2011-07-03T07:29:40.000Z</time>
      </trkpt>
      <trkpt lat="46.52836" lon="0.33766">
        <ele>74.9</ele>
        <time>2011-07-03T07:29:48.000Z</time>
      </trkpt>
      <trkpt lat="46.52837" lon="0.3377">
        <ele>74.9</ele>
        <time>2011-07-03T07:29:50.000Z</time>
      </trkpt>
      <trkpt lat="46.52837" lon="0.33772">
        <ele>74.9</ele>
        <time>2011-07-03T07:29:51.000Z</time>
      </trkpt>
      <trkpt lat="46.5284" lon="0.33775">
        <ele>74.7</ele>
        <time>2011-07-03T07:29:53.000Z</time>
      </trkpt>
      <trkpt lat="46.52842" lon="0.33776">
        <ele>74.7</ele>
        <time>2011-07-03T07:29:54.000Z</time>
      </trkpt>
      <trkpt lat="46.52844" lon="0.33776">
        <ele>74.6</ele>
        <time>2011-07-03T07:29:55.000Z</time>
      </trkpt>
      <trkpt lat="46.52846" lon="0.33779">
        <ele>74.5</ele>
        <time>2011-07-03T07:29:56.000Z</time>
      </trkpt>
      <trkpt lat="46.52847" lon="0.33782">
        <ele>74.5</ele>
        <time>2011-07-03T07:29:57.000Z</time>
      </trkpt>
      <trkpt lat="46.52849" lon="0.33786">
        <ele>74.5</ele>
        <time>2011-07-03T07:29:59.000Z</time>
      </trkpt>
      <trkpt lat="46.52852" lon="0.33789">
        <ele>74.5</ele>
        <time>2011-07-03T07:30:01.000Z</time>
      </trkpt>
      <trkpt lat="46.52853" lon="0.3379">
        <ele>74.5</ele>
        <time>2011-07-03T07:30:02.000Z</time>
      </trkpt>
      <trkpt lat="46.52861" lon="0.33794">
        <ele>74.6</ele>
        <time>2011-07-03T07:30:07.000Z</time>
      </trkpt>
      <trkpt lat="46.52863" lon="0.33793">
        <ele>74.6</ele>
        <time>2011-07-03T07:30:09.000Z</time>
      </trkpt>
      <trkpt lat="46.52863" lon="0.33793">
        <ele>74.6</ele>
        <time>2011-07-03T07:30:10.000Z</time>
      </trkpt>
      <trkpt lat="46.52865" lon="0.33792">
        <ele>74.6</ele>
        <time>2011-07-03T07:30:11.000Z</time>
      </trkpt>
      <trkpt lat="46.52866" lon="0.33792">
        <ele>74.6</ele>
        <time>2011-07-03T07:30:12.000Z</time>
      </trkpt>
      <trkpt lat="46.52865" lon="0.33792">
        <ele>74.6</ele>
        <time>2011-07-03T07:30:13.000Z</time>
      </trkpt>
      <trkpt lat="46.52865" lon="0.33792">
        <ele>74.6</ele>
        <time>2011-07-03T07:30:16.000Z</time>
      </trkpt>
      <trkpt lat="46.52869" lon="0.33791">
        <ele>74.6</ele>
        <time>2011-07-03T07:30:22.000Z</time>
      </trkpt>
      <trkpt lat="46.5287" lon="0.33791">
        <ele>74.6</ele>
        <time>2011-07-03T07:30:23.000Z</time>
      </trkpt>
      <trkpt lat="46.52872" lon="0.33789">
        <ele>74.6</ele>
        <time>2011-07-03T07:30:27.000Z</time>
      </trkpt>
      <trkpt lat="46.52874" lon="0.33789">
        <ele>74.6</ele>
        <time>2011-07-03T07:30:31.000Z</time>
      </trkpt>
      <trkpt lat="46.52874" lon="0.33789">
        <ele>74.6</ele>
        <time>2011-07-03T07:30:32.000Z</time>
      </trkpt>
      <trkpt lat="46.52874" lon="0.33789">
        <ele>74.6</ele>
        <time>2011-07-03T07:30:33.000Z</time>
      </trkpt>
      <trkpt lat="46.52874" lon="0.33789">
        <ele>74.6</ele>
        <time>2011-07-03T07:30:35.000Z</time>
      </trkpt>
      <trkpt lat="46.52875" lon="0.33791">
        <ele>74.7</ele>
        <time>2011-07-03T07:30:36.000Z</time>
      </trkpt>
      <trkpt lat="46.52876" lon="0.33793">
        <ele>74.8</ele>
        <time>2011-07-03T07:30:39.000Z</time>
      </trkpt>
      <trkpt lat="46.52877" lon="0.33794">
        <ele>74.9</ele>
        <time>2011-07-03T07:30:40.000Z</time>
      </trkpt>
      <trkpt lat="46.52878" lon="0.33794">
        <ele>74.9</ele>
        <time>2011-07-03T07:30:41.000Z</time>
      </trkpt>
      <trkpt lat="46.52879" lon="0.33794">
        <ele>74.9</ele>
        <time>2011-07-03T07:30:42.000Z</time>
      </trkpt>
      <trkpt lat="46.52879" lon="0.33792">
        <ele>74.9</ele>
        <time>2011-07-03T07:30:43.000Z</time>
      </trkpt>
      <trkpt lat="46.52881" lon="0.3379">
        <ele>74.7</ele>
        <time>2011-07-03T07:30:46.000Z</time>
      </trkpt>
      <trkpt lat="46.52881" lon="0.3379">
        <ele>74.8</ele>
        <time>2011-07-03T07:30:52.000Z</time>
      </trkpt>
      <trkpt lat="46.52881" lon="0.33791">
        <ele>74.8</ele>
        <time>2011-07-03T07:30:58.000Z</time>
      </trkpt>
      <trkpt lat="46.52881" lon="0.33791">
        <ele>74.8</ele>
        <time>2011-07-03T07:31:06.000Z</time>
      </trkpt>
      <trkpt lat="46.52881" lon="0.33791">
        <ele>74.8</ele>
        <time>2011-07-03T07:31:08.000Z</time>
      </trkpt>
      <trkpt lat="46.52881" lon="0.33791">
        <ele>74.8</ele>
        <time>2011-07-03T07:31:16.000Z</time>
      </trkpt>
      <trkpt lat="46.52881" lon="0.33791">
        <ele>74.8</ele>
        <time>2011-07-03T07:31:23.000Z</time>
      </trkpt>
      <trkpt lat="46.52881" lon="0.33791">
        <ele>74.8</ele>
        <time>2011-07-03T07:31:27.000Z</time>
      </trkpt>
      <trkpt lat="46.52881" lon="0.33791">
        <ele>74.8</ele>
        <time>2011-07-03T07:31:31.000Z</time>
      </trkpt>
      <trkpt lat="46.52881" lon="0.33791">
        <ele>74.8</ele>
        <time>2011-07-03T07:31:33.000Z</time>
      </trkpt>
      <trkpt lat="46.52882" lon="0.33792">
        <ele>74.9</ele>
        <time>2011-07-03T07:31:36.000Z</time>
      </trkpt>
      <trkpt lat="46.52882" lon="0.33792">
        <ele>74.9</ele>
        <time>2011-07-03T07:31:44.000Z</time>
      </trkpt>
      <trkpt lat="46.52882" lon="0.33792">
        <ele>74.9</ele>
        <time>2011-07-03T07:31:47.000Z</time>
      </trkpt>
      <trkpt lat="46.52882" lon="0.33792">
        <ele>74.9</ele>
        <time>2011-07-03T07:31:54.000Z</time>
      </trkpt>
      <trkpt lat="46.52882" lon="0.33792">
        <ele>74.9</ele>
        <time>2011-07-03T07:31:56.000Z</time>
      </trkpt>
      <trkpt lat="46.52882" lon="0.33792">
        <ele>74.9</ele>
        <time>2011-07-03T07:31:57.000Z</time>
      </trkpt>
      <trkpt lat="46.5289" lon="0.338">
        <ele>75.6</ele>
        <time>2011-07-03T07:32:01.000Z</time>
      </trkpt>
      <trkpt lat="46.52894" lon="0.33815">
        <ele>76.1</ele>
        <time>2011-07-03T07:32:05.000Z</time>
      </trkpt>
      <trkpt lat="46.52899" lon="0.33838">
        <ele>76.5</ele>
        <time>2011-07-03T07:32:12.000Z</time>
      </trkpt>
      <trkpt lat="46.52903" lon="0.33857">
        <ele>76.9</ele>
        <time>2011-07-03T07:32:17.000Z</time>
      </trkpt>
      <trkpt lat="46.52904" lon="0.33861">
        <ele>77</ele>
        <time>2011-07-03T07:32:18.000Z</time>
      </trkpt>
      <trkpt lat="46.5291" lon="0.33889">
        <ele>77.3</ele>
        <time>2011-07-03T07:32:25.000Z</time>
      </trkpt>
      <trkpt lat="46.52908" lon="0.33904">
        <ele>77.7</ele>
        <time>2011-07-03T07:32:29.000Z</time>
      </trkpt>
      <trkpt lat="46.52905" lon="0.33904">
        <ele>77.7</ele>
        <time>2011-07-03T07:32:30.000Z</time>
      </trkpt>
      <trkpt lat="46.52888" lon="0.33905">
        <ele>78</ele>
        <time>2011-07-03T07:32:35.000Z</time>
      </trkpt>
      <trkpt lat="46.52864" lon="0.33905">
        <ele>77.1</ele>
        <time>2011-07-03T07:32:41.000Z</time>
      </trkpt>
      <trkpt lat="46.5284" lon="0.33912">
        <ele>77.6</ele>
        <time>2011-07-03T07:32:47.000Z</time>
      </trkpt>
      <trkpt lat="46.52821" lon="0.33916">
        <ele>77.6</ele>
        <time>2011-07-03T07:32:51.000Z</time>
      </trkpt>
      <trkpt lat="46.52817" lon="0.33916">
        <ele>77.4</ele>
        <time>2011-07-03T07:32:52.000Z</time>
      </trkpt>
      <trkpt lat="46.52801" lon="0.33918">
        <ele>77</ele>
        <time>2011-07-03T07:32:56.000Z</time>
      </trkpt>
      <trkpt lat="46.52797" lon="0.33918">
        <ele>77.1</ele>
        <time>2011-07-03T07:32:57.000Z</time>
      </trkpt>
      <trkpt lat="46.52786" lon="0.33932">
        <ele>77.5</ele>
        <time>2011-07-03T07:33:01.000Z</time>
      </trkpt>
      <trkpt lat="46.52781" lon="0.33955">
        <ele>78</ele>
        <time>2011-07-03T07:33:05.000Z</time>
      </trkpt>
      <trkpt lat="46.5278" lon="0.33961">
        <ele>78</ele>
        <time>2011-07-03T07:33:06.000Z</time>
      </trkpt>
      <trkpt lat="46.52779" lon="0.33966">
        <ele>78</ele>
        <time>2011-07-03T07:33:07.000Z</time>
      </trkpt>
      <trkpt lat="46.52779" lon="0.33971">
        <ele>78</ele>
        <time>2011-07-03T07:33:08.000Z</time>
      </trkpt>
      <trkpt lat="46.52778" lon="0.33977">
        <ele>78.3</ele>
        <time>2011-07-03T07:33:09.000Z</time>
      </trkpt>
      <trkpt lat="46.52774" lon="0.33991">
        <ele>79.4</ele>
        <time>2011-07-03T07:33:12.000Z</time>
      </trkpt>
      <trkpt lat="46.5277" lon="0.34006">
        <ele>80.8</ele>
        <time>2011-07-03T07:33:15.000Z</time>
      </trkpt>
      <trkpt lat="46.52769" lon="0.34012">
        <ele>81.7</ele>
        <time>2011-07-03T07:33:16.000Z</time>
      </trkpt>
      <trkpt lat="46.52767" lon="0.34016">
        <ele>82.3</ele>
        <time>2011-07-03T07:33:17.000Z</time>
      </trkpt>
      <trkpt lat="46.52765" lon="0.3402">
        <ele>82.9</ele>
        <time>2011-07-03T07:33:18.000Z</time>
      </trkpt>
      <trkpt lat="46.52763" lon="0.34024">
        <ele>83.5</ele>
        <time>2011-07-03T07:33:19.000Z</time>
      </trkpt>
      <trkpt lat="46.52761" lon="0.34027">
        <ele>83.8</ele>
        <time>2011-07-03T07:33:20.000Z</time>
      </trkpt>
      <trkpt lat="46.52757" lon="0.34028">
        <ele>84</ele>
        <time>2011-07-03T07:33:21.000Z</time>
      </trkpt>
      <trkpt lat="46.52754" lon="0.34028">
        <ele>84</ele>
        <time>2011-07-03T07:33:22.000Z</time>
      </trkpt>
      <trkpt lat="46.5275" lon="0.34028">
        <ele>84.1</ele>
        <time>2011-07-03T07:33:23.000Z</time>
      </trkpt>
      <trkpt lat="46.52746" lon="0.3403">
        <ele>84.4</ele>
        <time>2011-07-03T07:33:24.000Z</time>
      </trkpt>
      <trkpt lat="46.52743" lon="0.34031">
        <ele>84.7</ele>
        <time>2011-07-03T07:33:25.000Z</time>
      </trkpt>
      <trkpt lat="46.5274" lon="0.34033">
        <ele>84.9</ele>
        <time>2011-07-03T07:33:26.000Z</time>
      </trkpt>
      <trkpt lat="46.52737" lon="0.34033">
        <ele>85</ele>
        <time>2011-07-03T07:33:27.000Z</time>
      </trkpt>
      <trkpt lat="46.52734" lon="0.34033">
        <ele>85.1</ele>
        <time>2011-07-03T07:33:28.000Z</time>
      </trkpt>
      <trkpt lat="46.5273" lon="0.34034">
        <ele>85.3</ele>
        <time>2011-07-03T07:33:29.000Z</time>
      </trkpt>
      <trkpt lat="46.52727" lon="0.34035">
        <ele>85.5</ele>
        <time>2011-07-03T07:33:30.000Z</time>
      </trkpt>
      <trkpt lat="46.52723" lon="0.34035">
        <ele>85.6</ele>
        <time>2011-07-03T07:33:31.000Z</time>
      </trkpt>
      <trkpt lat="46.52719" lon="0.34036">
        <ele>85.8</ele>
        <time>2011-07-03T07:33:32.000Z</time>
      </trkpt>
      <trkpt lat="46.52716" lon="0.34037">
        <ele>86</ele>
        <time>2011-07-03T07:33:33.000Z</time>
      </trkpt>
      <trkpt lat="46.52713" lon="0.34038">
        <ele>86.2</ele>
        <time>2011-07-03T07:33:34.000Z</time>
      </trkpt>
      <trkpt lat="46.52699" lon="0.34039">
        <ele>86.7</ele>
        <time>2011-07-03T07:33:37.000Z</time>
      </trkpt>
      <trkpt lat="46.52695" lon="0.34038">
        <ele>86.7</ele>
        <time>2011-07-03T07:33:38.000Z</time>
      </trkpt>
      <trkpt lat="46.52678" lon="0.34036">
        <ele>86.5</ele>
        <time>2011-07-03T07:33:43.000Z</time>
      </trkpt>
      <trkpt lat="46.52656" lon="0.34031">
        <ele>86.6</ele>
        <time>2011-07-03T07:33:49.000Z</time>
      </trkpt>
      <trkpt lat="46.52639" lon="0.34029">
        <ele>87.3</ele>
        <time>2011-07-03T07:33:54.000Z</time>
      </trkpt>
      <trkpt lat="46.52634" lon="0.34028">
        <ele>87.2</ele>
        <time>2011-07-03T07:33:55.000Z</time>
      </trkpt>
      <trkpt lat="46.5263" lon="0.34028">
        <ele>87.4</ele>
        <time>2011-07-03T07:33:56.000Z</time>
      </trkpt>
      <trkpt lat="46.52626" lon="0.34028">
        <ele>87.6</ele>
        <time>2011-07-03T07:33:57.000Z</time>
      </trkpt>
      <trkpt lat="46.52621" lon="0.34029">
        <ele>87.8</ele>
        <time>2011-07-03T07:33:58.000Z</time>
      </trkpt>
      <trkpt lat="46.52613" lon="0.34029">
        <ele>88.2</ele>
        <time>2011-07-03T07:34:00.000Z</time>
      </trkpt>
      <trkpt lat="46.52588" lon="0.34032">
        <ele>89.7</ele>
        <time>2011-07-03T07:34:07.000Z</time>
      </trkpt>
      <trkpt lat="46.52584" lon="0.34033">
        <ele>90.1</ele>
        <time>2011-07-03T07:34:08.000Z</time>
      </trkpt>
      <trkpt lat="46.52581" lon="0.34033">
        <ele>90.3</ele>
        <time>2011-07-03T07:34:09.000Z</time>
      </trkpt>
      <trkpt lat="46.52578" lon="0.34033">
        <ele>90.6</ele>
        <time>2011-07-03T07:34:10.000Z</time>
      </trkpt>
      <trkpt lat="46.52574" lon="0.34034">
        <ele>90.9</ele>
        <time>2011-07-03T07:34:11.000Z</time>
      </trkpt>
      <trkpt lat="46.52567" lon="0.34035">
        <ele>91.7</ele>
        <time>2011-07-03T07:34:13.000Z</time>
      </trkpt>
      <trkpt lat="46.52554" lon="0.3404">
        <ele>93.3</ele>
        <time>2011-07-03T07:34:17.000Z</time>
      </trkpt>
      <trkpt lat="46.52551" lon="0.34041">
        <ele>93.5</ele>
        <time>2011-07-03T07:34:18.000Z</time>
      </trkpt>
      <trkpt lat="46.52547" lon="0.34042">
        <ele>93.7</ele>
        <time>2011-07-03T07:34:19.000Z</time>
      </trkpt>
      <trkpt lat="46.52544" lon="0.34042">
        <ele>93.8</ele>
        <time>2011-07-03T07:34:20.000Z</time>
      </trkpt>
      <trkpt lat="46.52541" lon="0.34043">
        <ele>93.9</ele>
        <time>2011-07-03T07:34:21.000Z</time>
      </trkpt>
      <trkpt lat="46.52528" lon="0.34047">
        <ele>95.1</ele>
        <time>2011-07-03T07:34:25.000Z</time>
      </trkpt>
      <trkpt lat="46.52521" lon="0.34053">
        <ele>95.5</ele>
        <time>2011-07-03T07:34:28.000Z</time>
      </trkpt>
      <trkpt lat="46.52518" lon="0.34056">
        <ele>95.9</ele>
        <time>2011-07-03T07:34:29.000Z</time>
      </trkpt>
      <trkpt lat="46.52516" lon="0.34058">
        <ele>95.9</ele>
        <time>2011-07-03T07:34:30.000Z</time>
      </trkpt>
      <trkpt lat="46.52514" lon="0.3406">
        <ele>96</ele>
        <time>2011-07-03T07:34:31.000Z</time>
      </trkpt>
      <trkpt lat="46.52506" lon="0.34071">
        <ele>96.9</ele>
        <time>2011-07-03T07:34:35.000Z</time>
      </trkpt>
      <trkpt lat="46.52505" lon="0.34075">
        <ele>97.6</ele>
        <time>2011-07-03T07:34:36.000Z</time>
      </trkpt>
      <trkpt lat="46.52503" lon="0.34079">
        <ele>98.2</ele>
        <time>2011-07-03T07:34:37.000Z</time>
      </trkpt>
      <trkpt lat="46.52502" lon="0.34083">
        <ele>98.8</ele>
        <time>2011-07-03T07:34:38.000Z</time>
      </trkpt>
      <trkpt lat="46.52501" lon="0.34085">
        <ele>99.1</ele>
        <time>2011-07-03T07:34:39.000Z</time>
      </trkpt>
      <trkpt lat="46.52495" lon="0.34096">
        <ele>98.6</ele>
        <time>2011-07-03T07:34:43.000Z</time>
      </trkpt>
      <trkpt lat="46.52494" lon="0.34099">
        <ele>98.7</ele>
        <time>2011-07-03T07:34:44.000Z</time>
      </trkpt>
      <trkpt lat="46.52493" lon="0.34102">
        <ele>98.9</ele>
        <time>2011-07-03T07:34:45.000Z</time>
      </trkpt>
      <trkpt lat="46.52492" lon="0.34105">
        <ele>99</ele>
        <time>2011-07-03T07:34:46.000Z</time>
      </trkpt>
      <trkpt lat="46.5249" lon="0.34107">
        <ele>99.3</ele>
        <time>2011-07-03T07:34:47.000Z</time>
      </trkpt>
      <trkpt lat="46.52489" lon="0.34109">
        <ele>99.5</ele>
        <time>2011-07-03T07:34:48.000Z</time>
      </trkpt>
      <trkpt lat="46.52487" lon="0.34114">
        <ele>99.9</ele>
        <time>2011-07-03T07:34:50.000Z</time>
      </trkpt>
      <trkpt lat="46.52484" lon="0.34119">
        <ele>100.5</ele>
        <time>2011-07-03T07:34:52.000Z</time>
      </trkpt>
      <trkpt lat="46.52484" lon="0.34121">
        <ele>100.8</ele>
        <time>2011-07-03T07:34:53.000Z</time>
      </trkpt>
      <trkpt lat="46.52483" lon="0.34124">
        <ele>101.2</ele>
        <time>2011-07-03T07:34:54.000Z</time>
      </trkpt>
      <trkpt lat="46.52482" lon="0.34126">
        <ele>101.5</ele>
        <time>2011-07-03T07:34:55.000Z</time>
      </trkpt>
      <trkpt lat="46.52481" lon="0.34128">
        <ele>101.9</ele>
        <time>2011-07-03T07:34:56.000Z</time>
      </trkpt>
      <trkpt lat="46.52475" lon="0.34138">
        <ele>103.7</ele>
        <time>2011-07-03T07:35:00.000Z</time>
      </trkpt>
      <trkpt lat="46.52474" lon="0.3414">
        <ele>104.1</ele>
        <time>2011-07-03T07:35:01.000Z</time>
      </trkpt>
      <trkpt lat="46.52473" lon="0.34142">
        <ele>104.3</ele>
        <time>2011-07-03T07:35:02.000Z</time>
      </trkpt>
      <trkpt lat="46.52472" lon="0.34144">
        <ele>104.5</ele>
        <time>2011-07-03T07:35:03.000Z</time>
      </trkpt>
      <trkpt lat="46.52471" lon="0.34146">
        <ele>104.4</ele>
        <time>2011-07-03T07:35:04.000Z</time>
      </trkpt>
      <trkpt lat="46.52467" lon="0.34155">
        <ele>104.8</ele>
        <time>2011-07-03T07:35:08.000Z</time>
      </trkpt>
      <trkpt lat="46.52467" lon="0.34157">
        <ele>105</ele>
        <time>2011-07-03T07:35:09.000Z</time>
      </trkpt>
      <trkpt lat="46.52466" lon="0.34159">
        <ele>105.2</ele>
        <time>2011-07-03T07:35:10.000Z</time>
      </trkpt>
      <trkpt lat="46.52464" lon="0.34161">
        <ele>105.3</ele>
        <time>2011-07-03T07:35:11.000Z</time>
      </trkpt>
      <trkpt lat="46.52463" lon="0.34162">
        <ele>105.5</ele>
        <time>2011-07-03T07:35:12.000Z</time>
      </trkpt>
      <trkpt lat="46.52455" lon="0.34171">
        <ele>106.2</ele>
        <time>2011-07-03T07:35:17.000Z</time>
      </trkpt>
      <trkpt lat="46.52448" lon="0.34181">
        <ele>107.2</ele>
        <time>2011-07-03T07:35:22.000Z</time>
      </trkpt>
      <trkpt lat="46.52447" lon="0.34184">
        <ele>107.5</ele>
        <time>2011-07-03T07:35:23.000Z</time>
      </trkpt>
      <trkpt lat="46.52447" lon="0.34186">
        <ele>107.8</ele>
        <time>2011-07-03T07:35:24.000Z</time>
      </trkpt>
      <trkpt lat="46.52446" lon="0.34189">
        <ele>108.2</ele>
        <time>2011-07-03T07:35:25.000Z</time>
      </trkpt>
      <trkpt lat="46.52445" lon="0.34192">
        <ele>108.7</ele>
        <time>2011-07-03T07:35:26.000Z</time>
      </trkpt>
      <trkpt lat="46.52443" lon="0.34204">
        <ele>108.6</ele>
        <time>2011-07-03T07:35:30.000Z</time>
      </trkpt>
      <trkpt lat="46.52437" lon="0.34229">
        <ele>108.3</ele>
        <time>2011-07-03T07:35:38.000Z</time>
      </trkpt>
      <trkpt lat="46.52433" lon="0.34247">
        <ele>108.9</ele>
        <time>2011-07-03T07:35:43.000Z</time>
      </trkpt>
      <trkpt lat="46.52432" lon="0.34249">
        <ele>109</ele>
        <time>2011-07-03T07:35:44.000Z</time>
      </trkpt>
      <trkpt lat="46.52431" lon="0.34252">
        <ele>109.2</ele>
        <time>2011-07-03T07:35:45.000Z</time>
      </trkpt>
      <trkpt lat="46.52431" lon="0.34255">
        <ele>109.3</ele>
        <time>2011-07-03T07:35:46.000Z</time>
      </trkpt>
      <trkpt lat="46.52428" lon="0.34264">
        <ele>109.7</ele>
        <time>2011-07-03T07:35:51.000Z</time>
      </trkpt>
      <trkpt lat="46.52426" lon="0.34265">
        <ele>109.7</ele>
        <time>2011-07-03T07:35:56.000Z</time>
      </trkpt>
      <trkpt lat="46.52426" lon="0.34265">
        <ele>109.7</ele>
        <time>2011-07-03T07:36:03.000Z</time>
      </trkpt>
      <trkpt lat="46.52425" lon="0.34265">
        <ele>109.7</ele>
        <time>2011-07-03T07:36:07.000Z</time>
      </trkpt>
      <trkpt lat="46.52423" lon="0.34264">
        <ele>109.7</ele>
        <time>2011-07-03T07:36:08.000Z</time>
      </trkpt>
      <trkpt lat="46.52412" lon="0.34268">
        <ele>108.8</ele>
        <time>2011-07-03T07:36:12.000Z</time>
      </trkpt>
      <trkpt lat="46.52408" lon="0.3427">
        <ele>108.2</ele>
        <time>2011-07-03T07:36:13.000Z</time>
      </trkpt>
      <trkpt lat="46.52404" lon="0.34271">
        <ele>107.6</ele>
        <time>2011-07-03T07:36:14.000Z</time>
      </trkpt>
      <trkpt lat="46.524" lon="0.34273">
        <ele>107</ele>
        <time>2011-07-03T07:36:15.000Z</time>
      </trkpt>
      <trkpt lat="46.52396" lon="0.34275">
        <ele>106.7</ele>
        <time>2011-07-03T07:36:16.000Z</time>
      </trkpt>
      <trkpt lat="46.52394" lon="0.34277">
        <ele>106.7</ele>
        <time>2011-07-03T07:36:17.000Z</time>
      </trkpt>
      <trkpt lat="46.52391" lon="0.34279">
        <ele>106.6</ele>
        <time>2011-07-03T07:36:18.000Z</time>
      </trkpt>
      <trkpt lat="46.52383" lon="0.34283">
        <ele>105.1</ele>
        <time>2011-07-03T07:36:20.000Z</time>
      </trkpt>
      <trkpt lat="46.52377" lon="0.34285">
        <ele>104</ele>
        <time>2011-07-03T07:36:21.000Z</time>
      </trkpt>
      <trkpt lat="46.52371" lon="0.34288">
        <ele>103.4</ele>
        <time>2011-07-03T07:36:22.000Z</time>
      </trkpt>
      <trkpt lat="46.52366" lon="0.34292">
        <ele>103.1</ele>
        <time>2011-07-03T07:36:23.000Z</time>
      </trkpt>
      <trkpt lat="46.5236" lon="0.34294">
        <ele>102.6</ele>
        <time>2011-07-03T07:36:24.000Z</time>
      </trkpt>
      <trkpt lat="46.52353" lon="0.34296">
        <ele>102.2</ele>
        <time>2011-07-03T07:36:25.000Z</time>
      </trkpt>
      <trkpt lat="46.52346" lon="0.34298">
        <ele>101.6</ele>
        <time>2011-07-03T07:36:26.000Z</time>
      </trkpt>
      <trkpt lat="46.52339" lon="0.34299">
        <ele>100.8</ele>
        <time>2011-07-03T07:36:27.000Z</time>
      </trkpt>
      <trkpt lat="46.52331" lon="0.343">
        <ele>100.2</ele>
        <time>2011-07-03T07:36:28.000Z</time>
      </trkpt>
      <trkpt lat="46.52324" lon="0.34299">
        <ele>98.6</ele>
        <time>2011-07-03T07:36:29.000Z</time>
      </trkpt>
      <trkpt lat="46.52318" lon="0.34298">
        <ele>97.7</ele>
        <time>2011-07-03T07:36:30.000Z</time>
      </trkpt>
      <trkpt lat="46.52314" lon="0.34297">
        <ele>96.9</ele>
        <time>2011-07-03T07:36:31.000Z</time>
      </trkpt>
      <trkpt lat="46.52312" lon="0.34299">
        <ele>97.2</ele>
        <time>2011-07-03T07:36:32.000Z</time>
      </trkpt>
      <trkpt lat="46.5231" lon="0.343">
        <ele>97.3</ele>
        <time>2011-07-03T07:36:33.000Z</time>
      </trkpt>
      <trkpt lat="46.52307" lon="0.34304">
        <ele>97.8</ele>
        <time>2011-07-03T07:36:34.000Z</time>
      </trkpt>
      <trkpt lat="46.52304" lon="0.34307">
        <ele>97.7</ele>
        <time>2011-07-03T07:36:35.000Z</time>
      </trkpt>
      <trkpt lat="46.52299" lon="0.34314">
        <ele>97.8</ele>
        <time>2011-07-03T07:36:36.000Z</time>
      </trkpt>
      <trkpt lat="46.52292" lon="0.3432">
        <ele>96.8</ele>
        <time>2011-07-03T07:36:37.000Z</time>
      </trkpt>
      <trkpt lat="46.52286" lon="0.34326">
        <ele>95.9</ele>
        <time>2011-07-03T07:36:38.000Z</time>
      </trkpt>
      <trkpt lat="46.52278" lon="0.34332">
        <ele>94.8</ele>
        <time>2011-07-03T07:36:39.000Z</time>
      </trkpt>
      <trkpt lat="46.52271" lon="0.34336">
        <ele>94.4</ele>
        <time>2011-07-03T07:36:40.000Z</time>
      </trkpt>
      <trkpt lat="46.52264" lon="0.3434">
        <ele>94.1</ele>
        <time>2011-07-03T07:36:41.000Z</time>
      </trkpt>
      <trkpt lat="46.52258" lon="0.34342">
        <ele>93.6</ele>
        <time>2011-07-03T07:36:42.000Z</time>
      </trkpt>
      <trkpt lat="46.52253" lon="0.34343">
        <ele>92.7</ele>
        <time>2011-07-03T07:36:43.000Z</time>
      </trkpt>
      <trkpt lat="46.52247" lon="0.34342">
        <ele>91.7</ele>
        <time>2011-07-03T07:36:44.000Z</time>
      </trkpt>
      <trkpt lat="46.52241" lon="0.34343">
        <ele>91.6</ele>
        <time>2011-07-03T07:36:45.000Z</time>
      </trkpt>
      <trkpt lat="46.52234" lon="0.34343">
        <ele>91.3</ele>
        <time>2011-07-03T07:36:46.000Z</time>
      </trkpt>
      <trkpt lat="46.52228" lon="0.34343">
        <ele>91</ele>
        <time>2011-07-03T07:36:47.000Z</time>
      </trkpt>
      <trkpt lat="46.52216" lon="0.34342">
        <ele>91.1</ele>
        <time>2011-07-03T07:36:49.000Z</time>
      </trkpt>
      <trkpt lat="46.52206" lon="0.34336">
        <ele>91.2</ele>
        <time>2011-07-03T07:36:51.000Z</time>
      </trkpt>
      <trkpt lat="46.52202" lon="0.34335">
        <ele>91.4</ele>
        <time>2011-07-03T07:36:52.000Z</time>
      </trkpt>
      <trkpt lat="46.52198" lon="0.34333">
        <ele>91.6</ele>
        <time>2011-07-03T07:36:53.000Z</time>
      </trkpt>
      <trkpt lat="46.52194" lon="0.34332">
        <ele>91.6</ele>
        <time>2011-07-03T07:36:54.000Z</time>
      </trkpt>
      <trkpt lat="46.52189" lon="0.3433">
        <ele>91.4</ele>
        <time>2011-07-03T07:36:55.000Z</time>
      </trkpt>
      <trkpt lat="46.52185" lon="0.34327">
        <ele>90.9</ele>
        <time>2011-07-03T07:36:56.000Z</time>
      </trkpt>
      <trkpt lat="46.52174" lon="0.34321">
        <ele>90</ele>
        <time>2011-07-03T07:36:59.000Z</time>
      </trkpt>
      <trkpt lat="46.52149" lon="0.34306">
        <ele>89.2</ele>
        <time>2011-07-03T07:37:03.000Z</time>
      </trkpt>
      <trkpt lat="46.52139" lon="0.34302">
        <ele>90.1</ele>
        <time>2011-07-03T07:37:05.000Z</time>
      </trkpt>
      <trkpt lat="46.52136" lon="0.34302">
        <ele>90.3</ele>
        <time>2011-07-03T07:37:06.000Z</time>
      </trkpt>
      <trkpt lat="46.5213" lon="0.34307">
        <ele>91.9</ele>
        <time>2011-07-03T07:37:09.000Z</time>
      </trkpt>
      <trkpt lat="46.52128" lon="0.34308">
        <ele>92.3</ele>
        <time>2011-07-03T07:37:10.000Z</time>
      </trkpt>
      <trkpt lat="46.52122" lon="0.34309">
        <ele>92.9</ele>
        <time>2011-07-03T07:37:13.000Z</time>
      </trkpt>
      <trkpt lat="46.52119" lon="0.34309">
        <ele>93</ele>
        <time>2011-07-03T07:37:14.000Z</time>
      </trkpt>
      <trkpt lat="46.52117" lon="0.34308">
        <ele>93.1</ele>
        <time>2011-07-03T07:37:15.000Z</time>
      </trkpt>
      <trkpt lat="46.52113" lon="0.34307">
        <ele>93.2</ele>
        <time>2011-07-03T07:37:16.000Z</time>
      </trkpt>
      <trkpt lat="46.52109" lon="0.34307">
        <ele>93.2</ele>
        <time>2011-07-03T07:37:17.000Z</time>
      </trkpt>
      <trkpt lat="46.52108" lon="0.34309">
        <ele>93.5</ele>
        <time>2011-07-03T07:37:18.000Z</time>
      </trkpt>
      <trkpt lat="46.52106" lon="0.3431">
        <ele>93.5</ele>
        <time>2011-07-03T07:37:19.000Z</time>
      </trkpt>
      <trkpt lat="46.52106" lon="0.3431">
        <ele>93.5</ele>
        <time>2011-07-03T07:37:27.000Z</time>
      </trkpt>
      <trkpt lat="46.52106" lon="0.3431">
        <ele>93.5</ele>
        <time>2011-07-03T07:37:33.000Z</time>
      </trkpt>
      <trkpt lat="46.52106" lon="0.3431">
        <ele>93.5</ele>
        <time>2011-07-03T07:37:35.000Z</time>
      </trkpt>
      <trkpt lat="46.52106" lon="0.3431">
        <ele>93.5</ele>
        <time>2011-07-03T07:37:39.000Z</time>
      </trkpt>
      <trkpt lat="46.52102" lon="0.34311">
        <ele>93.5</ele>
        <time>2011-07-03T07:37:44.000Z</time>
      </trkpt>
      <trkpt lat="46.52088" lon="0.34312">
        <ele>93</ele>
        <time>2011-07-03T07:37:48.000Z</time>
      </trkpt>
      <trkpt lat="46.5207" lon="0.34317">
        <ele>92.1</ele>
        <time>2011-07-03T07:37:52.000Z</time>
      </trkpt>
      <trkpt lat="46.52065" lon="0.34318">
        <ele>91.7</ele>
        <time>2011-07-03T07:37:53.000Z</time>
      </trkpt>
      <trkpt lat="46.52053" lon="0.34321">
        <ele>90.9</ele>
        <time>2011-07-03T07:37:55.000Z</time>
      </trkpt>
      <trkpt lat="46.52047" lon="0.34323">
        <ele>90.2</ele>
        <time>2011-07-03T07:37:56.000Z</time>
      </trkpt>
      <trkpt lat="46.5204" lon="0.34324">
        <ele>89.5</ele>
        <time>2011-07-03T07:37:57.000Z</time>
      </trkpt>
      <trkpt lat="46.52033" lon="0.34326">
        <ele>88.7</ele>
        <time>2011-07-03T07:37:58.000Z</time>
      </trkpt>
      <trkpt lat="46.52026" lon="0.34329">
        <ele>88</ele>
        <time>2011-07-03T07:37:59.000Z</time>
      </trkpt>
      <trkpt lat="46.5202" lon="0.34333">
        <ele>88</ele>
        <time>2011-07-03T07:38:00.000Z</time>
      </trkpt>
      <trkpt lat="46.52014" lon="0.34334">
        <ele>88</ele>
        <time>2011-07-03T07:38:01.000Z</time>
      </trkpt>
      <trkpt lat="46.52008" lon="0.34333">
        <ele>88</ele>
        <time>2011-07-03T07:38:02.000Z</time>
      </trkpt>
      <trkpt lat="46.52002" lon="0.34324">
        <ele>87.1</ele>
        <time>2011-07-03T07:38:04.000Z</time>
      </trkpt>
      <trkpt lat="46.51998" lon="0.34318">
        <ele>86.5</ele>
        <time>2011-07-03T07:38:05.000Z</time>
      </trkpt>
      <trkpt lat="46.51995" lon="0.34309">
        <ele>85.7</ele>
        <time>2011-07-03T07:38:06.000Z</time>
      </trkpt>
      <trkpt lat="46.51992" lon="0.34299">
        <ele>85.1</ele>
        <time>2011-07-03T07:38:07.000Z</time>
      </trkpt>
      <trkpt lat="46.51989" lon="0.34289">
        <ele>84.5</ele>
        <time>2011-07-03T07:38:08.000Z</time>
      </trkpt>
      <trkpt lat="46.51988" lon="0.34279">
        <ele>83.7</ele>
        <time>2011-07-03T07:38:09.000Z</time>
      </trkpt>
      <trkpt lat="46.51988" lon="0.34271">
        <ele>82.5</ele>
        <time>2011-07-03T07:38:10.000Z</time>
      </trkpt>
      <trkpt lat="46.51988" lon="0.34265">
        <ele>81.5</ele>
        <time>2011-07-03T07:38:11.000Z</time>
      </trkpt>
      <trkpt lat="46.51989" lon="0.34261">
        <ele>80.8</ele>
        <time>2011-07-03T07:38:12.000Z</time>
      </trkpt>
      <trkpt lat="46.51989" lon="0.34256">
        <ele>80</ele>
        <time>2011-07-03T07:38:13.000Z</time>
      </trkpt>
      <trkpt lat="46.51987" lon="0.34253">
        <ele>79.5</ele>
        <time>2011-07-03T07:38:14.000Z</time>
      </trkpt>
      <trkpt lat="46.51984" lon="0.34251">
        <ele>79.2</ele>
        <time>2011-07-03T07:38:15.000Z</time>
      </trkpt>
      <trkpt lat="46.51981" lon="0.3425">
        <ele>79</ele>
        <time>2011-07-03T07:38:16.000Z</time>
      </trkpt>
      <trkpt lat="46.51977" lon="0.3425">
        <ele>79</ele>
        <time>2011-07-03T07:38:17.000Z</time>
      </trkpt>
      <trkpt lat="46.51973" lon="0.3425">
        <ele>79.1</ele>
        <time>2011-07-03T07:38:18.000Z</time>
      </trkpt>
      <trkpt lat="46.51963" lon="0.34252">
        <ele>79.3</ele>
        <time>2011-07-03T07:38:20.000Z</time>
      </trkpt>
      <trkpt lat="46.51953" lon="0.34252">
        <ele>79.5</ele>
        <time>2011-07-03T07:38:22.000Z</time>
      </trkpt>
      <trkpt lat="46.51938" lon="0.34253">
        <ele>79.9</ele>
        <time>2011-07-03T07:38:25.000Z</time>
      </trkpt>
      <trkpt lat="46.51929" lon="0.34256">
        <ele>80.5</ele>
        <time>2011-07-03T07:38:27.000Z</time>
      </trkpt>
      <trkpt lat="46.51905" lon="0.34262">
        <ele>81</ele>
        <time>2011-07-03T07:38:32.000Z</time>
      </trkpt>
      <trkpt lat="46.51881" lon="0.34276">
        <ele>80.9</ele>
        <time>2011-07-03T07:38:37.000Z</time>
      </trkpt>
      <trkpt lat="46.51876" lon="0.34279">
        <ele>81.1</ele>
        <time>2011-07-03T07:38:38.000Z</time>
      </trkpt>
      <trkpt lat="46.51872" lon="0.34283">
        <ele>81.5</ele>
        <time>2011-07-03T07:38:39.000Z</time>
      </trkpt>
      <trkpt lat="46.51847" lon="0.34304">
        <ele>83.1</ele>
        <time>2011-07-03T07:38:45.000Z</time>
      </trkpt>
      <trkpt lat="46.51839" lon="0.3431">
        <ele>82.9</ele>
        <time>2011-07-03T07:38:47.000Z</time>
      </trkpt>
      <trkpt lat="46.51835" lon="0.34312">
        <ele>82.7</ele>
        <time>2011-07-03T07:38:48.000Z</time>
      </trkpt>
      <trkpt lat="46.51823" lon="0.3432">
        <ele>83.5</ele>
        <time>2011-07-03T07:38:51.000Z</time>
      </trkpt>
      <trkpt lat="46.51818" lon="0.34322">
        <ele>83.5</ele>
        <time>2011-07-03T07:38:52.000Z</time>
      </trkpt>
      <trkpt lat="46.51814" lon="0.34323">
        <ele>83.5</ele>
        <time>2011-07-03T07:38:53.000Z</time>
      </trkpt>
      <trkpt lat="46.5181" lon="0.34325">
        <ele>83.4</ele>
        <time>2011-07-03T07:38:54.000Z</time>
      </trkpt>
      <trkpt lat="46.51805" lon="0.34326">
        <ele>83.2</ele>
        <time>2011-07-03T07:38:55.000Z</time>
      </trkpt>
      <trkpt lat="46.51796" lon="0.34327">
        <ele>83.5</ele>
        <time>2011-07-03T07:38:57.000Z</time>
      </trkpt>
      <trkpt lat="46.51792" lon="0.34327">
        <ele>83.5</ele>
        <time>2011-07-03T07:38:58.000Z</time>
      </trkpt>
      <trkpt lat="46.51775" lon="0.34322">
        <ele>83.7</ele>
        <time>2011-07-03T07:39:02.000Z</time>
      </trkpt>
      <trkpt lat="46.51768" lon="0.34321">
        <ele>84</ele>
        <time>2011-07-03T07:39:04.000Z</time>
      </trkpt>
      <trkpt lat="46.51765" lon="0.3432">
        <ele>84.2</ele>
        <time>2011-07-03T07:39:05.000Z</time>
      </trkpt>
      <trkpt lat="46.51762" lon="0.34319">
        <ele>84.4</ele>
        <time>2011-07-03T07:39:06.000Z</time>
      </trkpt>
      <trkpt lat="46.51758" lon="0.34317">
        <ele>84.6</ele>
        <time>2011-07-03T07:39:07.000Z</time>
      </trkpt>
      <trkpt lat="46.51755" lon="0.34315">
        <ele>85</ele>
        <time>2011-07-03T07:39:08.000Z</time>
      </trkpt>
      <trkpt lat="46.51744" lon="0.34311">
        <ele>86.1</ele>
        <time>2011-07-03T07:39:11.000Z</time>
      </trkpt>
      <trkpt lat="46.51741" lon="0.34309">
        <ele>86.5</ele>
        <time>2011-07-03T07:39:12.000Z</time>
      </trkpt>
      <trkpt lat="46.51738" lon="0.34307">
        <ele>86.8</ele>
        <time>2011-07-03T07:39:13.000Z</time>
      </trkpt>
      <trkpt lat="46.51734" lon="0.34306">
        <ele>87.1</ele>
        <time>2011-07-03T07:39:14.000Z</time>
      </trkpt>
      <trkpt lat="46.5173" lon="0.34304">
        <ele>87.4</ele>
        <time>2011-07-03T07:39:15.000Z</time>
      </trkpt>
      <trkpt lat="46.51703" lon="0.34295">
        <ele>88</ele>
        <time>2011-07-03T07:39:22.000Z</time>
      </trkpt>
      <trkpt lat="46.51699" lon="0.34293">
        <ele>88</ele>
        <time>2011-07-03T07:39:23.000Z</time>
      </trkpt>
      <trkpt lat="46.51688" lon="0.34278">
        <ele>88.2</ele>
        <time>2011-07-03T07:39:26.000Z</time>
      </trkpt>
      <trkpt lat="46.51684" lon="0.34251">
        <ele>86.5</ele>
        <time>2011-07-03T07:39:29.000Z</time>
      </trkpt>
      <trkpt lat="46.51687" lon="0.34219">
        <ele>80.4</ele>
        <time>2011-07-03T07:39:32.000Z</time>
      </trkpt>
      <trkpt lat="46.5169" lon="0.34206">
        <ele>78.7</ele>
        <time>2011-07-03T07:39:33.000Z</time>
      </trkpt>
      <trkpt lat="46.51693" lon="0.34194">
        <ele>77</ele>
        <time>2011-07-03T07:39:34.000Z</time>
      </trkpt>
      <trkpt lat="46.51698" lon="0.34182">
        <ele>76</ele>
        <time>2011-07-03T07:39:35.000Z</time>
      </trkpt>
      <trkpt lat="46.51702" lon="0.34172">
        <ele>75.3</ele>
        <time>2011-07-03T07:39:36.000Z</time>
      </trkpt>
      <trkpt lat="46.51707" lon="0.34161">
        <ele>75.3</ele>
        <time>2011-07-03T07:39:37.000Z</time>
      </trkpt>
      <trkpt lat="46.51711" lon="0.34151">
        <ele>76</ele>
        <time>2011-07-03T07:39:38.000Z</time>
      </trkpt>
      <trkpt lat="46.51716" lon="0.34141">
        <ele>77.2</ele>
        <time>2011-07-03T07:39:39.000Z</time>
      </trkpt>
      <trkpt lat="46.5172" lon="0.3413">
        <ele>77.8</ele>
        <time>2011-07-03T07:39:40.000Z</time>
      </trkpt>
      <trkpt lat="46.51724" lon="0.34119">
        <ele>77.9</ele>
        <time>2011-07-03T07:39:41.000Z</time>
      </trkpt>
      <trkpt lat="46.51728" lon="0.34108">
        <ele>77.7</ele>
        <time>2011-07-03T07:39:42.000Z</time>
      </trkpt>
      <trkpt lat="46.51731" lon="0.34098">
        <ele>77.2</ele>
        <time>2011-07-03T07:39:43.000Z</time>
      </trkpt>
      <trkpt lat="46.51733" lon="0.34087">
        <ele>76.8</ele>
        <time>2011-07-03T07:39:44.000Z</time>
      </trkpt>
      <trkpt lat="46.51733" lon="0.34077">
        <ele>76.7</ele>
        <time>2011-07-03T07:39:45.000Z</time>
      </trkpt>
      <trkpt lat="46.51733" lon="0.34068">
        <ele>76.8</ele>
        <time>2011-07-03T07:39:46.000Z</time>
      </trkpt>
      <trkpt lat="46.51728" lon="0.34042">
        <ele>77</ele>
        <time>2011-07-03T07:39:49.000Z</time>
      </trkpt>
      <trkpt lat="46.51724" lon="0.34038">
        <ele>77</ele>
        <time>2011-07-03T07:39:50.000Z</time>
      </trkpt>
      <trkpt lat="46.51719" lon="0.34037">
        <ele>77</ele>
        <time>2011-07-03T07:39:51.000Z</time>
      </trkpt>
      <trkpt lat="46.51715" lon="0.34036">
        <ele>77</ele>
        <time>2011-07-03T07:39:52.000Z</time>
      </trkpt>
      <trkpt lat="46.51711" lon="0.34032">
        <ele>77</ele>
        <time>2011-07-03T07:39:53.000Z</time>
      </trkpt>
      <trkpt lat="46.51707" lon="0.34028">
        <ele>77</ele>
        <time>2011-07-03T07:39:54.000Z</time>
      </trkpt>
      <trkpt lat="46.51701" lon="0.34007">
        <ele>77</ele>
        <time>2011-07-03T07:39:57.000Z</time>
      </trkpt>
      <trkpt lat="46.51699" lon="0.33999">
        <ele>77</ele>
        <time>2011-07-03T07:39:58.000Z</time>
      </trkpt>
      <trkpt lat="46.51693" lon="0.33971">
        <ele>77</ele>
        <time>2011-07-03T07:40:02.000Z</time>
      </trkpt>
      <trkpt lat="46.51685" lon="0.33932">
        <ele>77</ele>
        <time>2011-07-03T07:40:07.000Z</time>
      </trkpt>
      <trkpt lat="46.51683" lon="0.33924">
        <ele>77</ele>
        <time>2011-07-03T07:40:08.000Z</time>
      </trkpt>
      <trkpt lat="46.51679" lon="0.33902">
        <ele>77.2</ele>
        <time>2011-07-03T07:40:11.000Z</time>
      </trkpt>
      <trkpt lat="46.51671" lon="0.33873">
        <ele>77.1</ele>
        <time>2011-07-03T07:40:15.000Z</time>
      </trkpt>
      <trkpt lat="46.51661" lon="0.33843">
        <ele>77.3</ele>
        <time>2011-07-03T07:40:19.000Z</time>
      </trkpt>
      <trkpt lat="46.51654" lon="0.33818">
        <ele>77</ele>
        <time>2011-07-03T07:40:22.000Z</time>
      </trkpt>
      <trkpt lat="46.51638" lon="0.3377">
        <ele>77.9</ele>
        <time>2011-07-03T07:40:29.000Z</time>
      </trkpt>
      <trkpt lat="46.51632" lon="0.33756">
        <ele>77.2</ele>
        <time>2011-07-03T07:40:31.000Z</time>
      </trkpt>
      <trkpt lat="46.51623" lon="0.33736">
        <ele>76.8</ele>
        <time>2011-07-03T07:40:34.000Z</time>
      </trkpt>
      <trkpt lat="46.51617" lon="0.33724">
        <ele>77.1</ele>
        <time>2011-07-03T07:40:36.000Z</time>
      </trkpt>
      <trkpt lat="46.5161" lon="0.33709">
        <ele>77</ele>
        <time>2011-07-03T07:40:38.000Z</time>
      </trkpt>
      <trkpt lat="46.51608" lon="0.33701">
        <ele>76.8</ele>
        <time>2011-07-03T07:40:39.000Z</time>
      </trkpt>
      <trkpt lat="46.516" lon="0.33669">
        <ele>77.2</ele>
        <time>2011-07-03T07:40:43.000Z</time>
      </trkpt>
      <trkpt lat="46.51594" lon="0.33631">
        <ele>77.6</ele>
        <time>2011-07-03T07:40:48.000Z</time>
      </trkpt>
      <trkpt lat="46.51592" lon="0.33627">
        <ele>77.6</ele>
        <time>2011-07-03T07:40:49.000Z</time>
      </trkpt>
      <trkpt lat="46.51589" lon="0.33624">
        <ele>77.6</ele>
        <time>2011-07-03T07:40:50.000Z</time>
      </trkpt>
      <trkpt lat="46.51586" lon="0.33626">
        <ele>77.5</ele>
        <time>2011-07-03T07:40:51.000Z</time>
      </trkpt>
      <trkpt lat="46.51579" lon="0.33641">
        <ele>76.9</ele>
        <time>2011-07-03T07:40:54.000Z</time>
      </trkpt>
      <trkpt lat="46.5157" lon="0.3366">
        <ele>76.6</ele>
        <time>2011-07-03T07:40:57.000Z</time>
      </trkpt>
      <trkpt lat="46.51564" lon="0.33673">
        <ele>76.5</ele>
        <time>2011-07-03T07:40:59.000Z</time>
      </trkpt>
      <trkpt lat="46.51557" lon="0.33694">
        <ele>76</ele>
        <time>2011-07-03T07:41:02.000Z</time>
      </trkpt>
      <trkpt lat="46.51555" lon="0.33701">
        <ele>76.3</ele>
        <time>2011-07-03T07:41:03.000Z</time>
      </trkpt>
      <trkpt lat="46.51556" lon="0.33723">
        <ele>77</ele>
        <time>2011-07-03T07:41:06.000Z</time>
      </trkpt>
      <trkpt lat="46.51556" lon="0.33731">
        <ele>76.7</ele>
        <time>2011-07-03T07:41:07.000Z</time>
      </trkpt>
      <trkpt lat="46.51556" lon="0.33738">
        <ele>76.4</ele>
        <time>2011-07-03T07:41:08.000Z</time>
      </trkpt>
      <trkpt lat="46.51557" lon="0.33746">
        <ele>76.1</ele>
        <time>2011-07-03T07:41:09.000Z</time>
      </trkpt>
      <trkpt lat="46.51558" lon="0.33754">
        <ele>75.9</ele>
        <time>2011-07-03T07:41:10.000Z</time>
      </trkpt>
      <trkpt lat="46.51558" lon="0.33761">
        <ele>75.9</ele>
        <time>2011-07-03T07:41:11.000Z</time>
      </trkpt>
      <trkpt lat="46.51558" lon="0.33768">
        <ele>75.9</ele>
        <time>2011-07-03T07:41:12.000Z</time>
      </trkpt>
      <trkpt lat="46.51558" lon="0.33788">
        <ele>75.6</ele>
        <time>2011-07-03T07:41:16.000Z</time>
      </trkpt>
      <trkpt lat="46.51557" lon="0.33798">
        <ele>75.3</ele>
        <time>2011-07-03T07:41:18.000Z</time>
      </trkpt>
      <trkpt lat="46.51553" lon="0.33801">
        <ele>75.3</ele>
        <time>2011-07-03T07:41:20.000Z</time>
      </trkpt>
      <trkpt lat="46.51542" lon="0.33802">
        <ele>76.1</ele>
        <time>2011-07-03T07:41:23.000Z</time>
      </trkpt>
      <trkpt lat="46.51523" lon="0.33803">
        <ele>77.3</ele>
        <time>2011-07-03T07:41:28.000Z</time>
      </trkpt>
      <trkpt lat="46.51505" lon="0.33805">
        <ele>77.8</ele>
        <time>2011-07-03T07:41:33.000Z</time>
      </trkpt>
      <trkpt lat="46.51493" lon="0.33807">
        <ele>77.4</ele>
        <time>2011-07-03T07:41:37.000Z</time>
      </trkpt>
      <trkpt lat="46.51491" lon="0.33805">
        <ele>77.4</ele>
        <time>2011-07-03T07:41:38.000Z</time>
      </trkpt>
      <trkpt lat="46.51486" lon="0.33796">
        <ele>77</ele>
        <time>2011-07-03T07:41:43.000Z</time>
      </trkpt>
      <trkpt lat="46.51487" lon="0.33781">
        <ele>77</ele>
        <time>2011-07-03T07:41:47.000Z</time>
      </trkpt>
      <trkpt lat="46.51487" lon="0.33778">
        <ele>77</ele>
        <time>2011-07-03T07:41:48.000Z</time>
      </trkpt>
      <trkpt lat="46.51487" lon="0.33776">
        <ele>77.1</ele>
        <time>2011-07-03T07:41:49.000Z</time>
      </trkpt>
      <trkpt lat="46.51485" lon="0.33771">
        <ele>76.9</ele>
        <time>2011-07-03T07:41:51.000Z</time>
      </trkpt>
      <trkpt lat="46.51475" lon="0.33765">
        <ele>76.2</ele>
        <time>2011-07-03T07:41:55.000Z</time>
      </trkpt>
      <trkpt lat="46.51457" lon="0.33764">
        <ele>76.8</ele>
        <time>2011-07-03T07:42:00.000Z</time>
      </trkpt>
      <trkpt lat="46.51451" lon="0.33757">
        <ele>76.9</ele>
        <time>2011-07-03T07:42:02.000Z</time>
      </trkpt>
      <trkpt lat="46.51443" lon="0.33746">
        <ele>76.8</ele>
        <time>2011-07-03T07:42:04.000Z</time>
      </trkpt>
      <trkpt lat="46.51423" lon="0.33712">
        <ele>76.2</ele>
        <time>2011-07-03T07:42:10.000Z</time>
      </trkpt>
      <trkpt lat="46.51418" lon="0.33696">
        <ele>76</ele>
        <time>2011-07-03T07:42:12.000Z</time>
      </trkpt>
      <trkpt lat="46.51415" lon="0.33684">
        <ele>75.8</ele>
        <time>2011-07-03T07:42:14.000Z</time>
      </trkpt>
      <trkpt lat="46.51408" lon="0.33665">
        <ele>76</ele>
        <time>2011-07-03T07:42:18.000Z</time>
      </trkpt>
      <trkpt lat="46.51404" lon="0.33656">
        <ele>76.8</ele>
        <time>2011-07-03T07:42:20.000Z</time>
      </trkpt>
      <trkpt lat="46.51401" lon="0.33653">
        <ele>77.2</ele>
        <time>2011-07-03T07:42:21.000Z</time>
      </trkpt>
      <trkpt lat="46.51383" lon="0.33645">
        <ele>78</ele>
        <time>2011-07-03T07:42:26.000Z</time>
      </trkpt>
      <trkpt lat="46.51375" lon="0.33646">
        <ele>78</ele>
        <time>2011-07-03T07:42:28.000Z</time>
      </trkpt>
      <trkpt lat="46.51363" lon="0.33647">
        <ele>78</ele>
        <time>2011-07-03T07:42:31.000Z</time>
      </trkpt>
      <trkpt lat="46.51352" lon="0.33642">
        <ele>78</ele>
        <time>2011-07-03T07:42:35.000Z</time>
      </trkpt>
      <trkpt lat="46.51348" lon="0.33642">
        <ele>78</ele>
        <time>2011-07-03T07:42:36.000Z</time>
      </trkpt>
      <trkpt lat="46.51339" lon="0.3364">
        <ele>78</ele>
        <time>2011-07-03T07:42:38.000Z</time>
      </trkpt>
      <trkpt lat="46.5133" lon="0.33625">
        <ele>78</ele>
        <time>2011-07-03T07:42:41.000Z</time>
      </trkpt>
      <trkpt lat="46.51311" lon="0.33597">
        <ele>78</ele>
        <time>2011-07-03T07:42:47.000Z</time>
      </trkpt>
      <trkpt lat="46.51299" lon="0.33583">
        <ele>78</ele>
        <time>2011-07-03T07:42:50.000Z</time>
      </trkpt>
      <trkpt lat="46.51292" lon="0.33573">
        <ele>78</ele>
        <time>2011-07-03T07:42:52.000Z</time>
      </trkpt>
      <trkpt lat="46.51288" lon="0.33567">
        <ele>78</ele>
        <time>2011-07-03T07:42:53.000Z</time>
      </trkpt>
      <trkpt lat="46.51276" lon="0.33546">
        <ele>78</ele>
        <time>2011-07-03T07:42:57.000Z</time>
      </trkpt>
      <trkpt lat="46.51258" lon="0.33517">
        <ele>78</ele>
        <time>2011-07-03T07:43:03.000Z</time>
      </trkpt>
      <trkpt lat="46.51245" lon="0.33501">
        <ele>78</ele>
        <time>2011-07-03T07:43:07.000Z</time>
      </trkpt>
      <trkpt lat="46.51241" lon="0.33499">
        <ele>78</ele>
        <time>2011-07-03T07:43:08.000Z</time>
      </trkpt>
      <trkpt lat="46.51223" lon="0.33498">
        <ele>77.9</ele>
        <time>2011-07-03T07:43:12.000Z</time>
      </trkpt>
      <trkpt lat="46.51214" lon="0.33502">
        <ele>77.7</ele>
        <time>2011-07-03T07:43:14.000Z</time>
      </trkpt>
      <trkpt lat="46.51205" lon="0.33509">
        <ele>77.6</ele>
        <time>2011-07-03T07:43:16.000Z</time>
      </trkpt>
      <trkpt lat="46.51201" lon="0.33512">
        <ele>77.6</ele>
        <time>2011-07-03T07:43:17.000Z</time>
      </trkpt>
      <trkpt lat="46.51193" lon="0.3352">
        <ele>77.6</ele>
        <time>2011-07-03T07:43:19.000Z</time>
      </trkpt>
      <trkpt lat="46.51188" lon="0.33532">
        <ele>77.5</ele>
        <time>2011-07-03T07:43:21.000Z</time>
      </trkpt>
      <trkpt lat="46.51187" lon="0.33539">
        <ele>77.5</ele>
        <time>2011-07-03T07:43:22.000Z</time>
      </trkpt>
      <trkpt lat="46.51187" lon="0.33554">
        <ele>77.5</ele>
        <time>2011-07-03T07:43:24.000Z</time>
      </trkpt>
      <trkpt lat="46.51187" lon="0.33579">
        <ele>77.5</ele>
        <time>2011-07-03T07:43:27.000Z</time>
      </trkpt>
      <trkpt lat="46.51186" lon="0.33595">
        <ele>77</ele>
        <time>2011-07-03T07:43:29.000Z</time>
      </trkpt>
      <trkpt lat="46.51187" lon="0.33602">
        <ele>76.8</ele>
        <time>2011-07-03T07:43:30.000Z</time>
      </trkpt>
      <trkpt lat="46.51193" lon="0.33624">
        <ele>76.9</ele>
        <time>2011-07-03T07:43:33.000Z</time>
      </trkpt>
      <trkpt lat="46.51205" lon="0.33639">
        <ele>77</ele>
        <time>2011-07-03T07:43:36.000Z</time>
      </trkpt>
      <trkpt lat="46.51213" lon="0.33658">
        <ele>76.5</ele>
        <time>2011-07-03T07:43:39.000Z</time>
      </trkpt>
      <trkpt lat="46.51235" lon="0.33688">
        <ele>76.7</ele>
        <time>2011-07-03T07:43:44.000Z</time>
      </trkpt>
      <trkpt lat="46.51247" lon="0.33694">
        <ele>76.9</ele>
        <time>2011-07-03T07:43:46.000Z</time>
      </trkpt>
      <trkpt lat="46.51252" lon="0.33698">
        <ele>77</ele>
        <time>2011-07-03T07:43:47.000Z</time>
      </trkpt>
      <trkpt lat="46.51263" lon="0.33709">
        <ele>77.2</ele>
        <time>2011-07-03T07:43:49.000Z</time>
      </trkpt>
      <trkpt lat="46.51272" lon="0.33723">
        <ele>77.5</ele>
        <time>2011-07-03T07:43:51.000Z</time>
      </trkpt>
      <trkpt lat="46.51284" lon="0.33745">
        <ele>76.7</ele>
        <time>2011-07-03T07:43:54.000Z</time>
      </trkpt>
      <trkpt lat="46.51287" lon="0.33753">
        <ele>76.7</ele>
        <time>2011-07-03T07:43:55.000Z</time>
      </trkpt>
      <trkpt lat="46.51295" lon="0.33779">
        <ele>77</ele>
        <time>2011-07-03T07:43:58.000Z</time>
      </trkpt>
      <trkpt lat="46.51297" lon="0.33787">
        <ele>77</ele>
        <time>2011-07-03T07:43:59.000Z</time>
      </trkpt>
      <trkpt lat="46.51298" lon="0.33805">
        <ele>77</ele>
        <time>2011-07-03T07:44:01.000Z</time>
      </trkpt>
      <trkpt lat="46.51302" lon="0.33822">
        <ele>76.9</ele>
        <time>2011-07-03T07:44:03.000Z</time>
      </trkpt>
      <trkpt lat="46.51307" lon="0.33837">
        <ele>76.9</ele>
        <time>2011-07-03T07:44:05.000Z</time>
      </trkpt>
      <trkpt lat="46.5131" lon="0.33844">
        <ele>76.7</ele>
        <time>2011-07-03T07:44:06.000Z</time>
      </trkpt>
      <trkpt lat="46.51317" lon="0.33857">
        <ele>76.5</ele>
        <time>2011-07-03T07:44:08.000Z</time>
      </trkpt>
      <trkpt lat="46.51326" lon="0.33869">
        <ele>76.6</ele>
        <time>2011-07-03T07:44:10.000Z</time>
      </trkpt>
      <trkpt lat="46.51331" lon="0.33873">
        <ele>76.6</ele>
        <time>2011-07-03T07:44:11.000Z</time>
      </trkpt>
      <trkpt lat="46.51345" lon="0.33887">
        <ele>76.5</ele>
        <time>2011-07-03T07:44:14.000Z</time>
      </trkpt>
      <trkpt lat="46.51354" lon="0.33898">
        <ele>76.7</ele>
        <time>2011-07-03T07:44:16.000Z</time>
      </trkpt>
      <trkpt lat="46.51376" lon="0.33929">
        <ele>76.8</ele>
        <time>2011-07-03T07:44:21.000Z</time>
      </trkpt>
      <trkpt lat="46.51383" lon="0.3394">
        <ele>76.8</ele>
        <time>2011-07-03T07:44:23.000Z</time>
      </trkpt>
      <trkpt lat="46.5139" lon="0.33954">
        <ele>76.7</ele>
        <time>2011-07-03T07:44:25.000Z</time>
      </trkpt>
      <trkpt lat="46.51405" lon="0.33985">
        <ele>76.6</ele>
        <time>2011-07-03T07:44:29.000Z</time>
      </trkpt>
      <trkpt lat="46.51411" lon="0.34001">
        <ele>76.8</ele>
        <time>2011-07-03T07:44:31.000Z</time>
      </trkpt>
      <trkpt lat="46.51415" lon="0.34007">
        <ele>76.9</ele>
        <time>2011-07-03T07:44:32.000Z</time>
      </trkpt>
      <trkpt lat="46.51427" lon="0.34027">
        <ele>77</ele>
        <time>2011-07-03T07:44:35.000Z</time>
      </trkpt>
      <trkpt lat="46.51443" lon="0.34038">
        <ele>76.3</ele>
        <time>2011-07-03T07:44:38.000Z</time>
      </trkpt>
      <trkpt lat="46.51468" lon="0.34045">
        <ele>76</ele>
        <time>2011-07-03T07:44:42.000Z</time>
      </trkpt>
      <trkpt lat="46.51473" lon="0.34046">
        <ele>76</ele>
        <time>2011-07-03T07:44:43.000Z</time>
      </trkpt>
      <trkpt lat="46.51478" lon="0.34045">
        <ele>76.1</ele>
        <time>2011-07-03T07:44:44.000Z</time>
      </trkpt>
      <trkpt lat="46.51482" lon="0.34044">
        <ele>76.1</ele>
        <time>2011-07-03T07:44:46.000Z</time>
      </trkpt>
      <trkpt lat="46.51483" lon="0.34045">
        <ele>76.2</ele>
        <time>2011-07-03T07:44:47.000Z</time>
      </trkpt>
      <trkpt lat="46.51484" lon="0.34045">
        <ele>76.2</ele>
        <time>2011-07-03T07:44:48.000Z</time>
      </trkpt>
      <trkpt lat="46.51485" lon="0.34046">
        <ele>76.2</ele>
        <time>2011-07-03T07:44:49.000Z</time>
      </trkpt>
      <trkpt lat="46.51485" lon="0.34046">
        <ele>76.2</ele>
        <time>2011-07-03T07:44:50.000Z</time>
      </trkpt>
      <trkpt lat="46.51486" lon="0.34046">
        <ele>76.2</ele>
        <time>2011-07-03T07:44:51.000Z</time>
      </trkpt>
      <trkpt lat="46.51486" lon="0.34047">
        <ele>76.1</ele>
        <time>2011-07-03T07:44:58.000Z</time>
      </trkpt>
      <trkpt lat="46.51484" lon="0.34054">
        <ele>76</ele>
        <time>2011-07-03T07:45:02.000Z</time>
      </trkpt>
      <trkpt lat="46.51482" lon="0.34059">
        <ele>75.9</ele>
        <time>2011-07-03T07:45:04.000Z</time>
      </trkpt>
      <trkpt lat="46.51481" lon="0.34073">
        <ele>75.4</ele>
        <time>2011-07-03T07:45:09.000Z</time>
      </trkpt>
      <trkpt lat="46.51481" lon="0.34076">
        <ele>75.3</ele>
        <time>2011-07-03T07:45:10.000Z</time>
      </trkpt>
      <trkpt lat="46.51481" lon="0.34079">
        <ele>75.1</ele>
        <time>2011-07-03T07:45:11.000Z</time>
      </trkpt>
      <trkpt lat="46.51479" lon="0.34086">
        <ele>75.4</ele>
        <time>2011-07-03T07:45:13.000Z</time>
      </trkpt>
      <trkpt lat="46.51478" lon="0.3409">
        <ele>75.8</ele>
        <time>2011-07-03T07:45:14.000Z</time>
      </trkpt>
      <trkpt lat="46.51475" lon="0.34098">
        <ele>77</ele>
        <time>2011-07-03T07:45:17.000Z</time>
      </trkpt>
      <trkpt lat="46.51472" lon="0.34102">
        <ele>77.7</ele>
        <time>2011-07-03T07:45:19.000Z</time>
      </trkpt>
      <trkpt lat="46.51465" lon="0.34108">
        <ele>79.1</ele>
        <time>2011-07-03T07:45:23.000Z</time>
      </trkpt>
      <trkpt lat="46.51464" lon="0.3411">
        <ele>79.4</ele>
        <time>2011-07-03T07:45:24.000Z</time>
      </trkpt>
      <trkpt lat="46.51463" lon="0.34111">
        <ele>79.7</ele>
        <time>2011-07-03T07:45:25.000Z</time>
      </trkpt>
      <trkpt lat="46.51461" lon="0.34113">
        <ele>80.1</ele>
        <time>2011-07-03T07:45:26.000Z</time>
      </trkpt>
      <trkpt lat="46.51458" lon="0.34119">
        <ele>81.3</ele>
        <time>2011-07-03T07:45:30.000Z</time>
      </trkpt>
      <trkpt lat="46.51458" lon="0.34119">
        <ele>81.4</ele>
        <time>2011-07-03T07:45:31.000Z</time>
      </trkpt>
      <trkpt lat="46.51458" lon="0.34119">
        <ele>81.4</ele>
        <time>2011-07-03T07:45:32.000Z</time>
      </trkpt>
      <trkpt lat="46.51458" lon="0.34119">
        <ele>81.4</ele>
        <time>2011-07-03T07:45:33.000Z</time>
      </trkpt>
      <trkpt lat="46.51458" lon="0.34119">
        <ele>81.4</ele>
        <time>2011-07-03T07:45:34.000Z</time>
      </trkpt>
      <trkpt lat="46.51458" lon="0.34119">
        <ele>81.3</ele>
        <time>2011-07-03T07:45:41.000Z</time>
      </trkpt>
      <trkpt lat="46.51458" lon="0.34119">
        <ele>81.2</ele>
        <time>2011-07-03T07:45:48.000Z</time>
      </trkpt>
      <trkpt lat="46.51458" lon="0.34119">
        <ele>81.2</ele>
        <time>2011-07-03T07:45:50.000Z</time>
      </trkpt>
      <trkpt lat="46.51458" lon="0.34119">
        <ele>81.3</ele>
        <time>2011-07-03T07:45:59.000Z</time>
      </trkpt>
      <trkpt lat="46.51458" lon="0.34119">
        <ele>81.3</ele>
        <time>2011-07-03T07:46:01.000Z</time>
      </trkpt>
      <trkpt lat="46.51458" lon="0.34119">
        <ele>81.3</ele>
        <time>2011-07-03T07:46:09.000Z</time>
      </trkpt>
      <trkpt lat="46.51458" lon="0.34119">
        <ele>81.3</ele>
        <time>2011-07-03T07:46:10.000Z</time>
      </trkpt>
      <trkpt lat="46.51458" lon="0.34119">
        <ele>81.3</ele>
        <time>2011-07-03T07:46:15.000Z</time>
      </trkpt>
      <trkpt lat="46.51458" lon="0.34119">
        <ele>81.3</ele>
        <time>2011-07-03T07:46:19.000Z</time>
      </trkpt>
      <trkpt lat="46.51458" lon="0.34119">
        <ele>81.3</ele>
        <time>2011-07-03T07:46:20.000Z</time>
      </trkpt>
      <trkpt lat="46.51458" lon="0.34119">
        <ele>81.3</ele>
        <time>2011-07-03T07:46:28.000Z</time>
      </trkpt>
      <trkpt lat="46.51458" lon="0.34119">
        <ele>81.3</ele>
        <time>2011-07-03T07:46:34.000Z</time>
      </trkpt>
      <trkpt lat="46.51458" lon="0.3412">
        <ele>81.4</ele>
        <time>2011-07-03T07:46:41.000Z</time>
      </trkpt>
      <trkpt lat="46.51458" lon="0.3412">
        <ele>81.5</ele>
        <time>2011-07-03T07:46:42.000Z</time>
      </trkpt>
      <trkpt lat="46.51458" lon="0.3412">
        <ele>81.5</ele>
        <time>2011-07-03T07:46:43.000Z</time>
      </trkpt>
      <trkpt lat="46.51457" lon="0.3412">
        <ele>81.5</ele>
        <time>2011-07-03T07:46:44.000Z</time>
      </trkpt>
      <trkpt lat="46.51457" lon="0.3412">
        <ele>81.5</ele>
        <time>2011-07-03T07:46:45.000Z</time>
      </trkpt>
      <trkpt lat="46.51457" lon="0.34121">
        <ele>81.8</ele>
        <time>2011-07-03T07:46:48.000Z</time>
      </trkpt>
      <trkpt lat="46.51455" lon="0.34126">
        <ele>82.6</ele>
        <time>2011-07-03T07:46:54.000Z</time>
      </trkpt>
      <trkpt lat="46.51453" lon="0.34126">
        <ele>82.8</ele>
        <time>2011-07-03T07:46:59.000Z</time>
      </trkpt>
      <trkpt lat="46.51451" lon="0.34127">
        <ele>82.9</ele>
        <time>2011-07-03T07:47:00.000Z</time>
      </trkpt>
      <trkpt lat="46.51448" lon="0.34128">
        <ele>83.3</ele>
        <time>2011-07-03T07:47:03.000Z</time>
      </trkpt>
      <trkpt lat="46.51443" lon="0.34134">
        <ele>84.4</ele>
        <time>2011-07-03T07:47:06.000Z</time>
      </trkpt>
      <trkpt lat="46.5144" lon="0.34136">
        <ele>84.9</ele>
        <time>2011-07-03T07:47:07.000Z</time>
      </trkpt>
      <trkpt lat="46.51438" lon="0.34136">
        <ele>85.1</ele>
        <time>2011-07-03T07:47:08.000Z</time>
      </trkpt>
      <trkpt lat="46.51435" lon="0.34136">
        <ele>85.3</ele>
        <time>2011-07-03T07:47:09.000Z</time>
      </trkpt>
      <trkpt lat="46.51433" lon="0.34137">
        <ele>85.5</ele>
        <time>2011-07-03T07:47:10.000Z</time>
      </trkpt>
      <trkpt lat="46.51432" lon="0.34137">
        <ele>85.6</ele>
        <time>2011-07-03T07:47:11.000Z</time>
      </trkpt>
      <trkpt lat="46.51423" lon="0.34138">
        <ele>86.5</ele>
        <time>2011-07-03T07:47:17.000Z</time>
      </trkpt>
      <trkpt lat="46.51415" lon="0.3414">
        <ele>87.4</ele>
        <time>2011-07-03T07:47:22.000Z</time>
      </trkpt>
      <trkpt lat="46.51414" lon="0.34141">
        <ele>87.7</ele>
        <time>2011-07-03T07:47:23.000Z</time>
      </trkpt>
      <trkpt lat="46.51413" lon="0.34141">
        <ele>87.8</ele>
        <time>2011-07-03T07:47:24.000Z</time>
      </trkpt>
      <trkpt lat="46.51411" lon="0.34142">
        <ele>88.2</ele>
        <time>2011-07-03T07:47:25.000Z</time>
      </trkpt>
      <trkpt lat="46.51409" lon="0.34141">
        <ele>88.4</ele>
        <time>2011-07-03T07:47:26.000Z</time>
      </trkpt>
      <trkpt lat="46.51408" lon="0.34141">
        <ele>88.5</ele>
        <time>2011-07-03T07:47:27.000Z</time>
      </trkpt>
      <trkpt lat="46.51406" lon="0.34142">
        <ele>88.9</ele>
        <time>2011-07-03T07:47:28.000Z</time>
      </trkpt>
      <trkpt lat="46.51404" lon="0.34142">
        <ele>89.1</ele>
        <time>2011-07-03T07:47:29.000Z</time>
      </trkpt>
      <trkpt lat="46.51403" lon="0.34142">
        <ele>89.4</ele>
        <time>2011-07-03T07:47:30.000Z</time>
      </trkpt>
      <trkpt lat="46.51397" lon="0.34143">
        <ele>90.3</ele>
        <time>2011-07-03T07:47:35.000Z</time>
      </trkpt>
      <trkpt lat="46.51395" lon="0.34142">
        <ele>90.5</ele>
        <time>2011-07-03T07:47:37.000Z</time>
      </trkpt>
      <trkpt lat="46.51389" lon="0.34144">
        <ele>91.7</ele>
        <time>2011-07-03T07:47:43.000Z</time>
      </trkpt>
      <trkpt lat="46.51387" lon="0.34143">
        <ele>91.8</ele>
        <time>2011-07-03T07:47:44.000Z</time>
      </trkpt>
      <trkpt lat="46.51385" lon="0.34142">
        <ele>91.8</ele>
        <time>2011-07-03T07:47:45.000Z</time>
      </trkpt>
      <trkpt lat="46.51383" lon="0.34142">
        <ele>92.1</ele>
        <time>2011-07-03T07:47:46.000Z</time>
      </trkpt>
      <trkpt lat="46.51381" lon="0.34142">
        <ele>92.5</ele>
        <time>2011-07-03T07:47:47.000Z</time>
      </trkpt>
      <trkpt lat="46.51379" lon="0.34142">
        <ele>92.7</ele>
        <time>2011-07-03T07:47:48.000Z</time>
      </trkpt>
      <trkpt lat="46.51375" lon="0.34141">
        <ele>92.8</ele>
        <time>2011-07-03T07:47:50.000Z</time>
      </trkpt>
      <trkpt lat="46.51372" lon="0.34139">
        <ele>92.5</ele>
        <time>2011-07-03T07:47:52.000Z</time>
      </trkpt>
      <trkpt lat="46.51365" lon="0.34134">
        <ele>92.5</ele>
        <time>2011-07-03T07:47:56.000Z</time>
      </trkpt>
      <trkpt lat="46.51363" lon="0.34133">
        <ele>92.5</ele>
        <time>2011-07-03T07:47:57.000Z</time>
      </trkpt>
      <trkpt lat="46.51352" lon="0.34131">
        <ele>94</ele>
        <time>2011-07-03T07:48:03.000Z</time>
      </trkpt>
      <trkpt lat="46.5135" lon="0.34133">
        <ele>94.7</ele>
        <time>2011-07-03T07:48:08.000Z</time>
      </trkpt>
      <trkpt lat="46.51347" lon="0.34134">
        <ele>95.4</ele>
        <time>2011-07-03T07:48:12.000Z</time>
      </trkpt>
      <trkpt lat="46.51346" lon="0.34134">
        <ele>95.6</ele>
        <time>2011-07-03T07:48:13.000Z</time>
      </trkpt>
      <trkpt lat="46.51345" lon="0.34134">
        <ele>95.7</ele>
        <time>2011-07-03T07:48:14.000Z</time>
      </trkpt>
      <trkpt lat="46.51344" lon="0.34134">
        <ele>95.8</ele>
        <time>2011-07-03T07:48:15.000Z</time>
      </trkpt>
      <trkpt lat="46.51344" lon="0.34133">
        <ele>95.7</ele>
        <time>2011-07-03T07:48:16.000Z</time>
      </trkpt>
      <trkpt lat="46.51342" lon="0.3413">
        <ele>95.4</ele>
        <time>2011-07-03T07:48:21.000Z</time>
      </trkpt>
      <trkpt lat="46.51341" lon="0.34128">
        <ele>95.1</ele>
        <time>2011-07-03T07:48:22.000Z</time>
      </trkpt>
      <trkpt lat="46.51338" lon="0.34126">
        <ele>95</ele>
        <time>2011-07-03T07:48:25.000Z</time>
      </trkpt>
      <trkpt lat="46.51331" lon="0.34119">
        <ele>94.4</ele>
        <time>2011-07-03T07:48:29.000Z</time>
      </trkpt>
      <trkpt lat="46.51328" lon="0.34115">
        <ele>93.8</ele>
        <time>2011-07-03T07:48:34.000Z</time>
      </trkpt>
      <trkpt lat="46.51328" lon="0.34115">
        <ele>93.8</ele>
        <time>2011-07-03T07:48:43.000Z</time>
      </trkpt>
      <trkpt lat="46.51325" lon="0.34114">
        <ele>94.2</ele>
        <time>2011-07-03T07:48:47.000Z</time>
      </trkpt>
      <trkpt lat="46.51323" lon="0.34114">
        <ele>94.5</ele>
        <time>2011-07-03T07:48:48.000Z</time>
      </trkpt>
      <trkpt lat="46.51317" lon="0.34114">
        <ele>95.4</ele>
        <time>2011-07-03T07:48:51.000Z</time>
      </trkpt>
      <trkpt lat="46.51313" lon="0.34112">
        <ele>95.5</ele>
        <time>2011-07-03T07:48:53.000Z</time>
      </trkpt>
      <trkpt lat="46.51306" lon="0.3411">
        <ele>95.8</ele>
        <time>2011-07-03T07:48:56.000Z</time>
      </trkpt>
      <trkpt lat="46.51304" lon="0.34108">
        <ele>95.7</ele>
        <time>2011-07-03T07:48:57.000Z</time>
      </trkpt>
      <trkpt lat="46.51301" lon="0.34107">
        <ele>95.8</ele>
        <time>2011-07-03T07:48:58.000Z</time>
      </trkpt>
      <trkpt lat="46.51299" lon="0.34106">
        <ele>96</ele>
        <time>2011-07-03T07:48:59.000Z</time>
      </trkpt>
      <trkpt lat="46.51297" lon="0.34106">
        <ele>96.2</ele>
        <time>2011-07-03T07:49:00.000Z</time>
      </trkpt>
      <trkpt lat="46.51293" lon="0.34106">
        <ele>96.8</ele>
        <time>2011-07-03T07:49:02.000Z</time>
      </trkpt>
      <trkpt lat="46.51291" lon="0.34104">
        <ele>96.7</ele>
        <time>2011-07-03T07:49:03.000Z</time>
      </trkpt>
      <trkpt lat="46.5128" lon="0.34103">
        <ele>97.9</ele>
        <time>2011-07-03T07:49:08.000Z</time>
      </trkpt>
      <trkpt lat="46.51271" lon="0.34102">
        <ele>98.8</ele>
        <time>2011-07-03T07:49:13.000Z</time>
      </trkpt>
      <trkpt lat="46.5127" lon="0.34098">
        <ele>97.9</ele>
        <time>2011-07-03T07:49:15.000Z</time>
      </trkpt>
      <trkpt lat="46.51269" lon="0.34094">
        <ele>97.2</ele>
        <time>2011-07-03T07:49:16.000Z</time>
      </trkpt>
      <trkpt lat="46.51267" lon="0.34086">
        <ele>95.7</ele>
        <time>2011-07-03T07:49:18.000Z</time>
      </trkpt>
      <trkpt lat="46.51269" lon="0.34076">
        <ele>94.1</ele>
        <time>2011-07-03T07:49:20.000Z</time>
      </trkpt>
      <trkpt lat="46.5127" lon="0.34071">
        <ele>93.4</ele>
        <time>2011-07-03T07:49:21.000Z</time>
      </trkpt>
      <trkpt lat="46.5127" lon="0.34067">
        <ele>92.9</ele>
        <time>2011-07-03T07:49:22.000Z</time>
      </trkpt>
      <trkpt lat="46.5127" lon="0.34063">
        <ele>92.4</ele>
        <time>2011-07-03T07:49:23.000Z</time>
      </trkpt>
      <trkpt lat="46.51271" lon="0.34059">
        <ele>91.9</ele>
        <time>2011-07-03T07:49:24.000Z</time>
      </trkpt>
      <trkpt lat="46.51273" lon="0.34056">
        <ele>91.4</ele>
        <time>2011-07-03T07:49:25.000Z</time>
      </trkpt>
      <trkpt lat="46.51272" lon="0.34053">
        <ele>90.6</ele>
        <time>2011-07-03T07:49:26.000Z</time>
      </trkpt>
      <trkpt lat="46.51273" lon="0.3405">
        <ele>89.8</ele>
        <time>2011-07-03T07:49:27.000Z</time>
      </trkpt>
      <trkpt lat="46.51273" lon="0.34046">
        <ele>88.8</ele>
        <time>2011-07-03T07:49:28.000Z</time>
      </trkpt>
      <trkpt lat="46.51274" lon="0.34043">
        <ele>87.9</ele>
        <time>2011-07-03T07:49:29.000Z</time>
      </trkpt>
      <trkpt lat="46.51275" lon="0.34041">
        <ele>87.1</ele>
        <time>2011-07-03T07:49:30.000Z</time>
      </trkpt>
      <trkpt lat="46.51275" lon="0.34037">
        <ele>86.1</ele>
        <time>2011-07-03T07:49:31.000Z</time>
      </trkpt>
      <trkpt lat="46.51276" lon="0.34034">
        <ele>85</ele>
        <time>2011-07-03T07:49:32.000Z</time>
      </trkpt>
      <trkpt lat="46.51276" lon="0.3403">
        <ele>83.9</ele>
        <time>2011-07-03T07:49:33.000Z</time>
      </trkpt>
      <trkpt lat="46.51277" lon="0.34025">
        <ele>82.8</ele>
        <time>2011-07-03T07:49:34.000Z</time>
      </trkpt>
      <trkpt lat="46.51277" lon="0.3402">
        <ele>82</ele>
        <time>2011-07-03T07:49:35.000Z</time>
      </trkpt>
      <trkpt lat="46.51278" lon="0.34014">
        <ele>81.1</ele>
        <time>2011-07-03T07:49:36.000Z</time>
      </trkpt>
      <trkpt lat="46.51278" lon="0.34008">
        <ele>80.1</ele>
        <time>2011-07-03T07:49:37.000Z</time>
      </trkpt>
      <trkpt lat="46.51274" lon="0.34001">
        <ele>79.6</ele>
        <time>2011-07-03T07:49:38.000Z</time>
      </trkpt>
      <trkpt lat="46.5127" lon="0.33997">
        <ele>79.6</ele>
        <time>2011-07-03T07:49:39.000Z</time>
      </trkpt>
      <trkpt lat="46.51266" lon="0.33992">
        <ele>79.6</ele>
        <time>2011-07-03T07:49:40.000Z</time>
      </trkpt>
      <trkpt lat="46.51262" lon="0.33988">
        <ele>79.5</ele>
        <time>2011-07-03T07:49:41.000Z</time>
      </trkpt>
      <trkpt lat="46.51259" lon="0.33984">
        <ele>79.4</ele>
        <time>2011-07-03T07:49:42.000Z</time>
      </trkpt>
      <trkpt lat="46.51247" lon="0.33965">
        <ele>78.9</ele>
        <time>2011-07-03T07:49:46.000Z</time>
      </trkpt>
      <trkpt lat="46.51237" lon="0.33952">
        <ele>79.1</ele>
        <time>2011-07-03T07:49:49.000Z</time>
      </trkpt>
      <trkpt lat="46.51227" lon="0.33938">
        <ele>78.9</ele>
        <time>2011-07-03T07:49:52.000Z</time>
      </trkpt>
      <trkpt lat="46.51204" lon="0.33908">
        <ele>78.5</ele>
        <time>2011-07-03T07:49:58.000Z</time>
      </trkpt>
      <trkpt lat="46.51201" lon="0.33903">
        <ele>78.6</ele>
        <time>2011-07-03T07:49:59.000Z</time>
      </trkpt>
      <trkpt lat="46.51191" lon="0.33887">
        <ele>79.2</ele>
        <time>2011-07-03T07:50:02.000Z</time>
      </trkpt>
      <trkpt lat="46.51187" lon="0.33876">
        <ele>79.8</ele>
        <time>2011-07-03T07:50:04.000Z</time>
      </trkpt>
      <trkpt lat="46.51181" lon="0.33862">
        <ele>80.9</ele>
        <time>2011-07-03T07:50:08.000Z</time>
      </trkpt>
      <trkpt lat="46.5118" lon="0.33857">
        <ele>81.1</ele>
        <time>2011-07-03T07:50:10.000Z</time>
      </trkpt>
      <trkpt lat="46.51178" lon="0.33848">
        <ele>81.1</ele>
        <time>2011-07-03T07:50:13.000Z</time>
      </trkpt>
      <trkpt lat="46.51174" lon="0.33821">
        <ele>80.5</ele>
        <time>2011-07-03T07:50:21.000Z</time>
      </trkpt>
      <trkpt lat="46.51173" lon="0.33815">
        <ele>80.1</ele>
        <time>2011-07-03T07:50:23.000Z</time>
      </trkpt>
      <trkpt lat="46.51172" lon="0.33812">
        <ele>80</ele>
        <time>2011-07-03T07:50:24.000Z</time>
      </trkpt>
      <trkpt lat="46.51171" lon="0.33808">
        <ele>79.7</ele>
        <time>2011-07-03T07:50:25.000Z</time>
      </trkpt>
      <trkpt lat="46.51171" lon="0.33804">
        <ele>79.5</ele>
        <time>2011-07-03T07:50:26.000Z</time>
      </trkpt>
      <trkpt lat="46.51171" lon="0.33801">
        <ele>79.4</ele>
        <time>2011-07-03T07:50:27.000Z</time>
      </trkpt>
      <trkpt lat="46.51171" lon="0.33797">
        <ele>79.3</ele>
        <time>2011-07-03T07:50:28.000Z</time>
      </trkpt>
      <trkpt lat="46.51168" lon="0.33779">
        <ele>78.9</ele>
        <time>2011-07-03T07:50:33.000Z</time>
      </trkpt>
      <trkpt lat="46.51167" lon="0.33772">
        <ele>78.8</ele>
        <time>2011-07-03T07:50:35.000Z</time>
      </trkpt>
      <trkpt lat="46.51163" lon="0.33753">
        <ele>80.7</ele>
        <time>2011-07-03T07:50:41.000Z</time>
      </trkpt>
      <trkpt lat="46.51162" lon="0.33737">
        <ele>80.8</ele>
        <time>2011-07-03T07:50:45.000Z</time>
      </trkpt>
      <trkpt lat="46.51161" lon="0.33729">
        <ele>80.8</ele>
        <time>2011-07-03T07:50:47.000Z</time>
      </trkpt>
      <trkpt lat="46.5116" lon="0.33698">
        <ele>80.4</ele>
        <time>2011-07-03T07:50:53.000Z</time>
      </trkpt>
      <trkpt lat="46.51159" lon="0.33685">
        <ele>80.5</ele>
        <time>2011-07-03T07:50:55.000Z</time>
      </trkpt>
      <trkpt lat="46.51157" lon="0.33666">
        <ele>80.1</ele>
        <time>2011-07-03T07:50:58.000Z</time>
      </trkpt>
      <trkpt lat="46.51155" lon="0.33645">
        <ele>80</ele>
        <time>2011-07-03T07:51:01.000Z</time>
      </trkpt>
      <trkpt lat="46.51154" lon="0.33638">
        <ele>80.1</ele>
        <time>2011-07-03T07:51:02.000Z</time>
      </trkpt>
      <trkpt lat="46.51153" lon="0.3363">
        <ele>80.2</ele>
        <time>2011-07-03T07:51:03.000Z</time>
      </trkpt>
      <trkpt lat="46.51153" lon="0.33624">
        <ele>80.1</ele>
        <time>2011-07-03T07:51:04.000Z</time>
      </trkpt>
      <trkpt lat="46.51154" lon="0.33592">
        <ele>80.3</ele>
        <time>2011-07-03T07:51:09.000Z</time>
      </trkpt>
      <trkpt lat="46.51153" lon="0.33574">
        <ele>80.2</ele>
        <time>2011-07-03T07:51:12.000Z</time>
      </trkpt>
      <trkpt lat="46.51153" lon="0.33568">
        <ele>79.7</ele>
        <time>2011-07-03T07:51:13.000Z</time>
      </trkpt>
      <trkpt lat="46.51154" lon="0.33535">
        <ele>78</ele>
        <time>2011-07-03T07:51:18.000Z</time>
      </trkpt>
      <trkpt lat="46.51153" lon="0.33529">
        <ele>78</ele>
        <time>2011-07-03T07:51:19.000Z</time>
      </trkpt>
      <trkpt lat="46.51145" lon="0.33508">
        <ele>77.8</ele>
        <time>2011-07-03T07:51:23.000Z</time>
      </trkpt>
      <trkpt lat="46.51143" lon="0.33503">
        <ele>77.8</ele>
        <time>2011-07-03T07:51:24.000Z</time>
      </trkpt>
      <trkpt lat="46.51138" lon="0.33492">
        <ele>78.3</ele>
        <time>2011-07-03T07:51:26.000Z</time>
      </trkpt>
      <trkpt lat="46.51131" lon="0.33471">
        <ele>80.3</ele>
        <time>2011-07-03T07:51:30.000Z</time>
      </trkpt>
      <trkpt lat="46.51125" lon="0.33456">
        <ele>80.2</ele>
        <time>2011-07-03T07:51:33.000Z</time>
      </trkpt>
      <trkpt lat="46.51106" lon="0.33414">
        <ele>79.4</ele>
        <time>2011-07-03T07:51:41.000Z</time>
      </trkpt>
      <trkpt lat="46.511" lon="0.33405">
        <ele>79.6</ele>
        <time>2011-07-03T07:51:43.000Z</time>
      </trkpt>
      <trkpt lat="46.51086" lon="0.33384">
        <ele>79.7</ele>
        <time>2011-07-03T07:51:48.000Z</time>
      </trkpt>
      <trkpt lat="46.51072" lon="0.33364">
        <ele>79.5</ele>
        <time>2011-07-03T07:51:53.000Z</time>
      </trkpt>
      <trkpt lat="46.51069" lon="0.3336">
        <ele>79.5</ele>
        <time>2011-07-03T07:51:54.000Z</time>
      </trkpt>
      <trkpt lat="46.51067" lon="0.33355">
        <ele>79.6</ele>
        <time>2011-07-03T07:51:55.000Z</time>
      </trkpt>
      <trkpt lat="46.51065" lon="0.33351">
        <ele>79.8</ele>
        <time>2011-07-03T07:51:56.000Z</time>
      </trkpt>
      <trkpt lat="46.51063" lon="0.33346">
        <ele>80</ele>
        <time>2011-07-03T07:51:57.000Z</time>
      </trkpt>
      <trkpt lat="46.51047" lon="0.33324">
        <ele>81.8</ele>
        <time>2011-07-03T07:52:03.000Z</time>
      </trkpt>
      <trkpt lat="46.51036" lon="0.3331">
        <ele>81.7</ele>
        <time>2011-07-03T07:52:07.000Z</time>
      </trkpt>
      <trkpt lat="46.5103" lon="0.33303">
        <ele>81.5</ele>
        <time>2011-07-03T07:52:09.000Z</time>
      </trkpt>
      <trkpt lat="46.51027" lon="0.333">
        <ele>81.6</ele>
        <time>2011-07-03T07:52:10.000Z</time>
      </trkpt>
      <trkpt lat="46.51024" lon="0.33298">
        <ele>82</ele>
        <time>2011-07-03T07:52:11.000Z</time>
      </trkpt>
      <trkpt lat="46.51021" lon="0.33294">
        <ele>82.3</ele>
        <time>2011-07-03T07:52:12.000Z</time>
      </trkpt>
      <trkpt lat="46.51017" lon="0.33291">
        <ele>82.5</ele>
        <time>2011-07-03T07:52:13.000Z</time>
      </trkpt>
      <trkpt lat="46.51003" lon="0.33284">
        <ele>83.8</ele>
        <time>2011-07-03T07:52:17.000Z</time>
      </trkpt>
      <trkpt lat="46.50989" lon="0.33284">
        <ele>85.9</ele>
        <time>2011-07-03T07:52:22.000Z</time>
      </trkpt>
      <trkpt lat="46.50986" lon="0.33285">
        <ele>86.4</ele>
        <time>2011-07-03T07:52:23.000Z</time>
      </trkpt>
      <trkpt lat="46.50984" lon="0.33286">
        <ele>87</ele>
        <time>2011-07-03T07:52:24.000Z</time>
      </trkpt>
      <trkpt lat="46.50981" lon="0.33286">
        <ele>87.4</ele>
        <time>2011-07-03T07:52:25.000Z</time>
      </trkpt>
      <trkpt lat="46.50976" lon="0.33287">
        <ele>88.2</ele>
        <time>2011-07-03T07:52:27.000Z</time>
      </trkpt>
      <trkpt lat="46.50974" lon="0.33288">
        <ele>88.6</ele>
        <time>2011-07-03T07:52:28.000Z</time>
      </trkpt>
      <trkpt lat="46.50972" lon="0.33289">
        <ele>88.9</ele>
        <time>2011-07-03T07:52:29.000Z</time>
      </trkpt>
      <trkpt lat="46.50969" lon="0.3329">
        <ele>89.1</ele>
        <time>2011-07-03T07:52:30.000Z</time>
      </trkpt>
      <trkpt lat="46.50967" lon="0.33292">
        <ele>89.3</ele>
        <time>2011-07-03T07:52:31.000Z</time>
      </trkpt>
      <trkpt lat="46.50955" lon="0.333">
        <ele>90.3</ele>
        <time>2011-07-03T07:52:36.000Z</time>
      </trkpt>
      <trkpt lat="46.50948" lon="0.33304">
        <ele>90.8</ele>
        <time>2011-07-03T07:52:39.000Z</time>
      </trkpt>
      <trkpt lat="46.50946" lon="0.33308">
        <ele>91</ele>
        <time>2011-07-03T07:52:40.000Z</time>
      </trkpt>
      <trkpt lat="46.50945" lon="0.3331">
        <ele>91.2</ele>
        <time>2011-07-03T07:52:41.000Z</time>
      </trkpt>
      <trkpt lat="46.50943" lon="0.33314">
        <ele>91.3</ele>
        <time>2011-07-03T07:52:42.000Z</time>
      </trkpt>
      <trkpt lat="46.50942" lon="0.33317">
        <ele>91.4</ele>
        <time>2011-07-03T07:52:43.000Z</time>
      </trkpt>
      <trkpt lat="46.50935" lon="0.33336">
        <ele>92.1</ele>
        <time>2011-07-03T07:52:48.000Z</time>
      </trkpt>
      <trkpt lat="46.50933" lon="0.33339">
        <ele>92.3</ele>
        <time>2011-07-03T07:52:49.000Z</time>
      </trkpt>
      <trkpt lat="46.50933" lon="0.33343">
        <ele>92.5</ele>
        <time>2011-07-03T07:52:50.000Z</time>
      </trkpt>
      <trkpt lat="46.50932" lon="0.33347">
        <ele>92.8</ele>
        <time>2011-07-03T07:52:51.000Z</time>
      </trkpt>
      <trkpt lat="46.50925" lon="0.33369">
        <ele>93.9</ele>
        <time>2011-07-03T07:52:57.000Z</time>
      </trkpt>
      <trkpt lat="46.5092" lon="0.33382">
        <ele>94.6</ele>
        <time>2011-07-03T07:53:01.000Z</time>
      </trkpt>
      <trkpt lat="46.50918" lon="0.33385">
        <ele>94.8</ele>
        <time>2011-07-03T07:53:02.000Z</time>
      </trkpt>
      <trkpt lat="46.50917" lon="0.33388">
        <ele>94.9</ele>
        <time>2011-07-03T07:53:03.000Z</time>
      </trkpt>
      <trkpt lat="46.50915" lon="0.33391">
        <ele>95.3</ele>
        <time>2011-07-03T07:53:04.000Z</time>
      </trkpt>
      <trkpt lat="46.50913" lon="0.33394">
        <ele>95.7</ele>
        <time>2011-07-03T07:53:05.000Z</time>
      </trkpt>
      <trkpt lat="46.50902" lon="0.33409">
        <ele>97.3</ele>
        <time>2011-07-03T07:53:11.000Z</time>
      </trkpt>
      <trkpt lat="46.509" lon="0.33412">
        <ele>97.6</ele>
        <time>2011-07-03T07:53:12.000Z</time>
      </trkpt>
      <trkpt lat="46.50898" lon="0.33415">
        <ele>97.8</ele>
        <time>2011-07-03T07:53:13.000Z</time>
      </trkpt>
      <trkpt lat="46.50896" lon="0.33417">
        <ele>98.1</ele>
        <time>2011-07-03T07:53:14.000Z</time>
      </trkpt>
      <trkpt lat="46.50889" lon="0.33427">
        <ele>99.2</ele>
        <time>2011-07-03T07:53:18.000Z</time>
      </trkpt>
      <trkpt lat="46.50887" lon="0.33429">
        <ele>99.4</ele>
        <time>2011-07-03T07:53:19.000Z</time>
      </trkpt>
      <trkpt lat="46.50885" lon="0.33432">
        <ele>99.7</ele>
        <time>2011-07-03T07:53:20.000Z</time>
      </trkpt>
      <trkpt lat="46.50883" lon="0.33434">
        <ele>100</ele>
        <time>2011-07-03T07:53:21.000Z</time>
      </trkpt>
      <trkpt lat="46.50881" lon="0.33437">
        <ele>100.2</ele>
        <time>2011-07-03T07:53:22.000Z</time>
      </trkpt>
      <trkpt lat="46.50879" lon="0.3344">
        <ele>100.5</ele>
        <time>2011-07-03T07:53:23.000Z</time>
      </trkpt>
      <trkpt lat="46.50876" lon="0.33445">
        <ele>101.1</ele>
        <time>2011-07-03T07:53:25.000Z</time>
      </trkpt>
      <trkpt lat="46.50872" lon="0.3345">
        <ele>101.5</ele>
        <time>2011-07-03T07:53:27.000Z</time>
      </trkpt>
      <trkpt lat="46.5087" lon="0.33452">
        <ele>101.7</ele>
        <time>2011-07-03T07:53:28.000Z</time>
      </trkpt>
      <trkpt lat="46.50868" lon="0.33454">
        <ele>102</ele>
        <time>2011-07-03T07:53:29.000Z</time>
      </trkpt>
      <trkpt lat="46.50866" lon="0.33456">
        <ele>102.2</ele>
        <time>2011-07-03T07:53:30.000Z</time>
      </trkpt>
      <trkpt lat="46.50865" lon="0.33459">
        <ele>102.5</ele>
        <time>2011-07-03T07:53:31.000Z</time>
      </trkpt>
      <trkpt lat="46.50863" lon="0.33461">
        <ele>102.8</ele>
        <time>2011-07-03T07:53:32.000Z</time>
      </trkpt>
      <trkpt lat="46.50858" lon="0.33467">
        <ele>103.5</ele>
        <time>2011-07-03T07:53:35.000Z</time>
      </trkpt>
      <trkpt lat="46.50856" lon="0.33469">
        <ele>103.7</ele>
        <time>2011-07-03T07:53:36.000Z</time>
      </trkpt>
      <trkpt lat="46.50855" lon="0.33472">
        <ele>103.9</ele>
        <time>2011-07-03T07:53:37.000Z</time>
      </trkpt>
      <trkpt lat="46.50853" lon="0.33474">
        <ele>104.2</ele>
        <time>2011-07-03T07:53:38.000Z</time>
      </trkpt>
      <trkpt lat="46.50851" lon="0.33476">
        <ele>104.4</ele>
        <time>2011-07-03T07:53:39.000Z</time>
      </trkpt>
      <trkpt lat="46.50844" lon="0.33485">
        <ele>105.4</ele>
        <time>2011-07-03T07:53:43.000Z</time>
      </trkpt>
      <trkpt lat="46.50843" lon="0.33488">
        <ele>105.7</ele>
        <time>2011-07-03T07:53:44.000Z</time>
      </trkpt>
      <trkpt lat="46.50841" lon="0.3349">
        <ele>105.9</ele>
        <time>2011-07-03T07:53:45.000Z</time>
      </trkpt>
      <trkpt lat="46.5084" lon="0.33492">
        <ele>106.2</ele>
        <time>2011-07-03T07:53:46.000Z</time>
      </trkpt>
      <trkpt lat="46.50839" lon="0.33495">
        <ele>106.5</ele>
        <time>2011-07-03T07:53:47.000Z</time>
      </trkpt>
      <trkpt lat="46.50835" lon="0.33505">
        <ele>107.4</ele>
        <time>2011-07-03T07:53:51.000Z</time>
      </trkpt>
      <trkpt lat="46.50833" lon="0.33513">
        <ele>108</ele>
        <time>2011-07-03T07:53:54.000Z</time>
      </trkpt>
      <trkpt lat="46.50833" lon="0.33516">
        <ele>108.2</ele>
        <time>2011-07-03T07:53:55.000Z</time>
      </trkpt>
      <trkpt lat="46.50832" lon="0.33519">
        <ele>108.4</ele>
        <time>2011-07-03T07:53:56.000Z</time>
      </trkpt>
      <trkpt lat="46.50832" lon="0.33522">
        <ele>108.6</ele>
        <time>2011-07-03T07:53:57.000Z</time>
      </trkpt>
      <trkpt lat="46.50832" lon="0.33525">
        <ele>108.8</ele>
        <time>2011-07-03T07:53:58.000Z</time>
      </trkpt>
      <trkpt lat="46.5083" lon="0.33539">
        <ele>109.9</ele>
        <time>2011-07-03T07:54:03.000Z</time>
      </trkpt>
      <trkpt lat="46.5083" lon="0.33542">
        <ele>110.1</ele>
        <time>2011-07-03T07:54:04.000Z</time>
      </trkpt>
      <trkpt lat="46.5083" lon="0.33545">
        <ele>110.3</ele>
        <time>2011-07-03T07:54:05.000Z</time>
      </trkpt>
      <trkpt lat="46.5083" lon="0.33548">
        <ele>110.6</ele>
        <time>2011-07-03T07:54:06.000Z</time>
      </trkpt>
      <trkpt lat="46.50829" lon="0.33551">
        <ele>110.8</ele>
        <time>2011-07-03T07:54:07.000Z</time>
      </trkpt>
      <trkpt lat="46.50829" lon="0.3356">
        <ele>111.7</ele>
        <time>2011-07-03T07:54:10.000Z</time>
      </trkpt>
      <trkpt lat="46.50828" lon="0.33563">
        <ele>112</ele>
        <time>2011-07-03T07:54:11.000Z</time>
      </trkpt>
      <trkpt lat="46.50828" lon="0.33566">
        <ele>112.3</ele>
        <time>2011-07-03T07:54:12.000Z</time>
      </trkpt>
      <trkpt lat="46.50828" lon="0.33568">
        <ele>112.7</ele>
        <time>2011-07-03T07:54:13.000Z</time>
      </trkpt>
      <trkpt lat="46.50828" lon="0.33571">
        <ele>113</ele>
        <time>2011-07-03T07:54:14.000Z</time>
      </trkpt>
      <trkpt lat="46.50828" lon="0.33574">
        <ele>113.4</ele>
        <time>2011-07-03T07:54:15.000Z</time>
      </trkpt>
      <trkpt lat="46.50828" lon="0.33577">
        <ele>113.6</ele>
        <time>2011-07-03T07:54:16.000Z</time>
      </trkpt>
      <trkpt lat="46.50829" lon="0.3358">
        <ele>113.9</ele>
        <time>2011-07-03T07:54:17.000Z</time>
      </trkpt>
      <trkpt lat="46.50829" lon="0.33583">
        <ele>114.3</ele>
        <time>2011-07-03T07:54:18.000Z</time>
      </trkpt>
      <trkpt lat="46.50829" lon="0.33587">
        <ele>114.6</ele>
        <time>2011-07-03T07:54:19.000Z</time>
      </trkpt>
      <trkpt lat="46.50829" lon="0.33599">
        <ele>115.9</ele>
        <time>2011-07-03T07:54:23.000Z</time>
      </trkpt>
      <trkpt lat="46.50829" lon="0.33603">
        <ele>116.3</ele>
        <time>2011-07-03T07:54:24.000Z</time>
      </trkpt>
      <trkpt lat="46.50829" lon="0.33606">
        <ele>116.6</ele>
        <time>2011-07-03T07:54:25.000Z</time>
      </trkpt>
      <trkpt lat="46.50829" lon="0.33609">
        <ele>117</ele>
        <time>2011-07-03T07:54:26.000Z</time>
      </trkpt>
      <trkpt lat="46.50829" lon="0.33613">
        <ele>117.3</ele>
        <time>2011-07-03T07:54:27.000Z</time>
      </trkpt>
      <trkpt lat="46.50829" lon="0.33616">
        <ele>117.5</ele>
        <time>2011-07-03T07:54:28.000Z</time>
      </trkpt>
      <trkpt lat="46.50829" lon="0.3362">
        <ele>117.8</ele>
        <time>2011-07-03T07:54:29.000Z</time>
      </trkpt>
      <trkpt lat="46.50829" lon="0.33622">
        <ele>118</ele>
        <time>2011-07-03T07:54:30.000Z</time>
      </trkpt>
      <trkpt lat="46.50829" lon="0.33625">
        <ele>118.2</ele>
        <time>2011-07-03T07:54:31.000Z</time>
      </trkpt>
      <trkpt lat="46.50829" lon="0.33629">
        <ele>118.4</ele>
        <time>2011-07-03T07:54:32.000Z</time>
      </trkpt>
      <trkpt lat="46.50831" lon="0.3365">
        <ele>120.2</ele>
        <time>2011-07-03T07:54:40.000Z</time>
      </trkpt>
      <trkpt lat="46.50828" lon="0.33659">
        <ele>121.1</ele>
        <time>2011-07-03T07:54:44.000Z</time>
      </trkpt>
      <trkpt lat="46.50828" lon="0.33662">
        <ele>121.4</ele>
        <time>2011-07-03T07:54:45.000Z</time>
      </trkpt>
      <trkpt lat="46.50826" lon="0.33665">
        <ele>121.6</ele>
        <time>2011-07-03T07:54:46.000Z</time>
      </trkpt>
      <trkpt lat="46.50824" lon="0.33667">
        <ele>121.7</ele>
        <time>2011-07-03T07:54:47.000Z</time>
      </trkpt>
      <trkpt lat="46.50821" lon="0.3367">
        <ele>121.6</ele>
        <time>2011-07-03T07:54:48.000Z</time>
      </trkpt>
      <trkpt lat="46.50818" lon="0.33672">
        <ele>121.6</ele>
        <time>2011-07-03T07:54:49.000Z</time>
      </trkpt>
      <trkpt lat="46.5081" lon="0.33677">
        <ele>121.5</ele>
        <time>2011-07-03T07:54:52.000Z</time>
      </trkpt>
      <trkpt lat="46.5079" lon="0.33685">
        <ele>122</ele>
        <time>2011-07-03T07:54:58.000Z</time>
      </trkpt>
      <trkpt lat="46.5076" lon="0.33685">
        <ele>121.7</ele>
        <time>2011-07-03T07:55:05.000Z</time>
      </trkpt>
      <trkpt lat="46.50739" lon="0.33684">
        <ele>121.1</ele>
        <time>2011-07-03T07:55:09.000Z</time>
      </trkpt>
      <trkpt lat="46.50728" lon="0.33685">
        <ele>121.1</ele>
        <time>2011-07-03T07:55:11.000Z</time>
      </trkpt>
      <trkpt lat="46.50692" lon="0.3369">
        <ele>120.2</ele>
        <time>2011-07-03T07:55:17.000Z</time>
      </trkpt>
      <trkpt lat="46.50671" lon="0.33701">
        <ele>120</ele>
        <time>2011-07-03T07:55:21.000Z</time>
      </trkpt>
      <trkpt lat="46.50662" lon="0.33708">
        <ele>120.4</ele>
        <time>2011-07-03T07:55:23.000Z</time>
      </trkpt>
      <trkpt lat="46.50642" lon="0.33729">
        <ele>121.3</ele>
        <time>2011-07-03T07:55:28.000Z</time>
      </trkpt>
      <trkpt lat="46.50639" lon="0.33734">
        <ele>121.4</ele>
        <time>2011-07-03T07:55:29.000Z</time>
      </trkpt>
      <trkpt lat="46.50633" lon="0.33758">
        <ele>122.1</ele>
        <time>2011-07-03T07:55:33.000Z</time>
      </trkpt>
      <trkpt lat="46.50632" lon="0.33764">
        <ele>122.2</ele>
        <time>2011-07-03T07:55:34.000Z</time>
      </trkpt>
      <trkpt lat="46.5063" lon="0.33768">
        <ele>122.3</ele>
        <time>2011-07-03T07:55:35.000Z</time>
      </trkpt>
      <trkpt lat="46.50628" lon="0.33773">
        <ele>122.5</ele>
        <time>2011-07-03T07:55:36.000Z</time>
      </trkpt>
      <trkpt lat="46.50627" lon="0.33779">
        <ele>122.6</ele>
        <time>2011-07-03T07:55:37.000Z</time>
      </trkpt>
      <trkpt lat="46.50626" lon="0.33785">
        <ele>122.7</ele>
        <time>2011-07-03T07:55:38.000Z</time>
      </trkpt>
      <trkpt lat="46.50615" lon="0.33828">
        <ele>123.8</ele>
        <time>2011-07-03T07:55:45.000Z</time>
      </trkpt>
      <trkpt lat="46.50611" lon="0.33848">
        <ele>124.5</ele>
        <time>2011-07-03T07:55:48.000Z</time>
      </trkpt>
      <trkpt lat="46.50611" lon="0.33853">
        <ele>124.7</ele>
        <time>2011-07-03T07:55:49.000Z</time>
      </trkpt>
      <trkpt lat="46.5061" lon="0.33859">
        <ele>124.9</ele>
        <time>2011-07-03T07:55:50.000Z</time>
      </trkpt>
      <trkpt lat="46.50609" lon="0.33864">
        <ele>124.9</ele>
        <time>2011-07-03T07:55:51.000Z</time>
      </trkpt>
      <trkpt lat="46.50608" lon="0.3387">
        <ele>124.9</ele>
        <time>2011-07-03T07:55:52.000Z</time>
      </trkpt>
      <trkpt lat="46.50605" lon="0.33904">
        <ele>125.3</ele>
        <time>2011-07-03T07:55:58.000Z</time>
      </trkpt>
      <trkpt lat="46.50606" lon="0.33934">
        <ele>126.4</ele>
        <time>2011-07-03T07:56:04.000Z</time>
      </trkpt>
      <trkpt lat="46.50606" lon="0.33939">
        <ele>126.6</ele>
        <time>2011-07-03T07:56:05.000Z</time>
      </trkpt>
      <trkpt lat="46.50606" lon="0.33944">
        <ele>126.8</ele>
        <time>2011-07-03T07:56:06.000Z</time>
      </trkpt>
      <trkpt lat="46.50608" lon="0.33947">
        <ele>127.1</ele>
        <time>2011-07-03T07:56:07.000Z</time>
      </trkpt>
      <trkpt lat="46.50615" lon="0.33963">
        <ele>128.2</ele>
        <time>2011-07-03T07:56:11.000Z</time>
      </trkpt>
      <trkpt lat="46.50634" lon="0.33984">
        <ele>128.9</ele>
        <time>2011-07-03T07:56:18.000Z</time>
      </trkpt>
      <trkpt lat="46.50644" lon="0.33999">
        <ele>129.9</ele>
        <time>2011-07-03T07:56:22.000Z</time>
      </trkpt>
      <trkpt lat="46.50646" lon="0.34003">
        <ele>130.1</ele>
        <time>2011-07-03T07:56:23.000Z</time>
      </trkpt>
      <trkpt lat="46.50646" lon="0.34008">
        <ele>130.3</ele>
        <time>2011-07-03T07:56:24.000Z</time>
      </trkpt>
      <trkpt lat="46.50647" lon="0.34013">
        <ele>130.5</ele>
        <time>2011-07-03T07:56:25.000Z</time>
      </trkpt>
      <trkpt lat="46.50647" lon="0.34018">
        <ele>130.6</ele>
        <time>2011-07-03T07:56:26.000Z</time>
      </trkpt>
      <trkpt lat="46.50647" lon="0.34023">
        <ele>130.8</ele>
        <time>2011-07-03T07:56:27.000Z</time>
      </trkpt>
      <trkpt lat="46.50646" lon="0.34028">
        <ele>131</ele>
        <time>2011-07-03T07:56:28.000Z</time>
      </trkpt>
      <trkpt lat="46.50645" lon="0.34034">
        <ele>131.2</ele>
        <time>2011-07-03T07:56:29.000Z</time>
      </trkpt>
      <trkpt lat="46.50643" lon="0.34039">
        <ele>131.4</ele>
        <time>2011-07-03T07:56:30.000Z</time>
      </trkpt>
      <trkpt lat="46.50631" lon="0.34069">
        <ele>132.2</ele>
        <time>2011-07-03T07:56:36.000Z</time>
      </trkpt>
      <trkpt lat="46.50613" lon="0.34116">
        <ele>133.2</ele>
        <time>2011-07-03T07:56:46.000Z</time>
      </trkpt>
      <trkpt lat="46.50611" lon="0.34121">
        <ele>133.3</ele>
        <time>2011-07-03T07:56:47.000Z</time>
      </trkpt>
      <trkpt lat="46.50609" lon="0.34126">
        <ele>133.4</ele>
        <time>2011-07-03T07:56:48.000Z</time>
      </trkpt>
      <trkpt lat="46.50607" lon="0.34131">
        <ele>133.5</ele>
        <time>2011-07-03T07:56:49.000Z</time>
      </trkpt>
      <trkpt lat="46.50604" lon="0.34136">
        <ele>133.6</ele>
        <time>2011-07-03T07:56:50.000Z</time>
      </trkpt>
      <trkpt lat="46.50596" lon="0.34156">
        <ele>133.8</ele>
        <time>2011-07-03T07:56:54.000Z</time>
      </trkpt>
      <trkpt lat="46.50578" lon="0.34198">
        <ele>134.6</ele>
        <time>2011-07-03T07:57:02.000Z</time>
      </trkpt>
      <trkpt lat="46.50571" lon="0.34214">
        <ele>134.4</ele>
        <time>2011-07-03T07:57:05.000Z</time>
      </trkpt>
      <trkpt lat="46.50569" lon="0.34219">
        <ele>134.4</ele>
        <time>2011-07-03T07:57:06.000Z</time>
      </trkpt>
      <trkpt lat="46.50567" lon="0.34225">
        <ele>134.5</ele>
        <time>2011-07-03T07:57:07.000Z</time>
      </trkpt>
      <trkpt lat="46.50565" lon="0.3423">
        <ele>134.5</ele>
        <time>2011-07-03T07:57:08.000Z</time>
      </trkpt>
      <trkpt lat="46.50562" lon="0.34236">
        <ele>134.6</ele>
        <time>2011-07-03T07:57:09.000Z</time>
      </trkpt>
      <trkpt lat="46.50555" lon="0.34253">
        <ele>135</ele>
        <time>2011-07-03T07:57:12.000Z</time>
      </trkpt>
      <trkpt lat="46.50526" lon="0.34317">
        <ele>134.3</ele>
        <time>2011-07-03T07:57:23.000Z</time>
      </trkpt>
      <trkpt lat="46.50501" lon="0.34362">
        <ele>133.1</ele>
        <time>2011-07-03T07:57:30.000Z</time>
      </trkpt>
      <trkpt lat="46.50498" lon="0.3437">
        <ele>133.2</ele>
        <time>2011-07-03T07:57:31.000Z</time>
      </trkpt>
      <trkpt lat="46.50494" lon="0.34395">
        <ele>133.4</ele>
        <time>2011-07-03T07:57:34.000Z</time>
      </trkpt>
      <trkpt lat="46.50498" lon="0.34419">
        <ele>133</ele>
        <time>2011-07-03T07:57:38.000Z</time>
      </trkpt>
      <trkpt lat="46.50502" lon="0.34424">
        <ele>133.3</ele>
        <time>2011-07-03T07:57:41.000Z</time>
      </trkpt>
      <trkpt lat="46.50504" lon="0.34426">
        <ele>133.4</ele>
        <time>2011-07-03T07:57:42.000Z</time>
      </trkpt>
      <trkpt lat="46.50506" lon="0.34428">
        <ele>133.5</ele>
        <time>2011-07-03T07:57:43.000Z</time>
      </trkpt>
      <trkpt lat="46.50509" lon="0.34431">
        <ele>133.7</ele>
        <time>2011-07-03T07:57:44.000Z</time>
      </trkpt>
      <trkpt lat="46.50512" lon="0.34434">
        <ele>133.8</ele>
        <time>2011-07-03T07:57:45.000Z</time>
      </trkpt>
      <trkpt lat="46.50515" lon="0.34438">
        <ele>133.9</ele>
        <time>2011-07-03T07:57:46.000Z</time>
      </trkpt>
      <trkpt lat="46.5054" lon="0.34463">
        <ele>134.8</ele>
        <time>2011-07-03T07:57:53.000Z</time>
      </trkpt>
      <trkpt lat="46.50549" lon="0.34475">
        <ele>135</ele>
        <time>2011-07-03T07:57:56.000Z</time>
      </trkpt>
      <trkpt lat="46.50555" lon="0.34492">
        <ele>135</ele>
        <time>2011-07-03T07:57:59.000Z</time>
      </trkpt>
      <trkpt lat="46.50558" lon="0.34496">
        <ele>135</ele>
        <time>2011-07-03T07:58:00.000Z</time>
      </trkpt>
      <trkpt lat="46.50563" lon="0.34506">
        <ele>135.2</ele>
        <time>2011-07-03T07:58:02.000Z</time>
      </trkpt>
      <trkpt lat="46.50564" lon="0.34513">
        <ele>135.5</ele>
        <time>2011-07-03T07:58:03.000Z</time>
      </trkpt>
      <trkpt lat="46.50566" lon="0.34518">
        <ele>135.7</ele>
        <time>2011-07-03T07:58:04.000Z</time>
      </trkpt>
      <trkpt lat="46.50566" lon="0.34524">
        <ele>135.9</ele>
        <time>2011-07-03T07:58:05.000Z</time>
      </trkpt>
      <trkpt lat="46.50567" lon="0.3453">
        <ele>136</ele>
        <time>2011-07-03T07:58:06.000Z</time>
      </trkpt>
      <trkpt lat="46.50569" lon="0.3454">
        <ele>136</ele>
        <time>2011-07-03T07:58:08.000Z</time>
      </trkpt>
      <trkpt lat="46.50569" lon="0.34566">
        <ele>136</ele>
        <time>2011-07-03T07:58:13.000Z</time>
      </trkpt>
      <trkpt lat="46.50576" lon="0.34593">
        <ele>136</ele>
        <time>2011-07-03T07:58:18.000Z</time>
      </trkpt>
      <trkpt lat="46.50582" lon="0.34629">
        <ele>136</ele>
        <time>2011-07-03T07:58:23.000Z</time>
      </trkpt>
      <trkpt lat="46.50582" lon="0.34636">
        <ele>136</ele>
        <time>2011-07-03T07:58:24.000Z</time>
      </trkpt>
      <trkpt lat="46.50578" lon="0.34657">
        <ele>136</ele>
        <time>2011-07-03T07:58:27.000Z</time>
      </trkpt>
      <trkpt lat="46.5058" lon="0.34686">
        <ele>136</ele>
        <time>2011-07-03T07:58:31.000Z</time>
      </trkpt>
      <trkpt lat="46.50583" lon="0.34701">
        <ele>135.8</ele>
        <time>2011-07-03T07:58:33.000Z</time>
      </trkpt>
      <trkpt lat="46.50587" lon="0.34706">
        <ele>135.7</ele>
        <time>2011-07-03T07:58:34.000Z</time>
      </trkpt>
      <trkpt lat="46.50592" lon="0.34709">
        <ele>135.6</ele>
        <time>2011-07-03T07:58:35.000Z</time>
      </trkpt>
      <trkpt lat="46.50594" lon="0.34716">
        <ele>135.5</ele>
        <time>2011-07-03T07:58:36.000Z</time>
      </trkpt>
      <trkpt lat="46.50596" lon="0.34728">
        <ele>135.4</ele>
        <time>2011-07-03T07:58:38.000Z</time>
      </trkpt>
      <trkpt lat="46.50597" lon="0.34734">
        <ele>135.3</ele>
        <time>2011-07-03T07:58:39.000Z</time>
      </trkpt>
      <trkpt lat="46.506" lon="0.34754">
        <ele>134.9</ele>
        <time>2011-07-03T07:58:42.000Z</time>
      </trkpt>
      <trkpt lat="46.50599" lon="0.3476">
        <ele>134.8</ele>
        <time>2011-07-03T07:58:43.000Z</time>
      </trkpt>
      <trkpt lat="46.50599" lon="0.34763">
        <ele>134.7</ele>
        <time>2011-07-03T07:58:44.000Z</time>
      </trkpt>
      <trkpt lat="46.50599" lon="0.34765">
        <ele>134.7</ele>
        <time>2011-07-03T07:58:45.000Z</time>
      </trkpt>
      <trkpt lat="46.50599" lon="0.34768">
        <ele>134.6</ele>
        <time>2011-07-03T07:58:46.000Z</time>
      </trkpt>
      <trkpt lat="46.50599" lon="0.34771">
        <ele>134.6</ele>
        <time>2011-07-03T07:58:47.000Z</time>
      </trkpt>
      <trkpt lat="46.50599" lon="0.34773">
        <ele>134.5</ele>
        <time>2011-07-03T07:58:48.000Z</time>
      </trkpt>
      <trkpt lat="46.50603" lon="0.34796">
        <ele>134.1</ele>
        <time>2011-07-03T07:58:53.000Z</time>
      </trkpt>
      <trkpt lat="46.50601" lon="0.34821">
        <ele>133.6</ele>
        <time>2011-07-03T07:58:57.000Z</time>
      </trkpt>
      <trkpt lat="46.50608" lon="0.3484">
        <ele>133.1</ele>
        <time>2011-07-03T07:59:00.000Z</time>
      </trkpt>
      <trkpt lat="46.5061" lon="0.34847">
        <ele>133</ele>
        <time>2011-07-03T07:59:01.000Z</time>
      </trkpt>
      <trkpt lat="46.50614" lon="0.34854">
        <ele>132.9</ele>
        <time>2011-07-03T07:59:02.000Z</time>
      </trkpt>
      <trkpt lat="46.50626" lon="0.34873">
        <ele>132.5</ele>
        <time>2011-07-03T07:59:05.000Z</time>
      </trkpt>
      <trkpt lat="46.50634" lon="0.34885">
        <ele>132.2</ele>
        <time>2011-07-03T07:59:07.000Z</time>
      </trkpt>
      <trkpt lat="46.50638" lon="0.34891">
        <ele>132</ele>
        <time>2011-07-03T07:59:08.000Z</time>
      </trkpt>
      <trkpt lat="46.50642" lon="0.34897">
        <ele>131.7</ele>
        <time>2011-07-03T07:59:09.000Z</time>
      </trkpt>
      <trkpt lat="46.50646" lon="0.34902">
        <ele>131.5</ele>
        <time>2011-07-03T07:59:10.000Z</time>
      </trkpt>
      <trkpt lat="46.5065" lon="0.34908">
        <ele>131.3</ele>
        <time>2011-07-03T07:59:11.000Z</time>
      </trkpt>
      <trkpt lat="46.50668" lon="0.34932">
        <ele>130.5</ele>
        <time>2011-07-03T07:59:15.000Z</time>
      </trkpt>
      <trkpt lat="46.50685" lon="0.34954">
        <ele>130</ele>
        <time>2011-07-03T07:59:19.000Z</time>
      </trkpt>
      <trkpt lat="46.50687" lon="0.34961">
        <ele>130</ele>
        <time>2011-07-03T07:59:20.000Z</time>
      </trkpt>
      <trkpt lat="46.50686" lon="0.34969">
        <ele>130</ele>
        <time>2011-07-03T07:59:21.000Z</time>
      </trkpt>
      <trkpt lat="46.50684" lon="0.34977">
        <ele>130</ele>
        <time>2011-07-03T07:59:22.000Z</time>
      </trkpt>
      <trkpt lat="46.50681" lon="0.34985">
        <ele>130</ele>
        <time>2011-07-03T07:59:23.000Z</time>
      </trkpt>
      <trkpt lat="46.5068" lon="0.34993">
        <ele>130</ele>
        <time>2011-07-03T07:59:24.000Z</time>
      </trkpt>
      <trkpt lat="46.50678" lon="0.35001">
        <ele>130</ele>
        <time>2011-07-03T07:59:25.000Z</time>
      </trkpt>
      <trkpt lat="46.50667" lon="0.35038">
        <ele>131</ele>
        <time>2011-07-03T07:59:30.000Z</time>
      </trkpt>
      <trkpt lat="46.50665" lon="0.35045">
        <ele>131.1</ele>
        <time>2011-07-03T07:59:31.000Z</time>
      </trkpt>
      <trkpt lat="46.50659" lon="0.35075">
        <ele>132</ele>
        <time>2011-07-03T07:59:36.000Z</time>
      </trkpt>
      <trkpt lat="46.50662" lon="0.35098">
        <ele>132.2</ele>
        <time>2011-07-03T07:59:41.000Z</time>
      </trkpt>
      <trkpt lat="46.50663" lon="0.351">
        <ele>132.1</ele>
        <time>2011-07-03T07:59:42.000Z</time>
      </trkpt>
      <trkpt lat="46.50669" lon="0.35108">
        <ele>131.9</ele>
        <time>2011-07-03T07:59:45.000Z</time>
      </trkpt>
      <trkpt lat="46.50671" lon="0.3511">
        <ele>131.8</ele>
        <time>2011-07-03T07:59:46.000Z</time>
      </trkpt>
      <trkpt lat="46.50673" lon="0.35111">
        <ele>131.8</ele>
        <time>2011-07-03T07:59:47.000Z</time>
      </trkpt>
      <trkpt lat="46.50675" lon="0.35114">
        <ele>131.7</ele>
        <time>2011-07-03T07:59:48.000Z</time>
      </trkpt>
      <trkpt lat="46.50675" lon="0.35118">
        <ele>131.6</ele>
        <time>2011-07-03T07:59:49.000Z</time>
      </trkpt>
      <trkpt lat="46.50673" lon="0.35122">
        <ele>131.7</ele>
        <time>2011-07-03T07:59:50.000Z</time>
      </trkpt>
      <trkpt lat="46.5067" lon="0.35124">
        <ele>131.8</ele>
        <time>2011-07-03T07:59:53.000Z</time>
      </trkpt>
      <trkpt lat="46.50669" lon="0.35124">
        <ele>131.9</ele>
        <time>2011-07-03T07:59:54.000Z</time>
      </trkpt>
      <trkpt lat="46.5067" lon="0.35122">
        <ele>131.8</ele>
        <time>2011-07-03T07:59:58.000Z</time>
      </trkpt>
      <trkpt lat="46.5067" lon="0.35122">
        <ele>131.8</ele>
        <time>2011-07-03T07:59:59.000Z</time>
      </trkpt>
      <trkpt lat="46.5067" lon="0.35122">
        <ele>131.8</ele>
        <time>2011-07-03T08:00:08.000Z</time>
      </trkpt>
      <trkpt lat="46.50671" lon="0.35121">
        <ele>131.8</ele>
        <time>2011-07-03T08:00:10.000Z</time>
      </trkpt>
      <trkpt lat="46.50676" lon="0.35121">
        <ele>131.5</ele>
        <time>2011-07-03T08:00:16.000Z</time>
      </trkpt>
      <trkpt lat="46.50676" lon="0.35121">
        <ele>131.5</ele>
        <time>2011-07-03T08:00:19.000Z</time>
      </trkpt>
      <trkpt lat="46.50677" lon="0.35122">
        <ele>131.5</ele>
        <time>2011-07-03T08:00:20.000Z</time>
      </trkpt>
      <trkpt lat="46.50678" lon="0.35122">
        <ele>131.4</ele>
        <time>2011-07-03T08:00:22.000Z</time>
      </trkpt>
      <trkpt lat="46.50678" lon="0.35122">
        <ele>131.4</ele>
        <time>2011-07-03T08:00:26.000Z</time>
      </trkpt>
      <trkpt lat="46.50679" lon="0.35122">
        <ele>131.4</ele>
        <time>2011-07-03T08:00:33.000Z</time>
      </trkpt>
      <trkpt lat="46.50679" lon="0.35122">
        <ele>131.4</ele>
        <time>2011-07-03T08:00:39.000Z</time>
      </trkpt>
      <trkpt lat="46.50679" lon="0.35122">
        <ele>131.4</ele>
        <time>2011-07-03T08:00:43.000Z</time>
      </trkpt>
      <trkpt lat="46.50679" lon="0.35122">
        <ele>131.4</ele>
        <time>2011-07-03T08:00:44.000Z</time>
      </trkpt>
      <trkpt lat="46.50679" lon="0.35122">
        <ele>131.4</ele>
        <time>2011-07-03T08:00:45.000Z</time>
      </trkpt>
      <trkpt lat="46.50679" lon="0.35122">
        <ele>131.4</ele>
        <time>2011-07-03T08:00:46.000Z</time>
      </trkpt>
      <trkpt lat="46.50679" lon="0.35122">
        <ele>131.4</ele>
        <time>2011-07-03T08:00:47.000Z</time>
      </trkpt>
      <trkpt lat="46.50679" lon="0.35122">
        <ele>131.4</ele>
        <time>2011-07-03T08:00:51.000Z</time>
      </trkpt>
      <trkpt lat="46.50679" lon="0.35122">
        <ele>131.4</ele>
        <time>2011-07-03T08:00:52.000Z</time>
      </trkpt>
      <trkpt lat="46.50679" lon="0.35122">
        <ele>131.4</ele>
        <time>2011-07-03T08:01:01.000Z</time>
      </trkpt>
      <trkpt lat="46.50679" lon="0.35122">
        <ele>131.4</ele>
        <time>2011-07-03T08:01:10.000Z</time>
      </trkpt>
      <trkpt lat="46.50679" lon="0.35123">
        <ele>131.4</ele>
        <time>2011-07-03T08:01:18.000Z</time>
      </trkpt>
      <trkpt lat="46.50679" lon="0.35123">
        <ele>131.4</ele>
        <time>2011-07-03T08:01:26.000Z</time>
      </trkpt>
      <trkpt lat="46.50679" lon="0.35123">
        <ele>131.4</ele>
        <time>2011-07-03T08:01:28.000Z</time>
      </trkpt>
      <trkpt lat="46.50679" lon="0.35123">
        <ele>131.4</ele>
        <time>2011-07-03T08:01:30.000Z</time>
      </trkpt>
      <trkpt lat="46.50679" lon="0.35123">
        <ele>131.4</ele>
        <time>2011-07-03T08:01:38.000Z</time>
      </trkpt>
      <trkpt lat="46.50679" lon="0.35123">
        <ele>131.4</ele>
        <time>2011-07-03T08:01:46.000Z</time>
      </trkpt>
      <trkpt lat="46.50679" lon="0.35123">
        <ele>131.3</ele>
        <time>2011-07-03T08:01:52.000Z</time>
      </trkpt>
      <trkpt lat="46.5068" lon="0.35123">
        <ele>131.3</ele>
        <time>2011-07-03T08:02:00.000Z</time>
      </trkpt>
      <trkpt lat="46.5068" lon="0.35123">
        <ele>131.3</ele>
        <time>2011-07-03T08:02:08.000Z</time>
      </trkpt>
      <trkpt lat="46.5068" lon="0.35123">
        <ele>131.3</ele>
        <time>2011-07-03T08:02:15.000Z</time>
      </trkpt>
      <trkpt lat="46.5068" lon="0.35123">
        <ele>131.3</ele>
        <time>2011-07-03T08:02:20.000Z</time>
      </trkpt>
      <trkpt lat="46.5068" lon="0.35123">
        <ele>131.3</ele>
        <time>2011-07-03T08:02:30.000Z</time>
      </trkpt>
      <trkpt lat="46.5068" lon="0.35123">
        <ele>131.3</ele>
        <time>2011-07-03T08:02:42.000Z</time>
      </trkpt>
      <trkpt lat="46.5068" lon="0.35123">
        <ele>131.3</ele>
        <time>2011-07-03T08:02:45.000Z</time>
      </trkpt>
      <trkpt lat="46.5068" lon="0.35123">
        <ele>131.3</ele>
        <time>2011-07-03T08:02:51.000Z</time>
      </trkpt>
      <trkpt lat="46.5068" lon="0.35123">
        <ele>131.3</ele>
        <time>2011-07-03T08:02:54.000Z</time>
      </trkpt>
      <trkpt lat="46.5068" lon="0.35123">
        <ele>131.3</ele>
        <time>2011-07-03T08:03:03.000Z</time>
      </trkpt>
      <trkpt lat="46.5068" lon="0.35123">
        <ele>131.3</ele>
        <time>2011-07-03T08:03:14.000Z</time>
      </trkpt>
      <trkpt lat="46.5068" lon="0.35123">
        <ele>131.3</ele>
        <time>2011-07-03T08:03:26.000Z</time>
      </trkpt>
      <trkpt lat="46.5068" lon="0.35122">
        <ele>131.3</ele>
        <time>2011-07-03T08:03:35.000Z</time>
      </trkpt>
      <trkpt lat="46.5068" lon="0.35122">
        <ele>131.3</ele>
        <time>2011-07-03T08:03:43.000Z</time>
      </trkpt>
      <trkpt lat="46.5068" lon="0.35122">
        <ele>131.3</ele>
        <time>2011-07-03T08:03:51.000Z</time>
      </trkpt>
      <trkpt lat="46.5068" lon="0.35122">
        <ele>131.3</ele>
        <time>2011-07-03T08:04:00.000Z</time>
      </trkpt>
      <trkpt lat="46.5068" lon="0.35122">
        <ele>131.3</ele>
        <time>2011-07-03T08:04:10.000Z</time>
      </trkpt>
      <trkpt lat="46.50679" lon="0.35122">
        <ele>131.4</ele>
        <time>2011-07-03T08:04:14.000Z</time>
      </trkpt>
      <trkpt lat="46.50679" lon="0.35122">
        <ele>131.4</ele>
        <time>2011-07-03T08:04:17.000Z</time>
      </trkpt>
      <trkpt lat="46.50679" lon="0.35122">
        <ele>131.4</ele>
        <time>2011-07-03T08:04:26.000Z</time>
      </trkpt>
      <trkpt lat="46.50679" lon="0.35122">
        <ele>131.4</ele>
        <time>2011-07-03T08:04:35.000Z</time>
      </trkpt>
      <trkpt lat="46.50679" lon="0.35122">
        <ele>131.4</ele>
        <time>2011-07-03T08:04:39.000Z</time>
      </trkpt>
      <trkpt lat="46.50679" lon="0.35122">
        <ele>131.4</ele>
        <time>2011-07-03T08:04:43.000Z</time>
      </trkpt>
      <trkpt lat="46.5068" lon="0.35122">
        <ele>131.3</ele>
        <time>2011-07-03T08:04:51.000Z</time>
      </trkpt>
      <trkpt lat="46.5068" lon="0.35122">
        <ele>131.3</ele>
        <time>2011-07-03T08:04:58.000Z</time>
      </trkpt>
      <trkpt lat="46.5068" lon="0.35122">
        <ele>131.3</ele>
        <time>2011-07-03T08:05:04.000Z</time>
      </trkpt>
      <trkpt lat="46.5068" lon="0.35121">
        <ele>131.3</ele>
        <time>2011-07-03T08:05:07.000Z</time>
      </trkpt>
      <trkpt lat="46.50681" lon="0.3512">
        <ele>131.3</ele>
        <time>2011-07-03T08:05:09.000Z</time>
      </trkpt>
      <trkpt lat="46.50681" lon="0.3512">
        <ele>131.3</ele>
        <time>2011-07-03T08:05:16.000Z</time>
      </trkpt>
      <trkpt lat="46.50681" lon="0.35121">
        <ele>131.3</ele>
        <time>2011-07-03T08:05:17.000Z</time>
      </trkpt>
      <trkpt lat="46.50682" lon="0.35119">
        <ele>131.3</ele>
        <time>2011-07-03T08:05:23.000Z</time>
      </trkpt>
      <trkpt lat="46.50682" lon="0.35119">
        <ele>131.3</ele>
        <time>2011-07-03T08:05:27.000Z</time>
      </trkpt>
      <trkpt lat="46.50682" lon="0.35119">
        <ele>131.3</ele>
        <time>2011-07-03T08:05:28.000Z</time>
      </trkpt>
      <trkpt lat="46.50681" lon="0.35119">
        <ele>131.3</ele>
        <time>2011-07-03T08:05:32.000Z</time>
      </trkpt>
      <trkpt lat="46.50679" lon="0.3512">
        <ele>131.4</ele>
        <time>2011-07-03T08:05:34.000Z</time>
      </trkpt>
      <trkpt lat="46.50677" lon="0.35123">
        <ele>131.5</ele>
        <time>2011-07-03T08:05:39.000Z</time>
      </trkpt>
      <trkpt lat="46.50674" lon="0.35124">
        <ele>131.6</ele>
        <time>2011-07-03T08:05:44.000Z</time>
      </trkpt>
      <trkpt lat="46.50674" lon="0.35124">
        <ele>131.6</ele>
        <time>2011-07-03T08:05:45.000Z</time>
      </trkpt>
      <trkpt lat="46.50673" lon="0.35128">
        <ele>131.7</ele>
        <time>2011-07-03T08:05:49.000Z</time>
      </trkpt>
      <trkpt lat="46.50672" lon="0.3513">
        <ele>131.7</ele>
        <time>2011-07-03T08:05:50.000Z</time>
      </trkpt>
      <trkpt lat="46.50671" lon="0.35136">
        <ele>131.7</ele>
        <time>2011-07-03T08:05:53.000Z</time>
      </trkpt>
      <trkpt lat="46.50671" lon="0.35136">
        <ele>131.7</ele>
        <time>2011-07-03T08:05:54.000Z</time>
      </trkpt>
      <trkpt lat="46.50671" lon="0.35141">
        <ele>131.7</ele>
        <time>2011-07-03T08:05:58.000Z</time>
      </trkpt>
      <trkpt lat="46.50671" lon="0.35143">
        <ele>131.6</ele>
        <time>2011-07-03T08:06:02.000Z</time>
      </trkpt>
      <trkpt lat="46.50671" lon="0.35143">
        <ele>131.6</ele>
        <time>2011-07-03T08:06:10.000Z</time>
      </trkpt>
      <trkpt lat="46.50672" lon="0.35142">
        <ele>131.5</ele>
        <time>2011-07-03T08:06:18.000Z</time>
      </trkpt>
      <trkpt lat="46.50672" lon="0.35143">
        <ele>131.5</ele>
        <time>2011-07-03T08:06:22.000Z</time>
      </trkpt>
      <trkpt lat="46.50672" lon="0.35143">
        <ele>131.5</ele>
        <time>2011-07-03T08:06:23.000Z</time>
      </trkpt>
      <trkpt lat="46.50672" lon="0.35142">
        <ele>131.5</ele>
        <time>2011-07-03T08:06:30.000Z</time>
      </trkpt>
      <trkpt lat="46.50672" lon="0.35142">
        <ele>131.5</ele>
        <time>2011-07-03T08:06:33.000Z</time>
      </trkpt>
      <trkpt lat="46.50672" lon="0.35142">
        <ele>131.5</ele>
        <time>2011-07-03T08:06:36.000Z</time>
      </trkpt>
      <trkpt lat="46.50672" lon="0.35142">
        <ele>131.5</ele>
        <time>2011-07-03T08:06:38.000Z</time>
      </trkpt>
      <trkpt lat="46.50672" lon="0.35142">
        <ele>131.5</ele>
        <time>2011-07-03T08:06:39.000Z</time>
      </trkpt>
      <trkpt lat="46.50672" lon="0.35142">
        <ele>131.5</ele>
        <time>2011-07-03T08:06:40.000Z</time>
      </trkpt>
      <trkpt lat="46.50672" lon="0.35142">
        <ele>131.5</ele>
        <time>2011-07-03T08:06:41.000Z</time>
      </trkpt>
      <trkpt lat="46.50672" lon="0.35142">
        <ele>131.5</ele>
        <time>2011-07-03T08:06:42.000Z</time>
      </trkpt>
      <trkpt lat="46.50672" lon="0.35142">
        <ele>131.5</ele>
        <time>2011-07-03T08:06:45.000Z</time>
      </trkpt>
      <trkpt lat="46.50672" lon="0.35142">
        <ele>131.5</ele>
        <time>2011-07-03T08:06:48.000Z</time>
      </trkpt>
      <trkpt lat="46.50672" lon="0.35142">
        <ele>131.5</ele>
        <time>2011-07-03T08:06:51.000Z</time>
      </trkpt>
      <trkpt lat="46.50672" lon="0.35142">
        <ele>131.5</ele>
        <time>2011-07-03T08:06:54.000Z</time>
      </trkpt>
      <trkpt lat="46.50672" lon="0.35142">
        <ele>131.5</ele>
        <time>2011-07-03T08:06:56.000Z</time>
      </trkpt>
      <trkpt lat="46.50672" lon="0.35138">
        <ele>131.6</ele>
        <time>2011-07-03T08:06:59.000Z</time>
      </trkpt>
      <trkpt lat="46.50671" lon="0.35136">
        <ele>131.7</ele>
        <time>2011-07-03T08:07:02.000Z</time>
      </trkpt>
      <trkpt lat="46.50669" lon="0.35131">
        <ele>131.8</ele>
        <time>2011-07-03T08:07:09.000Z</time>
      </trkpt>
      <trkpt lat="46.5067" lon="0.3513">
        <ele>131.8</ele>
        <time>2011-07-03T08:07:15.000Z</time>
      </trkpt>
      <trkpt lat="46.5067" lon="0.35129">
        <ele>131.8</ele>
        <time>2011-07-03T08:07:16.000Z</time>
      </trkpt>
      <trkpt lat="46.50672" lon="0.35127">
        <ele>131.7</ele>
        <time>2011-07-03T08:07:21.000Z</time>
      </trkpt>
      <trkpt lat="46.50672" lon="0.35127">
        <ele>131.7</ele>
        <time>2011-07-03T08:07:28.000Z</time>
      </trkpt>
      <trkpt lat="46.50673" lon="0.35125">
        <ele>131.6</ele>
        <time>2011-07-03T08:07:34.000Z</time>
      </trkpt>
      <trkpt lat="46.50673" lon="0.35125">
        <ele>131.6</ele>
        <time>2011-07-03T08:07:35.000Z</time>
      </trkpt>
      <trkpt lat="46.50674" lon="0.35126">
        <ele>131.6</ele>
        <time>2011-07-03T08:07:41.000Z</time>
      </trkpt>
      <trkpt lat="46.50675" lon="0.35124">
        <ele>131.5</ele>
        <time>2011-07-03T08:07:47.000Z</time>
      </trkpt>
      <trkpt lat="46.50675" lon="0.35124">
        <ele>131.5</ele>
        <time>2011-07-03T08:07:52.000Z</time>
      </trkpt>
      <trkpt lat="46.50675" lon="0.35124">
        <ele>131.5</ele>
        <time>2011-07-03T08:07:57.000Z</time>
      </trkpt>
      <trkpt lat="46.50675" lon="0.35124">
        <ele>131.5</ele>
        <time>2011-07-03T08:08:05.000Z</time>
      </trkpt>
      <trkpt lat="46.50675" lon="0.35124">
        <ele>131.5</ele>
        <time>2011-07-03T08:08:06.000Z</time>
      </trkpt>
      <trkpt lat="46.50675" lon="0.35124">
        <ele>131.5</ele>
        <time>2011-07-03T08:08:10.000Z</time>
      </trkpt>
      <trkpt lat="46.50675" lon="0.35124">
        <ele>131.5</ele>
        <time>2011-07-03T08:08:12.000Z</time>
      </trkpt>
      <trkpt lat="46.50675" lon="0.35124">
        <ele>131.5</ele>
        <time>2011-07-03T08:08:15.000Z</time>
      </trkpt>
      <trkpt lat="46.50676" lon="0.35124">
        <ele>131.5</ele>
        <time>2011-07-03T08:08:17.000Z</time>
      </trkpt>
      <trkpt lat="46.50676" lon="0.35124">
        <ele>131.5</ele>
        <time>2011-07-03T08:08:19.000Z</time>
      </trkpt>
      <trkpt lat="46.50676" lon="0.35124">
        <ele>131.5</ele>
        <time>2011-07-03T08:08:26.000Z</time>
      </trkpt>
      <trkpt lat="46.50676" lon="0.35124">
        <ele>131.5</ele>
        <time>2011-07-03T08:08:32.000Z</time>
      </trkpt>
      <trkpt lat="46.50676" lon="0.35124">
        <ele>131.5</ele>
        <time>2011-07-03T08:08:33.000Z</time>
      </trkpt>
      <trkpt lat="46.50676" lon="0.35124">
        <ele>131.5</ele>
        <time>2011-07-03T08:08:35.000Z</time>
      </trkpt>
      <trkpt lat="46.50676" lon="0.35124">
        <ele>131.5</ele>
        <time>2011-07-03T08:08:39.000Z</time>
      </trkpt>
      <trkpt lat="46.50677" lon="0.35125">
        <ele>131.5</ele>
        <time>2011-07-03T08:08:42.000Z</time>
      </trkpt>
      <trkpt lat="46.50677" lon="0.35124">
        <ele>131.5</ele>
        <time>2011-07-03T08:08:47.000Z</time>
      </trkpt>
      <trkpt lat="46.50677" lon="0.35123">
        <ele>131.5</ele>
        <time>2011-07-03T08:08:48.000Z</time>
      </trkpt>
      <trkpt lat="46.50676" lon="0.3512">
        <ele>131.5</ele>
        <time>2011-07-03T08:08:50.000Z</time>
      </trkpt>
      <trkpt lat="46.50675" lon="0.3512">
        <ele>131.6</ele>
        <time>2011-07-03T08:08:52.000Z</time>
      </trkpt>
      <trkpt lat="46.50674" lon="0.35119">
        <ele>131.7</ele>
        <time>2011-07-03T08:08:55.000Z</time>
      </trkpt>
      <trkpt lat="46.50671" lon="0.35119">
        <ele>131.8</ele>
        <time>2011-07-03T08:08:58.000Z</time>
      </trkpt>
      <trkpt lat="46.5067" lon="0.35119">
        <ele>131.9</ele>
        <time>2011-07-03T08:09:02.000Z</time>
      </trkpt>
      <trkpt lat="46.5067" lon="0.35119">
        <ele>131.8</ele>
        <time>2011-07-03T08:09:07.000Z</time>
      </trkpt>
      <trkpt lat="46.5067" lon="0.35119">
        <ele>131.9</ele>
        <time>2011-07-03T08:09:09.000Z</time>
      </trkpt>
      <trkpt lat="46.5067" lon="0.35123">
        <ele>131.8</ele>
        <time>2011-07-03T08:09:14.000Z</time>
      </trkpt>
      <trkpt lat="46.5067" lon="0.35125">
        <ele>131.8</ele>
        <time>2011-07-03T08:09:15.000Z</time>
      </trkpt>
      <trkpt lat="46.50672" lon="0.35132">
        <ele>131.7</ele>
        <time>2011-07-03T08:09:19.000Z</time>
      </trkpt>
      <trkpt lat="46.50668" lon="0.35136">
        <ele>131.9</ele>
        <time>2011-07-03T08:09:23.000Z</time>
      </trkpt>
      <trkpt lat="46.50668" lon="0.35138">
        <ele>131.9</ele>
        <time>2011-07-03T08:09:24.000Z</time>
      </trkpt>
      <trkpt lat="46.50667" lon="0.35139">
        <ele>132</ele>
        <time>2011-07-03T08:09:29.000Z</time>
      </trkpt>
      <trkpt lat="46.50664" lon="0.35145">
        <ele>131.9</ele>
        <time>2011-07-03T08:09:36.000Z</time>
      </trkpt>
      <trkpt lat="46.5066" lon="0.35168">
        <ele>131.5</ele>
        <time>2011-07-03T08:09:42.000Z</time>
      </trkpt>
      <trkpt lat="46.50653" lon="0.35202">
        <ele>132</ele>
        <time>2011-07-03T08:09:50.000Z</time>
      </trkpt>
      <trkpt lat="46.50645" lon="0.35242">
        <ele>132</ele>
        <time>2011-07-03T08:09:58.000Z</time>
      </trkpt>
      <trkpt lat="46.50641" lon="0.35251">
        <ele>131.9</ele>
        <time>2011-07-03T08:10:00.000Z</time>
      </trkpt>
      <trkpt lat="46.50637" lon="0.35254">
        <ele>132.1</ele>
        <time>2011-07-03T08:10:01.000Z</time>
      </trkpt>
      <trkpt lat="46.5061" lon="0.35262">
        <ele>132.6</ele>
        <time>2011-07-03T08:10:08.000Z</time>
      </trkpt>
      <trkpt lat="46.50602" lon="0.35269">
        <ele>132.6</ele>
        <time>2011-07-03T08:10:11.000Z</time>
      </trkpt>
      <trkpt lat="46.506" lon="0.35272">
        <ele>132.5</ele>
        <time>2011-07-03T08:10:12.000Z</time>
      </trkpt>
      <trkpt lat="46.50599" lon="0.35276">
        <ele>132.5</ele>
        <time>2011-07-03T08:10:13.000Z</time>
      </trkpt>
      <trkpt lat="46.50604" lon="0.3528">
        <ele>132.3</ele>
        <time>2011-07-03T08:10:15.000Z</time>
      </trkpt>
      <trkpt lat="46.50619" lon="0.35277">
        <ele>132</ele>
        <time>2011-07-03T08:10:18.000Z</time>
      </trkpt>
      <trkpt lat="46.50656" lon="0.3526">
        <ele>131.6</ele>
        <time>2011-07-03T08:10:26.000Z</time>
      </trkpt>
      <trkpt lat="46.5067" lon="0.35253">
        <ele>131.1</ele>
        <time>2011-07-03T08:10:29.000Z</time>
      </trkpt>
      <trkpt lat="46.50679" lon="0.35246">
        <ele>130.9</ele>
        <time>2011-07-03T08:10:31.000Z</time>
      </trkpt>
      <trkpt lat="46.50684" lon="0.35243">
        <ele>130.8</ele>
        <time>2011-07-03T08:10:32.000Z</time>
      </trkpt>
      <trkpt lat="46.50689" lon="0.3524">
        <ele>130.7</ele>
        <time>2011-07-03T08:10:33.000Z</time>
      </trkpt>
      <trkpt lat="46.50694" lon="0.35237">
        <ele>130.5</ele>
        <time>2011-07-03T08:10:34.000Z</time>
      </trkpt>
      <trkpt lat="46.50726" lon="0.35224">
        <ele>129</ele>
        <time>2011-07-03T08:10:40.000Z</time>
      </trkpt>
      <trkpt lat="46.50743" lon="0.35219">
        <ele>128.5</ele>
        <time>2011-07-03T08:10:43.000Z</time>
      </trkpt>
      <trkpt lat="46.50752" lon="0.35215">
        <ele>128.5</ele>
        <time>2011-07-03T08:10:45.000Z</time>
      </trkpt>
      <trkpt lat="46.50756" lon="0.35217">
        <ele>128.4</ele>
        <time>2011-07-03T08:10:46.000Z</time>
      </trkpt>
      <trkpt lat="46.50758" lon="0.35225">
        <ele>128.4</ele>
        <time>2011-07-03T08:10:48.000Z</time>
      </trkpt>
      <trkpt lat="46.50756" lon="0.35239">
        <ele>128.8</ele>
        <time>2011-07-03T08:10:51.000Z</time>
      </trkpt>
      <trkpt lat="46.50756" lon="0.35242">
        <ele>128.9</ele>
        <time>2011-07-03T08:10:52.000Z</time>
      </trkpt>
      <trkpt lat="46.50755" lon="0.35254">
        <ele>129.5</ele>
        <time>2011-07-03T08:10:55.000Z</time>
      </trkpt>
      <trkpt lat="46.50755" lon="0.35262">
        <ele>130</ele>
        <time>2011-07-03T08:10:57.000Z</time>
      </trkpt>
      <trkpt lat="46.50755" lon="0.35266">
        <ele>130.3</ele>
        <time>2011-07-03T08:10:58.000Z</time>
      </trkpt>
      <trkpt lat="46.50755" lon="0.35273">
        <ele>130.9</ele>
        <time>2011-07-03T08:11:00.000Z</time>
      </trkpt>
      <trkpt lat="46.50755" lon="0.3528">
        <ele>131.4</ele>
        <time>2011-07-03T08:11:02.000Z</time>
      </trkpt>
      <trkpt lat="46.50755" lon="0.35284">
        <ele>131.6</ele>
        <time>2011-07-03T08:11:03.000Z</time>
      </trkpt>
      <trkpt lat="46.50755" lon="0.35297">
        <ele>132.4</ele>
        <time>2011-07-03T08:11:06.000Z</time>
      </trkpt>
      <trkpt lat="46.50753" lon="0.35306">
        <ele>133</ele>
        <time>2011-07-03T08:11:08.000Z</time>
      </trkpt>
      <trkpt lat="46.50752" lon="0.35311">
        <ele>133.2</ele>
        <time>2011-07-03T08:11:09.000Z</time>
      </trkpt>
      <trkpt lat="46.50752" lon="0.35316">
        <ele>133.4</ele>
        <time>2011-07-03T08:11:10.000Z</time>
      </trkpt>
      <trkpt lat="46.50751" lon="0.35321">
        <ele>133.5</ele>
        <time>2011-07-03T08:11:11.000Z</time>
      </trkpt>
      <trkpt lat="46.50751" lon="0.35325">
        <ele>133.7</ele>
        <time>2011-07-03T08:11:12.000Z</time>
      </trkpt>
      <trkpt lat="46.50748" lon="0.3534">
        <ele>134.3</ele>
        <time>2011-07-03T08:11:15.000Z</time>
      </trkpt>
      <trkpt lat="46.50746" lon="0.35351">
        <ele>134.7</ele>
        <time>2011-07-03T08:11:17.000Z</time>
      </trkpt>
      <trkpt lat="46.50745" lon="0.35357">
        <ele>135</ele>
        <time>2011-07-03T08:11:18.000Z</time>
      </trkpt>
      <trkpt lat="46.50744" lon="0.35362">
        <ele>135.2</ele>
        <time>2011-07-03T08:11:19.000Z</time>
      </trkpt>
      <trkpt lat="46.50743" lon="0.35368">
        <ele>135.4</ele>
        <time>2011-07-03T08:11:20.000Z</time>
      </trkpt>
      <trkpt lat="46.50742" lon="0.35373">
        <ele>135.6</ele>
        <time>2011-07-03T08:11:21.000Z</time>
      </trkpt>
      <trkpt lat="46.50741" lon="0.35384">
        <ele>135.9</ele>
        <time>2011-07-03T08:11:23.000Z</time>
      </trkpt>
      <trkpt lat="46.50733" lon="0.35415">
        <ele>136.9</ele>
        <time>2011-07-03T08:11:29.000Z</time>
      </trkpt>
      <trkpt lat="46.50731" lon="0.3542">
        <ele>137</ele>
        <time>2011-07-03T08:11:30.000Z</time>
      </trkpt>
      <trkpt lat="46.50729" lon="0.35424">
        <ele>137</ele>
        <time>2011-07-03T08:11:31.000Z</time>
      </trkpt>
      <trkpt lat="46.50728" lon="0.35429">
        <ele>137</ele>
        <time>2011-07-03T08:11:32.000Z</time>
      </trkpt>
      <trkpt lat="46.50726" lon="0.35434">
        <ele>137</ele>
        <time>2011-07-03T08:11:33.000Z</time>
      </trkpt>
      <trkpt lat="46.50719" lon="0.35448">
        <ele>137.1</ele>
        <time>2011-07-03T08:11:36.000Z</time>
      </trkpt>
      <trkpt lat="46.50701" lon="0.35478">
        <ele>138</ele>
        <time>2011-07-03T08:11:43.000Z</time>
      </trkpt>
      <trkpt lat="46.50682" lon="0.35509">
        <ele>138</ele>
        <time>2011-07-03T08:11:50.000Z</time>
      </trkpt>
      <trkpt lat="46.50679" lon="0.35513">
        <ele>138</ele>
        <time>2011-07-03T08:11:51.000Z</time>
      </trkpt>
      <trkpt lat="46.50668" lon="0.35535">
        <ele>138</ele>
        <time>2011-07-03T08:11:55.000Z</time>
      </trkpt>
      <trkpt lat="46.50661" lon="0.35553">
        <ele>138.2</ele>
        <time>2011-07-03T08:11:58.000Z</time>
      </trkpt>
      <trkpt lat="46.50658" lon="0.35559">
        <ele>138.4</ele>
        <time>2011-07-03T08:11:59.000Z</time>
      </trkpt>
      <trkpt lat="46.50656" lon="0.35566">
        <ele>138.6</ele>
        <time>2011-07-03T08:12:00.000Z</time>
      </trkpt>
      <trkpt lat="46.50655" lon="0.35572">
        <ele>138.8</ele>
        <time>2011-07-03T08:12:01.000Z</time>
      </trkpt>
      <trkpt lat="46.50654" lon="0.35578">
        <ele>138.9</ele>
        <time>2011-07-03T08:12:02.000Z</time>
      </trkpt>
      <trkpt lat="46.50652" lon="0.35608">
        <ele>139</ele>
        <time>2011-07-03T08:12:06.000Z</time>
      </trkpt>
      <trkpt lat="46.50648" lon="0.35653">
        <ele>139</ele>
        <time>2011-07-03T08:12:11.000Z</time>
      </trkpt>
      <trkpt lat="46.50646" lon="0.35686">
        <ele>139.7</ele>
        <time>2011-07-03T08:12:15.000Z</time>
      </trkpt>
      <trkpt lat="46.50648" lon="0.35701">
        <ele>139.9</ele>
        <time>2011-07-03T08:12:17.000Z</time>
      </trkpt>
      <trkpt lat="46.50661" lon="0.35712">
        <ele>139.5</ele>
        <time>2011-07-03T08:12:20.000Z</time>
      </trkpt>
      <trkpt lat="46.50666" lon="0.35714">
        <ele>139.3</ele>
        <time>2011-07-03T08:12:21.000Z</time>
      </trkpt>
      <trkpt lat="46.5069" lon="0.35719">
        <ele>139</ele>
        <time>2011-07-03T08:12:25.000Z</time>
      </trkpt>
      <trkpt lat="46.50726" lon="0.35723">
        <ele>138.9</ele>
        <time>2011-07-03T08:12:31.000Z</time>
      </trkpt>
      <trkpt lat="46.50774" lon="0.35727">
        <ele>138</ele>
        <time>2011-07-03T08:12:39.000Z</time>
      </trkpt>
      <trkpt lat="46.50794" lon="0.35731">
        <ele>137.6</ele>
        <time>2011-07-03T08:12:43.000Z</time>
      </trkpt>
      <trkpt lat="46.50797" lon="0.35733">
        <ele>137.6</ele>
        <time>2011-07-03T08:12:44.000Z</time>
      </trkpt>
      <trkpt lat="46.50803" lon="0.35742">
        <ele>137.7</ele>
        <time>2011-07-03T08:12:47.000Z</time>
      </trkpt>
      <trkpt lat="46.50805" lon="0.35746">
        <ele>137.9</ele>
        <time>2011-07-03T08:12:48.000Z</time>
      </trkpt>
      <trkpt lat="46.50804" lon="0.35751">
        <ele>138</ele>
        <time>2011-07-03T08:12:49.000Z</time>
      </trkpt>
      <trkpt lat="46.50802" lon="0.35755">
        <ele>138</ele>
        <time>2011-07-03T08:12:50.000Z</time>
      </trkpt>
      <trkpt lat="46.50787" lon="0.35773">
        <ele>138</ele>
        <time>2011-07-03T08:12:54.000Z</time>
      </trkpt>
      <trkpt lat="46.50768" lon="0.35804">
        <ele>138.4</ele>
        <time>2011-07-03T08:13:00.000Z</time>
      </trkpt>
      <trkpt lat="46.50758" lon="0.35837">
        <ele>138.2</ele>
        <time>2011-07-03T08:13:05.000Z</time>
      </trkpt>
      <trkpt lat="46.50752" lon="0.35859">
        <ele>138</ele>
        <time>2011-07-03T08:13:08.000Z</time>
      </trkpt>
      <trkpt lat="46.50754" lon="0.35874">
        <ele>137.5</ele>
        <time>2011-07-03T08:13:10.000Z</time>
      </trkpt>
      <trkpt lat="46.50765" lon="0.3592">
        <ele>136.9</ele>
        <time>2011-07-03T08:13:15.000Z</time>
      </trkpt>
      <trkpt lat="46.5077" lon="0.3595">
        <ele>135.9</ele>
        <time>2011-07-03T08:13:18.000Z</time>
      </trkpt>
      <trkpt lat="46.50772" lon="0.3597">
        <ele>135.3</ele>
        <time>2011-07-03T08:13:20.000Z</time>
      </trkpt>
      <trkpt lat="46.50773" lon="0.3598">
        <ele>135.1</ele>
        <time>2011-07-03T08:13:21.000Z</time>
      </trkpt>
      <trkpt lat="46.50773" lon="0.35991">
        <ele>135.1</ele>
        <time>2011-07-03T08:13:22.000Z</time>
      </trkpt>
      <trkpt lat="46.50773" lon="0.36002">
        <ele>134.9</ele>
        <time>2011-07-03T08:13:23.000Z</time>
      </trkpt>
      <trkpt lat="46.50773" lon="0.36013">
        <ele>134.6</ele>
        <time>2011-07-03T08:13:24.000Z</time>
      </trkpt>
      <trkpt lat="46.50773" lon="0.36025">
        <ele>134.3</ele>
        <time>2011-07-03T08:13:25.000Z</time>
      </trkpt>
      <trkpt lat="46.50774" lon="0.36049">
        <ele>133.5</ele>
        <time>2011-07-03T08:13:27.000Z</time>
      </trkpt>
      <trkpt lat="46.50775" lon="0.36062">
        <ele>133.2</ele>
        <time>2011-07-03T08:13:28.000Z</time>
      </trkpt>
      <trkpt lat="46.50776" lon="0.36074">
        <ele>133.1</ele>
        <time>2011-07-03T08:13:29.000Z</time>
      </trkpt>
      <trkpt lat="46.50777" lon="0.36087">
        <ele>132.9</ele>
        <time>2011-07-03T08:13:30.000Z</time>
      </trkpt>
      <trkpt lat="46.50777" lon="0.36098">
        <ele>132.5</ele>
        <time>2011-07-03T08:13:31.000Z</time>
      </trkpt>
      <trkpt lat="46.50775" lon="0.36107">
        <ele>132.2</ele>
        <time>2011-07-03T08:13:32.000Z</time>
      </trkpt>
      <trkpt lat="46.50772" lon="0.36115">
        <ele>132.2</ele>
        <time>2011-07-03T08:13:33.000Z</time>
      </trkpt>
      <trkpt lat="46.50768" lon="0.36122">
        <ele>132.3</ele>
        <time>2011-07-03T08:13:34.000Z</time>
      </trkpt>
      <trkpt lat="46.50764" lon="0.36127">
        <ele>132.5</ele>
        <time>2011-07-03T08:13:35.000Z</time>
      </trkpt>
      <trkpt lat="46.5076" lon="0.36133">
        <ele>132.6</ele>
        <time>2011-07-03T08:13:36.000Z</time>
      </trkpt>
      <trkpt lat="46.50757" lon="0.36139">
        <ele>132.8</ele>
        <time>2011-07-03T08:13:37.000Z</time>
      </trkpt>
      <trkpt lat="46.50749" lon="0.36169">
        <ele>132</ele>
        <time>2011-07-03T08:13:41.000Z</time>
      </trkpt>
      <trkpt lat="46.5074" lon="0.36218">
        <ele>131.2</ele>
        <time>2011-07-03T08:13:47.000Z</time>
      </trkpt>
      <trkpt lat="46.50738" lon="0.36235">
        <ele>131</ele>
        <time>2011-07-03T08:13:49.000Z</time>
      </trkpt>
      <trkpt lat="46.50737" lon="0.36244">
        <ele>131</ele>
        <time>2011-07-03T08:13:50.000Z</time>
      </trkpt>
      <trkpt lat="46.5073" lon="0.36289">
        <ele>129.7</ele>
        <time>2011-07-03T08:13:55.000Z</time>
      </trkpt>
      <trkpt lat="46.5072" lon="0.36367">
        <ele>127.9</ele>
        <time>2011-07-03T08:14:03.000Z</time>
      </trkpt>
      <trkpt lat="46.50713" lon="0.3641">
        <ele>126.9</ele>
        <time>2011-07-03T08:14:07.000Z</time>
      </trkpt>
      <trkpt lat="46.50712" lon="0.3642">
        <ele>126.5</ele>
        <time>2011-07-03T08:14:08.000Z</time>
      </trkpt>
      <trkpt lat="46.5071" lon="0.36431">
        <ele>126</ele>
        <time>2011-07-03T08:14:09.000Z</time>
      </trkpt>
      <trkpt lat="46.50709" lon="0.36442">
        <ele>125.6</ele>
        <time>2011-07-03T08:14:10.000Z</time>
      </trkpt>
      <trkpt lat="46.50707" lon="0.36454">
        <ele>125.1</ele>
        <time>2011-07-03T08:14:11.000Z</time>
      </trkpt>
      <trkpt lat="46.50705" lon="0.36465">
        <ele>124.7</ele>
        <time>2011-07-03T08:14:12.000Z</time>
      </trkpt>
      <trkpt lat="46.50704" lon="0.36476">
        <ele>124.2</ele>
        <time>2011-07-03T08:14:13.000Z</time>
      </trkpt>
      <trkpt lat="46.50702" lon="0.36487">
        <ele>123.9</ele>
        <time>2011-07-03T08:14:14.000Z</time>
      </trkpt>
      <trkpt lat="46.507" lon="0.36498">
        <ele>123.5</ele>
        <time>2011-07-03T08:14:15.000Z</time>
      </trkpt>
      <trkpt lat="46.50696" lon="0.3653">
        <ele>123</ele>
        <time>2011-07-03T08:14:18.000Z</time>
      </trkpt>
      <trkpt lat="46.50694" lon="0.3654">
        <ele>123</ele>
        <time>2011-07-03T08:14:19.000Z</time>
      </trkpt>
      <trkpt lat="46.50692" lon="0.3655">
        <ele>122.9</ele>
        <time>2011-07-03T08:14:20.000Z</time>
      </trkpt>
      <trkpt lat="46.50691" lon="0.3656">
        <ele>123.1</ele>
        <time>2011-07-03T08:14:21.000Z</time>
      </trkpt>
      <trkpt lat="46.50689" lon="0.3657">
        <ele>123.4</ele>
        <time>2011-07-03T08:14:22.000Z</time>
      </trkpt>
      <trkpt lat="46.50687" lon="0.3658">
        <ele>123.8</ele>
        <time>2011-07-03T08:14:23.000Z</time>
      </trkpt>
      <trkpt lat="46.5068" lon="0.36596">
        <ele>124.4</ele>
        <time>2011-07-03T08:14:25.000Z</time>
      </trkpt>
      <trkpt lat="46.50664" lon="0.36611">
        <ele>125</ele>
        <time>2011-07-03T08:14:28.000Z</time>
      </trkpt>
      <trkpt lat="46.5066" lon="0.36614">
        <ele>125.2</ele>
        <time>2011-07-03T08:14:29.000Z</time>
      </trkpt>
      <trkpt lat="46.50656" lon="0.36619">
        <ele>125.6</ele>
        <time>2011-07-03T08:14:30.000Z</time>
      </trkpt>
      <trkpt lat="46.50653" lon="0.36624">
        <ele>125.9</ele>
        <time>2011-07-03T08:14:31.000Z</time>
      </trkpt>
      <trkpt lat="46.50646" lon="0.3665">
        <ele>127.8</ele>
        <time>2011-07-03T08:14:35.000Z</time>
      </trkpt>
      <trkpt lat="46.50645" lon="0.36663">
        <ele>128.8</ele>
        <time>2011-07-03T08:14:37.000Z</time>
      </trkpt>
      <trkpt lat="46.50644" lon="0.3667">
        <ele>129.1</ele>
        <time>2011-07-03T08:14:38.000Z</time>
      </trkpt>
      <trkpt lat="46.50643" lon="0.36676">
        <ele>129.4</ele>
        <time>2011-07-03T08:14:39.000Z</time>
      </trkpt>
      <trkpt lat="46.50643" lon="0.36682">
        <ele>129.6</ele>
        <time>2011-07-03T08:14:40.000Z</time>
      </trkpt>
      <trkpt lat="46.50642" lon="0.36688">
        <ele>129.9</ele>
        <time>2011-07-03T08:14:41.000Z</time>
      </trkpt>
      <trkpt lat="46.50642" lon="0.36694">
        <ele>130.1</ele>
        <time>2011-07-03T08:14:42.000Z</time>
      </trkpt>
      <trkpt lat="46.50641" lon="0.36701">
        <ele>130.5</ele>
        <time>2011-07-03T08:14:43.000Z</time>
      </trkpt>
      <trkpt lat="46.50641" lon="0.36707">
        <ele>131</ele>
        <time>2011-07-03T08:14:44.000Z</time>
      </trkpt>
      <trkpt lat="46.5064" lon="0.36724">
        <ele>132.1</ele>
        <time>2011-07-03T08:14:47.000Z</time>
      </trkpt>
      <trkpt lat="46.50639" lon="0.36729">
        <ele>132.5</ele>
        <time>2011-07-03T08:14:48.000Z</time>
      </trkpt>
      <trkpt lat="46.50638" lon="0.36734">
        <ele>132.8</ele>
        <time>2011-07-03T08:14:49.000Z</time>
      </trkpt>
      <trkpt lat="46.50637" lon="0.36739">
        <ele>133.2</ele>
        <time>2011-07-03T08:14:50.000Z</time>
      </trkpt>
      <trkpt lat="46.50636" lon="0.36744">
        <ele>133.5</ele>
        <time>2011-07-03T08:14:51.000Z</time>
      </trkpt>
      <trkpt lat="46.50632" lon="0.36754">
        <ele>134</ele>
        <time>2011-07-03T08:14:53.000Z</time>
      </trkpt>
      <trkpt lat="46.50622" lon="0.36774">
        <ele>134.6</ele>
        <time>2011-07-03T08:14:59.000Z</time>
      </trkpt>
      <trkpt lat="46.50606" lon="0.36783">
        <ele>134.2</ele>
        <time>2011-07-03T08:15:04.000Z</time>
      </trkpt>
      <trkpt lat="46.50601" lon="0.3679">
        <ele>134.4</ele>
        <time>2011-07-03T08:15:06.000Z</time>
      </trkpt>
      <trkpt lat="46.50593" lon="0.368">
        <ele>134.8</ele>
        <time>2011-07-03T08:15:09.000Z</time>
      </trkpt>
      <trkpt lat="46.50579" lon="0.36817">
        <ele>134.9</ele>
        <time>2011-07-03T08:15:14.000Z</time>
      </trkpt>
      <trkpt lat="46.50575" lon="0.36821">
        <ele>134.7</ele>
        <time>2011-07-03T08:15:15.000Z</time>
      </trkpt>
      <trkpt lat="46.5057" lon="0.36822">
        <ele>134.5</ele>
        <time>2011-07-03T08:15:16.000Z</time>
      </trkpt>
      <trkpt lat="46.50565" lon="0.36821">
        <ele>134.4</ele>
        <time>2011-07-03T08:15:17.000Z</time>
      </trkpt>
      <trkpt lat="46.5056" lon="0.3682">
        <ele>134.2</ele>
        <time>2011-07-03T08:15:18.000Z</time>
      </trkpt>
      <trkpt lat="46.50556" lon="0.36818">
        <ele>134</ele>
        <time>2011-07-03T08:15:19.000Z</time>
      </trkpt>
      <trkpt lat="46.50551" lon="0.36809">
        <ele>133.9</ele>
        <time>2011-07-03T08:15:21.000Z</time>
      </trkpt>
      <trkpt lat="46.50546" lon="0.36796">
        <ele>133.3</ele>
        <time>2011-07-03T08:15:25.000Z</time>
      </trkpt>
      <trkpt lat="46.50543" lon="0.36785">
        <ele>132.8</ele>
        <time>2011-07-03T08:15:29.000Z</time>
      </trkpt>
      <trkpt lat="46.50538" lon="0.36779">
        <ele>132.4</ele>
        <time>2011-07-03T08:15:30.000Z</time>
      </trkpt>
      <trkpt lat="46.5053" lon="0.36762">
        <ele>132</ele>
        <time>2011-07-03T08:15:34.000Z</time>
      </trkpt>
      <trkpt lat="46.50515" lon="0.36751">
        <ele>131.5</ele>
        <time>2011-07-03T08:15:38.000Z</time>
      </trkpt>
      <trkpt lat="46.50507" lon="0.36749">
        <ele>131.2</ele>
        <time>2011-07-03T08:15:40.000Z</time>
      </trkpt>
      <trkpt lat="46.50504" lon="0.36747">
        <ele>131</ele>
        <time>2011-07-03T08:15:41.000Z</time>
      </trkpt>
      <trkpt lat="46.50502" lon="0.36745">
        <ele>130.9</ele>
        <time>2011-07-03T08:15:42.000Z</time>
      </trkpt>
      <trkpt lat="46.505" lon="0.36743">
        <ele>130.7</ele>
        <time>2011-07-03T08:15:43.000Z</time>
      </trkpt>
      <trkpt lat="46.50498" lon="0.3674">
        <ele>130.6</ele>
        <time>2011-07-03T08:15:44.000Z</time>
      </trkpt>
      <trkpt lat="46.50497" lon="0.36736">
        <ele>130.5</ele>
        <time>2011-07-03T08:15:45.000Z</time>
      </trkpt>
      <trkpt lat="46.50495" lon="0.36729">
        <ele>130.2</ele>
        <time>2011-07-03T08:15:47.000Z</time>
      </trkpt>
      <trkpt lat="46.50485" lon="0.36725">
        <ele>130.1</ele>
        <time>2011-07-03T08:15:50.000Z</time>
      </trkpt>
      <trkpt lat="46.50467" lon="0.3672">
        <ele>129.9</ele>
        <time>2011-07-03T08:15:55.000Z</time>
      </trkpt>
      <trkpt lat="46.5046" lon="0.36718">
        <ele>129.9</ele>
        <time>2011-07-03T08:15:57.000Z</time>
      </trkpt>
      <trkpt lat="46.5045" lon="0.36719">
        <ele>129.9</ele>
        <time>2011-07-03T08:15:59.000Z</time>
      </trkpt>
      <trkpt lat="46.50434" lon="0.36718">
        <ele>130.3</ele>
        <time>2011-07-03T08:16:03.000Z</time>
      </trkpt>
      <trkpt lat="46.50424" lon="0.36712">
        <ele>130.4</ele>
        <time>2011-07-03T08:16:07.000Z</time>
      </trkpt>
      <trkpt lat="46.50415" lon="0.36711">
        <ele>130.6</ele>
        <time>2011-07-03T08:16:11.000Z</time>
      </trkpt>
      <trkpt lat="46.504" lon="0.3671">
        <ele>130.8</ele>
        <time>2011-07-03T08:16:15.000Z</time>
      </trkpt>
      <trkpt lat="46.50397" lon="0.36707">
        <ele>130.9</ele>
        <time>2011-07-03T08:16:16.000Z</time>
      </trkpt>
      <trkpt lat="46.50385" lon="0.36704">
        <ele>131</ele>
        <time>2011-07-03T08:16:19.000Z</time>
      </trkpt>
      <trkpt lat="46.5037" lon="0.36692">
        <ele>131</ele>
        <time>2011-07-03T08:16:23.000Z</time>
      </trkpt>
      <trkpt lat="46.50359" lon="0.3669">
        <ele>131</ele>
        <time>2011-07-03T08:16:26.000Z</time>
      </trkpt>
      <trkpt lat="46.50338" lon="0.36699">
        <ele>131.1</ele>
        <time>2011-07-03T08:16:31.000Z</time>
      </trkpt>
      <trkpt lat="46.50331" lon="0.36706">
        <ele>131.5</ele>
        <time>2011-07-03T08:16:33.000Z</time>
      </trkpt>
      <trkpt lat="46.50324" lon="0.36712">
        <ele>131.8</ele>
        <time>2011-07-03T08:16:35.000Z</time>
      </trkpt>
      <trkpt lat="46.50321" lon="0.36715">
        <ele>131.9</ele>
        <time>2011-07-03T08:16:36.000Z</time>
      </trkpt>
      <trkpt lat="46.50317" lon="0.36721">
        <ele>132</ele>
        <time>2011-07-03T08:16:37.000Z</time>
      </trkpt>
      <trkpt lat="46.50313" lon="0.36726">
        <ele>132.1</ele>
        <time>2011-07-03T08:16:38.000Z</time>
      </trkpt>
      <trkpt lat="46.50309" lon="0.36733">
        <ele>132.3</ele>
        <time>2011-07-03T08:16:39.000Z</time>
      </trkpt>
      <trkpt lat="46.50306" lon="0.3674">
        <ele>132.6</ele>
        <time>2011-07-03T08:16:40.000Z</time>
      </trkpt>
      <trkpt lat="46.503" lon="0.36752">
        <ele>133</ele>
        <time>2011-07-03T08:16:42.000Z</time>
      </trkpt>
      <trkpt lat="46.50296" lon="0.36765">
        <ele>133</ele>
        <time>2011-07-03T08:16:44.000Z</time>
      </trkpt>
      <trkpt lat="46.50292" lon="0.36783">
        <ele>133.2</ele>
        <time>2011-07-03T08:16:48.000Z</time>
      </trkpt>
      <trkpt lat="46.50295" lon="0.36785">
        <ele>133.3</ele>
        <time>2011-07-03T08:16:51.000Z</time>
      </trkpt>
      <trkpt lat="46.50307" lon="0.36784">
        <ele>133.2</ele>
        <time>2011-07-03T08:16:54.000Z</time>
      </trkpt>
      <trkpt lat="46.50318" lon="0.36786">
        <ele>133.3</ele>
        <time>2011-07-03T08:16:56.000Z</time>
      </trkpt>
      <trkpt lat="46.50328" lon="0.3679">
        <ele>133.4</ele>
        <time>2011-07-03T08:16:58.000Z</time>
      </trkpt>
      <trkpt lat="46.50333" lon="0.36792">
        <ele>133.5</ele>
        <time>2011-07-03T08:16:59.000Z</time>
      </trkpt>
      <trkpt lat="46.50348" lon="0.36793">
        <ele>133.3</ele>
        <time>2011-07-03T08:17:02.000Z</time>
      </trkpt>
      <trkpt lat="46.50357" lon="0.36796">
        <ele>133.1</ele>
        <time>2011-07-03T08:17:04.000Z</time>
      </trkpt>
      <trkpt lat="46.50367" lon="0.36802">
        <ele>133</ele>
        <time>2011-07-03T08:17:06.000Z</time>
      </trkpt>
      <trkpt lat="46.50378" lon="0.36809">
        <ele>133</ele>
        <time>2011-07-03T08:17:08.000Z</time>
      </trkpt>
      <trkpt lat="46.50391" lon="0.36818">
        <ele>133</ele>
        <time>2011-07-03T08:17:11.000Z</time>
      </trkpt>
      <trkpt lat="46.50399" lon="0.36821">
        <ele>133</ele>
        <time>2011-07-03T08:17:13.000Z</time>
      </trkpt>
      <trkpt lat="46.50407" lon="0.36824">
        <ele>133</ele>
        <time>2011-07-03T08:17:15.000Z</time>
      </trkpt>
      <trkpt lat="46.50416" lon="0.36825">
        <ele>133</ele>
        <time>2011-07-03T08:17:17.000Z</time>
      </trkpt>
      <trkpt lat="46.50422" lon="0.36832">
        <ele>133</ele>
        <time>2011-07-03T08:17:21.000Z</time>
      </trkpt>
      <trkpt lat="46.50421" lon="0.36839">
        <ele>133.2</ele>
        <time>2011-07-03T08:17:25.000Z</time>
      </trkpt>
      <trkpt lat="46.50413" lon="0.36855">
        <ele>133.8</ele>
        <time>2011-07-03T08:17:30.000Z</time>
      </trkpt>
      <trkpt lat="46.50412" lon="0.36871">
        <ele>134</ele>
        <time>2011-07-03T08:17:34.000Z</time>
      </trkpt>
      <trkpt lat="46.50412" lon="0.36875">
        <ele>134</ele>
        <time>2011-07-03T08:17:35.000Z</time>
      </trkpt>
      <trkpt lat="46.50412" lon="0.36882">
        <ele>134</ele>
        <time>2011-07-03T08:17:37.000Z</time>
      </trkpt>
      <trkpt lat="46.50414" lon="0.36888">
        <ele>134</ele>
        <time>2011-07-03T08:17:39.000Z</time>
      </trkpt>
      <trkpt lat="46.50415" lon="0.36901">
        <ele>134</ele>
        <time>2011-07-03T08:17:42.000Z</time>
      </trkpt>
      <trkpt lat="46.50417" lon="0.36909">
        <ele>134</ele>
        <time>2011-07-03T08:17:44.000Z</time>
      </trkpt>
      <trkpt lat="46.5042" lon="0.36912">
        <ele>134</ele>
        <time>2011-07-03T08:17:45.000Z</time>
      </trkpt>
      <trkpt lat="46.50436" lon="0.36924">
        <ele>133.7</ele>
        <time>2011-07-03T08:17:49.000Z</time>
      </trkpt>
      <trkpt lat="46.50449" lon="0.3693">
        <ele>133.5</ele>
        <time>2011-07-03T08:17:53.000Z</time>
      </trkpt>
      <trkpt lat="46.50452" lon="0.36931">
        <ele>133.5</ele>
        <time>2011-07-03T08:17:54.000Z</time>
      </trkpt>
      <trkpt lat="46.50461" lon="0.36935">
        <ele>133.3</ele>
        <time>2011-07-03T08:17:57.000Z</time>
      </trkpt>
      <trkpt lat="46.50475" lon="0.3694">
        <ele>133.2</ele>
        <time>2011-07-03T08:18:01.000Z</time>
      </trkpt>
      <trkpt lat="46.5048" lon="0.36945">
        <ele>133</ele>
        <time>2011-07-03T08:18:03.000Z</time>
      </trkpt>
      <trkpt lat="46.50481" lon="0.36949">
        <ele>132.8</ele>
        <time>2011-07-03T08:18:04.000Z</time>
      </trkpt>
      <trkpt lat="46.50478" lon="0.36954">
        <ele>132.7</ele>
        <time>2011-07-03T08:18:06.000Z</time>
      </trkpt>
      <trkpt lat="46.50474" lon="0.36967">
        <ele>132.2</ele>
        <time>2011-07-03T08:18:10.000Z</time>
      </trkpt>
      <trkpt lat="46.50469" lon="0.36975">
        <ele>131.9</ele>
        <time>2011-07-03T08:18:12.000Z</time>
      </trkpt>
      <trkpt lat="46.50464" lon="0.36985">
        <ele>131.6</ele>
        <time>2011-07-03T08:18:14.000Z</time>
      </trkpt>
      <trkpt lat="46.50461" lon="0.36998">
        <ele>131.1</ele>
        <time>2011-07-03T08:18:17.000Z</time>
      </trkpt>
      <trkpt lat="46.50462" lon="0.37003">
        <ele>131</ele>
        <time>2011-07-03T08:18:18.000Z</time>
      </trkpt>
      <trkpt lat="46.50464" lon="0.3701">
        <ele>131</ele>
        <time>2011-07-03T08:18:19.000Z</time>
      </trkpt>
      <trkpt lat="46.50466" lon="0.37015">
        <ele>131</ele>
        <time>2011-07-03T08:18:20.000Z</time>
      </trkpt>
      <trkpt lat="46.50468" lon="0.37021">
        <ele>131</ele>
        <time>2011-07-03T08:18:21.000Z</time>
      </trkpt>
      <trkpt lat="46.5047" lon="0.37031">
        <ele>130.9</ele>
        <time>2011-07-03T08:18:23.000Z</time>
      </trkpt>
      <trkpt lat="46.5047" lon="0.37036">
        <ele>130.7</ele>
        <time>2011-07-03T08:18:25.000Z</time>
      </trkpt>
      <trkpt lat="46.50469" lon="0.37036">
        <ele>130.8</ele>
        <time>2011-07-03T08:18:26.000Z</time>
      </trkpt>
      <trkpt lat="46.50467" lon="0.37037">
        <ele>130.7</ele>
        <time>2011-07-03T08:18:27.000Z</time>
      </trkpt>
      <trkpt lat="46.50464" lon="0.37039">
        <ele>130.7</ele>
        <time>2011-07-03T08:18:28.000Z</time>
      </trkpt>
      <trkpt lat="46.50461" lon="0.37041">
        <ele>130.7</ele>
        <time>2011-07-03T08:18:29.000Z</time>
      </trkpt>
      <trkpt lat="46.50456" lon="0.37044">
        <ele>130.8</ele>
        <time>2011-07-03T08:18:30.000Z</time>
      </trkpt>
      <trkpt lat="46.5044" lon="0.37051">
        <ele>131</ele>
        <time>2011-07-03T08:18:34.000Z</time>
      </trkpt>
      <trkpt lat="46.50432" lon="0.37054">
        <ele>131</ele>
        <time>2011-07-03T08:18:36.000Z</time>
      </trkpt>
      <trkpt lat="46.50428" lon="0.37054">
        <ele>131</ele>
        <time>2011-07-03T08:18:37.000Z</time>
      </trkpt>
      <trkpt lat="46.50424" lon="0.37054">
        <ele>131</ele>
        <time>2011-07-03T08:18:38.000Z</time>
      </trkpt>
      <trkpt lat="46.5042" lon="0.37053">
        <ele>131.1</ele>
        <time>2011-07-03T08:18:39.000Z</time>
      </trkpt>
      <trkpt lat="46.50416" lon="0.37054">
        <ele>131.1</ele>
        <time>2011-07-03T08:18:40.000Z</time>
      </trkpt>
      <trkpt lat="46.50406" lon="0.37055">
        <ele>131.4</ele>
        <time>2011-07-03T08:18:43.000Z</time>
      </trkpt>
      <trkpt lat="46.50385" lon="0.37054">
        <ele>132</ele>
        <time>2011-07-03T08:18:49.000Z</time>
      </trkpt>
      <trkpt lat="46.50377" lon="0.3705">
        <ele>132</ele>
        <time>2011-07-03T08:18:53.000Z</time>
      </trkpt>
      <trkpt lat="46.50374" lon="0.37048">
        <ele>132</ele>
        <time>2011-07-03T08:18:58.000Z</time>
      </trkpt>
      <trkpt lat="46.50373" lon="0.37049">
        <ele>132</ele>
        <time>2011-07-03T08:19:03.000Z</time>
      </trkpt>
      <trkpt lat="46.50373" lon="0.37049">
        <ele>132</ele>
        <time>2011-07-03T08:19:07.000Z</time>
      </trkpt>
      <trkpt lat="46.50373" lon="0.37049">
        <ele>132</ele>
        <time>2011-07-03T08:19:11.000Z</time>
      </trkpt>
      <trkpt lat="46.50373" lon="0.37049">
        <ele>132</ele>
        <time>2011-07-03T08:19:15.000Z</time>
      </trkpt>
      <trkpt lat="46.50371" lon="0.37049">
        <ele>132</ele>
        <time>2011-07-03T08:19:17.000Z</time>
      </trkpt>
      <trkpt lat="46.50368" lon="0.37049">
        <ele>132</ele>
        <time>2011-07-03T08:19:20.000Z</time>
      </trkpt>
      <trkpt lat="46.50365" lon="0.37047">
        <ele>132</ele>
        <time>2011-07-03T08:19:23.000Z</time>
      </trkpt>
      <trkpt lat="46.50363" lon="0.37048">
        <ele>132</ele>
        <time>2011-07-03T08:19:25.000Z</time>
      </trkpt>
      <trkpt lat="46.5036" lon="0.37049">
        <ele>132</ele>
        <time>2011-07-03T08:19:27.000Z</time>
      </trkpt>
      <trkpt lat="46.50358" lon="0.3705">
        <ele>132</ele>
        <time>2011-07-03T08:19:29.000Z</time>
      </trkpt>
      <trkpt lat="46.50355" lon="0.37049">
        <ele>132</ele>
        <time>2011-07-03T08:19:31.000Z</time>
      </trkpt>
      <trkpt lat="46.50352" lon="0.3705">
        <ele>132</ele>
        <time>2011-07-03T08:19:33.000Z</time>
      </trkpt>
      <trkpt lat="46.50352" lon="0.3705">
        <ele>132</ele>
        <time>2011-07-03T08:19:39.000Z</time>
      </trkpt>
      <trkpt lat="46.50352" lon="0.3705">
        <ele>132</ele>
        <time>2011-07-03T08:19:53.000Z</time>
      </trkpt>
      <trkpt lat="46.50352" lon="0.3705">
        <ele>132</ele>
        <time>2011-07-03T08:20:05.000Z</time>
      </trkpt>
      <trkpt lat="46.50352" lon="0.3705">
        <ele>132</ele>
        <time>2011-07-03T08:20:14.000Z</time>
      </trkpt>
      <trkpt lat="46.50352" lon="0.3705">
        <ele>132</ele>
        <time>2011-07-03T08:20:15.000Z</time>
      </trkpt>
      <trkpt lat="46.50352" lon="0.3705">
        <ele>132</ele>
        <time>2011-07-03T08:20:23.000Z</time>
      </trkpt>
      <trkpt lat="46.50352" lon="0.3705">
        <ele>132</ele>
        <time>2011-07-03T08:20:25.000Z</time>
      </trkpt>
      <trkpt lat="46.50352" lon="0.3705">
        <ele>132</ele>
        <time>2011-07-03T08:20:29.000Z</time>
      </trkpt>
      <trkpt lat="46.50352" lon="0.3705">
        <ele>132</ele>
        <time>2011-07-03T08:20:34.000Z</time>
      </trkpt>
      <trkpt lat="46.50352" lon="0.3705">
        <ele>132</ele>
        <time>2011-07-03T08:20:35.000Z</time>
      </trkpt>
      <trkpt lat="46.50352" lon="0.3705">
        <ele>132</ele>
        <time>2011-07-03T08:20:36.000Z</time>
      </trkpt>
      <trkpt lat="46.50352" lon="0.3705">
        <ele>132</ele>
        <time>2011-07-03T08:20:37.000Z</time>
      </trkpt>
      <trkpt lat="46.50352" lon="0.37051">
        <ele>132</ele>
        <time>2011-07-03T08:20:38.000Z</time>
      </trkpt>
      <trkpt lat="46.50352" lon="0.37051">
        <ele>132</ele>
        <time>2011-07-03T08:20:39.000Z</time>
      </trkpt>
      <trkpt lat="46.50352" lon="0.37051">
        <ele>132</ele>
        <time>2011-07-03T08:20:48.000Z</time>
      </trkpt>
      <trkpt lat="46.50352" lon="0.37051">
        <ele>132</ele>
        <time>2011-07-03T08:20:57.000Z</time>
      </trkpt>
      <trkpt lat="46.50352" lon="0.37051">
        <ele>132</ele>
        <time>2011-07-03T08:21:02.000Z</time>
      </trkpt>
      <trkpt lat="46.50352" lon="0.37051">
        <ele>132</ele>
        <time>2011-07-03T08:21:13.000Z</time>
      </trkpt>
      <trkpt lat="46.50352" lon="0.37051">
        <ele>132</ele>
        <time>2011-07-03T08:21:16.000Z</time>
      </trkpt>
      <trkpt lat="46.50351" lon="0.37051">
        <ele>132</ele>
        <time>2011-07-03T08:21:28.000Z</time>
      </trkpt>
      <trkpt lat="46.50351" lon="0.37051">
        <ele>132</ele>
        <time>2011-07-03T08:21:29.000Z</time>
      </trkpt>
      <trkpt lat="46.50346" lon="0.37049">
        <ele>132</ele>
        <time>2011-07-03T08:21:33.000Z</time>
      </trkpt>
      <trkpt lat="46.50339" lon="0.37047">
        <ele>132</ele>
        <time>2011-07-03T08:21:35.000Z</time>
      </trkpt>
      <trkpt lat="46.50327" lon="0.37041">
        <ele>132.1</ele>
        <time>2011-07-03T08:21:38.000Z</time>
      </trkpt>
      <trkpt lat="46.50324" lon="0.37037">
        <ele>132.2</ele>
        <time>2011-07-03T08:21:39.000Z</time>
      </trkpt>
      <trkpt lat="46.50316" lon="0.37031">
        <ele>132.6</ele>
        <time>2011-07-03T08:21:41.000Z</time>
      </trkpt>
      <trkpt lat="46.50312" lon="0.37029">
        <ele>132.8</ele>
        <time>2011-07-03T08:21:42.000Z</time>
      </trkpt>
      <trkpt lat="46.50307" lon="0.37025">
        <ele>132.9</ele>
        <time>2011-07-03T08:21:43.000Z</time>
      </trkpt>
      <trkpt lat="46.50303" lon="0.37014">
        <ele>133</ele>
        <time>2011-07-03T08:21:45.000Z</time>
      </trkpt>
      <trkpt lat="46.50301" lon="0.36999">
        <ele>133</ele>
        <time>2011-07-03T08:21:47.000Z</time>
      </trkpt>
      <trkpt lat="46.50301" lon="0.36984">
        <ele>133</ele>
        <time>2011-07-03T08:21:49.000Z</time>
      </trkpt>
      <trkpt lat="46.50301" lon="0.36977">
        <ele>133</ele>
        <time>2011-07-03T08:21:50.000Z</time>
      </trkpt>
      <trkpt lat="46.50299" lon="0.36964">
        <ele>133</ele>
        <time>2011-07-03T08:21:52.000Z</time>
      </trkpt>
      <trkpt lat="46.50297" lon="0.36957">
        <ele>133</ele>
        <time>2011-07-03T08:21:53.000Z</time>
      </trkpt>
      <trkpt lat="46.50288" lon="0.36941">
        <ele>133</ele>
        <time>2011-07-03T08:21:56.000Z</time>
      </trkpt>
      <trkpt lat="46.50285" lon="0.36936">
        <ele>133</ele>
        <time>2011-07-03T08:21:57.000Z</time>
      </trkpt>
      <trkpt lat="46.5028" lon="0.3692">
        <ele>133</ele>
        <time>2011-07-03T08:22:00.000Z</time>
      </trkpt>
      <trkpt lat="46.5028" lon="0.36915">
        <ele>133.1</ele>
        <time>2011-07-03T08:22:01.000Z</time>
      </trkpt>
      <trkpt lat="46.50286" lon="0.36887">
        <ele>133.7</ele>
        <time>2011-07-03T08:22:06.000Z</time>
      </trkpt>
      <trkpt lat="46.50285" lon="0.36864">
        <ele>134</ele>
        <time>2011-07-03T08:22:10.000Z</time>
      </trkpt>
      <trkpt lat="46.50282" lon="0.36861">
        <ele>134</ele>
        <time>2011-07-03T08:22:11.000Z</time>
      </trkpt>
      <trkpt lat="46.50278" lon="0.36859">
        <ele>134</ele>
        <time>2011-07-03T08:22:12.000Z</time>
      </trkpt>
      <trkpt lat="46.5026" lon="0.36848">
        <ele>134</ele>
        <time>2011-07-03T08:22:18.000Z</time>
      </trkpt>
      <trkpt lat="46.50241" lon="0.36848">
        <ele>134</ele>
        <time>2011-07-03T08:22:23.000Z</time>
      </trkpt>
      <trkpt lat="46.50228" lon="0.36847">
        <ele>134</ele>
        <time>2011-07-03T08:22:27.000Z</time>
      </trkpt>
      <trkpt lat="46.50225" lon="0.36847">
        <ele>134</ele>
        <time>2011-07-03T08:22:28.000Z</time>
      </trkpt>
      <trkpt lat="46.50204" lon="0.36851">
        <ele>134</ele>
        <time>2011-07-03T08:22:33.000Z</time>
      </trkpt>
      <trkpt lat="46.50184" lon="0.36857">
        <ele>134</ele>
        <time>2011-07-03T08:22:38.000Z</time>
      </trkpt>
      <trkpt lat="46.5017" lon="0.36862">
        <ele>134</ele>
        <time>2011-07-03T08:22:42.000Z</time>
      </trkpt>
      <trkpt lat="46.50166" lon="0.36867">
        <ele>134</ele>
        <time>2011-07-03T08:22:43.000Z</time>
      </trkpt>
      <trkpt lat="46.50162" lon="0.36878">
        <ele>134</ele>
        <time>2011-07-03T08:22:45.000Z</time>
      </trkpt>
      <trkpt lat="46.50161" lon="0.36887">
        <ele>134</ele>
        <time>2011-07-03T08:22:47.000Z</time>
      </trkpt>
      <trkpt lat="46.50162" lon="0.36894">
        <ele>134</ele>
        <time>2011-07-03T08:22:49.000Z</time>
      </trkpt>
      <trkpt lat="46.50158" lon="0.36917">
        <ele>134</ele>
        <time>2011-07-03T08:22:53.000Z</time>
      </trkpt>
      <trkpt lat="46.5016" lon="0.36942">
        <ele>134</ele>
        <time>2011-07-03T08:22:57.000Z</time>
      </trkpt>
      <trkpt lat="46.5016" lon="0.36948">
        <ele>134</ele>
        <time>2011-07-03T08:22:58.000Z</time>
      </trkpt>
      <trkpt lat="46.50162" lon="0.36967">
        <ele>134</ele>
        <time>2011-07-03T08:23:01.000Z</time>
      </trkpt>
      <trkpt lat="46.50164" lon="0.36977">
        <ele>134</ele>
        <time>2011-07-03T08:23:03.000Z</time>
      </trkpt>
      <trkpt lat="46.50169" lon="0.36985">
        <ele>134</ele>
        <time>2011-07-03T08:23:05.000Z</time>
      </trkpt>
      <trkpt lat="46.50171" lon="0.36989">
        <ele>134</ele>
        <time>2011-07-03T08:23:06.000Z</time>
      </trkpt>
      <trkpt lat="46.50176" lon="0.37009">
        <ele>134</ele>
        <time>2011-07-03T08:23:10.000Z</time>
      </trkpt>
      <trkpt lat="46.50177" lon="0.37024">
        <ele>134</ele>
        <time>2011-07-03T08:23:13.000Z</time>
      </trkpt>
      <trkpt lat="46.50179" lon="0.37029">
        <ele>134</ele>
        <time>2011-07-03T08:23:14.000Z</time>
      </trkpt>
      <trkpt lat="46.50184" lon="0.37051">
        <ele>134</ele>
        <time>2011-07-03T08:23:18.000Z</time>
      </trkpt>
      <trkpt lat="46.50187" lon="0.37063">
        <ele>133.8</ele>
        <time>2011-07-03T08:23:20.000Z</time>
      </trkpt>
      <trkpt lat="46.50189" lon="0.37078">
        <ele>133.3</ele>
        <time>2011-07-03T08:23:23.000Z</time>
      </trkpt>
      <trkpt lat="46.50188" lon="0.37082">
        <ele>133.3</ele>
        <time>2011-07-03T08:23:24.000Z</time>
      </trkpt>
      <trkpt lat="46.50184" lon="0.37087">
        <ele>133.3</ele>
        <time>2011-07-03T08:23:26.000Z</time>
      </trkpt>
      <trkpt lat="46.50175" lon="0.37088">
        <ele>133.6</ele>
        <time>2011-07-03T08:23:29.000Z</time>
      </trkpt>
      <trkpt lat="46.5017" lon="0.37085">
        <ele>133.8</ele>
        <time>2011-07-03T08:23:30.000Z</time>
      </trkpt>
      <trkpt lat="46.50154" lon="0.37076">
        <ele>134</ele>
        <time>2011-07-03T08:23:33.000Z</time>
      </trkpt>
      <trkpt lat="46.50144" lon="0.3707">
        <ele>134</ele>
        <time>2011-07-03T08:23:35.000Z</time>
      </trkpt>
      <trkpt lat="46.5013" lon="0.37062">
        <ele>134</ele>
        <time>2011-07-03T08:23:38.000Z</time>
      </trkpt>
      <trkpt lat="46.50124" lon="0.37065">
        <ele>134</ele>
        <time>2011-07-03T08:23:40.000Z</time>
      </trkpt>
      <trkpt lat="46.50115" lon="0.37084">
        <ele>134</ele>
        <time>2011-07-03T08:23:43.000Z</time>
      </trkpt>
      <trkpt lat="46.50105" lon="0.37106">
        <ele>134</ele>
        <time>2011-07-03T08:23:48.000Z</time>
      </trkpt>
      <trkpt lat="46.50099" lon="0.37115">
        <ele>134</ele>
        <time>2011-07-03T08:23:52.000Z</time>
      </trkpt>
      <trkpt lat="46.50096" lon="0.37115">
        <ele>134</ele>
        <time>2011-07-03T08:23:54.000Z</time>
      </trkpt>
      <trkpt lat="46.50091" lon="0.37117">
        <ele>134</ele>
        <time>2011-07-03T08:23:57.000Z</time>
      </trkpt>
      <trkpt lat="46.50088" lon="0.37118">
        <ele>134</ele>
        <time>2011-07-03T08:23:59.000Z</time>
      </trkpt>
      <trkpt lat="46.50082" lon="0.37116">
        <ele>134</ele>
        <time>2011-07-03T08:24:02.000Z</time>
      </trkpt>
      <trkpt lat="46.5008" lon="0.3711">
        <ele>134</ele>
        <time>2011-07-03T08:24:04.000Z</time>
      </trkpt>
      <trkpt lat="46.50074" lon="0.37101">
        <ele>134</ele>
        <time>2011-07-03T08:24:08.000Z</time>
      </trkpt>
      <trkpt lat="46.50053" lon="0.37087">
        <ele>134.1</ele>
        <time>2011-07-03T08:24:14.000Z</time>
      </trkpt>
      <trkpt lat="46.50046" lon="0.37081">
        <ele>134.4</ele>
        <time>2011-07-03T08:24:18.000Z</time>
      </trkpt>
      <trkpt lat="46.50038" lon="0.3708">
        <ele>134.7</ele>
        <time>2011-07-03T08:24:22.000Z</time>
      </trkpt>
      <trkpt lat="46.50035" lon="0.3708">
        <ele>134.8</ele>
        <time>2011-07-03T08:24:23.000Z</time>
      </trkpt>
      <trkpt lat="46.50027" lon="0.37088">
        <ele>135</ele>
        <time>2011-07-03T08:24:27.000Z</time>
      </trkpt>
      <trkpt lat="46.50024" lon="0.37101">
        <ele>135</ele>
        <time>2011-07-03T08:24:31.000Z</time>
      </trkpt>
      <trkpt lat="46.50021" lon="0.37111">
        <ele>135</ele>
        <time>2011-07-03T08:24:35.000Z</time>
      </trkpt>
      <trkpt lat="46.50011" lon="0.37108">
        <ele>135</ele>
        <time>2011-07-03T08:24:38.000Z</time>
      </trkpt>
      <trkpt lat="46.50002" lon="0.37104">
        <ele>135</ele>
        <time>2011-07-03T08:24:40.000Z</time>
      </trkpt>
      <trkpt lat="46.49992" lon="0.371">
        <ele>135</ele>
        <time>2011-07-03T08:24:43.000Z</time>
      </trkpt>
      <trkpt lat="46.49989" lon="0.37099">
        <ele>135</ele>
        <time>2011-07-03T08:24:44.000Z</time>
      </trkpt>
      <trkpt lat="46.49972" lon="0.37092">
        <ele>135</ele>
        <time>2011-07-03T08:24:49.000Z</time>
      </trkpt>
      <trkpt lat="46.4995" lon="0.37081">
        <ele>135</ele>
        <time>2011-07-03T08:24:55.000Z</time>
      </trkpt>
      <trkpt lat="46.49937" lon="0.37071">
        <ele>135</ele>
        <time>2011-07-03T08:24:59.000Z</time>
      </trkpt>
      <trkpt lat="46.49933" lon="0.37069">
        <ele>135</ele>
        <time>2011-07-03T08:25:00.000Z</time>
      </trkpt>
      <trkpt lat="46.4993" lon="0.37068">
        <ele>135</ele>
        <time>2011-07-03T08:25:01.000Z</time>
      </trkpt>
      <trkpt lat="46.49926" lon="0.37066">
        <ele>135</ele>
        <time>2011-07-03T08:25:02.000Z</time>
      </trkpt>
      <trkpt lat="46.49922" lon="0.37064">
        <ele>135</ele>
        <time>2011-07-03T08:25:03.000Z</time>
      </trkpt>
      <trkpt lat="46.49911" lon="0.37059">
        <ele>135</ele>
        <time>2011-07-03T08:25:06.000Z</time>
      </trkpt>
      <trkpt lat="46.49891" lon="0.3705">
        <ele>135</ele>
        <time>2011-07-03T08:25:11.000Z</time>
      </trkpt>
      <trkpt lat="46.49881" lon="0.37046">
        <ele>135.2</ele>
        <time>2011-07-03T08:25:15.000Z</time>
      </trkpt>
      <trkpt lat="46.4987" lon="0.37056">
        <ele>135.7</ele>
        <time>2011-07-03T08:25:20.000Z</time>
      </trkpt>
      <trkpt lat="46.49868" lon="0.37059">
        <ele>135.7</ele>
        <time>2011-07-03T08:25:21.000Z</time>
      </trkpt>
      <trkpt lat="46.49854" lon="0.37084">
        <ele>136</ele>
        <time>2011-07-03T08:25:27.000Z</time>
      </trkpt>
      <trkpt lat="46.49843" lon="0.37101">
        <ele>136</ele>
        <time>2011-07-03T08:25:30.000Z</time>
      </trkpt>
      <trkpt lat="46.49832" lon="0.37118">
        <ele>136</ele>
        <time>2011-07-03T08:25:32.000Z</time>
      </trkpt>
      <trkpt lat="46.49825" lon="0.37133">
        <ele>136</ele>
        <time>2011-07-03T08:25:34.000Z</time>
      </trkpt>
      <trkpt lat="46.49818" lon="0.37145">
        <ele>136</ele>
        <time>2011-07-03T08:25:37.000Z</time>
      </trkpt>
      <trkpt lat="46.49813" lon="0.3715">
        <ele>136</ele>
        <time>2011-07-03T08:25:39.000Z</time>
      </trkpt>
      <trkpt lat="46.49811" lon="0.37155">
        <ele>136</ele>
        <time>2011-07-03T08:25:40.000Z</time>
      </trkpt>
      <trkpt lat="46.49811" lon="0.37161">
        <ele>136</ele>
        <time>2011-07-03T08:25:42.000Z</time>
      </trkpt>
      <trkpt lat="46.4982" lon="0.37174">
        <ele>136</ele>
        <time>2011-07-03T08:25:46.000Z</time>
      </trkpt>
      <trkpt lat="46.49824" lon="0.37178">
        <ele>136</ele>
        <time>2011-07-03T08:25:47.000Z</time>
      </trkpt>
      <trkpt lat="46.49841" lon="0.37194">
        <ele>136</ele>
        <time>2011-07-03T08:25:51.000Z</time>
      </trkpt>
      <trkpt lat="46.49849" lon="0.37203">
        <ele>136.1</ele>
        <time>2011-07-03T08:25:53.000Z</time>
      </trkpt>
      <trkpt lat="46.49862" lon="0.37215">
        <ele>136</ele>
        <time>2011-07-03T08:25:56.000Z</time>
      </trkpt>
      <trkpt lat="46.49868" lon="0.37224">
        <ele>136</ele>
        <time>2011-07-03T08:25:58.000Z</time>
      </trkpt>
      <trkpt lat="46.49872" lon="0.37228">
        <ele>136.1</ele>
        <time>2011-07-03T08:25:59.000Z</time>
      </trkpt>
      <trkpt lat="46.49881" lon="0.37238">
        <ele>136.2</ele>
        <time>2011-07-03T08:26:01.000Z</time>
      </trkpt>
      <trkpt lat="46.49891" lon="0.37248">
        <ele>136</ele>
        <time>2011-07-03T08:26:03.000Z</time>
      </trkpt>
      <trkpt lat="46.49899" lon="0.37258">
        <ele>136</ele>
        <time>2011-07-03T08:26:05.000Z</time>
      </trkpt>
      <trkpt lat="46.49912" lon="0.37271">
        <ele>136</ele>
        <time>2011-07-03T08:26:08.000Z</time>
      </trkpt>
      <trkpt lat="46.49928" lon="0.37288">
        <ele>136</ele>
        <time>2011-07-03T08:26:12.000Z</time>
      </trkpt>
      <trkpt lat="46.49933" lon="0.37293">
        <ele>136</ele>
        <time>2011-07-03T08:26:13.000Z</time>
      </trkpt>
      <trkpt lat="46.49963" lon="0.37322">
        <ele>136</ele>
        <time>2011-07-03T08:26:19.000Z</time>
      </trkpt>
      <trkpt lat="46.49987" lon="0.37345">
        <ele>136</ele>
        <time>2011-07-03T08:26:24.000Z</time>
      </trkpt>
      <trkpt lat="46.50015" lon="0.37372">
        <ele>136</ele>
        <time>2011-07-03T08:26:30.000Z</time>
      </trkpt>
      <trkpt lat="46.5002" lon="0.37376">
        <ele>136</ele>
        <time>2011-07-03T08:26:31.000Z</time>
      </trkpt>
      <trkpt lat="46.50024" lon="0.37383">
        <ele>136</ele>
        <time>2011-07-03T08:26:33.000Z</time>
      </trkpt>
      <trkpt lat="46.50024" lon="0.3739">
        <ele>136</ele>
        <time>2011-07-03T08:26:34.000Z</time>
      </trkpt>
      <trkpt lat="46.50016" lon="0.37402">
        <ele>136</ele>
        <time>2011-07-03T08:26:37.000Z</time>
      </trkpt>
      <trkpt lat="46.5" lon="0.37428">
        <ele>136</ele>
        <time>2011-07-03T08:26:42.000Z</time>
      </trkpt>
      <trkpt lat="46.49978" lon="0.37465">
        <ele>136</ele>
        <time>2011-07-03T08:26:49.000Z</time>
      </trkpt>
      <trkpt lat="46.49954" lon="0.37505">
        <ele>136</ele>
        <time>2011-07-03T08:26:56.000Z</time>
      </trkpt>
      <trkpt lat="46.49949" lon="0.37511">
        <ele>136</ele>
        <time>2011-07-03T08:26:57.000Z</time>
      </trkpt>
      <trkpt lat="46.49938" lon="0.37528">
        <ele>136</ele>
        <time>2011-07-03T08:27:00.000Z</time>
      </trkpt>
      <trkpt lat="46.49935" lon="0.37534">
        <ele>136</ele>
        <time>2011-07-03T08:27:01.000Z</time>
      </trkpt>
      <trkpt lat="46.49924" lon="0.37552">
        <ele>136</ele>
        <time>2011-07-03T08:27:04.000Z</time>
      </trkpt>
      <trkpt lat="46.49918" lon="0.37565">
        <ele>136</ele>
        <time>2011-07-03T08:27:06.000Z</time>
      </trkpt>
      <trkpt lat="46.49914" lon="0.37571">
        <ele>136</ele>
        <time>2011-07-03T08:27:07.000Z</time>
      </trkpt>
      <trkpt lat="46.49911" lon="0.37577">
        <ele>136</ele>
        <time>2011-07-03T08:27:08.000Z</time>
      </trkpt>
      <trkpt lat="46.49907" lon="0.37583">
        <ele>136</ele>
        <time>2011-07-03T08:27:09.000Z</time>
      </trkpt>
      <trkpt lat="46.49904" lon="0.3759">
        <ele>136</ele>
        <time>2011-07-03T08:27:10.000Z</time>
      </trkpt>
      <trkpt lat="46.49889" lon="0.37615">
        <ele>136</ele>
        <time>2011-07-03T08:27:14.000Z</time>
      </trkpt>
      <trkpt lat="46.49864" lon="0.37657">
        <ele>136</ele>
        <time>2011-07-03T08:27:21.000Z</time>
      </trkpt>
      <trkpt lat="46.49843" lon="0.377">
        <ele>136</ele>
        <time>2011-07-03T08:27:28.000Z</time>
      </trkpt>
      <trkpt lat="46.49841" lon="0.37706">
        <ele>136</ele>
        <time>2011-07-03T08:27:29.000Z</time>
      </trkpt>
      <trkpt lat="46.49829" lon="0.37728">
        <ele>136</ele>
        <time>2011-07-03T08:27:33.000Z</time>
      </trkpt>
      <trkpt lat="46.49808" lon="0.37766">
        <ele>136</ele>
        <time>2011-07-03T08:27:40.000Z</time>
      </trkpt>
      <trkpt lat="46.49799" lon="0.3778">
        <ele>136.3</ele>
        <time>2011-07-03T08:27:44.000Z</time>
      </trkpt>
      <trkpt lat="46.49796" lon="0.37781">
        <ele>136.4</ele>
        <time>2011-07-03T08:27:45.000Z</time>
      </trkpt>
      <trkpt lat="46.49789" lon="0.37778">
        <ele>136.6</ele>
        <time>2011-07-03T08:27:48.000Z</time>
      </trkpt>
      <trkpt lat="46.49787" lon="0.37776">
        <ele>136.6</ele>
        <time>2011-07-03T08:27:49.000Z</time>
      </trkpt>
      <trkpt lat="46.49778" lon="0.37761">
        <ele>136.4</ele>
        <time>2011-07-03T08:27:53.000Z</time>
      </trkpt>
      <trkpt lat="46.49775" lon="0.37757">
        <ele>136.3</ele>
        <time>2011-07-03T08:27:54.000Z</time>
      </trkpt>
      <trkpt lat="46.49761" lon="0.37732">
        <ele>136.2</ele>
        <time>2011-07-03T08:27:59.000Z</time>
      </trkpt>
      <trkpt lat="46.49756" lon="0.37702">
        <ele>136</ele>
        <time>2011-07-03T08:28:03.000Z</time>
      </trkpt>
      <trkpt lat="46.49752" lon="0.37687">
        <ele>136</ele>
        <time>2011-07-03T08:28:05.000Z</time>
      </trkpt>
      <trkpt lat="46.4974" lon="0.37667">
        <ele>136</ele>
        <time>2011-07-03T08:28:08.000Z</time>
      </trkpt>
      <trkpt lat="46.49723" lon="0.37653">
        <ele>136</ele>
        <time>2011-07-03T08:28:11.000Z</time>
      </trkpt>
      <trkpt lat="46.49711" lon="0.37644">
        <ele>136.1</ele>
        <time>2011-07-03T08:28:13.000Z</time>
      </trkpt>
      <trkpt lat="46.49677" lon="0.37611">
        <ele>136</ele>
        <time>2011-07-03T08:28:19.000Z</time>
      </trkpt>
      <trkpt lat="46.49666" lon="0.37601">
        <ele>136</ele>
        <time>2011-07-03T08:28:21.000Z</time>
      </trkpt>
      <trkpt lat="46.49651" lon="0.37588">
        <ele>136.6</ele>
        <time>2011-07-03T08:28:24.000Z</time>
      </trkpt>
      <trkpt lat="46.49639" lon="0.37581">
        <ele>137</ele>
        <time>2011-07-03T08:28:26.000Z</time>
      </trkpt>
      <trkpt lat="46.49625" lon="0.37573">
        <ele>137</ele>
        <time>2011-07-03T08:28:28.000Z</time>
      </trkpt>
      <trkpt lat="46.49618" lon="0.37568">
        <ele>137</ele>
        <time>2011-07-03T08:28:29.000Z</time>
      </trkpt>
      <trkpt lat="46.49593" lon="0.37547">
        <ele>137</ele>
        <time>2011-07-03T08:28:34.000Z</time>
      </trkpt>
      <trkpt lat="46.49584" lon="0.37546">
        <ele>137</ele>
        <time>2011-07-03T08:28:36.000Z</time>
      </trkpt>
      <trkpt lat="46.4958" lon="0.3755">
        <ele>137</ele>
        <time>2011-07-03T08:28:37.000Z</time>
      </trkpt>
      <trkpt lat="46.49558" lon="0.37581">
        <ele>137</ele>
        <time>2011-07-03T08:28:43.000Z</time>
      </trkpt>
      <trkpt lat="46.49535" lon="0.37626">
        <ele>136.3</ele>
        <time>2011-07-03T08:28:50.000Z</time>
      </trkpt>
      <trkpt lat="46.49532" lon="0.37633">
        <ele>136.1</ele>
        <time>2011-07-03T08:28:51.000Z</time>
      </trkpt>
      <trkpt lat="46.49525" lon="0.37645">
        <ele>136</ele>
        <time>2011-07-03T08:28:53.000Z</time>
      </trkpt>
      <trkpt lat="46.49517" lon="0.37656">
        <ele>136</ele>
        <time>2011-07-03T08:28:55.000Z</time>
      </trkpt>
      <trkpt lat="46.49512" lon="0.37671">
        <ele>136</ele>
        <time>2011-07-03T08:28:57.000Z</time>
      </trkpt>
      <trkpt lat="46.49493" lon="0.37723">
        <ele>136</ele>
        <time>2011-07-03T08:29:04.000Z</time>
      </trkpt>
      <trkpt lat="46.49484" lon="0.37776">
        <ele>135.4</ele>
        <time>2011-07-03T08:29:10.000Z</time>
      </trkpt>
      <trkpt lat="46.49475" lon="0.37839">
        <ele>135</ele>
        <time>2011-07-03T08:29:17.000Z</time>
      </trkpt>
      <trkpt lat="46.49465" lon="0.37888">
        <ele>135</ele>
        <time>2011-07-03T08:29:23.000Z</time>
      </trkpt>
      <trkpt lat="46.49457" lon="0.37918">
        <ele>135</ele>
        <time>2011-07-03T08:29:27.000Z</time>
      </trkpt>
      <trkpt lat="46.49449" lon="0.37932">
        <ele>135</ele>
        <time>2011-07-03T08:29:29.000Z</time>
      </trkpt>
      <trkpt lat="46.4944" lon="0.37945">
        <ele>134.9</ele>
        <time>2011-07-03T08:29:31.000Z</time>
      </trkpt>
      <trkpt lat="46.49428" lon="0.37966">
        <ele>134.4</ele>
        <time>2011-07-03T08:29:34.000Z</time>
      </trkpt>
      <trkpt lat="46.49391" lon="0.38016">
        <ele>134</ele>
        <time>2011-07-03T08:29:42.000Z</time>
      </trkpt>
      <trkpt lat="46.49379" lon="0.38037">
        <ele>133.9</ele>
        <time>2011-07-03T08:29:45.000Z</time>
      </trkpt>
      <trkpt lat="46.49371" lon="0.38052">
        <ele>133.4</ele>
        <time>2011-07-03T08:29:47.000Z</time>
      </trkpt>
      <trkpt lat="46.49361" lon="0.38074">
        <ele>133</ele>
        <time>2011-07-03T08:29:50.000Z</time>
      </trkpt>
      <trkpt lat="46.49358" lon="0.38082">
        <ele>133</ele>
        <time>2011-07-03T08:29:51.000Z</time>
      </trkpt>
      <trkpt lat="46.49355" lon="0.38089">
        <ele>133</ele>
        <time>2011-07-03T08:29:52.000Z</time>
      </trkpt>
      <trkpt lat="46.49352" lon="0.38097">
        <ele>133</ele>
        <time>2011-07-03T08:29:53.000Z</time>
      </trkpt>
      <trkpt lat="46.49349" lon="0.38105">
        <ele>133</ele>
        <time>2011-07-03T08:29:54.000Z</time>
      </trkpt>
      <trkpt lat="46.49343" lon="0.38122">
        <ele>133</ele>
        <time>2011-07-03T08:29:56.000Z</time>
      </trkpt>
      <trkpt lat="46.49328" lon="0.38171">
        <ele>133</ele>
        <time>2011-07-03T08:30:02.000Z</time>
      </trkpt>
      <trkpt lat="46.49309" lon="0.38231">
        <ele>133</ele>
        <time>2011-07-03T08:30:09.000Z</time>
      </trkpt>
      <trkpt lat="46.49298" lon="0.3826">
        <ele>133</ele>
        <time>2011-07-03T08:30:13.000Z</time>
      </trkpt>
      <trkpt lat="46.49294" lon="0.38267">
        <ele>133</ele>
        <time>2011-07-03T08:30:14.000Z</time>
      </trkpt>
      <trkpt lat="46.49288" lon="0.38281">
        <ele>133</ele>
        <time>2011-07-03T08:30:16.000Z</time>
      </trkpt>
      <trkpt lat="46.49287" lon="0.38289">
        <ele>133</ele>
        <time>2011-07-03T08:30:18.000Z</time>
      </trkpt>
      <trkpt lat="46.49293" lon="0.38291">
        <ele>133</ele>
        <time>2011-07-03T08:30:21.000Z</time>
      </trkpt>
      <trkpt lat="46.49296" lon="0.38291">
        <ele>133</ele>
        <time>2011-07-03T08:30:22.000Z</time>
      </trkpt>
      <trkpt lat="46.49314" lon="0.38293">
        <ele>133</ele>
        <time>2011-07-03T08:30:27.000Z</time>
      </trkpt>
      <trkpt lat="46.49318" lon="0.38291">
        <ele>133</ele>
        <time>2011-07-03T08:30:28.000Z</time>
      </trkpt>
      <trkpt lat="46.49331" lon="0.38291">
        <ele>133</ele>
        <time>2011-07-03T08:30:31.000Z</time>
      </trkpt>
      <trkpt lat="46.49345" lon="0.38296">
        <ele>133</ele>
        <time>2011-07-03T08:30:34.000Z</time>
      </trkpt>
      <trkpt lat="46.49354" lon="0.38301">
        <ele>133</ele>
        <time>2011-07-03T08:30:36.000Z</time>
      </trkpt>
      <trkpt lat="46.49362" lon="0.38307">
        <ele>133</ele>
        <time>2011-07-03T08:30:38.000Z</time>
      </trkpt>
      <trkpt lat="46.49376" lon="0.38314">
        <ele>132.5</ele>
        <time>2011-07-03T08:30:41.000Z</time>
      </trkpt>
      <trkpt lat="46.49401" lon="0.38326">
        <ele>132</ele>
        <time>2011-07-03T08:30:46.000Z</time>
      </trkpt>
      <trkpt lat="46.49415" lon="0.3833">
        <ele>132</ele>
        <time>2011-07-03T08:30:49.000Z</time>
      </trkpt>
      <trkpt lat="46.49422" lon="0.38332">
        <ele>132</ele>
        <time>2011-07-03T08:30:51.000Z</time>
      </trkpt>
      <trkpt lat="46.49446" lon="0.38338">
        <ele>131.9</ele>
        <time>2011-07-03T08:30:56.000Z</time>
      </trkpt>
      <trkpt lat="46.49452" lon="0.38341">
        <ele>131.7</ele>
        <time>2011-07-03T08:30:57.000Z</time>
      </trkpt>
      <trkpt lat="46.49471" lon="0.3835">
        <ele>131</ele>
        <time>2011-07-03T08:31:01.000Z</time>
      </trkpt>
      <trkpt lat="46.49494" lon="0.38354">
        <ele>131</ele>
        <time>2011-07-03T08:31:05.000Z</time>
      </trkpt>
      <trkpt lat="46.49505" lon="0.38355">
        <ele>130.8</ele>
        <time>2011-07-03T08:31:07.000Z</time>
      </trkpt>
      <trkpt lat="46.4951" lon="0.38356">
        <ele>130.6</ele>
        <time>2011-07-03T08:31:08.000Z</time>
      </trkpt>
      <trkpt lat="46.49516" lon="0.38358">
        <ele>130.4</ele>
        <time>2011-07-03T08:31:09.000Z</time>
      </trkpt>
      <trkpt lat="46.49522" lon="0.38359">
        <ele>130.2</ele>
        <time>2011-07-03T08:31:10.000Z</time>
      </trkpt>
      <trkpt lat="46.49527" lon="0.38361">
        <ele>130</ele>
        <time>2011-07-03T08:31:11.000Z</time>
      </trkpt>
      <trkpt lat="46.49532" lon="0.38363">
        <ele>129.8</ele>
        <time>2011-07-03T08:31:12.000Z</time>
      </trkpt>
      <trkpt lat="46.49548" lon="0.38371">
        <ele>129.3</ele>
        <time>2011-07-03T08:31:15.000Z</time>
      </trkpt>
      <trkpt lat="46.49554" lon="0.38373">
        <ele>129.1</ele>
        <time>2011-07-03T08:31:16.000Z</time>
      </trkpt>
      <trkpt lat="46.49559" lon="0.38377">
        <ele>128.9</ele>
        <time>2011-07-03T08:31:17.000Z</time>
      </trkpt>
      <trkpt lat="46.4957" lon="0.38379">
        <ele>128.7</ele>
        <time>2011-07-03T08:31:19.000Z</time>
      </trkpt>
      <trkpt lat="46.49583" lon="0.38378">
        <ele>128.4</ele>
        <time>2011-07-03T08:31:21.000Z</time>
      </trkpt>
      <trkpt lat="46.49595" lon="0.38377">
        <ele>128.7</ele>
        <time>2011-07-03T08:31:23.000Z</time>
      </trkpt>
      <trkpt lat="46.49606" lon="0.38376">
        <ele>128.9</ele>
        <time>2011-07-03T08:31:25.000Z</time>
      </trkpt>
      <trkpt lat="46.49616" lon="0.38373">
        <ele>129.1</ele>
        <time>2011-07-03T08:31:27.000Z</time>
      </trkpt>
      <trkpt lat="46.49629" lon="0.38357">
        <ele>129.7</ele>
        <time>2011-07-03T08:31:31.000Z</time>
      </trkpt>
      <trkpt lat="46.49632" lon="0.38353">
        <ele>129.8</ele>
        <time>2011-07-03T08:31:32.000Z</time>
      </trkpt>
      <trkpt lat="46.49635" lon="0.3835">
        <ele>129.9</ele>
        <time>2011-07-03T08:31:33.000Z</time>
      </trkpt>
      <trkpt lat="46.49639" lon="0.38346">
        <ele>130</ele>
        <time>2011-07-03T08:31:34.000Z</time>
      </trkpt>
      <trkpt lat="46.49647" lon="0.38341">
        <ele>130.2</ele>
        <time>2011-07-03T08:31:36.000Z</time>
      </trkpt>
      <trkpt lat="46.49659" lon="0.38332">
        <ele>130.7</ele>
        <time>2011-07-03T08:31:39.000Z</time>
      </trkpt>
      <trkpt lat="46.49664" lon="0.38329">
        <ele>130.9</ele>
        <time>2011-07-03T08:31:40.000Z</time>
      </trkpt>
      <trkpt lat="46.49683" lon="0.38323">
        <ele>131.2</ele>
        <time>2011-07-03T08:31:44.000Z</time>
      </trkpt>
      <trkpt lat="46.49691" lon="0.38319">
        <ele>131.4</ele>
        <time>2011-07-03T08:31:46.000Z</time>
      </trkpt>
      <trkpt lat="46.49704" lon="0.38311">
        <ele>131.9</ele>
        <time>2011-07-03T08:31:49.000Z</time>
      </trkpt>
      <trkpt lat="46.49722" lon="0.383">
        <ele>132.2</ele>
        <time>2011-07-03T08:31:54.000Z</time>
      </trkpt>
      <trkpt lat="46.49737" lon="0.38291">
        <ele>132.8</ele>
        <time>2011-07-03T08:31:58.000Z</time>
      </trkpt>
      <trkpt lat="46.49748" lon="0.38283">
        <ele>133</ele>
        <time>2011-07-03T08:32:02.000Z</time>
      </trkpt>
      <trkpt lat="46.49751" lon="0.38279">
        <ele>133</ele>
        <time>2011-07-03T08:32:03.000Z</time>
      </trkpt>
      <trkpt lat="46.49755" lon="0.38276">
        <ele>133</ele>
        <time>2011-07-03T08:32:04.000Z</time>
      </trkpt>
      <trkpt lat="46.49759" lon="0.38272">
        <ele>133.1</ele>
        <time>2011-07-03T08:32:05.000Z</time>
      </trkpt>
      <trkpt lat="46.49762" lon="0.38269">
        <ele>133.1</ele>
        <time>2011-07-03T08:32:06.000Z</time>
      </trkpt>
      <trkpt lat="46.49766" lon="0.38266">
        <ele>133.2</ele>
        <time>2011-07-03T08:32:07.000Z</time>
      </trkpt>
      <trkpt lat="46.49769" lon="0.38263">
        <ele>133.4</ele>
        <time>2011-07-03T08:32:08.000Z</time>
      </trkpt>
      <trkpt lat="46.49785" lon="0.38247">
        <ele>134</ele>
        <time>2011-07-03T08:32:13.000Z</time>
      </trkpt>
      <trkpt lat="46.498" lon="0.38231">
        <ele>134</ele>
        <time>2011-07-03T08:32:18.000Z</time>
      </trkpt>
      <trkpt lat="46.49823" lon="0.38211">
        <ele>134.2</ele>
        <time>2011-07-03T08:32:25.000Z</time>
      </trkpt>
      <trkpt lat="46.49844" lon="0.38187">
        <ele>134.6</ele>
        <time>2011-07-03T08:32:31.000Z</time>
      </trkpt>
      <trkpt lat="46.49854" lon="0.38171">
        <ele>134.3</ele>
        <time>2011-07-03T08:32:34.000Z</time>
      </trkpt>
      <trkpt lat="46.49857" lon="0.38167">
        <ele>134.1</ele>
        <time>2011-07-03T08:32:35.000Z</time>
      </trkpt>
      <trkpt lat="46.49861" lon="0.38163">
        <ele>134.1</ele>
        <time>2011-07-03T08:32:36.000Z</time>
      </trkpt>
      <trkpt lat="46.49864" lon="0.38159">
        <ele>134.2</ele>
        <time>2011-07-03T08:32:37.000Z</time>
      </trkpt>
      <trkpt lat="46.49867" lon="0.38155">
        <ele>134.3</ele>
        <time>2011-07-03T08:32:38.000Z</time>
      </trkpt>
      <trkpt lat="46.49883" lon="0.38147">
        <ele>134.2</ele>
        <time>2011-07-03T08:32:43.000Z</time>
      </trkpt>
      <trkpt lat="46.4989" lon="0.38164">
        <ele>134</ele>
        <time>2011-07-03T08:32:47.000Z</time>
      </trkpt>
      <trkpt lat="46.499" lon="0.38187">
        <ele>134</ele>
        <time>2011-07-03T08:32:52.000Z</time>
      </trkpt>
      <trkpt lat="46.49917" lon="0.38217">
        <ele>134</ele>
        <time>2011-07-03T08:32:58.000Z</time>
      </trkpt>
      <trkpt lat="46.49928" lon="0.38231">
        <ele>133.6</ele>
        <time>2011-07-03T08:33:01.000Z</time>
      </trkpt>
      <trkpt lat="46.49935" lon="0.38242">
        <ele>133.3</ele>
        <time>2011-07-03T08:33:03.000Z</time>
      </trkpt>
      <trkpt lat="46.4996" lon="0.38273">
        <ele>133</ele>
        <time>2011-07-03T08:33:09.000Z</time>
      </trkpt>
      <trkpt lat="46.49974" lon="0.38287">
        <ele>132.9</ele>
        <time>2011-07-03T08:33:12.000Z</time>
      </trkpt>
      <trkpt lat="46.49988" lon="0.38299">
        <ele>132.4</ele>
        <time>2011-07-03T08:33:15.000Z</time>
      </trkpt>
      <trkpt lat="46.50002" lon="0.38312">
        <ele>132</ele>
        <time>2011-07-03T08:33:18.000Z</time>
      </trkpt>
      <trkpt lat="46.50009" lon="0.38324">
        <ele>132</ele>
        <time>2011-07-03T08:33:20.000Z</time>
      </trkpt>
      <trkpt lat="46.50015" lon="0.38336">
        <ele>131.9</ele>
        <time>2011-07-03T08:33:22.000Z</time>
      </trkpt>
      <trkpt lat="46.50025" lon="0.38356">
        <ele>131.3</ele>
        <time>2011-07-03T08:33:25.000Z</time>
      </trkpt>
      <trkpt lat="46.50045" lon="0.38387">
        <ele>130.4</ele>
        <time>2011-07-03T08:33:30.000Z</time>
      </trkpt>
      <trkpt lat="46.50069" lon="0.38422">
        <ele>129.4</ele>
        <time>2011-07-03T08:33:35.000Z</time>
      </trkpt>
      <trkpt lat="46.50073" lon="0.38428">
        <ele>129.1</ele>
        <time>2011-07-03T08:33:36.000Z</time>
      </trkpt>
      <trkpt lat="46.50079" lon="0.38434">
        <ele>128.6</ele>
        <time>2011-07-03T08:33:37.000Z</time>
      </trkpt>
      <trkpt lat="46.50083" lon="0.38442">
        <ele>128.1</ele>
        <time>2011-07-03T08:33:38.000Z</time>
      </trkpt>
      <trkpt lat="46.50088" lon="0.38449">
        <ele>128</ele>
        <time>2011-07-03T08:33:39.000Z</time>
      </trkpt>
      <trkpt lat="46.50094" lon="0.38455">
        <ele>127.9</ele>
        <time>2011-07-03T08:33:40.000Z</time>
      </trkpt>
      <trkpt lat="46.50107" lon="0.38479">
        <ele>127.1</ele>
        <time>2011-07-03T08:33:43.000Z</time>
      </trkpt>
      <trkpt lat="46.50111" lon="0.38487">
        <ele>127</ele>
        <time>2011-07-03T08:33:44.000Z</time>
      </trkpt>
      <trkpt lat="46.50113" lon="0.38494">
        <ele>126.9</ele>
        <time>2011-07-03T08:33:45.000Z</time>
      </trkpt>
      <trkpt lat="46.50114" lon="0.38499">
        <ele>126.9</ele>
        <time>2011-07-03T08:33:46.000Z</time>
      </trkpt>
      <trkpt lat="46.50112" lon="0.38503">
        <ele>127</ele>
        <time>2011-07-03T08:33:47.000Z</time>
      </trkpt>
      <trkpt lat="46.50109" lon="0.38506">
        <ele>127.1</ele>
        <time>2011-07-03T08:33:48.000Z</time>
      </trkpt>
      <trkpt lat="46.50107" lon="0.3851">
        <ele>127.2</ele>
        <time>2011-07-03T08:33:49.000Z</time>
      </trkpt>
      <trkpt lat="46.50104" lon="0.38513">
        <ele>127.3</ele>
        <time>2011-07-03T08:33:50.000Z</time>
      </trkpt>
      <trkpt lat="46.50085" lon="0.38518">
        <ele>127.9</ele>
        <time>2011-07-03T08:33:54.000Z</time>
      </trkpt>
      <trkpt lat="46.50073" lon="0.38518">
        <ele>128.1</ele>
        <time>2011-07-03T08:33:56.000Z</time>
      </trkpt>
      <trkpt lat="46.50059" lon="0.38518">
        <ele>128.3</ele>
        <time>2011-07-03T08:33:59.000Z</time>
      </trkpt>
      <trkpt lat="46.50054" lon="0.38517">
        <ele>128.4</ele>
        <time>2011-07-03T08:34:00.000Z</time>
      </trkpt>
      <trkpt lat="46.50036" lon="0.38513">
        <ele>128.5</ele>
        <time>2011-07-03T08:34:04.000Z</time>
      </trkpt>
      <trkpt lat="46.50031" lon="0.38513">
        <ele>128.5</ele>
        <time>2011-07-03T08:34:05.000Z</time>
      </trkpt>
      <trkpt lat="46.50009" lon="0.38508">
        <ele>128.9</ele>
        <time>2011-07-03T08:34:10.000Z</time>
      </trkpt>
      <trkpt lat="46.49993" lon="0.38509">
        <ele>129.2</ele>
        <time>2011-07-03T08:34:14.000Z</time>
      </trkpt>
      <trkpt lat="46.49979" lon="0.38514">
        <ele>129.4</ele>
        <time>2011-07-03T08:34:18.000Z</time>
      </trkpt>
      <trkpt lat="46.49945" lon="0.38514">
        <ele>129.5</ele>
        <time>2011-07-03T08:34:24.000Z</time>
      </trkpt>
      <trkpt lat="46.49923" lon="0.38512">
        <ele>129.9</ele>
        <time>2011-07-03T08:34:28.000Z</time>
      </trkpt>
      <trkpt lat="46.49919" lon="0.38512">
        <ele>130</ele>
        <time>2011-07-03T08:34:29.000Z</time>
      </trkpt>
      <trkpt lat="46.49908" lon="0.38512">
        <ele>130.2</ele>
        <time>2011-07-03T08:34:31.000Z</time>
      </trkpt>
      <trkpt lat="46.49894" lon="0.3851">
        <ele>130.5</ele>
        <time>2011-07-03T08:34:34.000Z</time>
      </trkpt>
      <trkpt lat="46.49875" lon="0.38509">
        <ele>130.8</ele>
        <time>2011-07-03T08:34:38.000Z</time>
      </trkpt>
      <trkpt lat="46.49864" lon="0.38508">
        <ele>131</ele>
        <time>2011-07-03T08:34:40.000Z</time>
      </trkpt>
      <trkpt lat="46.49847" lon="0.38509">
        <ele>131.3</ele>
        <time>2011-07-03T08:34:43.000Z</time>
      </trkpt>
      <trkpt lat="46.49826" lon="0.38508">
        <ele>131.5</ele>
        <time>2011-07-03T08:34:47.000Z</time>
      </trkpt>
      <trkpt lat="46.49821" lon="0.38506">
        <ele>131.4</ele>
        <time>2011-07-03T08:34:48.000Z</time>
      </trkpt>
      <trkpt lat="46.49794" lon="0.38496">
        <ele>131.1</ele>
        <time>2011-07-03T08:34:53.000Z</time>
      </trkpt>
      <trkpt lat="46.49789" lon="0.38494">
        <ele>131.1</ele>
        <time>2011-07-03T08:34:54.000Z</time>
      </trkpt>
      <trkpt lat="46.49772" lon="0.3849">
        <ele>130.9</ele>
        <time>2011-07-03T08:34:57.000Z</time>
      </trkpt>
      <trkpt lat="46.49761" lon="0.38488">
        <ele>130.7</ele>
        <time>2011-07-03T08:34:59.000Z</time>
      </trkpt>
      <trkpt lat="46.49737" lon="0.38481">
        <ele>130.2</ele>
        <time>2011-07-03T08:35:03.000Z</time>
      </trkpt>
      <trkpt lat="46.49725" lon="0.3848">
        <ele>129.8</ele>
        <time>2011-07-03T08:35:05.000Z</time>
      </trkpt>
      <trkpt lat="46.49712" lon="0.38481">
        <ele>129.3</ele>
        <time>2011-07-03T08:35:07.000Z</time>
      </trkpt>
      <trkpt lat="46.49698" lon="0.38479">
        <ele>128.9</ele>
        <time>2011-07-03T08:35:09.000Z</time>
      </trkpt>
      <trkpt lat="46.49679" lon="0.38466">
        <ele>128.6</ele>
        <time>2011-07-03T08:35:12.000Z</time>
      </trkpt>
      <trkpt lat="46.49675" lon="0.3846">
        <ele>128.4</ele>
        <time>2011-07-03T08:35:13.000Z</time>
      </trkpt>
      <trkpt lat="46.49672" lon="0.38453">
        <ele>128.3</ele>
        <time>2011-07-03T08:35:14.000Z</time>
      </trkpt>
      <trkpt lat="46.4967" lon="0.38449">
        <ele>128.2</ele>
        <time>2011-07-03T08:35:15.000Z</time>
      </trkpt>
      <trkpt lat="46.49669" lon="0.38446">
        <ele>128.1</ele>
        <time>2011-07-03T08:35:16.000Z</time>
      </trkpt>
      <trkpt lat="46.49668" lon="0.38446">
        <ele>128.1</ele>
        <time>2011-07-03T08:35:17.000Z</time>
      </trkpt>
      <trkpt lat="46.49667" lon="0.38446">
        <ele>128.1</ele>
        <time>2011-07-03T08:35:18.000Z</time>
      </trkpt>
      <trkpt lat="46.49667" lon="0.38446">
        <ele>128.1</ele>
        <time>2011-07-03T08:35:21.000Z</time>
      </trkpt>
      <trkpt lat="46.49667" lon="0.38446">
        <ele>128.1</ele>
        <time>2011-07-03T08:35:25.000Z</time>
      </trkpt>
      <trkpt lat="46.49667" lon="0.38446">
        <ele>128.1</ele>
        <time>2011-07-03T08:35:32.000Z</time>
      </trkpt>
      <trkpt lat="46.49668" lon="0.38449">
        <ele>128.1</ele>
        <time>2011-07-03T08:35:36.000Z</time>
      </trkpt>
      <trkpt lat="46.49669" lon="0.38462">
        <ele>128.1</ele>
        <time>2011-07-03T08:35:39.000Z</time>
      </trkpt>
      <trkpt lat="46.49672" lon="0.38488">
        <ele>128.1</ele>
        <time>2011-07-03T08:35:43.000Z</time>
      </trkpt>
      <trkpt lat="46.49673" lon="0.38518">
        <ele>127.4</ele>
        <time>2011-07-03T08:35:47.000Z</time>
      </trkpt>
      <trkpt lat="46.49673" lon="0.38524">
        <ele>127.1</ele>
        <time>2011-07-03T08:35:48.000Z</time>
      </trkpt>
      <trkpt lat="46.49674" lon="0.38531">
        <ele>126.9</ele>
        <time>2011-07-03T08:35:49.000Z</time>
      </trkpt>
      <trkpt lat="46.49676" lon="0.38539">
        <ele>126.6</ele>
        <time>2011-07-03T08:35:50.000Z</time>
      </trkpt>
      <trkpt lat="46.49677" lon="0.38547">
        <ele>126.3</ele>
        <time>2011-07-03T08:35:51.000Z</time>
      </trkpt>
      <trkpt lat="46.49682" lon="0.38564">
        <ele>125.7</ele>
        <time>2011-07-03T08:35:53.000Z</time>
      </trkpt>
      <trkpt lat="46.49688" lon="0.38594">
        <ele>124.6</ele>
        <time>2011-07-03T08:35:56.000Z</time>
      </trkpt>
      <trkpt lat="46.49691" lon="0.38605">
        <ele>124.2</ele>
        <time>2011-07-03T08:35:57.000Z</time>
      </trkpt>
      <trkpt lat="46.49693" lon="0.38615">
        <ele>124</ele>
        <time>2011-07-03T08:35:58.000Z</time>
      </trkpt>
      <trkpt lat="46.49696" lon="0.38625">
        <ele>124.1</ele>
        <time>2011-07-03T08:35:59.000Z</time>
      </trkpt>
      <trkpt lat="46.49698" lon="0.38635">
        <ele>124.1</ele>
        <time>2011-07-03T08:36:00.000Z</time>
      </trkpt>
      <trkpt lat="46.49709" lon="0.38675">
        <ele>123</ele>
        <time>2011-07-03T08:36:04.000Z</time>
      </trkpt>
      <trkpt lat="46.49714" lon="0.38697">
        <ele>122.9</ele>
        <time>2011-07-03T08:36:06.000Z</time>
      </trkpt>
      <trkpt lat="46.49716" lon="0.38705">
        <ele>122.7</ele>
        <time>2011-07-03T08:36:07.000Z</time>
      </trkpt>
      <trkpt lat="46.49718" lon="0.38714">
        <ele>122.4</ele>
        <time>2011-07-03T08:36:08.000Z</time>
      </trkpt>
      <trkpt lat="46.49719" lon="0.38724">
        <ele>122.1</ele>
        <time>2011-07-03T08:36:09.000Z</time>
      </trkpt>
      <trkpt lat="46.4972" lon="0.38733">
        <ele>122.1</ele>
        <time>2011-07-03T08:36:10.000Z</time>
      </trkpt>
      <trkpt lat="46.49723" lon="0.38752">
        <ele>121.9</ele>
        <time>2011-07-03T08:36:12.000Z</time>
      </trkpt>
      <trkpt lat="46.49727" lon="0.38771">
        <ele>121.2</ele>
        <time>2011-07-03T08:36:14.000Z</time>
      </trkpt>
      <trkpt lat="46.4973" lon="0.38779">
        <ele>121</ele>
        <time>2011-07-03T08:36:15.000Z</time>
      </trkpt>
      <trkpt lat="46.49738" lon="0.38799">
        <ele>120.6</ele>
        <time>2011-07-03T08:36:17.000Z</time>
      </trkpt>
      <trkpt lat="46.49741" lon="0.3881">
        <ele>120.3</ele>
        <time>2011-07-03T08:36:18.000Z</time>
      </trkpt>
      <trkpt lat="46.49744" lon="0.3882">
        <ele>120.2</ele>
        <time>2011-07-03T08:36:19.000Z</time>
      </trkpt>
      <trkpt lat="46.49748" lon="0.38831">
        <ele>120.1</ele>
        <time>2011-07-03T08:36:20.000Z</time>
      </trkpt>
      <trkpt lat="46.49751" lon="0.38841">
        <ele>120</ele>
        <time>2011-07-03T08:36:21.000Z</time>
      </trkpt>
      <trkpt lat="46.49754" lon="0.38852">
        <ele>119.9</ele>
        <time>2011-07-03T08:36:22.000Z</time>
      </trkpt>
      <trkpt lat="46.4976" lon="0.38872">
        <ele>119.4</ele>
        <time>2011-07-03T08:36:24.000Z</time>
      </trkpt>
      <trkpt lat="46.49769" lon="0.38903">
        <ele>118.6</ele>
        <time>2011-07-03T08:36:27.000Z</time>
      </trkpt>
      <trkpt lat="46.49779" lon="0.3893">
        <ele>118</ele>
        <time>2011-07-03T08:36:30.000Z</time>
      </trkpt>
      <trkpt lat="46.4978" lon="0.38937">
        <ele>117.9</ele>
        <time>2011-07-03T08:36:31.000Z</time>
      </trkpt>
      <trkpt lat="46.4978" lon="0.38942">
        <ele>117.9</ele>
        <time>2011-07-03T08:36:32.000Z</time>
      </trkpt>
      <trkpt lat="46.49781" lon="0.38947">
        <ele>117.8</ele>
        <time>2011-07-03T08:36:33.000Z</time>
      </trkpt>
      <trkpt lat="46.49782" lon="0.3895">
        <ele>117.6</ele>
        <time>2011-07-03T08:36:34.000Z</time>
      </trkpt>
      <trkpt lat="46.49785" lon="0.38953">
        <ele>117.4</ele>
        <time>2011-07-03T08:36:35.000Z</time>
      </trkpt>
      <trkpt lat="46.49787" lon="0.38956">
        <ele>117.2</ele>
        <time>2011-07-03T08:36:36.000Z</time>
      </trkpt>
      <trkpt lat="46.49792" lon="0.38967">
        <ele>116.7</ele>
        <time>2011-07-03T08:36:38.000Z</time>
      </trkpt>
      <trkpt lat="46.49808" lon="0.39006">
        <ele>116.2</ele>
        <time>2011-07-03T08:36:44.000Z</time>
      </trkpt>
      <trkpt lat="46.49823" lon="0.39039">
        <ele>116</ele>
        <time>2011-07-03T08:36:49.000Z</time>
      </trkpt>
      <trkpt lat="46.49831" lon="0.39054">
        <ele>116.1</ele>
        <time>2011-07-03T08:36:51.000Z</time>
      </trkpt>
      <trkpt lat="46.49839" lon="0.39066">
        <ele>115.8</ele>
        <time>2011-07-03T08:36:53.000Z</time>
      </trkpt>
      <trkpt lat="46.49852" lon="0.39086">
        <ele>115.3</ele>
        <time>2011-07-03T08:36:56.000Z</time>
      </trkpt>
      <trkpt lat="46.49857" lon="0.39092">
        <ele>115.1</ele>
        <time>2011-07-03T08:36:57.000Z</time>
      </trkpt>
      <trkpt lat="46.49875" lon="0.39105">
        <ele>114.5</ele>
        <time>2011-07-03T08:37:00.000Z</time>
      </trkpt>
      <trkpt lat="46.49882" lon="0.39109">
        <ele>114.3</ele>
        <time>2011-07-03T08:37:01.000Z</time>
      </trkpt>
      <trkpt lat="46.49904" lon="0.39122">
        <ele>113.9</ele>
        <time>2011-07-03T08:37:05.000Z</time>
      </trkpt>
      <trkpt lat="46.49911" lon="0.39123">
        <ele>113.7</ele>
        <time>2011-07-03T08:37:06.000Z</time>
      </trkpt>
      <trkpt lat="46.49924" lon="0.39124">
        <ele>113.4</ele>
        <time>2011-07-03T08:37:08.000Z</time>
      </trkpt>
      <trkpt lat="46.49952" lon="0.39125">
        <ele>112.9</ele>
        <time>2011-07-03T08:37:12.000Z</time>
      </trkpt>
      <trkpt lat="46.49997" lon="0.39124">
        <ele>112.1</ele>
        <time>2011-07-03T08:37:18.000Z</time>
      </trkpt>
      <trkpt lat="46.50011" lon="0.39128">
        <ele>111.8</ele>
        <time>2011-07-03T08:37:20.000Z</time>
      </trkpt>
      <trkpt lat="46.50034" lon="0.39133">
        <ele>111</ele>
        <time>2011-07-03T08:37:23.000Z</time>
      </trkpt>
      <trkpt lat="46.50058" lon="0.39135">
        <ele>110.1</ele>
        <time>2011-07-03T08:37:26.000Z</time>
      </trkpt>
      <trkpt lat="46.50066" lon="0.39138">
        <ele>109.6</ele>
        <time>2011-07-03T08:37:27.000Z</time>
      </trkpt>
      <trkpt lat="46.50074" lon="0.39141">
        <ele>109.3</ele>
        <time>2011-07-03T08:37:28.000Z</time>
      </trkpt>
      <trkpt lat="46.50081" lon="0.39143">
        <ele>109.1</ele>
        <time>2011-07-03T08:37:29.000Z</time>
      </trkpt>
      <trkpt lat="46.50088" lon="0.39144">
        <ele>109</ele>
        <time>2011-07-03T08:37:30.000Z</time>
      </trkpt>
      <trkpt lat="46.50104" lon="0.39144">
        <ele>109</ele>
        <time>2011-07-03T08:37:32.000Z</time>
      </trkpt>
      <trkpt lat="46.50135" lon="0.39136">
        <ele>109.1</ele>
        <time>2011-07-03T08:37:36.000Z</time>
      </trkpt>
      <trkpt lat="46.50143" lon="0.39135">
        <ele>109.1</ele>
        <time>2011-07-03T08:37:37.000Z</time>
      </trkpt>
      <trkpt lat="46.50151" lon="0.39135">
        <ele>109.1</ele>
        <time>2011-07-03T08:37:38.000Z</time>
      </trkpt>
      <trkpt lat="46.5016" lon="0.39135">
        <ele>109</ele>
        <time>2011-07-03T08:37:39.000Z</time>
      </trkpt>
      <trkpt lat="46.50167" lon="0.39136">
        <ele>109</ele>
        <time>2011-07-03T08:37:40.000Z</time>
      </trkpt>
      <trkpt lat="46.50176" lon="0.39138">
        <ele>108.7</ele>
        <time>2011-07-03T08:37:41.000Z</time>
      </trkpt>
      <trkpt lat="46.50188" lon="0.39144">
        <ele>108.2</ele>
        <time>2011-07-03T08:37:43.000Z</time>
      </trkpt>
      <trkpt lat="46.50195" lon="0.39147">
        <ele>108</ele>
        <time>2011-07-03T08:37:44.000Z</time>
      </trkpt>
      <trkpt lat="46.50215" lon="0.39156">
        <ele>108.7</ele>
        <time>2011-07-03T08:37:47.000Z</time>
      </trkpt>
      <trkpt lat="46.5022" lon="0.3916">
        <ele>108.9</ele>
        <time>2011-07-03T08:37:48.000Z</time>
      </trkpt>
      <trkpt lat="46.50224" lon="0.39164">
        <ele>109.1</ele>
        <time>2011-07-03T08:37:49.000Z</time>
      </trkpt>
      <trkpt lat="46.50228" lon="0.39165">
        <ele>109.2</ele>
        <time>2011-07-03T08:37:50.000Z</time>
      </trkpt>
      <trkpt lat="46.5023" lon="0.39164">
        <ele>109.3</ele>
        <time>2011-07-03T08:37:51.000Z</time>
      </trkpt>
      <trkpt lat="46.50232" lon="0.39163">
        <ele>109.4</ele>
        <time>2011-07-03T08:37:52.000Z</time>
      </trkpt>
      <trkpt lat="46.50232" lon="0.39162">
        <ele>109.4</ele>
        <time>2011-07-03T08:37:53.000Z</time>
      </trkpt>
      <trkpt lat="46.50233" lon="0.39161">
        <ele>109.5</ele>
        <time>2011-07-03T08:37:54.000Z</time>
      </trkpt>
      <trkpt lat="46.50233" lon="0.39158">
        <ele>109.5</ele>
        <time>2011-07-03T08:37:55.000Z</time>
      </trkpt>
      <trkpt lat="46.5023" lon="0.39138">
        <ele>109.6</ele>
        <time>2011-07-03T08:38:00.000Z</time>
      </trkpt>
      <trkpt lat="46.50222" lon="0.39104">
        <ele>110.2</ele>
        <time>2011-07-03T08:38:05.000Z</time>
      </trkpt>
      <trkpt lat="46.50216" lon="0.39072">
        <ele>111.2</ele>
        <time>2011-07-03T08:38:10.000Z</time>
      </trkpt>
      <trkpt lat="46.5021" lon="0.39041">
        <ele>112.3</ele>
        <time>2011-07-03T08:38:15.000Z</time>
      </trkpt>
      <trkpt lat="46.50209" lon="0.39036">
        <ele>112.6</ele>
        <time>2011-07-03T08:38:16.000Z</time>
      </trkpt>
      <trkpt lat="46.50209" lon="0.39031">
        <ele>112.9</ele>
        <time>2011-07-03T08:38:17.000Z</time>
      </trkpt>
      <trkpt lat="46.50208" lon="0.39025">
        <ele>113</ele>
        <time>2011-07-03T08:38:18.000Z</time>
      </trkpt>
      <trkpt lat="46.50207" lon="0.39021">
        <ele>113.1</ele>
        <time>2011-07-03T08:38:19.000Z</time>
      </trkpt>
      <trkpt lat="46.50203" lon="0.39">
        <ele>113.6</ele>
        <time>2011-07-03T08:38:23.000Z</time>
      </trkpt>
      <trkpt lat="46.50201" lon="0.3897">
        <ele>114.2</ele>
        <time>2011-07-03T08:38:28.000Z</time>
      </trkpt>
      <trkpt lat="46.50201" lon="0.38951">
        <ele>114.2</ele>
        <time>2011-07-03T08:38:32.000Z</time>
      </trkpt>
      <trkpt lat="46.502" lon="0.38947">
        <ele>114.2</ele>
        <time>2011-07-03T08:38:33.000Z</time>
      </trkpt>
      <trkpt lat="46.502" lon="0.38943">
        <ele>114.2</ele>
        <time>2011-07-03T08:38:34.000Z</time>
      </trkpt>
      <trkpt lat="46.502" lon="0.38939">
        <ele>114.2</ele>
        <time>2011-07-03T08:38:35.000Z</time>
      </trkpt>
      <trkpt lat="46.50199" lon="0.38929">
        <ele>114.2</ele>
        <time>2011-07-03T08:38:39.000Z</time>
      </trkpt>
      <trkpt lat="46.50198" lon="0.38909">
        <ele>114.4</ele>
        <time>2011-07-03T08:38:45.000Z</time>
      </trkpt>
      <trkpt lat="46.50198" lon="0.38906">
        <ele>114.5</ele>
        <time>2011-07-03T08:38:46.000Z</time>
      </trkpt>
      <trkpt lat="46.50197" lon="0.38877">
        <ele>115.1</ele>
        <time>2011-07-03T08:38:53.000Z</time>
      </trkpt>
      <trkpt lat="46.50197" lon="0.38873">
        <ele>115</ele>
        <time>2011-07-03T08:38:54.000Z</time>
      </trkpt>
      <trkpt lat="46.50196" lon="0.38869">
        <ele>115</ele>
        <time>2011-07-03T08:38:55.000Z</time>
      </trkpt>
      <trkpt lat="46.50197" lon="0.38865">
        <ele>115</ele>
        <time>2011-07-03T08:38:56.000Z</time>
      </trkpt>
      <trkpt lat="46.50198" lon="0.38858">
        <ele>115</ele>
        <time>2011-07-03T08:38:57.000Z</time>
      </trkpt>
      <trkpt lat="46.50203" lon="0.38839">
        <ele>115</ele>
        <time>2011-07-03T08:39:00.000Z</time>
      </trkpt>
      <trkpt lat="46.50206" lon="0.3882">
        <ele>115</ele>
        <time>2011-07-03T08:39:05.000Z</time>
      </trkpt>
      <trkpt lat="46.50209" lon="0.38813">
        <ele>115</ele>
        <time>2011-07-03T08:39:07.000Z</time>
      </trkpt>
      <trkpt lat="46.50211" lon="0.38806">
        <ele>115</ele>
        <time>2011-07-03T08:39:09.000Z</time>
      </trkpt>
      <trkpt lat="46.5022" lon="0.38782">
        <ele>115.1</ele>
        <time>2011-07-03T08:39:13.000Z</time>
      </trkpt>
      <trkpt lat="46.50221" lon="0.38766">
        <ele>115.5</ele>
        <time>2011-07-03T08:39:16.000Z</time>
      </trkpt>
      <trkpt lat="46.50222" lon="0.38761">
        <ele>115.6</ele>
        <time>2011-07-03T08:39:17.000Z</time>
      </trkpt>
      <trkpt lat="46.50223" lon="0.38755">
        <ele>115.9</ele>
        <time>2011-07-03T08:39:18.000Z</time>
      </trkpt>
      <trkpt lat="46.50224" lon="0.38751">
        <ele>116.1</ele>
        <time>2011-07-03T08:39:19.000Z</time>
      </trkpt>
      <trkpt lat="46.50225" lon="0.38746">
        <ele>116.4</ele>
        <time>2011-07-03T08:39:20.000Z</time>
      </trkpt>
      <trkpt lat="46.50229" lon="0.38732">
        <ele>117.2</ele>
        <time>2011-07-03T08:39:23.000Z</time>
      </trkpt>
      <trkpt lat="46.50232" lon="0.38706">
        <ele>118.3</ele>
        <time>2011-07-03T08:39:28.000Z</time>
      </trkpt>
      <trkpt lat="46.50235" lon="0.38689">
        <ele>119</ele>
        <time>2011-07-03T08:39:31.000Z</time>
      </trkpt>
      <trkpt lat="46.50236" lon="0.38686">
        <ele>119.2</ele>
        <time>2011-07-03T08:39:32.000Z</time>
      </trkpt>
      <trkpt lat="46.50237" lon="0.38681">
        <ele>119.3</ele>
        <time>2011-07-03T08:39:33.000Z</time>
      </trkpt>
      <trkpt lat="46.50239" lon="0.38676">
        <ele>119.5</ele>
        <time>2011-07-03T08:39:34.000Z</time>
      </trkpt>
      <trkpt lat="46.5024" lon="0.38671">
        <ele>119.6</ele>
        <time>2011-07-03T08:39:35.000Z</time>
      </trkpt>
      <trkpt lat="46.50247" lon="0.3864">
        <ele>120.9</ele>
        <time>2011-07-03T08:39:40.000Z</time>
      </trkpt>
      <trkpt lat="46.5025" lon="0.38605">
        <ele>121</ele>
        <time>2011-07-03T08:39:46.000Z</time>
      </trkpt>
      <trkpt lat="46.5025" lon="0.38599">
        <ele>121</ele>
        <time>2011-07-03T08:39:47.000Z</time>
      </trkpt>
      <trkpt lat="46.5025" lon="0.38594">
        <ele>121</ele>
        <time>2011-07-03T08:39:48.000Z</time>
      </trkpt>
      <trkpt lat="46.5025" lon="0.3859">
        <ele>121</ele>
        <time>2011-07-03T08:39:49.000Z</time>
      </trkpt>
      <trkpt lat="46.5025" lon="0.38585">
        <ele>121</ele>
        <time>2011-07-03T08:39:50.000Z</time>
      </trkpt>
      <trkpt lat="46.50251" lon="0.38579">
        <ele>121.2</ele>
        <time>2011-07-03T08:39:51.000Z</time>
      </trkpt>
      <trkpt lat="46.50251" lon="0.38566">
        <ele>121.7</ele>
        <time>2011-07-03T08:39:53.000Z</time>
      </trkpt>
      <trkpt lat="46.5025" lon="0.38522">
        <ele>123</ele>
        <time>2011-07-03T08:40:00.000Z</time>
      </trkpt>
      <trkpt lat="46.50239" lon="0.38495">
        <ele>123.1</ele>
        <time>2011-07-03T08:40:06.000Z</time>
      </trkpt>
      <trkpt lat="46.50223" lon="0.38473">
        <ele>123</ele>
        <time>2011-07-03T08:40:11.000Z</time>
      </trkpt>
      <trkpt lat="46.50224" lon="0.38468">
        <ele>123.2</ele>
        <time>2011-07-03T08:40:12.000Z</time>
      </trkpt>
      <trkpt lat="46.50225" lon="0.38466">
        <ele>123.3</ele>
        <time>2011-07-03T08:40:13.000Z</time>
      </trkpt>
      <trkpt lat="46.50226" lon="0.38462">
        <ele>123.5</ele>
        <time>2011-07-03T08:40:14.000Z</time>
      </trkpt>
      <trkpt lat="46.50228" lon="0.38459">
        <ele>123.6</ele>
        <time>2011-07-03T08:40:15.000Z</time>
      </trkpt>
      <trkpt lat="46.50232" lon="0.38456">
        <ele>123.7</ele>
        <time>2011-07-03T08:40:16.000Z</time>
      </trkpt>
      <trkpt lat="46.50236" lon="0.38455">
        <ele>123.8</ele>
        <time>2011-07-03T08:40:17.000Z</time>
      </trkpt>
      <trkpt lat="46.50259" lon="0.38452">
        <ele>124.3</ele>
        <time>2011-07-03T08:40:23.000Z</time>
      </trkpt>
      <trkpt lat="46.50262" lon="0.38452">
        <ele>124.4</ele>
        <time>2011-07-03T08:40:24.000Z</time>
      </trkpt>
      <trkpt lat="46.50265" lon="0.38453">
        <ele>124.5</ele>
        <time>2011-07-03T08:40:25.000Z</time>
      </trkpt>
      <trkpt lat="46.50268" lon="0.38455">
        <ele>124.6</ele>
        <time>2011-07-03T08:40:26.000Z</time>
      </trkpt>
      <trkpt lat="46.50271" lon="0.38455">
        <ele>124.7</ele>
        <time>2011-07-03T08:40:27.000Z</time>
      </trkpt>
      <trkpt lat="46.50273" lon="0.38455">
        <ele>124.8</ele>
        <time>2011-07-03T08:40:28.000Z</time>
      </trkpt>
      <trkpt lat="46.50289" lon="0.38459">
        <ele>125.4</ele>
        <time>2011-07-03T08:40:33.000Z</time>
      </trkpt>
      <trkpt lat="46.50299" lon="0.38463">
        <ele>125.7</ele>
        <time>2011-07-03T08:40:37.000Z</time>
      </trkpt>
      <trkpt lat="46.50302" lon="0.38464">
        <ele>125.9</ele>
        <time>2011-07-03T08:40:38.000Z</time>
      </trkpt>
      <trkpt lat="46.50305" lon="0.38466">
        <ele>126</ele>
        <time>2011-07-03T08:40:39.000Z</time>
      </trkpt>
      <trkpt lat="46.50307" lon="0.38468">
        <ele>126.1</ele>
        <time>2011-07-03T08:40:40.000Z</time>
      </trkpt>
      <trkpt lat="46.5031" lon="0.3847">
        <ele>126.3</ele>
        <time>2011-07-03T08:40:41.000Z</time>
      </trkpt>
      <trkpt lat="46.50326" lon="0.38479">
        <ele>127.5</ele>
        <time>2011-07-03T08:40:46.000Z</time>
      </trkpt>
      <trkpt lat="46.50332" lon="0.38482">
        <ele>127.9</ele>
        <time>2011-07-03T08:40:48.000Z</time>
      </trkpt>
      <trkpt lat="46.50334" lon="0.3848">
        <ele>128.1</ele>
        <time>2011-07-03T08:40:49.000Z</time>
      </trkpt>
      <trkpt lat="46.50335" lon="0.38471">
        <ele>128.1</ele>
        <time>2011-07-03T08:40:53.000Z</time>
      </trkpt>
      <trkpt lat="46.50333" lon="0.38447">
        <ele>127.1</ele>
        <time>2011-07-03T08:40:58.000Z</time>
      </trkpt>
      <trkpt lat="46.50331" lon="0.38438">
        <ele>127.2</ele>
        <time>2011-07-03T08:41:00.000Z</time>
      </trkpt>
      <trkpt lat="46.5033" lon="0.38432">
        <ele>127.3</ele>
        <time>2011-07-03T08:41:01.000Z</time>
      </trkpt>
      <trkpt lat="46.50329" lon="0.38427">
        <ele>127.5</ele>
        <time>2011-07-03T08:41:02.000Z</time>
      </trkpt>
      <trkpt lat="46.50329" lon="0.38423">
        <ele>127.6</ele>
        <time>2011-07-03T08:41:03.000Z</time>
      </trkpt>
      <trkpt lat="46.50328" lon="0.38418">
        <ele>127.7</ele>
        <time>2011-07-03T08:41:04.000Z</time>
      </trkpt>
      <trkpt lat="46.50327" lon="0.38396">
        <ele>128.5</ele>
        <time>2011-07-03T08:41:09.000Z</time>
      </trkpt>
      <trkpt lat="46.50326" lon="0.38373">
        <ele>128.7</ele>
        <time>2011-07-03T08:41:14.000Z</time>
      </trkpt>
      <trkpt lat="46.50326" lon="0.38369">
        <ele>128.7</ele>
        <time>2011-07-03T08:41:15.000Z</time>
      </trkpt>
      <trkpt lat="46.50326" lon="0.38365">
        <ele>128.7</ele>
        <time>2011-07-03T08:41:16.000Z</time>
      </trkpt>
      <trkpt lat="46.50327" lon="0.38361">
        <ele>128.8</ele>
        <time>2011-07-03T08:41:17.000Z</time>
      </trkpt>
      <trkpt lat="46.50328" lon="0.38356">
        <ele>129</ele>
        <time>2011-07-03T08:41:18.000Z</time>
      </trkpt>
      <trkpt lat="46.50329" lon="0.38351">
        <ele>129.2</ele>
        <time>2011-07-03T08:41:19.000Z</time>
      </trkpt>
      <trkpt lat="46.50332" lon="0.38339">
        <ele>129.8</ele>
        <time>2011-07-03T08:41:22.000Z</time>
      </trkpt>
      <trkpt lat="46.50331" lon="0.38335">
        <ele>129.9</ele>
        <time>2011-07-03T08:41:23.000Z</time>
      </trkpt>
      <trkpt lat="46.50318" lon="0.38311">
        <ele>130.3</ele>
        <time>2011-07-03T08:41:29.000Z</time>
      </trkpt>
      <trkpt lat="46.50312" lon="0.38304">
        <ele>130.9</ele>
        <time>2011-07-03T08:41:31.000Z</time>
      </trkpt>
      <trkpt lat="46.50308" lon="0.383">
        <ele>131.1</ele>
        <time>2011-07-03T08:41:32.000Z</time>
      </trkpt>
      <trkpt lat="46.50305" lon="0.38296">
        <ele>131.3</ele>
        <time>2011-07-03T08:41:33.000Z</time>
      </trkpt>
      <trkpt lat="46.50302" lon="0.38293">
        <ele>131.4</ele>
        <time>2011-07-03T08:41:34.000Z</time>
      </trkpt>
      <trkpt lat="46.50299" lon="0.3829">
        <ele>131.6</ele>
        <time>2011-07-03T08:41:35.000Z</time>
      </trkpt>
      <trkpt lat="46.50283" lon="0.38272">
        <ele>132.2</ele>
        <time>2011-07-03T08:41:40.000Z</time>
      </trkpt>
      <trkpt lat="46.50276" lon="0.38261">
        <ele>132.6</ele>
        <time>2011-07-03T08:41:42.000Z</time>
      </trkpt>
      <trkpt lat="46.50264" lon="0.3824">
        <ele>133</ele>
        <time>2011-07-03T08:41:46.000Z</time>
      </trkpt>
      <trkpt lat="46.50251" lon="0.38219">
        <ele>133</ele>
        <time>2011-07-03T08:41:50.000Z</time>
      </trkpt>
      <trkpt lat="46.50248" lon="0.38213">
        <ele>132.9</ele>
        <time>2011-07-03T08:41:51.000Z</time>
      </trkpt>
      <trkpt lat="46.50244" lon="0.38208">
        <ele>132.9</ele>
        <time>2011-07-03T08:41:52.000Z</time>
      </trkpt>
      <trkpt lat="46.50241" lon="0.38203">
        <ele>132.9</ele>
        <time>2011-07-03T08:41:53.000Z</time>
      </trkpt>
      <trkpt lat="46.50237" lon="0.38198">
        <ele>132.9</ele>
        <time>2011-07-03T08:41:54.000Z</time>
      </trkpt>
      <trkpt lat="46.50232" lon="0.38194">
        <ele>133</ele>
        <time>2011-07-03T08:41:55.000Z</time>
      </trkpt>
      <trkpt lat="46.50228" lon="0.3819">
        <ele>133.1</ele>
        <time>2011-07-03T08:41:56.000Z</time>
      </trkpt>
      <trkpt lat="46.50217" lon="0.38176">
        <ele>133.7</ele>
        <time>2011-07-03T08:42:00.000Z</time>
      </trkpt>
      <trkpt lat="46.50217" lon="0.38172">
        <ele>133.8</ele>
        <time>2011-07-03T08:42:01.000Z</time>
      </trkpt>
      <trkpt lat="46.50224" lon="0.3816">
        <ele>134</ele>
        <time>2011-07-03T08:42:04.000Z</time>
      </trkpt>
      <trkpt lat="46.50228" lon="0.38156">
        <ele>134</ele>
        <time>2011-07-03T08:42:05.000Z</time>
      </trkpt>
      <trkpt lat="46.50241" lon="0.38138">
        <ele>134</ele>
        <time>2011-07-03T08:42:09.000Z</time>
      </trkpt>
      <trkpt lat="46.5025" lon="0.38131">
        <ele>134.3</ele>
        <time>2011-07-03T08:42:11.000Z</time>
      </trkpt>
      <trkpt lat="46.50264" lon="0.38126">
        <ele>134.2</ele>
        <time>2011-07-03T08:42:14.000Z</time>
      </trkpt>
      <trkpt lat="46.50269" lon="0.38124">
        <ele>134.2</ele>
        <time>2011-07-03T08:42:15.000Z</time>
      </trkpt>
      <trkpt lat="46.50275" lon="0.38124">
        <ele>134.1</ele>
        <time>2011-07-03T08:42:16.000Z</time>
      </trkpt>
      <trkpt lat="46.5028" lon="0.38124">
        <ele>134</ele>
        <time>2011-07-03T08:42:17.000Z</time>
      </trkpt>
      <trkpt lat="46.50285" lon="0.38124">
        <ele>134</ele>
        <time>2011-07-03T08:42:18.000Z</time>
      </trkpt>
      <trkpt lat="46.50289" lon="0.38126">
        <ele>134</ele>
        <time>2011-07-03T08:42:19.000Z</time>
      </trkpt>
      <trkpt lat="46.50299" lon="0.38127">
        <ele>134</ele>
        <time>2011-07-03T08:42:21.000Z</time>
      </trkpt>
      <trkpt lat="46.50312" lon="0.38122">
        <ele>134</ele>
        <time>2011-07-03T08:42:24.000Z</time>
      </trkpt>
      <trkpt lat="46.50317" lon="0.38119">
        <ele>134</ele>
        <time>2011-07-03T08:42:25.000Z</time>
      </trkpt>
      <trkpt lat="46.50331" lon="0.38103">
        <ele>134</ele>
        <time>2011-07-03T08:42:29.000Z</time>
      </trkpt>
      <trkpt lat="46.50339" lon="0.38093">
        <ele>134</ele>
        <time>2011-07-03T08:42:31.000Z</time>
      </trkpt>
      <trkpt lat="46.5035" lon="0.38076">
        <ele>134.1</ele>
        <time>2011-07-03T08:42:34.000Z</time>
      </trkpt>
      <trkpt lat="46.50354" lon="0.3807">
        <ele>134.1</ele>
        <time>2011-07-03T08:42:35.000Z</time>
      </trkpt>
      <trkpt lat="46.50361" lon="0.38059">
        <ele>134</ele>
        <time>2011-07-03T08:42:37.000Z</time>
      </trkpt>
      <trkpt lat="46.50369" lon="0.3805">
        <ele>134.2</ele>
        <time>2011-07-03T08:42:39.000Z</time>
      </trkpt>
      <trkpt lat="46.50373" lon="0.38045">
        <ele>134.2</ele>
        <time>2011-07-03T08:42:40.000Z</time>
      </trkpt>
      <trkpt lat="46.50381" lon="0.38041">
        <ele>134.1</ele>
        <time>2011-07-03T08:42:42.000Z</time>
      </trkpt>
      <trkpt lat="46.50389" lon="0.38043">
        <ele>134</ele>
        <time>2011-07-03T08:42:44.000Z</time>
      </trkpt>
      <trkpt lat="46.50393" lon="0.38047">
        <ele>134</ele>
        <time>2011-07-03T08:42:45.000Z</time>
      </trkpt>
      <trkpt lat="46.50402" lon="0.38055">
        <ele>134</ele>
        <time>2011-07-03T08:42:47.000Z</time>
      </trkpt>
      <trkpt lat="46.5042" lon="0.38069">
        <ele>134</ele>
        <time>2011-07-03T08:42:51.000Z</time>
      </trkpt>
      <trkpt lat="46.50445" lon="0.38086">
        <ele>133</ele>
        <time>2011-07-03T08:42:56.000Z</time>
      </trkpt>
      <trkpt lat="46.50451" lon="0.38089">
        <ele>133</ele>
        <time>2011-07-03T08:42:57.000Z</time>
      </trkpt>
      <trkpt lat="46.5047" lon="0.38105">
        <ele>133</ele>
        <time>2011-07-03T08:43:01.000Z</time>
      </trkpt>
      <trkpt lat="46.50489" lon="0.38115">
        <ele>132.9</ele>
        <time>2011-07-03T08:43:05.000Z</time>
      </trkpt>
      <trkpt lat="46.50498" lon="0.38109">
        <ele>133</ele>
        <time>2011-07-03T08:43:08.000Z</time>
      </trkpt>
      <trkpt lat="46.50502" lon="0.38104">
        <ele>132.9</ele>
        <time>2011-07-03T08:43:09.000Z</time>
      </trkpt>
      <trkpt lat="46.50513" lon="0.3809">
        <ele>132.5</ele>
        <time>2011-07-03T08:43:12.000Z</time>
      </trkpt>
      <trkpt lat="46.50514" lon="0.38083">
        <ele>132.5</ele>
        <time>2011-07-03T08:43:13.000Z</time>
      </trkpt>
      <trkpt lat="46.50512" lon="0.38054">
        <ele>132.5</ele>
        <time>2011-07-03T08:43:18.000Z</time>
      </trkpt>
      <trkpt lat="46.50512" lon="0.38047">
        <ele>132.4</ele>
        <time>2011-07-03T08:43:19.000Z</time>
      </trkpt>
      <trkpt lat="46.5051" lon="0.38022">
        <ele>131.9</ele>
        <time>2011-07-03T08:43:22.000Z</time>
      </trkpt>
      <trkpt lat="46.50509" lon="0.38013">
        <ele>131.8</ele>
        <time>2011-07-03T08:43:23.000Z</time>
      </trkpt>
      <trkpt lat="46.50499" lon="0.37973">
        <ele>131.1</ele>
        <time>2011-07-03T08:43:28.000Z</time>
      </trkpt>
      <trkpt lat="46.50497" lon="0.37945">
        <ele>130.2</ele>
        <time>2011-07-03T08:43:31.000Z</time>
      </trkpt>
      <trkpt lat="46.50497" lon="0.37925">
        <ele>129.5</ele>
        <time>2011-07-03T08:43:33.000Z</time>
      </trkpt>
      <trkpt lat="46.50496" lon="0.37906">
        <ele>129.3</ele>
        <time>2011-07-03T08:43:35.000Z</time>
      </trkpt>
      <trkpt lat="46.50492" lon="0.37888">
        <ele>129.6</ele>
        <time>2011-07-03T08:43:37.000Z</time>
      </trkpt>
      <trkpt lat="46.50479" lon="0.37864">
        <ele>129.7</ele>
        <time>2011-07-03T08:43:40.000Z</time>
      </trkpt>
      <trkpt lat="46.50474" lon="0.37857">
        <ele>129.9</ele>
        <time>2011-07-03T08:43:41.000Z</time>
      </trkpt>
      <trkpt lat="46.50471" lon="0.3785">
        <ele>130.1</ele>
        <time>2011-07-03T08:43:42.000Z</time>
      </trkpt>
      <trkpt lat="46.5047" lon="0.37842">
        <ele>130.2</ele>
        <time>2011-07-03T08:43:43.000Z</time>
      </trkpt>
      <trkpt lat="46.50469" lon="0.37835">
        <ele>130.3</ele>
        <time>2011-07-03T08:43:44.000Z</time>
      </trkpt>
      <trkpt lat="46.50468" lon="0.37826">
        <ele>130.3</ele>
        <time>2011-07-03T08:43:45.000Z</time>
      </trkpt>
      <trkpt lat="46.50468" lon="0.37818">
        <ele>130.3</ele>
        <time>2011-07-03T08:43:46.000Z</time>
      </trkpt>
      <trkpt lat="46.50469" lon="0.37797">
        <ele>130.2</ele>
        <time>2011-07-03T08:43:48.000Z</time>
      </trkpt>
      <trkpt lat="46.50475" lon="0.37757">
        <ele>129</ele>
        <time>2011-07-03T08:43:52.000Z</time>
      </trkpt>
      <trkpt lat="46.50479" lon="0.37737">
        <ele>128.1</ele>
        <time>2011-07-03T08:43:54.000Z</time>
      </trkpt>
      <trkpt lat="46.50485" lon="0.37718">
        <ele>126.9</ele>
        <time>2011-07-03T08:43:56.000Z</time>
      </trkpt>
      <trkpt lat="46.50489" lon="0.37711">
        <ele>126.4</ele>
        <time>2011-07-03T08:43:57.000Z</time>
      </trkpt>
      <trkpt lat="46.50492" lon="0.37705">
        <ele>125.9</ele>
        <time>2011-07-03T08:43:58.000Z</time>
      </trkpt>
      <trkpt lat="46.50495" lon="0.377">
        <ele>125.5</ele>
        <time>2011-07-03T08:43:59.000Z</time>
      </trkpt>
      <trkpt lat="46.50498" lon="0.37694">
        <ele>125.1</ele>
        <time>2011-07-03T08:44:00.000Z</time>
      </trkpt>
      <trkpt lat="46.50503" lon="0.37688">
        <ele>124.5</ele>
        <time>2011-07-03T08:44:01.000Z</time>
      </trkpt>
      <trkpt lat="46.50507" lon="0.37681">
        <ele>124</ele>
        <time>2011-07-03T08:44:02.000Z</time>
      </trkpt>
      <trkpt lat="46.50511" lon="0.37676">
        <ele>123.5</ele>
        <time>2011-07-03T08:44:03.000Z</time>
      </trkpt>
      <trkpt lat="46.50513" lon="0.37669">
        <ele>123.2</ele>
        <time>2011-07-03T08:44:04.000Z</time>
      </trkpt>
      <trkpt lat="46.50513" lon="0.37663">
        <ele>123.1</ele>
        <time>2011-07-03T08:44:05.000Z</time>
      </trkpt>
      <trkpt lat="46.50512" lon="0.37657">
        <ele>123.3</ele>
        <time>2011-07-03T08:44:06.000Z</time>
      </trkpt>
      <trkpt lat="46.5051" lon="0.37653">
        <ele>123.4</ele>
        <time>2011-07-03T08:44:07.000Z</time>
      </trkpt>
      <trkpt lat="46.50506" lon="0.37649">
        <ele>123.7</ele>
        <time>2011-07-03T08:44:08.000Z</time>
      </trkpt>
      <trkpt lat="46.50501" lon="0.37645">
        <ele>123.9</ele>
        <time>2011-07-03T08:44:09.000Z</time>
      </trkpt>
      <trkpt lat="46.50496" lon="0.3764">
        <ele>124.3</ele>
        <time>2011-07-03T08:44:10.000Z</time>
      </trkpt>
      <trkpt lat="46.50492" lon="0.37636">
        <ele>124.6</ele>
        <time>2011-07-03T08:44:11.000Z</time>
      </trkpt>
      <trkpt lat="46.50487" lon="0.37632">
        <ele>125</ele>
        <time>2011-07-03T08:44:12.000Z</time>
      </trkpt>
      <trkpt lat="46.50478" lon="0.37627">
        <ele>125.3</ele>
        <time>2011-07-03T08:44:14.000Z</time>
      </trkpt>
      <trkpt lat="46.5047" lon="0.37624">
        <ele>125.6</ele>
        <time>2011-07-03T08:44:16.000Z</time>
      </trkpt>
      <trkpt lat="46.50462" lon="0.3762">
        <ele>126</ele>
        <time>2011-07-03T08:44:18.000Z</time>
      </trkpt>
      <trkpt lat="46.50457" lon="0.37616">
        <ele>126.3</ele>
        <time>2011-07-03T08:44:19.000Z</time>
      </trkpt>
      <trkpt lat="46.50453" lon="0.37613">
        <ele>126.5</ele>
        <time>2011-07-03T08:44:20.000Z</time>
      </trkpt>
      <trkpt lat="46.50449" lon="0.3761">
        <ele>126.7</ele>
        <time>2011-07-03T08:44:21.000Z</time>
      </trkpt>
      <trkpt lat="46.50444" lon="0.37607">
        <ele>127</ele>
        <time>2011-07-03T08:44:22.000Z</time>
      </trkpt>
      <trkpt lat="46.50433" lon="0.37598">
        <ele>127.6</ele>
        <time>2011-07-03T08:44:25.000Z</time>
      </trkpt>
      <trkpt lat="46.50415" lon="0.37582">
        <ele>128</ele>
        <time>2011-07-03T08:44:30.000Z</time>
      </trkpt>
      <trkpt lat="46.504" lon="0.37567">
        <ele>128.6</ele>
        <time>2011-07-03T08:44:34.000Z</time>
      </trkpt>
      <trkpt lat="46.50397" lon="0.37564">
        <ele>128.7</ele>
        <time>2011-07-03T08:44:35.000Z</time>
      </trkpt>
      <trkpt lat="46.50394" lon="0.37561">
        <ele>128.8</ele>
        <time>2011-07-03T08:44:36.000Z</time>
      </trkpt>
      <trkpt lat="46.50392" lon="0.37558">
        <ele>128.9</ele>
        <time>2011-07-03T08:44:37.000Z</time>
      </trkpt>
      <trkpt lat="46.50391" lon="0.37553">
        <ele>128.9</ele>
        <time>2011-07-03T08:44:38.000Z</time>
      </trkpt>
      <trkpt lat="46.50391" lon="0.37549">
        <ele>128.9</ele>
        <time>2011-07-03T08:44:39.000Z</time>
      </trkpt>
      <trkpt lat="46.50399" lon="0.37534">
        <ele>128.6</ele>
        <time>2011-07-03T08:44:43.000Z</time>
      </trkpt>
      <trkpt lat="46.50401" lon="0.37531">
        <ele>128.6</ele>
        <time>2011-07-03T08:44:44.000Z</time>
      </trkpt>
      <trkpt lat="46.50403" lon="0.37528">
        <ele>128.5</ele>
        <time>2011-07-03T08:44:45.000Z</time>
      </trkpt>
      <trkpt lat="46.50405" lon="0.37525">
        <ele>128.5</ele>
        <time>2011-07-03T08:44:46.000Z</time>
      </trkpt>
      <trkpt lat="46.50407" lon="0.37523">
        <ele>128.5</ele>
        <time>2011-07-03T08:44:47.000Z</time>
      </trkpt>
      <trkpt lat="46.50409" lon="0.37521">
        <ele>128.5</ele>
        <time>2011-07-03T08:44:48.000Z</time>
      </trkpt>
      <trkpt lat="46.50416" lon="0.37506">
        <ele>128.8</ele>
        <time>2011-07-03T08:44:53.000Z</time>
      </trkpt>
      <trkpt lat="46.50418" lon="0.37501">
        <ele>129</ele>
        <time>2011-07-03T08:44:54.000Z</time>
      </trkpt>
      <trkpt lat="46.5042" lon="0.37497">
        <ele>129.2</ele>
        <time>2011-07-03T08:44:55.000Z</time>
      </trkpt>
      <trkpt lat="46.50423" lon="0.37495">
        <ele>129.4</ele>
        <time>2011-07-03T08:44:56.000Z</time>
      </trkpt>
      <trkpt lat="46.50425" lon="0.37492">
        <ele>129.6</ele>
        <time>2011-07-03T08:44:57.000Z</time>
      </trkpt>
      <trkpt lat="46.50428" lon="0.3749">
        <ele>129.8</ele>
        <time>2011-07-03T08:44:58.000Z</time>
      </trkpt>
      <trkpt lat="46.5043" lon="0.37486">
        <ele>130</ele>
        <time>2011-07-03T08:44:59.000Z</time>
      </trkpt>
      <trkpt lat="46.50434" lon="0.37478">
        <ele>130.4</ele>
        <time>2011-07-03T08:45:01.000Z</time>
      </trkpt>
      <trkpt lat="46.5045" lon="0.37446">
        <ele>131.9</ele>
        <time>2011-07-03T08:45:08.000Z</time>
      </trkpt>
      <trkpt lat="46.50457" lon="0.37433">
        <ele>132</ele>
        <time>2011-07-03T08:45:11.000Z</time>
      </trkpt>
      <trkpt lat="46.5046" lon="0.37428">
        <ele>132</ele>
        <time>2011-07-03T08:45:12.000Z</time>
      </trkpt>
      <trkpt lat="46.50462" lon="0.37424">
        <ele>132</ele>
        <time>2011-07-03T08:45:13.000Z</time>
      </trkpt>
      <trkpt lat="46.50465" lon="0.37419">
        <ele>132</ele>
        <time>2011-07-03T08:45:14.000Z</time>
      </trkpt>
      <trkpt lat="46.50468" lon="0.37415">
        <ele>132</ele>
        <time>2011-07-03T08:45:15.000Z</time>
      </trkpt>
      <trkpt lat="46.5048" lon="0.37391">
        <ele>132</ele>
        <time>2011-07-03T08:45:19.000Z</time>
      </trkpt>
      <trkpt lat="46.50494" lon="0.37367">
        <ele>132</ele>
        <time>2011-07-03T08:45:24.000Z</time>
      </trkpt>
      <trkpt lat="46.50503" lon="0.37353">
        <ele>132</ele>
        <time>2011-07-03T08:45:27.000Z</time>
      </trkpt>
      <trkpt lat="46.50516" lon="0.37342">
        <ele>131.6</ele>
        <time>2011-07-03T08:45:30.000Z</time>
      </trkpt>
      <trkpt lat="46.50524" lon="0.37334">
        <ele>131.1</ele>
        <time>2011-07-03T08:45:32.000Z</time>
      </trkpt>
      <trkpt lat="46.50536" lon="0.37319">
        <ele>130.5</ele>
        <time>2011-07-03T08:45:35.000Z</time>
      </trkpt>
      <trkpt lat="46.50535" lon="0.37299">
        <ele>130.3</ele>
        <time>2011-07-03T08:45:38.000Z</time>
      </trkpt>
      <trkpt lat="46.50528" lon="0.37291">
        <ele>130.5</ele>
        <time>2011-07-03T08:45:40.000Z</time>
      </trkpt>
      <trkpt lat="46.50524" lon="0.37288">
        <ele>130.6</ele>
        <time>2011-07-03T08:45:41.000Z</time>
      </trkpt>
      <trkpt lat="46.50516" lon="0.37282">
        <ele>130.9</ele>
        <time>2011-07-03T08:45:43.000Z</time>
      </trkpt>
      <trkpt lat="46.50507" lon="0.37278">
        <ele>131.5</ele>
        <time>2011-07-03T08:45:45.000Z</time>
      </trkpt>
      <trkpt lat="46.50503" lon="0.37276">
        <ele>131.7</ele>
        <time>2011-07-03T08:45:46.000Z</time>
      </trkpt>
      <trkpt lat="46.50479" lon="0.3726">
        <ele>131.9</ele>
        <time>2011-07-03T08:45:52.000Z</time>
      </trkpt>
      <trkpt lat="46.50463" lon="0.37248">
        <ele>132</ele>
        <time>2011-07-03T08:45:57.000Z</time>
      </trkpt>
      <trkpt lat="46.50464" lon="0.3724">
        <ele>131.8</ele>
        <time>2011-07-03T08:46:00.000Z</time>
      </trkpt>
      <trkpt lat="46.50464" lon="0.37238">
        <ele>131.7</ele>
        <time>2011-07-03T08:46:04.000Z</time>
      </trkpt>
      <trkpt lat="46.50464" lon="0.37238">
        <ele>131.7</ele>
        <time>2011-07-03T08:46:15.000Z</time>
      </trkpt>
      <trkpt lat="46.50464" lon="0.37238">
        <ele>131.7</ele>
        <time>2011-07-03T08:46:17.000Z</time>
      </trkpt>
      <trkpt lat="46.50464" lon="0.37238">
        <ele>131.7</ele>
        <time>2011-07-03T08:46:21.000Z</time>
      </trkpt>
      <trkpt lat="46.50465" lon="0.37235">
        <ele>131.6</ele>
        <time>2011-07-03T08:46:23.000Z</time>
      </trkpt>
      <trkpt lat="46.5047" lon="0.37226">
        <ele>131.2</ele>
        <time>2011-07-03T08:46:26.000Z</time>
      </trkpt>
      <trkpt lat="46.50473" lon="0.37222">
        <ele>131</ele>
        <time>2011-07-03T08:46:27.000Z</time>
      </trkpt>
      <trkpt lat="46.50484" lon="0.37204">
        <ele>130.6</ele>
        <time>2011-07-03T08:46:32.000Z</time>
      </trkpt>
      <trkpt lat="46.50491" lon="0.37198">
        <ele>130.3</ele>
        <time>2011-07-03T08:46:35.000Z</time>
      </trkpt>
      <trkpt lat="46.50494" lon="0.37193">
        <ele>130.2</ele>
        <time>2011-07-03T08:46:37.000Z</time>
      </trkpt>
      <trkpt lat="46.50501" lon="0.37187">
        <ele>129.7</ele>
        <time>2011-07-03T08:46:41.000Z</time>
      </trkpt>
      <trkpt lat="46.50503" lon="0.37187">
        <ele>129.5</ele>
        <time>2011-07-03T08:46:42.000Z</time>
      </trkpt>
      <trkpt lat="46.50504" lon="0.37187">
        <ele>129.5</ele>
        <time>2011-07-03T08:46:43.000Z</time>
      </trkpt>
      <trkpt lat="46.50504" lon="0.37187">
        <ele>129.5</ele>
        <time>2011-07-03T08:46:44.000Z</time>
      </trkpt>
      <trkpt lat="46.50504" lon="0.37187">
        <ele>129.5</ele>
        <time>2011-07-03T08:46:45.000Z</time>
      </trkpt>
      <trkpt lat="46.50505" lon="0.37187">
        <ele>129.4</ele>
        <time>2011-07-03T08:46:46.000Z</time>
      </trkpt>
      <trkpt lat="46.50506" lon="0.37188">
        <ele>129.4</ele>
        <time>2011-07-03T08:46:48.000Z</time>
      </trkpt>
      <trkpt lat="46.50506" lon="0.37188">
        <ele>129.4</ele>
        <time>2011-07-03T08:46:49.000Z</time>
      </trkpt>
      <trkpt lat="46.50505" lon="0.37188">
        <ele>129.5</ele>
        <time>2011-07-03T08:46:50.000Z</time>
      </trkpt>
      <trkpt lat="46.505" lon="0.37189">
        <ele>129.8</ele>
        <time>2011-07-03T08:46:52.000Z</time>
      </trkpt>
      <trkpt lat="46.50491" lon="0.37195">
        <ele>130.3</ele>
        <time>2011-07-03T08:46:55.000Z</time>
      </trkpt>
      <trkpt lat="46.50486" lon="0.37199">
        <ele>130.5</ele>
        <time>2011-07-03T08:46:57.000Z</time>
      </trkpt>
      <trkpt lat="46.50484" lon="0.37201">
        <ele>130.6</ele>
        <time>2011-07-03T08:46:58.000Z</time>
      </trkpt>
      <trkpt lat="46.50479" lon="0.37211">
        <ele>130.8</ele>
        <time>2011-07-03T08:47:01.000Z</time>
      </trkpt>
      <trkpt lat="46.50476" lon="0.37214">
        <ele>130.9</ele>
        <time>2011-07-03T08:47:02.000Z</time>
      </trkpt>
      <trkpt lat="46.50473" lon="0.37217">
        <ele>131</ele>
        <time>2011-07-03T08:47:03.000Z</time>
      </trkpt>
      <trkpt lat="46.5047" lon="0.3722">
        <ele>131.1</ele>
        <time>2011-07-03T08:47:04.000Z</time>
      </trkpt>
      <trkpt lat="46.50467" lon="0.37224">
        <ele>131.2</ele>
        <time>2011-07-03T08:47:05.000Z</time>
      </trkpt>
      <trkpt lat="46.50466" lon="0.37229">
        <ele>131.4</ele>
        <time>2011-07-03T08:47:06.000Z</time>
      </trkpt>
      <trkpt lat="46.5046" lon="0.37241">
        <ele>131.8</ele>
        <time>2011-07-03T08:47:09.000Z</time>
      </trkpt>
      <trkpt lat="46.50458" lon="0.37243">
        <ele>131.9</ele>
        <time>2011-07-03T08:47:10.000Z</time>
      </trkpt>
      <trkpt lat="46.50455" lon="0.37241">
        <ele>131.9</ele>
        <time>2011-07-03T08:47:13.000Z</time>
      </trkpt>
      <trkpt lat="46.50457" lon="0.37243">
        <ele>131.9</ele>
        <time>2011-07-03T08:47:18.000Z</time>
      </trkpt>
      <trkpt lat="46.50459" lon="0.37244">
        <ele>131.9</ele>
        <time>2011-07-03T08:47:19.000Z</time>
      </trkpt>
      <trkpt lat="46.5046" lon="0.37245">
        <ele>131.9</ele>
        <time>2011-07-03T08:47:23.000Z</time>
      </trkpt>
      <trkpt lat="46.50461" lon="0.37245">
        <ele>131.9</ele>
        <time>2011-07-03T08:47:31.000Z</time>
      </trkpt>
      <trkpt lat="46.50461" lon="0.37245">
        <ele>131.9</ele>
        <time>2011-07-03T08:47:36.000Z</time>
      </trkpt>
      <trkpt lat="46.50461" lon="0.37245">
        <ele>131.9</ele>
        <time>2011-07-03T08:47:41.000Z</time>
      </trkpt>
      <trkpt lat="46.50461" lon="0.37245">
        <ele>131.9</ele>
        <time>2011-07-03T08:47:43.000Z</time>
      </trkpt>
      <trkpt lat="46.50461" lon="0.37245">
        <ele>131.9</ele>
        <time>2011-07-03T08:47:46.000Z</time>
      </trkpt>
      <trkpt lat="46.50465" lon="0.37239">
        <ele>131.7</ele>
        <time>2011-07-03T08:47:48.000Z</time>
      </trkpt>
      <trkpt lat="46.50475" lon="0.37221">
        <ele>130.9</ele>
        <time>2011-07-03T08:47:52.000Z</time>
      </trkpt>
      <trkpt lat="46.50479" lon="0.37216">
        <ele>130.8</ele>
        <time>2011-07-03T08:47:53.000Z</time>
      </trkpt>
      <trkpt lat="46.50487" lon="0.37207">
        <ele>130.5</ele>
        <time>2011-07-03T08:47:56.000Z</time>
      </trkpt>
      <trkpt lat="46.50502" lon="0.372">
        <ele>129.9</ele>
        <time>2011-07-03T08:48:00.000Z</time>
      </trkpt>
      <trkpt lat="46.50507" lon="0.37198">
        <ele>129.6</ele>
        <time>2011-07-03T08:48:01.000Z</time>
      </trkpt>
      <trkpt lat="46.50516" lon="0.37193">
        <ele>128.8</ele>
        <time>2011-07-03T08:48:03.000Z</time>
      </trkpt>
      <trkpt lat="46.50521" lon="0.3719">
        <ele>128.5</ele>
        <time>2011-07-03T08:48:04.000Z</time>
      </trkpt>
      <trkpt lat="46.50526" lon="0.37186">
        <ele>128.1</ele>
        <time>2011-07-03T08:48:05.000Z</time>
      </trkpt>
      <trkpt lat="46.50531" lon="0.37182">
        <ele>127.8</ele>
        <time>2011-07-03T08:48:06.000Z</time>
      </trkpt>
      <trkpt lat="46.50535" lon="0.37178">
        <ele>127.5</ele>
        <time>2011-07-03T08:48:07.000Z</time>
      </trkpt>
      <trkpt lat="46.5054" lon="0.37175">
        <ele>127.1</ele>
        <time>2011-07-03T08:48:08.000Z</time>
      </trkpt>
      <trkpt lat="46.50545" lon="0.3717">
        <ele>126.8</ele>
        <time>2011-07-03T08:48:09.000Z</time>
      </trkpt>
      <trkpt lat="46.50554" lon="0.37163">
        <ele>126.1</ele>
        <time>2011-07-03T08:48:11.000Z</time>
      </trkpt>
      <trkpt lat="46.5056" lon="0.37165">
        <ele>125.9</ele>
        <time>2011-07-03T08:48:13.000Z</time>
      </trkpt>
      <trkpt lat="46.50561" lon="0.37169">
        <ele>125.8</ele>
        <time>2011-07-03T08:48:14.000Z</time>
      </trkpt>
      <trkpt lat="46.50561" lon="0.37174">
        <ele>125.8</ele>
        <time>2011-07-03T08:48:15.000Z</time>
      </trkpt>
      <trkpt lat="46.50561" lon="0.37181">
        <ele>125.8</ele>
        <time>2011-07-03T08:48:16.000Z</time>
      </trkpt>
      <trkpt lat="46.5056" lon="0.37188">
        <ele>125.8</ele>
        <time>2011-07-03T08:48:17.000Z</time>
      </trkpt>
      <trkpt lat="46.50555" lon="0.3721">
        <ele>126.6</ele>
        <time>2011-07-03T08:48:20.000Z</time>
      </trkpt>
      <trkpt lat="46.50551" lon="0.37222">
        <ele>127.3</ele>
        <time>2011-07-03T08:48:22.000Z</time>
      </trkpt>
      <trkpt lat="46.50551" lon="0.37233">
        <ele>127.7</ele>
        <time>2011-07-03T08:48:24.000Z</time>
      </trkpt>
      <trkpt lat="46.50552" lon="0.37239">
        <ele>127.9</ele>
        <time>2011-07-03T08:48:25.000Z</time>
      </trkpt>
      <trkpt lat="46.50553" lon="0.3725">
        <ele>128.2</ele>
        <time>2011-07-03T08:48:27.000Z</time>
      </trkpt>
      <trkpt lat="46.50554" lon="0.37255">
        <ele>128.3</ele>
        <time>2011-07-03T08:48:28.000Z</time>
      </trkpt>
      <trkpt lat="46.50555" lon="0.37261">
        <ele>128.4</ele>
        <time>2011-07-03T08:48:29.000Z</time>
      </trkpt>
      <trkpt lat="46.50556" lon="0.37266">
        <ele>128.5</ele>
        <time>2011-07-03T08:48:30.000Z</time>
      </trkpt>
      <trkpt lat="46.50557" lon="0.37271">
        <ele>128.7</ele>
        <time>2011-07-03T08:48:31.000Z</time>
      </trkpt>
      <trkpt lat="46.50555" lon="0.37286">
        <ele>129</ele>
        <time>2011-07-03T08:48:34.000Z</time>
      </trkpt>
      <trkpt lat="46.50552" lon="0.37294">
        <ele>129.2</ele>
        <time>2011-07-03T08:48:36.000Z</time>
      </trkpt>
      <trkpt lat="46.50554" lon="0.37301">
        <ele>129.1</ele>
        <time>2011-07-03T08:48:38.000Z</time>
      </trkpt>
      <trkpt lat="46.50557" lon="0.37326">
        <ele>129.6</ele>
        <time>2011-07-03T08:48:44.000Z</time>
      </trkpt>
      <trkpt lat="46.50556" lon="0.37348">
        <ele>129.9</ele>
        <time>2011-07-03T08:48:48.000Z</time>
      </trkpt>
      <trkpt lat="46.50557" lon="0.37355">
        <ele>129.9</ele>
        <time>2011-07-03T08:48:49.000Z</time>
      </trkpt>
      <trkpt lat="46.50565" lon="0.37372">
        <ele>129.3</ele>
        <time>2011-07-03T08:48:52.000Z</time>
      </trkpt>
      <trkpt lat="46.50572" lon="0.37382">
        <ele>128.8</ele>
        <time>2011-07-03T08:48:54.000Z</time>
      </trkpt>
      <trkpt lat="46.50579" lon="0.37385">
        <ele>128.3</ele>
        <time>2011-07-03T08:48:56.000Z</time>
      </trkpt>
      <trkpt lat="46.50582" lon="0.37385">
        <ele>128.1</ele>
        <time>2011-07-03T08:48:57.000Z</time>
      </trkpt>
      <trkpt lat="46.50585" lon="0.37383">
        <ele>127.9</ele>
        <time>2011-07-03T08:48:58.000Z</time>
      </trkpt>
      <trkpt lat="46.50599" lon="0.37359">
        <ele>126.8</ele>
        <time>2011-07-03T08:49:02.000Z</time>
      </trkpt>
      <trkpt lat="46.50609" lon="0.37336">
        <ele>126.1</ele>
        <time>2011-07-03T08:49:05.000Z</time>
      </trkpt>
      <trkpt lat="46.50612" lon="0.37329">
        <ele>125.7</ele>
        <time>2011-07-03T08:49:06.000Z</time>
      </trkpt>
      <trkpt lat="46.50614" lon="0.37322">
        <ele>125.3</ele>
        <time>2011-07-03T08:49:07.000Z</time>
      </trkpt>
      <trkpt lat="46.50614" lon="0.37317">
        <ele>125.1</ele>
        <time>2011-07-03T08:49:08.000Z</time>
      </trkpt>
      <trkpt lat="46.50614" lon="0.37312">
        <ele>125</ele>
        <time>2011-07-03T08:49:09.000Z</time>
      </trkpt>
      <trkpt lat="46.50614" lon="0.37306">
        <ele>124.8</ele>
        <time>2011-07-03T08:49:10.000Z</time>
      </trkpt>
      <trkpt lat="46.50613" lon="0.373">
        <ele>124.9</ele>
        <time>2011-07-03T08:49:11.000Z</time>
      </trkpt>
      <trkpt lat="46.50612" lon="0.37294">
        <ele>124.9</ele>
        <time>2011-07-03T08:49:12.000Z</time>
      </trkpt>
      <trkpt lat="46.50611" lon="0.37288">
        <ele>125</ele>
        <time>2011-07-03T08:49:13.000Z</time>
      </trkpt>
      <trkpt lat="46.50613" lon="0.37282">
        <ele>124.9</ele>
        <time>2011-07-03T08:49:14.000Z</time>
      </trkpt>
      <trkpt lat="46.50619" lon="0.37258">
        <ele>123.9</ele>
        <time>2011-07-03T08:49:18.000Z</time>
      </trkpt>
      <trkpt lat="46.50621" lon="0.37252">
        <ele>123.7</ele>
        <time>2011-07-03T08:49:19.000Z</time>
      </trkpt>
      <trkpt lat="46.50622" lon="0.3724">
        <ele>123.9</ele>
        <time>2011-07-03T08:49:21.000Z</time>
      </trkpt>
      <trkpt lat="46.50617" lon="0.3723">
        <ele>124.1</ele>
        <time>2011-07-03T08:49:24.000Z</time>
      </trkpt>
      <trkpt lat="46.50613" lon="0.37211">
        <ele>124.1</ele>
        <time>2011-07-03T08:49:28.000Z</time>
      </trkpt>
      <trkpt lat="46.50618" lon="0.37203">
        <ele>124.4</ele>
        <time>2011-07-03T08:49:31.000Z</time>
      </trkpt>
      <trkpt lat="46.5062" lon="0.37197">
        <ele>124.6</ele>
        <time>2011-07-03T08:49:32.000Z</time>
      </trkpt>
      <trkpt lat="46.50627" lon="0.37179">
        <ele>125.9</ele>
        <time>2011-07-03T08:49:36.000Z</time>
      </trkpt>
      <trkpt lat="46.50627" lon="0.37175">
        <ele>126.2</ele>
        <time>2011-07-03T08:49:37.000Z</time>
      </trkpt>
      <trkpt lat="46.50628" lon="0.3717">
        <ele>126.4</ele>
        <time>2011-07-03T08:49:38.000Z</time>
      </trkpt>
      <trkpt lat="46.50628" lon="0.37166">
        <ele>126.6</ele>
        <time>2011-07-03T08:49:39.000Z</time>
      </trkpt>
      <trkpt lat="46.50628" lon="0.37161">
        <ele>126.9</ele>
        <time>2011-07-03T08:49:40.000Z</time>
      </trkpt>
      <trkpt lat="46.50628" lon="0.37157">
        <ele>127.2</ele>
        <time>2011-07-03T08:49:41.000Z</time>
      </trkpt>
      <trkpt lat="46.50629" lon="0.37153">
        <ele>127.5</ele>
        <time>2011-07-03T08:49:42.000Z</time>
      </trkpt>
      <trkpt lat="46.5063" lon="0.37149">
        <ele>127.8</ele>
        <time>2011-07-03T08:49:43.000Z</time>
      </trkpt>
      <trkpt lat="46.50632" lon="0.37147">
        <ele>128</ele>
        <time>2011-07-03T08:49:44.000Z</time>
      </trkpt>
      <trkpt lat="46.50633" lon="0.37145">
        <ele>128.2</ele>
        <time>2011-07-03T08:49:45.000Z</time>
      </trkpt>
      <trkpt lat="46.50641" lon="0.37149">
        <ele>128.4</ele>
        <time>2011-07-03T08:49:49.000Z</time>
      </trkpt>
      <trkpt lat="46.50653" lon="0.37154">
        <ele>129</ele>
        <time>2011-07-03T08:49:53.000Z</time>
      </trkpt>
      <trkpt lat="46.50659" lon="0.37153">
        <ele>129.5</ele>
        <time>2011-07-03T08:49:56.000Z</time>
      </trkpt>
      <trkpt lat="46.5066" lon="0.37151">
        <ele>129.6</ele>
        <time>2011-07-03T08:49:57.000Z</time>
      </trkpt>
      <trkpt lat="46.50655" lon="0.37141">
        <ele>130</ele>
        <time>2011-07-03T08:50:00.000Z</time>
      </trkpt>
      <trkpt lat="46.50654" lon="0.37137">
        <ele>130.2</ele>
        <time>2011-07-03T08:50:01.000Z</time>
      </trkpt>
      <trkpt lat="46.50655" lon="0.37132">
        <ele>130.4</ele>
        <time>2011-07-03T08:50:02.000Z</time>
      </trkpt>
      <trkpt lat="46.50656" lon="0.37128">
        <ele>130.6</ele>
        <time>2011-07-03T08:50:03.000Z</time>
      </trkpt>
      <trkpt lat="46.50656" lon="0.37125">
        <ele>130.7</ele>
        <time>2011-07-03T08:50:04.000Z</time>
      </trkpt>
      <trkpt lat="46.50656" lon="0.37123">
        <ele>130.8</ele>
        <time>2011-07-03T08:50:05.000Z</time>
      </trkpt>
      <trkpt lat="46.50661" lon="0.37121">
        <ele>131.3</ele>
        <time>2011-07-03T08:50:09.000Z</time>
      </trkpt>
      <trkpt lat="46.50663" lon="0.37123">
        <ele>131.3</ele>
        <time>2011-07-03T08:50:10.000Z</time>
      </trkpt>
      <trkpt lat="46.50667" lon="0.37123">
        <ele>131.6</ele>
        <time>2011-07-03T08:50:13.000Z</time>
      </trkpt>
      <trkpt lat="46.50669" lon="0.37119">
        <ele>131.8</ele>
        <time>2011-07-03T08:50:14.000Z</time>
      </trkpt>
      <trkpt lat="46.50666" lon="0.37108">
        <ele>132</ele>
        <time>2011-07-03T08:50:17.000Z</time>
      </trkpt>
      <trkpt lat="46.50667" lon="0.37104">
        <ele>132</ele>
        <time>2011-07-03T08:50:18.000Z</time>
      </trkpt>
      <trkpt lat="46.50668" lon="0.37103">
        <ele>132.1</ele>
        <time>2011-07-03T08:50:20.000Z</time>
      </trkpt>
      <trkpt lat="46.50672" lon="0.37105">
        <ele>132.2</ele>
        <time>2011-07-03T08:50:24.000Z</time>
      </trkpt>
      <trkpt lat="46.50674" lon="0.37106">
        <ele>132.3</ele>
        <time>2011-07-03T08:50:26.000Z</time>
      </trkpt>
      <trkpt lat="46.50684" lon="0.37099">
        <ele>132.9</ele>
        <time>2011-07-03T08:50:31.000Z</time>
      </trkpt>
      <trkpt lat="46.50682" lon="0.37085">
        <ele>133.1</ele>
        <time>2011-07-03T08:50:35.000Z</time>
      </trkpt>
      <trkpt lat="46.5068" lon="0.3708">
        <ele>133.1</ele>
        <time>2011-07-03T08:50:37.000Z</time>
      </trkpt>
      <trkpt lat="46.50678" lon="0.37078">
        <ele>133</ele>
        <time>2011-07-03T08:50:38.000Z</time>
      </trkpt>
      <trkpt lat="46.50676" lon="0.37078">
        <ele>132.9</ele>
        <time>2011-07-03T08:50:39.000Z</time>
      </trkpt>
      <trkpt lat="46.50674" lon="0.37079">
        <ele>132.7</ele>
        <time>2011-07-03T08:50:40.000Z</time>
      </trkpt>
      <trkpt lat="46.5067" lon="0.37081">
        <ele>132.3</ele>
        <time>2011-07-03T08:50:41.000Z</time>
      </trkpt>
      <trkpt lat="46.50667" lon="0.37084">
        <ele>132</ele>
        <time>2011-07-03T08:50:42.000Z</time>
      </trkpt>
      <trkpt lat="46.50663" lon="0.37086">
        <ele>131.9</ele>
        <time>2011-07-03T08:50:43.000Z</time>
      </trkpt>
      <trkpt lat="46.50652" lon="0.37085">
        <ele>131.4</ele>
        <time>2011-07-03T08:50:46.000Z</time>
      </trkpt>
      <trkpt lat="46.50653" lon="0.3707">
        <ele>132</ele>
        <time>2011-07-03T08:50:49.000Z</time>
      </trkpt>
      <trkpt lat="46.50662" lon="0.37056">
        <ele>132.8</ele>
        <time>2011-07-03T08:50:53.000Z</time>
      </trkpt>
      <trkpt lat="46.50672" lon="0.3706">
        <ele>133.2</ele>
        <time>2011-07-03T08:50:57.000Z</time>
      </trkpt>
      <trkpt lat="46.50683" lon="0.37058">
        <ele>134.1</ele>
        <time>2011-07-03T08:51:01.000Z</time>
      </trkpt>
      <trkpt lat="46.50684" lon="0.37057">
        <ele>134.2</ele>
        <time>2011-07-03T08:51:02.000Z</time>
      </trkpt>
      <trkpt lat="46.5069" lon="0.37052">
        <ele>134.8</ele>
        <time>2011-07-03T08:51:05.000Z</time>
      </trkpt>
      <trkpt lat="46.50692" lon="0.37052">
        <ele>134.9</ele>
        <time>2011-07-03T08:51:06.000Z</time>
      </trkpt>
      <trkpt lat="46.50698" lon="0.37065">
        <ele>134.8</ele>
        <time>2011-07-03T08:51:09.000Z</time>
      </trkpt>
      <trkpt lat="46.507" lon="0.37077">
        <ele>134.5</ele>
        <time>2011-07-03T08:51:11.000Z</time>
      </trkpt>
      <trkpt lat="46.50706" lon="0.37095">
        <ele>134</ele>
        <time>2011-07-03T08:51:14.000Z</time>
      </trkpt>
      <trkpt lat="46.50707" lon="0.37101">
        <ele>133.8</ele>
        <time>2011-07-03T08:51:15.000Z</time>
      </trkpt>
      <trkpt lat="46.50711" lon="0.37114">
        <ele>133.5</ele>
        <time>2011-07-03T08:51:17.000Z</time>
      </trkpt>
      <trkpt lat="46.50712" lon="0.3712">
        <ele>133.3</ele>
        <time>2011-07-03T08:51:18.000Z</time>
      </trkpt>
      <trkpt lat="46.50713" lon="0.37126">
        <ele>133.1</ele>
        <time>2011-07-03T08:51:19.000Z</time>
      </trkpt>
      <trkpt lat="46.50714" lon="0.3714">
        <ele>132.6</ele>
        <time>2011-07-03T08:51:21.000Z</time>
      </trkpt>
      <trkpt lat="46.50712" lon="0.37154">
        <ele>131.9</ele>
        <time>2011-07-03T08:51:23.000Z</time>
      </trkpt>
      <trkpt lat="46.50702" lon="0.37199">
        <ele>129.4</ele>
        <time>2011-07-03T08:51:29.000Z</time>
      </trkpt>
      <trkpt lat="46.50697" lon="0.37216">
        <ele>128.4</ele>
        <time>2011-07-03T08:51:31.000Z</time>
      </trkpt>
      <trkpt lat="46.50694" lon="0.37224">
        <ele>127.8</ele>
        <time>2011-07-03T08:51:32.000Z</time>
      </trkpt>
      <trkpt lat="46.50691" lon="0.37234">
        <ele>126.8</ele>
        <time>2011-07-03T08:51:33.000Z</time>
      </trkpt>
      <trkpt lat="46.50687" lon="0.37244">
        <ele>125.8</ele>
        <time>2011-07-03T08:51:34.000Z</time>
      </trkpt>
      <trkpt lat="46.50682" lon="0.37256">
        <ele>124.8</ele>
        <time>2011-07-03T08:51:35.000Z</time>
      </trkpt>
      <trkpt lat="46.50678" lon="0.37267">
        <ele>124</ele>
        <time>2011-07-03T08:51:36.000Z</time>
      </trkpt>
      <trkpt lat="46.50675" lon="0.37278">
        <ele>123.3</ele>
        <time>2011-07-03T08:51:37.000Z</time>
      </trkpt>
      <trkpt lat="46.50671" lon="0.37288">
        <ele>122.8</ele>
        <time>2011-07-03T08:51:38.000Z</time>
      </trkpt>
      <trkpt lat="46.50665" lon="0.37295">
        <ele>122.4</ele>
        <time>2011-07-03T08:51:39.000Z</time>
      </trkpt>
      <trkpt lat="46.5066" lon="0.37302">
        <ele>122.3</ele>
        <time>2011-07-03T08:51:40.000Z</time>
      </trkpt>
      <trkpt lat="46.50657" lon="0.37306">
        <ele>122.3</ele>
        <time>2011-07-03T08:51:41.000Z</time>
      </trkpt>
      <trkpt lat="46.50655" lon="0.3731">
        <ele>122.3</ele>
        <time>2011-07-03T08:51:42.000Z</time>
      </trkpt>
      <trkpt lat="46.50654" lon="0.37312">
        <ele>122.3</ele>
        <time>2011-07-03T08:51:43.000Z</time>
      </trkpt>
      <trkpt lat="46.50653" lon="0.37313">
        <ele>122.4</ele>
        <time>2011-07-03T08:51:44.000Z</time>
      </trkpt>
      <trkpt lat="46.50653" lon="0.37313">
        <ele>122.4</ele>
        <time>2011-07-03T08:51:45.000Z</time>
      </trkpt>
      <trkpt lat="46.50653" lon="0.37313">
        <ele>122.4</ele>
        <time>2011-07-03T08:51:48.000Z</time>
      </trkpt>
      <trkpt lat="46.5065" lon="0.37315">
        <ele>122.5</ele>
        <time>2011-07-03T08:51:50.000Z</time>
      </trkpt>
      <trkpt lat="46.50645" lon="0.37319">
        <ele>122.7</ele>
        <time>2011-07-03T08:51:52.000Z</time>
      </trkpt>
      <trkpt lat="46.50641" lon="0.37325">
        <ele>122.8</ele>
        <time>2011-07-03T08:51:54.000Z</time>
      </trkpt>
      <trkpt lat="46.50649" lon="0.37334">
        <ele>122.3</ele>
        <time>2011-07-03T08:51:57.000Z</time>
      </trkpt>
      <trkpt lat="46.50672" lon="0.37354">
        <ele>121</ele>
        <time>2011-07-03T08:52:02.000Z</time>
      </trkpt>
      <trkpt lat="46.50691" lon="0.37371">
        <ele>120.7</ele>
        <time>2011-07-03T08:52:06.000Z</time>
      </trkpt>
      <trkpt lat="46.507" lon="0.37376">
        <ele>120.7</ele>
        <time>2011-07-03T08:52:08.000Z</time>
      </trkpt>
      <trkpt lat="46.50721" lon="0.37391">
        <ele>120.9</ele>
        <time>2011-07-03T08:52:14.000Z</time>
      </trkpt>
      <trkpt lat="46.50741" lon="0.37405">
        <ele>122.1</ele>
        <time>2011-07-03T08:52:20.000Z</time>
      </trkpt>
      <trkpt lat="46.50753" lon="0.37414">
        <ele>122.5</ele>
        <time>2011-07-03T08:52:24.000Z</time>
      </trkpt>
      <trkpt lat="46.50761" lon="0.37419">
        <ele>123.2</ele>
        <time>2011-07-03T08:52:27.000Z</time>
      </trkpt>
      <trkpt lat="46.50764" lon="0.37421">
        <ele>123.4</ele>
        <time>2011-07-03T08:52:28.000Z</time>
      </trkpt>
      <trkpt lat="46.50768" lon="0.37423">
        <ele>123.7</ele>
        <time>2011-07-03T08:52:29.000Z</time>
      </trkpt>
      <trkpt lat="46.50771" lon="0.37426">
        <ele>123.9</ele>
        <time>2011-07-03T08:52:30.000Z</time>
      </trkpt>
      <trkpt lat="46.50774" lon="0.37428">
        <ele>124.2</ele>
        <time>2011-07-03T08:52:31.000Z</time>
      </trkpt>
      <trkpt lat="46.50786" lon="0.37437">
        <ele>124.9</ele>
        <time>2011-07-03T08:52:35.000Z</time>
      </trkpt>
      <trkpt lat="46.50789" lon="0.3744">
        <ele>125.1</ele>
        <time>2011-07-03T08:52:36.000Z</time>
      </trkpt>
      <trkpt lat="46.50792" lon="0.37441">
        <ele>125.2</ele>
        <time>2011-07-03T08:52:37.000Z</time>
      </trkpt>
      <trkpt lat="46.50795" lon="0.37443">
        <ele>125.3</ele>
        <time>2011-07-03T08:52:38.000Z</time>
      </trkpt>
      <trkpt lat="46.50799" lon="0.37446">
        <ele>125.4</ele>
        <time>2011-07-03T08:52:39.000Z</time>
      </trkpt>
      <trkpt lat="46.50806" lon="0.37449">
        <ele>125.7</ele>
        <time>2011-07-03T08:52:41.000Z</time>
      </trkpt>
      <trkpt lat="46.50809" lon="0.37452">
        <ele>125.7</ele>
        <time>2011-07-03T08:52:42.000Z</time>
      </trkpt>
      <trkpt lat="46.50813" lon="0.37461">
        <ele>125.3</ele>
        <time>2011-07-03T08:52:44.000Z</time>
      </trkpt>
      <trkpt lat="46.50821" lon="0.37481">
        <ele>124.8</ele>
        <time>2011-07-03T08:52:48.000Z</time>
      </trkpt>
      <trkpt lat="46.50824" lon="0.37486">
        <ele>124.8</ele>
        <time>2011-07-03T08:52:49.000Z</time>
      </trkpt>
      <trkpt lat="46.50832" lon="0.37496">
        <ele>125.1</ele>
        <time>2011-07-03T08:52:52.000Z</time>
      </trkpt>
      <trkpt lat="46.50832" lon="0.37509">
        <ele>124.3</ele>
        <time>2011-07-03T08:52:55.000Z</time>
      </trkpt>
      <trkpt lat="46.50828" lon="0.37523">
        <ele>123</ele>
        <time>2011-07-03T08:52:57.000Z</time>
      </trkpt>
      <trkpt lat="46.50826" lon="0.37532">
        <ele>122.2</ele>
        <time>2011-07-03T08:52:58.000Z</time>
      </trkpt>
      <trkpt lat="46.50823" lon="0.37542">
        <ele>121.2</ele>
        <time>2011-07-03T08:52:59.000Z</time>
      </trkpt>
      <trkpt lat="46.50816" lon="0.37563">
        <ele>119.6</ele>
        <time>2011-07-03T08:53:01.000Z</time>
      </trkpt>
      <trkpt lat="46.50813" lon="0.37574">
        <ele>119</ele>
        <time>2011-07-03T08:53:02.000Z</time>
      </trkpt>
      <trkpt lat="46.50809" lon="0.37585">
        <ele>118.3</ele>
        <time>2011-07-03T08:53:03.000Z</time>
      </trkpt>
      <trkpt lat="46.50805" lon="0.37598">
        <ele>117.5</ele>
        <time>2011-07-03T08:53:04.000Z</time>
      </trkpt>
      <trkpt lat="46.50802" lon="0.3761">
        <ele>117</ele>
        <time>2011-07-03T08:53:05.000Z</time>
      </trkpt>
      <trkpt lat="46.50798" lon="0.37623">
        <ele>116.7</ele>
        <time>2011-07-03T08:53:06.000Z</time>
      </trkpt>
      <trkpt lat="46.50794" lon="0.37635">
        <ele>116.5</ele>
        <time>2011-07-03T08:53:07.000Z</time>
      </trkpt>
      <trkpt lat="46.50791" lon="0.37645">
        <ele>116.3</ele>
        <time>2011-07-03T08:53:08.000Z</time>
      </trkpt>
      <trkpt lat="46.50788" lon="0.37655">
        <ele>116</ele>
        <time>2011-07-03T08:53:09.000Z</time>
      </trkpt>
      <trkpt lat="46.50785" lon="0.37664">
        <ele>115.8</ele>
        <time>2011-07-03T08:53:10.000Z</time>
      </trkpt>
      <trkpt lat="46.50782" lon="0.37671">
        <ele>115.8</ele>
        <time>2011-07-03T08:53:11.000Z</time>
      </trkpt>
      <trkpt lat="46.50779" lon="0.37679">
        <ele>115.9</ele>
        <time>2011-07-03T08:53:12.000Z</time>
      </trkpt>
      <trkpt lat="46.50777" lon="0.37687">
        <ele>116.1</ele>
        <time>2011-07-03T08:53:13.000Z</time>
      </trkpt>
      <trkpt lat="46.50774" lon="0.37695">
        <ele>116.2</ele>
        <time>2011-07-03T08:53:14.000Z</time>
      </trkpt>
      <trkpt lat="46.50768" lon="0.37716">
        <ele>115.7</ele>
        <time>2011-07-03T08:53:17.000Z</time>
      </trkpt>
      <trkpt lat="46.50767" lon="0.37722">
        <ele>115.4</ele>
        <time>2011-07-03T08:53:18.000Z</time>
      </trkpt>
      <trkpt lat="46.50768" lon="0.37728">
        <ele>115.3</ele>
        <time>2011-07-03T08:53:19.000Z</time>
      </trkpt>
      <trkpt lat="46.50769" lon="0.37731">
        <ele>115.2</ele>
        <time>2011-07-03T08:53:20.000Z</time>
      </trkpt>
      <trkpt lat="46.50771" lon="0.37733">
        <ele>115.2</ele>
        <time>2011-07-03T08:53:21.000Z</time>
      </trkpt>
      <trkpt lat="46.50773" lon="0.37733">
        <ele>115.1</ele>
        <time>2011-07-03T08:53:22.000Z</time>
      </trkpt>
      <trkpt lat="46.50775" lon="0.37731">
        <ele>115.1</ele>
        <time>2011-07-03T08:53:23.000Z</time>
      </trkpt>
      <trkpt lat="46.50778" lon="0.37728">
        <ele>115</ele>
        <time>2011-07-03T08:53:24.000Z</time>
      </trkpt>
      <trkpt lat="46.50781" lon="0.37725">
        <ele>115</ele>
        <time>2011-07-03T08:53:25.000Z</time>
      </trkpt>
      <trkpt lat="46.50784" lon="0.37722">
        <ele>115</ele>
        <time>2011-07-03T08:53:26.000Z</time>
      </trkpt>
      <trkpt lat="46.50787" lon="0.37718">
        <ele>115.1</ele>
        <time>2011-07-03T08:53:27.000Z</time>
      </trkpt>
      <trkpt lat="46.5079" lon="0.37714">
        <ele>115.2</ele>
        <time>2011-07-03T08:53:28.000Z</time>
      </trkpt>
      <trkpt lat="46.50794" lon="0.3771">
        <ele>115.2</ele>
        <time>2011-07-03T08:53:29.000Z</time>
      </trkpt>
      <trkpt lat="46.50809" lon="0.3769">
        <ele>115.2</ele>
        <time>2011-07-03T08:53:33.000Z</time>
      </trkpt>
      <trkpt lat="46.50825" lon="0.3767">
        <ele>116.4</ele>
        <time>2011-07-03T08:53:37.000Z</time>
      </trkpt>
      <trkpt lat="46.50827" lon="0.3767">
        <ele>116.6</ele>
        <time>2011-07-03T08:53:38.000Z</time>
      </trkpt>
      <trkpt lat="46.50832" lon="0.37673">
        <ele>116.9</ele>
        <time>2011-07-03T08:53:40.000Z</time>
      </trkpt>
      <trkpt lat="46.50839" lon="0.37681">
        <ele>117.6</ele>
        <time>2011-07-03T08:53:44.000Z</time>
      </trkpt>
      <trkpt lat="46.50844" lon="0.3769">
        <ele>118.2</ele>
        <time>2011-07-03T08:53:48.000Z</time>
      </trkpt>
      <trkpt lat="46.50845" lon="0.37692">
        <ele>118.3</ele>
        <time>2011-07-03T08:53:49.000Z</time>
      </trkpt>
      <trkpt lat="46.50846" lon="0.37694">
        <ele>118.4</ele>
        <time>2011-07-03T08:53:50.000Z</time>
      </trkpt>
      <trkpt lat="46.50846" lon="0.37696">
        <ele>118.3</ele>
        <time>2011-07-03T08:53:51.000Z</time>
      </trkpt>
      <trkpt lat="46.50847" lon="0.37699">
        <ele>118.3</ele>
        <time>2011-07-03T08:53:52.000Z</time>
      </trkpt>
      <trkpt lat="46.50847" lon="0.37702">
        <ele>118.3</ele>
        <time>2011-07-03T08:53:53.000Z</time>
      </trkpt>
      <trkpt lat="46.50851" lon="0.37708">
        <ele>118.4</ele>
        <time>2011-07-03T08:53:56.000Z</time>
      </trkpt>
      <trkpt lat="46.50855" lon="0.37712">
        <ele>118.7</ele>
        <time>2011-07-03T08:53:58.000Z</time>
      </trkpt>
      <trkpt lat="46.50857" lon="0.37712">
        <ele>118.9</ele>
        <time>2011-07-03T08:53:59.000Z</time>
      </trkpt>
      <trkpt lat="46.50859" lon="0.37709">
        <ele>119.2</ele>
        <time>2011-07-03T08:54:00.000Z</time>
      </trkpt>
      <trkpt lat="46.5086" lon="0.37706">
        <ele>119.5</ele>
        <time>2011-07-03T08:54:01.000Z</time>
      </trkpt>
      <trkpt lat="46.50862" lon="0.37704">
        <ele>119.8</ele>
        <time>2011-07-03T08:54:02.000Z</time>
      </trkpt>
      <trkpt lat="46.50864" lon="0.37701">
        <ele>120.1</ele>
        <time>2011-07-03T08:54:03.000Z</time>
      </trkpt>
      <trkpt lat="46.50868" lon="0.37686">
        <ele>120.8</ele>
        <time>2011-07-03T08:54:07.000Z</time>
      </trkpt>
      <trkpt lat="46.50873" lon="0.37677">
        <ele>121.5</ele>
        <time>2011-07-03T08:54:10.000Z</time>
      </trkpt>
      <trkpt lat="46.50874" lon="0.37674">
        <ele>121.8</ele>
        <time>2011-07-03T08:54:11.000Z</time>
      </trkpt>
      <trkpt lat="46.50876" lon="0.37671">
        <ele>122.1</ele>
        <time>2011-07-03T08:54:12.000Z</time>
      </trkpt>
      <trkpt lat="46.50877" lon="0.37668">
        <ele>122.3</ele>
        <time>2011-07-03T08:54:13.000Z</time>
      </trkpt>
      <trkpt lat="46.50879" lon="0.37665">
        <ele>122.5</ele>
        <time>2011-07-03T08:54:14.000Z</time>
      </trkpt>
      <trkpt lat="46.5088" lon="0.37663">
        <ele>122.8</ele>
        <time>2011-07-03T08:54:15.000Z</time>
      </trkpt>
      <trkpt lat="46.50889" lon="0.3765">
        <ele>124</ele>
        <time>2011-07-03T08:54:21.000Z</time>
      </trkpt>
      <trkpt lat="46.5089" lon="0.37649">
        <ele>124.1</ele>
        <time>2011-07-03T08:54:22.000Z</time>
      </trkpt>
      <trkpt lat="46.50891" lon="0.37649">
        <ele>124.2</ele>
        <time>2011-07-03T08:54:23.000Z</time>
      </trkpt>
      <trkpt lat="46.50893" lon="0.37648">
        <ele>124.4</ele>
        <time>2011-07-03T08:54:24.000Z</time>
      </trkpt>
      <trkpt lat="46.50895" lon="0.37646">
        <ele>124.6</ele>
        <time>2011-07-03T08:54:25.000Z</time>
      </trkpt>
      <trkpt lat="46.50901" lon="0.37641">
        <ele>125.3</ele>
        <time>2011-07-03T08:54:28.000Z</time>
      </trkpt>
      <trkpt lat="46.50907" lon="0.37631">
        <ele>126.2</ele>
        <time>2011-07-03T08:54:32.000Z</time>
      </trkpt>
      <trkpt lat="46.50909" lon="0.37629">
        <ele>126.5</ele>
        <time>2011-07-03T08:54:33.000Z</time>
      </trkpt>
      <trkpt lat="46.50911" lon="0.37626">
        <ele>126.8</ele>
        <time>2011-07-03T08:54:34.000Z</time>
      </trkpt>
      <trkpt lat="46.50913" lon="0.37625">
        <ele>127.1</ele>
        <time>2011-07-03T08:54:35.000Z</time>
      </trkpt>
      <trkpt lat="46.50915" lon="0.37623">
        <ele>127.4</ele>
        <time>2011-07-03T08:54:36.000Z</time>
      </trkpt>
      <trkpt lat="46.50922" lon="0.37619">
        <ele>128.1</ele>
        <time>2011-07-03T08:54:39.000Z</time>
      </trkpt>
      <trkpt lat="46.50933" lon="0.37612">
        <ele>129.1</ele>
        <time>2011-07-03T08:54:44.000Z</time>
      </trkpt>
      <trkpt lat="46.50936" lon="0.3761">
        <ele>129.4</ele>
        <time>2011-07-03T08:54:45.000Z</time>
      </trkpt>
      <trkpt lat="46.50939" lon="0.37607">
        <ele>129.7</ele>
        <time>2011-07-03T08:54:46.000Z</time>
      </trkpt>
      <trkpt lat="46.50941" lon="0.37605">
        <ele>130</ele>
        <time>2011-07-03T08:54:47.000Z</time>
      </trkpt>
      <trkpt lat="46.50944" lon="0.37603">
        <ele>130.2</ele>
        <time>2011-07-03T08:54:48.000Z</time>
      </trkpt>
      <trkpt lat="46.50949" lon="0.37599">
        <ele>130.7</ele>
        <time>2011-07-03T08:54:50.000Z</time>
      </trkpt>
      <trkpt lat="46.5096" lon="0.37589">
        <ele>131.8</ele>
        <time>2011-07-03T08:54:55.000Z</time>
      </trkpt>
      <trkpt lat="46.50961" lon="0.37587">
        <ele>132</ele>
        <time>2011-07-03T08:54:56.000Z</time>
      </trkpt>
      <trkpt lat="46.50971" lon="0.3758">
        <ele>133</ele>
        <time>2011-07-03T08:55:00.000Z</time>
      </trkpt>
      <trkpt lat="46.50973" lon="0.37579">
        <ele>133.2</ele>
        <time>2011-07-03T08:55:01.000Z</time>
      </trkpt>
      <trkpt lat="46.50975" lon="0.37579">
        <ele>133.2</ele>
        <time>2011-07-03T08:55:02.000Z</time>
      </trkpt>
      <trkpt lat="46.50977" lon="0.37578">
        <ele>133.2</ele>
        <time>2011-07-03T08:55:03.000Z</time>
      </trkpt>
      <trkpt lat="46.50982" lon="0.37577">
        <ele>133.3</ele>
        <time>2011-07-03T08:55:05.000Z</time>
      </trkpt>
      <trkpt lat="46.50984" lon="0.37578">
        <ele>133.3</ele>
        <time>2011-07-03T08:55:06.000Z</time>
      </trkpt>
      <trkpt lat="46.50994" lon="0.37581">
        <ele>133.1</ele>
        <time>2011-07-03T08:55:09.000Z</time>
      </trkpt>
      <trkpt lat="46.51014" lon="0.3759">
        <ele>133.1</ele>
        <time>2011-07-03T08:55:16.000Z</time>
      </trkpt>
      <trkpt lat="46.51021" lon="0.37598">
        <ele>132.8</ele>
        <time>2011-07-03T08:55:19.000Z</time>
      </trkpt>
      <trkpt lat="46.51023" lon="0.37607">
        <ele>132.2</ele>
        <time>2011-07-03T08:55:21.000Z</time>
      </trkpt>
      <trkpt lat="46.51024" lon="0.37625">
        <ele>131.4</ele>
        <time>2011-07-03T08:55:24.000Z</time>
      </trkpt>
      <trkpt lat="46.51025" lon="0.37639">
        <ele>130.9</ele>
        <time>2011-07-03T08:55:26.000Z</time>
      </trkpt>
      <trkpt lat="46.51023" lon="0.37652">
        <ele>130.4</ele>
        <time>2011-07-03T08:55:28.000Z</time>
      </trkpt>
      <trkpt lat="46.5102" lon="0.3768">
        <ele>129.3</ele>
        <time>2011-07-03T08:55:32.000Z</time>
      </trkpt>
      <trkpt lat="46.5102" lon="0.37698">
        <ele>128.5</ele>
        <time>2011-07-03T08:55:35.000Z</time>
      </trkpt>
      <trkpt lat="46.5102" lon="0.37711">
        <ele>127.7</ele>
        <time>2011-07-03T08:55:37.000Z</time>
      </trkpt>
      <trkpt lat="46.5102" lon="0.37725">
        <ele>126.9</ele>
        <time>2011-07-03T08:55:39.000Z</time>
      </trkpt>
      <trkpt lat="46.51019" lon="0.37746">
        <ele>126.1</ele>
        <time>2011-07-03T08:55:42.000Z</time>
      </trkpt>
      <trkpt lat="46.51017" lon="0.37754">
        <ele>125.8</ele>
        <time>2011-07-03T08:55:43.000Z</time>
      </trkpt>
      <trkpt lat="46.51005" lon="0.37781">
        <ele>123.8</ele>
        <time>2011-07-03T08:55:47.000Z</time>
      </trkpt>
      <trkpt lat="46.51001" lon="0.37788">
        <ele>122.9</ele>
        <time>2011-07-03T08:55:48.000Z</time>
      </trkpt>
      <trkpt lat="46.50998" lon="0.37795">
        <ele>122.1</ele>
        <time>2011-07-03T08:55:49.000Z</time>
      </trkpt>
      <trkpt lat="46.50995" lon="0.37803">
        <ele>121.3</ele>
        <time>2011-07-03T08:55:50.000Z</time>
      </trkpt>
      <trkpt lat="46.50989" lon="0.3782">
        <ele>120</ele>
        <time>2011-07-03T08:55:52.000Z</time>
      </trkpt>
      <trkpt lat="46.50986" lon="0.3783">
        <ele>119.3</ele>
        <time>2011-07-03T08:55:53.000Z</time>
      </trkpt>
      <trkpt lat="46.50983" lon="0.3784">
        <ele>118.4</ele>
        <time>2011-07-03T08:55:54.000Z</time>
      </trkpt>
      <trkpt lat="46.5098" lon="0.37852">
        <ele>117.2</ele>
        <time>2011-07-03T08:55:55.000Z</time>
      </trkpt>
      <trkpt lat="46.50975" lon="0.37864">
        <ele>115.9</ele>
        <time>2011-07-03T08:55:56.000Z</time>
      </trkpt>
      <trkpt lat="46.50971" lon="0.37876">
        <ele>114.9</ele>
        <time>2011-07-03T08:55:57.000Z</time>
      </trkpt>
      <trkpt lat="46.50965" lon="0.37887">
        <ele>113.9</ele>
        <time>2011-07-03T08:55:58.000Z</time>
      </trkpt>
      <trkpt lat="46.50959" lon="0.37896">
        <ele>113.1</ele>
        <time>2011-07-03T08:55:59.000Z</time>
      </trkpt>
      <trkpt lat="46.50952" lon="0.37903">
        <ele>112.6</ele>
        <time>2011-07-03T08:56:00.000Z</time>
      </trkpt>
      <trkpt lat="46.50946" lon="0.37909">
        <ele>112.3</ele>
        <time>2011-07-03T08:56:01.000Z</time>
      </trkpt>
      <trkpt lat="46.5094" lon="0.37915">
        <ele>112</ele>
        <time>2011-07-03T08:56:02.000Z</time>
      </trkpt>
      <trkpt lat="46.50934" lon="0.37921">
        <ele>112</ele>
        <time>2011-07-03T08:56:03.000Z</time>
      </trkpt>
      <trkpt lat="46.5093" lon="0.37926">
        <ele>112</ele>
        <time>2011-07-03T08:56:04.000Z</time>
      </trkpt>
      <trkpt lat="46.50926" lon="0.37931">
        <ele>112</ele>
        <time>2011-07-03T08:56:05.000Z</time>
      </trkpt>
      <trkpt lat="46.50925" lon="0.37934">
        <ele>112</ele>
        <time>2011-07-03T08:56:06.000Z</time>
      </trkpt>
      <trkpt lat="46.50924" lon="0.37936">
        <ele>112</ele>
        <time>2011-07-03T08:56:07.000Z</time>
      </trkpt>
      <trkpt lat="46.50925" lon="0.37938">
        <ele>112</ele>
        <time>2011-07-03T08:56:08.000Z</time>
      </trkpt>
      <trkpt lat="46.50926" lon="0.3794">
        <ele>112</ele>
        <time>2011-07-03T08:56:09.000Z</time>
      </trkpt>
      <trkpt lat="46.50928" lon="0.37941">
        <ele>112</ele>
        <time>2011-07-03T08:56:10.000Z</time>
      </trkpt>
      <trkpt lat="46.5093" lon="0.37943">
        <ele>112</ele>
        <time>2011-07-03T08:56:11.000Z</time>
      </trkpt>
      <trkpt lat="46.50933" lon="0.37944">
        <ele>112</ele>
        <time>2011-07-03T08:56:12.000Z</time>
      </trkpt>
      <trkpt lat="46.50949" lon="0.37947">
        <ele>111.8</ele>
        <time>2011-07-03T08:56:16.000Z</time>
      </trkpt>
      <trkpt lat="46.50957" lon="0.37949">
        <ele>111.5</ele>
        <time>2011-07-03T08:56:19.000Z</time>
      </trkpt>
      <trkpt lat="46.50962" lon="0.37947">
        <ele>111.4</ele>
        <time>2011-07-03T08:56:22.000Z</time>
      </trkpt>
      <trkpt lat="46.50964" lon="0.37945">
        <ele>111.3</ele>
        <time>2011-07-03T08:56:24.000Z</time>
      </trkpt>
      <trkpt lat="46.50968" lon="0.37938">
        <ele>111.3</ele>
        <time>2011-07-03T08:56:28.000Z</time>
      </trkpt>
      <trkpt lat="46.50969" lon="0.37936">
        <ele>111.4</ele>
        <time>2011-07-03T08:56:30.000Z</time>
      </trkpt>
      <trkpt lat="46.50969" lon="0.37934">
        <ele>111.4</ele>
        <time>2011-07-03T08:56:31.000Z</time>
      </trkpt>
      <trkpt lat="46.5097" lon="0.37932">
        <ele>111.5</ele>
        <time>2011-07-03T08:56:32.000Z</time>
      </trkpt>
      <trkpt lat="46.50971" lon="0.37931">
        <ele>111.5</ele>
        <time>2011-07-03T08:56:33.000Z</time>
      </trkpt>
      <trkpt lat="46.50972" lon="0.3793">
        <ele>111.5</ele>
        <time>2011-07-03T08:56:34.000Z</time>
      </trkpt>
      <trkpt lat="46.50974" lon="0.37926">
        <ele>111.7</ele>
        <time>2011-07-03T08:56:37.000Z</time>
      </trkpt>
      <trkpt lat="46.50974" lon="0.37923">
        <ele>111.8</ele>
        <time>2011-07-03T08:56:39.000Z</time>
      </trkpt>
      <trkpt lat="46.50975" lon="0.37922">
        <ele>111.8</ele>
        <time>2011-07-03T08:56:40.000Z</time>
      </trkpt>
      <trkpt lat="46.50975" lon="0.3792">
        <ele>111.9</ele>
        <time>2011-07-03T08:56:41.000Z</time>
      </trkpt>
      <trkpt lat="46.50976" lon="0.37918">
        <ele>111.9</ele>
        <time>2011-07-03T08:56:42.000Z</time>
      </trkpt>
      <trkpt lat="46.50976" lon="0.37917">
        <ele>112</ele>
        <time>2011-07-03T08:56:43.000Z</time>
      </trkpt>
      <trkpt lat="46.50977" lon="0.37916">
        <ele>112</ele>
        <time>2011-07-03T08:56:44.000Z</time>
      </trkpt>
      <trkpt lat="46.50978" lon="0.37915">
        <ele>112.1</ele>
        <time>2011-07-03T08:56:50.000Z</time>
      </trkpt>
      <trkpt lat="46.50981" lon="0.37905">
        <ele>112.8</ele>
        <time>2011-07-03T08:56:55.000Z</time>
      </trkpt>
      <trkpt lat="46.50981" lon="0.37903">
        <ele>113</ele>
        <time>2011-07-03T08:56:57.000Z</time>
      </trkpt>
      <trkpt lat="46.50981" lon="0.37903">
        <ele>113</ele>
        <time>2011-07-03T08:56:58.000Z</time>
      </trkpt>
      <trkpt lat="46.50981" lon="0.37903">
        <ele>113</ele>
        <time>2011-07-03T08:56:59.000Z</time>
      </trkpt>
      <trkpt lat="46.50981" lon="0.37903">
        <ele>113</ele>
        <time>2011-07-03T08:57:00.000Z</time>
      </trkpt>
      <trkpt lat="46.50981" lon="0.37903">
        <ele>113</ele>
        <time>2011-07-03T08:57:01.000Z</time>
      </trkpt>
      <trkpt lat="46.50981" lon="0.37898">
        <ele>113.4</ele>
        <time>2011-07-03T08:57:05.000Z</time>
      </trkpt>
      <trkpt lat="46.50982" lon="0.37895">
        <ele>113.5</ele>
        <time>2011-07-03T08:57:06.000Z</time>
      </trkpt>
      <trkpt lat="46.50987" lon="0.37891">
        <ele>113.9</ele>
        <time>2011-07-03T08:57:10.000Z</time>
      </trkpt>
      <trkpt lat="46.5099" lon="0.37883">
        <ele>114.5</ele>
        <time>2011-07-03T08:57:13.000Z</time>
      </trkpt>
      <trkpt lat="46.50991" lon="0.37877">
        <ele>115.1</ele>
        <time>2011-07-03T08:57:15.000Z</time>
      </trkpt>
      <trkpt lat="46.50992" lon="0.37873">
        <ele>115.5</ele>
        <time>2011-07-03T08:57:16.000Z</time>
      </trkpt>
      <trkpt lat="46.50993" lon="0.3787">
        <ele>115.9</ele>
        <time>2011-07-03T08:57:17.000Z</time>
      </trkpt>
      <trkpt lat="46.50994" lon="0.37867">
        <ele>116.2</ele>
        <time>2011-07-03T08:57:18.000Z</time>
      </trkpt>
      <trkpt lat="46.50995" lon="0.37865">
        <ele>116.5</ele>
        <time>2011-07-03T08:57:19.000Z</time>
      </trkpt>
      <trkpt lat="46.50997" lon="0.37858">
        <ele>117.2</ele>
        <time>2011-07-03T08:57:22.000Z</time>
      </trkpt>
      <trkpt lat="46.51" lon="0.3785">
        <ele>117.8</ele>
        <time>2011-07-03T08:57:25.000Z</time>
      </trkpt>
      <trkpt lat="46.51001" lon="0.37848">
        <ele>118</ele>
        <time>2011-07-03T08:57:26.000Z</time>
      </trkpt>
      <trkpt lat="46.51002" lon="0.37845">
        <ele>118.2</ele>
        <time>2011-07-03T08:57:27.000Z</time>
      </trkpt>
      <trkpt lat="46.51002" lon="0.37843">
        <ele>118.4</ele>
        <time>2011-07-03T08:57:28.000Z</time>
      </trkpt>
      <trkpt lat="46.51003" lon="0.37841">
        <ele>118.6</ele>
        <time>2011-07-03T08:57:29.000Z</time>
      </trkpt>
      <trkpt lat="46.51006" lon="0.37827">
        <ele>119.9</ele>
        <time>2011-07-03T08:57:34.000Z</time>
      </trkpt>
      <trkpt lat="46.51007" lon="0.37824">
        <ele>120.1</ele>
        <time>2011-07-03T08:57:35.000Z</time>
      </trkpt>
      <trkpt lat="46.51008" lon="0.37822">
        <ele>120.3</ele>
        <time>2011-07-03T08:57:36.000Z</time>
      </trkpt>
      <trkpt lat="46.51009" lon="0.3782">
        <ele>120.5</ele>
        <time>2011-07-03T08:57:37.000Z</time>
      </trkpt>
      <trkpt lat="46.5101" lon="0.37817">
        <ele>120.7</ele>
        <time>2011-07-03T08:57:38.000Z</time>
      </trkpt>
      <trkpt lat="46.51013" lon="0.3781">
        <ele>121.2</ele>
        <time>2011-07-03T08:57:40.000Z</time>
      </trkpt>
      <trkpt lat="46.51017" lon="0.37791">
        <ele>123.2</ele>
        <time>2011-07-03T08:57:46.000Z</time>
      </trkpt>
      <trkpt lat="46.51019" lon="0.37786">
        <ele>123.7</ele>
        <time>2011-07-03T08:57:48.000Z</time>
      </trkpt>
      <trkpt lat="46.51021" lon="0.37783">
        <ele>124.2</ele>
        <time>2011-07-03T08:57:50.000Z</time>
      </trkpt>
      <trkpt lat="46.51023" lon="0.37778">
        <ele>124.8</ele>
        <time>2011-07-03T08:57:52.000Z</time>
      </trkpt>
      <trkpt lat="46.51024" lon="0.37776">
        <ele>124.9</ele>
        <time>2011-07-03T08:57:53.000Z</time>
      </trkpt>
      <trkpt lat="46.51024" lon="0.37773">
        <ele>125.1</ele>
        <time>2011-07-03T08:57:54.000Z</time>
      </trkpt>
      <trkpt lat="46.51025" lon="0.37771">
        <ele>125.2</ele>
        <time>2011-07-03T08:57:55.000Z</time>
      </trkpt>
      <trkpt lat="46.51025" lon="0.37768">
        <ele>125.3</ele>
        <time>2011-07-03T08:57:56.000Z</time>
      </trkpt>
      <trkpt lat="46.51029" lon="0.37755">
        <ele>125.9</ele>
        <time>2011-07-03T08:58:01.000Z</time>
      </trkpt>
      <trkpt lat="46.51035" lon="0.37743">
        <ele>126.5</ele>
        <time>2011-07-03T08:58:06.000Z</time>
      </trkpt>
      <trkpt lat="46.51036" lon="0.37742">
        <ele>126.6</ele>
        <time>2011-07-03T08:58:07.000Z</time>
      </trkpt>
      <trkpt lat="46.51043" lon="0.37744">
        <ele>126.7</ele>
        <time>2011-07-03T08:58:11.000Z</time>
      </trkpt>
      <trkpt lat="46.51045" lon="0.37745">
        <ele>126.8</ele>
        <time>2011-07-03T08:58:12.000Z</time>
      </trkpt>
      <trkpt lat="46.51047" lon="0.37747">
        <ele>126.8</ele>
        <time>2011-07-03T08:58:13.000Z</time>
      </trkpt>
      <trkpt lat="46.5105" lon="0.3775">
        <ele>126.8</ele>
        <time>2011-07-03T08:58:14.000Z</time>
      </trkpt>
      <trkpt lat="46.51054" lon="0.37754">
        <ele>126.7</ele>
        <time>2011-07-03T08:58:15.000Z</time>
      </trkpt>
      <trkpt lat="46.51057" lon="0.37758">
        <ele>126.5</ele>
        <time>2011-07-03T08:58:16.000Z</time>
      </trkpt>
      <trkpt lat="46.51075" lon="0.37772">
        <ele>126.1</ele>
        <time>2011-07-03T08:58:21.000Z</time>
      </trkpt>
      <trkpt lat="46.51079" lon="0.37775">
        <ele>126</ele>
        <time>2011-07-03T08:58:22.000Z</time>
      </trkpt>
      <trkpt lat="46.51102" lon="0.3779">
        <ele>126</ele>
        <time>2011-07-03T08:58:28.000Z</time>
      </trkpt>
      <trkpt lat="46.51107" lon="0.37791">
        <ele>126</ele>
        <time>2011-07-03T08:58:29.000Z</time>
      </trkpt>
      <trkpt lat="46.51121" lon="0.37798">
        <ele>125.5</ele>
        <time>2011-07-03T08:58:32.000Z</time>
      </trkpt>
      <trkpt lat="46.51133" lon="0.37803">
        <ele>125.2</ele>
        <time>2011-07-03T08:58:35.000Z</time>
      </trkpt>
      <trkpt lat="46.51137" lon="0.37804">
        <ele>125.1</ele>
        <time>2011-07-03T08:58:36.000Z</time>
      </trkpt>
      <trkpt lat="46.51146" lon="0.37805">
        <ele>125</ele>
        <time>2011-07-03T08:58:38.000Z</time>
      </trkpt>
      <trkpt lat="46.51152" lon="0.37802">
        <ele>125.2</ele>
        <time>2011-07-03T08:58:40.000Z</time>
      </trkpt>
      <trkpt lat="46.51155" lon="0.37794">
        <ele>125.8</ele>
        <time>2011-07-03T08:58:42.000Z</time>
      </trkpt>
      <trkpt lat="46.51158" lon="0.37785">
        <ele>126.5</ele>
        <time>2011-07-03T08:58:44.000Z</time>
      </trkpt>
      <trkpt lat="46.51164" lon="0.37768">
        <ele>127.7</ele>
        <time>2011-07-03T08:58:47.000Z</time>
      </trkpt>
      <trkpt lat="46.51167" lon="0.3776">
        <ele>128.3</ele>
        <time>2011-07-03T08:58:49.000Z</time>
      </trkpt>
      <trkpt lat="46.51177" lon="0.37736">
        <ele>129.5</ele>
        <time>2011-07-03T08:58:53.000Z</time>
      </trkpt>
      <trkpt lat="46.5118" lon="0.37731">
        <ele>129.7</ele>
        <time>2011-07-03T08:58:54.000Z</time>
      </trkpt>
      <trkpt lat="46.51182" lon="0.37726">
        <ele>129.9</ele>
        <time>2011-07-03T08:58:55.000Z</time>
      </trkpt>
      <trkpt lat="46.51183" lon="0.37721">
        <ele>130</ele>
        <time>2011-07-03T08:58:56.000Z</time>
      </trkpt>
      <trkpt lat="46.51184" lon="0.37717">
        <ele>130.2</ele>
        <time>2011-07-03T08:58:57.000Z</time>
      </trkpt>
      <trkpt lat="46.51183" lon="0.37713">
        <ele>130.3</ele>
        <time>2011-07-03T08:58:58.000Z</time>
      </trkpt>
      <trkpt lat="46.51171" lon="0.377">
        <ele>130.8</ele>
        <time>2011-07-03T08:59:03.000Z</time>
      </trkpt>
      <trkpt lat="46.5117" lon="0.37695">
        <ele>131</ele>
        <time>2011-07-03T08:59:04.000Z</time>
      </trkpt>
      <trkpt lat="46.5117" lon="0.37684">
        <ele>131.4</ele>
        <time>2011-07-03T08:59:06.000Z</time>
      </trkpt>
      <trkpt lat="46.51175" lon="0.37663">
        <ele>132.1</ele>
        <time>2011-07-03T08:59:11.000Z</time>
      </trkpt>
      <trkpt lat="46.51177" lon="0.37659">
        <ele>132.3</ele>
        <time>2011-07-03T08:59:12.000Z</time>
      </trkpt>
      <trkpt lat="46.51187" lon="0.37645">
        <ele>132.8</ele>
        <time>2011-07-03T08:59:16.000Z</time>
      </trkpt>
      <trkpt lat="46.51193" lon="0.37635">
        <ele>133.2</ele>
        <time>2011-07-03T08:59:19.000Z</time>
      </trkpt>
      <trkpt lat="46.51193" lon="0.37631">
        <ele>133.3</ele>
        <time>2011-07-03T08:59:20.000Z</time>
      </trkpt>
      <trkpt lat="46.51186" lon="0.37621">
        <ele>133.6</ele>
        <time>2011-07-03T08:59:24.000Z</time>
      </trkpt>
      <trkpt lat="46.51183" lon="0.37617">
        <ele>133.8</ele>
        <time>2011-07-03T08:59:26.000Z</time>
      </trkpt>
      <trkpt lat="46.51181" lon="0.37615">
        <ele>133.9</ele>
        <time>2011-07-03T08:59:27.000Z</time>
      </trkpt>
      <trkpt lat="46.51178" lon="0.37615">
        <ele>133.9</ele>
        <time>2011-07-03T08:59:28.000Z</time>
      </trkpt>
      <trkpt lat="46.51174" lon="0.37614">
        <ele>133.9</ele>
        <time>2011-07-03T08:59:29.000Z</time>
      </trkpt>
      <trkpt lat="46.5117" lon="0.37614">
        <ele>133.9</ele>
        <time>2011-07-03T08:59:30.000Z</time>
      </trkpt>
      <trkpt lat="46.51163" lon="0.37609">
        <ele>134</ele>
        <time>2011-07-03T08:59:32.000Z</time>
      </trkpt>
      <trkpt lat="46.51161" lon="0.37605">
        <ele>134</ele>
        <time>2011-07-03T08:59:33.000Z</time>
      </trkpt>
      <trkpt lat="46.51148" lon="0.37595">
        <ele>134</ele>
        <time>2011-07-03T08:59:38.000Z</time>
      </trkpt>
      <trkpt lat="46.51146" lon="0.37596">
        <ele>134</ele>
        <time>2011-07-03T08:59:39.000Z</time>
      </trkpt>
      <trkpt lat="46.51141" lon="0.37596">
        <ele>134</ele>
        <time>2011-07-03T08:59:41.000Z</time>
      </trkpt>
      <trkpt lat="46.51124" lon="0.37584">
        <ele>134</ele>
        <time>2011-07-03T08:59:46.000Z</time>
      </trkpt>
      <trkpt lat="46.5112" lon="0.37563">
        <ele>134.5</ele>
        <time>2011-07-03T08:59:50.000Z</time>
      </trkpt>
      <trkpt lat="46.51114" lon="0.37541">
        <ele>134.9</ele>
        <time>2011-07-03T08:59:55.000Z</time>
      </trkpt>
      <trkpt lat="46.51115" lon="0.37535">
        <ele>135</ele>
        <time>2011-07-03T08:59:56.000Z</time>
      </trkpt>
      <trkpt lat="46.51118" lon="0.37527">
        <ele>135</ele>
        <time>2011-07-03T08:59:58.000Z</time>
      </trkpt>
      <trkpt lat="46.51129" lon="0.37512">
        <ele>135</ele>
        <time>2011-07-03T09:00:03.000Z</time>
      </trkpt>
      <trkpt lat="46.51132" lon="0.37509">
        <ele>135</ele>
        <time>2011-07-03T09:00:04.000Z</time>
      </trkpt>
      <trkpt lat="46.51134" lon="0.37506">
        <ele>135</ele>
        <time>2011-07-03T09:00:05.000Z</time>
      </trkpt>
      <trkpt lat="46.51137" lon="0.37502">
        <ele>135</ele>
        <time>2011-07-03T09:00:06.000Z</time>
      </trkpt>
      <trkpt lat="46.51139" lon="0.37497">
        <ele>135</ele>
        <time>2011-07-03T09:00:07.000Z</time>
      </trkpt>
      <trkpt lat="46.51142" lon="0.37493">
        <ele>135</ele>
        <time>2011-07-03T09:00:08.000Z</time>
      </trkpt>
      <trkpt lat="46.51154" lon="0.37472">
        <ele>135</ele>
        <time>2011-07-03T09:00:13.000Z</time>
      </trkpt>
      <trkpt lat="46.51147" lon="0.37459">
        <ele>135</ele>
        <time>2011-07-03T09:00:16.000Z</time>
      </trkpt>
      <trkpt lat="46.51134" lon="0.37455">
        <ele>135</ele>
        <time>2011-07-03T09:00:20.000Z</time>
      </trkpt>
      <trkpt lat="46.51125" lon="0.3745">
        <ele>135</ele>
        <time>2011-07-03T09:00:22.000Z</time>
      </trkpt>
      <trkpt lat="46.51121" lon="0.37447">
        <ele>135</ele>
        <time>2011-07-03T09:00:23.000Z</time>
      </trkpt>
      <trkpt lat="46.51107" lon="0.37427">
        <ele>135.7</ele>
        <time>2011-07-03T09:00:28.000Z</time>
      </trkpt>
      <trkpt lat="46.51107" lon="0.37421">
        <ele>135.9</ele>
        <time>2011-07-03T09:00:29.000Z</time>
      </trkpt>
      <trkpt lat="46.5111" lon="0.37409">
        <ele>136</ele>
        <time>2011-07-03T09:00:31.000Z</time>
      </trkpt>
      <trkpt lat="46.51117" lon="0.3738">
        <ele>135.9</ele>
        <time>2011-07-03T09:00:36.000Z</time>
      </trkpt>
      <trkpt lat="46.51117" lon="0.37373">
        <ele>135.9</ele>
        <time>2011-07-03T09:00:37.000Z</time>
      </trkpt>
      <trkpt lat="46.51118" lon="0.37359">
        <ele>136</ele>
        <time>2011-07-03T09:00:39.000Z</time>
      </trkpt>
      <trkpt lat="46.51119" lon="0.37338">
        <ele>136</ele>
        <time>2011-07-03T09:00:42.000Z</time>
      </trkpt>
      <trkpt lat="46.51121" lon="0.37326">
        <ele>136.3</ele>
        <time>2011-07-03T09:00:44.000Z</time>
      </trkpt>
      <trkpt lat="46.51121" lon="0.37306">
        <ele>137</ele>
        <time>2011-07-03T09:00:47.000Z</time>
      </trkpt>
      <trkpt lat="46.51121" lon="0.37282">
        <ele>137</ele>
        <time>2011-07-03T09:00:51.000Z</time>
      </trkpt>
      <trkpt lat="46.5112" lon="0.37277">
        <ele>137</ele>
        <time>2011-07-03T09:00:52.000Z</time>
      </trkpt>
      <trkpt lat="46.51114" lon="0.3725">
        <ele>137</ele>
        <time>2011-07-03T09:00:57.000Z</time>
      </trkpt>
      <trkpt lat="46.51107" lon="0.37234">
        <ele>137.2</ele>
        <time>2011-07-03T09:01:00.000Z</time>
      </trkpt>
      <trkpt lat="46.51103" lon="0.37229">
        <ele>137.3</ele>
        <time>2011-07-03T09:01:01.000Z</time>
      </trkpt>
      <trkpt lat="46.5108" lon="0.37208">
        <ele>138</ele>
        <time>2011-07-03T09:01:07.000Z</time>
      </trkpt>
      <trkpt lat="46.51056" lon="0.37182">
        <ele>138</ele>
        <time>2011-07-03T09:01:13.000Z</time>
      </trkpt>
      <trkpt lat="46.51047" lon="0.37168">
        <ele>138</ele>
        <time>2011-07-03T09:01:16.000Z</time>
      </trkpt>
      <trkpt lat="46.51045" lon="0.37161">
        <ele>138</ele>
        <time>2011-07-03T09:01:17.000Z</time>
      </trkpt>
      <trkpt lat="46.51043" lon="0.37153">
        <ele>138</ele>
        <time>2011-07-03T09:01:18.000Z</time>
      </trkpt>
      <trkpt lat="46.51041" lon="0.37147">
        <ele>138</ele>
        <time>2011-07-03T09:01:19.000Z</time>
      </trkpt>
      <trkpt lat="46.51039" lon="0.37141">
        <ele>138</ele>
        <time>2011-07-03T09:01:20.000Z</time>
      </trkpt>
      <trkpt lat="46.51038" lon="0.37127">
        <ele>138</ele>
        <time>2011-07-03T09:01:22.000Z</time>
      </trkpt>
      <trkpt lat="46.51043" lon="0.37107">
        <ele>138</ele>
        <time>2011-07-03T09:01:25.000Z</time>
      </trkpt>
      <trkpt lat="46.51049" lon="0.37081">
        <ele>138.1</ele>
        <time>2011-07-03T09:01:29.000Z</time>
      </trkpt>
      <trkpt lat="46.51059" lon="0.37072">
        <ele>138.5</ele>
        <time>2011-07-03T09:01:32.000Z</time>
      </trkpt>
      <trkpt lat="46.51067" lon="0.3707">
        <ele>138.7</ele>
        <time>2011-07-03T09:01:34.000Z</time>
      </trkpt>
      <trkpt lat="46.51071" lon="0.3707">
        <ele>138.8</ele>
        <time>2011-07-03T09:01:35.000Z</time>
      </trkpt>
      <trkpt lat="46.51078" lon="0.37073">
        <ele>138.9</ele>
        <time>2011-07-03T09:01:37.000Z</time>
      </trkpt>
      <trkpt lat="46.51086" lon="0.37075">
        <ele>139</ele>
        <time>2011-07-03T09:01:39.000Z</time>
      </trkpt>
      <trkpt lat="46.51096" lon="0.37073">
        <ele>138.8</ele>
        <time>2011-07-03T09:01:42.000Z</time>
      </trkpt>
      <trkpt lat="46.51116" lon="0.37066">
        <ele>138.3</ele>
        <time>2011-07-03T09:01:47.000Z</time>
      </trkpt>
      <trkpt lat="46.51128" lon="0.37066">
        <ele>138.1</ele>
        <time>2011-07-03T09:01:50.000Z</time>
      </trkpt>
      <trkpt lat="46.51131" lon="0.37066">
        <ele>138.1</ele>
        <time>2011-07-03T09:01:51.000Z</time>
      </trkpt>
      <trkpt lat="46.51133" lon="0.37066">
        <ele>138.1</ele>
        <time>2011-07-03T09:01:52.000Z</time>
      </trkpt>
      <trkpt lat="46.51132" lon="0.37061">
        <ele>138</ele>
        <time>2011-07-03T09:01:53.000Z</time>
      </trkpt>
      <trkpt lat="46.51132" lon="0.37057">
        <ele>138</ele>
        <time>2011-07-03T09:01:54.000Z</time>
      </trkpt>
      <trkpt lat="46.51131" lon="0.37052">
        <ele>138</ele>
        <time>2011-07-03T09:01:55.000Z</time>
      </trkpt>
      <trkpt lat="46.5113" lon="0.37047">
        <ele>138</ele>
        <time>2011-07-03T09:01:56.000Z</time>
      </trkpt>
      <trkpt lat="46.5113" lon="0.37036">
        <ele>138</ele>
        <time>2011-07-03T09:01:58.000Z</time>
      </trkpt>
      <trkpt lat="46.51134" lon="0.37023">
        <ele>138</ele>
        <time>2011-07-03T09:02:02.000Z</time>
      </trkpt>
      <trkpt lat="46.51136" lon="0.37024">
        <ele>138</ele>
        <time>2011-07-03T09:02:03.000Z</time>
      </trkpt>
      <trkpt lat="46.51142" lon="0.37025">
        <ele>137.9</ele>
        <time>2011-07-03T09:02:05.000Z</time>
      </trkpt>
      <trkpt lat="46.51162" lon="0.3703">
        <ele>137.2</ele>
        <time>2011-07-03T09:02:10.000Z</time>
      </trkpt>
      <trkpt lat="46.5118" lon="0.37029">
        <ele>136</ele>
        <time>2011-07-03T09:02:14.000Z</time>
      </trkpt>
      <trkpt lat="46.5119" lon="0.37023">
        <ele>135.5</ele>
        <time>2011-07-03T09:02:17.000Z</time>
      </trkpt>
      <trkpt lat="46.51193" lon="0.37021">
        <ele>135.4</ele>
        <time>2011-07-03T09:02:18.000Z</time>
      </trkpt>
      <trkpt lat="46.51205" lon="0.37015">
        <ele>134.4</ele>
        <time>2011-07-03T09:02:21.000Z</time>
      </trkpt>
      <trkpt lat="46.51209" lon="0.37012">
        <ele>133.9</ele>
        <time>2011-07-03T09:02:22.000Z</time>
      </trkpt>
      <trkpt lat="46.51214" lon="0.3701">
        <ele>133.5</ele>
        <time>2011-07-03T09:02:23.000Z</time>
      </trkpt>
      <trkpt lat="46.51219" lon="0.37009">
        <ele>133</ele>
        <time>2011-07-03T09:02:24.000Z</time>
      </trkpt>
      <trkpt lat="46.51224" lon="0.37007">
        <ele>132.7</ele>
        <time>2011-07-03T09:02:25.000Z</time>
      </trkpt>
      <trkpt lat="46.51228" lon="0.37004">
        <ele>132.4</ele>
        <time>2011-07-03T09:02:26.000Z</time>
      </trkpt>
      <trkpt lat="46.51232" lon="0.37002">
        <ele>132.2</ele>
        <time>2011-07-03T09:02:27.000Z</time>
      </trkpt>
      <trkpt lat="46.51241" lon="0.36996">
        <ele>131.8</ele>
        <time>2011-07-03T09:02:30.000Z</time>
      </trkpt>
      <trkpt lat="46.51254" lon="0.36989">
        <ele>131.1</ele>
        <time>2011-07-03T09:02:34.000Z</time>
      </trkpt>
      <trkpt lat="46.51264" lon="0.36999">
        <ele>130</ele>
        <time>2011-07-03T09:02:38.000Z</time>
      </trkpt>
      <trkpt lat="46.51266" lon="0.37003">
        <ele>129.7</ele>
        <time>2011-07-03T09:02:39.000Z</time>
      </trkpt>
      <trkpt lat="46.51268" lon="0.37005">
        <ele>129.4</ele>
        <time>2011-07-03T09:02:40.000Z</time>
      </trkpt>
      <trkpt lat="46.5127" lon="0.37006">
        <ele>129.2</ele>
        <time>2011-07-03T09:02:41.000Z</time>
      </trkpt>
      <trkpt lat="46.51271" lon="0.37009">
        <ele>128.9</ele>
        <time>2011-07-03T09:02:42.000Z</time>
      </trkpt>
      <trkpt lat="46.51276" lon="0.37008">
        <ele>128.6</ele>
        <time>2011-07-03T09:02:43.000Z</time>
      </trkpt>
      <trkpt lat="46.51294" lon="0.37003">
        <ele>127.6</ele>
        <time>2011-07-03T09:02:47.000Z</time>
      </trkpt>
      <trkpt lat="46.51299" lon="0.37003">
        <ele>127.3</ele>
        <time>2011-07-03T09:02:48.000Z</time>
      </trkpt>
      <trkpt lat="46.51303" lon="0.37006">
        <ele>126.8</ele>
        <time>2011-07-03T09:02:49.000Z</time>
      </trkpt>
      <trkpt lat="46.51306" lon="0.37006">
        <ele>126.5</ele>
        <time>2011-07-03T09:02:50.000Z</time>
      </trkpt>
      <trkpt lat="46.5131" lon="0.37007">
        <ele>126.1</ele>
        <time>2011-07-03T09:02:51.000Z</time>
      </trkpt>
      <trkpt lat="46.51311" lon="0.37008">
        <ele>125.8</ele>
        <time>2011-07-03T09:02:52.000Z</time>
      </trkpt>
      <trkpt lat="46.51313" lon="0.37009">
        <ele>125.5</ele>
        <time>2011-07-03T09:02:53.000Z</time>
      </trkpt>
      <trkpt lat="46.51321" lon="0.37016">
        <ele>124.2</ele>
        <time>2011-07-03T09:02:56.000Z</time>
      </trkpt>
      <trkpt lat="46.5133" lon="0.37019">
        <ele>123</ele>
        <time>2011-07-03T09:02:58.000Z</time>
      </trkpt>
      <trkpt lat="46.51338" lon="0.37019">
        <ele>122.1</ele>
        <time>2011-07-03T09:02:59.000Z</time>
      </trkpt>
      <trkpt lat="46.51343" lon="0.37021">
        <ele>121.4</ele>
        <time>2011-07-03T09:03:00.000Z</time>
      </trkpt>
      <trkpt lat="46.51348" lon="0.37021">
        <ele>121</ele>
        <time>2011-07-03T09:03:01.000Z</time>
      </trkpt>
      <trkpt lat="46.51353" lon="0.37022">
        <ele>120.3</ele>
        <time>2011-07-03T09:03:02.000Z</time>
      </trkpt>
      <trkpt lat="46.51358" lon="0.37025">
        <ele>119.6</ele>
        <time>2011-07-03T09:03:03.000Z</time>
      </trkpt>
      <trkpt lat="46.51362" lon="0.37027">
        <ele>118.9</ele>
        <time>2011-07-03T09:03:04.000Z</time>
      </trkpt>
      <trkpt lat="46.51369" lon="0.37028">
        <ele>117.6</ele>
        <time>2011-07-03T09:03:05.000Z</time>
      </trkpt>
      <trkpt lat="46.51372" lon="0.37031">
        <ele>116.9</ele>
        <time>2011-07-03T09:03:06.000Z</time>
      </trkpt>
      <trkpt lat="46.51375" lon="0.37033">
        <ele>116.2</ele>
        <time>2011-07-03T09:03:07.000Z</time>
      </trkpt>
      <trkpt lat="46.5138" lon="0.37034">
        <ele>115.3</ele>
        <time>2011-07-03T09:03:08.000Z</time>
      </trkpt>
      <trkpt lat="46.51384" lon="0.37036">
        <ele>114.5</ele>
        <time>2011-07-03T09:03:09.000Z</time>
      </trkpt>
      <trkpt lat="46.51388" lon="0.37037">
        <ele>113.8</ele>
        <time>2011-07-03T09:03:10.000Z</time>
      </trkpt>
      <trkpt lat="46.51393" lon="0.37039">
        <ele>113</ele>
        <time>2011-07-03T09:03:11.000Z</time>
      </trkpt>
      <trkpt lat="46.51397" lon="0.37039">
        <ele>112.5</ele>
        <time>2011-07-03T09:03:12.000Z</time>
      </trkpt>
      <trkpt lat="46.51401" lon="0.37037">
        <ele>112</ele>
        <time>2011-07-03T09:03:13.000Z</time>
      </trkpt>
      <trkpt lat="46.51403" lon="0.37036">
        <ele>111.8</ele>
        <time>2011-07-03T09:03:14.000Z</time>
      </trkpt>
      <trkpt lat="46.51406" lon="0.37034">
        <ele>111.5</ele>
        <time>2011-07-03T09:03:15.000Z</time>
      </trkpt>
      <trkpt lat="46.51409" lon="0.3703">
        <ele>111.1</ele>
        <time>2011-07-03T09:03:16.000Z</time>
      </trkpt>
      <trkpt lat="46.51413" lon="0.37028">
        <ele>110.5</ele>
        <time>2011-07-03T09:03:17.000Z</time>
      </trkpt>
      <trkpt lat="46.51415" lon="0.37024">
        <ele>110.5</ele>
        <time>2011-07-03T09:03:18.000Z</time>
      </trkpt>
      <trkpt lat="46.51417" lon="0.37019">
        <ele>110.5</ele>
        <time>2011-07-03T09:03:19.000Z</time>
      </trkpt>
      <trkpt lat="46.51422" lon="0.37015">
        <ele>110.1</ele>
        <time>2011-07-03T09:03:20.000Z</time>
      </trkpt>
      <trkpt lat="46.51451" lon="0.36987">
        <ele>106.1</ele>
        <time>2011-07-03T09:03:25.000Z</time>
      </trkpt>
      <trkpt lat="46.51455" lon="0.36969">
        <ele>105.7</ele>
        <time>2011-07-03T09:03:28.000Z</time>
      </trkpt>
      <trkpt lat="46.51456" lon="0.36964">
        <ele>105.5</ele>
        <time>2011-07-03T09:03:29.000Z</time>
      </trkpt>
      <trkpt lat="46.51458" lon="0.36961">
        <ele>105.3</ele>
        <time>2011-07-03T09:03:30.000Z</time>
      </trkpt>
      <trkpt lat="46.51459" lon="0.3696">
        <ele>105</ele>
        <time>2011-07-03T09:03:31.000Z</time>
      </trkpt>
      <trkpt lat="46.51461" lon="0.36959">
        <ele>104.7</ele>
        <time>2011-07-03T09:03:32.000Z</time>
      </trkpt>
      <trkpt lat="46.51464" lon="0.3696">
        <ele>104.2</ele>
        <time>2011-07-03T09:03:33.000Z</time>
      </trkpt>
      <trkpt lat="46.51467" lon="0.3696">
        <ele>103.5</ele>
        <time>2011-07-03T09:03:34.000Z</time>
      </trkpt>
      <trkpt lat="46.51469" lon="0.36962">
        <ele>103</ele>
        <time>2011-07-03T09:03:35.000Z</time>
      </trkpt>
      <trkpt lat="46.51474" lon="0.36963">
        <ele>102</ele>
        <time>2011-07-03T09:03:36.000Z</time>
      </trkpt>
      <trkpt lat="46.51478" lon="0.36964">
        <ele>101.4</ele>
        <time>2011-07-03T09:03:37.000Z</time>
      </trkpt>
      <trkpt lat="46.51484" lon="0.36967">
        <ele>100.5</ele>
        <time>2011-07-03T09:03:38.000Z</time>
      </trkpt>
      <trkpt lat="46.51489" lon="0.36971">
        <ele>99.6</ele>
        <time>2011-07-03T09:03:39.000Z</time>
      </trkpt>
      <trkpt lat="46.51494" lon="0.36977">
        <ele>98.8</ele>
        <time>2011-07-03T09:03:40.000Z</time>
      </trkpt>
      <trkpt lat="46.51502" lon="0.37001">
        <ele>97.9</ele>
        <time>2011-07-03T09:03:43.000Z</time>
      </trkpt>
      <trkpt lat="46.51503" lon="0.37009">
        <ele>97.5</ele>
        <time>2011-07-03T09:03:44.000Z</time>
      </trkpt>
      <trkpt lat="46.51504" lon="0.37017">
        <ele>97.1</ele>
        <time>2011-07-03T09:03:45.000Z</time>
      </trkpt>
      <trkpt lat="46.51506" lon="0.37024">
        <ele>96.7</ele>
        <time>2011-07-03T09:03:46.000Z</time>
      </trkpt>
      <trkpt lat="46.51508" lon="0.37032">
        <ele>96.5</ele>
        <time>2011-07-03T09:03:47.000Z</time>
      </trkpt>
      <trkpt lat="46.51508" lon="0.37038">
        <ele>96.4</ele>
        <time>2011-07-03T09:03:48.000Z</time>
      </trkpt>
      <trkpt lat="46.5151" lon="0.37045">
        <ele>96.3</ele>
        <time>2011-07-03T09:03:49.000Z</time>
      </trkpt>
      <trkpt lat="46.51511" lon="0.37063">
        <ele>96.4</ele>
        <time>2011-07-03T09:03:52.000Z</time>
      </trkpt>
      <trkpt lat="46.5151" lon="0.37065">
        <ele>96.5</ele>
        <time>2011-07-03T09:03:53.000Z</time>
      </trkpt>
      <trkpt lat="46.51504" lon="0.3707">
        <ele>97.1</ele>
        <time>2011-07-03T09:03:57.000Z</time>
      </trkpt>
      <trkpt lat="46.51497" lon="0.37076">
        <ele>98.3</ele>
        <time>2011-07-03T09:04:01.000Z</time>
      </trkpt>
      <trkpt lat="46.51495" lon="0.37079">
        <ele>99</ele>
        <time>2011-07-03T09:04:03.000Z</time>
      </trkpt>
      <trkpt lat="46.51493" lon="0.37081">
        <ele>99.4</ele>
        <time>2011-07-03T09:04:05.000Z</time>
      </trkpt>
      <trkpt lat="46.51492" lon="0.37081">
        <ele>99.6</ele>
        <time>2011-07-03T09:04:06.000Z</time>
      </trkpt>
      <trkpt lat="46.51491" lon="0.37082">
        <ele>99.9</ele>
        <time>2011-07-03T09:04:07.000Z</time>
      </trkpt>
      <trkpt lat="46.5149" lon="0.37082">
        <ele>100.2</ele>
        <time>2011-07-03T09:04:08.000Z</time>
      </trkpt>
      <trkpt lat="46.51489" lon="0.37083">
        <ele>100.4</ele>
        <time>2011-07-03T09:04:09.000Z</time>
      </trkpt>
      <trkpt lat="46.51486" lon="0.37086">
        <ele>101.4</ele>
        <time>2011-07-03T09:04:12.000Z</time>
      </trkpt>
      <trkpt lat="46.51485" lon="0.37087">
        <ele>101.6</ele>
        <time>2011-07-03T09:04:13.000Z</time>
      </trkpt>
      <trkpt lat="46.51484" lon="0.37087">
        <ele>101.8</ele>
        <time>2011-07-03T09:04:14.000Z</time>
      </trkpt>
      <trkpt lat="46.51483" lon="0.37088">
        <ele>102.2</ele>
        <time>2011-07-03T09:04:15.000Z</time>
      </trkpt>
      <trkpt lat="46.51482" lon="0.37088">
        <ele>102.5</ele>
        <time>2011-07-03T09:04:16.000Z</time>
      </trkpt>
      <trkpt lat="46.5148" lon="0.37089">
        <ele>102.9</ele>
        <time>2011-07-03T09:04:17.000Z</time>
      </trkpt>
      <trkpt lat="46.51475" lon="0.37091">
        <ele>104.1</ele>
        <time>2011-07-03T09:04:21.000Z</time>
      </trkpt>
      <trkpt lat="46.51474" lon="0.37091">
        <ele>104.5</ele>
        <time>2011-07-03T09:04:22.000Z</time>
      </trkpt>
      <trkpt lat="46.51472" lon="0.37092">
        <ele>104.9</ele>
        <time>2011-07-03T09:04:23.000Z</time>
      </trkpt>
      <trkpt lat="46.51472" lon="0.37092">
        <ele>105</ele>
        <time>2011-07-03T09:04:24.000Z</time>
      </trkpt>
      <trkpt lat="46.51471" lon="0.37093">
        <ele>105.2</ele>
        <time>2011-07-03T09:04:25.000Z</time>
      </trkpt>
      <trkpt lat="46.51468" lon="0.37094">
        <ele>105.9</ele>
        <time>2011-07-03T09:04:27.000Z</time>
      </trkpt>
      <trkpt lat="46.51464" lon="0.37095">
        <ele>106.6</ele>
        <time>2011-07-03T09:04:30.000Z</time>
      </trkpt>
      <trkpt lat="46.51463" lon="0.37096">
        <ele>106.8</ele>
        <time>2011-07-03T09:04:31.000Z</time>
      </trkpt>
      <trkpt lat="46.51462" lon="0.37097">
        <ele>107.1</ele>
        <time>2011-07-03T09:04:32.000Z</time>
      </trkpt>
      <trkpt lat="46.51461" lon="0.37098">
        <ele>107.5</ele>
        <time>2011-07-03T09:04:33.000Z</time>
      </trkpt>
      <trkpt lat="46.51459" lon="0.371">
        <ele>108</ele>
        <time>2011-07-03T09:04:35.000Z</time>
      </trkpt>
      <trkpt lat="46.51456" lon="0.37104">
        <ele>109</ele>
        <time>2011-07-03T09:04:38.000Z</time>
      </trkpt>
      <trkpt lat="46.51455" lon="0.37105">
        <ele>109.4</ele>
        <time>2011-07-03T09:04:39.000Z</time>
      </trkpt>
      <trkpt lat="46.51454" lon="0.37106">
        <ele>109.7</ele>
        <time>2011-07-03T09:04:40.000Z</time>
      </trkpt>
      <trkpt lat="46.51453" lon="0.37107">
        <ele>110</ele>
        <time>2011-07-03T09:04:41.000Z</time>
      </trkpt>
      <trkpt lat="46.51452" lon="0.37108">
        <ele>110.3</ele>
        <time>2011-07-03T09:04:42.000Z</time>
      </trkpt>
      <trkpt lat="46.51451" lon="0.3711">
        <ele>110.6</ele>
        <time>2011-07-03T09:04:43.000Z</time>
      </trkpt>
      <trkpt lat="46.5145" lon="0.37111">
        <ele>111</ele>
        <time>2011-07-03T09:04:44.000Z</time>
      </trkpt>
      <trkpt lat="46.51445" lon="0.37119">
        <ele>112.9</ele>
        <time>2011-07-03T09:04:49.000Z</time>
      </trkpt>
      <trkpt lat="46.51445" lon="0.3712">
        <ele>113.1</ele>
        <time>2011-07-03T09:04:50.000Z</time>
      </trkpt>
      <trkpt lat="46.51445" lon="0.37122">
        <ele>113.5</ele>
        <time>2011-07-03T09:04:51.000Z</time>
      </trkpt>
      <trkpt lat="46.51444" lon="0.37125">
        <ele>114.1</ele>
        <time>2011-07-03T09:04:52.000Z</time>
      </trkpt>
      <trkpt lat="46.51443" lon="0.37128">
        <ele>114.5</ele>
        <time>2011-07-03T09:04:53.000Z</time>
      </trkpt>
      <trkpt lat="46.51443" lon="0.37131">
        <ele>115</ele>
        <time>2011-07-03T09:04:54.000Z</time>
      </trkpt>
      <trkpt lat="46.51442" lon="0.37137">
        <ele>116</ele>
        <time>2011-07-03T09:04:56.000Z</time>
      </trkpt>
      <trkpt lat="46.51441" lon="0.37145">
        <ele>116.8</ele>
        <time>2011-07-03T09:04:59.000Z</time>
      </trkpt>
      <trkpt lat="46.51441" lon="0.37146">
        <ele>117</ele>
        <time>2011-07-03T09:05:00.000Z</time>
      </trkpt>
      <trkpt lat="46.5144" lon="0.37148">
        <ele>117.2</ele>
        <time>2011-07-03T09:05:01.000Z</time>
      </trkpt>
      <trkpt lat="46.5144" lon="0.3715">
        <ele>117.4</ele>
        <time>2011-07-03T09:05:02.000Z</time>
      </trkpt>
      <trkpt lat="46.5144" lon="0.37153">
        <ele>117.6</ele>
        <time>2011-07-03T09:05:03.000Z</time>
      </trkpt>
      <trkpt lat="46.5144" lon="0.37164">
        <ele>118.4</ele>
        <time>2011-07-03T09:05:08.000Z</time>
      </trkpt>
      <trkpt lat="46.51439" lon="0.37165">
        <ele>118.6</ele>
        <time>2011-07-03T09:05:09.000Z</time>
      </trkpt>
      <trkpt lat="46.51439" lon="0.37168">
        <ele>118.9</ele>
        <time>2011-07-03T09:05:10.000Z</time>
      </trkpt>
      <trkpt lat="46.51438" lon="0.37171">
        <ele>119.2</ele>
        <time>2011-07-03T09:05:11.000Z</time>
      </trkpt>
      <trkpt lat="46.51439" lon="0.37173">
        <ele>119.2</ele>
        <time>2011-07-03T09:05:12.000Z</time>
      </trkpt>
      <trkpt lat="46.51439" lon="0.37175">
        <ele>119.3</ele>
        <time>2011-07-03T09:05:13.000Z</time>
      </trkpt>
      <trkpt lat="46.5144" lon="0.37177">
        <ele>119.4</ele>
        <time>2011-07-03T09:05:14.000Z</time>
      </trkpt>
      <trkpt lat="46.51444" lon="0.37193">
        <ele>120</ele>
        <time>2011-07-03T09:05:20.000Z</time>
      </trkpt>
      <trkpt lat="46.51445" lon="0.37195">
        <ele>119.9</ele>
        <time>2011-07-03T09:05:21.000Z</time>
      </trkpt>
      <trkpt lat="46.51452" lon="0.37209">
        <ele>119</ele>
        <time>2011-07-03T09:05:25.000Z</time>
      </trkpt>
      <trkpt lat="46.51461" lon="0.37233">
        <ele>118.3</ele>
        <time>2011-07-03T09:05:31.000Z</time>
      </trkpt>
      <trkpt lat="46.51465" lon="0.37253">
        <ele>118.5</ele>
        <time>2011-07-03T09:05:37.000Z</time>
      </trkpt>
      <trkpt lat="46.51465" lon="0.37256">
        <ele>118.7</ele>
        <time>2011-07-03T09:05:38.000Z</time>
      </trkpt>
      <trkpt lat="46.51464" lon="0.37261">
        <ele>119.1</ele>
        <time>2011-07-03T09:05:39.000Z</time>
      </trkpt>
      <trkpt lat="46.51464" lon="0.37266">
        <ele>119.4</ele>
        <time>2011-07-03T09:05:40.000Z</time>
      </trkpt>
      <trkpt lat="46.51464" lon="0.37271">
        <ele>119.8</ele>
        <time>2011-07-03T09:05:41.000Z</time>
      </trkpt>
      <trkpt lat="46.51463" lon="0.37274">
        <ele>120.1</ele>
        <time>2011-07-03T09:05:42.000Z</time>
      </trkpt>
      <trkpt lat="46.51462" lon="0.37295">
        <ele>120.2</ele>
        <time>2011-07-03T09:05:48.000Z</time>
      </trkpt>
      <trkpt lat="46.51463" lon="0.37315">
        <ele>119.7</ele>
        <time>2011-07-03T09:05:53.000Z</time>
      </trkpt>
      <trkpt lat="46.51465" lon="0.37332">
        <ele>119.1</ele>
        <time>2011-07-03T09:05:58.000Z</time>
      </trkpt>
      <trkpt lat="46.51468" lon="0.37336">
        <ele>118.6</ele>
        <time>2011-07-03T09:06:00.000Z</time>
      </trkpt>
      <trkpt lat="46.51472" lon="0.3734">
        <ele>118.1</ele>
        <time>2011-07-03T09:06:02.000Z</time>
      </trkpt>
      <trkpt lat="46.51479" lon="0.37345">
        <ele>117.2</ele>
        <time>2011-07-03T09:06:05.000Z</time>
      </trkpt>
      <trkpt lat="46.51482" lon="0.37344">
        <ele>116.7</ele>
        <time>2011-07-03T09:06:06.000Z</time>
      </trkpt>
      <trkpt lat="46.51487" lon="0.37345">
        <ele>116.1</ele>
        <time>2011-07-03T09:06:07.000Z</time>
      </trkpt>
      <trkpt lat="46.51491" lon="0.37345">
        <ele>115.6</ele>
        <time>2011-07-03T09:06:08.000Z</time>
      </trkpt>
      <trkpt lat="46.51494" lon="0.37343">
        <ele>115.1</ele>
        <time>2011-07-03T09:06:09.000Z</time>
      </trkpt>
      <trkpt lat="46.51498" lon="0.37341">
        <ele>114.5</ele>
        <time>2011-07-03T09:06:10.000Z</time>
      </trkpt>
      <trkpt lat="46.51505" lon="0.37336">
        <ele>113</ele>
        <time>2011-07-03T09:06:11.000Z</time>
      </trkpt>
      <trkpt lat="46.51506" lon="0.37334">
        <ele>112.5</ele>
        <time>2011-07-03T09:06:12.000Z</time>
      </trkpt>
      <trkpt lat="46.51511" lon="0.3733">
        <ele>111</ele>
        <time>2011-07-03T09:06:13.000Z</time>
      </trkpt>
      <trkpt lat="46.51515" lon="0.37327">
        <ele>109.8</ele>
        <time>2011-07-03T09:06:14.000Z</time>
      </trkpt>
      <trkpt lat="46.51519" lon="0.37324">
        <ele>108.6</ele>
        <time>2011-07-03T09:06:15.000Z</time>
      </trkpt>
      <trkpt lat="46.51522" lon="0.37321">
        <ele>107.7</ele>
        <time>2011-07-03T09:06:16.000Z</time>
      </trkpt>
      <trkpt lat="46.51525" lon="0.37318">
        <ele>106.7</ele>
        <time>2011-07-03T09:06:17.000Z</time>
      </trkpt>
      <trkpt lat="46.51528" lon="0.37315">
        <ele>105.6</ele>
        <time>2011-07-03T09:06:18.000Z</time>
      </trkpt>
      <trkpt lat="46.51533" lon="0.37311">
        <ele>104.1</ele>
        <time>2011-07-03T09:06:19.000Z</time>
      </trkpt>
      <trkpt lat="46.51538" lon="0.37308">
        <ele>102.6</ele>
        <time>2011-07-03T09:06:20.000Z</time>
      </trkpt>
      <trkpt lat="46.51543" lon="0.37309">
        <ele>101.6</ele>
        <time>2011-07-03T09:06:21.000Z</time>
      </trkpt>
      <trkpt lat="46.51545" lon="0.3731">
        <ele>101.1</ele>
        <time>2011-07-03T09:06:22.000Z</time>
      </trkpt>
      <trkpt lat="46.51548" lon="0.37312">
        <ele>100.6</ele>
        <time>2011-07-03T09:06:23.000Z</time>
      </trkpt>
      <trkpt lat="46.51553" lon="0.37314">
        <ele>99.6</ele>
        <time>2011-07-03T09:06:24.000Z</time>
      </trkpt>
      <trkpt lat="46.51558" lon="0.37318">
        <ele>99.1</ele>
        <time>2011-07-03T09:06:25.000Z</time>
      </trkpt>
      <trkpt lat="46.51561" lon="0.37323">
        <ele>99</ele>
        <time>2011-07-03T09:06:26.000Z</time>
      </trkpt>
      <trkpt lat="46.51573" lon="0.37338">
        <ele>98.3</ele>
        <time>2011-07-03T09:06:30.000Z</time>
      </trkpt>
      <trkpt lat="46.51589" lon="0.37354">
        <ele>97.6</ele>
        <time>2011-07-03T09:06:35.000Z</time>
      </trkpt>
      <trkpt lat="46.51599" lon="0.37365">
        <ele>97.2</ele>
        <time>2011-07-03T09:06:39.000Z</time>
      </trkpt>
      <trkpt lat="46.51601" lon="0.37367">
        <ele>97.3</ele>
        <time>2011-07-03T09:06:40.000Z</time>
      </trkpt>
      <trkpt lat="46.51615" lon="0.37386">
        <ele>98.2</ele>
        <time>2011-07-03T09:06:46.000Z</time>
      </trkpt>
      <trkpt lat="46.51629" lon="0.37398">
        <ele>98.1</ele>
        <time>2011-07-03T09:06:51.000Z</time>
      </trkpt>
      <trkpt lat="46.51654" lon="0.37414">
        <ele>96.6</ele>
        <time>2011-07-03T09:06:57.000Z</time>
      </trkpt>
      <trkpt lat="46.51676" lon="0.37427">
        <ele>95.9</ele>
        <time>2011-07-03T09:07:03.000Z</time>
      </trkpt>
      <trkpt lat="46.51706" lon="0.37442">
        <ele>95.4</ele>
        <time>2011-07-03T09:07:09.000Z</time>
      </trkpt>
      <trkpt lat="46.51717" lon="0.37448">
        <ele>95.6</ele>
        <time>2011-07-03T09:07:11.000Z</time>
      </trkpt>
      <trkpt lat="46.51724" lon="0.37455">
        <ele>96.1</ele>
        <time>2011-07-03T09:07:13.000Z</time>
      </trkpt>
      <trkpt lat="46.51733" lon="0.37466">
        <ele>97</ele>
        <time>2011-07-03T09:07:15.000Z</time>
      </trkpt>
      <trkpt lat="46.51743" lon="0.37478">
        <ele>98.2</ele>
        <time>2011-07-03T09:07:18.000Z</time>
      </trkpt>
      <trkpt lat="46.51753" lon="0.37489">
        <ele>99.2</ele>
        <time>2011-07-03T09:07:21.000Z</time>
      </trkpt>
      <trkpt lat="46.51756" lon="0.37492">
        <ele>99.5</ele>
        <time>2011-07-03T09:07:22.000Z</time>
      </trkpt>
      <trkpt lat="46.51759" lon="0.37495">
        <ele>99.7</ele>
        <time>2011-07-03T09:07:23.000Z</time>
      </trkpt>
      <trkpt lat="46.51761" lon="0.37498">
        <ele>99.9</ele>
        <time>2011-07-03T09:07:24.000Z</time>
      </trkpt>
      <trkpt lat="46.51762" lon="0.37505">
        <ele>100.9</ele>
        <time>2011-07-03T09:07:26.000Z</time>
      </trkpt>
      <trkpt lat="46.51761" lon="0.37507">
        <ele>101.4</ele>
        <time>2011-07-03T09:07:27.000Z</time>
      </trkpt>
      <trkpt lat="46.5176" lon="0.3751">
        <ele>101.9</ele>
        <time>2011-07-03T09:07:28.000Z</time>
      </trkpt>
      <trkpt lat="46.51758" lon="0.37512">
        <ele>102.3</ele>
        <time>2011-07-03T09:07:29.000Z</time>
      </trkpt>
      <trkpt lat="46.51758" lon="0.37514">
        <ele>102.7</ele>
        <time>2011-07-03T09:07:30.000Z</time>
      </trkpt>
      <trkpt lat="46.51757" lon="0.37518">
        <ele>103.3</ele>
        <time>2011-07-03T09:07:31.000Z</time>
      </trkpt>
      <trkpt lat="46.51756" lon="0.37522">
        <ele>103.9</ele>
        <time>2011-07-03T09:07:32.000Z</time>
      </trkpt>
      <trkpt lat="46.51756" lon="0.37525">
        <ele>104.3</ele>
        <time>2011-07-03T09:07:33.000Z</time>
      </trkpt>
      <trkpt lat="46.51756" lon="0.37528">
        <ele>104.9</ele>
        <time>2011-07-03T09:07:34.000Z</time>
      </trkpt>
      <trkpt lat="46.51756" lon="0.37531">
        <ele>105.3</ele>
        <time>2011-07-03T09:07:35.000Z</time>
      </trkpt>
      <trkpt lat="46.51756" lon="0.37534">
        <ele>105.7</ele>
        <time>2011-07-03T09:07:36.000Z</time>
      </trkpt>
      <trkpt lat="46.51756" lon="0.37536">
        <ele>106</ele>
        <time>2011-07-03T09:07:37.000Z</time>
      </trkpt>
      <trkpt lat="46.51755" lon="0.37538">
        <ele>106.2</ele>
        <time>2011-07-03T09:07:38.000Z</time>
      </trkpt>
      <trkpt lat="46.51751" lon="0.37548">
        <ele>107.9</ele>
        <time>2011-07-03T09:07:43.000Z</time>
      </trkpt>
      <trkpt lat="46.5175" lon="0.3755">
        <ele>108.2</ele>
        <time>2011-07-03T09:07:44.000Z</time>
      </trkpt>
      <trkpt lat="46.51749" lon="0.37552">
        <ele>108.5</ele>
        <time>2011-07-03T09:07:45.000Z</time>
      </trkpt>
      <trkpt lat="46.51748" lon="0.37553">
        <ele>108.7</ele>
        <time>2011-07-03T09:07:46.000Z</time>
      </trkpt>
      <trkpt lat="46.51748" lon="0.37555">
        <ele>109</ele>
        <time>2011-07-03T09:07:47.000Z</time>
      </trkpt>
      <trkpt lat="46.51747" lon="0.37557">
        <ele>109.2</ele>
        <time>2011-07-03T09:07:48.000Z</time>
      </trkpt>
      <trkpt lat="46.51746" lon="0.37562">
        <ele>109.6</ele>
        <time>2011-07-03T09:07:51.000Z</time>
      </trkpt>
      <trkpt lat="46.51745" lon="0.37566">
        <ele>110</ele>
        <time>2011-07-03T09:07:54.000Z</time>
      </trkpt>
      <trkpt lat="46.51744" lon="0.37567">
        <ele>110.1</ele>
        <time>2011-07-03T09:07:55.000Z</time>
      </trkpt>
      <trkpt lat="46.51743" lon="0.37568">
        <ele>110.2</ele>
        <time>2011-07-03T09:07:56.000Z</time>
      </trkpt>
      <trkpt lat="46.51743" lon="0.37569">
        <ele>110.4</ele>
        <time>2011-07-03T09:07:57.000Z</time>
      </trkpt>
      <trkpt lat="46.51742" lon="0.37571">
        <ele>110.6</ele>
        <time>2011-07-03T09:07:58.000Z</time>
      </trkpt>
      <trkpt lat="46.51738" lon="0.37583">
        <ele>111.9</ele>
        <time>2011-07-03T09:08:05.000Z</time>
      </trkpt>
      <trkpt lat="46.51736" lon="0.3759">
        <ele>112.3</ele>
        <time>2011-07-03T09:08:09.000Z</time>
      </trkpt>
      <trkpt lat="46.51735" lon="0.37591">
        <ele>112.3</ele>
        <time>2011-07-03T09:08:10.000Z</time>
      </trkpt>
      <trkpt lat="46.51734" lon="0.37592">
        <ele>112.5</ele>
        <time>2011-07-03T09:08:11.000Z</time>
      </trkpt>
      <trkpt lat="46.51733" lon="0.37594">
        <ele>112.6</ele>
        <time>2011-07-03T09:08:12.000Z</time>
      </trkpt>
      <trkpt lat="46.51727" lon="0.37608">
        <ele>113.5</ele>
        <time>2011-07-03T09:08:18.000Z</time>
      </trkpt>
      <trkpt lat="46.51724" lon="0.37619">
        <ele>114.2</ele>
        <time>2011-07-03T09:08:22.000Z</time>
      </trkpt>
      <trkpt lat="46.51722" lon="0.37625">
        <ele>114.5</ele>
        <time>2011-07-03T09:08:24.000Z</time>
      </trkpt>
      <trkpt lat="46.51721" lon="0.37628">
        <ele>114.7</ele>
        <time>2011-07-03T09:08:25.000Z</time>
      </trkpt>
      <trkpt lat="46.51721" lon="0.3763">
        <ele>114.8</ele>
        <time>2011-07-03T09:08:26.000Z</time>
      </trkpt>
      <trkpt lat="46.5172" lon="0.37633">
        <ele>114.9</ele>
        <time>2011-07-03T09:08:27.000Z</time>
      </trkpt>
      <trkpt lat="46.5172" lon="0.37636">
        <ele>115.1</ele>
        <time>2011-07-03T09:08:28.000Z</time>
      </trkpt>
      <trkpt lat="46.51715" lon="0.37653">
        <ele>116</ele>
        <time>2011-07-03T09:08:33.000Z</time>
      </trkpt>
      <trkpt lat="46.51715" lon="0.37657">
        <ele>116.2</ele>
        <time>2011-07-03T09:08:34.000Z</time>
      </trkpt>
      <trkpt lat="46.51712" lon="0.37666">
        <ele>116.7</ele>
        <time>2011-07-03T09:08:37.000Z</time>
      </trkpt>
      <trkpt lat="46.51709" lon="0.37676">
        <ele>117</ele>
        <time>2011-07-03T09:08:40.000Z</time>
      </trkpt>
      <trkpt lat="46.51702" lon="0.37696">
        <ele>117.4</ele>
        <time>2011-07-03T09:08:46.000Z</time>
      </trkpt>
      <trkpt lat="46.517" lon="0.37703">
        <ele>117.5</ele>
        <time>2011-07-03T09:08:48.000Z</time>
      </trkpt>
      <trkpt lat="46.51699" lon="0.37707">
        <ele>117.6</ele>
        <time>2011-07-03T09:08:49.000Z</time>
      </trkpt>
      <trkpt lat="46.51698" lon="0.3771">
        <ele>117.7</ele>
        <time>2011-07-03T09:08:50.000Z</time>
      </trkpt>
      <trkpt lat="46.51697" lon="0.37713">
        <ele>117.8</ele>
        <time>2011-07-03T09:08:51.000Z</time>
      </trkpt>
      <trkpt lat="46.51696" lon="0.37716">
        <ele>117.9</ele>
        <time>2011-07-03T09:08:52.000Z</time>
      </trkpt>
      <trkpt lat="46.5169" lon="0.37731">
        <ele>118</ele>
        <time>2011-07-03T09:08:56.000Z</time>
      </trkpt>
      <trkpt lat="46.51686" lon="0.37748">
        <ele>117.7</ele>
        <time>2011-07-03T09:09:01.000Z</time>
      </trkpt>
      <trkpt lat="46.51679" lon="0.37767">
        <ele>117.8</ele>
        <time>2011-07-03T09:09:06.000Z</time>
      </trkpt>
      <trkpt lat="46.51672" lon="0.37793">
        <ele>117.2</ele>
        <time>2011-07-03T09:09:11.000Z</time>
      </trkpt>
      <trkpt lat="46.51665" lon="0.37813">
        <ele>116.5</ele>
        <time>2011-07-03T09:09:15.000Z</time>
      </trkpt>
      <trkpt lat="46.51658" lon="0.37833">
        <ele>115.3</ele>
        <time>2011-07-03T09:09:19.000Z</time>
      </trkpt>
      <trkpt lat="46.51654" lon="0.37847">
        <ele>114.8</ele>
        <time>2011-07-03T09:09:21.000Z</time>
      </trkpt>
      <trkpt lat="46.51647" lon="0.37866">
        <ele>114</ele>
        <time>2011-07-03T09:09:23.000Z</time>
      </trkpt>
      <trkpt lat="46.51645" lon="0.37873">
        <ele>113.9</ele>
        <time>2011-07-03T09:09:24.000Z</time>
      </trkpt>
      <trkpt lat="46.51643" lon="0.3788">
        <ele>113.9</ele>
        <time>2011-07-03T09:09:25.000Z</time>
      </trkpt>
      <trkpt lat="46.5164" lon="0.37885">
        <ele>114</ele>
        <time>2011-07-03T09:09:26.000Z</time>
      </trkpt>
      <trkpt lat="46.51638" lon="0.37891">
        <ele>113.9</ele>
        <time>2011-07-03T09:09:27.000Z</time>
      </trkpt>
      <trkpt lat="46.51635" lon="0.37901">
        <ele>113.2</ele>
        <time>2011-07-03T09:09:29.000Z</time>
      </trkpt>
      <trkpt lat="46.51631" lon="0.37915">
        <ele>112.4</ele>
        <time>2011-07-03T09:09:32.000Z</time>
      </trkpt>
      <trkpt lat="46.51629" lon="0.37929">
        <ele>111.9</ele>
        <time>2011-07-03T09:09:35.000Z</time>
      </trkpt>
      <trkpt lat="46.51627" lon="0.37932">
        <ele>111.9</ele>
        <time>2011-07-03T09:09:36.000Z</time>
      </trkpt>
      <trkpt lat="46.51621" lon="0.37957">
        <ele>110.4</ele>
        <time>2011-07-03T09:09:42.000Z</time>
      </trkpt>
      <trkpt lat="46.51617" lon="0.37963">
        <ele>109.9</ele>
        <time>2011-07-03T09:09:43.000Z</time>
      </trkpt>
      <trkpt lat="46.51612" lon="0.37968">
        <ele>109.5</ele>
        <time>2011-07-03T09:09:45.000Z</time>
      </trkpt>
      <trkpt lat="46.51607" lon="0.37967">
        <ele>109.8</ele>
        <time>2011-07-03T09:09:48.000Z</time>
      </trkpt>
      <trkpt lat="46.51604" lon="0.37967">
        <ele>110</ele>
        <time>2011-07-03T09:09:49.000Z</time>
      </trkpt>
      <trkpt lat="46.51597" lon="0.37963">
        <ele>110.7</ele>
        <time>2011-07-03T09:09:52.000Z</time>
      </trkpt>
      <trkpt lat="46.51592" lon="0.3796">
        <ele>111.1</ele>
        <time>2011-07-03T09:09:54.000Z</time>
      </trkpt>
      <trkpt lat="46.51571" lon="0.37951">
        <ele>112.3</ele>
        <time>2011-07-03T09:10:01.000Z</time>
      </trkpt>
      <trkpt lat="46.51556" lon="0.37949">
        <ele>113</ele>
        <time>2011-07-03T09:10:07.000Z</time>
      </trkpt>
      <trkpt lat="46.51539" lon="0.37948">
        <ele>114.1</ele>
        <time>2011-07-03T09:10:12.000Z</time>
      </trkpt>
      <trkpt lat="46.51527" lon="0.37944">
        <ele>115</ele>
        <time>2011-07-03T09:10:16.000Z</time>
      </trkpt>
      <trkpt lat="46.51525" lon="0.3794">
        <ele>115.2</ele>
        <time>2011-07-03T09:10:17.000Z</time>
      </trkpt>
      <trkpt lat="46.51521" lon="0.37933">
        <ele>115.6</ele>
        <time>2011-07-03T09:10:19.000Z</time>
      </trkpt>
      <trkpt lat="46.51519" lon="0.37931">
        <ele>115.8</ele>
        <time>2011-07-03T09:10:20.000Z</time>
      </trkpt>
      <trkpt lat="46.51517" lon="0.37928">
        <ele>116</ele>
        <time>2011-07-03T09:10:21.000Z</time>
      </trkpt>
      <trkpt lat="46.51513" lon="0.37926">
        <ele>116.2</ele>
        <time>2011-07-03T09:10:22.000Z</time>
      </trkpt>
      <trkpt lat="46.51511" lon="0.37924">
        <ele>116.3</ele>
        <time>2011-07-03T09:10:23.000Z</time>
      </trkpt>
      <trkpt lat="46.51507" lon="0.37921">
        <ele>116.6</ele>
        <time>2011-07-03T09:10:25.000Z</time>
      </trkpt>
      <trkpt lat="46.51491" lon="0.37912">
        <ele>117.4</ele>
        <time>2011-07-03T09:10:31.000Z</time>
      </trkpt>
      <trkpt lat="46.51489" lon="0.37912">
        <ele>117.4</ele>
        <time>2011-07-03T09:10:36.000Z</time>
      </trkpt>
      <trkpt lat="46.51489" lon="0.37912">
        <ele>117.4</ele>
        <time>2011-07-03T09:10:40.000Z</time>
      </trkpt>
      <trkpt lat="46.51489" lon="0.37912">
        <ele>117.4</ele>
        <time>2011-07-03T09:10:50.000Z</time>
      </trkpt>
      <trkpt lat="46.51489" lon="0.37912">
        <ele>117.4</ele>
        <time>2011-07-03T09:10:56.000Z</time>
      </trkpt>
      <trkpt lat="46.51489" lon="0.37912">
        <ele>117.4</ele>
        <time>2011-07-03T09:11:06.000Z</time>
      </trkpt>
      <trkpt lat="46.51489" lon="0.37912">
        <ele>117.4</ele>
        <time>2011-07-03T09:11:15.000Z</time>
      </trkpt>
      <trkpt lat="46.5149" lon="0.37912">
        <ele>117.4</ele>
        <time>2011-07-03T09:11:25.000Z</time>
      </trkpt>
      <trkpt lat="46.5149" lon="0.37912">
        <ele>117.4</ele>
        <time>2011-07-03T09:11:27.000Z</time>
      </trkpt>
      <trkpt lat="46.5149" lon="0.37912">
        <ele>117.4</ele>
        <time>2011-07-03T09:11:28.000Z</time>
      </trkpt>
      <trkpt lat="46.5149" lon="0.37912">
        <ele>117.4</ele>
        <time>2011-07-03T09:11:42.000Z</time>
      </trkpt>
      <trkpt lat="46.51489" lon="0.37912">
        <ele>117.5</ele>
        <time>2011-07-03T09:11:50.000Z</time>
      </trkpt>
      <trkpt lat="46.51489" lon="0.37912">
        <ele>117.5</ele>
        <time>2011-07-03T09:11:54.000Z</time>
      </trkpt>
      <trkpt lat="46.51489" lon="0.37912">
        <ele>117.5</ele>
        <time>2011-07-03T09:11:59.000Z</time>
      </trkpt>
      <trkpt lat="46.51488" lon="0.3791">
        <ele>117.5</ele>
        <time>2011-07-03T09:12:06.000Z</time>
      </trkpt>
      <trkpt lat="46.51487" lon="0.37911">
        <ele>117.6</ele>
        <time>2011-07-03T09:12:07.000Z</time>
      </trkpt>
      <trkpt lat="46.51484" lon="0.37909">
        <ele>117.8</ele>
        <time>2011-07-03T09:12:09.000Z</time>
      </trkpt>
      <trkpt lat="46.5148" lon="0.37906">
        <ele>118</ele>
        <time>2011-07-03T09:12:11.000Z</time>
      </trkpt>
      <trkpt lat="46.51474" lon="0.37899">
        <ele>118.6</ele>
        <time>2011-07-03T09:12:15.000Z</time>
      </trkpt>
      <trkpt lat="46.51471" lon="0.37895">
        <ele>118.8</ele>
        <time>2011-07-03T09:12:17.000Z</time>
      </trkpt>
      <trkpt lat="46.51469" lon="0.37894">
        <ele>118.9</ele>
        <time>2011-07-03T09:12:18.000Z</time>
      </trkpt>
      <trkpt lat="46.51466" lon="0.37894">
        <ele>119</ele>
        <time>2011-07-03T09:12:19.000Z</time>
      </trkpt>
      <trkpt lat="46.51464" lon="0.37893">
        <ele>119.2</ele>
        <time>2011-07-03T09:12:20.000Z</time>
      </trkpt>
      <trkpt lat="46.51453" lon="0.37884">
        <ele>119.8</ele>
        <time>2011-07-03T09:12:24.000Z</time>
      </trkpt>
      <trkpt lat="46.51446" lon="0.37883">
        <ele>120.1</ele>
        <time>2011-07-03T09:12:26.000Z</time>
      </trkpt>
      <trkpt lat="46.51441" lon="0.37885">
        <ele>120.4</ele>
        <time>2011-07-03T09:12:28.000Z</time>
      </trkpt>
      <trkpt lat="46.51439" lon="0.37888">
        <ele>120.4</ele>
        <time>2011-07-03T09:12:30.000Z</time>
      </trkpt>
      <trkpt lat="46.51438" lon="0.3789">
        <ele>120.4</ele>
        <time>2011-07-03T09:12:31.000Z</time>
      </trkpt>
      <trkpt lat="46.51437" lon="0.37892">
        <ele>120.4</ele>
        <time>2011-07-03T09:12:32.000Z</time>
      </trkpt>
      <trkpt lat="46.51437" lon="0.37894">
        <ele>120.3</ele>
        <time>2011-07-03T09:12:33.000Z</time>
      </trkpt>
      <trkpt lat="46.51435" lon="0.37896">
        <ele>120.3</ele>
        <time>2011-07-03T09:12:34.000Z</time>
      </trkpt>
      <trkpt lat="46.51431" lon="0.37905">
        <ele>120.1</ele>
        <time>2011-07-03T09:12:38.000Z</time>
      </trkpt>
      <trkpt lat="46.51427" lon="0.37928">
        <ele>118.8</ele>
        <time>2011-07-03T09:12:42.000Z</time>
      </trkpt>
      <trkpt lat="46.51427" lon="0.37938">
        <ele>118.1</ele>
        <time>2011-07-03T09:12:44.000Z</time>
      </trkpt>
      <trkpt lat="46.51426" lon="0.37941">
        <ele>117.9</ele>
        <time>2011-07-03T09:12:45.000Z</time>
      </trkpt>
      <trkpt lat="46.51425" lon="0.37942">
        <ele>117.9</ele>
        <time>2011-07-03T09:12:46.000Z</time>
      </trkpt>
      <trkpt lat="46.51423" lon="0.37942">
        <ele>118</ele>
        <time>2011-07-03T09:12:47.000Z</time>
      </trkpt>
      <trkpt lat="46.5142" lon="0.37942">
        <ele>118.1</ele>
        <time>2011-07-03T09:12:48.000Z</time>
      </trkpt>
      <trkpt lat="46.51412" lon="0.37941">
        <ele>118.3</ele>
        <time>2011-07-03T09:12:50.000Z</time>
      </trkpt>
      <trkpt lat="46.51394" lon="0.37939">
        <ele>118.4</ele>
        <time>2011-07-03T09:12:55.000Z</time>
      </trkpt>
      <trkpt lat="46.51389" lon="0.3794">
        <ele>118.3</ele>
        <time>2011-07-03T09:12:57.000Z</time>
      </trkpt>
      <trkpt lat="46.5138" lon="0.37948">
        <ele>117.7</ele>
        <time>2011-07-03T09:13:00.000Z</time>
      </trkpt>
      <trkpt lat="46.51363" lon="0.37974">
        <ele>114.8</ele>
        <time>2011-07-03T09:13:05.000Z</time>
      </trkpt>
      <trkpt lat="46.51348" lon="0.37989">
        <ele>113.5</ele>
        <time>2011-07-03T09:13:09.000Z</time>
      </trkpt>
      <trkpt lat="46.51346" lon="0.3799">
        <ele>113.4</ele>
        <time>2011-07-03T09:13:10.000Z</time>
      </trkpt>
      <trkpt lat="46.51344" lon="0.3799">
        <ele>113.4</ele>
        <time>2011-07-03T09:13:11.000Z</time>
      </trkpt>
      <trkpt lat="46.51343" lon="0.37988">
        <ele>113.5</ele>
        <time>2011-07-03T09:13:12.000Z</time>
      </trkpt>
      <trkpt lat="46.51342" lon="0.37987">
        <ele>113.6</ele>
        <time>2011-07-03T09:13:13.000Z</time>
      </trkpt>
      <trkpt lat="46.51339" lon="0.37976">
        <ele>114.6</ele>
        <time>2011-07-03T09:13:17.000Z</time>
      </trkpt>
      <trkpt lat="46.51337" lon="0.37975">
        <ele>114.7</ele>
        <time>2011-07-03T09:13:18.000Z</time>
      </trkpt>
      <trkpt lat="46.51332" lon="0.37973">
        <ele>114.9</ele>
        <time>2011-07-03T09:13:20.000Z</time>
      </trkpt>
      <trkpt lat="46.51324" lon="0.37967">
        <ele>115.2</ele>
        <time>2011-07-03T09:13:22.000Z</time>
      </trkpt>
      <trkpt lat="46.51319" lon="0.3796">
        <ele>115.8</ele>
        <time>2011-07-03T09:13:24.000Z</time>
      </trkpt>
      <trkpt lat="46.5131" lon="0.37955">
        <ele>116.1</ele>
        <time>2011-07-03T09:13:27.000Z</time>
      </trkpt>
      <trkpt lat="46.51307" lon="0.37953">
        <ele>116.1</ele>
        <time>2011-07-03T09:13:28.000Z</time>
      </trkpt>
      <trkpt lat="46.51299" lon="0.37957">
        <ele>115.2</ele>
        <time>2011-07-03T09:13:31.000Z</time>
      </trkpt>
      <trkpt lat="46.51298" lon="0.37961">
        <ele>114.7</ele>
        <time>2011-07-03T09:13:32.000Z</time>
      </trkpt>
      <trkpt lat="46.51297" lon="0.37964">
        <ele>114.3</ele>
        <time>2011-07-03T09:13:33.000Z</time>
      </trkpt>
      <trkpt lat="46.51295" lon="0.37967">
        <ele>113.8</ele>
        <time>2011-07-03T09:13:34.000Z</time>
      </trkpt>
      <trkpt lat="46.51294" lon="0.3797">
        <ele>113.4</ele>
        <time>2011-07-03T09:13:35.000Z</time>
      </trkpt>
      <trkpt lat="46.51292" lon="0.37974">
        <ele>112.7</ele>
        <time>2011-07-03T09:13:36.000Z</time>
      </trkpt>
      <trkpt lat="46.5129" lon="0.37977">
        <ele>112.1</ele>
        <time>2011-07-03T09:13:37.000Z</time>
      </trkpt>
      <trkpt lat="46.51288" lon="0.37984">
        <ele>111.1</ele>
        <time>2011-07-03T09:13:38.000Z</time>
      </trkpt>
      <trkpt lat="46.51287" lon="0.37989">
        <ele>110.2</ele>
        <time>2011-07-03T09:13:39.000Z</time>
      </trkpt>
      <trkpt lat="46.51285" lon="0.37996">
        <ele>109.2</ele>
        <time>2011-07-03T09:13:40.000Z</time>
      </trkpt>
      <trkpt lat="46.51283" lon="0.38001">
        <ele>108.2</ele>
        <time>2011-07-03T09:13:41.000Z</time>
      </trkpt>
      <trkpt lat="46.51281" lon="0.38005">
        <ele>107.3</ele>
        <time>2011-07-03T09:13:42.000Z</time>
      </trkpt>
      <trkpt lat="46.51279" lon="0.38008">
        <ele>106.7</ele>
        <time>2011-07-03T09:13:43.000Z</time>
      </trkpt>
      <trkpt lat="46.51275" lon="0.38006">
        <ele>106.6</ele>
        <time>2011-07-03T09:13:44.000Z</time>
      </trkpt>
      <trkpt lat="46.51273" lon="0.38006">
        <ele>106.5</ele>
        <time>2011-07-03T09:13:45.000Z</time>
      </trkpt>
      <trkpt lat="46.51271" lon="0.38003">
        <ele>106.7</ele>
        <time>2011-07-03T09:13:46.000Z</time>
      </trkpt>
      <trkpt lat="46.51268" lon="0.38001">
        <ele>106.8</ele>
        <time>2011-07-03T09:13:47.000Z</time>
      </trkpt>
      <trkpt lat="46.51266" lon="0.38">
        <ele>106.7</ele>
        <time>2011-07-03T09:13:48.000Z</time>
      </trkpt>
      <trkpt lat="46.51252" lon="0.37995">
        <ele>106.1</ele>
        <time>2011-07-03T09:13:52.000Z</time>
      </trkpt>
      <trkpt lat="46.51227" lon="0.37984">
        <ele>106.5</ele>
        <time>2011-07-03T09:13:57.000Z</time>
      </trkpt>
      <trkpt lat="46.5121" lon="0.37975">
        <ele>107.2</ele>
        <time>2011-07-03T09:14:02.000Z</time>
      </trkpt>
      <trkpt lat="46.51193" lon="0.37967">
        <ele>107.8</ele>
        <time>2011-07-03T09:14:06.000Z</time>
      </trkpt>
      <trkpt lat="46.51184" lon="0.37963">
        <ele>107.8</ele>
        <time>2011-07-03T09:14:08.000Z</time>
      </trkpt>
      <trkpt lat="46.51163" lon="0.37958">
        <ele>107.8</ele>
        <time>2011-07-03T09:14:12.000Z</time>
      </trkpt>
      <trkpt lat="46.51156" lon="0.37957">
        <ele>108.2</ele>
        <time>2011-07-03T09:14:13.000Z</time>
      </trkpt>
      <trkpt lat="46.51138" lon="0.37951">
        <ele>109.5</ele>
        <time>2011-07-03T09:14:16.000Z</time>
      </trkpt>
      <trkpt lat="46.51125" lon="0.37946">
        <ele>109.9</ele>
        <time>2011-07-03T09:14:18.000Z</time>
      </trkpt>
      <trkpt lat="46.5111" lon="0.37942">
        <ele>110.4</ele>
        <time>2011-07-03T09:14:21.000Z</time>
      </trkpt>
      <trkpt lat="46.51105" lon="0.37941">
        <ele>110.7</ele>
        <time>2011-07-03T09:14:22.000Z</time>
      </trkpt>
      <trkpt lat="46.51101" lon="0.37941">
        <ele>110.8</ele>
        <time>2011-07-03T09:14:23.000Z</time>
      </trkpt>
      <trkpt lat="46.51084" lon="0.37939">
        <ele>111.6</ele>
        <time>2011-07-03T09:14:27.000Z</time>
      </trkpt>
      <trkpt lat="46.51064" lon="0.37935">
        <ele>111.3</ele>
        <time>2011-07-03T09:14:32.000Z</time>
      </trkpt>
      <trkpt lat="46.51051" lon="0.37941">
        <ele>110.4</ele>
        <time>2011-07-03T09:14:37.000Z</time>
      </trkpt>
      <trkpt lat="46.51033" lon="0.37948">
        <ele>109.9</ele>
        <time>2011-07-03T09:14:42.000Z</time>
      </trkpt>
      <trkpt lat="46.51024" lon="0.3795">
        <ele>109.8</ele>
        <time>2011-07-03T09:14:44.000Z</time>
      </trkpt>
      <trkpt lat="46.51015" lon="0.37952">
        <ele>109.7</ele>
        <time>2011-07-03T09:14:46.000Z</time>
      </trkpt>
      <trkpt lat="46.51011" lon="0.37952">
        <ele>109.7</ele>
        <time>2011-07-03T09:14:47.000Z</time>
      </trkpt>
      <trkpt lat="46.51007" lon="0.37951">
        <ele>109.8</ele>
        <time>2011-07-03T09:14:48.000Z</time>
      </trkpt>
      <trkpt lat="46.51003" lon="0.37951">
        <ele>109.7</ele>
        <time>2011-07-03T09:14:49.000Z</time>
      </trkpt>
      <trkpt lat="46.5099" lon="0.37955">
        <ele>110.1</ele>
        <time>2011-07-03T09:14:53.000Z</time>
      </trkpt>
      <trkpt lat="46.50974" lon="0.37971">
        <ele>110.8</ele>
        <time>2011-07-03T09:14:58.000Z</time>
      </trkpt>
      <trkpt lat="46.50967" lon="0.37982">
        <ele>111.9</ele>
        <time>2011-07-03T09:15:03.000Z</time>
      </trkpt>
      <trkpt lat="46.50964" lon="0.3799">
        <ele>112.4</ele>
        <time>2011-07-03T09:15:06.000Z</time>
      </trkpt>
      <trkpt lat="46.50963" lon="0.37995">
        <ele>112.7</ele>
        <time>2011-07-03T09:15:07.000Z</time>
      </trkpt>
      <trkpt lat="46.50963" lon="0.38">
        <ele>113</ele>
        <time>2011-07-03T09:15:08.000Z</time>
      </trkpt>
      <trkpt lat="46.50963" lon="0.38003">
        <ele>113.3</ele>
        <time>2011-07-03T09:15:09.000Z</time>
      </trkpt>
      <trkpt lat="46.50962" lon="0.38006">
        <ele>113.6</ele>
        <time>2011-07-03T09:15:10.000Z</time>
      </trkpt>
      <trkpt lat="46.50961" lon="0.3801">
        <ele>114</ele>
        <time>2011-07-03T09:15:11.000Z</time>
      </trkpt>
      <trkpt lat="46.5096" lon="0.38012">
        <ele>114.3</ele>
        <time>2011-07-03T09:15:12.000Z</time>
      </trkpt>
      <trkpt lat="46.5096" lon="0.38014">
        <ele>114.5</ele>
        <time>2011-07-03T09:15:13.000Z</time>
      </trkpt>
      <trkpt lat="46.50959" lon="0.38016">
        <ele>114.7</ele>
        <time>2011-07-03T09:15:14.000Z</time>
      </trkpt>
      <trkpt lat="46.50957" lon="0.38022">
        <ele>115.3</ele>
        <time>2011-07-03T09:15:17.000Z</time>
      </trkpt>
      <trkpt lat="46.50956" lon="0.38024">
        <ele>115.5</ele>
        <time>2011-07-03T09:15:18.000Z</time>
      </trkpt>
      <trkpt lat="46.50956" lon="0.38025">
        <ele>115.7</ele>
        <time>2011-07-03T09:15:19.000Z</time>
      </trkpt>
      <trkpt lat="46.50955" lon="0.38027">
        <ele>115.9</ele>
        <time>2011-07-03T09:15:20.000Z</time>
      </trkpt>
      <trkpt lat="46.50955" lon="0.38029">
        <ele>116.1</ele>
        <time>2011-07-03T09:15:21.000Z</time>
      </trkpt>
      <trkpt lat="46.50954" lon="0.38031">
        <ele>116.3</ele>
        <time>2011-07-03T09:15:22.000Z</time>
      </trkpt>
      <trkpt lat="46.50953" lon="0.38036">
        <ele>116.8</ele>
        <time>2011-07-03T09:15:24.000Z</time>
      </trkpt>
      <trkpt lat="46.50952" lon="0.38046">
        <ele>117.8</ele>
        <time>2011-07-03T09:15:29.000Z</time>
      </trkpt>
      <trkpt lat="46.50952" lon="0.3805">
        <ele>118.1</ele>
        <time>2011-07-03T09:15:30.000Z</time>
      </trkpt>
      <trkpt lat="46.50952" lon="0.38052">
        <ele>118.4</ele>
        <time>2011-07-03T09:15:31.000Z</time>
      </trkpt>
      <trkpt lat="46.50952" lon="0.38054">
        <ele>118.6</ele>
        <time>2011-07-03T09:15:32.000Z</time>
      </trkpt>
      <trkpt lat="46.50952" lon="0.38057">
        <ele>118.9</ele>
        <time>2011-07-03T09:15:33.000Z</time>
      </trkpt>
      <trkpt lat="46.50953" lon="0.38059">
        <ele>119.1</ele>
        <time>2011-07-03T09:15:34.000Z</time>
      </trkpt>
      <trkpt lat="46.50954" lon="0.38066">
        <ele>119.8</ele>
        <time>2011-07-03T09:15:38.000Z</time>
      </trkpt>
      <trkpt lat="46.50955" lon="0.38068">
        <ele>120</ele>
        <time>2011-07-03T09:15:39.000Z</time>
      </trkpt>
      <trkpt lat="46.50955" lon="0.3807">
        <ele>120.1</ele>
        <time>2011-07-03T09:15:40.000Z</time>
      </trkpt>
      <trkpt lat="46.50956" lon="0.38072">
        <ele>120.4</ele>
        <time>2011-07-03T09:15:41.000Z</time>
      </trkpt>
      <trkpt lat="46.50957" lon="0.38074">
        <ele>120.5</ele>
        <time>2011-07-03T09:15:42.000Z</time>
      </trkpt>
      <trkpt lat="46.50958" lon="0.38076">
        <ele>120.7</ele>
        <time>2011-07-03T09:15:43.000Z</time>
      </trkpt>
      <trkpt lat="46.50959" lon="0.38079">
        <ele>121</ele>
        <time>2011-07-03T09:15:44.000Z</time>
      </trkpt>
      <trkpt lat="46.5096" lon="0.38081">
        <ele>121.2</ele>
        <time>2011-07-03T09:15:45.000Z</time>
      </trkpt>
      <trkpt lat="46.50966" lon="0.38092">
        <ele>121.8</ele>
        <time>2011-07-03T09:15:50.000Z</time>
      </trkpt>
      <trkpt lat="46.50969" lon="0.38109">
        <ele>122.9</ele>
        <time>2011-07-03T09:15:55.000Z</time>
      </trkpt>
      <trkpt lat="46.50965" lon="0.38122">
        <ele>123.4</ele>
        <time>2011-07-03T09:15:59.000Z</time>
      </trkpt>
      <trkpt lat="46.50964" lon="0.38125">
        <ele>123.5</ele>
        <time>2011-07-03T09:16:00.000Z</time>
      </trkpt>
      <trkpt lat="46.50959" lon="0.3814">
        <ele>124</ele>
        <time>2011-07-03T09:16:05.000Z</time>
      </trkpt>
      <trkpt lat="46.50956" lon="0.38147">
        <ele>124.2</ele>
        <time>2011-07-03T09:16:07.000Z</time>
      </trkpt>
      <trkpt lat="46.50955" lon="0.3815">
        <ele>124.3</ele>
        <time>2011-07-03T09:16:08.000Z</time>
      </trkpt>
      <trkpt lat="46.50953" lon="0.38154">
        <ele>124.4</ele>
        <time>2011-07-03T09:16:09.000Z</time>
      </trkpt>
      <trkpt lat="46.50952" lon="0.38158">
        <ele>124.5</ele>
        <time>2011-07-03T09:16:10.000Z</time>
      </trkpt>
      <trkpt lat="46.5095" lon="0.38161">
        <ele>124.6</ele>
        <time>2011-07-03T09:16:11.000Z</time>
      </trkpt>
      <trkpt lat="46.50945" lon="0.38177">
        <ele>125</ele>
        <time>2011-07-03T09:16:15.000Z</time>
      </trkpt>
      <trkpt lat="46.50935" lon="0.38201">
        <ele>125.2</ele>
        <time>2011-07-03T09:16:20.000Z</time>
      </trkpt>
      <trkpt lat="46.50921" lon="0.38236">
        <ele>125.3</ele>
        <time>2011-07-03T09:16:27.000Z</time>
      </trkpt>
      <trkpt lat="46.50911" lon="0.38273">
        <ele>124.4</ele>
        <time>2011-07-03T09:16:33.000Z</time>
      </trkpt>
      <trkpt lat="46.50897" lon="0.38307">
        <ele>123.6</ele>
        <time>2011-07-03T09:16:39.000Z</time>
      </trkpt>
      <trkpt lat="46.50881" lon="0.3832">
        <ele>123.8</ele>
        <time>2011-07-03T09:16:43.000Z</time>
      </trkpt>
      <trkpt lat="46.50876" lon="0.38328">
        <ele>123.6</ele>
        <time>2011-07-03T09:16:45.000Z</time>
      </trkpt>
      <trkpt lat="46.50873" lon="0.38333">
        <ele>123.6</ele>
        <time>2011-07-03T09:16:46.000Z</time>
      </trkpt>
      <trkpt lat="46.50851" lon="0.38362">
        <ele>122.3</ele>
        <time>2011-07-03T09:16:52.000Z</time>
      </trkpt>
      <trkpt lat="46.50833" lon="0.38384">
        <ele>122.2</ele>
        <time>2011-07-03T09:16:56.000Z</time>
      </trkpt>
      <trkpt lat="46.50824" lon="0.38391">
        <ele>121.9</ele>
        <time>2011-07-03T09:16:58.000Z</time>
      </trkpt>
      <trkpt lat="46.50819" lon="0.38393">
        <ele>121.7</ele>
        <time>2011-07-03T09:16:59.000Z</time>
      </trkpt>
      <trkpt lat="46.50815" lon="0.38393">
        <ele>121.7</ele>
        <time>2011-07-03T09:17:00.000Z</time>
      </trkpt>
      <trkpt lat="46.5081" lon="0.38394">
        <ele>121.7</ele>
        <time>2011-07-03T09:17:01.000Z</time>
      </trkpt>
      <trkpt lat="46.50804" lon="0.38395">
        <ele>121.6</ele>
        <time>2011-07-03T09:17:02.000Z</time>
      </trkpt>
      <trkpt lat="46.50799" lon="0.38397">
        <ele>121.4</ele>
        <time>2011-07-03T09:17:03.000Z</time>
      </trkpt>
      <trkpt lat="46.50783" lon="0.38394">
        <ele>121.6</ele>
        <time>2011-07-03T09:17:06.000Z</time>
      </trkpt>
      <trkpt lat="46.50771" lon="0.38389">
        <ele>122</ele>
        <time>2011-07-03T09:17:08.000Z</time>
      </trkpt>
      <trkpt lat="46.50765" lon="0.38385">
        <ele>122.3</ele>
        <time>2011-07-03T09:17:09.000Z</time>
      </trkpt>
      <trkpt lat="46.50756" lon="0.38376">
        <ele>122.9</ele>
        <time>2011-07-03T09:17:11.000Z</time>
      </trkpt>
      <trkpt lat="46.5075" lon="0.38361">
        <ele>124</ele>
        <time>2011-07-03T09:17:14.000Z</time>
      </trkpt>
      <trkpt lat="46.50745" lon="0.3835">
        <ele>124.8</ele>
        <time>2011-07-03T09:17:17.000Z</time>
      </trkpt>
      <trkpt lat="46.50744" lon="0.38347">
        <ele>125</ele>
        <time>2011-07-03T09:17:18.000Z</time>
      </trkpt>
      <trkpt lat="46.50737" lon="0.3834">
        <ele>125.5</ele>
        <time>2011-07-03T09:17:21.000Z</time>
      </trkpt>
      <trkpt lat="46.50734" lon="0.3834">
        <ele>125.5</ele>
        <time>2011-07-03T09:17:22.000Z</time>
      </trkpt>
      <trkpt lat="46.5073" lon="0.38341">
        <ele>125.5</ele>
        <time>2011-07-03T09:17:23.000Z</time>
      </trkpt>
      <trkpt lat="46.50727" lon="0.38339">
        <ele>125.6</ele>
        <time>2011-07-03T09:17:24.000Z</time>
      </trkpt>
      <trkpt lat="46.50722" lon="0.38339">
        <ele>125.6</ele>
        <time>2011-07-03T09:17:25.000Z</time>
      </trkpt>
      <trkpt lat="46.50716" lon="0.38339">
        <ele>125.5</ele>
        <time>2011-07-03T09:17:26.000Z</time>
      </trkpt>
      <trkpt lat="46.507" lon="0.38348">
        <ele>124.5</ele>
        <time>2011-07-03T09:17:29.000Z</time>
      </trkpt>
      <trkpt lat="46.50695" lon="0.38352">
        <ele>124</ele>
        <time>2011-07-03T09:17:30.000Z</time>
      </trkpt>
      <trkpt lat="46.50667" lon="0.38362">
        <ele>123</ele>
        <time>2011-07-03T09:17:35.000Z</time>
      </trkpt>
      <trkpt lat="46.50664" lon="0.38362">
        <ele>123</ele>
        <time>2011-07-03T09:17:36.000Z</time>
      </trkpt>
      <trkpt lat="46.50662" lon="0.38363">
        <ele>122.9</ele>
        <time>2011-07-03T09:17:37.000Z</time>
      </trkpt>
      <trkpt lat="46.50662" lon="0.38365">
        <ele>122.9</ele>
        <time>2011-07-03T09:17:38.000Z</time>
      </trkpt>
      <trkpt lat="46.50664" lon="0.38367">
        <ele>122.8</ele>
        <time>2011-07-03T09:17:39.000Z</time>
      </trkpt>
      <trkpt lat="46.50669" lon="0.38372">
        <ele>122.6</ele>
        <time>2011-07-03T09:17:41.000Z</time>
      </trkpt>
      <trkpt lat="46.50686" lon="0.38389">
        <ele>121.3</ele>
        <time>2011-07-03T09:17:46.000Z</time>
      </trkpt>
      <trkpt lat="46.50702" lon="0.38401">
        <ele>120.7</ele>
        <time>2011-07-03T09:17:49.000Z</time>
      </trkpt>
      <trkpt lat="46.50708" lon="0.38405">
        <ele>120.6</ele>
        <time>2011-07-03T09:17:50.000Z</time>
      </trkpt>
      <trkpt lat="46.50714" lon="0.38409">
        <ele>120.5</ele>
        <time>2011-07-03T09:17:51.000Z</time>
      </trkpt>
      <trkpt lat="46.50719" lon="0.38414">
        <ele>120.2</ele>
        <time>2011-07-03T09:17:52.000Z</time>
      </trkpt>
      <trkpt lat="46.50725" lon="0.38419">
        <ele>119.8</ele>
        <time>2011-07-03T09:17:53.000Z</time>
      </trkpt>
      <trkpt lat="46.50741" lon="0.38434">
        <ele>118.7</ele>
        <time>2011-07-03T09:17:56.000Z</time>
      </trkpt>
      <trkpt lat="46.50748" lon="0.38439">
        <ele>118.3</ele>
        <time>2011-07-03T09:17:57.000Z</time>
      </trkpt>
      <trkpt lat="46.50753" lon="0.38444">
        <ele>118</ele>
        <time>2011-07-03T09:17:58.000Z</time>
      </trkpt>
      <trkpt lat="46.5076" lon="0.38449">
        <ele>117.9</ele>
        <time>2011-07-03T09:17:59.000Z</time>
      </trkpt>
      <trkpt lat="46.50766" lon="0.38453">
        <ele>117.7</ele>
        <time>2011-07-03T09:18:00.000Z</time>
      </trkpt>
      <trkpt lat="46.50771" lon="0.38458">
        <ele>117.2</ele>
        <time>2011-07-03T09:18:01.000Z</time>
      </trkpt>
      <trkpt lat="46.50775" lon="0.38463">
        <ele>116.8</ele>
        <time>2011-07-03T09:18:02.000Z</time>
      </trkpt>
      <trkpt lat="46.50777" lon="0.38464">
        <ele>116.6</ele>
        <time>2011-07-03T09:18:03.000Z</time>
      </trkpt>
      <trkpt lat="46.50779" lon="0.38466">
        <ele>116.4</ele>
        <time>2011-07-03T09:18:04.000Z</time>
      </trkpt>
      <trkpt lat="46.50781" lon="0.38467">
        <ele>116.2</ele>
        <time>2011-07-03T09:18:05.000Z</time>
      </trkpt>
      <trkpt lat="46.50784" lon="0.38468">
        <ele>116.1</ele>
        <time>2011-07-03T09:18:06.000Z</time>
      </trkpt>
      <trkpt lat="46.50786" lon="0.38467">
        <ele>116.1</ele>
        <time>2011-07-03T09:18:07.000Z</time>
      </trkpt>
      <trkpt lat="46.50789" lon="0.38465">
        <ele>116.1</ele>
        <time>2011-07-03T09:18:08.000Z</time>
      </trkpt>
      <trkpt lat="46.50793" lon="0.38463">
        <ele>116.1</ele>
        <time>2011-07-03T09:18:10.000Z</time>
      </trkpt>
      <trkpt lat="46.50808" lon="0.38451">
        <ele>116.5</ele>
        <time>2011-07-03T09:18:15.000Z</time>
      </trkpt>
      <trkpt lat="46.5081" lon="0.38448">
        <ele>116.7</ele>
        <time>2011-07-03T09:18:16.000Z</time>
      </trkpt>
      <trkpt lat="46.50812" lon="0.38445">
        <ele>116.9</ele>
        <time>2011-07-03T09:18:17.000Z</time>
      </trkpt>
      <trkpt lat="46.50813" lon="0.38444">
        <ele>117</ele>
        <time>2011-07-03T09:18:18.000Z</time>
      </trkpt>
      <trkpt lat="46.50816" lon="0.38443">
        <ele>117.2</ele>
        <time>2011-07-03T09:18:19.000Z</time>
      </trkpt>
      <trkpt lat="46.50818" lon="0.38441">
        <ele>117.4</ele>
        <time>2011-07-03T09:18:20.000Z</time>
      </trkpt>
      <trkpt lat="46.50827" lon="0.38432">
        <ele>118.3</ele>
        <time>2011-07-03T09:18:24.000Z</time>
      </trkpt>
      <trkpt lat="46.50829" lon="0.3843">
        <ele>118.6</ele>
        <time>2011-07-03T09:18:25.000Z</time>
      </trkpt>
      <trkpt lat="46.50845" lon="0.38421">
        <ele>119.1</ele>
        <time>2011-07-03T09:18:31.000Z</time>
      </trkpt>
      <trkpt lat="46.5085" lon="0.38414">
        <ele>119.6</ele>
        <time>2011-07-03T09:18:34.000Z</time>
      </trkpt>
      <trkpt lat="46.50854" lon="0.3841">
        <ele>119.7</ele>
        <time>2011-07-03T09:18:36.000Z</time>
      </trkpt>
      <trkpt lat="46.50859" lon="0.38405">
        <ele>120</ele>
        <time>2011-07-03T09:18:39.000Z</time>
      </trkpt>
      <trkpt lat="46.50862" lon="0.38403">
        <ele>119.9</ele>
        <time>2011-07-03T09:18:41.000Z</time>
      </trkpt>
      <trkpt lat="46.5088" lon="0.38386">
        <ele>120.5</ele>
        <time>2011-07-03T09:18:47.000Z</time>
      </trkpt>
      <trkpt lat="46.50898" lon="0.3837">
        <ele>120.7</ele>
        <time>2011-07-03T09:18:54.000Z</time>
      </trkpt>
      <trkpt lat="46.509" lon="0.38369">
        <ele>120.6</ele>
        <time>2011-07-03T09:18:55.000Z</time>
      </trkpt>
      <trkpt lat="46.50904" lon="0.38366">
        <ele>120.6</ele>
        <time>2011-07-03T09:18:58.000Z</time>
      </trkpt>
      <trkpt lat="46.50906" lon="0.38364">
        <ele>120.6</ele>
        <time>2011-07-03T09:18:59.000Z</time>
      </trkpt>
      <trkpt lat="46.50917" lon="0.38351">
        <ele>120.7</ele>
        <time>2011-07-03T09:19:03.000Z</time>
      </trkpt>
      <trkpt lat="46.50921" lon="0.38348">
        <ele>120.4</ele>
        <time>2011-07-03T09:19:05.000Z</time>
      </trkpt>
      <trkpt lat="46.50933" lon="0.38342">
        <ele>119.6</ele>
        <time>2011-07-03T09:19:08.000Z</time>
      </trkpt>
      <trkpt lat="46.50947" lon="0.38331">
        <ele>118.6</ele>
        <time>2011-07-03T09:19:12.000Z</time>
      </trkpt>
      <trkpt lat="46.50949" lon="0.38328">
        <ele>118.4</ele>
        <time>2011-07-03T09:19:13.000Z</time>
      </trkpt>
      <trkpt lat="46.50957" lon="0.38314">
        <ele>117.2</ele>
        <time>2011-07-03T09:19:18.000Z</time>
      </trkpt>
      <trkpt lat="46.5096" lon="0.38306">
        <ele>117.1</ele>
        <time>2011-07-03T09:19:20.000Z</time>
      </trkpt>
      <trkpt lat="46.50967" lon="0.38278">
        <ele>118.9</ele>
        <time>2011-07-03T09:19:27.000Z</time>
      </trkpt>
      <trkpt lat="46.50969" lon="0.38272">
        <ele>119.1</ele>
        <time>2011-07-03T09:19:29.000Z</time>
      </trkpt>
      <trkpt lat="46.50976" lon="0.38257">
        <ele>119</ele>
        <time>2011-07-03T09:19:33.000Z</time>
      </trkpt>
      <trkpt lat="46.50989" lon="0.38237">
        <ele>117.6</ele>
        <time>2011-07-03T09:19:39.000Z</time>
      </trkpt>
      <trkpt lat="46.50998" lon="0.38226">
        <ele>117.7</ele>
        <time>2011-07-03T09:19:44.000Z</time>
      </trkpt>
      <trkpt lat="46.50999" lon="0.38225">
        <ele>117.6</ele>
        <time>2011-07-03T09:19:45.000Z</time>
      </trkpt>
      <trkpt lat="46.51011" lon="0.38209">
        <ele>116.1</ele>
        <time>2011-07-03T09:19:50.000Z</time>
      </trkpt>
      <trkpt lat="46.51022" lon="0.38191">
        <ele>115.9</ele>
        <time>2011-07-03T09:19:56.000Z</time>
      </trkpt>
      <trkpt lat="46.51034" lon="0.38175">
        <ele>116</ele>
        <time>2011-07-03T09:20:01.000Z</time>
      </trkpt>
      <trkpt lat="46.51048" lon="0.38154">
        <ele>116.2</ele>
        <time>2011-07-03T09:20:06.000Z</time>
      </trkpt>
      <trkpt lat="46.51053" lon="0.38131">
        <ele>117.9</ele>
        <time>2011-07-03T09:20:12.000Z</time>
      </trkpt>
      <trkpt lat="46.5106" lon="0.38113">
        <ele>118.5</ele>
        <time>2011-07-03T09:20:17.000Z</time>
      </trkpt>
      <trkpt lat="46.51063" lon="0.38103">
        <ele>118.8</ele>
        <time>2011-07-03T09:20:20.000Z</time>
      </trkpt>
      <trkpt lat="46.51066" lon="0.38101">
        <ele>118.7</ele>
        <time>2011-07-03T09:20:23.000Z</time>
      </trkpt>
      <trkpt lat="46.51068" lon="0.38103">
        <ele>118.5</ele>
        <time>2011-07-03T09:20:24.000Z</time>
      </trkpt>
      <trkpt lat="46.51072" lon="0.38115">
        <ele>117.3</ele>
        <time>2011-07-03T09:20:28.000Z</time>
      </trkpt>
      <trkpt lat="46.51072" lon="0.38119">
        <ele>116.8</ele>
        <time>2011-07-03T09:20:29.000Z</time>
      </trkpt>
      <trkpt lat="46.51072" lon="0.3813">
        <ele>115.3</ele>
        <time>2011-07-03T09:20:32.000Z</time>
      </trkpt>
      <trkpt lat="46.51072" lon="0.38132">
        <ele>115</ele>
        <time>2011-07-03T09:20:33.000Z</time>
      </trkpt>
      <trkpt lat="46.51072" lon="0.38134">
        <ele>114.7</ele>
        <time>2011-07-03T09:20:34.000Z</time>
      </trkpt>
      <trkpt lat="46.51073" lon="0.38135">
        <ele>114.4</ele>
        <time>2011-07-03T09:20:35.000Z</time>
      </trkpt>
      <trkpt lat="46.51075" lon="0.38136">
        <ele>114</ele>
        <time>2011-07-03T09:20:36.000Z</time>
      </trkpt>
      <trkpt lat="46.51076" lon="0.38135">
        <ele>113.8</ele>
        <time>2011-07-03T09:20:37.000Z</time>
      </trkpt>
      <trkpt lat="46.51077" lon="0.38135">
        <ele>113.7</ele>
        <time>2011-07-03T09:20:38.000Z</time>
      </trkpt>
      <trkpt lat="46.51079" lon="0.38135">
        <ele>113.4</ele>
        <time>2011-07-03T09:20:39.000Z</time>
      </trkpt>
      <trkpt lat="46.51081" lon="0.38136">
        <ele>113</ele>
        <time>2011-07-03T09:20:40.000Z</time>
      </trkpt>
      <trkpt lat="46.51082" lon="0.38135">
        <ele>112.8</ele>
        <time>2011-07-03T09:20:41.000Z</time>
      </trkpt>
      <trkpt lat="46.51084" lon="0.38135">
        <ele>112.5</ele>
        <time>2011-07-03T09:20:42.000Z</time>
      </trkpt>
      <trkpt lat="46.51086" lon="0.38134">
        <ele>112.2</ele>
        <time>2011-07-03T09:20:43.000Z</time>
      </trkpt>
      <trkpt lat="46.51088" lon="0.38134">
        <ele>111.8</ele>
        <time>2011-07-03T09:20:44.000Z</time>
      </trkpt>
      <trkpt lat="46.5109" lon="0.38134">
        <ele>111.2</ele>
        <time>2011-07-03T09:20:45.000Z</time>
      </trkpt>
      <trkpt lat="46.51093" lon="0.38134">
        <ele>110.7</ele>
        <time>2011-07-03T09:20:46.000Z</time>
      </trkpt>
      <trkpt lat="46.51095" lon="0.38133">
        <ele>110.3</ele>
        <time>2011-07-03T09:20:47.000Z</time>
      </trkpt>
      <trkpt lat="46.51097" lon="0.38133">
        <ele>109.9</ele>
        <time>2011-07-03T09:20:48.000Z</time>
      </trkpt>
      <trkpt lat="46.51099" lon="0.38132">
        <ele>109.5</ele>
        <time>2011-07-03T09:20:49.000Z</time>
      </trkpt>
      <trkpt lat="46.51101" lon="0.38132">
        <ele>109.2</ele>
        <time>2011-07-03T09:20:50.000Z</time>
      </trkpt>
      <trkpt lat="46.51103" lon="0.38131">
        <ele>109</ele>
        <time>2011-07-03T09:20:51.000Z</time>
      </trkpt>
      <trkpt lat="46.51105" lon="0.3813">
        <ele>109</ele>
        <time>2011-07-03T09:20:52.000Z</time>
      </trkpt>
      <trkpt lat="46.51107" lon="0.38128">
        <ele>109</ele>
        <time>2011-07-03T09:20:53.000Z</time>
      </trkpt>
      <trkpt lat="46.51109" lon="0.38126">
        <ele>109.1</ele>
        <time>2011-07-03T09:20:54.000Z</time>
      </trkpt>
      <trkpt lat="46.51111" lon="0.38123">
        <ele>109.6</ele>
        <time>2011-07-03T09:20:55.000Z</time>
      </trkpt>
      <trkpt lat="46.51114" lon="0.38121">
        <ele>109.8</ele>
        <time>2011-07-03T09:20:56.000Z</time>
      </trkpt>
      <trkpt lat="46.51116" lon="0.38119">
        <ele>109.7</ele>
        <time>2011-07-03T09:20:57.000Z</time>
      </trkpt>
      <trkpt lat="46.51118" lon="0.38119">
        <ele>109.5</ele>
        <time>2011-07-03T09:20:58.000Z</time>
      </trkpt>
      <trkpt lat="46.51128" lon="0.38113">
        <ele>109.5</ele>
        <time>2011-07-03T09:21:03.000Z</time>
      </trkpt>
      <trkpt lat="46.5113" lon="0.38111">
        <ele>109.6</ele>
        <time>2011-07-03T09:21:04.000Z</time>
      </trkpt>
      <trkpt lat="46.51132" lon="0.3811">
        <ele>109.5</ele>
        <time>2011-07-03T09:21:05.000Z</time>
      </trkpt>
      <trkpt lat="46.51134" lon="0.38109">
        <ele>109.4</ele>
        <time>2011-07-03T09:21:06.000Z</time>
      </trkpt>
      <trkpt lat="46.51136" lon="0.38108">
        <ele>109.1</ele>
        <time>2011-07-03T09:21:07.000Z</time>
      </trkpt>
      <trkpt lat="46.51137" lon="0.38108">
        <ele>108.9</ele>
        <time>2011-07-03T09:21:08.000Z</time>
      </trkpt>
      <trkpt lat="46.51139" lon="0.38106">
        <ele>108.9</ele>
        <time>2011-07-03T09:21:09.000Z</time>
      </trkpt>
      <trkpt lat="46.51141" lon="0.38104">
        <ele>108.8</ele>
        <time>2011-07-03T09:21:10.000Z</time>
      </trkpt>
      <trkpt lat="46.5115" lon="0.38096">
        <ele>108.8</ele>
        <time>2011-07-03T09:21:15.000Z</time>
      </trkpt>
      <trkpt lat="46.51154" lon="0.38094">
        <ele>108.6</ele>
        <time>2011-07-03T09:21:16.000Z</time>
      </trkpt>
      <trkpt lat="46.51156" lon="0.38092">
        <ele>108.5</ele>
        <time>2011-07-03T09:21:17.000Z</time>
      </trkpt>
      <trkpt lat="46.51162" lon="0.38089">
        <ele>108.3</ele>
        <time>2011-07-03T09:21:20.000Z</time>
      </trkpt>
      <trkpt lat="46.51166" lon="0.38088">
        <ele>108</ele>
        <time>2011-07-03T09:21:23.000Z</time>
      </trkpt>
      <trkpt lat="46.51177" lon="0.3808">
        <ele>107.1</ele>
        <time>2011-07-03T09:21:28.000Z</time>
      </trkpt>
      <trkpt lat="46.51187" lon="0.38072">
        <ele>105.8</ele>
        <time>2011-07-03T09:21:32.000Z</time>
      </trkpt>
      <trkpt lat="46.51197" lon="0.38066">
        <ele>104.4</ele>
        <time>2011-07-03T09:21:36.000Z</time>
      </trkpt>
      <trkpt lat="46.5121" lon="0.38055">
        <ele>103.1</ele>
        <time>2011-07-03T09:21:42.000Z</time>
      </trkpt>
      <trkpt lat="46.51212" lon="0.38054">
        <ele>102.8</ele>
        <time>2011-07-03T09:21:43.000Z</time>
      </trkpt>
      <trkpt lat="46.51214" lon="0.38052">
        <ele>102.5</ele>
        <time>2011-07-03T09:21:44.000Z</time>
      </trkpt>
      <trkpt lat="46.51215" lon="0.38051">
        <ele>102.2</ele>
        <time>2011-07-03T09:21:45.000Z</time>
      </trkpt>
      <trkpt lat="46.51216" lon="0.3805">
        <ele>102</ele>
        <time>2011-07-03T09:21:46.000Z</time>
      </trkpt>
      <trkpt lat="46.51218" lon="0.38049">
        <ele>101.8</ele>
        <time>2011-07-03T09:21:47.000Z</time>
      </trkpt>
      <trkpt lat="46.5122" lon="0.38049">
        <ele>101.4</ele>
        <time>2011-07-03T09:21:48.000Z</time>
      </trkpt>
      <trkpt lat="46.51222" lon="0.38049">
        <ele>101</ele>
        <time>2011-07-03T09:21:49.000Z</time>
      </trkpt>
      <trkpt lat="46.51224" lon="0.38048">
        <ele>100.9</ele>
        <time>2011-07-03T09:21:50.000Z</time>
      </trkpt>
      <trkpt lat="46.51227" lon="0.38049">
        <ele>100.8</ele>
        <time>2011-07-03T09:21:51.000Z</time>
      </trkpt>
      <trkpt lat="46.51231" lon="0.3805">
        <ele>100.5</ele>
        <time>2011-07-03T09:21:52.000Z</time>
      </trkpt>
      <trkpt lat="46.51245" lon="0.38064">
        <ele>98.8</ele>
        <time>2011-07-03T09:21:55.000Z</time>
      </trkpt>
      <trkpt lat="46.51251" lon="0.38068">
        <ele>98.1</ele>
        <time>2011-07-03T09:21:56.000Z</time>
      </trkpt>
      <trkpt lat="46.51276" lon="0.3808">
        <ele>96.4</ele>
        <time>2011-07-03T09:22:01.000Z</time>
      </trkpt>
      <trkpt lat="46.51282" lon="0.38082">
        <ele>96.3</ele>
        <time>2011-07-03T09:22:02.000Z</time>
      </trkpt>
      <trkpt lat="46.51297" lon="0.38088">
        <ele>96.4</ele>
        <time>2011-07-03T09:22:05.000Z</time>
      </trkpt>
      <trkpt lat="46.51301" lon="0.3809">
        <ele>96.4</ele>
        <time>2011-07-03T09:22:06.000Z</time>
      </trkpt>
      <trkpt lat="46.51306" lon="0.38091">
        <ele>96.4</ele>
        <time>2011-07-03T09:22:07.000Z</time>
      </trkpt>
      <trkpt lat="46.51311" lon="0.38094">
        <ele>96.4</ele>
        <time>2011-07-03T09:22:08.000Z</time>
      </trkpt>
      <trkpt lat="46.51317" lon="0.38095">
        <ele>96.4</ele>
        <time>2011-07-03T09:22:09.000Z</time>
      </trkpt>
      <trkpt lat="46.51341" lon="0.38101">
        <ele>96.4</ele>
        <time>2011-07-03T09:22:14.000Z</time>
      </trkpt>
      <trkpt lat="46.5135" lon="0.38103">
        <ele>96.6</ele>
        <time>2011-07-03T09:22:16.000Z</time>
      </trkpt>
      <trkpt lat="46.51376" lon="0.38109">
        <ele>97.3</ele>
        <time>2011-07-03T09:22:22.000Z</time>
      </trkpt>
      <trkpt lat="46.51379" lon="0.38113">
        <ele>97.2</ele>
        <time>2011-07-03T09:22:23.000Z</time>
      </trkpt>
      <trkpt lat="46.51383" lon="0.38123">
        <ele>96.5</ele>
        <time>2011-07-03T09:22:25.000Z</time>
      </trkpt>
      <trkpt lat="46.51389" lon="0.3814">
        <ele>95</ele>
        <time>2011-07-03T09:22:28.000Z</time>
      </trkpt>
      <trkpt lat="46.51392" lon="0.38145">
        <ele>95.1</ele>
        <time>2011-07-03T09:22:29.000Z</time>
      </trkpt>
      <trkpt lat="46.51395" lon="0.38148">
        <ele>95.1</ele>
        <time>2011-07-03T09:22:30.000Z</time>
      </trkpt>
      <trkpt lat="46.51407" lon="0.38153">
        <ele>95.3</ele>
        <time>2011-07-03T09:22:33.000Z</time>
      </trkpt>
      <trkpt lat="46.51411" lon="0.38154">
        <ele>95.4</ele>
        <time>2011-07-03T09:22:34.000Z</time>
      </trkpt>
      <trkpt lat="46.51424" lon="0.38166">
        <ele>95.3</ele>
        <time>2011-07-03T09:22:38.000Z</time>
      </trkpt>
      <trkpt lat="46.51436" lon="0.38177">
        <ele>95.4</ele>
        <time>2011-07-03T09:22:42.000Z</time>
      </trkpt>
      <trkpt lat="46.51455" lon="0.3818">
        <ele>95.7</ele>
        <time>2011-07-03T09:22:46.000Z</time>
      </trkpt>
      <trkpt lat="46.51459" lon="0.38182">
        <ele>95.7</ele>
        <time>2011-07-03T09:22:47.000Z</time>
      </trkpt>
      <trkpt lat="46.51469" lon="0.38193">
        <ele>95.9</ele>
        <time>2011-07-03T09:22:50.000Z</time>
      </trkpt>
      <trkpt lat="46.51472" lon="0.38199">
        <ele>96</ele>
        <time>2011-07-03T09:22:52.000Z</time>
      </trkpt>
      <trkpt lat="46.51475" lon="0.38201">
        <ele>96</ele>
        <time>2011-07-03T09:22:53.000Z</time>
      </trkpt>
      <trkpt lat="46.51483" lon="0.3821">
        <ele>96</ele>
        <time>2011-07-03T09:22:57.000Z</time>
      </trkpt>
      <trkpt lat="46.51488" lon="0.38214">
        <ele>96</ele>
        <time>2011-07-03T09:22:59.000Z</time>
      </trkpt>
      <trkpt lat="46.51493" lon="0.38217">
        <ele>96</ele>
        <time>2011-07-03T09:23:01.000Z</time>
      </trkpt>
      <trkpt lat="46.51508" lon="0.38226">
        <ele>96.1</ele>
        <time>2011-07-03T09:23:06.000Z</time>
      </trkpt>
      <trkpt lat="46.51518" lon="0.38225">
        <ele>96</ele>
        <time>2011-07-03T09:23:09.000Z</time>
      </trkpt>
      <trkpt lat="46.51521" lon="0.38223">
        <ele>96</ele>
        <time>2011-07-03T09:23:10.000Z</time>
      </trkpt>
      <trkpt lat="46.51529" lon="0.38221">
        <ele>96.1</ele>
        <time>2011-07-03T09:23:13.000Z</time>
      </trkpt>
      <trkpt lat="46.5153" lon="0.38221">
        <ele>96</ele>
        <time>2011-07-03T09:23:14.000Z</time>
      </trkpt>
      <trkpt lat="46.51544" lon="0.38223">
        <ele>96</ele>
        <time>2011-07-03T09:23:18.000Z</time>
      </trkpt>
      <trkpt lat="46.5156" lon="0.38224">
        <ele>96</ele>
        <time>2011-07-03T09:23:23.000Z</time>
      </trkpt>
      <trkpt lat="46.5158" lon="0.38233">
        <ele>95.7</ele>
        <time>2011-07-03T09:23:28.000Z</time>
      </trkpt>
      <trkpt lat="46.51588" lon="0.38242">
        <ele>95.1</ele>
        <time>2011-07-03T09:23:32.000Z</time>
      </trkpt>
      <trkpt lat="46.51592" lon="0.38244">
        <ele>94.9</ele>
        <time>2011-07-03T09:23:34.000Z</time>
      </trkpt>
      <trkpt lat="46.51598" lon="0.38245">
        <ele>94.7</ele>
        <time>2011-07-03T09:23:36.000Z</time>
      </trkpt>
      <trkpt lat="46.51613" lon="0.38248">
        <ele>94.1</ele>
        <time>2011-07-03T09:23:41.000Z</time>
      </trkpt>
      <trkpt lat="46.51629" lon="0.38246">
        <ele>94.2</ele>
        <time>2011-07-03T09:23:47.000Z</time>
      </trkpt>
      <trkpt lat="46.51634" lon="0.38246">
        <ele>94.1</ele>
        <time>2011-07-03T09:23:49.000Z</time>
      </trkpt>
      <trkpt lat="46.51638" lon="0.38249">
        <ele>94</ele>
        <time>2011-07-03T09:23:51.000Z</time>
      </trkpt>
      <trkpt lat="46.51641" lon="0.38253">
        <ele>94.1</ele>
        <time>2011-07-03T09:23:52.000Z</time>
      </trkpt>
      <trkpt lat="46.51651" lon="0.38261">
        <ele>94.6</ele>
        <time>2011-07-03T09:23:56.000Z</time>
      </trkpt>
      <trkpt lat="46.51663" lon="0.38262">
        <ele>94.9</ele>
        <time>2011-07-03T09:24:00.000Z</time>
      </trkpt>
      <trkpt lat="46.51668" lon="0.38249">
        <ele>95</ele>
        <time>2011-07-03T09:24:03.000Z</time>
      </trkpt>
      <trkpt lat="46.51669" lon="0.38245">
        <ele>95.2</ele>
        <time>2011-07-03T09:24:04.000Z</time>
      </trkpt>
      <trkpt lat="46.51668" lon="0.3824">
        <ele>95.3</ele>
        <time>2011-07-03T09:24:05.000Z</time>
      </trkpt>
      <trkpt lat="46.51666" lon="0.38231">
        <ele>95.7</ele>
        <time>2011-07-03T09:24:07.000Z</time>
      </trkpt>
      <trkpt lat="46.51667" lon="0.38221">
        <ele>96.1</ele>
        <time>2011-07-03T09:24:09.000Z</time>
      </trkpt>
      <trkpt lat="46.51665" lon="0.38207">
        <ele>97.1</ele>
        <time>2011-07-03T09:24:12.000Z</time>
      </trkpt>
      <trkpt lat="46.51661" lon="0.3819">
        <ele>98.3</ele>
        <time>2011-07-03T09:24:16.000Z</time>
      </trkpt>
      <trkpt lat="46.5166" lon="0.38187">
        <ele>98.5</ele>
        <time>2011-07-03T09:24:17.000Z</time>
      </trkpt>
      <trkpt lat="46.51659" lon="0.38185">
        <ele>98.7</ele>
        <time>2011-07-03T09:24:18.000Z</time>
      </trkpt>
      <trkpt lat="46.51657" lon="0.38182">
        <ele>98.9</ele>
        <time>2011-07-03T09:24:19.000Z</time>
      </trkpt>
      <trkpt lat="46.51655" lon="0.38177">
        <ele>99.2</ele>
        <time>2011-07-03T09:24:20.000Z</time>
      </trkpt>
      <trkpt lat="46.51652" lon="0.38164">
        <ele>100.2</ele>
        <time>2011-07-03T09:24:23.000Z</time>
      </trkpt>
      <trkpt lat="46.51646" lon="0.38136">
        <ele>102.2</ele>
        <time>2011-07-03T09:24:30.000Z</time>
      </trkpt>
      <trkpt lat="46.51645" lon="0.38133">
        <ele>102.4</ele>
        <time>2011-07-03T09:24:31.000Z</time>
      </trkpt>
      <trkpt lat="46.51646" lon="0.3813">
        <ele>102.6</ele>
        <time>2011-07-03T09:24:32.000Z</time>
      </trkpt>
      <trkpt lat="46.51646" lon="0.38127">
        <ele>102.7</ele>
        <time>2011-07-03T09:24:33.000Z</time>
      </trkpt>
      <trkpt lat="46.51648" lon="0.38125">
        <ele>102.8</ele>
        <time>2011-07-03T09:24:34.000Z</time>
      </trkpt>
      <trkpt lat="46.51651" lon="0.38124">
        <ele>102.8</ele>
        <time>2011-07-03T09:24:35.000Z</time>
      </trkpt>
      <trkpt lat="46.51659" lon="0.38123">
        <ele>102.7</ele>
        <time>2011-07-03T09:24:37.000Z</time>
      </trkpt>
      <trkpt lat="46.51662" lon="0.38122">
        <ele>102.7</ele>
        <time>2011-07-03T09:24:38.000Z</time>
      </trkpt>
      <trkpt lat="46.51667" lon="0.3812">
        <ele>102.7</ele>
        <time>2011-07-03T09:24:40.000Z</time>
      </trkpt>
      <trkpt lat="46.51675" lon="0.38113">
        <ele>102.6</ele>
        <time>2011-07-03T09:24:43.000Z</time>
      </trkpt>
      <trkpt lat="46.51677" lon="0.3811">
        <ele>102.7</ele>
        <time>2011-07-03T09:24:44.000Z</time>
      </trkpt>
      <trkpt lat="46.51692" lon="0.38099">
        <ele>102.5</ele>
        <time>2011-07-03T09:24:48.000Z</time>
      </trkpt>
      <trkpt lat="46.51709" lon="0.38085">
        <ele>102.9</ele>
        <time>2011-07-03T09:24:52.000Z</time>
      </trkpt>
      <trkpt lat="46.51713" lon="0.38082">
        <ele>103</ele>
        <time>2011-07-03T09:24:53.000Z</time>
      </trkpt>
      <trkpt lat="46.51742" lon="0.38061">
        <ele>102.3</ele>
        <time>2011-07-03T09:24:59.000Z</time>
      </trkpt>
      <trkpt lat="46.51772" lon="0.38041">
        <ele>101.2</ele>
        <time>2011-07-03T09:25:05.000Z</time>
      </trkpt>
      <trkpt lat="46.518" lon="0.38017">
        <ele>99.4</ele>
        <time>2011-07-03T09:25:10.000Z</time>
      </trkpt>
      <trkpt lat="46.51805" lon="0.38011">
        <ele>99.1</ele>
        <time>2011-07-03T09:25:11.000Z</time>
      </trkpt>
      <trkpt lat="46.51817" lon="0.37999">
        <ele>98.1</ele>
        <time>2011-07-03T09:25:14.000Z</time>
      </trkpt>
      <trkpt lat="46.51822" lon="0.37998">
        <ele>97.8</ele>
        <time>2011-07-03T09:25:15.000Z</time>
      </trkpt>
      <trkpt lat="46.51826" lon="0.37998">
        <ele>97.5</ele>
        <time>2011-07-03T09:25:16.000Z</time>
      </trkpt>
      <trkpt lat="46.5183" lon="0.37998">
        <ele>97.2</ele>
        <time>2011-07-03T09:25:17.000Z</time>
      </trkpt>
      <trkpt lat="46.51835" lon="0.37999">
        <ele>97</ele>
        <time>2011-07-03T09:25:18.000Z</time>
      </trkpt>
      <trkpt lat="46.51839" lon="0.38">
        <ele>96.8</ele>
        <time>2011-07-03T09:25:19.000Z</time>
      </trkpt>
      <trkpt lat="46.51854" lon="0.38005">
        <ele>96.2</ele>
        <time>2011-07-03T09:25:22.000Z</time>
      </trkpt>
      <trkpt lat="46.51859" lon="0.38009">
        <ele>96.1</ele>
        <time>2011-07-03T09:25:23.000Z</time>
      </trkpt>
      <trkpt lat="46.51871" lon="0.38014">
        <ele>95.7</ele>
        <time>2011-07-03T09:25:25.000Z</time>
      </trkpt>
      <trkpt lat="46.51876" lon="0.38015">
        <ele>95.5</ele>
        <time>2011-07-03T09:25:26.000Z</time>
      </trkpt>
      <trkpt lat="46.51881" lon="0.38016">
        <ele>95.3</ele>
        <time>2011-07-03T09:25:27.000Z</time>
      </trkpt>
      <trkpt lat="46.51887" lon="0.38015">
        <ele>95.1</ele>
        <time>2011-07-03T09:25:28.000Z</time>
      </trkpt>
      <trkpt lat="46.51892" lon="0.38012">
        <ele>94.8</ele>
        <time>2011-07-03T09:25:29.000Z</time>
      </trkpt>
      <trkpt lat="46.51902" lon="0.38005">
        <ele>94.5</ele>
        <time>2011-07-03T09:25:31.000Z</time>
      </trkpt>
      <trkpt lat="46.51905" lon="0.38001">
        <ele>94.4</ele>
        <time>2011-07-03T09:25:32.000Z</time>
      </trkpt>
      <trkpt lat="46.51909" lon="0.37997">
        <ele>94.3</ele>
        <time>2011-07-03T09:25:33.000Z</time>
      </trkpt>
      <trkpt lat="46.51912" lon="0.37993">
        <ele>94.2</ele>
        <time>2011-07-03T09:25:34.000Z</time>
      </trkpt>
      <trkpt lat="46.51915" lon="0.37989">
        <ele>94.1</ele>
        <time>2011-07-03T09:25:35.000Z</time>
      </trkpt>
      <trkpt lat="46.51917" lon="0.37985">
        <ele>94</ele>
        <time>2011-07-03T09:25:36.000Z</time>
      </trkpt>
      <trkpt lat="46.51921" lon="0.37975">
        <ele>94</ele>
        <time>2011-07-03T09:25:39.000Z</time>
      </trkpt>
      <trkpt lat="46.51929" lon="0.37971">
        <ele>94</ele>
        <time>2011-07-03T09:25:43.000Z</time>
      </trkpt>
      <trkpt lat="46.51931" lon="0.37971">
        <ele>94</ele>
        <time>2011-07-03T09:25:44.000Z</time>
      </trkpt>
      <trkpt lat="46.51946" lon="0.37968">
        <ele>94.1</ele>
        <time>2011-07-03T09:25:49.000Z</time>
      </trkpt>
      <trkpt lat="46.51967" lon="0.37963">
        <ele>94.8</ele>
        <time>2011-07-03T09:25:55.000Z</time>
      </trkpt>
      <trkpt lat="46.51974" lon="0.37965">
        <ele>95.2</ele>
        <time>2011-07-03T09:25:58.000Z</time>
      </trkpt>
      <trkpt lat="46.51979" lon="0.37968">
        <ele>95.8</ele>
        <time>2011-07-03T09:26:00.000Z</time>
      </trkpt>
      <trkpt lat="46.5199" lon="0.3798">
        <ele>97</ele>
        <time>2011-07-03T09:26:05.000Z</time>
      </trkpt>
      <trkpt lat="46.51992" lon="0.37983">
        <ele>97.2</ele>
        <time>2011-07-03T09:26:06.000Z</time>
      </trkpt>
      <trkpt lat="46.51994" lon="0.37986">
        <ele>97.5</ele>
        <time>2011-07-03T09:26:07.000Z</time>
      </trkpt>
      <trkpt lat="46.51997" lon="0.37988">
        <ele>97.7</ele>
        <time>2011-07-03T09:26:08.000Z</time>
      </trkpt>
      <trkpt lat="46.51999" lon="0.3799">
        <ele>97.9</ele>
        <time>2011-07-03T09:26:09.000Z</time>
      </trkpt>
      <trkpt lat="46.52001" lon="0.37993">
        <ele>98.2</ele>
        <time>2011-07-03T09:26:10.000Z</time>
      </trkpt>
      <trkpt lat="46.52003" lon="0.37994">
        <ele>98.5</ele>
        <time>2011-07-03T09:26:11.000Z</time>
      </trkpt>
      <trkpt lat="46.52008" lon="0.37995">
        <ele>99.5</ele>
        <time>2011-07-03T09:26:14.000Z</time>
      </trkpt>
      <trkpt lat="46.5201" lon="0.37994">
        <ele>99.7</ele>
        <time>2011-07-03T09:26:15.000Z</time>
      </trkpt>
      <trkpt lat="46.52011" lon="0.37995">
        <ele>99.9</ele>
        <time>2011-07-03T09:26:16.000Z</time>
      </trkpt>
      <trkpt lat="46.52012" lon="0.37995">
        <ele>100.1</ele>
        <time>2011-07-03T09:26:17.000Z</time>
      </trkpt>
      <trkpt lat="46.52013" lon="0.37996">
        <ele>100.3</ele>
        <time>2011-07-03T09:26:18.000Z</time>
      </trkpt>
      <trkpt lat="46.52014" lon="0.37997">
        <ele>100.5</ele>
        <time>2011-07-03T09:26:19.000Z</time>
      </trkpt>
      <trkpt lat="46.52018" lon="0.38001">
        <ele>101.4</ele>
        <time>2011-07-03T09:26:23.000Z</time>
      </trkpt>
      <trkpt lat="46.52022" lon="0.38001">
        <ele>101.9</ele>
        <time>2011-07-03T09:26:25.000Z</time>
      </trkpt>
      <trkpt lat="46.52023" lon="0.38003">
        <ele>102.2</ele>
        <time>2011-07-03T09:26:26.000Z</time>
      </trkpt>
      <trkpt lat="46.52024" lon="0.38003">
        <ele>102.4</ele>
        <time>2011-07-03T09:26:27.000Z</time>
      </trkpt>
      <trkpt lat="46.52025" lon="0.38004">
        <ele>102.6</ele>
        <time>2011-07-03T09:26:28.000Z</time>
      </trkpt>
      <trkpt lat="46.52027" lon="0.38005">
        <ele>102.8</ele>
        <time>2011-07-03T09:26:29.000Z</time>
      </trkpt>
      <trkpt lat="46.52037" lon="0.3801">
        <ele>104.4</ele>
        <time>2011-07-03T09:26:34.000Z</time>
      </trkpt>
      <trkpt lat="46.52038" lon="0.38011">
        <ele>104.6</ele>
        <time>2011-07-03T09:26:35.000Z</time>
      </trkpt>
      <trkpt lat="46.5204" lon="0.38012">
        <ele>104.8</ele>
        <time>2011-07-03T09:26:36.000Z</time>
      </trkpt>
      <trkpt lat="46.52041" lon="0.38012">
        <ele>105</ele>
        <time>2011-07-03T09:26:37.000Z</time>
      </trkpt>
      <trkpt lat="46.52042" lon="0.38012">
        <ele>105.1</ele>
        <time>2011-07-03T09:26:38.000Z</time>
      </trkpt>
      <trkpt lat="46.52047" lon="0.38013">
        <ele>105.8</ele>
        <time>2011-07-03T09:26:43.000Z</time>
      </trkpt>
      <trkpt lat="46.52049" lon="0.38014">
        <ele>106</ele>
        <time>2011-07-03T09:26:45.000Z</time>
      </trkpt>
      <trkpt lat="46.5205" lon="0.38015">
        <ele>106.1</ele>
        <time>2011-07-03T09:26:46.000Z</time>
      </trkpt>
      <trkpt lat="46.52051" lon="0.38015">
        <ele>106.2</ele>
        <time>2011-07-03T09:26:47.000Z</time>
      </trkpt>
      <trkpt lat="46.52052" lon="0.38016">
        <ele>106.3</ele>
        <time>2011-07-03T09:26:48.000Z</time>
      </trkpt>
      <trkpt lat="46.52052" lon="0.38016">
        <ele>106.4</ele>
        <time>2011-07-03T09:26:49.000Z</time>
      </trkpt>
      <trkpt lat="46.5206" lon="0.38018">
        <ele>107.7</ele>
        <time>2011-07-03T09:26:55.000Z</time>
      </trkpt>
      <trkpt lat="46.52062" lon="0.38018">
        <ele>108.2</ele>
        <time>2011-07-03T09:26:57.000Z</time>
      </trkpt>
      <trkpt lat="46.52064" lon="0.38018">
        <ele>108.5</ele>
        <time>2011-07-03T09:26:58.000Z</time>
      </trkpt>
      <trkpt lat="46.52065" lon="0.38018">
        <ele>108.8</ele>
        <time>2011-07-03T09:26:59.000Z</time>
      </trkpt>
      <trkpt lat="46.52066" lon="0.38018">
        <ele>109.1</ele>
        <time>2011-07-03T09:27:00.000Z</time>
      </trkpt>
      <trkpt lat="46.52068" lon="0.38017">
        <ele>109.4</ele>
        <time>2011-07-03T09:27:01.000Z</time>
      </trkpt>
      <trkpt lat="46.52069" lon="0.38017">
        <ele>109.6</ele>
        <time>2011-07-03T09:27:02.000Z</time>
      </trkpt>
      <trkpt lat="46.52071" lon="0.38018">
        <ele>110.1</ele>
        <time>2011-07-03T09:27:07.000Z</time>
      </trkpt>
      <trkpt lat="46.52072" lon="0.38019">
        <ele>110.1</ele>
        <time>2011-07-03T09:27:08.000Z</time>
      </trkpt>
      <trkpt lat="46.52072" lon="0.3802">
        <ele>110.2</ele>
        <time>2011-07-03T09:27:09.000Z</time>
      </trkpt>
      <trkpt lat="46.52072" lon="0.3802">
        <ele>110.2</ele>
        <time>2011-07-03T09:27:10.000Z</time>
      </trkpt>
      <trkpt lat="46.52077" lon="0.3802">
        <ele>111.1</ele>
        <time>2011-07-03T09:27:14.000Z</time>
      </trkpt>
      <trkpt lat="46.52078" lon="0.38021">
        <ele>111.4</ele>
        <time>2011-07-03T09:27:15.000Z</time>
      </trkpt>
      <trkpt lat="46.5208" lon="0.38022">
        <ele>111.8</ele>
        <time>2011-07-03T09:27:16.000Z</time>
      </trkpt>
      <trkpt lat="46.52082" lon="0.38022">
        <ele>112.1</ele>
        <time>2011-07-03T09:27:17.000Z</time>
      </trkpt>
      <trkpt lat="46.52083" lon="0.38021">
        <ele>112.4</ele>
        <time>2011-07-03T09:27:18.000Z</time>
      </trkpt>
      <trkpt lat="46.52084" lon="0.3802">
        <ele>112.6</ele>
        <time>2011-07-03T09:27:19.000Z</time>
      </trkpt>
      <trkpt lat="46.52091" lon="0.38019">
        <ele>113.9</ele>
        <time>2011-07-03T09:27:25.000Z</time>
      </trkpt>
      <trkpt lat="46.52092" lon="0.3802">
        <ele>114.2</ele>
        <time>2011-07-03T09:27:26.000Z</time>
      </trkpt>
      <trkpt lat="46.52094" lon="0.3802">
        <ele>114.4</ele>
        <time>2011-07-03T09:27:27.000Z</time>
      </trkpt>
      <trkpt lat="46.52095" lon="0.3802">
        <ele>114.6</ele>
        <time>2011-07-03T09:27:28.000Z</time>
      </trkpt>
      <trkpt lat="46.52096" lon="0.38019">
        <ele>114.9</ele>
        <time>2011-07-03T09:27:29.000Z</time>
      </trkpt>
      <trkpt lat="46.52097" lon="0.38019">
        <ele>115.1</ele>
        <time>2011-07-03T09:27:30.000Z</time>
      </trkpt>
      <trkpt lat="46.52104" lon="0.38018">
        <ele>116.4</ele>
        <time>2011-07-03T09:27:36.000Z</time>
      </trkpt>
      <trkpt lat="46.52105" lon="0.38018">
        <ele>116.6</ele>
        <time>2011-07-03T09:27:37.000Z</time>
      </trkpt>
      <trkpt lat="46.52106" lon="0.38018">
        <ele>116.8</ele>
        <time>2011-07-03T09:27:38.000Z</time>
      </trkpt>
      <trkpt lat="46.52107" lon="0.38018">
        <ele>117.1</ele>
        <time>2011-07-03T09:27:39.000Z</time>
      </trkpt>
      <trkpt lat="46.52108" lon="0.38017">
        <ele>117.3</ele>
        <time>2011-07-03T09:27:40.000Z</time>
      </trkpt>
      <trkpt lat="46.52112" lon="0.38017">
        <ele>117.9</ele>
        <time>2011-07-03T09:27:44.000Z</time>
      </trkpt>
      <trkpt lat="46.52119" lon="0.38014">
        <ele>118.7</ele>
        <time>2011-07-03T09:27:50.000Z</time>
      </trkpt>
      <trkpt lat="46.52123" lon="0.38013">
        <ele>119.1</ele>
        <time>2011-07-03T09:27:54.000Z</time>
      </trkpt>
      <trkpt lat="46.52124" lon="0.38013">
        <ele>119.2</ele>
        <time>2011-07-03T09:27:55.000Z</time>
      </trkpt>
      <trkpt lat="46.52125" lon="0.38014">
        <ele>119.2</ele>
        <time>2011-07-03T09:27:56.000Z</time>
      </trkpt>
      <trkpt lat="46.52126" lon="0.38015">
        <ele>119.2</ele>
        <time>2011-07-03T09:27:57.000Z</time>
      </trkpt>
      <trkpt lat="46.52126" lon="0.38015">
        <ele>119.3</ele>
        <time>2011-07-03T09:27:58.000Z</time>
      </trkpt>
      <trkpt lat="46.5213" lon="0.38012">
        <ele>119.8</ele>
        <time>2011-07-03T09:28:02.000Z</time>
      </trkpt>
      <trkpt lat="46.5214" lon="0.38006">
        <ele>120.8</ele>
        <time>2011-07-03T09:28:08.000Z</time>
      </trkpt>
      <trkpt lat="46.52142" lon="0.38005">
        <ele>120.9</ele>
        <time>2011-07-03T09:28:09.000Z</time>
      </trkpt>
      <trkpt lat="46.52144" lon="0.38004">
        <ele>121.1</ele>
        <time>2011-07-03T09:28:10.000Z</time>
      </trkpt>
      <trkpt lat="46.52146" lon="0.38003">
        <ele>121.2</ele>
        <time>2011-07-03T09:28:11.000Z</time>
      </trkpt>
      <trkpt lat="46.52148" lon="0.38001">
        <ele>121.3</ele>
        <time>2011-07-03T09:28:12.000Z</time>
      </trkpt>
      <trkpt lat="46.52149" lon="0.38">
        <ele>121.4</ele>
        <time>2011-07-03T09:28:13.000Z</time>
      </trkpt>
      <trkpt lat="46.52163" lon="0.37992">
        <ele>122.1</ele>
        <time>2011-07-03T09:28:20.000Z</time>
      </trkpt>
      <trkpt lat="46.5217" lon="0.3799">
        <ele>122.5</ele>
        <time>2011-07-03T09:28:24.000Z</time>
      </trkpt>
      <trkpt lat="46.52172" lon="0.37989">
        <ele>122.5</ele>
        <time>2011-07-03T09:28:25.000Z</time>
      </trkpt>
      <trkpt lat="46.52174" lon="0.37987">
        <ele>122.6</ele>
        <time>2011-07-03T09:28:26.000Z</time>
      </trkpt>
      <trkpt lat="46.52176" lon="0.37985">
        <ele>122.7</ele>
        <time>2011-07-03T09:28:27.000Z</time>
      </trkpt>
      <trkpt lat="46.52178" lon="0.37982">
        <ele>122.8</ele>
        <time>2011-07-03T09:28:28.000Z</time>
      </trkpt>
      <trkpt lat="46.52186" lon="0.37975">
        <ele>123</ele>
        <time>2011-07-03T09:28:32.000Z</time>
      </trkpt>
      <trkpt lat="46.52197" lon="0.37963">
        <ele>123</ele>
        <time>2011-07-03T09:28:37.000Z</time>
      </trkpt>
      <trkpt lat="46.52211" lon="0.37946">
        <ele>123</ele>
        <time>2011-07-03T09:28:43.000Z</time>
      </trkpt>
      <trkpt lat="46.52225" lon="0.37925">
        <ele>122.9</ele>
        <time>2011-07-03T09:28:49.000Z</time>
      </trkpt>
      <trkpt lat="46.52237" lon="0.3791">
        <ele>122.3</ele>
        <time>2011-07-03T09:28:54.000Z</time>
      </trkpt>
      <trkpt lat="46.52251" lon="0.37903">
        <ele>121.5</ele>
        <time>2011-07-03T09:28:59.000Z</time>
      </trkpt>
      <trkpt lat="46.52265" lon="0.37896">
        <ele>120.7</ele>
        <time>2011-07-03T09:29:04.000Z</time>
      </trkpt>
      <trkpt lat="46.52268" lon="0.37894">
        <ele>120.5</ele>
        <time>2011-07-03T09:29:05.000Z</time>
      </trkpt>
      <trkpt lat="46.52275" lon="0.37892">
        <ele>120.2</ele>
        <time>2011-07-03T09:29:07.000Z</time>
      </trkpt>
      <trkpt lat="46.52283" lon="0.37893">
        <ele>120</ele>
        <time>2011-07-03T09:29:09.000Z</time>
      </trkpt>
      <trkpt lat="46.52285" lon="0.37895">
        <ele>120</ele>
        <time>2011-07-03T09:29:10.000Z</time>
      </trkpt>
      <trkpt lat="46.5229" lon="0.37903">
        <ele>120.3</ele>
        <time>2011-07-03T09:29:13.000Z</time>
      </trkpt>
      <trkpt lat="46.52301" lon="0.37921">
        <ele>121.2</ele>
        <time>2011-07-03T09:29:19.000Z</time>
      </trkpt>
      <trkpt lat="46.52305" lon="0.37927">
        <ele>121.4</ele>
        <time>2011-07-03T09:29:21.000Z</time>
      </trkpt>
      <trkpt lat="46.52307" lon="0.37929">
        <ele>121.4</ele>
        <time>2011-07-03T09:29:22.000Z</time>
      </trkpt>
      <trkpt lat="46.52309" lon="0.37932">
        <ele>121.4</ele>
        <time>2011-07-03T09:29:23.000Z</time>
      </trkpt>
      <trkpt lat="46.52312" lon="0.37935">
        <ele>121.4</ele>
        <time>2011-07-03T09:29:24.000Z</time>
      </trkpt>
      <trkpt lat="46.52313" lon="0.37938">
        <ele>121.5</ele>
        <time>2011-07-03T09:29:25.000Z</time>
      </trkpt>
      <trkpt lat="46.52324" lon="0.37954">
        <ele>121.9</ele>
        <time>2011-07-03T09:29:32.000Z</time>
      </trkpt>
      <trkpt lat="46.52331" lon="0.37965">
        <ele>122.5</ele>
        <time>2011-07-03T09:29:36.000Z</time>
      </trkpt>
      <trkpt lat="46.52332" lon="0.37969">
        <ele>122.8</ele>
        <time>2011-07-03T09:29:37.000Z</time>
      </trkpt>
      <trkpt lat="46.52334" lon="0.37976">
        <ele>123.1</ele>
        <time>2011-07-03T09:29:39.000Z</time>
      </trkpt>
      <trkpt lat="46.52336" lon="0.37979">
        <ele>123.2</ele>
        <time>2011-07-03T09:29:40.000Z</time>
      </trkpt>
      <trkpt lat="46.52337" lon="0.37982">
        <ele>123.4</ele>
        <time>2011-07-03T09:29:41.000Z</time>
      </trkpt>
      <trkpt lat="46.52338" lon="0.37986">
        <ele>123.5</ele>
        <time>2011-07-03T09:29:42.000Z</time>
      </trkpt>
      <trkpt lat="46.52339" lon="0.37989">
        <ele>123.6</ele>
        <time>2011-07-03T09:29:43.000Z</time>
      </trkpt>
      <trkpt lat="46.52344" lon="0.38001">
        <ele>124</ele>
        <time>2011-07-03T09:29:46.000Z</time>
      </trkpt>
      <trkpt lat="46.52355" lon="0.38023">
        <ele>124.8</ele>
        <time>2011-07-03T09:29:52.000Z</time>
      </trkpt>
      <trkpt lat="46.52367" lon="0.38049">
        <ele>125</ele>
        <time>2011-07-03T09:29:59.000Z</time>
      </trkpt>
      <trkpt lat="46.52383" lon="0.38073">
        <ele>125</ele>
        <time>2011-07-03T09:30:05.000Z</time>
      </trkpt>
      <trkpt lat="46.52397" lon="0.381">
        <ele>125.2</ele>
        <time>2011-07-03T09:30:11.000Z</time>
      </trkpt>
      <trkpt lat="46.52404" lon="0.38113">
        <ele>125.6</ele>
        <time>2011-07-03T09:30:14.000Z</time>
      </trkpt>
      <trkpt lat="46.52406" lon="0.38116">
        <ele>125.7</ele>
        <time>2011-07-03T09:30:15.000Z</time>
      </trkpt>
      <trkpt lat="46.52408" lon="0.38117">
        <ele>125.8</ele>
        <time>2011-07-03T09:30:16.000Z</time>
      </trkpt>
      <trkpt lat="46.52411" lon="0.3812">
        <ele>125.9</ele>
        <time>2011-07-03T09:30:17.000Z</time>
      </trkpt>
      <trkpt lat="46.52414" lon="0.38123">
        <ele>125.9</ele>
        <time>2011-07-03T09:30:18.000Z</time>
      </trkpt>
      <trkpt lat="46.5242" lon="0.38129">
        <ele>126</ele>
        <time>2011-07-03T09:30:20.000Z</time>
      </trkpt>
      <trkpt lat="46.52433" lon="0.38147">
        <ele>126.2</ele>
        <time>2011-07-03T09:30:25.000Z</time>
      </trkpt>
      <trkpt lat="46.52447" lon="0.38167">
        <ele>127</ele>
        <time>2011-07-03T09:30:31.000Z</time>
      </trkpt>
      <trkpt lat="46.52463" lon="0.38186">
        <ele>127</ele>
        <time>2011-07-03T09:30:37.000Z</time>
      </trkpt>
      <trkpt lat="46.5248" lon="0.38205">
        <ele>127.4</ele>
        <time>2011-07-03T09:30:43.000Z</time>
      </trkpt>
      <trkpt lat="46.52481" lon="0.38208">
        <ele>127.5</ele>
        <time>2011-07-03T09:30:44.000Z</time>
      </trkpt>
      <trkpt lat="46.52483" lon="0.38212">
        <ele>127.6</ele>
        <time>2011-07-03T09:30:45.000Z</time>
      </trkpt>
      <trkpt lat="46.52486" lon="0.38215">
        <ele>127.8</ele>
        <time>2011-07-03T09:30:46.000Z</time>
      </trkpt>
      <trkpt lat="46.52489" lon="0.38219">
        <ele>127.9</ele>
        <time>2011-07-03T09:30:47.000Z</time>
      </trkpt>
      <trkpt lat="46.52491" lon="0.38222">
        <ele>128</ele>
        <time>2011-07-03T09:30:48.000Z</time>
      </trkpt>
      <trkpt lat="46.52494" lon="0.38226">
        <ele>128</ele>
        <time>2011-07-03T09:30:49.000Z</time>
      </trkpt>
      <trkpt lat="46.52509" lon="0.38248">
        <ele>128</ele>
        <time>2011-07-03T09:30:55.000Z</time>
      </trkpt>
      <trkpt lat="46.52528" lon="0.38271">
        <ele>128.8</ele>
        <time>2011-07-03T09:31:01.000Z</time>
      </trkpt>
      <trkpt lat="46.52539" lon="0.38287">
        <ele>129</ele>
        <time>2011-07-03T09:31:06.000Z</time>
      </trkpt>
      <trkpt lat="46.52555" lon="0.383">
        <ele>129</ele>
        <time>2011-07-03T09:31:11.000Z</time>
      </trkpt>
      <trkpt lat="46.52564" lon="0.38311">
        <ele>129.4</ele>
        <time>2011-07-03T09:31:16.000Z</time>
      </trkpt>
      <trkpt lat="46.52564" lon="0.38312">
        <ele>129.5</ele>
        <time>2011-07-03T09:31:19.000Z</time>
      </trkpt>
      <trkpt lat="46.52564" lon="0.38313">
        <ele>129.5</ele>
        <time>2011-07-03T09:31:22.000Z</time>
      </trkpt>
      <trkpt lat="46.52564" lon="0.38313">
        <ele>129.5</ele>
        <time>2011-07-03T09:31:25.000Z</time>
      </trkpt>
      <trkpt lat="46.52564" lon="0.38313">
        <ele>129.5</ele>
        <time>2011-07-03T09:31:33.000Z</time>
      </trkpt>
      <trkpt lat="46.52564" lon="0.38313">
        <ele>129.5</ele>
        <time>2011-07-03T09:31:39.000Z</time>
      </trkpt>
      <trkpt lat="46.52566" lon="0.38311">
        <ele>129.5</ele>
        <time>2011-07-03T09:31:40.000Z</time>
      </trkpt>
      <trkpt lat="46.52568" lon="0.38308">
        <ele>129.5</ele>
        <time>2011-07-03T09:31:41.000Z</time>
      </trkpt>
      <trkpt lat="46.52573" lon="0.38296">
        <ele>129.4</ele>
        <time>2011-07-03T09:31:44.000Z</time>
      </trkpt>
      <trkpt lat="46.52576" lon="0.38287">
        <ele>129.3</ele>
        <time>2011-07-03T09:31:46.000Z</time>
      </trkpt>
      <trkpt lat="46.52587" lon="0.38262">
        <ele>129.1</ele>
        <time>2011-07-03T09:31:51.000Z</time>
      </trkpt>
      <trkpt lat="46.52594" lon="0.38245">
        <ele>129.4</ele>
        <time>2011-07-03T09:31:55.000Z</time>
      </trkpt>
      <trkpt lat="46.52597" lon="0.38232">
        <ele>129.5</ele>
        <time>2011-07-03T09:31:57.000Z</time>
      </trkpt>
      <trkpt lat="46.52607" lon="0.38205">
        <ele>129.2</ele>
        <time>2011-07-03T09:32:01.000Z</time>
      </trkpt>
      <trkpt lat="46.52611" lon="0.38191">
        <ele>128.9</ele>
        <time>2011-07-03T09:32:03.000Z</time>
      </trkpt>
      <trkpt lat="46.52614" lon="0.38184">
        <ele>128.7</ele>
        <time>2011-07-03T09:32:04.000Z</time>
      </trkpt>
      <trkpt lat="46.52623" lon="0.38158">
        <ele>128.1</ele>
        <time>2011-07-03T09:32:08.000Z</time>
      </trkpt>
      <trkpt lat="46.52625" lon="0.38151">
        <ele>127.9</ele>
        <time>2011-07-03T09:32:09.000Z</time>
      </trkpt>
      <trkpt lat="46.52632" lon="0.38135">
        <ele>127.7</ele>
        <time>2011-07-03T09:32:12.000Z</time>
      </trkpt>
      <trkpt lat="46.52635" lon="0.38135">
        <ele>127.7</ele>
        <time>2011-07-03T09:32:13.000Z</time>
      </trkpt>
      <trkpt lat="46.52638" lon="0.38137">
        <ele>127.9</ele>
        <time>2011-07-03T09:32:14.000Z</time>
      </trkpt>
      <trkpt lat="46.5264" lon="0.3814">
        <ele>128.1</ele>
        <time>2011-07-03T09:32:15.000Z</time>
      </trkpt>
      <trkpt lat="46.52643" lon="0.38143">
        <ele>128.3</ele>
        <time>2011-07-03T09:32:16.000Z</time>
      </trkpt>
      <trkpt lat="46.52647" lon="0.38146">
        <ele>128.5</ele>
        <time>2011-07-03T09:32:17.000Z</time>
      </trkpt>
      <trkpt lat="46.52655" lon="0.38155">
        <ele>129.1</ele>
        <time>2011-07-03T09:32:20.000Z</time>
      </trkpt>
      <trkpt lat="46.52659" lon="0.3816">
        <ele>129.5</ele>
        <time>2011-07-03T09:32:22.000Z</time>
      </trkpt>
      <trkpt lat="46.52667" lon="0.38171">
        <ele>130.2</ele>
        <time>2011-07-03T09:32:26.000Z</time>
      </trkpt>
      <trkpt lat="46.52675" lon="0.38181">
        <ele>130.5</ele>
        <time>2011-07-03T09:32:30.000Z</time>
      </trkpt>
      <trkpt lat="46.52678" lon="0.38182">
        <ele>130.6</ele>
        <time>2011-07-03T09:32:31.000Z</time>
      </trkpt>
      <trkpt lat="46.5268" lon="0.38185">
        <ele>130.7</ele>
        <time>2011-07-03T09:32:32.000Z</time>
      </trkpt>
      <trkpt lat="46.52682" lon="0.38186">
        <ele>130.7</ele>
        <time>2011-07-03T09:32:33.000Z</time>
      </trkpt>
      <trkpt lat="46.52686" lon="0.38186">
        <ele>130.7</ele>
        <time>2011-07-03T09:32:34.000Z</time>
      </trkpt>
      <trkpt lat="46.52689" lon="0.38184">
        <ele>130.6</ele>
        <time>2011-07-03T09:32:35.000Z</time>
      </trkpt>
      <trkpt lat="46.52694" lon="0.3817">
        <ele>130.1</ele>
        <time>2011-07-03T09:32:38.000Z</time>
      </trkpt>
      <trkpt lat="46.52695" lon="0.3815">
        <ele>130</ele>
        <time>2011-07-03T09:32:42.000Z</time>
      </trkpt>
      <trkpt lat="46.52696" lon="0.38121">
        <ele>129.4</ele>
        <time>2011-07-03T09:32:47.000Z</time>
      </trkpt>
      <trkpt lat="46.52699" lon="0.38091">
        <ele>129</ele>
        <time>2011-07-03T09:32:53.000Z</time>
      </trkpt>
      <trkpt lat="46.52702" lon="0.38059">
        <ele>129</ele>
        <time>2011-07-03T09:32:59.000Z</time>
      </trkpt>
      <trkpt lat="46.52703" lon="0.38033">
        <ele>129</ele>
        <time>2011-07-03T09:33:04.000Z</time>
      </trkpt>
      <trkpt lat="46.52707" lon="0.37998">
        <ele>129</ele>
        <time>2011-07-03T09:33:10.000Z</time>
      </trkpt>
      <trkpt lat="46.52705" lon="0.37968">
        <ele>129</ele>
        <time>2011-07-03T09:33:15.000Z</time>
      </trkpt>
      <trkpt lat="46.52705" lon="0.37938">
        <ele>129.2</ele>
        <time>2011-07-03T09:33:20.000Z</time>
      </trkpt>
      <trkpt lat="46.52706" lon="0.37915">
        <ele>129.9</ele>
        <time>2011-07-03T09:33:24.000Z</time>
      </trkpt>
      <trkpt lat="46.52705" lon="0.37888">
        <ele>129</ele>
        <time>2011-07-03T09:33:29.000Z</time>
      </trkpt>
      <trkpt lat="46.52703" lon="0.37854">
        <ele>129</ele>
        <time>2011-07-03T09:33:35.000Z</time>
      </trkpt>
      <trkpt lat="46.52695" lon="0.37823">
        <ele>128.6</ele>
        <time>2011-07-03T09:33:40.000Z</time>
      </trkpt>
      <trkpt lat="46.52692" lon="0.37818">
        <ele>128.4</ele>
        <time>2011-07-03T09:33:41.000Z</time>
      </trkpt>
      <trkpt lat="46.52682" lon="0.37795">
        <ele>128</ele>
        <time>2011-07-03T09:33:44.000Z</time>
      </trkpt>
      <trkpt lat="46.52675" lon="0.37775">
        <ele>127.9</ele>
        <time>2011-07-03T09:33:47.000Z</time>
      </trkpt>
      <trkpt lat="46.52673" lon="0.37765">
        <ele>127.5</ele>
        <time>2011-07-03T09:33:49.000Z</time>
      </trkpt>
      <trkpt lat="46.52673" lon="0.37761">
        <ele>127.4</ele>
        <time>2011-07-03T09:33:50.000Z</time>
      </trkpt>
      <trkpt lat="46.52673" lon="0.37757">
        <ele>127.2</ele>
        <time>2011-07-03T09:33:51.000Z</time>
      </trkpt>
      <trkpt lat="46.52674" lon="0.37753">
        <ele>127.1</ele>
        <time>2011-07-03T09:33:52.000Z</time>
      </trkpt>
      <trkpt lat="46.52675" lon="0.3775">
        <ele>127</ele>
        <time>2011-07-03T09:33:53.000Z</time>
      </trkpt>
      <trkpt lat="46.52678" lon="0.37748">
        <ele>126.9</ele>
        <time>2011-07-03T09:33:54.000Z</time>
      </trkpt>
      <trkpt lat="46.5269" lon="0.37733">
        <ele>126.3</ele>
        <time>2011-07-03T09:33:59.000Z</time>
      </trkpt>
      <trkpt lat="46.52705" lon="0.37727">
        <ele>125.9</ele>
        <time>2011-07-03T09:34:02.000Z</time>
      </trkpt>
      <trkpt lat="46.52711" lon="0.37726">
        <ele>125.6</ele>
        <time>2011-07-03T09:34:03.000Z</time>
      </trkpt>
      <trkpt lat="46.52715" lon="0.37724">
        <ele>125.3</ele>
        <time>2011-07-03T09:34:04.000Z</time>
      </trkpt>
      <trkpt lat="46.52722" lon="0.37723">
        <ele>125.1</ele>
        <time>2011-07-03T09:34:05.000Z</time>
      </trkpt>
      <trkpt lat="46.52729" lon="0.37721">
        <ele>124.4</ele>
        <time>2011-07-03T09:34:06.000Z</time>
      </trkpt>
      <trkpt lat="46.52734" lon="0.37719">
        <ele>123.9</ele>
        <time>2011-07-03T09:34:07.000Z</time>
      </trkpt>
      <trkpt lat="46.52741" lon="0.37717">
        <ele>123.2</ele>
        <time>2011-07-03T09:34:08.000Z</time>
      </trkpt>
      <trkpt lat="46.52759" lon="0.37716">
        <ele>121.4</ele>
        <time>2011-07-03T09:34:10.000Z</time>
      </trkpt>
      <trkpt lat="46.52768" lon="0.37715">
        <ele>120.3</ele>
        <time>2011-07-03T09:34:11.000Z</time>
      </trkpt>
      <trkpt lat="46.52776" lon="0.37715">
        <ele>119.4</ele>
        <time>2011-07-03T09:34:12.000Z</time>
      </trkpt>
      <trkpt lat="46.52781" lon="0.37715">
        <ele>119.2</ele>
        <time>2011-07-03T09:34:13.000Z</time>
      </trkpt>
      <trkpt lat="46.52786" lon="0.37714">
        <ele>119.3</ele>
        <time>2011-07-03T09:34:14.000Z</time>
      </trkpt>
      <trkpt lat="46.52792" lon="0.37711">
        <ele>119.2</ele>
        <time>2011-07-03T09:34:15.000Z</time>
      </trkpt>
      <trkpt lat="46.52795" lon="0.37708">
        <ele>119.1</ele>
        <time>2011-07-03T09:34:16.000Z</time>
      </trkpt>
      <trkpt lat="46.52797" lon="0.37706">
        <ele>119.1</ele>
        <time>2011-07-03T09:34:17.000Z</time>
      </trkpt>
      <trkpt lat="46.52799" lon="0.37703">
        <ele>118.9</ele>
        <time>2011-07-03T09:34:18.000Z</time>
      </trkpt>
      <trkpt lat="46.52801" lon="0.37697">
        <ele>118.8</ele>
        <time>2011-07-03T09:34:20.000Z</time>
      </trkpt>
      <trkpt lat="46.52803" lon="0.37694">
        <ele>118.8</ele>
        <time>2011-07-03T09:34:21.000Z</time>
      </trkpt>
      <trkpt lat="46.52806" lon="0.37687">
        <ele>118.9</ele>
        <time>2011-07-03T09:34:23.000Z</time>
      </trkpt>
      <trkpt lat="46.52809" lon="0.37681">
        <ele>119</ele>
        <time>2011-07-03T09:34:25.000Z</time>
      </trkpt>
      <trkpt lat="46.52809" lon="0.37678">
        <ele>119</ele>
        <time>2011-07-03T09:34:26.000Z</time>
      </trkpt>
      <trkpt lat="46.5281" lon="0.37662">
        <ele>119</ele>
        <time>2011-07-03T09:34:31.000Z</time>
      </trkpt>
      <trkpt lat="46.52811" lon="0.3766">
        <ele>119.2</ele>
        <time>2011-07-03T09:34:32.000Z</time>
      </trkpt>
      <trkpt lat="46.52811" lon="0.3765">
        <ele>119.4</ele>
        <time>2011-07-03T09:34:36.000Z</time>
      </trkpt>
      <trkpt lat="46.52809" lon="0.37648">
        <ele>119.3</ele>
        <time>2011-07-03T09:34:37.000Z</time>
      </trkpt>
      <trkpt lat="46.52807" lon="0.37638">
        <ele>119.2</ele>
        <time>2011-07-03T09:34:41.000Z</time>
      </trkpt>
      <trkpt lat="46.52806" lon="0.37635">
        <ele>119</ele>
        <time>2011-07-03T09:34:42.000Z</time>
      </trkpt>
      <trkpt lat="46.52803" lon="0.37625">
        <ele>118.5</ele>
        <time>2011-07-03T09:34:45.000Z</time>
      </trkpt>
      <trkpt lat="46.52801" lon="0.37621">
        <ele>118.1</ele>
        <time>2011-07-03T09:34:47.000Z</time>
      </trkpt>
      <trkpt lat="46.52799" lon="0.3762">
        <ele>117.5</ele>
        <time>2011-07-03T09:34:49.000Z</time>
      </trkpt>
      <trkpt lat="46.52795" lon="0.37624">
        <ele>116.7</ele>
        <time>2011-07-03T09:34:52.000Z</time>
      </trkpt>
      <trkpt lat="46.52795" lon="0.37627">
        <ele>116.6</ele>
        <time>2011-07-03T09:34:53.000Z</time>
      </trkpt>
      <trkpt lat="46.52793" lon="0.3763">
        <ele>116.3</ele>
        <time>2011-07-03T09:34:54.000Z</time>
      </trkpt>
      <trkpt lat="46.52792" lon="0.37633">
        <ele>116</ele>
        <time>2011-07-03T09:34:55.000Z</time>
      </trkpt>
      <trkpt lat="46.52791" lon="0.37636">
        <ele>115.8</ele>
        <time>2011-07-03T09:34:56.000Z</time>
      </trkpt>
      <trkpt lat="46.52791" lon="0.37638">
        <ele>115.8</ele>
        <time>2011-07-03T09:34:57.000Z</time>
      </trkpt>
      <trkpt lat="46.5279" lon="0.37641">
        <ele>115.6</ele>
        <time>2011-07-03T09:34:58.000Z</time>
      </trkpt>
      <trkpt lat="46.52789" lon="0.37643">
        <ele>115.5</ele>
        <time>2011-07-03T09:34:59.000Z</time>
      </trkpt>
      <trkpt lat="46.52789" lon="0.37646">
        <ele>115.5</ele>
        <time>2011-07-03T09:35:00.000Z</time>
      </trkpt>
      <trkpt lat="46.52788" lon="0.37648">
        <ele>115.3</ele>
        <time>2011-07-03T09:35:01.000Z</time>
      </trkpt>
      <trkpt lat="46.52786" lon="0.37649">
        <ele>114.9</ele>
        <time>2011-07-03T09:35:03.000Z</time>
      </trkpt>
      <trkpt lat="46.52785" lon="0.37649">
        <ele>114.7</ele>
        <time>2011-07-03T09:35:04.000Z</time>
      </trkpt>
      <trkpt lat="46.52783" lon="0.37647">
        <ele>114.4</ele>
        <time>2011-07-03T09:35:05.000Z</time>
      </trkpt>
      <trkpt lat="46.52782" lon="0.37644">
        <ele>114</ele>
        <time>2011-07-03T09:35:06.000Z</time>
      </trkpt>
      <trkpt lat="46.5278" lon="0.3764">
        <ele>113.6</ele>
        <time>2011-07-03T09:35:07.000Z</time>
      </trkpt>
      <trkpt lat="46.52778" lon="0.37637">
        <ele>113.1</ele>
        <time>2011-07-03T09:35:08.000Z</time>
      </trkpt>
      <trkpt lat="46.52776" lon="0.37631">
        <ele>112.9</ele>
        <time>2011-07-03T09:35:09.000Z</time>
      </trkpt>
      <trkpt lat="46.52772" lon="0.37619">
        <ele>112.5</ele>
        <time>2011-07-03T09:35:11.000Z</time>
      </trkpt>
      <trkpt lat="46.52767" lon="0.37606">
        <ele>111.8</ele>
        <time>2011-07-03T09:35:13.000Z</time>
      </trkpt>
      <trkpt lat="46.52763" lon="0.37597">
        <ele>111.1</ele>
        <time>2011-07-03T09:35:14.000Z</time>
      </trkpt>
      <trkpt lat="46.52757" lon="0.37589">
        <ele>109.7</ele>
        <time>2011-07-03T09:35:15.000Z</time>
      </trkpt>
      <trkpt lat="46.52752" lon="0.37582">
        <ele>108.5</ele>
        <time>2011-07-03T09:35:16.000Z</time>
      </trkpt>
      <trkpt lat="46.52748" lon="0.37575">
        <ele>107.6</ele>
        <time>2011-07-03T09:35:17.000Z</time>
      </trkpt>
      <trkpt lat="46.52744" lon="0.37568">
        <ele>107</ele>
        <time>2011-07-03T09:35:18.000Z</time>
      </trkpt>
      <trkpt lat="46.52739" lon="0.37562">
        <ele>106</ele>
        <time>2011-07-03T09:35:19.000Z</time>
      </trkpt>
      <trkpt lat="46.52736" lon="0.37556">
        <ele>104.9</ele>
        <time>2011-07-03T09:35:20.000Z</time>
      </trkpt>
      <trkpt lat="46.52731" lon="0.37549">
        <ele>103.9</ele>
        <time>2011-07-03T09:35:21.000Z</time>
      </trkpt>
      <trkpt lat="46.52727" lon="0.37542">
        <ele>102.6</ele>
        <time>2011-07-03T09:35:22.000Z</time>
      </trkpt>
      <trkpt lat="46.52723" lon="0.37536">
        <ele>101.2</ele>
        <time>2011-07-03T09:35:23.000Z</time>
      </trkpt>
      <trkpt lat="46.52721" lon="0.3753">
        <ele>99.9</ele>
        <time>2011-07-03T09:35:24.000Z</time>
      </trkpt>
      <trkpt lat="46.5272" lon="0.37523">
        <ele>99.2</ele>
        <time>2011-07-03T09:35:25.000Z</time>
      </trkpt>
      <trkpt lat="46.52719" lon="0.37517">
        <ele>98.8</ele>
        <time>2011-07-03T09:35:26.000Z</time>
      </trkpt>
      <trkpt lat="46.52719" lon="0.3751">
        <ele>98.4</ele>
        <time>2011-07-03T09:35:27.000Z</time>
      </trkpt>
      <trkpt lat="46.52718" lon="0.37503">
        <ele>98</ele>
        <time>2011-07-03T09:35:28.000Z</time>
      </trkpt>
      <trkpt lat="46.52718" lon="0.37498">
        <ele>97.9</ele>
        <time>2011-07-03T09:35:29.000Z</time>
      </trkpt>
      <trkpt lat="46.52718" lon="0.37486">
        <ele>98.2</ele>
        <time>2011-07-03T09:35:31.000Z</time>
      </trkpt>
      <trkpt lat="46.52718" lon="0.3748">
        <ele>98.1</ele>
        <time>2011-07-03T09:35:32.000Z</time>
      </trkpt>
      <trkpt lat="46.52716" lon="0.37473">
        <ele>97.8</ele>
        <time>2011-07-03T09:35:33.000Z</time>
      </trkpt>
      <trkpt lat="46.52715" lon="0.37465">
        <ele>97.7</ele>
        <time>2011-07-03T09:35:34.000Z</time>
      </trkpt>
      <trkpt lat="46.52715" lon="0.37457">
        <ele>97.5</ele>
        <time>2011-07-03T09:35:35.000Z</time>
      </trkpt>
      <trkpt lat="46.52714" lon="0.37449">
        <ele>97.5</ele>
        <time>2011-07-03T09:35:36.000Z</time>
      </trkpt>
      <trkpt lat="46.52714" lon="0.37442">
        <ele>97.3</ele>
        <time>2011-07-03T09:35:37.000Z</time>
      </trkpt>
      <trkpt lat="46.52713" lon="0.37435">
        <ele>97.1</ele>
        <time>2011-07-03T09:35:38.000Z</time>
      </trkpt>
      <trkpt lat="46.52712" lon="0.37429">
        <ele>96.7</ele>
        <time>2011-07-03T09:35:39.000Z</time>
      </trkpt>
      <trkpt lat="46.5271" lon="0.37423">
        <ele>96</ele>
        <time>2011-07-03T09:35:40.000Z</time>
      </trkpt>
      <trkpt lat="46.52708" lon="0.37416">
        <ele>95.3</ele>
        <time>2011-07-03T09:35:41.000Z</time>
      </trkpt>
      <trkpt lat="46.52707" lon="0.3741">
        <ele>94.9</ele>
        <time>2011-07-03T09:35:42.000Z</time>
      </trkpt>
      <trkpt lat="46.527" lon="0.37377">
        <ele>92.3</ele>
        <time>2011-07-03T09:35:46.000Z</time>
      </trkpt>
      <trkpt lat="46.52696" lon="0.37367">
        <ele>89.7</ele>
        <time>2011-07-03T09:35:48.000Z</time>
      </trkpt>
      <trkpt lat="46.52694" lon="0.37366">
        <ele>89</ele>
        <time>2011-07-03T09:35:49.000Z</time>
      </trkpt>
      <trkpt lat="46.52692" lon="0.37365">
        <ele>89.1</ele>
        <time>2011-07-03T09:35:50.000Z</time>
      </trkpt>
      <trkpt lat="46.5269" lon="0.37366">
        <ele>89.1</ele>
        <time>2011-07-03T09:35:51.000Z</time>
      </trkpt>
      <trkpt lat="46.52687" lon="0.37367">
        <ele>89.2</ele>
        <time>2011-07-03T09:35:52.000Z</time>
      </trkpt>
      <trkpt lat="46.52682" lon="0.37372">
        <ele>89.3</ele>
        <time>2011-07-03T09:35:54.000Z</time>
      </trkpt>
      <trkpt lat="46.52669" lon="0.37381">
        <ele>89.3</ele>
        <time>2011-07-03T09:35:58.000Z</time>
      </trkpt>
      <trkpt lat="46.52663" lon="0.37386">
        <ele>89.1</ele>
        <time>2011-07-03T09:36:01.000Z</time>
      </trkpt>
      <trkpt lat="46.52662" lon="0.37385">
        <ele>89.1</ele>
        <time>2011-07-03T09:36:04.000Z</time>
      </trkpt>
      <trkpt lat="46.52662" lon="0.37385">
        <ele>89.1</ele>
        <time>2011-07-03T09:36:05.000Z</time>
      </trkpt>
      <trkpt lat="46.52657" lon="0.37391">
        <ele>89</ele>
        <time>2011-07-03T09:36:08.000Z</time>
      </trkpt>
      <trkpt lat="46.52648" lon="0.37391">
        <ele>89</ele>
        <time>2011-07-03T09:36:11.000Z</time>
      </trkpt>
      <trkpt lat="46.52634" lon="0.37392">
        <ele>89.3</ele>
        <time>2011-07-03T09:36:15.000Z</time>
      </trkpt>
      <trkpt lat="46.5263" lon="0.37389">
        <ele>89.7</ele>
        <time>2011-07-03T09:36:16.000Z</time>
      </trkpt>
      <trkpt lat="46.52625" lon="0.37386">
        <ele>90</ele>
        <time>2011-07-03T09:36:17.000Z</time>
      </trkpt>
      <trkpt lat="46.52616" lon="0.3738">
        <ele>90.6</ele>
        <time>2011-07-03T09:36:19.000Z</time>
      </trkpt>
      <trkpt lat="46.52606" lon="0.37363">
        <ele>91.4</ele>
        <time>2011-07-03T09:36:23.000Z</time>
      </trkpt>
      <trkpt lat="46.52604" lon="0.37359">
        <ele>91.4</ele>
        <time>2011-07-03T09:36:24.000Z</time>
      </trkpt>
      <trkpt lat="46.52596" lon="0.37341">
        <ele>91.8</ele>
        <time>2011-07-03T09:36:28.000Z</time>
      </trkpt>
      <trkpt lat="46.5259" lon="0.37323">
        <ele>92</ele>
        <time>2011-07-03T09:36:33.000Z</time>
      </trkpt>
      <trkpt lat="46.52582" lon="0.37309">
        <ele>92.2</ele>
        <time>2011-07-03T09:36:37.000Z</time>
      </trkpt>
      <trkpt lat="46.5258" lon="0.37305">
        <ele>92.2</ele>
        <time>2011-07-03T09:36:38.000Z</time>
      </trkpt>
      <trkpt lat="46.52578" lon="0.37301">
        <ele>92.2</ele>
        <time>2011-07-03T09:36:39.000Z</time>
      </trkpt>
      <trkpt lat="46.52576" lon="0.37297">
        <ele>92.3</ele>
        <time>2011-07-03T09:36:40.000Z</time>
      </trkpt>
      <trkpt lat="46.52574" lon="0.37294">
        <ele>92.4</ele>
        <time>2011-07-03T09:36:41.000Z</time>
      </trkpt>
      <trkpt lat="46.5257" lon="0.37288">
        <ele>92.7</ele>
        <time>2011-07-03T09:36:43.000Z</time>
      </trkpt>
      <trkpt lat="46.52561" lon="0.3727">
        <ele>93.1</ele>
        <time>2011-07-03T09:36:48.000Z</time>
      </trkpt>
      <trkpt lat="46.52541" lon="0.37241">
        <ele>93.7</ele>
        <time>2011-07-03T09:36:54.000Z</time>
      </trkpt>
      <trkpt lat="46.52523" lon="0.37213">
        <ele>94.1</ele>
        <time>2011-07-03T09:37:01.000Z</time>
      </trkpt>
      <trkpt lat="46.52521" lon="0.37209">
        <ele>94.2</ele>
        <time>2011-07-03T09:37:02.000Z</time>
      </trkpt>
      <trkpt lat="46.52518" lon="0.37204">
        <ele>94.3</ele>
        <time>2011-07-03T09:37:03.000Z</time>
      </trkpt>
      <trkpt lat="46.52516" lon="0.372">
        <ele>94.4</ele>
        <time>2011-07-03T09:37:04.000Z</time>
      </trkpt>
      <trkpt lat="46.52514" lon="0.37195">
        <ele>94.5</ele>
        <time>2011-07-03T09:37:05.000Z</time>
      </trkpt>
      <trkpt lat="46.52512" lon="0.37191">
        <ele>94.6</ele>
        <time>2011-07-03T09:37:06.000Z</time>
      </trkpt>
      <trkpt lat="46.5251" lon="0.37186">
        <ele>94.7</ele>
        <time>2011-07-03T09:37:07.000Z</time>
      </trkpt>
      <trkpt lat="46.525" lon="0.37167">
        <ele>95.1</ele>
        <time>2011-07-03T09:37:12.000Z</time>
      </trkpt>
      <trkpt lat="46.52487" lon="0.37144">
        <ele>95.6</ele>
        <time>2011-07-03T09:37:18.000Z</time>
      </trkpt>
      <trkpt lat="46.52479" lon="0.37129">
        <ele>96.1</ele>
        <time>2011-07-03T09:37:22.000Z</time>
      </trkpt>
      <trkpt lat="46.52476" lon="0.37125">
        <ele>96.4</ele>
        <time>2011-07-03T09:37:23.000Z</time>
      </trkpt>
      <trkpt lat="46.52474" lon="0.37122">
        <ele>96.7</ele>
        <time>2011-07-03T09:37:24.000Z</time>
      </trkpt>
      <trkpt lat="46.52473" lon="0.37119">
        <ele>97</ele>
        <time>2011-07-03T09:37:25.000Z</time>
      </trkpt>
      <trkpt lat="46.5247" lon="0.37116">
        <ele>97.2</ele>
        <time>2011-07-03T09:37:26.000Z</time>
      </trkpt>
      <trkpt lat="46.52466" lon="0.3711">
        <ele>97.4</ele>
        <time>2011-07-03T09:37:28.000Z</time>
      </trkpt>
      <trkpt lat="46.52453" lon="0.3709">
        <ele>99.3</ele>
        <time>2011-07-03T09:37:34.000Z</time>
      </trkpt>
      <trkpt lat="46.5245" lon="0.37086">
        <ele>99.8</ele>
        <time>2011-07-03T09:37:35.000Z</time>
      </trkpt>
      <trkpt lat="46.52449" lon="0.37084">
        <ele>100.2</ele>
        <time>2011-07-03T09:37:36.000Z</time>
      </trkpt>
      <trkpt lat="46.52447" lon="0.3708">
        <ele>100.5</ele>
        <time>2011-07-03T09:37:37.000Z</time>
      </trkpt>
      <trkpt lat="46.52445" lon="0.37076">
        <ele>100.8</ele>
        <time>2011-07-03T09:37:38.000Z</time>
      </trkpt>
      <trkpt lat="46.52442" lon="0.37069">
        <ele>101.1</ele>
        <time>2011-07-03T09:37:40.000Z</time>
      </trkpt>
      <trkpt lat="46.52437" lon="0.37058">
        <ele>101.5</ele>
        <time>2011-07-03T09:37:43.000Z</time>
      </trkpt>
      <trkpt lat="46.52436" lon="0.37054">
        <ele>101.7</ele>
        <time>2011-07-03T09:37:44.000Z</time>
      </trkpt>
      <trkpt lat="46.52435" lon="0.3705">
        <ele>101.9</ele>
        <time>2011-07-03T09:37:45.000Z</time>
      </trkpt>
      <trkpt lat="46.52435" lon="0.37046">
        <ele>102</ele>
        <time>2011-07-03T09:37:46.000Z</time>
      </trkpt>
      <trkpt lat="46.52434" lon="0.37021">
        <ele>102.9</ele>
        <time>2011-07-03T09:37:53.000Z</time>
      </trkpt>
      <trkpt lat="46.52433" lon="0.37014">
        <ele>103.1</ele>
        <time>2011-07-03T09:37:55.000Z</time>
      </trkpt>
      <trkpt lat="46.52433" lon="0.3701">
        <ele>103.2</ele>
        <time>2011-07-03T09:37:56.000Z</time>
      </trkpt>
      <trkpt lat="46.52433" lon="0.37006">
        <ele>103.3</ele>
        <time>2011-07-03T09:37:57.000Z</time>
      </trkpt>
      <trkpt lat="46.52432" lon="0.37003">
        <ele>103.4</ele>
        <time>2011-07-03T09:37:58.000Z</time>
      </trkpt>
      <trkpt lat="46.52432" lon="0.36999">
        <ele>103.5</ele>
        <time>2011-07-03T09:37:59.000Z</time>
      </trkpt>
      <trkpt lat="46.52431" lon="0.36992">
        <ele>103.8</ele>
        <time>2011-07-03T09:38:01.000Z</time>
      </trkpt>
      <trkpt lat="46.52429" lon="0.36972">
        <ele>104.6</ele>
        <time>2011-07-03T09:38:06.000Z</time>
      </trkpt>
      <trkpt lat="46.52427" lon="0.36966">
        <ele>104.7</ele>
        <time>2011-07-03T09:38:08.000Z</time>
      </trkpt>
      <trkpt lat="46.52426" lon="0.36962">
        <ele>104.8</ele>
        <time>2011-07-03T09:38:09.000Z</time>
      </trkpt>
      <trkpt lat="46.52425" lon="0.36958">
        <ele>104.8</ele>
        <time>2011-07-03T09:38:10.000Z</time>
      </trkpt>
      <trkpt lat="46.52425" lon="0.36954">
        <ele>104.9</ele>
        <time>2011-07-03T09:38:11.000Z</time>
      </trkpt>
      <trkpt lat="46.52425" lon="0.3695">
        <ele>104.9</ele>
        <time>2011-07-03T09:38:12.000Z</time>
      </trkpt>
      <trkpt lat="46.52423" lon="0.36922">
        <ele>105.4</ele>
        <time>2011-07-03T09:38:19.000Z</time>
      </trkpt>
      <trkpt lat="46.52422" lon="0.36886">
        <ele>106.5</ele>
        <time>2011-07-03T09:38:28.000Z</time>
      </trkpt>
      <trkpt lat="46.5242" lon="0.36875">
        <ele>107.2</ele>
        <time>2011-07-03T09:38:31.000Z</time>
      </trkpt>
      <trkpt lat="46.52419" lon="0.36871">
        <ele>107.4</ele>
        <time>2011-07-03T09:38:32.000Z</time>
      </trkpt>
      <trkpt lat="46.52418" lon="0.36867">
        <ele>107.7</ele>
        <time>2011-07-03T09:38:33.000Z</time>
      </trkpt>
      <trkpt lat="46.52417" lon="0.36863">
        <ele>107.9</ele>
        <time>2011-07-03T09:38:34.000Z</time>
      </trkpt>
      <trkpt lat="46.52415" lon="0.36858">
        <ele>107.6</ele>
        <time>2011-07-03T09:38:35.000Z</time>
      </trkpt>
      <trkpt lat="46.52414" lon="0.36854">
        <ele>107.4</ele>
        <time>2011-07-03T09:38:36.000Z</time>
      </trkpt>
      <trkpt lat="46.52405" lon="0.36826">
        <ele>106.5</ele>
        <time>2011-07-03T09:38:42.000Z</time>
      </trkpt>
      <trkpt lat="46.524" lon="0.36801">
        <ele>107.3</ele>
        <time>2011-07-03T09:38:48.000Z</time>
      </trkpt>
      <trkpt lat="46.52395" lon="0.36776">
        <ele>108.7</ele>
        <time>2011-07-03T09:38:54.000Z</time>
      </trkpt>
      <trkpt lat="46.52388" lon="0.36756">
        <ele>108.7</ele>
        <time>2011-07-03T09:38:59.000Z</time>
      </trkpt>
      <trkpt lat="46.52379" lon="0.36733">
        <ele>108.8</ele>
        <time>2011-07-03T09:39:05.000Z</time>
      </trkpt>
      <trkpt lat="46.52375" lon="0.36725">
        <ele>109.3</ele>
        <time>2011-07-03T09:39:07.000Z</time>
      </trkpt>
      <trkpt lat="46.52374" lon="0.36721">
        <ele>109.5</ele>
        <time>2011-07-03T09:39:08.000Z</time>
      </trkpt>
      <trkpt lat="46.52373" lon="0.36716">
        <ele>109.7</ele>
        <time>2011-07-03T09:39:09.000Z</time>
      </trkpt>
      <trkpt lat="46.52372" lon="0.36712">
        <ele>109.8</ele>
        <time>2011-07-03T09:39:10.000Z</time>
      </trkpt>
      <trkpt lat="46.52371" lon="0.36707">
        <ele>109.9</ele>
        <time>2011-07-03T09:39:11.000Z</time>
      </trkpt>
      <trkpt lat="46.52369" lon="0.367">
        <ele>110.1</ele>
        <time>2011-07-03T09:39:13.000Z</time>
      </trkpt>
      <trkpt lat="46.52362" lon="0.36672">
        <ele>110.9</ele>
        <time>2011-07-03T09:39:20.000Z</time>
      </trkpt>
      <trkpt lat="46.52353" lon="0.36658">
        <ele>110.7</ele>
        <time>2011-07-03T09:39:25.000Z</time>
      </trkpt>
      <trkpt lat="46.52339" lon="0.3665">
        <ele>109.6</ele>
        <time>2011-07-03T09:39:29.000Z</time>
      </trkpt>
      <trkpt lat="46.52319" lon="0.36651">
        <ele>107</ele>
        <time>2011-07-03T09:39:34.000Z</time>
      </trkpt>
      <trkpt lat="46.52314" lon="0.36652">
        <ele>106.3</ele>
        <time>2011-07-03T09:39:35.000Z</time>
      </trkpt>
      <trkpt lat="46.52293" lon="0.36652">
        <ele>103.5</ele>
        <time>2011-07-03T09:39:39.000Z</time>
      </trkpt>
      <trkpt lat="46.52286" lon="0.3665">
        <ele>102.9</ele>
        <time>2011-07-03T09:39:40.000Z</time>
      </trkpt>
      <trkpt lat="46.52278" lon="0.36648">
        <ele>102.4</ele>
        <time>2011-07-03T09:39:41.000Z</time>
      </trkpt>
      <trkpt lat="46.52271" lon="0.36646">
        <ele>102.2</ele>
        <time>2011-07-03T09:39:42.000Z</time>
      </trkpt>
      <trkpt lat="46.52263" lon="0.36643">
        <ele>102.2</ele>
        <time>2011-07-03T09:39:43.000Z</time>
      </trkpt>
      <trkpt lat="46.52248" lon="0.36635">
        <ele>102.1</ele>
        <time>2011-07-03T09:39:45.000Z</time>
      </trkpt>
      <trkpt lat="46.52241" lon="0.36631">
        <ele>101.6</ele>
        <time>2011-07-03T09:39:46.000Z</time>
      </trkpt>
      <trkpt lat="46.52234" lon="0.36628">
        <ele>101.1</ele>
        <time>2011-07-03T09:39:47.000Z</time>
      </trkpt>
      <trkpt lat="46.52227" lon="0.36625">
        <ele>100.6</ele>
        <time>2011-07-03T09:39:48.000Z</time>
      </trkpt>
      <trkpt lat="46.52222" lon="0.36624">
        <ele>100.1</ele>
        <time>2011-07-03T09:39:49.000Z</time>
      </trkpt>
      <trkpt lat="46.52216" lon="0.36621">
        <ele>100</ele>
        <time>2011-07-03T09:39:50.000Z</time>
      </trkpt>
      <trkpt lat="46.5221" lon="0.36623">
        <ele>99.2</ele>
        <time>2011-07-03T09:39:51.000Z</time>
      </trkpt>
      <trkpt lat="46.52203" lon="0.36625">
        <ele>98.3</ele>
        <time>2011-07-03T09:39:52.000Z</time>
      </trkpt>
      <trkpt lat="46.52196" lon="0.36626">
        <ele>97.5</ele>
        <time>2011-07-03T09:39:53.000Z</time>
      </trkpt>
      <trkpt lat="46.52189" lon="0.36624">
        <ele>97.3</ele>
        <time>2011-07-03T09:39:54.000Z</time>
      </trkpt>
      <trkpt lat="46.52182" lon="0.3662">
        <ele>97</ele>
        <time>2011-07-03T09:39:55.000Z</time>
      </trkpt>
      <trkpt lat="46.52176" lon="0.36615">
        <ele>96.8</ele>
        <time>2011-07-03T09:39:56.000Z</time>
      </trkpt>
      <trkpt lat="46.52171" lon="0.3661">
        <ele>96.5</ele>
        <time>2011-07-03T09:39:57.000Z</time>
      </trkpt>
      <trkpt lat="46.52167" lon="0.36604">
        <ele>96.5</ele>
        <time>2011-07-03T09:39:58.000Z</time>
      </trkpt>
      <trkpt lat="46.52162" lon="0.366">
        <ele>96.9</ele>
        <time>2011-07-03T09:39:59.000Z</time>
      </trkpt>
      <trkpt lat="46.52158" lon="0.36595">
        <ele>97.3</ele>
        <time>2011-07-03T09:40:00.000Z</time>
      </trkpt>
      <trkpt lat="46.52151" lon="0.36579">
        <ele>98.3</ele>
        <time>2011-07-03T09:40:03.000Z</time>
      </trkpt>
      <trkpt lat="46.5215" lon="0.36558">
        <ele>99.8</ele>
        <time>2011-07-03T09:40:07.000Z</time>
      </trkpt>
      <trkpt lat="46.52149" lon="0.36554">
        <ele>100.1</ele>
        <time>2011-07-03T09:40:08.000Z</time>
      </trkpt>
      <trkpt lat="46.52148" lon="0.36547">
        <ele>100.4</ele>
        <time>2011-07-03T09:40:10.000Z</time>
      </trkpt>
      <trkpt lat="46.52147" lon="0.36539">
        <ele>100.8</ele>
        <time>2011-07-03T09:40:12.000Z</time>
      </trkpt>
      <trkpt lat="46.52146" lon="0.36534">
        <ele>101</ele>
        <time>2011-07-03T09:40:13.000Z</time>
      </trkpt>
      <trkpt lat="46.52146" lon="0.3653">
        <ele>101.1</ele>
        <time>2011-07-03T09:40:14.000Z</time>
      </trkpt>
      <trkpt lat="46.52146" lon="0.36526">
        <ele>101.3</ele>
        <time>2011-07-03T09:40:15.000Z</time>
      </trkpt>
      <trkpt lat="46.52147" lon="0.36517">
        <ele>101.8</ele>
        <time>2011-07-03T09:40:17.000Z</time>
      </trkpt>
      <trkpt lat="46.52147" lon="0.36512">
        <ele>102</ele>
        <time>2011-07-03T09:40:18.000Z</time>
      </trkpt>
      <trkpt lat="46.52147" lon="0.36501">
        <ele>102.5</ele>
        <time>2011-07-03T09:40:21.000Z</time>
      </trkpt>
      <trkpt lat="46.52146" lon="0.36499">
        <ele>102.6</ele>
        <time>2011-07-03T09:40:22.000Z</time>
      </trkpt>
      <trkpt lat="46.52146" lon="0.36496">
        <ele>102.7</ele>
        <time>2011-07-03T09:40:23.000Z</time>
      </trkpt>
      <trkpt lat="46.52146" lon="0.36493">
        <ele>102.8</ele>
        <time>2011-07-03T09:40:24.000Z</time>
      </trkpt>
      <trkpt lat="46.52146" lon="0.36489">
        <ele>103</ele>
        <time>2011-07-03T09:40:25.000Z</time>
      </trkpt>
      <trkpt lat="46.52146" lon="0.36484">
        <ele>103.2</ele>
        <time>2011-07-03T09:40:26.000Z</time>
      </trkpt>
      <trkpt lat="46.52144" lon="0.36472">
        <ele>103.6</ele>
        <time>2011-07-03T09:40:29.000Z</time>
      </trkpt>
      <trkpt lat="46.52137" lon="0.36447">
        <ele>104.1</ele>
        <time>2011-07-03T09:40:35.000Z</time>
      </trkpt>
      <trkpt lat="46.52136" lon="0.36444">
        <ele>104.3</ele>
        <time>2011-07-03T09:40:36.000Z</time>
      </trkpt>
      <trkpt lat="46.52134" lon="0.36439">
        <ele>104.5</ele>
        <time>2011-07-03T09:40:37.000Z</time>
      </trkpt>
      <trkpt lat="46.52134" lon="0.36436">
        <ele>104.6</ele>
        <time>2011-07-03T09:40:38.000Z</time>
      </trkpt>
      <trkpt lat="46.52134" lon="0.36434">
        <ele>104.7</ele>
        <time>2011-07-03T09:40:39.000Z</time>
      </trkpt>
      <trkpt lat="46.52133" lon="0.36432">
        <ele>104.8</ele>
        <time>2011-07-03T09:40:40.000Z</time>
      </trkpt>
      <trkpt lat="46.52133" lon="0.36416">
        <ele>105.2</ele>
        <time>2011-07-03T09:40:44.000Z</time>
      </trkpt>
      <trkpt lat="46.52132" lon="0.36412">
        <ele>105.4</ele>
        <time>2011-07-03T09:40:45.000Z</time>
      </trkpt>
      <trkpt lat="46.52131" lon="0.36407">
        <ele>105.5</ele>
        <time>2011-07-03T09:40:46.000Z</time>
      </trkpt>
      <trkpt lat="46.5213" lon="0.36401">
        <ele>105.7</ele>
        <time>2011-07-03T09:40:47.000Z</time>
      </trkpt>
      <trkpt lat="46.52131" lon="0.36396">
        <ele>105.8</ele>
        <time>2011-07-03T09:40:48.000Z</time>
      </trkpt>
      <trkpt lat="46.52132" lon="0.36386">
        <ele>106.1</ele>
        <time>2011-07-03T09:40:50.000Z</time>
      </trkpt>
      <trkpt lat="46.52132" lon="0.36361">
        <ele>106.8</ele>
        <time>2011-07-03T09:40:56.000Z</time>
      </trkpt>
      <trkpt lat="46.52132" lon="0.36358">
        <ele>107</ele>
        <time>2011-07-03T09:40:57.000Z</time>
      </trkpt>
      <trkpt lat="46.52132" lon="0.36354">
        <ele>107.2</ele>
        <time>2011-07-03T09:40:58.000Z</time>
      </trkpt>
      <trkpt lat="46.52131" lon="0.36349">
        <ele>107.5</ele>
        <time>2011-07-03T09:40:59.000Z</time>
      </trkpt>
      <trkpt lat="46.52131" lon="0.36345">
        <ele>107.7</ele>
        <time>2011-07-03T09:41:00.000Z</time>
      </trkpt>
      <trkpt lat="46.5213" lon="0.36341">
        <ele>107.9</ele>
        <time>2011-07-03T09:41:01.000Z</time>
      </trkpt>
      <trkpt lat="46.52123" lon="0.36314">
        <ele>108.8</ele>
        <time>2011-07-03T09:41:07.000Z</time>
      </trkpt>
      <trkpt lat="46.52119" lon="0.36296">
        <ele>109.3</ele>
        <time>2011-07-03T09:41:11.000Z</time>
      </trkpt>
      <trkpt lat="46.52117" lon="0.36293">
        <ele>109.2</ele>
        <time>2011-07-03T09:41:12.000Z</time>
      </trkpt>
      <trkpt lat="46.52114" lon="0.36292">
        <ele>108.9</ele>
        <time>2011-07-03T09:41:13.000Z</time>
      </trkpt>
      <trkpt lat="46.52111" lon="0.36292">
        <ele>108.5</ele>
        <time>2011-07-03T09:41:14.000Z</time>
      </trkpt>
      <trkpt lat="46.52108" lon="0.36293">
        <ele>108.6</ele>
        <time>2011-07-03T09:41:15.000Z</time>
      </trkpt>
      <trkpt lat="46.521" lon="0.36296">
        <ele>108.7</ele>
        <time>2011-07-03T09:41:17.000Z</time>
      </trkpt>
      <trkpt lat="46.52082" lon="0.36306">
        <ele>109.2</ele>
        <time>2011-07-03T09:41:23.000Z</time>
      </trkpt>
      <trkpt lat="46.52074" lon="0.36308">
        <ele>110.3</ele>
        <time>2011-07-03T09:41:27.000Z</time>
      </trkpt>
      <trkpt lat="46.52073" lon="0.36308">
        <ele>110.5</ele>
        <time>2011-07-03T09:41:28.000Z</time>
      </trkpt>
      <trkpt lat="46.52072" lon="0.36308">
        <ele>110.7</ele>
        <time>2011-07-03T09:41:29.000Z</time>
      </trkpt>
      <trkpt lat="46.5207" lon="0.36308">
        <ele>110.9</ele>
        <time>2011-07-03T09:41:30.000Z</time>
      </trkpt>
      <trkpt lat="46.52062" lon="0.36311">
        <ele>112.2</ele>
        <time>2011-07-03T09:41:34.000Z</time>
      </trkpt>
      <trkpt lat="46.5206" lon="0.36311">
        <ele>112.5</ele>
        <time>2011-07-03T09:41:36.000Z</time>
      </trkpt>
      <trkpt lat="46.52059" lon="0.36312">
        <ele>112.8</ele>
        <time>2011-07-03T09:41:37.000Z</time>
      </trkpt>
      <trkpt lat="46.52058" lon="0.36312">
        <ele>112.9</ele>
        <time>2011-07-03T09:41:38.000Z</time>
      </trkpt>
      <trkpt lat="46.52057" lon="0.36312">
        <ele>113</ele>
        <time>2011-07-03T09:41:39.000Z</time>
      </trkpt>
      <trkpt lat="46.52056" lon="0.36313">
        <ele>113.3</ele>
        <time>2011-07-03T09:41:40.000Z</time>
      </trkpt>
      <trkpt lat="46.52052" lon="0.36316">
        <ele>114</ele>
        <time>2011-07-03T09:41:43.000Z</time>
      </trkpt>
      <trkpt lat="46.52051" lon="0.36316">
        <ele>114.1</ele>
        <time>2011-07-03T09:41:44.000Z</time>
      </trkpt>
      <trkpt lat="46.5205" lon="0.36317">
        <ele>114.5</ele>
        <time>2011-07-03T09:41:45.000Z</time>
      </trkpt>
      <trkpt lat="46.52049" lon="0.36318">
        <ele>114.7</ele>
        <time>2011-07-03T09:41:46.000Z</time>
      </trkpt>
      <trkpt lat="46.52048" lon="0.36319">
        <ele>114.9</ele>
        <time>2011-07-03T09:41:47.000Z</time>
      </trkpt>
      <trkpt lat="46.52047" lon="0.3632">
        <ele>115.2</ele>
        <time>2011-07-03T09:41:48.000Z</time>
      </trkpt>
      <trkpt lat="46.52046" lon="0.3632">
        <ele>115.2</ele>
        <time>2011-07-03T09:41:49.000Z</time>
      </trkpt>
      <trkpt lat="46.52039" lon="0.36324">
        <ele>116.7</ele>
        <time>2011-07-03T09:41:55.000Z</time>
      </trkpt>
      <trkpt lat="46.52035" lon="0.36325">
        <ele>117.4</ele>
        <time>2011-07-03T09:41:58.000Z</time>
      </trkpt>
      <trkpt lat="46.52033" lon="0.36326">
        <ele>117.8</ele>
        <time>2011-07-03T09:41:59.000Z</time>
      </trkpt>
      <trkpt lat="46.52032" lon="0.36326">
        <ele>117.9</ele>
        <time>2011-07-03T09:42:00.000Z</time>
      </trkpt>
      <trkpt lat="46.52032" lon="0.36326">
        <ele>117.9</ele>
        <time>2011-07-03T09:42:01.000Z</time>
      </trkpt>
      <trkpt lat="46.52032" lon="0.36326">
        <ele>117.9</ele>
        <time>2011-07-03T09:42:02.000Z</time>
      </trkpt>
      <trkpt lat="46.52022" lon="0.3633">
        <ele>119.6</ele>
        <time>2011-07-03T09:42:07.000Z</time>
      </trkpt>
      <trkpt lat="46.52011" lon="0.36338">
        <ele>120.9</ele>
        <time>2011-07-03T09:42:13.000Z</time>
      </trkpt>
      <trkpt lat="46.52009" lon="0.36339">
        <ele>121.1</ele>
        <time>2011-07-03T09:42:14.000Z</time>
      </trkpt>
      <trkpt lat="46.52008" lon="0.36341">
        <ele>121.2</ele>
        <time>2011-07-03T09:42:15.000Z</time>
      </trkpt>
      <trkpt lat="46.52006" lon="0.36342">
        <ele>121.4</ele>
        <time>2011-07-03T09:42:16.000Z</time>
      </trkpt>
      <trkpt lat="46.52004" lon="0.36343">
        <ele>121.6</ele>
        <time>2011-07-03T09:42:17.000Z</time>
      </trkpt>
      <trkpt lat="46.52004" lon="0.36343">
        <ele>121.7</ele>
        <time>2011-07-03T09:42:18.000Z</time>
      </trkpt>
      <trkpt lat="46.51993" lon="0.36347">
        <ele>122.5</ele>
        <time>2011-07-03T09:42:24.000Z</time>
      </trkpt>
      <trkpt lat="46.51974" lon="0.36358">
        <ele>123.9</ele>
        <time>2011-07-03T09:42:31.000Z</time>
      </trkpt>
      <trkpt lat="46.51956" lon="0.36365">
        <ele>124.5</ele>
        <time>2011-07-03T09:42:37.000Z</time>
      </trkpt>
      <trkpt lat="46.51945" lon="0.36367">
        <ele>124.8</ele>
        <time>2011-07-03T09:42:40.000Z</time>
      </trkpt>
      <trkpt lat="46.51941" lon="0.36367">
        <ele>124.8</ele>
        <time>2011-07-03T09:42:41.000Z</time>
      </trkpt>
      <trkpt lat="46.51938" lon="0.36368">
        <ele>124.7</ele>
        <time>2011-07-03T09:42:42.000Z</time>
      </trkpt>
      <trkpt lat="46.51935" lon="0.36369">
        <ele>124.7</ele>
        <time>2011-07-03T09:42:43.000Z</time>
      </trkpt>
      <trkpt lat="46.51918" lon="0.36374">
        <ele>124.5</ele>
        <time>2011-07-03T09:42:48.000Z</time>
      </trkpt>
      <trkpt lat="46.51897" lon="0.36379">
        <ele>124.4</ele>
        <time>2011-07-03T09:42:53.000Z</time>
      </trkpt>
      <trkpt lat="46.5188" lon="0.3638">
        <ele>124.3</ele>
        <time>2011-07-03T09:42:57.000Z</time>
      </trkpt>
      <trkpt lat="46.51874" lon="0.36382">
        <ele>124.3</ele>
        <time>2011-07-03T09:42:58.000Z</time>
      </trkpt>
      <trkpt lat="46.51862" lon="0.36386">
        <ele>124.1</ele>
        <time>2011-07-03T09:43:01.000Z</time>
      </trkpt>
      <trkpt lat="46.51836" lon="0.36393">
        <ele>123.8</ele>
        <time>2011-07-03T09:43:06.000Z</time>
      </trkpt>
      <trkpt lat="46.51811" lon="0.36397">
        <ele>123.7</ele>
        <time>2011-07-03T09:43:11.000Z</time>
      </trkpt>
      <trkpt lat="46.51792" lon="0.36398">
        <ele>123.8</ele>
        <time>2011-07-03T09:43:15.000Z</time>
      </trkpt>
      <trkpt lat="46.51784" lon="0.36393">
        <ele>124</ele>
        <time>2011-07-03T09:43:17.000Z</time>
      </trkpt>
      <trkpt lat="46.51776" lon="0.36387">
        <ele>124.2</ele>
        <time>2011-07-03T09:43:19.000Z</time>
      </trkpt>
      <trkpt lat="46.51769" lon="0.3638">
        <ele>124.8</ele>
        <time>2011-07-03T09:43:21.000Z</time>
      </trkpt>
      <trkpt lat="46.51764" lon="0.36374">
        <ele>125.3</ele>
        <time>2011-07-03T09:43:23.000Z</time>
      </trkpt>
      <trkpt lat="46.51753" lon="0.36357">
        <ele>126</ele>
        <time>2011-07-03T09:43:27.000Z</time>
      </trkpt>
      <trkpt lat="46.51749" lon="0.36351">
        <ele>126.4</ele>
        <time>2011-07-03T09:43:28.000Z</time>
      </trkpt>
      <trkpt lat="46.51744" lon="0.36346">
        <ele>126.9</ele>
        <time>2011-07-03T09:43:29.000Z</time>
      </trkpt>
      <trkpt lat="46.5174" lon="0.36341">
        <ele>127.2</ele>
        <time>2011-07-03T09:43:30.000Z</time>
      </trkpt>
      <trkpt lat="46.51736" lon="0.36336">
        <ele>127.4</ele>
        <time>2011-07-03T09:43:31.000Z</time>
      </trkpt>
      <trkpt lat="46.51728" lon="0.36327">
        <ele>128</ele>
        <time>2011-07-03T09:43:34.000Z</time>
      </trkpt>
      <trkpt lat="46.51721" lon="0.36317">
        <ele>128.6</ele>
        <time>2011-07-03T09:43:38.000Z</time>
      </trkpt>
      <trkpt lat="46.51717" lon="0.36313">
        <ele>128.9</ele>
        <time>2011-07-03T09:43:40.000Z</time>
      </trkpt>
      <trkpt lat="46.51716" lon="0.36311">
        <ele>129.1</ele>
        <time>2011-07-03T09:43:41.000Z</time>
      </trkpt>
      <trkpt lat="46.51715" lon="0.36308">
        <ele>129.2</ele>
        <time>2011-07-03T09:43:42.000Z</time>
      </trkpt>
      <trkpt lat="46.51714" lon="0.36305">
        <ele>129.3</ele>
        <time>2011-07-03T09:43:43.000Z</time>
      </trkpt>
      <trkpt lat="46.51713" lon="0.36303">
        <ele>129.4</ele>
        <time>2011-07-03T09:43:44.000Z</time>
      </trkpt>
      <trkpt lat="46.51709" lon="0.36293">
        <ele>129.7</ele>
        <time>2011-07-03T09:43:48.000Z</time>
      </trkpt>
      <trkpt lat="46.51708" lon="0.36283">
        <ele>129.9</ele>
        <time>2011-07-03T09:43:51.000Z</time>
      </trkpt>
      <trkpt lat="46.51708" lon="0.36278">
        <ele>130</ele>
        <time>2011-07-03T09:43:53.000Z</time>
      </trkpt>
      <trkpt lat="46.51705" lon="0.36263">
        <ele>130.5</ele>
        <time>2011-07-03T09:43:58.000Z</time>
      </trkpt>
      <trkpt lat="46.51704" lon="0.3626">
        <ele>130.7</ele>
        <time>2011-07-03T09:43:59.000Z</time>
      </trkpt>
      <trkpt lat="46.51704" lon="0.36256">
        <ele>130.8</ele>
        <time>2011-07-03T09:44:00.000Z</time>
      </trkpt>
      <trkpt lat="46.51703" lon="0.36254">
        <ele>130.9</ele>
        <time>2011-07-03T09:44:01.000Z</time>
      </trkpt>
      <trkpt lat="46.51703" lon="0.36252">
        <ele>130.9</ele>
        <time>2011-07-03T09:44:02.000Z</time>
      </trkpt>
      <trkpt lat="46.51703" lon="0.36249">
        <ele>131</ele>
        <time>2011-07-03T09:44:03.000Z</time>
      </trkpt>
      <trkpt lat="46.51703" lon="0.36246">
        <ele>131</ele>
        <time>2011-07-03T09:44:04.000Z</time>
      </trkpt>
      <trkpt lat="46.51702" lon="0.36237">
        <ele>131</ele>
        <time>2011-07-03T09:44:07.000Z</time>
      </trkpt>
      <trkpt lat="46.51698" lon="0.36232">
        <ele>131</ele>
        <time>2011-07-03T09:44:09.000Z</time>
      </trkpt>
      <trkpt lat="46.51692" lon="0.3621">
        <ele>131.5</ele>
        <time>2011-07-03T09:44:16.000Z</time>
      </trkpt>
      <trkpt lat="46.51691" lon="0.36198">
        <ele>131.9</ele>
        <time>2011-07-03T09:44:20.000Z</time>
      </trkpt>
      <trkpt lat="46.51693" lon="0.36196">
        <ele>131.9</ele>
        <time>2011-07-03T09:44:21.000Z</time>
      </trkpt>
      <trkpt lat="46.51695" lon="0.36194">
        <ele>132</ele>
        <time>2011-07-03T09:44:22.000Z</time>
      </trkpt>
      <trkpt lat="46.51698" lon="0.36193">
        <ele>132.1</ele>
        <time>2011-07-03T09:44:23.000Z</time>
      </trkpt>
      <trkpt lat="46.51701" lon="0.36191">
        <ele>132.1</ele>
        <time>2011-07-03T09:44:24.000Z</time>
      </trkpt>
      <trkpt lat="46.51709" lon="0.36189">
        <ele>132.1</ele>
        <time>2011-07-03T09:44:26.000Z</time>
      </trkpt>
      <trkpt lat="46.5173" lon="0.3618">
        <ele>132</ele>
        <time>2011-07-03T09:44:32.000Z</time>
      </trkpt>
      <trkpt lat="46.51759" lon="0.36161">
        <ele>132.1</ele>
        <time>2011-07-03T09:44:40.000Z</time>
      </trkpt>
      <trkpt lat="46.51783" lon="0.36148">
        <ele>131.9</ele>
        <time>2011-07-03T09:44:46.000Z</time>
      </trkpt>
      <trkpt lat="46.51788" lon="0.36146">
        <ele>131.9</ele>
        <time>2011-07-03T09:44:47.000Z</time>
      </trkpt>
      <trkpt lat="46.5181" lon="0.36144">
        <ele>131.7</ele>
        <time>2011-07-03T09:44:52.000Z</time>
      </trkpt>
      <trkpt lat="46.51841" lon="0.36139">
        <ele>131</ele>
        <time>2011-07-03T09:44:58.000Z</time>
      </trkpt>
      <trkpt lat="46.51857" lon="0.36125">
        <ele>131.5</ele>
        <time>2011-07-03T09:45:02.000Z</time>
      </trkpt>
      <trkpt lat="46.51861" lon="0.36121">
        <ele>131.6</ele>
        <time>2011-07-03T09:45:03.000Z</time>
      </trkpt>
      <trkpt lat="46.51878" lon="0.36107">
        <ele>131.4</ele>
        <time>2011-07-03T09:45:07.000Z</time>
      </trkpt>
      <trkpt lat="46.51883" lon="0.36105">
        <ele>131.2</ele>
        <time>2011-07-03T09:45:08.000Z</time>
      </trkpt>
      <trkpt lat="46.51895" lon="0.361">
        <ele>130.8</ele>
        <time>2011-07-03T09:45:11.000Z</time>
      </trkpt>
      <trkpt lat="46.51906" lon="0.361">
        <ele>130.4</ele>
        <time>2011-07-03T09:45:13.000Z</time>
      </trkpt>
      <trkpt lat="46.51939" lon="0.36098">
        <ele>129.2</ele>
        <time>2011-07-03T09:45:18.000Z</time>
      </trkpt>
      <trkpt lat="46.51953" lon="0.36076">
        <ele>128.6</ele>
        <time>2011-07-03T09:45:21.000Z</time>
      </trkpt>
      <trkpt lat="46.5196" lon="0.3605">
        <ele>128.9</ele>
        <time>2011-07-03T09:45:24.000Z</time>
      </trkpt>
      <trkpt lat="46.51961" lon="0.36042">
        <ele>128.8</ele>
        <time>2011-07-03T09:45:25.000Z</time>
      </trkpt>
      <trkpt lat="46.51973" lon="0.36024">
        <ele>127.9</ele>
        <time>2011-07-03T09:45:28.000Z</time>
      </trkpt>
      <trkpt lat="46.51995" lon="0.36024">
        <ele>125.7</ele>
        <time>2011-07-03T09:45:31.000Z</time>
      </trkpt>
      <trkpt lat="46.52004" lon="0.36027">
        <ele>124.9</ele>
        <time>2011-07-03T09:45:32.000Z</time>
      </trkpt>
      <trkpt lat="46.52012" lon="0.36031">
        <ele>124.5</ele>
        <time>2011-07-03T09:45:33.000Z</time>
      </trkpt>
      <trkpt lat="46.5202" lon="0.36036">
        <ele>124.1</ele>
        <time>2011-07-03T09:45:34.000Z</time>
      </trkpt>
      <trkpt lat="46.52029" lon="0.36039">
        <ele>123.6</ele>
        <time>2011-07-03T09:45:35.000Z</time>
      </trkpt>
      <trkpt lat="46.52036" lon="0.36043">
        <ele>123.5</ele>
        <time>2011-07-03T09:45:36.000Z</time>
      </trkpt>
      <trkpt lat="46.52044" lon="0.36045">
        <ele>123.4</ele>
        <time>2011-07-03T09:45:37.000Z</time>
      </trkpt>
      <trkpt lat="46.52051" lon="0.36046">
        <ele>123.4</ele>
        <time>2011-07-03T09:45:38.000Z</time>
      </trkpt>
      <trkpt lat="46.52059" lon="0.36045">
        <ele>123.4</ele>
        <time>2011-07-03T09:45:39.000Z</time>
      </trkpt>
      <trkpt lat="46.52066" lon="0.36045">
        <ele>123.4</ele>
        <time>2011-07-03T09:45:40.000Z</time>
      </trkpt>
      <trkpt lat="46.52079" lon="0.36042">
        <ele>123.5</ele>
        <time>2011-07-03T09:45:42.000Z</time>
      </trkpt>
      <trkpt lat="46.52086" lon="0.3604">
        <ele>123.7</ele>
        <time>2011-07-03T09:45:43.000Z</time>
      </trkpt>
      <trkpt lat="46.52092" lon="0.36037">
        <ele>124</ele>
        <time>2011-07-03T09:45:44.000Z</time>
      </trkpt>
      <trkpt lat="46.52099" lon="0.36034">
        <ele>124.3</ele>
        <time>2011-07-03T09:45:45.000Z</time>
      </trkpt>
      <trkpt lat="46.52105" lon="0.36032">
        <ele>124.6</ele>
        <time>2011-07-03T09:45:46.000Z</time>
      </trkpt>
      <trkpt lat="46.52122" lon="0.36029">
        <ele>125.4</ele>
        <time>2011-07-03T09:45:49.000Z</time>
      </trkpt>
      <trkpt lat="46.52122" lon="0.3602">
        <ele>125.6</ele>
        <time>2011-07-03T09:45:51.000Z</time>
      </trkpt>
      <trkpt lat="46.52114" lon="0.36005">
        <ele>125.8</ele>
        <time>2011-07-03T09:45:54.000Z</time>
      </trkpt>
      <trkpt lat="46.52098" lon="0.35978">
        <ele>126.3</ele>
        <time>2011-07-03T09:45:59.000Z</time>
      </trkpt>
      <trkpt lat="46.52093" lon="0.35967">
        <ele>126.6</ele>
        <time>2011-07-03T09:46:01.000Z</time>
      </trkpt>
      <trkpt lat="46.52087" lon="0.35957">
        <ele>127.1</ele>
        <time>2011-07-03T09:46:03.000Z</time>
      </trkpt>
      <trkpt lat="46.52073" lon="0.35932">
        <ele>128.6</ele>
        <time>2011-07-03T09:46:08.000Z</time>
      </trkpt>
      <trkpt lat="46.5207" lon="0.35927">
        <ele>129</ele>
        <time>2011-07-03T09:46:09.000Z</time>
      </trkpt>
      <trkpt lat="46.52066" lon="0.35921">
        <ele>129.3</ele>
        <time>2011-07-03T09:46:10.000Z</time>
      </trkpt>
      <trkpt lat="46.52063" lon="0.35916">
        <ele>129.8</ele>
        <time>2011-07-03T09:46:11.000Z</time>
      </trkpt>
      <trkpt lat="46.5206" lon="0.3591">
        <ele>130.1</ele>
        <time>2011-07-03T09:46:12.000Z</time>
      </trkpt>
      <trkpt lat="46.52057" lon="0.35905">
        <ele>130.4</ele>
        <time>2011-07-03T09:46:13.000Z</time>
      </trkpt>
      <trkpt lat="46.52045" lon="0.35887">
        <ele>131.1</ele>
        <time>2011-07-03T09:46:17.000Z</time>
      </trkpt>
      <trkpt lat="46.52043" lon="0.35882">
        <ele>131.2</ele>
        <time>2011-07-03T09:46:18.000Z</time>
      </trkpt>
      <trkpt lat="46.5204" lon="0.35877">
        <ele>131.4</ele>
        <time>2011-07-03T09:46:19.000Z</time>
      </trkpt>
      <trkpt lat="46.52038" lon="0.35872">
        <ele>131.6</ele>
        <time>2011-07-03T09:46:20.000Z</time>
      </trkpt>
      <trkpt lat="46.52035" lon="0.35867">
        <ele>131.8</ele>
        <time>2011-07-03T09:46:21.000Z</time>
      </trkpt>
      <trkpt lat="46.52029" lon="0.35858">
        <ele>132.1</ele>
        <time>2011-07-03T09:46:23.000Z</time>
      </trkpt>
      <trkpt lat="46.52019" lon="0.3584">
        <ele>132.8</ele>
        <time>2011-07-03T09:46:27.000Z</time>
      </trkpt>
      <trkpt lat="46.52016" lon="0.35835">
        <ele>133</ele>
        <time>2011-07-03T09:46:28.000Z</time>
      </trkpt>
      <trkpt lat="46.52013" lon="0.35831">
        <ele>133.1</ele>
        <time>2011-07-03T09:46:29.000Z</time>
      </trkpt>
      <trkpt lat="46.5201" lon="0.35826">
        <ele>133.2</ele>
        <time>2011-07-03T09:46:30.000Z</time>
      </trkpt>
      <trkpt lat="46.52007" lon="0.35823">
        <ele>133.3</ele>
        <time>2011-07-03T09:46:31.000Z</time>
      </trkpt>
      <trkpt lat="46.52004" lon="0.3582">
        <ele>133.4</ele>
        <time>2011-07-03T09:46:32.000Z</time>
      </trkpt>
      <trkpt lat="46.51997" lon="0.35812">
        <ele>133.8</ele>
        <time>2011-07-03T09:46:34.000Z</time>
      </trkpt>
      <trkpt lat="46.51993" lon="0.35809">
        <ele>133.9</ele>
        <time>2011-07-03T09:46:35.000Z</time>
      </trkpt>
      <trkpt lat="46.51989" lon="0.35806">
        <ele>134</ele>
        <time>2011-07-03T09:46:36.000Z</time>
      </trkpt>
      <trkpt lat="46.51985" lon="0.35803">
        <ele>134</ele>
        <time>2011-07-03T09:46:37.000Z</time>
      </trkpt>
      <trkpt lat="46.51982" lon="0.358">
        <ele>134</ele>
        <time>2011-07-03T09:46:38.000Z</time>
      </trkpt>
      <trkpt lat="46.51978" lon="0.35797">
        <ele>134</ele>
        <time>2011-07-03T09:46:39.000Z</time>
      </trkpt>
      <trkpt lat="46.51964" lon="0.35786">
        <ele>134</ele>
        <time>2011-07-03T09:46:43.000Z</time>
      </trkpt>
      <trkpt lat="46.51938" lon="0.35765">
        <ele>134.1</ele>
        <time>2011-07-03T09:46:50.000Z</time>
      </trkpt>
      <trkpt lat="46.51918" lon="0.35752">
        <ele>134.9</ele>
        <time>2011-07-03T09:46:55.000Z</time>
      </trkpt>
      <trkpt lat="46.5191" lon="0.35747">
        <ele>135</ele>
        <time>2011-07-03T09:46:57.000Z</time>
      </trkpt>
      <trkpt lat="46.51877" lon="0.35724">
        <ele>135</ele>
        <time>2011-07-03T09:47:05.000Z</time>
      </trkpt>
      <trkpt lat="46.51864" lon="0.35719">
        <ele>134.9</ele>
        <time>2011-07-03T09:47:08.000Z</time>
      </trkpt>
      <trkpt lat="46.51851" lon="0.35715">
        <ele>134.8</ele>
        <time>2011-07-03T09:47:11.000Z</time>
      </trkpt>
      <trkpt lat="46.51846" lon="0.35715">
        <ele>134.9</ele>
        <time>2011-07-03T09:47:12.000Z</time>
      </trkpt>
      <trkpt lat="46.51833" lon="0.35712">
        <ele>135</ele>
        <time>2011-07-03T09:47:15.000Z</time>
      </trkpt>
      <trkpt lat="46.5183" lon="0.35708">
        <ele>135</ele>
        <time>2011-07-03T09:47:16.000Z</time>
      </trkpt>
      <trkpt lat="46.51826" lon="0.35696">
        <ele>135</ele>
        <time>2011-07-03T09:47:19.000Z</time>
      </trkpt>
      <trkpt lat="46.51827" lon="0.35685">
        <ele>135.1</ele>
        <time>2011-07-03T09:47:22.000Z</time>
      </trkpt>
      <trkpt lat="46.5183" lon="0.35678">
        <ele>135.1</ele>
        <time>2011-07-03T09:47:23.000Z</time>
      </trkpt>
      <trkpt lat="46.51832" lon="0.35672">
        <ele>135</ele>
        <time>2011-07-03T09:47:24.000Z</time>
      </trkpt>
      <trkpt lat="46.51834" lon="0.35665">
        <ele>135</ele>
        <time>2011-07-03T09:47:25.000Z</time>
      </trkpt>
      <trkpt lat="46.51834" lon="0.35644">
        <ele>135</ele>
        <time>2011-07-03T09:47:28.000Z</time>
      </trkpt>
      <trkpt lat="46.51824" lon="0.35626">
        <ele>134.6</ele>
        <time>2011-07-03T09:47:31.000Z</time>
      </trkpt>
      <trkpt lat="46.5182" lon="0.35621">
        <ele>134.4</ele>
        <time>2011-07-03T09:47:32.000Z</time>
      </trkpt>
      <trkpt lat="46.51817" lon="0.35615">
        <ele>134.1</ele>
        <time>2011-07-03T09:47:33.000Z</time>
      </trkpt>
      <trkpt lat="46.51812" lon="0.356">
        <ele>134</ele>
        <time>2011-07-03T09:47:36.000Z</time>
      </trkpt>
      <trkpt lat="46.51808" lon="0.35601">
        <ele>134</ele>
        <time>2011-07-03T09:47:37.000Z</time>
      </trkpt>
      <trkpt lat="46.51804" lon="0.35606">
        <ele>134</ele>
        <time>2011-07-03T09:47:38.000Z</time>
      </trkpt>
      <trkpt lat="46.51795" lon="0.35625">
        <ele>134.3</ele>
        <time>2011-07-03T09:47:41.000Z</time>
      </trkpt>
      <trkpt lat="46.51782" lon="0.35648">
        <ele>134.4</ele>
        <time>2011-07-03T09:47:45.000Z</time>
      </trkpt>
      <trkpt lat="46.51772" lon="0.35655">
        <ele>134.5</ele>
        <time>2011-07-03T09:47:47.000Z</time>
      </trkpt>
      <trkpt lat="46.51761" lon="0.35661">
        <ele>134.3</ele>
        <time>2011-07-03T09:47:49.000Z</time>
      </trkpt>
      <trkpt lat="46.51741" lon="0.35673">
        <ele>134.2</ele>
        <time>2011-07-03T09:47:53.000Z</time>
      </trkpt>
      <trkpt lat="46.51704" lon="0.3569">
        <ele>134.3</ele>
        <time>2011-07-03T09:48:00.000Z</time>
      </trkpt>
      <trkpt lat="46.51662" lon="0.35707">
        <ele>134.5</ele>
        <time>2011-07-03T09:48:08.000Z</time>
      </trkpt>
      <trkpt lat="46.5164" lon="0.35716">
        <ele>134.8</ele>
        <time>2011-07-03T09:48:12.000Z</time>
      </trkpt>
      <trkpt lat="46.51624" lon="0.35722">
        <ele>134.5</ele>
        <time>2011-07-03T09:48:15.000Z</time>
      </trkpt>
      <trkpt lat="46.51592" lon="0.35737">
        <ele>134.5</ele>
        <time>2011-07-03T09:48:21.000Z</time>
      </trkpt>
      <trkpt lat="46.51589" lon="0.35743">
        <ele>134.7</ele>
        <time>2011-07-03T09:48:22.000Z</time>
      </trkpt>
      <trkpt lat="46.5158" lon="0.3575">
        <ele>135</ele>
        <time>2011-07-03T09:48:24.000Z</time>
      </trkpt>
      <trkpt lat="46.5157" lon="0.35753">
        <ele>135</ele>
        <time>2011-07-03T09:48:26.000Z</time>
      </trkpt>
      <trkpt lat="46.51528" lon="0.3577">
        <ele>135</ele>
        <time>2011-07-03T09:48:34.000Z</time>
      </trkpt>
      <trkpt lat="46.51485" lon="0.35787">
        <ele>135.2</ele>
        <time>2011-07-03T09:48:42.000Z</time>
      </trkpt>
      <trkpt lat="46.51439" lon="0.35807">
        <ele>135</ele>
        <time>2011-07-03T09:48:51.000Z</time>
      </trkpt>
      <trkpt lat="46.51409" lon="0.35819">
        <ele>134.9</ele>
        <time>2011-07-03T09:48:57.000Z</time>
      </trkpt>
      <trkpt lat="46.51378" lon="0.3583">
        <ele>134.1</ele>
        <time>2011-07-03T09:49:03.000Z</time>
      </trkpt>
      <trkpt lat="46.51363" lon="0.35836">
        <ele>133.9</ele>
        <time>2011-07-03T09:49:06.000Z</time>
      </trkpt>
      <trkpt lat="46.51358" lon="0.35833">
        <ele>133.9</ele>
        <time>2011-07-03T09:49:07.000Z</time>
      </trkpt>
      <trkpt lat="46.51354" lon="0.35828">
        <ele>133.8</ele>
        <time>2011-07-03T09:49:08.000Z</time>
      </trkpt>
      <trkpt lat="46.51349" lon="0.35808">
        <ele>134</ele>
        <time>2011-07-03T09:49:11.000Z</time>
      </trkpt>
      <trkpt lat="46.51354" lon="0.3578">
        <ele>134</ele>
        <time>2011-07-03T09:49:15.000Z</time>
      </trkpt>
      <trkpt lat="46.51358" lon="0.35751">
        <ele>135</ele>
        <time>2011-07-03T09:49:19.000Z</time>
      </trkpt>
      <trkpt lat="46.51358" lon="0.35744">
        <ele>135</ele>
        <time>2011-07-03T09:49:20.000Z</time>
      </trkpt>
      <trkpt lat="46.51354" lon="0.35708">
        <ele>135</ele>
        <time>2011-07-03T09:49:25.000Z</time>
      </trkpt>
      <trkpt lat="46.51349" lon="0.35661">
        <ele>135</ele>
        <time>2011-07-03T09:49:31.000Z</time>
      </trkpt>
      <trkpt lat="46.51348" lon="0.35654">
        <ele>135</ele>
        <time>2011-07-03T09:49:32.000Z</time>
      </trkpt>
      <trkpt lat="46.51345" lon="0.35613">
        <ele>135</ele>
        <time>2011-07-03T09:49:37.000Z</time>
      </trkpt>
      <trkpt lat="46.51344" lon="0.35606">
        <ele>134.8</ele>
        <time>2011-07-03T09:49:38.000Z</time>
      </trkpt>
      <trkpt lat="46.51336" lon="0.35576">
        <ele>133.8</ele>
        <time>2011-07-03T09:49:44.000Z</time>
      </trkpt>
      <trkpt lat="46.51328" lon="0.35576">
        <ele>133.8</ele>
        <time>2011-07-03T09:49:48.000Z</time>
      </trkpt>
      <trkpt lat="46.51324" lon="0.35578">
        <ele>133.9</ele>
        <time>2011-07-03T09:49:49.000Z</time>
      </trkpt>
      <trkpt lat="46.51316" lon="0.35576">
        <ele>133.9</ele>
        <time>2011-07-03T09:49:51.000Z</time>
      </trkpt>
      <trkpt lat="46.51312" lon="0.35576">
        <ele>133.9</ele>
        <time>2011-07-03T09:49:52.000Z</time>
      </trkpt>
      <trkpt lat="46.51298" lon="0.35576">
        <ele>134</ele>
        <time>2011-07-03T09:49:55.000Z</time>
      </trkpt>
      <trkpt lat="46.5129" lon="0.3558">
        <ele>134</ele>
        <time>2011-07-03T09:49:57.000Z</time>
      </trkpt>
      <trkpt lat="46.51285" lon="0.35583">
        <ele>134</ele>
        <time>2011-07-03T09:49:58.000Z</time>
      </trkpt>
      <trkpt lat="46.51267" lon="0.35596">
        <ele>134.5</ele>
        <time>2011-07-03T09:50:02.000Z</time>
      </trkpt>
      <trkpt lat="46.51225" lon="0.3562">
        <ele>135</ele>
        <time>2011-07-03T09:50:11.000Z</time>
      </trkpt>
      <trkpt lat="46.51198" lon="0.35636">
        <ele>135</ele>
        <time>2011-07-03T09:50:17.000Z</time>
      </trkpt>
      <trkpt lat="46.5116" lon="0.35655">
        <ele>136</ele>
        <time>2011-07-03T09:50:25.000Z</time>
      </trkpt>
      <trkpt lat="46.51131" lon="0.35667">
        <ele>136</ele>
        <time>2011-07-03T09:50:31.000Z</time>
      </trkpt>
      <trkpt lat="46.51126" lon="0.35668">
        <ele>136</ele>
        <time>2011-07-03T09:50:32.000Z</time>
      </trkpt>
      <trkpt lat="46.51122" lon="0.35671">
        <ele>136</ele>
        <time>2011-07-03T09:50:33.000Z</time>
      </trkpt>
      <trkpt lat="46.51117" lon="0.35674">
        <ele>136</ele>
        <time>2011-07-03T09:50:34.000Z</time>
      </trkpt>
      <trkpt lat="46.51104" lon="0.35681">
        <ele>136</ele>
        <time>2011-07-03T09:50:37.000Z</time>
      </trkpt>
      <trkpt lat="46.51094" lon="0.35687">
        <ele>136</ele>
        <time>2011-07-03T09:50:39.000Z</time>
      </trkpt>
      <trkpt lat="46.51081" lon="0.35696">
        <ele>136</ele>
        <time>2011-07-03T09:50:42.000Z</time>
      </trkpt>
      <trkpt lat="46.51067" lon="0.3569">
        <ele>136</ele>
        <time>2011-07-03T09:50:45.000Z</time>
      </trkpt>
      <trkpt lat="46.51063" lon="0.35685">
        <ele>136</ele>
        <time>2011-07-03T09:50:46.000Z</time>
      </trkpt>
      <trkpt lat="46.51056" lon="0.35681">
        <ele>136</ele>
        <time>2011-07-03T09:50:48.000Z</time>
      </trkpt>
      <trkpt lat="46.51051" lon="0.35683">
        <ele>136</ele>
        <time>2011-07-03T09:50:49.000Z</time>
      </trkpt>
      <trkpt lat="46.51038" lon="0.35684">
        <ele>136</ele>
        <time>2011-07-03T09:50:52.000Z</time>
      </trkpt>
      <trkpt lat="46.51033" lon="0.35681">
        <ele>136</ele>
        <time>2011-07-03T09:50:53.000Z</time>
      </trkpt>
      <trkpt lat="46.5103" lon="0.35678">
        <ele>136</ele>
        <time>2011-07-03T09:50:54.000Z</time>
      </trkpt>
      <trkpt lat="46.51021" lon="0.3566">
        <ele>136</ele>
        <time>2011-07-03T09:50:57.000Z</time>
      </trkpt>
      <trkpt lat="46.51003" lon="0.356">
        <ele>135.5</ele>
        <time>2011-07-03T09:51:05.000Z</time>
      </trkpt>
      <trkpt lat="46.5099" lon="0.35582">
        <ele>135</ele>
        <time>2011-07-03T09:51:08.000Z</time>
      </trkpt>
      <trkpt lat="46.50977" lon="0.35566">
        <ele>134.4</ele>
        <time>2011-07-03T09:51:11.000Z</time>
      </trkpt>
      <trkpt lat="46.50976" lon="0.35562">
        <ele>134.2</ele>
        <time>2011-07-03T09:51:12.000Z</time>
      </trkpt>
      <trkpt lat="46.50974" lon="0.35558">
        <ele>134.1</ele>
        <time>2011-07-03T09:51:13.000Z</time>
      </trkpt>
      <trkpt lat="46.50971" lon="0.3555">
        <ele>134</ele>
        <time>2011-07-03T09:51:15.000Z</time>
      </trkpt>
      <trkpt lat="46.50969" lon="0.35547">
        <ele>134</ele>
        <time>2011-07-03T09:51:16.000Z</time>
      </trkpt>
      <trkpt lat="46.50966" lon="0.35545">
        <ele>134</ele>
        <time>2011-07-03T09:51:17.000Z</time>
      </trkpt>
      <trkpt lat="46.50961" lon="0.35539">
        <ele>134</ele>
        <time>2011-07-03T09:51:19.000Z</time>
      </trkpt>
      <trkpt lat="46.50956" lon="0.35531">
        <ele>134</ele>
        <time>2011-07-03T09:51:21.000Z</time>
      </trkpt>
      <trkpt lat="46.50953" lon="0.35528">
        <ele>134</ele>
        <time>2011-07-03T09:51:22.000Z</time>
      </trkpt>
      <trkpt lat="46.50951" lon="0.35525">
        <ele>133.9</ele>
        <time>2011-07-03T09:51:23.000Z</time>
      </trkpt>
      <trkpt lat="46.50949" lon="0.35523">
        <ele>133.8</ele>
        <time>2011-07-03T09:51:24.000Z</time>
      </trkpt>
      <trkpt lat="46.50947" lon="0.35522">
        <ele>133.8</ele>
        <time>2011-07-03T09:51:25.000Z</time>
      </trkpt>
      <trkpt lat="46.50943" lon="0.35517">
        <ele>133.6</ele>
        <time>2011-07-03T09:51:28.000Z</time>
      </trkpt>
      <trkpt lat="46.50937" lon="0.35513">
        <ele>133.6</ele>
        <time>2011-07-03T09:51:31.000Z</time>
      </trkpt>
      <trkpt lat="46.50935" lon="0.35516">
        <ele>133.7</ele>
        <time>2011-07-03T09:51:32.000Z</time>
      </trkpt>
      <trkpt lat="46.50921" lon="0.35529">
        <ele>134</ele>
        <time>2011-07-03T09:51:37.000Z</time>
      </trkpt>
      <trkpt lat="46.50904" lon="0.35527">
        <ele>134.5</ele>
        <time>2011-07-03T09:51:42.000Z</time>
      </trkpt>
      <trkpt lat="46.50898" lon="0.35527">
        <ele>134.7</ele>
        <time>2011-07-03T09:51:44.000Z</time>
      </trkpt>
      <trkpt lat="46.50892" lon="0.35528">
        <ele>134.9</ele>
        <time>2011-07-03T09:51:46.000Z</time>
      </trkpt>
      <trkpt lat="46.50885" lon="0.35519">
        <ele>134.9</ele>
        <time>2011-07-03T09:51:49.000Z</time>
      </trkpt>
      <trkpt lat="46.50889" lon="0.35501">
        <ele>134</ele>
        <time>2011-07-03T09:51:52.000Z</time>
      </trkpt>
      <trkpt lat="46.50893" lon="0.35496">
        <ele>134</ele>
        <time>2011-07-03T09:51:53.000Z</time>
      </trkpt>
      <trkpt lat="46.50904" lon="0.35479">
        <ele>133.6</ele>
        <time>2011-07-03T09:51:56.000Z</time>
      </trkpt>
      <trkpt lat="46.50911" lon="0.3547">
        <ele>133.2</ele>
        <time>2011-07-03T09:51:58.000Z</time>
      </trkpt>
      <trkpt lat="46.50929" lon="0.35443">
        <ele>132.5</ele>
        <time>2011-07-03T09:52:03.000Z</time>
      </trkpt>
      <trkpt lat="46.50932" lon="0.35438">
        <ele>132.2</ele>
        <time>2011-07-03T09:52:04.000Z</time>
      </trkpt>
      <trkpt lat="46.50942" lon="0.35421">
        <ele>131.3</ele>
        <time>2011-07-03T09:52:07.000Z</time>
      </trkpt>
      <trkpt lat="46.50949" lon="0.3541">
        <ele>131</ele>
        <time>2011-07-03T09:52:09.000Z</time>
      </trkpt>
      <trkpt lat="46.50952" lon="0.35404">
        <ele>131</ele>
        <time>2011-07-03T09:52:10.000Z</time>
      </trkpt>
      <trkpt lat="46.50955" lon="0.35397">
        <ele>131</ele>
        <time>2011-07-03T09:52:11.000Z</time>
      </trkpt>
      <trkpt lat="46.50958" lon="0.3539">
        <ele>131</ele>
        <time>2011-07-03T09:52:12.000Z</time>
      </trkpt>
      <trkpt lat="46.50961" lon="0.35383">
        <ele>130.8</ele>
        <time>2011-07-03T09:52:13.000Z</time>
      </trkpt>
      <trkpt lat="46.50963" lon="0.35376">
        <ele>130.5</ele>
        <time>2011-07-03T09:52:14.000Z</time>
      </trkpt>
      <trkpt lat="46.50961" lon="0.35353">
        <ele>130.1</ele>
        <time>2011-07-03T09:52:17.000Z</time>
      </trkpt>
      <trkpt lat="46.50951" lon="0.35344">
        <ele>129.7</ele>
        <time>2011-07-03T09:52:19.000Z</time>
      </trkpt>
      <trkpt lat="46.50945" lon="0.35341">
        <ele>129.3</ele>
        <time>2011-07-03T09:52:20.000Z</time>
      </trkpt>
      <trkpt lat="46.50905" lon="0.35317">
        <ele>129.8</ele>
        <time>2011-07-03T09:52:27.000Z</time>
      </trkpt>
      <trkpt lat="46.50888" lon="0.35308">
        <ele>130.1</ele>
        <time>2011-07-03T09:52:30.000Z</time>
      </trkpt>
      <trkpt lat="46.50877" lon="0.35306">
        <ele>130.5</ele>
        <time>2011-07-03T09:52:32.000Z</time>
      </trkpt>
      <trkpt lat="46.50871" lon="0.35305">
        <ele>130.6</ele>
        <time>2011-07-03T09:52:33.000Z</time>
      </trkpt>
      <trkpt lat="46.50855" lon="0.35306">
        <ele>131.2</ele>
        <time>2011-07-03T09:52:36.000Z</time>
      </trkpt>
      <trkpt lat="46.50842" lon="0.35308">
        <ele>131.8</ele>
        <time>2011-07-03T09:52:39.000Z</time>
      </trkpt>
      <trkpt lat="46.50838" lon="0.35307">
        <ele>131.9</ele>
        <time>2011-07-03T09:52:40.000Z</time>
      </trkpt>
      <trkpt lat="46.50819" lon="0.35304">
        <ele>131.9</ele>
        <time>2011-07-03T09:52:45.000Z</time>
      </trkpt>
      <trkpt lat="46.50806" lon="0.35303">
        <ele>131.9</ele>
        <time>2011-07-03T09:52:49.000Z</time>
      </trkpt>
      <trkpt lat="46.50804" lon="0.35302">
        <ele>132</ele>
        <time>2011-07-03T09:52:50.000Z</time>
      </trkpt>
      <trkpt lat="46.50801" lon="0.35301">
        <ele>132</ele>
        <time>2011-07-03T09:52:51.000Z</time>
      </trkpt>
      <trkpt lat="46.50798" lon="0.353">
        <ele>132.1</ele>
        <time>2011-07-03T09:52:52.000Z</time>
      </trkpt>
      <trkpt lat="46.50795" lon="0.35299">
        <ele>132.1</ele>
        <time>2011-07-03T09:52:53.000Z</time>
      </trkpt>
      <trkpt lat="46.50786" lon="0.35299">
        <ele>132.5</ele>
        <time>2011-07-03T09:52:56.000Z</time>
      </trkpt>
      <trkpt lat="46.50771" lon="0.35298">
        <ele>132.7</ele>
        <time>2011-07-03T09:53:01.000Z</time>
      </trkpt>
      <trkpt lat="46.50759" lon="0.3529">
        <ele>132.1</ele>
        <time>2011-07-03T09:53:06.000Z</time>
      </trkpt>
      <trkpt lat="46.50757" lon="0.35277">
        <ele>131.2</ele>
        <time>2011-07-03T09:53:09.000Z</time>
      </trkpt>
      <trkpt lat="46.50757" lon="0.35264">
        <ele>130.3</ele>
        <time>2011-07-03T09:53:11.000Z</time>
      </trkpt>
      <trkpt lat="46.50757" lon="0.35257">
        <ele>129.8</ele>
        <time>2011-07-03T09:53:12.000Z</time>
      </trkpt>
      <trkpt lat="46.50758" lon="0.35251">
        <ele>129.4</ele>
        <time>2011-07-03T09:53:13.000Z</time>
      </trkpt>
      <trkpt lat="46.50759" lon="0.35244">
        <ele>129.1</ele>
        <time>2011-07-03T09:53:14.000Z</time>
      </trkpt>
      <trkpt lat="46.5076" lon="0.35236">
        <ele>128.9</ele>
        <time>2011-07-03T09:53:15.000Z</time>
      </trkpt>
      <trkpt lat="46.50761" lon="0.35225">
        <ele>128.5</ele>
        <time>2011-07-03T09:53:17.000Z</time>
      </trkpt>
      <trkpt lat="46.5076" lon="0.35222">
        <ele>128.4</ele>
        <time>2011-07-03T09:53:18.000Z</time>
      </trkpt>
      <trkpt lat="46.50758" lon="0.35221">
        <ele>128.3</ele>
        <time>2011-07-03T09:53:19.000Z</time>
      </trkpt>
      <trkpt lat="46.50756" lon="0.35221">
        <ele>128.3</ele>
        <time>2011-07-03T09:53:20.000Z</time>
      </trkpt>
      <trkpt lat="46.50751" lon="0.35222">
        <ele>128.1</ele>
        <time>2011-07-03T09:53:21.000Z</time>
      </trkpt>
      <trkpt lat="46.50746" lon="0.35224">
        <ele>128.2</ele>
        <time>2011-07-03T09:53:22.000Z</time>
      </trkpt>
      <trkpt lat="46.50717" lon="0.35233">
        <ele>129.9</ele>
        <time>2011-07-03T09:53:28.000Z</time>
      </trkpt>
      <trkpt lat="46.50712" lon="0.35234">
        <ele>130.1</ele>
        <time>2011-07-03T09:53:29.000Z</time>
      </trkpt>
      <trkpt lat="46.50691" lon="0.35243">
        <ele>130.8</ele>
        <time>2011-07-03T09:53:34.000Z</time>
      </trkpt>
      <trkpt lat="46.50687" lon="0.35245">
        <ele>130.9</ele>
        <time>2011-07-03T09:53:35.000Z</time>
      </trkpt>
      <trkpt lat="46.50684" lon="0.35247">
        <ele>130.9</ele>
        <time>2011-07-03T09:53:36.000Z</time>
      </trkpt>
      <trkpt lat="46.5068" lon="0.35249">
        <ele>131</ele>
        <time>2011-07-03T09:53:37.000Z</time>
      </trkpt>
      <trkpt lat="46.50676" lon="0.35252">
        <ele>131</ele>
        <time>2011-07-03T09:53:38.000Z</time>
      </trkpt>
      <trkpt lat="46.50665" lon="0.35258">
        <ele>131.3</ele>
        <time>2011-07-03T09:53:41.000Z</time>
      </trkpt>
      <trkpt lat="46.50654" lon="0.35265">
        <ele>131.7</ele>
        <time>2011-07-03T09:53:44.000Z</time>
      </trkpt>
      <trkpt lat="46.50642" lon="0.3527">
        <ele>132</ele>
        <time>2011-07-03T09:53:47.000Z</time>
      </trkpt>
      <trkpt lat="46.50621" lon="0.35279">
        <ele>132</ele>
        <time>2011-07-03T09:53:52.000Z</time>
      </trkpt>
      <trkpt lat="46.50617" lon="0.3528">
        <ele>132.1</ele>
        <time>2011-07-03T09:53:53.000Z</time>
      </trkpt>
      <trkpt lat="46.50613" lon="0.35282">
        <ele>132.1</ele>
        <time>2011-07-03T09:53:54.000Z</time>
      </trkpt>
      <trkpt lat="46.50609" lon="0.35283">
        <ele>132.3</ele>
        <time>2011-07-03T09:53:55.000Z</time>
      </trkpt>
      <trkpt lat="46.50605" lon="0.35281">
        <ele>132.4</ele>
        <time>2011-07-03T09:53:56.000Z</time>
      </trkpt>
      <trkpt lat="46.506" lon="0.35267">
        <ele>132.6</ele>
        <time>2011-07-03T09:53:59.000Z</time>
      </trkpt>
      <trkpt lat="46.50608" lon="0.35262">
        <ele>132.6</ele>
        <time>2011-07-03T09:54:01.000Z</time>
      </trkpt>
      <trkpt lat="46.50612" lon="0.35262">
        <ele>132.5</ele>
        <time>2011-07-03T09:54:02.000Z</time>
      </trkpt>
      <trkpt lat="46.50616" lon="0.35262">
        <ele>132.5</ele>
        <time>2011-07-03T09:54:03.000Z</time>
      </trkpt>
      <trkpt lat="46.50633" lon="0.35256">
        <ele>132.2</ele>
        <time>2011-07-03T09:54:07.000Z</time>
      </trkpt>
      <trkpt lat="46.50645" lon="0.35246">
        <ele>131.9</ele>
        <time>2011-07-03T09:54:11.000Z</time>
      </trkpt>
      <trkpt lat="46.50646" lon="0.3524">
        <ele>132</ele>
        <time>2011-07-03T09:54:12.000Z</time>
      </trkpt>
      <trkpt lat="46.50651" lon="0.35214">
        <ele>132.1</ele>
        <time>2011-07-03T09:54:16.000Z</time>
      </trkpt>
      <trkpt lat="46.50654" lon="0.35201">
        <ele>131.9</ele>
        <time>2011-07-03T09:54:18.000Z</time>
      </trkpt>
      <trkpt lat="46.50665" lon="0.35152">
        <ele>131.6</ele>
        <time>2011-07-03T09:54:26.000Z</time>
      </trkpt>
      <trkpt lat="46.50676" lon="0.35124">
        <ele>131.5</ele>
        <time>2011-07-03T09:54:32.000Z</time>
      </trkpt>
      <trkpt lat="46.50676" lon="0.35121">
        <ele>131.5</ele>
        <time>2011-07-03T09:54:35.000Z</time>
      </trkpt>
      <trkpt lat="46.50676" lon="0.35121">
        <ele>131.5</ele>
        <time>2011-07-03T09:54:41.000Z</time>
      </trkpt>
      <trkpt lat="46.50676" lon="0.35121">
        <ele>131.5</ele>
        <time>2011-07-03T09:54:42.000Z</time>
      </trkpt>
      <trkpt lat="46.50677" lon="0.35122">
        <ele>131.5</ele>
        <time>2011-07-03T09:54:45.000Z</time>
      </trkpt>
      <trkpt lat="46.50676" lon="0.35119">
        <ele>131.6</ele>
        <time>2011-07-03T09:54:47.000Z</time>
      </trkpt>
      <trkpt lat="46.50671" lon="0.35119">
        <ele>131.8</ele>
        <time>2011-07-03T09:54:53.000Z</time>
      </trkpt>
      <trkpt lat="46.50671" lon="0.35119">
        <ele>131.8</ele>
        <time>2011-07-03T09:54:54.000Z</time>
      </trkpt>
      <trkpt lat="46.50672" lon="0.3512">
        <ele>131.8</ele>
        <time>2011-07-03T09:54:57.000Z</time>
      </trkpt>
      <trkpt lat="46.50674" lon="0.35122">
        <ele>131.6</ele>
        <time>2011-07-03T09:55:00.000Z</time>
      </trkpt>
      <trkpt lat="46.50674" lon="0.35124">
        <ele>131.6</ele>
        <time>2011-07-03T09:55:02.000Z</time>
      </trkpt>
      <trkpt lat="46.50674" lon="0.35124">
        <ele>131.6</ele>
        <time>2011-07-03T09:55:03.000Z</time>
      </trkpt>
      <trkpt lat="46.50673" lon="0.35125">
        <ele>131.7</ele>
        <time>2011-07-03T09:55:05.000Z</time>
      </trkpt>
      <trkpt lat="46.50672" lon="0.35127">
        <ele>131.7</ele>
        <time>2011-07-03T09:55:06.000Z</time>
      </trkpt>
      <trkpt lat="46.50671" lon="0.35132">
        <ele>131.7</ele>
        <time>2011-07-03T09:55:10.000Z</time>
      </trkpt>
      <trkpt lat="46.5067" lon="0.35135">
        <ele>131.8</ele>
        <time>2011-07-03T09:55:12.000Z</time>
      </trkpt>
      <trkpt lat="46.5067" lon="0.35135">
        <ele>131.8</ele>
        <time>2011-07-03T09:55:14.000Z</time>
      </trkpt>
      <trkpt lat="46.5067" lon="0.35136">
        <ele>131.8</ele>
        <time>2011-07-03T09:55:20.000Z</time>
      </trkpt>
      <trkpt lat="46.5067" lon="0.35139">
        <ele>131.7</ele>
        <time>2011-07-03T09:55:22.000Z</time>
      </trkpt>
      <trkpt lat="46.50671" lon="0.35141">
        <ele>131.6</ele>
        <time>2011-07-03T09:55:24.000Z</time>
      </trkpt>
      <trkpt lat="46.50671" lon="0.35141">
        <ele>131.6</ele>
        <time>2011-07-03T09:55:32.000Z</time>
      </trkpt>
      <trkpt lat="46.50671" lon="0.35141">
        <ele>131.6</ele>
        <time>2011-07-03T09:55:39.000Z</time>
      </trkpt>
      <trkpt lat="46.50671" lon="0.35139">
        <ele>131.7</ele>
        <time>2011-07-03T09:55:40.000Z</time>
      </trkpt>
      <trkpt lat="46.50674" lon="0.35134">
        <ele>131.5</ele>
        <time>2011-07-03T09:55:45.000Z</time>
      </trkpt>
      <trkpt lat="46.50675" lon="0.35133">
        <ele>131.5</ele>
        <time>2011-07-03T09:55:46.000Z</time>
      </trkpt>
      <trkpt lat="46.50678" lon="0.35128">
        <ele>131.3</ele>
        <time>2011-07-03T09:55:49.000Z</time>
      </trkpt>
      <trkpt lat="46.50679" lon="0.35126">
        <ele>131.3</ele>
        <time>2011-07-03T09:55:50.000Z</time>
      </trkpt>
      <trkpt lat="46.50678" lon="0.35125">
        <ele>131.4</ele>
        <time>2011-07-03T09:55:51.000Z</time>
      </trkpt>
      <trkpt lat="46.5068" lon="0.35122">
        <ele>131.3</ele>
        <time>2011-07-03T09:55:54.000Z</time>
      </trkpt>
      <trkpt lat="46.50681" lon="0.35121">
        <ele>131.3</ele>
        <time>2011-07-03T09:55:55.000Z</time>
      </trkpt>
      <trkpt lat="46.50681" lon="0.3512">
        <ele>131.3</ele>
        <time>2011-07-03T09:55:56.000Z</time>
      </trkpt>
      <trkpt lat="46.50681" lon="0.3512">
        <ele>131.3</ele>
        <time>2011-07-03T09:55:57.000Z</time>
      </trkpt>
      <trkpt lat="46.50681" lon="0.3512">
        <ele>131.3</ele>
        <time>2011-07-03T09:55:58.000Z</time>
      </trkpt>
      <trkpt lat="46.50682" lon="0.3512">
        <ele>131.3</ele>
        <time>2011-07-03T09:55:59.000Z</time>
      </trkpt>
      <trkpt lat="46.50682" lon="0.3512">
        <ele>131.3</ele>
        <time>2011-07-03T09:56:04.000Z</time>
      </trkpt>
      <trkpt lat="46.50682" lon="0.3512">
        <ele>131.3</ele>
        <time>2011-07-03T09:56:11.000Z</time>
      </trkpt>
      <trkpt lat="46.50682" lon="0.3512">
        <ele>131.3</ele>
        <time>2011-07-03T09:56:20.000Z</time>
      </trkpt>
      <trkpt lat="46.50682" lon="0.3512">
        <ele>131.3</ele>
        <time>2011-07-03T09:56:30.000Z</time>
      </trkpt>
      <trkpt lat="46.50682" lon="0.3512">
        <ele>131.3</ele>
        <time>2011-07-03T09:56:41.000Z</time>
      </trkpt>
      <trkpt lat="46.50682" lon="0.3512">
        <ele>131.3</ele>
        <time>2011-07-03T09:56:48.000Z</time>
      </trkpt>
      <trkpt lat="46.50682" lon="0.3512">
        <ele>131.3</ele>
        <time>2011-07-03T09:56:58.000Z</time>
      </trkpt>
      <trkpt lat="46.50681" lon="0.3512">
        <ele>131.3</ele>
        <time>2011-07-03T09:57:03.000Z</time>
      </trkpt>
      <trkpt lat="46.50681" lon="0.3512">
        <ele>131.3</ele>
        <time>2011-07-03T09:57:05.000Z</time>
      </trkpt>
      <trkpt lat="46.50681" lon="0.3512">
        <ele>131.3</ele>
        <time>2011-07-03T09:57:14.000Z</time>
      </trkpt>
      <trkpt lat="46.50681" lon="0.3512">
        <ele>131.3</ele>
        <time>2011-07-03T09:57:20.000Z</time>
      </trkpt>
      <trkpt lat="46.50681" lon="0.3512">
        <ele>131.3</ele>
        <time>2011-07-03T09:57:24.000Z</time>
      </trkpt>
      <trkpt lat="46.50681" lon="0.3512">
        <ele>131.3</ele>
        <time>2011-07-03T09:57:27.000Z</time>
      </trkpt>
      <trkpt lat="46.50681" lon="0.3512">
        <ele>131.3</ele>
        <time>2011-07-03T09:57:33.000Z</time>
      </trkpt>
      <trkpt lat="46.50681" lon="0.3512">
        <ele>131.3</ele>
        <time>2011-07-03T09:57:41.000Z</time>
      </trkpt>
      <trkpt lat="46.50682" lon="0.3512">
        <ele>131.3</ele>
        <time>2011-07-03T09:57:48.000Z</time>
      </trkpt>
      <trkpt lat="46.50682" lon="0.3512">
        <ele>131.3</ele>
        <time>2011-07-03T09:57:54.000Z</time>
      </trkpt>
      <trkpt lat="46.50682" lon="0.3512">
        <ele>131.3</ele>
        <time>2011-07-03T09:57:59.000Z</time>
      </trkpt>
      <trkpt lat="46.50682" lon="0.3512">
        <ele>131.3</ele>
        <time>2011-07-03T09:58:03.000Z</time>
      </trkpt>
      <trkpt lat="46.50682" lon="0.3512">
        <ele>131.3</ele>
        <time>2011-07-03T09:58:08.000Z</time>
      </trkpt>
      <trkpt lat="46.50682" lon="0.3512">
        <ele>131.3</ele>
        <time>2011-07-03T09:58:16.000Z</time>
      </trkpt>
      <trkpt lat="46.50682" lon="0.3512">
        <ele>131.3</ele>
        <time>2011-07-03T09:58:19.000Z</time>
      </trkpt>
      <trkpt lat="46.50682" lon="0.3512">
        <ele>131.3</ele>
        <time>2011-07-03T09:58:26.000Z</time>
      </trkpt>
      <trkpt lat="46.50682" lon="0.3512">
        <ele>131.3</ele>
        <time>2011-07-03T09:58:28.000Z</time>
      </trkpt>
      <trkpt lat="46.50682" lon="0.3512">
        <ele>131.3</ele>
        <time>2011-07-03T09:58:38.000Z</time>
      </trkpt>
      <trkpt lat="46.50682" lon="0.3512">
        <ele>131.3</ele>
        <time>2011-07-03T09:58:39.000Z</time>
      </trkpt>
      <trkpt lat="46.50682" lon="0.3512">
        <ele>131.3</ele>
        <time>2011-07-03T09:58:48.000Z</time>
      </trkpt>
      <trkpt lat="46.50682" lon="0.3512">
        <ele>131.3</ele>
        <time>2011-07-03T09:58:50.000Z</time>
      </trkpt>
      <trkpt lat="46.50682" lon="0.3512">
        <ele>131.3</ele>
        <time>2011-07-03T09:58:55.000Z</time>
      </trkpt>
      <trkpt lat="46.50682" lon="0.3512">
        <ele>131.3</ele>
        <time>2011-07-03T09:58:59.000Z</time>
      </trkpt>
      <trkpt lat="46.50682" lon="0.3512">
        <ele>131.3</ele>
        <time>2011-07-03T09:59:07.000Z</time>
      </trkpt>
      <trkpt lat="46.50682" lon="0.3512">
        <ele>131.3</ele>
        <time>2011-07-03T09:59:16.000Z</time>
      </trkpt>
      <trkpt lat="46.50682" lon="0.35119">
        <ele>131.3</ele>
        <time>2011-07-03T09:59:23.000Z</time>
      </trkpt>
      <trkpt lat="46.50682" lon="0.35119">
        <ele>131.3</ele>
        <time>2011-07-03T09:59:32.000Z</time>
      </trkpt>
      <trkpt lat="46.50682" lon="0.35119">
        <ele>131.3</ele>
        <time>2011-07-03T09:59:33.000Z</time>
      </trkpt>
      <trkpt lat="46.50682" lon="0.35119">
        <ele>131.3</ele>
        <time>2011-07-03T09:59:43.000Z</time>
      </trkpt>
      <trkpt lat="46.50682" lon="0.35118">
        <ele>131.3</ele>
        <time>2011-07-03T09:59:50.000Z</time>
      </trkpt>
      <trkpt lat="46.50682" lon="0.35118">
        <ele>131.3</ele>
        <time>2011-07-03T09:59:54.000Z</time>
      </trkpt>
      <trkpt lat="46.50682" lon="0.35119">
        <ele>131.3</ele>
        <time>2011-07-03T09:59:59.000Z</time>
      </trkpt>
      <trkpt lat="46.50682" lon="0.35119">
        <ele>131.3</ele>
        <time>2011-07-03T10:00:05.000Z</time>
      </trkpt>
      <trkpt lat="46.50683" lon="0.35119">
        <ele>131.3</ele>
        <time>2011-07-03T10:00:10.000Z</time>
      </trkpt>
      <trkpt lat="46.50683" lon="0.35119">
        <ele>131.2</ele>
        <time>2011-07-03T10:00:15.000Z</time>
      </trkpt>
      <trkpt lat="46.50683" lon="0.35119">
        <ele>131.2</ele>
        <time>2011-07-03T10:00:18.000Z</time>
      </trkpt>
      <trkpt lat="46.50683" lon="0.35119">
        <ele>131.2</ele>
        <time>2011-07-03T10:00:24.000Z</time>
      </trkpt>
      <trkpt lat="46.50683" lon="0.35119">
        <ele>131.2</ele>
        <time>2011-07-03T10:00:28.000Z</time>
      </trkpt>
      <trkpt lat="46.50683" lon="0.35119">
        <ele>131.2</ele>
        <time>2011-07-03T10:00:38.000Z</time>
      </trkpt>
      <trkpt lat="46.50683" lon="0.35119">
        <ele>131.2</ele>
        <time>2011-07-03T10:00:47.000Z</time>
      </trkpt>
      <trkpt lat="46.50683" lon="0.35118">
        <ele>131.3</ele>
        <time>2011-07-03T10:00:56.000Z</time>
      </trkpt>
      <trkpt lat="46.50683" lon="0.35118">
        <ele>131.3</ele>
        <time>2011-07-03T10:01:02.000Z</time>
      </trkpt>
      <trkpt lat="46.50683" lon="0.35118">
        <ele>131.3</ele>
        <time>2011-07-03T10:01:03.000Z</time>
      </trkpt>
      <trkpt lat="46.50684" lon="0.35118">
        <ele>131.2</ele>
        <time>2011-07-03T10:01:10.000Z</time>
      </trkpt>
      <trkpt lat="46.50685" lon="0.35119">
        <ele>131.2</ele>
        <time>2011-07-03T10:01:12.000Z</time>
      </trkpt>
      <trkpt lat="46.50685" lon="0.35119">
        <ele>131.2</ele>
        <time>2011-07-03T10:01:18.000Z</time>
      </trkpt>
      <trkpt lat="46.50684" lon="0.35119">
        <ele>131.2</ele>
        <time>2011-07-03T10:01:25.000Z</time>
      </trkpt>
      <trkpt lat="46.50684" lon="0.35119">
        <ele>131.2</ele>
        <time>2011-07-03T10:01:33.000Z</time>
      </trkpt>
      <trkpt lat="46.50684" lon="0.35119">
        <ele>131.2</ele>
        <time>2011-07-03T10:01:44.000Z</time>
      </trkpt>
      <trkpt lat="46.50684" lon="0.35119">
        <ele>131.2</ele>
        <time>2011-07-03T10:01:54.000Z</time>
      </trkpt>
      <trkpt lat="46.50684" lon="0.35119">
        <ele>131.2</ele>
        <time>2011-07-03T10:02:00.000Z</time>
      </trkpt>
      <trkpt lat="46.50684" lon="0.35119">
        <ele>131.2</ele>
        <time>2011-07-03T10:02:06.000Z</time>
      </trkpt>
      <trkpt lat="46.50684" lon="0.35119">
        <ele>131.2</ele>
        <time>2011-07-03T10:02:11.000Z</time>
      </trkpt>
      <trkpt lat="46.50684" lon="0.35119">
        <ele>131.2</ele>
        <time>2011-07-03T10:02:22.000Z</time>
      </trkpt>
      <trkpt lat="46.50684" lon="0.35119">
        <ele>131.2</ele>
        <time>2011-07-03T10:02:30.000Z</time>
      </trkpt>
      <trkpt lat="46.50684" lon="0.35119">
        <ele>131.2</ele>
        <time>2011-07-03T10:02:32.000Z</time>
      </trkpt>
      <trkpt lat="46.50684" lon="0.35119">
        <ele>131.2</ele>
        <time>2011-07-03T10:02:33.000Z</time>
      </trkpt>
      <trkpt lat="46.50684" lon="0.35119">
        <ele>131.2</ele>
        <time>2011-07-03T10:02:40.000Z</time>
      </trkpt>
      <trkpt lat="46.50684" lon="0.35119">
        <ele>131.2</ele>
        <time>2011-07-03T10:02:42.000Z</time>
      </trkpt>
      <trkpt lat="46.50684" lon="0.35119">
        <ele>131.2</ele>
        <time>2011-07-03T10:02:49.000Z</time>
      </trkpt>
      <trkpt lat="46.50684" lon="0.35119">
        <ele>131.2</ele>
        <time>2011-07-03T10:02:52.000Z</time>
      </trkpt>
      <trkpt lat="46.50684" lon="0.35119">
        <ele>131.2</ele>
        <time>2011-07-03T10:02:56.000Z</time>
      </trkpt>
      <trkpt lat="46.50684" lon="0.35119">
        <ele>131.2</ele>
        <time>2011-07-03T10:02:59.000Z</time>
      </trkpt>
      <trkpt lat="46.50684" lon="0.35119">
        <ele>131.2</ele>
        <time>2011-07-03T10:03:07.000Z</time>
      </trkpt>
      <trkpt lat="46.50684" lon="0.35118">
        <ele>131.2</ele>
        <time>2011-07-03T10:03:10.000Z</time>
      </trkpt>
      <trkpt lat="46.50684" lon="0.35118">
        <ele>131.2</ele>
        <time>2011-07-03T10:03:18.000Z</time>
      </trkpt>
      <trkpt lat="46.50683" lon="0.35117">
        <ele>131.3</ele>
        <time>2011-07-03T10:03:23.000Z</time>
      </trkpt>
      <trkpt lat="46.50683" lon="0.35117">
        <ele>131.3</ele>
        <time>2011-07-03T10:03:27.000Z</time>
      </trkpt>
      <trkpt lat="46.50683" lon="0.35117">
        <ele>131.3</ele>
        <time>2011-07-03T10:03:40.000Z</time>
      </trkpt>
      <trkpt lat="46.50682" lon="0.35119">
        <ele>131.3</ele>
        <time>2011-07-03T10:03:46.000Z</time>
      </trkpt>
      <trkpt lat="46.50681" lon="0.3512">
        <ele>131.3</ele>
        <time>2011-07-03T10:03:56.000Z</time>
      </trkpt>
      <trkpt lat="46.50681" lon="0.3512">
        <ele>131.3</ele>
        <time>2011-07-03T10:04:07.000Z</time>
      </trkpt>
      <trkpt lat="46.50681" lon="0.3512">
        <ele>131.3</ele>
        <time>2011-07-03T10:04:14.000Z</time>
      </trkpt>
      <trkpt lat="46.50681" lon="0.3512">
        <ele>131.3</ele>
        <time>2011-07-03T10:04:17.000Z</time>
      </trkpt>
      <trkpt lat="46.50682" lon="0.35119">
        <ele>131.3</ele>
        <time>2011-07-03T10:04:28.000Z</time>
      </trkpt>
      <trkpt lat="46.50682" lon="0.35119">
        <ele>131.3</ele>
        <time>2011-07-03T10:04:37.000Z</time>
      </trkpt>
      <trkpt lat="46.50682" lon="0.35119">
        <ele>131.3</ele>
        <time>2011-07-03T10:04:38.000Z</time>
      </trkpt>
      <trkpt lat="46.50682" lon="0.35119">
        <ele>131.3</ele>
        <time>2011-07-03T10:04:39.000Z</time>
      </trkpt>
      <trkpt lat="46.50682" lon="0.35119">
        <ele>131.3</ele>
        <time>2011-07-03T10:04:40.000Z</time>
      </trkpt>
      <trkpt lat="46.50682" lon="0.35119">
        <ele>131.3</ele>
        <time>2011-07-03T10:04:41.000Z</time>
      </trkpt>
      <trkpt lat="46.50682" lon="0.35119">
        <ele>131.3</ele>
        <time>2011-07-03T10:04:45.000Z</time>
      </trkpt>
      <trkpt lat="46.50682" lon="0.35119">
        <ele>131.3</ele>
        <time>2011-07-03T10:04:47.000Z</time>
      </trkpt>
      <trkpt lat="46.50682" lon="0.35119">
        <ele>131.3</ele>
        <time>2011-07-03T10:04:48.000Z</time>
      </trkpt>
      <trkpt lat="46.50682" lon="0.35119">
        <ele>131.3</ele>
        <time>2011-07-03T10:04:49.000Z</time>
      </trkpt>
      <trkpt lat="46.50682" lon="0.35119">
        <ele>131.3</ele>
        <time>2011-07-03T10:04:50.000Z</time>
      </trkpt>
      <trkpt lat="46.50682" lon="0.35119">
        <ele>131.3</ele>
        <time>2011-07-03T10:04:51.000Z</time>
      </trkpt>
      <trkpt lat="46.50682" lon="0.35119">
        <ele>131.3</ele>
        <time>2011-07-03T10:04:59.000Z</time>
      </trkpt>
      <trkpt lat="46.50681" lon="0.3512">
        <ele>131.3</ele>
        <time>2011-07-03T10:05:07.000Z</time>
      </trkpt>
      <trkpt lat="46.5068" lon="0.3512">
        <ele>131.4</ele>
        <time>2011-07-03T10:05:10.000Z</time>
      </trkpt>
      <trkpt lat="46.50679" lon="0.35121">
        <ele>131.4</ele>
        <time>2011-07-03T10:05:11.000Z</time>
      </trkpt>
      <trkpt lat="46.50679" lon="0.35121">
        <ele>131.4</ele>
        <time>2011-07-03T10:05:12.000Z</time>
      </trkpt>
      <trkpt lat="46.50679" lon="0.35121">
        <ele>131.4</ele>
        <time>2011-07-03T10:05:13.000Z</time>
      </trkpt>
      <trkpt lat="46.50679" lon="0.35122">
        <ele>131.4</ele>
        <time>2011-07-03T10:05:14.000Z</time>
      </trkpt>
      <trkpt lat="46.50679" lon="0.35122">
        <ele>131.4</ele>
        <time>2011-07-03T10:05:15.000Z</time>
      </trkpt>
      <trkpt lat="46.50679" lon="0.35122">
        <ele>131.4</ele>
        <time>2011-07-03T10:05:16.000Z</time>
      </trkpt>
      <trkpt lat="46.50679" lon="0.35122">
        <ele>131.4</ele>
        <time>2011-07-03T10:05:17.000Z</time>
      </trkpt>
      <trkpt lat="46.50679" lon="0.35122">
        <ele>131.4</ele>
        <time>2011-07-03T10:05:18.000Z</time>
      </trkpt>
      <trkpt lat="46.50679" lon="0.35122">
        <ele>131.4</ele>
        <time>2011-07-03T10:05:19.000Z</time>
      </trkpt>
      <trkpt lat="46.50679" lon="0.35122">
        <ele>131.4</ele>
        <time>2011-07-03T10:05:20.000Z</time>
      </trkpt>
      <trkpt lat="46.5068" lon="0.35122">
        <ele>131.3</ele>
        <time>2011-07-03T10:05:24.000Z</time>
      </trkpt>
      <trkpt lat="46.5068" lon="0.35122">
        <ele>131.3</ele>
        <time>2011-07-03T10:05:28.000Z</time>
      </trkpt>
      <trkpt lat="46.5068" lon="0.35122">
        <ele>131.3</ele>
        <time>2011-07-03T10:05:32.000Z</time>
      </trkpt>
      <trkpt lat="46.5068" lon="0.35122">
        <ele>131.3</ele>
        <time>2011-07-03T10:05:34.000Z</time>
      </trkpt>
      <trkpt lat="46.5068" lon="0.35122">
        <ele>131.3</ele>
        <time>2011-07-03T10:05:40.000Z</time>
      </trkpt>
      <trkpt lat="46.5068" lon="0.35122">
        <ele>131.3</ele>
        <time>2011-07-03T10:05:42.000Z</time>
      </trkpt>
      <trkpt lat="46.5068" lon="0.35122">
        <ele>131.3</ele>
        <time>2011-07-03T10:05:50.000Z</time>
      </trkpt>
      <trkpt lat="46.5068" lon="0.35122">
        <ele>131.3</ele>
        <time>2011-07-03T10:05:51.000Z</time>
      </trkpt>
      <trkpt lat="46.5068" lon="0.35122">
        <ele>131.3</ele>
        <time>2011-07-03T10:06:01.000Z</time>
      </trkpt>
      <trkpt lat="46.5068" lon="0.35122">
        <ele>131.3</ele>
        <time>2011-07-03T10:06:13.000Z</time>
      </trkpt>
      <trkpt lat="46.5068" lon="0.35122">
        <ele>131.3</ele>
        <time>2011-07-03T10:06:23.000Z</time>
      </trkpt>
      <trkpt lat="46.5068" lon="0.35122">
        <ele>131.3</ele>
        <time>2011-07-03T10:06:29.000Z</time>
      </trkpt>
      <trkpt lat="46.5068" lon="0.35122">
        <ele>131.3</ele>
        <time>2011-07-03T10:06:33.000Z</time>
      </trkpt>
      <trkpt lat="46.5068" lon="0.35122">
        <ele>131.3</ele>
        <time>2011-07-03T10:06:43.000Z</time>
      </trkpt>
      <trkpt lat="46.5068" lon="0.35122">
        <ele>131.3</ele>
        <time>2011-07-03T10:06:52.000Z</time>
      </trkpt>
      <trkpt lat="46.5068" lon="0.35122">
        <ele>131.3</ele>
        <time>2011-07-03T10:06:55.000Z</time>
      </trkpt>
      <trkpt lat="46.5068" lon="0.35122">
        <ele>131.3</ele>
        <time>2011-07-03T10:07:04.000Z</time>
      </trkpt>
      <trkpt lat="46.50682" lon="0.35119">
        <ele>131.3</ele>
        <time>2011-07-03T10:07:11.000Z</time>
      </trkpt>
      <trkpt lat="46.50683" lon="0.3512">
        <ele>131.2</ele>
        <time>2011-07-03T10:07:13.000Z</time>
      </trkpt>
      <trkpt lat="46.50683" lon="0.35119">
        <ele>131.2</ele>
        <time>2011-07-03T10:07:14.000Z</time>
      </trkpt>
      <trkpt lat="46.50684" lon="0.35119">
        <ele>131.2</ele>
        <time>2011-07-03T10:07:16.000Z</time>
      </trkpt>
      <trkpt lat="46.50684" lon="0.35119">
        <ele>131.2</ele>
        <time>2011-07-03T10:07:18.000Z</time>
      </trkpt>
      <trkpt lat="46.50684" lon="0.35118">
        <ele>131.2</ele>
        <time>2011-07-03T10:07:24.000Z</time>
      </trkpt>
      <trkpt lat="46.50683" lon="0.35118">
        <ele>131.3</ele>
        <time>2011-07-03T10:07:26.000Z</time>
      </trkpt>
      <trkpt lat="46.50683" lon="0.35118">
        <ele>131.3</ele>
        <time>2011-07-03T10:07:27.000Z</time>
      </trkpt>
      <trkpt lat="46.50683" lon="0.35118">
        <ele>131.3</ele>
        <time>2011-07-03T10:07:32.000Z</time>
      </trkpt>
      <trkpt lat="46.50683" lon="0.35118">
        <ele>131.3</ele>
        <time>2011-07-03T10:07:37.000Z</time>
      </trkpt>
      <trkpt lat="46.50683" lon="0.35118">
        <ele>131.3</ele>
        <time>2011-07-03T10:07:41.000Z</time>
      </trkpt>
      <trkpt lat="46.50683" lon="0.35118">
        <ele>131.3</ele>
        <time>2011-07-03T10:07:53.000Z</time>
      </trkpt>
      <trkpt lat="46.50683" lon="0.35118">
        <ele>131.3</ele>
        <time>2011-07-03T10:07:55.000Z</time>
      </trkpt>
      <trkpt lat="46.50683" lon="0.35118">
        <ele>131.3</ele>
        <time>2011-07-03T10:08:04.000Z</time>
      </trkpt>
      <trkpt lat="46.50683" lon="0.35118">
        <ele>131.3</ele>
        <time>2011-07-03T10:08:12.000Z</time>
      </trkpt>
      <trkpt lat="46.50683" lon="0.35118">
        <ele>131.3</ele>
        <time>2011-07-03T10:08:17.000Z</time>
      </trkpt>
      <trkpt lat="46.50683" lon="0.35118">
        <ele>131.3</ele>
        <time>2011-07-03T10:08:30.000Z</time>
      </trkpt>
      <trkpt lat="46.50683" lon="0.35119">
        <ele>131.3</ele>
        <time>2011-07-03T10:08:42.000Z</time>
      </trkpt>
      <trkpt lat="46.50683" lon="0.35119">
        <ele>131.3</ele>
        <time>2011-07-03T10:08:46.000Z</time>
      </trkpt>
      <trkpt lat="46.50683" lon="0.35119">
        <ele>131.3</ele>
        <time>2011-07-03T10:08:47.000Z</time>
      </trkpt>
      <trkpt lat="46.50683" lon="0.35119">
        <ele>131.3</ele>
        <time>2011-07-03T10:08:56.000Z</time>
      </trkpt>
      <trkpt lat="46.50683" lon="0.35119">
        <ele>131.3</ele>
        <time>2011-07-03T10:09:09.000Z</time>
      </trkpt>
      <trkpt lat="46.50683" lon="0.35119">
        <ele>131.3</ele>
        <time>2011-07-03T10:09:13.000Z</time>
      </trkpt>
      <trkpt lat="46.50683" lon="0.35119">
        <ele>131.3</ele>
        <time>2011-07-03T10:09:19.000Z</time>
      </trkpt>
      <trkpt lat="46.50683" lon="0.35119">
        <ele>131.2</ele>
        <time>2011-07-03T10:09:22.000Z</time>
      </trkpt>
      <trkpt lat="46.50683" lon="0.35119">
        <ele>131.2</ele>
        <time>2011-07-03T10:09:29.000Z</time>
      </trkpt>
      <trkpt lat="46.50683" lon="0.35119">
        <ele>131.2</ele>
        <time>2011-07-03T10:09:42.000Z</time>
      </trkpt>
      <trkpt lat="46.50683" lon="0.35119">
        <ele>131.2</ele>
        <time>2011-07-03T10:09:50.000Z</time>
      </trkpt>
      <trkpt lat="46.50683" lon="0.35119">
        <ele>131.2</ele>
        <time>2011-07-03T10:09:52.000Z</time>
      </trkpt>
      <trkpt lat="46.50683" lon="0.35119">
        <ele>131.2</ele>
        <time>2011-07-03T10:09:58.000Z</time>
      </trkpt>
      <trkpt lat="46.50683" lon="0.35119">
        <ele>131.2</ele>
        <time>2011-07-03T10:10:02.000Z</time>
      </trkpt>
      <trkpt lat="46.50683" lon="0.35119">
        <ele>131.2</ele>
        <time>2011-07-03T10:10:09.000Z</time>
      </trkpt>
      <trkpt lat="46.50683" lon="0.35119">
        <ele>131.2</ele>
        <time>2011-07-03T10:10:13.000Z</time>
      </trkpt>
      <trkpt lat="46.50683" lon="0.35119">
        <ele>131.2</ele>
        <time>2011-07-03T10:10:22.000Z</time>
      </trkpt>
      <trkpt lat="46.50683" lon="0.35119">
        <ele>131.2</ele>
        <time>2011-07-03T10:10:25.000Z</time>
      </trkpt>
      <trkpt lat="46.50683" lon="0.35119">
        <ele>131.2</ele>
        <time>2011-07-03T10:10:28.000Z</time>
      </trkpt>
      <trkpt lat="46.50683" lon="0.35119">
        <ele>131.2</ele>
        <time>2011-07-03T10:10:38.000Z</time>
      </trkpt>
      <trkpt lat="46.50683" lon="0.35119">
        <ele>131.2</ele>
        <time>2011-07-03T10:10:45.000Z</time>
      </trkpt>
      <trkpt lat="46.50683" lon="0.35119">
        <ele>131.2</ele>
        <time>2011-07-03T10:10:48.000Z</time>
      </trkpt>
      <trkpt lat="46.50683" lon="0.35119">
        <ele>131.2</ele>
        <time>2011-07-03T10:10:58.000Z</time>
      </trkpt>
      <trkpt lat="46.50683" lon="0.35119">
        <ele>131.2</ele>
        <time>2011-07-03T10:10:59.000Z</time>
      </trkpt>
      <trkpt lat="46.50683" lon="0.35119">
        <ele>131.2</ele>
        <time>2011-07-03T10:11:11.000Z</time>
      </trkpt>
      <trkpt lat="46.50683" lon="0.35119">
        <ele>131.2</ele>
        <time>2011-07-03T10:11:15.000Z</time>
      </trkpt>
      <trkpt lat="46.50683" lon="0.35119">
        <ele>131.2</ele>
        <time>2011-07-03T10:11:19.000Z</time>
      </trkpt>
      <trkpt lat="46.5068" lon="0.35117">
        <ele>131.4</ele>
        <time>2011-07-03T10:11:25.000Z</time>
      </trkpt>
      <trkpt lat="46.5068" lon="0.35118">
        <ele>131.4</ele>
        <time>2011-07-03T10:11:30.000Z</time>
      </trkpt>
      <trkpt lat="46.5068" lon="0.35118">
        <ele>131.4</ele>
        <time>2011-07-03T10:11:34.000Z</time>
      </trkpt>
      <trkpt lat="46.5068" lon="0.35118">
        <ele>131.4</ele>
        <time>2011-07-03T10:11:36.000Z</time>
      </trkpt>
      <trkpt lat="46.5068" lon="0.35119">
        <ele>131.4</ele>
        <time>2011-07-03T10:11:40.000Z</time>
      </trkpt>
      <trkpt lat="46.5068" lon="0.35119">
        <ele>131.4</ele>
        <time>2011-07-03T10:11:48.000Z</time>
      </trkpt>
      <trkpt lat="46.5068" lon="0.35119">
        <ele>131.4</ele>
        <time>2011-07-03T10:11:54.000Z</time>
      </trkpt>
      <trkpt lat="46.5068" lon="0.35119">
        <ele>131.4</ele>
        <time>2011-07-03T10:12:00.000Z</time>
      </trkpt>
      <trkpt lat="46.5068" lon="0.35119">
        <ele>131.4</ele>
        <time>2011-07-03T10:12:06.000Z</time>
      </trkpt>
      <trkpt lat="46.5068" lon="0.35119">
        <ele>131.4</ele>
        <time>2011-07-03T10:12:08.000Z</time>
      </trkpt>
      <trkpt lat="46.5068" lon="0.3512">
        <ele>131.4</ele>
        <time>2011-07-03T10:12:12.000Z</time>
      </trkpt>
      <trkpt lat="46.5068" lon="0.3512">
        <ele>131.4</ele>
        <time>2011-07-03T10:12:19.000Z</time>
      </trkpt>
      <trkpt lat="46.5068" lon="0.3512">
        <ele>131.4</ele>
        <time>2011-07-03T10:12:22.000Z</time>
      </trkpt>
      <trkpt lat="46.50681" lon="0.35121">
        <ele>131.3</ele>
        <time>2011-07-03T10:12:27.000Z</time>
      </trkpt>
      <trkpt lat="46.50681" lon="0.35121">
        <ele>131.3</ele>
        <time>2011-07-03T10:12:31.000Z</time>
      </trkpt>
      <trkpt lat="46.50681" lon="0.35121">
        <ele>131.3</ele>
        <time>2011-07-03T10:12:37.000Z</time>
      </trkpt>
      <trkpt lat="46.50681" lon="0.35121">
        <ele>131.3</ele>
        <time>2011-07-03T10:12:40.000Z</time>
      </trkpt>
      <trkpt lat="46.50681" lon="0.35121">
        <ele>131.3</ele>
        <time>2011-07-03T10:12:51.000Z</time>
      </trkpt>
      <trkpt lat="46.50681" lon="0.35121">
        <ele>131.3</ele>
        <time>2011-07-03T10:12:59.000Z</time>
      </trkpt>
      <trkpt lat="46.50681" lon="0.35121">
        <ele>131.3</ele>
        <time>2011-07-03T10:13:11.000Z</time>
      </trkpt>
      <trkpt lat="46.50681" lon="0.35121">
        <ele>131.3</ele>
        <time>2011-07-03T10:13:22.000Z</time>
      </trkpt>
      <trkpt lat="46.50681" lon="0.35121">
        <ele>131.3</ele>
        <time>2011-07-03T10:13:26.000Z</time>
      </trkpt>
      <trkpt lat="46.50681" lon="0.35121">
        <ele>131.3</ele>
        <time>2011-07-03T10:13:28.000Z</time>
      </trkpt>
      <trkpt lat="46.50681" lon="0.35121">
        <ele>131.3</ele>
        <time>2011-07-03T10:13:34.000Z</time>
      </trkpt>
      <trkpt lat="46.50681" lon="0.35121">
        <ele>131.3</ele>
        <time>2011-07-03T10:13:37.000Z</time>
      </trkpt>
      <trkpt lat="46.50681" lon="0.35121">
        <ele>131.3</ele>
        <time>2011-07-03T10:13:39.000Z</time>
      </trkpt>
      <trkpt lat="46.50681" lon="0.35121">
        <ele>131.3</ele>
        <time>2011-07-03T10:13:40.000Z</time>
      </trkpt>
      <trkpt lat="46.50681" lon="0.35121">
        <ele>131.3</ele>
        <time>2011-07-03T10:13:45.000Z</time>
      </trkpt>
      <trkpt lat="46.50683" lon="0.35121">
        <ele>131.2</ele>
        <time>2011-07-03T10:13:52.000Z</time>
      </trkpt>
      <trkpt lat="46.50683" lon="0.35121">
        <ele>131.2</ele>
        <time>2011-07-03T10:14:00.000Z</time>
      </trkpt>
      <trkpt lat="46.50683" lon="0.35121">
        <ele>131.2</ele>
        <time>2011-07-03T10:14:03.000Z</time>
      </trkpt>
      <trkpt lat="46.50683" lon="0.35121">
        <ele>131.2</ele>
        <time>2011-07-03T10:14:13.000Z</time>
      </trkpt>
      <trkpt lat="46.50683" lon="0.35121">
        <ele>131.2</ele>
        <time>2011-07-03T10:14:21.000Z</time>
      </trkpt>
      <trkpt lat="46.50682" lon="0.35121">
        <ele>131.2</ele>
        <time>2011-07-03T10:14:29.000Z</time>
      </trkpt>
      <trkpt lat="46.50682" lon="0.35121">
        <ele>131.2</ele>
        <time>2011-07-03T10:14:35.000Z</time>
      </trkpt>
      <trkpt lat="46.50682" lon="0.35121">
        <ele>131.2</ele>
        <time>2011-07-03T10:14:39.000Z</time>
      </trkpt>
      <trkpt lat="46.50682" lon="0.35121">
        <ele>131.2</ele>
        <time>2011-07-03T10:14:46.000Z</time>
      </trkpt>
      <trkpt lat="46.50682" lon="0.35121">
        <ele>131.2</ele>
        <time>2011-07-03T10:14:49.000Z</time>
      </trkpt>
      <trkpt lat="46.50682" lon="0.35121">
        <ele>131.2</ele>
        <time>2011-07-03T10:14:55.000Z</time>
      </trkpt>
      <trkpt lat="46.50682" lon="0.35122">
        <ele>131.2</ele>
        <time>2011-07-03T10:14:59.000Z</time>
      </trkpt>
      <trkpt lat="46.50682" lon="0.35122">
        <ele>131.3</ele>
        <time>2011-07-03T10:15:03.000Z</time>
      </trkpt>
      <trkpt lat="46.50682" lon="0.35122">
        <ele>131.3</ele>
        <time>2011-07-03T10:15:09.000Z</time>
      </trkpt>
      <trkpt lat="46.50682" lon="0.35122">
        <ele>131.3</ele>
        <time>2011-07-03T10:15:24.000Z</time>
      </trkpt>
      <trkpt lat="46.50682" lon="0.35122">
        <ele>131.3</ele>
        <time>2011-07-03T10:15:36.000Z</time>
      </trkpt>
      <trkpt lat="46.50681" lon="0.35122">
        <ele>131.3</ele>
        <time>2011-07-03T10:15:47.000Z</time>
      </trkpt>
      <trkpt lat="46.50681" lon="0.35122">
        <ele>131.3</ele>
        <time>2011-07-03T10:15:52.000Z</time>
      </trkpt>
      <trkpt lat="46.50681" lon="0.35122">
        <ele>131.3</ele>
        <time>2011-07-03T10:15:58.000Z</time>
      </trkpt>
      <trkpt lat="46.50681" lon="0.35122">
        <ele>131.3</ele>
        <time>2011-07-03T10:16:08.000Z</time>
      </trkpt>
      <trkpt lat="46.50681" lon="0.35122">
        <ele>131.3</ele>
        <time>2011-07-03T10:16:11.000Z</time>
      </trkpt>
      <trkpt lat="46.5068" lon="0.35122">
        <ele>131.3</ele>
        <time>2011-07-03T10:16:16.000Z</time>
      </trkpt>
      <trkpt lat="46.5068" lon="0.35122">
        <ele>131.3</ele>
        <time>2011-07-03T10:16:28.000Z</time>
      </trkpt>
      <trkpt lat="46.5068" lon="0.35123">
        <ele>131.3</ele>
        <time>2011-07-03T10:16:31.000Z</time>
      </trkpt>
      <trkpt lat="46.5068" lon="0.35123">
        <ele>131.3</ele>
        <time>2011-07-03T10:16:38.000Z</time>
      </trkpt>
      <trkpt lat="46.5068" lon="0.35123">
        <ele>131.3</ele>
        <time>2011-07-03T10:16:47.000Z</time>
      </trkpt>
      <trkpt lat="46.5068" lon="0.35123">
        <ele>131.3</ele>
        <time>2011-07-03T10:16:48.000Z</time>
      </trkpt>
      <trkpt lat="46.5068" lon="0.35123">
        <ele>131.3</ele>
        <time>2011-07-03T10:16:58.000Z</time>
      </trkpt>
      <trkpt lat="46.5068" lon="0.35123">
        <ele>131.3</ele>
        <time>2011-07-03T10:17:02.000Z</time>
      </trkpt>
      <trkpt lat="46.5068" lon="0.35123">
        <ele>131.3</ele>
        <time>2011-07-03T10:17:12.000Z</time>
      </trkpt>
      <trkpt lat="46.5068" lon="0.35123">
        <ele>131.3</ele>
        <time>2011-07-03T10:17:14.000Z</time>
      </trkpt>
      <trkpt lat="46.5068" lon="0.35123">
        <ele>131.3</ele>
        <time>2011-07-03T10:17:17.000Z</time>
      </trkpt>
      <trkpt lat="46.5068" lon="0.35123">
        <ele>131.3</ele>
        <time>2011-07-03T10:17:25.000Z</time>
      </trkpt>
      <trkpt lat="46.5068" lon="0.35123">
        <ele>131.3</ele>
        <time>2011-07-03T10:17:32.000Z</time>
      </trkpt>
      <trkpt lat="46.50675" lon="0.35122">
        <ele>131.6</ele>
        <time>2011-07-03T10:17:38.000Z</time>
      </trkpt>
      <trkpt lat="46.50672" lon="0.35121">
        <ele>131.7</ele>
        <time>2011-07-03T10:17:44.000Z</time>
      </trkpt>
      <trkpt lat="46.50672" lon="0.35121">
        <ele>131.7</ele>
        <time>2011-07-03T10:17:47.000Z</time>
      </trkpt>
      <trkpt lat="46.50672" lon="0.35121">
        <ele>131.7</ele>
        <time>2011-07-03T10:17:48.000Z</time>
      </trkpt>
      <trkpt lat="46.50672" lon="0.35121">
        <ele>131.7</ele>
        <time>2011-07-03T10:17:49.000Z</time>
      </trkpt>
      <trkpt lat="46.50672" lon="0.35121">
        <ele>131.7</ele>
        <time>2011-07-03T10:17:50.000Z</time>
      </trkpt>
      <trkpt lat="46.50672" lon="0.35121">
        <ele>131.7</ele>
        <time>2011-07-03T10:17:51.000Z</time>
      </trkpt>
      <trkpt lat="46.50672" lon="0.35121">
        <ele>131.7</ele>
        <time>2011-07-03T10:17:52.000Z</time>
      </trkpt>
      <trkpt lat="46.50672" lon="0.35121">
        <ele>131.7</ele>
        <time>2011-07-03T10:17:53.000Z</time>
      </trkpt>
      <trkpt lat="46.50672" lon="0.35121">
        <ele>131.7</ele>
        <time>2011-07-03T10:17:54.000Z</time>
      </trkpt>
      <trkpt lat="46.50672" lon="0.35121">
        <ele>131.7</ele>
        <time>2011-07-03T10:17:55.000Z</time>
      </trkpt>
      <trkpt lat="46.50672" lon="0.35121">
        <ele>131.7</ele>
        <time>2011-07-03T10:17:56.000Z</time>
      </trkpt>
      <trkpt lat="46.50672" lon="0.35121">
        <ele>131.7</ele>
        <time>2011-07-03T10:17:57.000Z</time>
      </trkpt>
      <trkpt lat="46.50672" lon="0.35121">
        <ele>131.7</ele>
        <time>2011-07-03T10:17:58.000Z</time>
      </trkpt>
      <trkpt lat="46.50672" lon="0.35121">
        <ele>131.7</ele>
        <time>2011-07-03T10:18:00.000Z</time>
      </trkpt>
      <trkpt lat="46.50672" lon="0.35121">
        <ele>131.7</ele>
        <time>2011-07-03T10:18:06.000Z</time>
      </trkpt>
      <trkpt lat="46.50673" lon="0.35122">
        <ele>131.7</ele>
        <time>2011-07-03T10:18:08.000Z</time>
      </trkpt>
      <trkpt lat="46.50673" lon="0.35122">
        <ele>131.7</ele>
        <time>2011-07-03T10:18:11.000Z</time>
      </trkpt>
      <trkpt lat="46.50674" lon="0.35121">
        <ele>131.6</ele>
        <time>2011-07-03T10:18:13.000Z</time>
      </trkpt>
      <trkpt lat="46.50675" lon="0.3512">
        <ele>131.6</ele>
        <time>2011-07-03T10:18:14.000Z</time>
      </trkpt>
      <trkpt lat="46.50677" lon="0.35117">
        <ele>131.5</ele>
        <time>2011-07-03T10:18:17.000Z</time>
      </trkpt>
      <trkpt lat="46.50677" lon="0.35114">
        <ele>131.6</ele>
        <time>2011-07-03T10:18:19.000Z</time>
      </trkpt>
      <trkpt lat="46.50678" lon="0.35109">
        <ele>131.6</ele>
        <time>2011-07-03T10:18:22.000Z</time>
      </trkpt>
      <trkpt lat="46.50677" lon="0.35107">
        <ele>131.6</ele>
        <time>2011-07-03T10:18:24.000Z</time>
      </trkpt>
      <trkpt lat="46.50677" lon="0.35105">
        <ele>131.5</ele>
        <time>2011-07-03T10:18:25.000Z</time>
      </trkpt>
      <trkpt lat="46.50678" lon="0.35103">
        <ele>131.5</ele>
        <time>2011-07-03T10:18:28.000Z</time>
      </trkpt>
      <trkpt lat="46.50677" lon="0.35104">
        <ele>131.5</ele>
        <time>2011-07-03T10:18:34.000Z</time>
      </trkpt>
      <trkpt lat="46.50678" lon="0.35103">
        <ele>131.5</ele>
        <time>2011-07-03T10:18:42.000Z</time>
      </trkpt>
      <trkpt lat="46.50678" lon="0.35103">
        <ele>131.5</ele>
        <time>2011-07-03T10:18:52.000Z</time>
      </trkpt>
      <trkpt lat="46.50678" lon="0.35103">
        <ele>131.5</ele>
        <time>2011-07-03T10:19:01.000Z</time>
      </trkpt>
      <trkpt lat="46.50677" lon="0.35103">
        <ele>131.5</ele>
        <time>2011-07-03T10:19:09.000Z</time>
      </trkpt>
      <trkpt lat="46.50677" lon="0.35104">
        <ele>131.5</ele>
        <time>2011-07-03T10:19:17.000Z</time>
      </trkpt>
      <trkpt lat="46.50677" lon="0.35104">
        <ele>131.5</ele>
        <time>2011-07-03T10:19:18.000Z</time>
      </trkpt>
      <trkpt lat="46.50677" lon="0.35103">
        <ele>131.5</ele>
        <time>2011-07-03T10:19:22.000Z</time>
      </trkpt>
      <trkpt lat="46.50676" lon="0.35105">
        <ele>131.6</ele>
        <time>2011-07-03T10:19:28.000Z</time>
      </trkpt>
      <trkpt lat="46.50676" lon="0.35105">
        <ele>131.6</ele>
        <time>2011-07-03T10:19:34.000Z</time>
      </trkpt>
      <trkpt lat="46.50676" lon="0.35105">
        <ele>131.6</ele>
        <time>2011-07-03T10:19:35.000Z</time>
      </trkpt>
    </trkseg>
  </trk>
</gpx>